<?xml version="1.0" encoding="utf-8" standalone="yes"?>
<gpx version="1.1" creator="Locus Map, Android"
 xmlns="http://www.topografix.com/GPX/1/1"
 xmlns:xsi="http://www.w3.org/2001/XMLSchema-instance"
 xsi:schemaLocation="http://www.topografix.com/GPX/1/1 http://www.topografix.com/GPX/1/1/gpx.xsd"
 xmlns:gpxx="http://www.garmin.com/xmlschemas/GpxExtensions/v3"
 xmlns:gpxtrkx="http://www.garmin.com/xmlschemas/TrackStatsExtension/v1"
 xmlns:gpxtpx="http://www.garmin.com/xmlschemas/TrackPointExtension/v2"
 xmlns:locus="http://www.locusmap.eu">
	<metadata>
		<desc>File with points/tracks from Locus Map Classic/3.70.7</desc>
		<time>2024-03-29T20:57:49.428Z</time>
	</metadata>
<trk>
<name>Giro ad Anello dei Corni di Canzo </name>
	<extensions>
		<line xmlns="http://www.topografix.com/GPX/gpx_style/0/2">
			<color>0000FF</color>
			<opacity>0.59</opacity>
			<width>6.0</width>
			<extensions>
				<locus:lsColorBase>#960000FF</locus:lsColorBase>
				<locus:lsWidth>6.0</locus:lsWidth>
				<locus:lsUnits>PIXELS</locus:lsUnits>
			</extensions>
		</line>
		<locus:activity>hiking</locus:activity>
	</extensions>
<trkseg>
<trkpt lat="45.8488030" lon="9.2867530">
	<ele>480.60</ele>
	<time>2024-03-25T06:42:32.000Z</time>
</trkpt>
<trkpt lat="45.8487650" lon="9.2867640">
	<ele>480.60</ele>
	<time>2024-03-25T06:42:33.000Z</time>
</trkpt>
<trkpt lat="45.8487380" lon="9.2867780">
	<ele>480.60</ele>
	<time>2024-03-25T06:42:34.000Z</time>
</trkpt>
<trkpt lat="45.8487130" lon="9.2867980">
	<ele>480.60</ele>
	<time>2024-03-25T06:42:35.000Z</time>
</trkpt>
<trkpt lat="45.8486900" lon="9.2868170">
	<ele>480.60</ele>
	<time>2024-03-25T06:42:36.000Z</time>
</trkpt>
<trkpt lat="45.8486670" lon="9.2868350">
	<ele>480.40</ele>
	<time>2024-03-25T06:42:37.000Z</time>
</trkpt>
<trkpt lat="45.8486480" lon="9.2868460">
	<ele>480.40</ele>
	<time>2024-03-25T06:42:38.000Z</time>
</trkpt>
<trkpt lat="45.8486390" lon="9.2868590">
	<ele>480.40</ele>
	<time>2024-03-25T06:42:39.000Z</time>
</trkpt>
<trkpt lat="45.8486260" lon="9.2868690">
	<ele>480.40</ele>
	<time>2024-03-25T06:42:40.000Z</time>
</trkpt>
<trkpt lat="45.8486210" lon="9.2868810">
	<ele>480.40</ele>
	<time>2024-03-25T06:42:41.000Z</time>
</trkpt>
<trkpt lat="45.8486260" lon="9.2868810">
	<ele>480.60</ele>
	<time>2024-03-25T06:42:42.000Z</time>
</trkpt>
<trkpt lat="45.8486480" lon="9.2868920">
	<ele>480.60</ele>
	<time>2024-03-25T06:42:43.000Z</time>
</trkpt>
<trkpt lat="45.8486630" lon="9.2869000">
	<ele>480.80</ele>
	<time>2024-03-25T06:42:44.000Z</time>
</trkpt>
<trkpt lat="45.8486680" lon="9.2869010">
	<ele>481.00</ele>
	<time>2024-03-25T06:42:45.000Z</time>
</trkpt>
<trkpt lat="45.8486510" lon="9.2869090">
	<ele>481.00</ele>
	<time>2024-03-25T06:42:46.000Z</time>
</trkpt>
<trkpt lat="45.8486410" lon="9.2869090">
	<ele>480.60</ele>
	<time>2024-03-25T06:42:47.000Z</time>
</trkpt>
<trkpt lat="45.8486350" lon="9.2869030">
	<ele>480.60</ele>
	<time>2024-03-25T06:42:48.000Z</time>
</trkpt>
<trkpt lat="45.8486290" lon="9.2868930">
	<ele>480.60</ele>
	<time>2024-03-25T06:42:49.000Z</time>
</trkpt>
<trkpt lat="45.8486300" lon="9.2869020">
	<ele>480.60</ele>
	<time>2024-03-25T06:42:50.000Z</time>
</trkpt>
<trkpt lat="45.8486240" lon="9.2869160">
	<ele>480.80</ele>
	<time>2024-03-25T06:42:51.000Z</time>
</trkpt>
<trkpt lat="45.8486180" lon="9.2869220">
	<ele>480.80</ele>
	<time>2024-03-25T06:42:52.000Z</time>
</trkpt>
<trkpt lat="45.8486060" lon="9.2869350">
	<ele>481.00</ele>
	<time>2024-03-25T06:42:53.000Z</time>
</trkpt>
<trkpt lat="45.8486020" lon="9.2869470">
	<ele>481.00</ele>
	<time>2024-03-25T06:42:54.000Z</time>
</trkpt>
<trkpt lat="45.8486040" lon="9.2869590">
	<ele>481.20</ele>
	<time>2024-03-25T06:42:55.000Z</time>
</trkpt>
<trkpt lat="45.8486080" lon="9.2869750">
	<ele>481.20</ele>
	<time>2024-03-25T06:42:56.000Z</time>
</trkpt>
<trkpt lat="45.8486080" lon="9.2869920">
	<ele>481.20</ele>
	<time>2024-03-25T06:42:57.000Z</time>
</trkpt>
<trkpt lat="45.8486050" lon="9.2870180">
	<ele>481.40</ele>
	<time>2024-03-25T06:42:59.000Z</time>
</trkpt>
<trkpt lat="45.8485990" lon="9.2870380">
	<ele>481.40</ele>
	<time>2024-03-25T06:43:00.000Z</time>
</trkpt>
<trkpt lat="45.8485970" lon="9.2870530">
	<ele>481.40</ele>
	<time>2024-03-25T06:43:01.000Z</time>
</trkpt>
<trkpt lat="45.8485950" lon="9.2870670">
	<ele>481.60</ele>
	<time>2024-03-25T06:43:02.000Z</time>
</trkpt>
<trkpt lat="45.8485930" lon="9.2870820">
	<ele>481.60</ele>
	<time>2024-03-25T06:43:03.000Z</time>
</trkpt>
<trkpt lat="45.8485930" lon="9.2871010">
	<ele>481.60</ele>
	<time>2024-03-25T06:43:04.000Z</time>
</trkpt>
<trkpt lat="45.8485890" lon="9.2871230">
	<ele>481.80</ele>
	<time>2024-03-25T06:43:05.000Z</time>
</trkpt>
<trkpt lat="45.8485890" lon="9.2871340">
	<ele>481.80</ele>
	<time>2024-03-25T06:43:06.000Z</time>
</trkpt>
<trkpt lat="45.8485900" lon="9.2871450">
	<ele>481.80</ele>
	<time>2024-03-25T06:43:07.000Z</time>
</trkpt>
<trkpt lat="45.8485850" lon="9.2871620">
	<ele>482.00</ele>
	<time>2024-03-25T06:43:08.000Z</time>
</trkpt>
<trkpt lat="45.8485880" lon="9.2871750">
	<ele>482.20</ele>
	<time>2024-03-25T06:43:09.000Z</time>
</trkpt>
<trkpt lat="45.8485880" lon="9.2871910">
	<ele>482.20</ele>
	<time>2024-03-25T06:43:10.000Z</time>
</trkpt>
<trkpt lat="45.8485880" lon="9.2871970">
	<ele>482.40</ele>
	<time>2024-03-25T06:43:11.000Z</time>
</trkpt>
<trkpt lat="45.8485850" lon="9.2872020">
	<ele>482.60</ele>
	<time>2024-03-25T06:43:12.000Z</time>
</trkpt>
<trkpt lat="45.8485820" lon="9.2872050">
	<ele>482.80</ele>
	<time>2024-03-25T06:43:13.000Z</time>
</trkpt>
<trkpt lat="45.8485750" lon="9.2872090">
	<ele>483.00</ele>
	<time>2024-03-25T06:43:14.000Z</time>
</trkpt>
<trkpt lat="45.8485670" lon="9.2872150">
	<ele>483.20</ele>
	<time>2024-03-25T06:43:15.000Z</time>
</trkpt>
<trkpt lat="45.8485550" lon="9.2872280">
	<ele>483.20</ele>
	<time>2024-03-25T06:43:16.000Z</time>
</trkpt>
<trkpt lat="45.8485460" lon="9.2872400">
	<ele>483.40</ele>
	<time>2024-03-25T06:43:17.000Z</time>
</trkpt>
<trkpt lat="45.8485290" lon="9.2872670">
	<ele>483.80</ele>
	<time>2024-03-25T06:43:19.000Z</time>
</trkpt>
<trkpt lat="45.8485140" lon="9.2872820">
	<ele>484.00</ele>
	<time>2024-03-25T06:43:20.000Z</time>
</trkpt>
<trkpt lat="45.8485090" lon="9.2873020">
	<ele>484.20</ele>
	<time>2024-03-25T06:43:21.000Z</time>
</trkpt>
<trkpt lat="45.8485080" lon="9.2873200">
	<ele>484.40</ele>
	<time>2024-03-25T06:43:22.000Z</time>
</trkpt>
<trkpt lat="45.8485010" lon="9.2873370">
	<ele>484.60</ele>
	<time>2024-03-25T06:43:23.000Z</time>
</trkpt>
<trkpt lat="45.8484920" lon="9.2873500">
	<ele>484.80</ele>
	<time>2024-03-25T06:43:24.000Z</time>
</trkpt>
<trkpt lat="45.8484820" lon="9.2873660">
	<ele>485.00</ele>
	<time>2024-03-25T06:43:25.000Z</time>
</trkpt>
<trkpt lat="45.8484740" lon="9.2873830">
	<ele>485.20</ele>
	<time>2024-03-25T06:43:26.000Z</time>
</trkpt>
<trkpt lat="45.8484660" lon="9.2873990">
	<ele>485.40</ele>
	<time>2024-03-25T06:43:27.000Z</time>
</trkpt>
<trkpt lat="45.8484560" lon="9.2874110">
	<ele>485.60</ele>
	<time>2024-03-25T06:43:28.000Z</time>
</trkpt>
<trkpt lat="45.8484440" lon="9.2874240">
	<ele>485.80</ele>
	<time>2024-03-25T06:43:29.000Z</time>
</trkpt>
<trkpt lat="45.8484320" lon="9.2874370">
	<ele>486.00</ele>
	<time>2024-03-25T06:43:30.000Z</time>
</trkpt>
<trkpt lat="45.8484240" lon="9.2874450">
	<ele>486.20</ele>
	<time>2024-03-25T06:43:31.000Z</time>
</trkpt>
<trkpt lat="45.8484150" lon="9.2874560">
	<ele>486.20</ele>
	<time>2024-03-25T06:43:32.000Z</time>
</trkpt>
<trkpt lat="45.8484080" lon="9.2874660">
	<ele>486.40</ele>
	<time>2024-03-25T06:43:33.000Z</time>
</trkpt>
<trkpt lat="45.8483990" lon="9.2874730">
	<ele>486.60</ele>
	<time>2024-03-25T06:43:34.000Z</time>
</trkpt>
<trkpt lat="45.8483860" lon="9.2874840">
	<ele>486.60</ele>
	<time>2024-03-25T06:43:35.000Z</time>
</trkpt>
<trkpt lat="45.8483790" lon="9.2874930">
	<ele>486.80</ele>
	<time>2024-03-25T06:43:36.000Z</time>
</trkpt>
<trkpt lat="45.8483740" lon="9.2875050">
	<ele>487.00</ele>
	<time>2024-03-25T06:43:37.000Z</time>
</trkpt>
<trkpt lat="45.8483740" lon="9.2875140">
	<ele>487.00</ele>
	<time>2024-03-25T06:43:38.000Z</time>
</trkpt>
<trkpt lat="45.8483720" lon="9.2875250">
	<ele>487.20</ele>
	<time>2024-03-25T06:43:39.000Z</time>
</trkpt>
<trkpt lat="45.8483700" lon="9.2875370">
	<ele>487.40</ele>
	<time>2024-03-25T06:43:40.000Z</time>
</trkpt>
<trkpt lat="45.8483710" lon="9.2875430">
	<ele>487.40</ele>
	<time>2024-03-25T06:43:41.000Z</time>
</trkpt>
<trkpt lat="45.8483680" lon="9.2875560">
	<ele>487.60</ele>
	<time>2024-03-25T06:43:42.000Z</time>
</trkpt>
<trkpt lat="45.8483640" lon="9.2875690">
	<ele>487.60</ele>
	<time>2024-03-25T06:43:43.000Z</time>
</trkpt>
<trkpt lat="45.8483630" lon="9.2875760">
	<ele>487.60</ele>
	<time>2024-03-25T06:43:44.000Z</time>
</trkpt>
<trkpt lat="45.8483620" lon="9.2875840">
	<ele>487.80</ele>
	<time>2024-03-25T06:43:45.000Z</time>
</trkpt>
<trkpt lat="45.8483590" lon="9.2875940">
	<ele>487.80</ele>
	<time>2024-03-25T06:43:46.000Z</time>
</trkpt>
<trkpt lat="45.8483530" lon="9.2876090">
	<ele>487.80</ele>
	<time>2024-03-25T06:43:47.000Z</time>
</trkpt>
<trkpt lat="45.8483480" lon="9.2876240">
	<ele>487.80</ele>
	<time>2024-03-25T06:43:48.000Z</time>
</trkpt>
<trkpt lat="45.8483510" lon="9.2876320">
	<ele>487.80</ele>
	<time>2024-03-25T06:43:49.000Z</time>
</trkpt>
<trkpt lat="45.8483620" lon="9.2876360">
	<ele>487.80</ele>
	<time>2024-03-25T06:43:50.000Z</time>
</trkpt>
<trkpt lat="45.8483750" lon="9.2876370">
	<ele>488.00</ele>
	<time>2024-03-25T06:43:51.000Z</time>
</trkpt>
<trkpt lat="45.8483880" lon="9.2876340">
	<ele>488.20</ele>
	<time>2024-03-25T06:43:52.000Z</time>
</trkpt>
<trkpt lat="45.8483990" lon="9.2876360">
	<ele>488.40</ele>
	<time>2024-03-25T06:43:53.000Z</time>
</trkpt>
<trkpt lat="45.8484060" lon="9.2876390">
	<ele>488.40</ele>
	<time>2024-03-25T06:43:54.000Z</time>
</trkpt>
<trkpt lat="45.8484130" lon="9.2876390">
	<ele>488.60</ele>
	<time>2024-03-25T06:43:55.000Z</time>
</trkpt>
<trkpt lat="45.8484190" lon="9.2876370">
	<ele>488.80</ele>
	<time>2024-03-25T06:43:56.000Z</time>
</trkpt>
<trkpt lat="45.8484270" lon="9.2876360">
	<ele>488.80</ele>
	<time>2024-03-25T06:43:57.000Z</time>
</trkpt>
<trkpt lat="45.8484350" lon="9.2876340">
	<ele>489.00</ele>
	<time>2024-03-25T06:43:58.000Z</time>
</trkpt>
<trkpt lat="45.8484390" lon="9.2876310">
	<ele>489.20</ele>
	<time>2024-03-25T06:43:59.000Z</time>
</trkpt>
<trkpt lat="45.8484450" lon="9.2876250">
	<ele>489.40</ele>
	<time>2024-03-25T06:44:00.000Z</time>
</trkpt>
<trkpt lat="45.8484460" lon="9.2876180">
	<ele>489.60</ele>
	<time>2024-03-25T06:44:01.000Z</time>
</trkpt>
<trkpt lat="45.8484470" lon="9.2876130">
	<ele>489.60</ele>
	<time>2024-03-25T06:44:02.000Z</time>
</trkpt>
<trkpt lat="45.8484460" lon="9.2876100">
	<ele>489.80</ele>
	<time>2024-03-25T06:44:03.000Z</time>
</trkpt>
<trkpt lat="45.8484410" lon="9.2876080">
	<ele>489.80</ele>
	<time>2024-03-25T06:44:04.000Z</time>
</trkpt>
<trkpt lat="45.8484410" lon="9.2876150">
	<ele>490.00</ele>
	<time>2024-03-25T06:44:05.000Z</time>
</trkpt>
<trkpt lat="45.8484420" lon="9.2876180">
	<ele>490.00</ele>
	<time>2024-03-25T06:44:06.000Z</time>
</trkpt>
<trkpt lat="45.8484450" lon="9.2876280">
	<ele>490.00</ele>
	<time>2024-03-25T06:44:07.000Z</time>
</trkpt>
<trkpt lat="45.8484490" lon="9.2876430">
	<ele>489.20</ele>
	<time>2024-03-25T06:44:08.000Z</time>
</trkpt>
<trkpt lat="45.8484540" lon="9.2876630">
	<ele>489.20</ele>
	<time>2024-03-25T06:44:09.000Z</time>
</trkpt>
<trkpt lat="45.8484540" lon="9.2876630">
	<ele>489.20</ele>
	<time>2024-03-25T06:44:10.000Z</time>
</trkpt>
<trkpt lat="45.8484540" lon="9.2876630">
	<ele>489.20</ele>
	<time>2024-03-25T06:44:11.000Z</time>
</trkpt>
<trkpt lat="45.8484540" lon="9.2876630">
	<ele>489.20</ele>
	<time>2024-03-25T06:44:12.000Z</time>
</trkpt>
<trkpt lat="45.8484540" lon="9.2876630">
	<ele>489.00</ele>
	<time>2024-03-25T06:44:13.000Z</time>
</trkpt>
<trkpt lat="45.8484540" lon="9.2876630">
	<ele>488.80</ele>
	<time>2024-03-25T06:44:14.000Z</time>
</trkpt>
<trkpt lat="45.8484540" lon="9.2876630">
	<ele>488.80</ele>
	<time>2024-03-25T06:44:15.000Z</time>
</trkpt>
<trkpt lat="45.8484500" lon="9.2876630">
	<ele>488.60</ele>
	<time>2024-03-25T06:44:16.000Z</time>
</trkpt>
<trkpt lat="45.8484340" lon="9.2876580">
	<ele>488.40</ele>
	<time>2024-03-25T06:44:17.000Z</time>
</trkpt>
<trkpt lat="45.8484180" lon="9.2876550">
	<ele>488.00</ele>
	<time>2024-03-25T06:44:18.000Z</time>
</trkpt>
<trkpt lat="45.8484010" lon="9.2876550">
	<ele>487.80</ele>
	<time>2024-03-25T06:44:19.000Z</time>
</trkpt>
<trkpt lat="45.8483870" lon="9.2876590">
	<ele>487.80</ele>
	<time>2024-03-25T06:44:20.000Z</time>
</trkpt>
<trkpt lat="45.8483790" lon="9.2876610">
	<ele>487.80</ele>
	<time>2024-03-25T06:44:21.000Z</time>
</trkpt>
<trkpt lat="45.8483740" lon="9.2876600">
	<ele>487.60</ele>
	<time>2024-03-25T06:44:22.000Z</time>
</trkpt>
<trkpt lat="45.8483720" lon="9.2876620">
	<ele>487.80</ele>
	<time>2024-03-25T06:44:23.000Z</time>
</trkpt>
<trkpt lat="45.8483700" lon="9.2876640">
	<ele>488.00</ele>
	<time>2024-03-25T06:44:24.000Z</time>
</trkpt>
<trkpt lat="45.8483690" lon="9.2876640">
	<ele>488.00</ele>
	<time>2024-03-25T06:44:25.000Z</time>
</trkpt>
<trkpt lat="45.8483730" lon="9.2876670">
	<ele>488.00</ele>
	<time>2024-03-25T06:44:26.000Z</time>
</trkpt>
<trkpt lat="45.8483790" lon="9.2876690">
	<ele>488.20</ele>
	<time>2024-03-25T06:44:27.000Z</time>
</trkpt>
<trkpt lat="45.8483880" lon="9.2876690">
	<ele>488.20</ele>
	<time>2024-03-25T06:44:28.000Z</time>
</trkpt>
<trkpt lat="45.8484010" lon="9.2876670">
	<ele>487.80</ele>
	<time>2024-03-25T06:44:29.000Z</time>
</trkpt>
<trkpt lat="45.8484140" lon="9.2876650">
	<ele>487.80</ele>
	<time>2024-03-25T06:44:30.000Z</time>
</trkpt>
<trkpt lat="45.8484280" lon="9.2876630">
	<ele>488.40</ele>
	<time>2024-03-25T06:44:31.000Z</time>
</trkpt>
<trkpt lat="45.8484420" lon="9.2876600">
	<ele>488.40</ele>
	<time>2024-03-25T06:44:32.000Z</time>
</trkpt>
<trkpt lat="45.8484550" lon="9.2876640">
	<ele>489.20</ele>
	<time>2024-03-25T06:44:33.000Z</time>
</trkpt>
<trkpt lat="45.8484640" lon="9.2876710">
	<ele>489.20</ele>
	<time>2024-03-25T06:44:34.000Z</time>
</trkpt>
<trkpt lat="45.8484730" lon="9.2876720">
	<ele>489.20</ele>
	<time>2024-03-25T06:44:35.000Z</time>
</trkpt>
<trkpt lat="45.8484880" lon="9.2876750">
	<ele>489.20</ele>
	<time>2024-03-25T06:44:36.000Z</time>
</trkpt>
<trkpt lat="45.8485000" lon="9.2876750">
	<ele>490.00</ele>
	<time>2024-03-25T06:44:37.000Z</time>
</trkpt>
<trkpt lat="45.8485130" lon="9.2876740">
	<ele>490.40</ele>
	<time>2024-03-25T06:44:38.000Z</time>
</trkpt>
<trkpt lat="45.8485240" lon="9.2876750">
	<ele>490.60</ele>
	<time>2024-03-25T06:44:39.000Z</time>
</trkpt>
<trkpt lat="45.8485380" lon="9.2876790">
	<ele>490.80</ele>
	<time>2024-03-25T06:44:40.000Z</time>
</trkpt>
<trkpt lat="45.8485540" lon="9.2876770">
	<ele>491.00</ele>
	<time>2024-03-25T06:44:41.000Z</time>
</trkpt>
<trkpt lat="45.8485670" lon="9.2876720">
	<ele>491.20</ele>
	<time>2024-03-25T06:44:42.000Z</time>
</trkpt>
<trkpt lat="45.8485760" lon="9.2876640">
	<ele>491.20</ele>
	<time>2024-03-25T06:44:43.000Z</time>
</trkpt>
<trkpt lat="45.8485840" lon="9.2876590">
	<ele>491.40</ele>
	<time>2024-03-25T06:44:44.000Z</time>
</trkpt>
<trkpt lat="45.8485950" lon="9.2876590">
	<ele>491.80</ele>
	<time>2024-03-25T06:44:45.000Z</time>
</trkpt>
<trkpt lat="45.8486040" lon="9.2876560">
	<ele>491.80</ele>
	<time>2024-03-25T06:44:46.000Z</time>
</trkpt>
<trkpt lat="45.8486110" lon="9.2876570">
	<ele>492.00</ele>
	<time>2024-03-25T06:44:47.000Z</time>
</trkpt>
<trkpt lat="45.8486240" lon="9.2876590">
	<ele>492.00</ele>
	<time>2024-03-25T06:44:48.000Z</time>
</trkpt>
<trkpt lat="45.8486350" lon="9.2876590">
	<ele>492.20</ele>
	<time>2024-03-25T06:44:49.000Z</time>
</trkpt>
<trkpt lat="45.8486450" lon="9.2876610">
	<ele>492.40</ele>
	<time>2024-03-25T06:44:50.000Z</time>
</trkpt>
<trkpt lat="45.8486550" lon="9.2876600">
	<ele>492.60</ele>
	<time>2024-03-25T06:44:51.000Z</time>
</trkpt>
<trkpt lat="45.8486650" lon="9.2876570">
	<ele>492.80</ele>
	<time>2024-03-25T06:44:52.000Z</time>
</trkpt>
<trkpt lat="45.8486750" lon="9.2876590">
	<ele>493.00</ele>
	<time>2024-03-25T06:44:53.000Z</time>
</trkpt>
<trkpt lat="45.8486860" lon="9.2876680">
	<ele>493.20</ele>
	<time>2024-03-25T06:44:54.000Z</time>
</trkpt>
<trkpt lat="45.8486910" lon="9.2876760">
	<ele>493.40</ele>
	<time>2024-03-25T06:44:55.000Z</time>
</trkpt>
<trkpt lat="45.8487000" lon="9.2876820">
	<ele>493.60</ele>
	<time>2024-03-25T06:44:56.000Z</time>
</trkpt>
<trkpt lat="45.8487080" lon="9.2876830">
	<ele>493.80</ele>
	<time>2024-03-25T06:44:57.000Z</time>
</trkpt>
<trkpt lat="45.8487150" lon="9.2876850">
	<ele>493.80</ele>
	<time>2024-03-25T06:44:58.000Z</time>
</trkpt>
<trkpt lat="45.8487230" lon="9.2876870">
	<ele>494.00</ele>
	<time>2024-03-25T06:44:59.000Z</time>
</trkpt>
<trkpt lat="45.8487350" lon="9.2876900">
	<ele>494.20</ele>
	<time>2024-03-25T06:45:00.000Z</time>
</trkpt>
<trkpt lat="45.8487460" lon="9.2876920">
	<ele>494.40</ele>
	<time>2024-03-25T06:45:01.000Z</time>
</trkpt>
<trkpt lat="45.8487580" lon="9.2876930">
	<ele>494.60</ele>
	<time>2024-03-25T06:45:02.000Z</time>
</trkpt>
<trkpt lat="45.8487690" lon="9.2876920">
	<ele>494.80</ele>
	<time>2024-03-25T06:45:03.000Z</time>
</trkpt>
<trkpt lat="45.8487790" lon="9.2876930">
	<ele>495.00</ele>
	<time>2024-03-25T06:45:04.000Z</time>
</trkpt>
<trkpt lat="45.8487880" lon="9.2876930">
	<ele>495.20</ele>
	<time>2024-03-25T06:45:05.000Z</time>
</trkpt>
<trkpt lat="45.8487900" lon="9.2876970">
	<ele>495.40</ele>
	<time>2024-03-25T06:45:06.000Z</time>
</trkpt>
<trkpt lat="45.8487930" lon="9.2877020">
	<ele>495.60</ele>
	<time>2024-03-25T06:45:07.000Z</time>
</trkpt>
<trkpt lat="45.8488000" lon="9.2877100">
	<ele>495.60</ele>
	<time>2024-03-25T06:45:08.000Z</time>
</trkpt>
<trkpt lat="45.8488130" lon="9.2877180">
	<ele>495.80</ele>
	<time>2024-03-25T06:45:09.000Z</time>
</trkpt>
<trkpt lat="45.8488250" lon="9.2877310">
	<ele>495.80</ele>
	<time>2024-03-25T06:45:10.000Z</time>
</trkpt>
<trkpt lat="45.8488390" lon="9.2877420">
	<ele>496.00</ele>
	<time>2024-03-25T06:45:11.000Z</time>
</trkpt>
<trkpt lat="45.8488490" lon="9.2877510">
	<ele>496.20</ele>
	<time>2024-03-25T06:45:12.000Z</time>
</trkpt>
<trkpt lat="45.8488600" lon="9.2877540">
	<ele>496.40</ele>
	<time>2024-03-25T06:45:13.000Z</time>
</trkpt>
<trkpt lat="45.8488690" lon="9.2877570">
	<ele>496.60</ele>
	<time>2024-03-25T06:45:14.000Z</time>
</trkpt>
<trkpt lat="45.8488810" lon="9.2877640">
	<ele>496.80</ele>
	<time>2024-03-25T06:45:15.000Z</time>
</trkpt>
<trkpt lat="45.8488940" lon="9.2877730">
	<ele>496.80</ele>
	<time>2024-03-25T06:45:16.000Z</time>
</trkpt>
<trkpt lat="45.8489060" lon="9.2877790">
	<ele>497.00</ele>
	<time>2024-03-25T06:45:17.000Z</time>
</trkpt>
<trkpt lat="45.8489180" lon="9.2877840">
	<ele>497.20</ele>
	<time>2024-03-25T06:45:18.000Z</time>
</trkpt>
<trkpt lat="45.8489300" lon="9.2877920">
	<ele>497.40</ele>
	<time>2024-03-25T06:45:19.000Z</time>
</trkpt>
<trkpt lat="45.8489420" lon="9.2878010">
	<ele>497.60</ele>
	<time>2024-03-25T06:45:20.000Z</time>
</trkpt>
<trkpt lat="45.8489560" lon="9.2878050">
	<ele>497.80</ele>
	<time>2024-03-25T06:45:21.000Z</time>
</trkpt>
<trkpt lat="45.8489670" lon="9.2878050">
	<ele>497.80</ele>
	<time>2024-03-25T06:45:22.000Z</time>
</trkpt>
<trkpt lat="45.8489790" lon="9.2878050">
	<ele>498.00</ele>
	<time>2024-03-25T06:45:23.000Z</time>
</trkpt>
<trkpt lat="45.8489900" lon="9.2878050">
	<ele>498.20</ele>
	<time>2024-03-25T06:45:24.000Z</time>
</trkpt>
<trkpt lat="45.8490000" lon="9.2878060">
	<ele>498.40</ele>
	<time>2024-03-25T06:45:25.000Z</time>
</trkpt>
<trkpt lat="45.8490060" lon="9.2878080">
	<ele>498.60</ele>
	<time>2024-03-25T06:45:26.000Z</time>
</trkpt>
<trkpt lat="45.8490130" lon="9.2878130">
	<ele>498.60</ele>
	<time>2024-03-25T06:45:27.000Z</time>
</trkpt>
<trkpt lat="45.8490210" lon="9.2878170">
	<ele>498.80</ele>
	<time>2024-03-25T06:45:28.000Z</time>
</trkpt>
<trkpt lat="45.8490310" lon="9.2878180">
	<ele>499.00</ele>
	<time>2024-03-25T06:45:29.000Z</time>
</trkpt>
<trkpt lat="45.8490390" lon="9.2878150">
	<ele>499.20</ele>
	<time>2024-03-25T06:45:30.000Z</time>
</trkpt>
<trkpt lat="45.8490480" lon="9.2878160">
	<ele>499.40</ele>
	<time>2024-03-25T06:45:31.000Z</time>
</trkpt>
<trkpt lat="45.8490580" lon="9.2878150">
	<ele>499.80</ele>
	<time>2024-03-25T06:45:32.000Z</time>
</trkpt>
<trkpt lat="45.8490670" lon="9.2878140">
	<ele>500.00</ele>
	<time>2024-03-25T06:45:33.000Z</time>
</trkpt>
<trkpt lat="45.8490760" lon="9.2878140">
	<ele>500.20</ele>
	<time>2024-03-25T06:45:34.000Z</time>
</trkpt>
<trkpt lat="45.8490860" lon="9.2878180">
	<ele>500.20</ele>
	<time>2024-03-25T06:45:35.000Z</time>
</trkpt>
<trkpt lat="45.8490950" lon="9.2878330">
	<ele>500.40</ele>
	<time>2024-03-25T06:45:36.000Z</time>
</trkpt>
<trkpt lat="45.8490980" lon="9.2878450">
	<ele>500.40</ele>
	<time>2024-03-25T06:45:37.000Z</time>
</trkpt>
<trkpt lat="45.8491000" lon="9.2878540">
	<ele>500.80</ele>
	<time>2024-03-25T06:45:38.000Z</time>
</trkpt>
<trkpt lat="45.8491050" lon="9.2878590">
	<ele>501.00</ele>
	<time>2024-03-25T06:45:39.000Z</time>
</trkpt>
<trkpt lat="45.8491120" lon="9.2878610">
	<ele>501.20</ele>
	<time>2024-03-25T06:45:40.000Z</time>
</trkpt>
<trkpt lat="45.8491200" lon="9.2878580">
	<ele>501.40</ele>
	<time>2024-03-25T06:45:41.000Z</time>
</trkpt>
<trkpt lat="45.8491280" lon="9.2878530">
	<ele>501.40</ele>
	<time>2024-03-25T06:45:42.000Z</time>
</trkpt>
<trkpt lat="45.8491390" lon="9.2878480">
	<ele>501.80</ele>
	<time>2024-03-25T06:45:43.000Z</time>
</trkpt>
<trkpt lat="45.8491490" lon="9.2878450">
	<ele>502.00</ele>
	<time>2024-03-25T06:45:44.000Z</time>
</trkpt>
<trkpt lat="45.8491560" lon="9.2878380">
	<ele>502.20</ele>
	<time>2024-03-25T06:45:45.000Z</time>
</trkpt>
<trkpt lat="45.8491640" lon="9.2878340">
	<ele>502.40</ele>
	<time>2024-03-25T06:45:46.000Z</time>
</trkpt>
<trkpt lat="45.8491720" lon="9.2878330">
	<ele>502.40</ele>
	<time>2024-03-25T06:45:47.000Z</time>
</trkpt>
<trkpt lat="45.8491800" lon="9.2878310">
	<ele>502.60</ele>
	<time>2024-03-25T06:45:48.000Z</time>
</trkpt>
<trkpt lat="45.8491910" lon="9.2878310">
	<ele>502.80</ele>
	<time>2024-03-25T06:45:49.000Z</time>
</trkpt>
<trkpt lat="45.8492050" lon="9.2878360">
	<ele>503.00</ele>
	<time>2024-03-25T06:45:50.000Z</time>
</trkpt>
<trkpt lat="45.8492190" lon="9.2878370">
	<ele>503.00</ele>
	<time>2024-03-25T06:45:51.000Z</time>
</trkpt>
<trkpt lat="45.8492280" lon="9.2878370">
	<ele>503.40</ele>
	<time>2024-03-25T06:45:52.000Z</time>
</trkpt>
<trkpt lat="45.8492370" lon="9.2878350">
	<ele>503.40</ele>
	<time>2024-03-25T06:45:53.000Z</time>
</trkpt>
<trkpt lat="45.8492450" lon="9.2878380">
	<ele>503.60</ele>
	<time>2024-03-25T06:45:54.000Z</time>
</trkpt>
<trkpt lat="45.8492540" lon="9.2878450">
	<ele>503.80</ele>
	<time>2024-03-25T06:45:55.000Z</time>
</trkpt>
<trkpt lat="45.8492640" lon="9.2878440">
	<ele>504.00</ele>
	<time>2024-03-25T06:45:56.000Z</time>
</trkpt>
<trkpt lat="45.8492720" lon="9.2878370">
	<ele>504.00</ele>
	<time>2024-03-25T06:45:57.000Z</time>
</trkpt>
<trkpt lat="45.8492810" lon="9.2878290">
	<ele>504.40</ele>
	<time>2024-03-25T06:45:58.000Z</time>
</trkpt>
<trkpt lat="45.8492900" lon="9.2878270">
	<ele>504.60</ele>
	<time>2024-03-25T06:45:59.000Z</time>
</trkpt>
<trkpt lat="45.8492990" lon="9.2878240">
	<ele>504.80</ele>
	<time>2024-03-25T06:46:00.000Z</time>
</trkpt>
<trkpt lat="45.8493070" lon="9.2878270">
	<ele>505.00</ele>
	<time>2024-03-25T06:46:01.000Z</time>
</trkpt>
<trkpt lat="45.8493230" lon="9.2878260">
	<ele>505.20</ele>
	<time>2024-03-25T06:46:02.000Z</time>
</trkpt>
<trkpt lat="45.8493350" lon="9.2878200">
	<ele>505.40</ele>
	<time>2024-03-25T06:46:03.000Z</time>
</trkpt>
<trkpt lat="45.8493480" lon="9.2878130">
	<ele>505.60</ele>
	<time>2024-03-25T06:46:04.000Z</time>
</trkpt>
<trkpt lat="45.8493590" lon="9.2878080">
	<ele>505.60</ele>
	<time>2024-03-25T06:46:05.000Z</time>
</trkpt>
<trkpt lat="45.8493710" lon="9.2878050">
	<ele>505.80</ele>
	<time>2024-03-25T06:46:06.000Z</time>
</trkpt>
<trkpt lat="45.8493860" lon="9.2878050">
	<ele>505.80</ele>
	<time>2024-03-25T06:46:07.000Z</time>
</trkpt>
<trkpt lat="45.8493990" lon="9.2878080">
	<ele>506.00</ele>
	<time>2024-03-25T06:46:08.000Z</time>
</trkpt>
<trkpt lat="45.8494110" lon="9.2878100">
	<ele>506.20</ele>
	<time>2024-03-25T06:46:09.000Z</time>
</trkpt>
<trkpt lat="45.8494200" lon="9.2878090">
	<ele>506.40</ele>
	<time>2024-03-25T06:46:10.000Z</time>
</trkpt>
<trkpt lat="45.8494290" lon="9.2878040">
	<ele>506.40</ele>
	<time>2024-03-25T06:46:11.000Z</time>
</trkpt>
<trkpt lat="45.8494370" lon="9.2878010">
	<ele>506.80</ele>
	<time>2024-03-25T06:46:12.000Z</time>
</trkpt>
<trkpt lat="45.8494480" lon="9.2878000">
	<ele>506.80</ele>
	<time>2024-03-25T06:46:13.000Z</time>
</trkpt>
<trkpt lat="45.8494570" lon="9.2877980">
	<ele>507.00</ele>
	<time>2024-03-25T06:46:14.000Z</time>
</trkpt>
<trkpt lat="45.8494680" lon="9.2877870">
	<ele>507.40</ele>
	<time>2024-03-25T06:46:15.000Z</time>
</trkpt>
<trkpt lat="45.8494800" lon="9.2877810">
	<ele>507.40</ele>
	<time>2024-03-25T06:46:16.000Z</time>
</trkpt>
<trkpt lat="45.8494910" lon="9.2877770">
	<ele>507.60</ele>
	<time>2024-03-25T06:46:17.000Z</time>
</trkpt>
<trkpt lat="45.8495010" lon="9.2877760">
	<ele>507.80</ele>
	<time>2024-03-25T06:46:18.000Z</time>
</trkpt>
<trkpt lat="45.8495090" lon="9.2877780">
	<ele>508.20</ele>
	<time>2024-03-25T06:46:19.000Z</time>
</trkpt>
<trkpt lat="45.8495160" lon="9.2877770">
	<ele>508.40</ele>
	<time>2024-03-25T06:46:20.000Z</time>
</trkpt>
<trkpt lat="45.8495230" lon="9.2877750">
	<ele>508.40</ele>
	<time>2024-03-25T06:46:21.000Z</time>
</trkpt>
<trkpt lat="45.8495280" lon="9.2877670">
	<ele>508.60</ele>
	<time>2024-03-25T06:46:22.000Z</time>
</trkpt>
<trkpt lat="45.8495330" lon="9.2877650">
	<ele>508.80</ele>
	<time>2024-03-25T06:46:23.000Z</time>
</trkpt>
<trkpt lat="45.8495370" lon="9.2877630">
	<ele>509.00</ele>
	<time>2024-03-25T06:46:24.000Z</time>
</trkpt>
<trkpt lat="45.8495440" lon="9.2877610">
	<ele>509.20</ele>
	<time>2024-03-25T06:46:25.000Z</time>
</trkpt>
<trkpt lat="45.8495510" lon="9.2877630">
	<ele>509.40</ele>
	<time>2024-03-25T06:46:26.000Z</time>
</trkpt>
<trkpt lat="45.8495580" lon="9.2877660">
	<ele>509.60</ele>
	<time>2024-03-25T06:46:27.000Z</time>
</trkpt>
<trkpt lat="45.8495650" lon="9.2877790">
	<ele>509.80</ele>
	<time>2024-03-25T06:46:28.000Z</time>
</trkpt>
<trkpt lat="45.8495760" lon="9.2877860">
	<ele>510.00</ele>
	<time>2024-03-25T06:46:29.000Z</time>
</trkpt>
<trkpt lat="45.8495910" lon="9.2877800">
	<ele>510.20</ele>
	<time>2024-03-25T06:46:30.000Z</time>
</trkpt>
<trkpt lat="45.8495980" lon="9.2877670">
	<ele>510.40</ele>
	<time>2024-03-25T06:46:31.000Z</time>
</trkpt>
<trkpt lat="45.8496030" lon="9.2877550">
	<ele>510.60</ele>
	<time>2024-03-25T06:46:32.000Z</time>
</trkpt>
<trkpt lat="45.8496080" lon="9.2877410">
	<ele>511.00</ele>
	<time>2024-03-25T06:46:33.000Z</time>
</trkpt>
<trkpt lat="45.8496150" lon="9.2877240">
	<ele>511.20</ele>
	<time>2024-03-25T06:46:34.000Z</time>
</trkpt>
<trkpt lat="45.8496200" lon="9.2877100">
	<ele>511.40</ele>
	<time>2024-03-25T06:46:35.000Z</time>
</trkpt>
<trkpt lat="45.8496280" lon="9.2876990">
	<ele>511.60</ele>
	<time>2024-03-25T06:46:36.000Z</time>
</trkpt>
<trkpt lat="45.8496340" lon="9.2876930">
	<ele>511.80</ele>
	<time>2024-03-25T06:46:37.000Z</time>
</trkpt>
<trkpt lat="45.8496380" lon="9.2876870">
	<ele>512.00</ele>
	<time>2024-03-25T06:46:38.000Z</time>
</trkpt>
<trkpt lat="45.8496470" lon="9.2876750">
	<ele>512.20</ele>
	<time>2024-03-25T06:46:39.000Z</time>
</trkpt>
<trkpt lat="45.8496580" lon="9.2876660">
	<ele>512.40</ele>
	<time>2024-03-25T06:46:40.000Z</time>
</trkpt>
<trkpt lat="45.8496670" lon="9.2876610">
	<ele>512.60</ele>
	<time>2024-03-25T06:46:41.000Z</time>
</trkpt>
<trkpt lat="45.8496760" lon="9.2876610">
	<ele>512.60</ele>
	<time>2024-03-25T06:46:42.000Z</time>
</trkpt>
<trkpt lat="45.8496840" lon="9.2876650">
	<ele>512.80</ele>
	<time>2024-03-25T06:46:43.000Z</time>
</trkpt>
<trkpt lat="45.8496970" lon="9.2876650">
	<ele>512.80</ele>
	<time>2024-03-25T06:46:44.000Z</time>
</trkpt>
<trkpt lat="45.8497070" lon="9.2876610">
	<ele>513.00</ele>
	<time>2024-03-25T06:46:45.000Z</time>
</trkpt>
<trkpt lat="45.8497150" lon="9.2876570">
	<ele>513.20</ele>
	<time>2024-03-25T06:46:46.000Z</time>
</trkpt>
<trkpt lat="45.8497210" lon="9.2876500">
	<ele>513.20</ele>
	<time>2024-03-25T06:46:47.000Z</time>
</trkpt>
<trkpt lat="45.8497260" lon="9.2876410">
	<ele>513.60</ele>
	<time>2024-03-25T06:46:48.000Z</time>
</trkpt>
<trkpt lat="45.8497350" lon="9.2876290">
	<ele>513.80</ele>
	<time>2024-03-25T06:46:49.000Z</time>
</trkpt>
<trkpt lat="45.8497440" lon="9.2876150">
	<ele>514.00</ele>
	<time>2024-03-25T06:46:50.000Z</time>
</trkpt>
<trkpt lat="45.8497530" lon="9.2876000">
	<ele>514.00</ele>
	<time>2024-03-25T06:46:51.000Z</time>
</trkpt>
<trkpt lat="45.8497650" lon="9.2875840">
	<ele>514.20</ele>
	<time>2024-03-25T06:46:52.000Z</time>
</trkpt>
<trkpt lat="45.8497740" lon="9.2875800">
	<ele>514.40</ele>
	<time>2024-03-25T06:46:53.000Z</time>
</trkpt>
<trkpt lat="45.8497810" lon="9.2875730">
	<ele>514.60</ele>
	<time>2024-03-25T06:46:54.000Z</time>
</trkpt>
<trkpt lat="45.8497850" lon="9.2875680">
	<ele>514.80</ele>
	<time>2024-03-25T06:46:55.000Z</time>
</trkpt>
<trkpt lat="45.8497870" lon="9.2875670">
	<ele>515.00</ele>
	<time>2024-03-25T06:46:56.000Z</time>
</trkpt>
<trkpt lat="45.8497890" lon="9.2875660">
	<ele>515.00</ele>
	<time>2024-03-25T06:46:57.000Z</time>
</trkpt>
<trkpt lat="45.8497900" lon="9.2875610">
	<ele>515.20</ele>
	<time>2024-03-25T06:46:58.000Z</time>
</trkpt>
<trkpt lat="45.8497940" lon="9.2875550">
	<ele>515.20</ele>
	<time>2024-03-25T06:46:59.000Z</time>
</trkpt>
<trkpt lat="45.8497970" lon="9.2875520">
	<ele>515.20</ele>
	<time>2024-03-25T06:47:00.000Z</time>
</trkpt>
<trkpt lat="45.8497980" lon="9.2875500">
	<ele>515.20</ele>
	<time>2024-03-25T06:47:01.000Z</time>
</trkpt>
<trkpt lat="45.8498000" lon="9.2875490">
	<ele>515.20</ele>
	<time>2024-03-25T06:47:02.000Z</time>
</trkpt>
<trkpt lat="45.8498030" lon="9.2875470">
	<ele>515.20</ele>
	<time>2024-03-25T06:47:03.000Z</time>
</trkpt>
<trkpt lat="45.8498060" lon="9.2875450">
	<ele>515.40</ele>
	<time>2024-03-25T06:47:04.000Z</time>
</trkpt>
<trkpt lat="45.8498100" lon="9.2875420">
	<ele>515.40</ele>
	<time>2024-03-25T06:47:05.000Z</time>
</trkpt>
<trkpt lat="45.8498180" lon="9.2875320">
	<ele>515.40</ele>
	<time>2024-03-25T06:47:06.000Z</time>
</trkpt>
<trkpt lat="45.8498240" lon="9.2875220">
	<ele>515.60</ele>
	<time>2024-03-25T06:47:07.000Z</time>
</trkpt>
<trkpt lat="45.8498300" lon="9.2875180">
	<ele>515.60</ele>
	<time>2024-03-25T06:47:08.000Z</time>
</trkpt>
<trkpt lat="45.8498310" lon="9.2875090">
	<ele>515.60</ele>
	<time>2024-03-25T06:47:09.000Z</time>
</trkpt>
<trkpt lat="45.8498330" lon="9.2874990">
	<ele>515.60</ele>
	<time>2024-03-25T06:47:10.000Z</time>
</trkpt>
<trkpt lat="45.8498470" lon="9.2875050">
	<ele>515.60</ele>
	<time>2024-03-25T06:47:11.000Z</time>
</trkpt>
<trkpt lat="45.8498540" lon="9.2875020">
	<ele>515.80</ele>
	<time>2024-03-25T06:47:12.000Z</time>
</trkpt>
<trkpt lat="45.8498590" lon="9.2875090">
	<ele>515.80</ele>
	<time>2024-03-25T06:47:13.000Z</time>
</trkpt>
<trkpt lat="45.8498640" lon="9.2875100">
	<ele>516.00</ele>
	<time>2024-03-25T06:47:14.000Z</time>
</trkpt>
<trkpt lat="45.8498670" lon="9.2875100">
	<ele>516.20</ele>
	<time>2024-03-25T06:47:15.000Z</time>
</trkpt>
<trkpt lat="45.8498710" lon="9.2875010">
	<ele>516.40</ele>
	<time>2024-03-25T06:47:16.000Z</time>
</trkpt>
<trkpt lat="45.8498790" lon="9.2874890">
	<ele>516.40</ele>
	<time>2024-03-25T06:47:17.000Z</time>
</trkpt>
<trkpt lat="45.8498880" lon="9.2874770">
	<ele>516.80</ele>
	<time>2024-03-25T06:47:18.000Z</time>
</trkpt>
<trkpt lat="45.8498990" lon="9.2874590">
	<ele>517.20</ele>
	<time>2024-03-25T06:47:19.000Z</time>
</trkpt>
<trkpt lat="45.8499060" lon="9.2874410">
	<ele>517.40</ele>
	<time>2024-03-25T06:47:20.000Z</time>
</trkpt>
<trkpt lat="45.8499140" lon="9.2874300">
	<ele>517.60</ele>
	<time>2024-03-25T06:47:21.000Z</time>
</trkpt>
<trkpt lat="45.8499220" lon="9.2874190">
	<ele>517.60</ele>
	<time>2024-03-25T06:47:22.000Z</time>
</trkpt>
<trkpt lat="45.8499320" lon="9.2874100">
	<ele>517.80</ele>
	<time>2024-03-25T06:47:23.000Z</time>
</trkpt>
<trkpt lat="45.8499420" lon="9.2874000">
	<ele>518.00</ele>
	<time>2024-03-25T06:47:24.000Z</time>
</trkpt>
<trkpt lat="45.8499480" lon="9.2873910">
	<ele>518.20</ele>
	<time>2024-03-25T06:47:25.000Z</time>
</trkpt>
<trkpt lat="45.8499540" lon="9.2873800">
	<ele>518.20</ele>
	<time>2024-03-25T06:47:26.000Z</time>
</trkpt>
<trkpt lat="45.8499610" lon="9.2873700">
	<ele>518.40</ele>
	<time>2024-03-25T06:47:27.000Z</time>
</trkpt>
<trkpt lat="45.8499670" lon="9.2873560">
	<ele>518.40</ele>
	<time>2024-03-25T06:47:28.000Z</time>
</trkpt>
<trkpt lat="45.8499730" lon="9.2873460">
	<ele>518.60</ele>
	<time>2024-03-25T06:47:29.000Z</time>
</trkpt>
<trkpt lat="45.8499790" lon="9.2873340">
	<ele>518.80</ele>
	<time>2024-03-25T06:47:30.000Z</time>
</trkpt>
<trkpt lat="45.8499820" lon="9.2873170">
	<ele>519.00</ele>
	<time>2024-03-25T06:47:31.000Z</time>
</trkpt>
<trkpt lat="45.8499850" lon="9.2873060">
	<ele>519.00</ele>
	<time>2024-03-25T06:47:32.000Z</time>
</trkpt>
<trkpt lat="45.8499890" lon="9.2872940">
	<ele>519.20</ele>
	<time>2024-03-25T06:47:33.000Z</time>
</trkpt>
<trkpt lat="45.8499920" lon="9.2872840">
	<ele>519.60</ele>
	<time>2024-03-25T06:47:34.000Z</time>
</trkpt>
<trkpt lat="45.8499940" lon="9.2872780">
	<ele>519.80</ele>
	<time>2024-03-25T06:47:35.000Z</time>
</trkpt>
<trkpt lat="45.8499970" lon="9.2872700">
	<ele>520.00</ele>
	<time>2024-03-25T06:47:36.000Z</time>
</trkpt>
<trkpt lat="45.8500060" lon="9.2872620">
	<ele>520.20</ele>
	<time>2024-03-25T06:47:37.000Z</time>
</trkpt>
<trkpt lat="45.8500150" lon="9.2872520">
	<ele>520.20</ele>
	<time>2024-03-25T06:47:38.000Z</time>
</trkpt>
<trkpt lat="45.8500200" lon="9.2872440">
	<ele>520.40</ele>
	<time>2024-03-25T06:47:39.000Z</time>
</trkpt>
<trkpt lat="45.8500270" lon="9.2872360">
	<ele>520.60</ele>
	<time>2024-03-25T06:47:40.000Z</time>
</trkpt>
<trkpt lat="45.8500330" lon="9.2872300">
	<ele>520.80</ele>
	<time>2024-03-25T06:47:41.000Z</time>
</trkpt>
<trkpt lat="45.8500400" lon="9.2872210">
	<ele>521.00</ele>
	<time>2024-03-25T06:47:42.000Z</time>
</trkpt>
<trkpt lat="45.8500460" lon="9.2872110">
	<ele>521.20</ele>
	<time>2024-03-25T06:47:43.000Z</time>
</trkpt>
<trkpt lat="45.8500500" lon="9.2872020">
	<ele>521.40</ele>
	<time>2024-03-25T06:47:44.000Z</time>
</trkpt>
<trkpt lat="45.8500530" lon="9.2871940">
	<ele>521.60</ele>
	<time>2024-03-25T06:47:45.000Z</time>
</trkpt>
<trkpt lat="45.8500580" lon="9.2871860">
	<ele>521.80</ele>
	<time>2024-03-25T06:47:46.000Z</time>
</trkpt>
<trkpt lat="45.8500640" lon="9.2871850">
	<ele>522.00</ele>
	<time>2024-03-25T06:47:47.000Z</time>
</trkpt>
<trkpt lat="45.8500710" lon="9.2871820">
	<ele>522.20</ele>
	<time>2024-03-25T06:47:48.000Z</time>
</trkpt>
<trkpt lat="45.8500770" lon="9.2871780">
	<ele>522.20</ele>
	<time>2024-03-25T06:47:49.000Z</time>
</trkpt>
<trkpt lat="45.8500810" lon="9.2871770">
	<ele>522.40</ele>
	<time>2024-03-25T06:47:50.000Z</time>
</trkpt>
<trkpt lat="45.8500890" lon="9.2871740">
	<ele>522.60</ele>
	<time>2024-03-25T06:47:51.000Z</time>
</trkpt>
<trkpt lat="45.8500990" lon="9.2871670">
	<ele>522.80</ele>
	<time>2024-03-25T06:47:52.000Z</time>
</trkpt>
<trkpt lat="45.8501120" lon="9.2871530">
	<ele>523.00</ele>
	<time>2024-03-25T06:47:53.000Z</time>
</trkpt>
<trkpt lat="45.8501220" lon="9.2871390">
	<ele>523.20</ele>
	<time>2024-03-25T06:47:54.000Z</time>
</trkpt>
<trkpt lat="45.8501310" lon="9.2871200">
	<ele>523.40</ele>
	<time>2024-03-25T06:47:55.000Z</time>
</trkpt>
<trkpt lat="45.8501390" lon="9.2871100">
	<ele>523.60</ele>
	<time>2024-03-25T06:47:56.000Z</time>
</trkpt>
<trkpt lat="45.8501450" lon="9.2871090">
	<ele>523.80</ele>
	<time>2024-03-25T06:47:57.000Z</time>
</trkpt>
<trkpt lat="45.8501500" lon="9.2871100">
	<ele>524.00</ele>
	<time>2024-03-25T06:47:58.000Z</time>
</trkpt>
<trkpt lat="45.8501580" lon="9.2871070">
	<ele>524.20</ele>
	<time>2024-03-25T06:47:59.000Z</time>
</trkpt>
<trkpt lat="45.8501690" lon="9.2871040">
	<ele>524.60</ele>
	<time>2024-03-25T06:48:00.000Z</time>
</trkpt>
<trkpt lat="45.8501820" lon="9.2871020">
	<ele>524.80</ele>
	<time>2024-03-25T06:48:01.000Z</time>
</trkpt>
<trkpt lat="45.8501920" lon="9.2871010">
	<ele>525.00</ele>
	<time>2024-03-25T06:48:02.000Z</time>
</trkpt>
<trkpt lat="45.8502020" lon="9.2871000">
	<ele>525.20</ele>
	<time>2024-03-25T06:48:03.000Z</time>
</trkpt>
<trkpt lat="45.8502130" lon="9.2870990">
	<ele>525.40</ele>
	<time>2024-03-25T06:48:04.000Z</time>
</trkpt>
<trkpt lat="45.8502230" lon="9.2871040">
	<ele>525.60</ele>
	<time>2024-03-25T06:48:05.000Z</time>
</trkpt>
<trkpt lat="45.8502290" lon="9.2871090">
	<ele>525.80</ele>
	<time>2024-03-25T06:48:06.000Z</time>
</trkpt>
<trkpt lat="45.8502340" lon="9.2871130">
	<ele>525.80</ele>
	<time>2024-03-25T06:48:07.000Z</time>
</trkpt>
<trkpt lat="45.8502400" lon="9.2871180">
	<ele>525.80</ele>
	<time>2024-03-25T06:48:08.000Z</time>
</trkpt>
<trkpt lat="45.8502440" lon="9.2871190">
	<ele>526.00</ele>
	<time>2024-03-25T06:48:09.000Z</time>
</trkpt>
<trkpt lat="45.8502450" lon="9.2871200">
	<ele>526.00</ele>
	<time>2024-03-25T06:48:10.000Z</time>
</trkpt>
<trkpt lat="45.8502450" lon="9.2871210">
	<ele>526.20</ele>
	<time>2024-03-25T06:48:11.000Z</time>
</trkpt>
<trkpt lat="45.8502460" lon="9.2871240">
	<ele>526.20</ele>
	<time>2024-03-25T06:48:12.000Z</time>
</trkpt>
<trkpt lat="45.8502490" lon="9.2871300">
	<ele>526.40</ele>
	<time>2024-03-25T06:48:13.000Z</time>
</trkpt>
<trkpt lat="45.8502510" lon="9.2871360">
	<ele>526.40</ele>
	<time>2024-03-25T06:48:14.000Z</time>
</trkpt>
<trkpt lat="45.8502550" lon="9.2871450">
	<ele>526.60</ele>
	<time>2024-03-25T06:48:15.000Z</time>
</trkpt>
<trkpt lat="45.8502590" lon="9.2871530">
	<ele>527.00</ele>
	<time>2024-03-25T06:48:16.000Z</time>
</trkpt>
<trkpt lat="45.8502630" lon="9.2871620">
	<ele>527.40</ele>
	<time>2024-03-25T06:48:17.000Z</time>
</trkpt>
<trkpt lat="45.8502670" lon="9.2871690">
	<ele>527.60</ele>
	<time>2024-03-25T06:48:18.000Z</time>
</trkpt>
<trkpt lat="45.8502700" lon="9.2871750">
	<ele>528.00</ele>
	<time>2024-03-25T06:48:19.000Z</time>
</trkpt>
<trkpt lat="45.8502730" lon="9.2871820">
	<ele>528.20</ele>
	<time>2024-03-25T06:48:20.000Z</time>
</trkpt>
<trkpt lat="45.8502790" lon="9.2871930">
	<ele>528.40</ele>
	<time>2024-03-25T06:48:21.000Z</time>
</trkpt>
<trkpt lat="45.8502870" lon="9.2872020">
	<ele>528.60</ele>
	<time>2024-03-25T06:48:22.000Z</time>
</trkpt>
<trkpt lat="45.8502940" lon="9.2872100">
	<ele>528.80</ele>
	<time>2024-03-25T06:48:23.000Z</time>
</trkpt>
<trkpt lat="45.8503020" lon="9.2872150">
	<ele>529.00</ele>
	<time>2024-03-25T06:48:24.000Z</time>
</trkpt>
<trkpt lat="45.8503100" lon="9.2872220">
	<ele>529.20</ele>
	<time>2024-03-25T06:48:25.000Z</time>
</trkpt>
<trkpt lat="45.8503180" lon="9.2872290">
	<ele>529.40</ele>
	<time>2024-03-25T06:48:26.000Z</time>
</trkpt>
<trkpt lat="45.8503260" lon="9.2872370">
	<ele>529.60</ele>
	<time>2024-03-25T06:48:27.000Z</time>
</trkpt>
<trkpt lat="45.8503340" lon="9.2872440">
	<ele>529.60</ele>
	<time>2024-03-25T06:48:28.000Z</time>
</trkpt>
<trkpt lat="45.8503410" lon="9.2872510">
	<ele>529.80</ele>
	<time>2024-03-25T06:48:29.000Z</time>
</trkpt>
<trkpt lat="45.8503500" lon="9.2872580">
	<ele>530.00</ele>
	<time>2024-03-25T06:48:30.000Z</time>
</trkpt>
<trkpt lat="45.8503590" lon="9.2872640">
	<ele>530.20</ele>
	<time>2024-03-25T06:48:31.000Z</time>
</trkpt>
<trkpt lat="45.8503670" lon="9.2872710">
	<ele>530.40</ele>
	<time>2024-03-25T06:48:32.000Z</time>
</trkpt>
<trkpt lat="45.8503740" lon="9.2872770">
	<ele>530.60</ele>
	<time>2024-03-25T06:48:33.000Z</time>
</trkpt>
<trkpt lat="45.8503800" lon="9.2872850">
	<ele>530.80</ele>
	<time>2024-03-25T06:48:34.000Z</time>
</trkpt>
<trkpt lat="45.8503870" lon="9.2872950">
	<ele>530.80</ele>
	<time>2024-03-25T06:48:35.000Z</time>
</trkpt>
<trkpt lat="45.8503930" lon="9.2873030">
	<ele>531.00</ele>
	<time>2024-03-25T06:48:36.000Z</time>
</trkpt>
<trkpt lat="45.8503980" lon="9.2873100">
	<ele>531.20</ele>
	<time>2024-03-25T06:48:37.000Z</time>
</trkpt>
<trkpt lat="45.8504040" lon="9.2873170">
	<ele>531.40</ele>
	<time>2024-03-25T06:48:38.000Z</time>
</trkpt>
<trkpt lat="45.8504100" lon="9.2873230">
	<ele>531.60</ele>
	<time>2024-03-25T06:48:39.000Z</time>
</trkpt>
<trkpt lat="45.8504180" lon="9.2873310">
	<ele>531.80</ele>
	<time>2024-03-25T06:48:40.000Z</time>
</trkpt>
<trkpt lat="45.8504240" lon="9.2873370">
	<ele>531.80</ele>
	<time>2024-03-25T06:48:41.000Z</time>
</trkpt>
<trkpt lat="45.8504300" lon="9.2873430">
	<ele>532.20</ele>
	<time>2024-03-25T06:48:42.000Z</time>
</trkpt>
<trkpt lat="45.8504350" lon="9.2873520">
	<ele>532.40</ele>
	<time>2024-03-25T06:48:43.000Z</time>
</trkpt>
<trkpt lat="45.8504410" lon="9.2873620">
	<ele>532.60</ele>
	<time>2024-03-25T06:48:44.000Z</time>
</trkpt>
<trkpt lat="45.8504480" lon="9.2873730">
	<ele>532.80</ele>
	<time>2024-03-25T06:48:45.000Z</time>
</trkpt>
<trkpt lat="45.8504550" lon="9.2873840">
	<ele>532.80</ele>
	<time>2024-03-25T06:48:46.000Z</time>
</trkpt>
<trkpt lat="45.8504610" lon="9.2873920">
	<ele>533.20</ele>
	<time>2024-03-25T06:48:47.000Z</time>
</trkpt>
<trkpt lat="45.8504670" lon="9.2873990">
	<ele>533.20</ele>
	<time>2024-03-25T06:48:48.000Z</time>
</trkpt>
<trkpt lat="45.8504710" lon="9.2874100">
	<ele>533.40</ele>
	<time>2024-03-25T06:48:49.000Z</time>
</trkpt>
<trkpt lat="45.8504750" lon="9.2874220">
	<ele>533.40</ele>
	<time>2024-03-25T06:48:50.000Z</time>
</trkpt>
<trkpt lat="45.8504800" lon="9.2874340">
	<ele>533.60</ele>
	<time>2024-03-25T06:48:51.000Z</time>
</trkpt>
<trkpt lat="45.8504860" lon="9.2874440">
	<ele>534.00</ele>
	<time>2024-03-25T06:48:52.000Z</time>
</trkpt>
<trkpt lat="45.8504940" lon="9.2874550">
	<ele>534.20</ele>
	<time>2024-03-25T06:48:53.000Z</time>
</trkpt>
<trkpt lat="45.8505030" lon="9.2874650">
	<ele>534.40</ele>
	<time>2024-03-25T06:48:54.000Z</time>
</trkpt>
<trkpt lat="45.8505090" lon="9.2874740">
	<ele>534.40</ele>
	<time>2024-03-25T06:48:55.000Z</time>
</trkpt>
<trkpt lat="45.8505150" lon="9.2874800">
	<ele>534.60</ele>
	<time>2024-03-25T06:48:56.000Z</time>
</trkpt>
<trkpt lat="45.8505190" lon="9.2874870">
	<ele>534.60</ele>
	<time>2024-03-25T06:48:57.000Z</time>
</trkpt>
<trkpt lat="45.8505240" lon="9.2874980">
	<ele>534.80</ele>
	<time>2024-03-25T06:48:58.000Z</time>
</trkpt>
<trkpt lat="45.8505270" lon="9.2875110">
	<ele>535.00</ele>
	<time>2024-03-25T06:48:59.000Z</time>
</trkpt>
<trkpt lat="45.8505320" lon="9.2875250">
	<ele>535.00</ele>
	<time>2024-03-25T06:49:00.000Z</time>
</trkpt>
<trkpt lat="45.8505380" lon="9.2875390">
	<ele>535.20</ele>
	<time>2024-03-25T06:49:01.000Z</time>
</trkpt>
<trkpt lat="45.8505460" lon="9.2875510">
	<ele>535.40</ele>
	<time>2024-03-25T06:49:02.000Z</time>
</trkpt>
<trkpt lat="45.8505540" lon="9.2875600">
	<ele>535.40</ele>
	<time>2024-03-25T06:49:03.000Z</time>
</trkpt>
<trkpt lat="45.8505620" lon="9.2875690">
	<ele>535.60</ele>
	<time>2024-03-25T06:49:04.000Z</time>
</trkpt>
<trkpt lat="45.8505680" lon="9.2875780">
	<ele>535.80</ele>
	<time>2024-03-25T06:49:05.000Z</time>
</trkpt>
<trkpt lat="45.8505740" lon="9.2875890">
	<ele>536.00</ele>
	<time>2024-03-25T06:49:06.000Z</time>
</trkpt>
<trkpt lat="45.8505810" lon="9.2876000">
	<ele>536.00</ele>
	<time>2024-03-25T06:49:07.000Z</time>
</trkpt>
<trkpt lat="45.8505860" lon="9.2876070">
	<ele>536.20</ele>
	<time>2024-03-25T06:49:08.000Z</time>
</trkpt>
<trkpt lat="45.8505920" lon="9.2876190">
	<ele>536.20</ele>
	<time>2024-03-25T06:49:09.000Z</time>
</trkpt>
<trkpt lat="45.8505960" lon="9.2876290">
	<ele>536.20</ele>
	<time>2024-03-25T06:49:10.000Z</time>
</trkpt>
<trkpt lat="45.8506010" lon="9.2876400">
	<ele>536.40</ele>
	<time>2024-03-25T06:49:11.000Z</time>
</trkpt>
<trkpt lat="45.8506090" lon="9.2876490">
	<ele>536.80</ele>
	<time>2024-03-25T06:49:12.000Z</time>
</trkpt>
<trkpt lat="45.8506150" lon="9.2876560">
	<ele>537.00</ele>
	<time>2024-03-25T06:49:13.000Z</time>
</trkpt>
<trkpt lat="45.8506220" lon="9.2876650">
	<ele>537.40</ele>
	<time>2024-03-25T06:49:14.000Z</time>
</trkpt>
<trkpt lat="45.8506270" lon="9.2876740">
	<ele>537.60</ele>
	<time>2024-03-25T06:49:15.000Z</time>
</trkpt>
<trkpt lat="45.8506320" lon="9.2876870">
	<ele>537.80</ele>
	<time>2024-03-25T06:49:16.000Z</time>
</trkpt>
<trkpt lat="45.8506390" lon="9.2876990">
	<ele>538.00</ele>
	<time>2024-03-25T06:49:17.000Z</time>
</trkpt>
<trkpt lat="45.8506460" lon="9.2877100">
	<ele>538.00</ele>
	<time>2024-03-25T06:49:18.000Z</time>
</trkpt>
<trkpt lat="45.8506530" lon="9.2877200">
	<ele>538.20</ele>
	<time>2024-03-25T06:49:19.000Z</time>
</trkpt>
<trkpt lat="45.8506600" lon="9.2877290">
	<ele>538.20</ele>
	<time>2024-03-25T06:49:20.000Z</time>
</trkpt>
<trkpt lat="45.8506670" lon="9.2877390">
	<ele>538.40</ele>
	<time>2024-03-25T06:49:21.000Z</time>
</trkpt>
<trkpt lat="45.8506730" lon="9.2877500">
	<ele>538.60</ele>
	<time>2024-03-25T06:49:22.000Z</time>
</trkpt>
<trkpt lat="45.8506800" lon="9.2877590">
	<ele>538.80</ele>
	<time>2024-03-25T06:49:23.000Z</time>
</trkpt>
<trkpt lat="45.8506860" lon="9.2877680">
	<ele>539.00</ele>
	<time>2024-03-25T06:49:24.000Z</time>
</trkpt>
<trkpt lat="45.8506930" lon="9.2877790">
	<ele>539.20</ele>
	<time>2024-03-25T06:49:25.000Z</time>
</trkpt>
<trkpt lat="45.8507010" lon="9.2877910">
	<ele>539.20</ele>
	<time>2024-03-25T06:49:26.000Z</time>
</trkpt>
<trkpt lat="45.8507080" lon="9.2878000">
	<ele>539.40</ele>
	<time>2024-03-25T06:49:27.000Z</time>
</trkpt>
<trkpt lat="45.8507130" lon="9.2878100">
	<ele>539.60</ele>
	<time>2024-03-25T06:49:28.000Z</time>
</trkpt>
<trkpt lat="45.8507190" lon="9.2878200">
	<ele>539.60</ele>
	<time>2024-03-25T06:49:29.000Z</time>
</trkpt>
<trkpt lat="45.8507260" lon="9.2878300">
	<ele>539.80</ele>
	<time>2024-03-25T06:49:30.000Z</time>
</trkpt>
<trkpt lat="45.8507330" lon="9.2878390">
	<ele>540.00</ele>
	<time>2024-03-25T06:49:31.000Z</time>
</trkpt>
<trkpt lat="45.8507410" lon="9.2878470">
	<ele>540.20</ele>
	<time>2024-03-25T06:49:32.000Z</time>
</trkpt>
<trkpt lat="45.8507480" lon="9.2878560">
	<ele>540.40</ele>
	<time>2024-03-25T06:49:33.000Z</time>
</trkpt>
<trkpt lat="45.8507560" lon="9.2878660">
	<ele>540.60</ele>
	<time>2024-03-25T06:49:34.000Z</time>
</trkpt>
<trkpt lat="45.8507630" lon="9.2878760">
	<ele>540.60</ele>
	<time>2024-03-25T06:49:35.000Z</time>
</trkpt>
<trkpt lat="45.8507680" lon="9.2878870">
	<ele>540.80</ele>
	<time>2024-03-25T06:49:36.000Z</time>
</trkpt>
<trkpt lat="45.8507750" lon="9.2878960">
	<ele>541.00</ele>
	<time>2024-03-25T06:49:37.000Z</time>
</trkpt>
<trkpt lat="45.8507800" lon="9.2879020">
	<ele>541.40</ele>
	<time>2024-03-25T06:49:38.000Z</time>
</trkpt>
<trkpt lat="45.8507830" lon="9.2879070">
	<ele>541.80</ele>
	<time>2024-03-25T06:49:39.000Z</time>
</trkpt>
<trkpt lat="45.8507870" lon="9.2879150">
	<ele>542.20</ele>
	<time>2024-03-25T06:49:40.000Z</time>
</trkpt>
<trkpt lat="45.8507870" lon="9.2879190">
	<ele>542.40</ele>
	<time>2024-03-25T06:49:41.000Z</time>
</trkpt>
<trkpt lat="45.8507880" lon="9.2879220">
	<ele>542.60</ele>
	<time>2024-03-25T06:49:42.000Z</time>
</trkpt>
<trkpt lat="45.8507890" lon="9.2879260">
	<ele>542.60</ele>
	<time>2024-03-25T06:49:43.000Z</time>
</trkpt>
<trkpt lat="45.8507900" lon="9.2879300">
	<ele>542.80</ele>
	<time>2024-03-25T06:49:44.000Z</time>
</trkpt>
<trkpt lat="45.8507920" lon="9.2879340">
	<ele>542.80</ele>
	<time>2024-03-25T06:49:45.000Z</time>
</trkpt>
<trkpt lat="45.8507970" lon="9.2879400">
	<ele>543.00</ele>
	<time>2024-03-25T06:49:46.000Z</time>
</trkpt>
<trkpt lat="45.8508020" lon="9.2879500">
	<ele>543.00</ele>
	<time>2024-03-25T06:49:47.000Z</time>
</trkpt>
<trkpt lat="45.8508080" lon="9.2879580">
	<ele>543.20</ele>
	<time>2024-03-25T06:49:48.000Z</time>
</trkpt>
<trkpt lat="45.8508150" lon="9.2879680">
	<ele>543.20</ele>
	<time>2024-03-25T06:49:49.000Z</time>
</trkpt>
<trkpt lat="45.8508220" lon="9.2879780">
	<ele>543.20</ele>
	<time>2024-03-25T06:49:50.000Z</time>
</trkpt>
<trkpt lat="45.8508320" lon="9.2879890">
	<ele>543.40</ele>
	<time>2024-03-25T06:49:51.000Z</time>
</trkpt>
<trkpt lat="45.8508400" lon="9.2880000">
	<ele>543.60</ele>
	<time>2024-03-25T06:49:52.000Z</time>
</trkpt>
<trkpt lat="45.8508480" lon="9.2880130">
	<ele>543.80</ele>
	<time>2024-03-25T06:49:53.000Z</time>
</trkpt>
<trkpt lat="45.8508530" lon="9.2880240">
	<ele>544.00</ele>
	<time>2024-03-25T06:49:54.000Z</time>
</trkpt>
<trkpt lat="45.8508590" lon="9.2880350">
	<ele>544.00</ele>
	<time>2024-03-25T06:49:55.000Z</time>
</trkpt>
<trkpt lat="45.8508660" lon="9.2880420">
	<ele>544.20</ele>
	<time>2024-03-25T06:49:56.000Z</time>
</trkpt>
<trkpt lat="45.8508720" lon="9.2880510">
	<ele>544.40</ele>
	<time>2024-03-25T06:49:57.000Z</time>
</trkpt>
<trkpt lat="45.8508790" lon="9.2880650">
	<ele>544.40</ele>
	<time>2024-03-25T06:49:58.000Z</time>
</trkpt>
<trkpt lat="45.8508850" lon="9.2880760">
	<ele>544.60</ele>
	<time>2024-03-25T06:49:59.000Z</time>
</trkpt>
<trkpt lat="45.8508910" lon="9.2880860">
	<ele>544.80</ele>
	<time>2024-03-25T06:50:00.000Z</time>
</trkpt>
<trkpt lat="45.8508950" lon="9.2880970">
	<ele>545.00</ele>
	<time>2024-03-25T06:50:01.000Z</time>
</trkpt>
<trkpt lat="45.8508990" lon="9.2881100">
	<ele>545.20</ele>
	<time>2024-03-25T06:50:02.000Z</time>
</trkpt>
<trkpt lat="45.8509020" lon="9.2881230">
	<ele>545.20</ele>
	<time>2024-03-25T06:50:03.000Z</time>
</trkpt>
<trkpt lat="45.8509100" lon="9.2881360">
	<ele>545.40</ele>
	<time>2024-03-25T06:50:04.000Z</time>
</trkpt>
<trkpt lat="45.8509160" lon="9.2881480">
	<ele>545.60</ele>
	<time>2024-03-25T06:50:05.000Z</time>
</trkpt>
<trkpt lat="45.8509220" lon="9.2881560">
	<ele>545.80</ele>
	<time>2024-03-25T06:50:06.000Z</time>
</trkpt>
<trkpt lat="45.8509310" lon="9.2881690">
	<ele>546.00</ele>
	<time>2024-03-25T06:50:07.000Z</time>
</trkpt>
<trkpt lat="45.8509410" lon="9.2881770">
	<ele>546.00</ele>
	<time>2024-03-25T06:50:08.000Z</time>
</trkpt>
<trkpt lat="45.8509500" lon="9.2881850">
	<ele>546.20</ele>
	<time>2024-03-25T06:50:09.000Z</time>
</trkpt>
<trkpt lat="45.8509550" lon="9.2881990">
	<ele>546.40</ele>
	<time>2024-03-25T06:50:10.000Z</time>
</trkpt>
<trkpt lat="45.8509580" lon="9.2882110">
	<ele>546.60</ele>
	<time>2024-03-25T06:50:11.000Z</time>
</trkpt>
<trkpt lat="45.8509600" lon="9.2882230">
	<ele>546.80</ele>
	<time>2024-03-25T06:50:12.000Z</time>
</trkpt>
<trkpt lat="45.8509620" lon="9.2882350">
	<ele>547.00</ele>
	<time>2024-03-25T06:50:13.000Z</time>
</trkpt>
<trkpt lat="45.8509630" lon="9.2882480">
	<ele>547.20</ele>
	<time>2024-03-25T06:50:14.000Z</time>
</trkpt>
<trkpt lat="45.8509620" lon="9.2882580">
	<ele>547.40</ele>
	<time>2024-03-25T06:50:15.000Z</time>
</trkpt>
<trkpt lat="45.8509570" lon="9.2882650">
	<ele>547.60</ele>
	<time>2024-03-25T06:50:16.000Z</time>
</trkpt>
<trkpt lat="45.8509500" lon="9.2882680">
	<ele>547.80</ele>
	<time>2024-03-25T06:50:17.000Z</time>
</trkpt>
<trkpt lat="45.8509410" lon="9.2882680">
	<ele>548.00</ele>
	<time>2024-03-25T06:50:18.000Z</time>
</trkpt>
<trkpt lat="45.8509360" lon="9.2882650">
	<ele>548.20</ele>
	<time>2024-03-25T06:50:19.000Z</time>
</trkpt>
<trkpt lat="45.8509310" lon="9.2882600">
	<ele>548.40</ele>
	<time>2024-03-25T06:50:20.000Z</time>
</trkpt>
<trkpt lat="45.8509250" lon="9.2882540">
	<ele>548.40</ele>
	<time>2024-03-25T06:50:21.000Z</time>
</trkpt>
<trkpt lat="45.8509210" lon="9.2882510">
	<ele>548.60</ele>
	<time>2024-03-25T06:50:22.000Z</time>
</trkpt>
<trkpt lat="45.8509200" lon="9.2882410">
	<ele>549.00</ele>
	<time>2024-03-25T06:50:23.000Z</time>
</trkpt>
<trkpt lat="45.8509160" lon="9.2882290">
	<ele>549.20</ele>
	<time>2024-03-25T06:50:24.000Z</time>
</trkpt>
<trkpt lat="45.8509100" lon="9.2882210">
	<ele>549.20</ele>
	<time>2024-03-25T06:50:25.000Z</time>
</trkpt>
<trkpt lat="45.8509040" lon="9.2882180">
	<ele>549.20</ele>
	<time>2024-03-25T06:50:26.000Z</time>
</trkpt>
<trkpt lat="45.8508970" lon="9.2882130">
	<ele>549.40</ele>
	<time>2024-03-25T06:50:27.000Z</time>
</trkpt>
<trkpt lat="45.8508870" lon="9.2882040">
	<ele>549.40</ele>
	<time>2024-03-25T06:50:28.000Z</time>
</trkpt>
<trkpt lat="45.8508790" lon="9.2881970">
	<ele>549.40</ele>
	<time>2024-03-25T06:50:29.000Z</time>
</trkpt>
<trkpt lat="45.8508670" lon="9.2881970">
	<ele>549.40</ele>
	<time>2024-03-25T06:50:30.000Z</time>
</trkpt>
<trkpt lat="45.8508540" lon="9.2882000">
	<ele>549.60</ele>
	<time>2024-03-25T06:50:31.000Z</time>
</trkpt>
<trkpt lat="45.8508420" lon="9.2881990">
	<ele>549.60</ele>
	<time>2024-03-25T06:50:32.000Z</time>
</trkpt>
<trkpt lat="45.8508300" lon="9.2881930">
	<ele>549.80</ele>
	<time>2024-03-25T06:50:33.000Z</time>
</trkpt>
<trkpt lat="45.8508210" lon="9.2881860">
	<ele>550.00</ele>
	<time>2024-03-25T06:50:34.000Z</time>
</trkpt>
<trkpt lat="45.8508140" lon="9.2881800">
	<ele>550.00</ele>
	<time>2024-03-25T06:50:35.000Z</time>
</trkpt>
<trkpt lat="45.8508040" lon="9.2881760">
	<ele>550.20</ele>
	<time>2024-03-25T06:50:36.000Z</time>
</trkpt>
<trkpt lat="45.8507920" lon="9.2881730">
	<ele>550.20</ele>
	<time>2024-03-25T06:50:37.000Z</time>
</trkpt>
<trkpt lat="45.8507810" lon="9.2881690">
	<ele>550.20</ele>
	<time>2024-03-25T06:50:38.000Z</time>
</trkpt>
<trkpt lat="45.8507710" lon="9.2881660">
	<ele>550.20</ele>
	<time>2024-03-25T06:50:39.000Z</time>
</trkpt>
<trkpt lat="45.8507630" lon="9.2881590">
	<ele>550.40</ele>
	<time>2024-03-25T06:50:40.000Z</time>
</trkpt>
<trkpt lat="45.8507550" lon="9.2881510">
	<ele>550.60</ele>
	<time>2024-03-25T06:50:41.000Z</time>
</trkpt>
<trkpt lat="45.8507460" lon="9.2881440">
	<ele>550.60</ele>
	<time>2024-03-25T06:50:42.000Z</time>
</trkpt>
<trkpt lat="45.8507390" lon="9.2881400">
	<ele>550.80</ele>
	<time>2024-03-25T06:50:43.000Z</time>
</trkpt>
<trkpt lat="45.8507320" lon="9.2881390">
	<ele>550.80</ele>
	<time>2024-03-25T06:50:44.000Z</time>
</trkpt>
<trkpt lat="45.8507240" lon="9.2881380">
	<ele>551.00</ele>
	<time>2024-03-25T06:50:45.000Z</time>
</trkpt>
<trkpt lat="45.8507180" lon="9.2881340">
	<ele>551.00</ele>
	<time>2024-03-25T06:50:46.000Z</time>
</trkpt>
<trkpt lat="45.8507110" lon="9.2881330">
	<ele>551.20</ele>
	<time>2024-03-25T06:50:47.000Z</time>
</trkpt>
<trkpt lat="45.8507010" lon="9.2881320">
	<ele>551.20</ele>
	<time>2024-03-25T06:50:48.000Z</time>
</trkpt>
<trkpt lat="45.8506880" lon="9.2881310">
	<ele>551.40</ele>
	<time>2024-03-25T06:50:49.000Z</time>
</trkpt>
<trkpt lat="45.8506770" lon="9.2881320">
	<ele>551.40</ele>
	<time>2024-03-25T06:50:50.000Z</time>
</trkpt>
<trkpt lat="45.8506660" lon="9.2881240">
	<ele>551.60</ele>
	<time>2024-03-25T06:50:51.000Z</time>
</trkpt>
<trkpt lat="45.8506570" lon="9.2881160">
	<ele>551.60</ele>
	<time>2024-03-25T06:50:52.000Z</time>
</trkpt>
<trkpt lat="45.8506490" lon="9.2881100">
	<ele>551.80</ele>
	<time>2024-03-25T06:50:53.000Z</time>
</trkpt>
<trkpt lat="45.8506400" lon="9.2881040">
	<ele>551.80</ele>
	<time>2024-03-25T06:50:54.000Z</time>
</trkpt>
<trkpt lat="45.8506290" lon="9.2880990">
	<ele>552.00</ele>
	<time>2024-03-25T06:50:55.000Z</time>
</trkpt>
<trkpt lat="45.8506180" lon="9.2880960">
	<ele>552.00</ele>
	<time>2024-03-25T06:50:56.000Z</time>
</trkpt>
<trkpt lat="45.8506060" lon="9.2880950">
	<ele>552.20</ele>
	<time>2024-03-25T06:50:57.000Z</time>
</trkpt>
<trkpt lat="45.8505960" lon="9.2880910">
	<ele>552.20</ele>
	<time>2024-03-25T06:50:58.000Z</time>
</trkpt>
<trkpt lat="45.8505840" lon="9.2880860">
	<ele>552.40</ele>
	<time>2024-03-25T06:50:59.000Z</time>
</trkpt>
<trkpt lat="45.8505730" lon="9.2880830">
	<ele>552.40</ele>
	<time>2024-03-25T06:51:00.000Z</time>
</trkpt>
<trkpt lat="45.8505610" lon="9.2880810">
	<ele>552.60</ele>
	<time>2024-03-25T06:51:01.000Z</time>
</trkpt>
<trkpt lat="45.8505500" lon="9.2880790">
	<ele>552.80</ele>
	<time>2024-03-25T06:51:02.000Z</time>
</trkpt>
<trkpt lat="45.8505400" lon="9.2880770">
	<ele>553.00</ele>
	<time>2024-03-25T06:51:03.000Z</time>
</trkpt>
<trkpt lat="45.8505290" lon="9.2880760">
	<ele>553.20</ele>
	<time>2024-03-25T06:51:04.000Z</time>
</trkpt>
<trkpt lat="45.8505190" lon="9.2880730">
	<ele>553.40</ele>
	<time>2024-03-25T06:51:05.000Z</time>
</trkpt>
<trkpt lat="45.8505100" lon="9.2880710">
	<ele>553.60</ele>
	<time>2024-03-25T06:51:06.000Z</time>
</trkpt>
<trkpt lat="45.8504990" lon="9.2880700">
	<ele>553.60</ele>
	<time>2024-03-25T06:51:07.000Z</time>
</trkpt>
<trkpt lat="45.8504890" lon="9.2880680">
	<ele>553.80</ele>
	<time>2024-03-25T06:51:08.000Z</time>
</trkpt>
<trkpt lat="45.8504780" lon="9.2880650">
	<ele>553.80</ele>
	<time>2024-03-25T06:51:09.000Z</time>
</trkpt>
<trkpt lat="45.8504680" lon="9.2880600">
	<ele>554.00</ele>
	<time>2024-03-25T06:51:10.000Z</time>
</trkpt>
<trkpt lat="45.8504580" lon="9.2880570">
	<ele>554.00</ele>
	<time>2024-03-25T06:51:11.000Z</time>
</trkpt>
<trkpt lat="45.8504460" lon="9.2880550">
	<ele>554.00</ele>
	<time>2024-03-25T06:51:12.000Z</time>
</trkpt>
<trkpt lat="45.8504340" lon="9.2880570">
	<ele>554.20</ele>
	<time>2024-03-25T06:51:13.000Z</time>
</trkpt>
<trkpt lat="45.8504250" lon="9.2880590">
	<ele>554.40</ele>
	<time>2024-03-25T06:51:14.000Z</time>
</trkpt>
<trkpt lat="45.8504170" lon="9.2880600">
	<ele>554.60</ele>
	<time>2024-03-25T06:51:15.000Z</time>
</trkpt>
<trkpt lat="45.8504080" lon="9.2880580">
	<ele>554.80</ele>
	<time>2024-03-25T06:51:16.000Z</time>
</trkpt>
<trkpt lat="45.8503960" lon="9.2880590">
	<ele>555.00</ele>
	<time>2024-03-25T06:51:17.000Z</time>
</trkpt>
<trkpt lat="45.8503850" lon="9.2880670">
	<ele>555.20</ele>
	<time>2024-03-25T06:51:18.000Z</time>
</trkpt>
<trkpt lat="45.8503790" lon="9.2880810">
	<ele>555.40</ele>
	<time>2024-03-25T06:51:19.000Z</time>
</trkpt>
<trkpt lat="45.8503760" lon="9.2880970">
	<ele>555.40</ele>
	<time>2024-03-25T06:51:20.000Z</time>
</trkpt>
<trkpt lat="45.8503750" lon="9.2881150">
	<ele>555.60</ele>
	<time>2024-03-25T06:51:21.000Z</time>
</trkpt>
<trkpt lat="45.8503780" lon="9.2881360">
	<ele>555.60</ele>
	<time>2024-03-25T06:51:22.000Z</time>
</trkpt>
<trkpt lat="45.8503820" lon="9.2881560">
	<ele>555.60</ele>
	<time>2024-03-25T06:51:23.000Z</time>
</trkpt>
<trkpt lat="45.8503870" lon="9.2881730">
	<ele>555.80</ele>
	<time>2024-03-25T06:51:24.000Z</time>
</trkpt>
<trkpt lat="45.8503940" lon="9.2881850">
	<ele>556.00</ele>
	<time>2024-03-25T06:51:25.000Z</time>
</trkpt>
<trkpt lat="45.8504000" lon="9.2881940">
	<ele>556.00</ele>
	<time>2024-03-25T06:51:26.000Z</time>
</trkpt>
<trkpt lat="45.8504070" lon="9.2882020">
	<ele>556.20</ele>
	<time>2024-03-25T06:51:27.000Z</time>
</trkpt>
<trkpt lat="45.8504140" lon="9.2882130">
	<ele>556.20</ele>
	<time>2024-03-25T06:51:28.000Z</time>
</trkpt>
<trkpt lat="45.8504190" lon="9.2882240">
	<ele>556.40</ele>
	<time>2024-03-25T06:51:29.000Z</time>
</trkpt>
<trkpt lat="45.8504250" lon="9.2882370">
	<ele>556.60</ele>
	<time>2024-03-25T06:51:30.000Z</time>
</trkpt>
<trkpt lat="45.8504330" lon="9.2882660">
	<ele>556.60</ele>
	<time>2024-03-25T06:51:31.000Z</time>
</trkpt>
<trkpt lat="45.8504400" lon="9.2882790">
	<ele>557.00</ele>
	<time>2024-03-25T06:51:32.000Z</time>
</trkpt>
<trkpt lat="45.8504490" lon="9.2882880">
	<ele>557.00</ele>
	<time>2024-03-25T06:51:33.000Z</time>
</trkpt>
<trkpt lat="45.8504570" lon="9.2882990">
	<ele>557.20</ele>
	<time>2024-03-25T06:51:34.000Z</time>
</trkpt>
<trkpt lat="45.8504650" lon="9.2883080">
	<ele>557.20</ele>
	<time>2024-03-25T06:51:35.000Z</time>
</trkpt>
<trkpt lat="45.8504700" lon="9.2883180">
	<ele>557.20</ele>
	<time>2024-03-25T06:51:36.000Z</time>
</trkpt>
<trkpt lat="45.8504740" lon="9.2883240">
	<ele>557.20</ele>
	<time>2024-03-25T06:51:37.000Z</time>
</trkpt>
<trkpt lat="45.8504810" lon="9.2883310">
	<ele>557.40</ele>
	<time>2024-03-25T06:51:38.000Z</time>
</trkpt>
<trkpt lat="45.8504870" lon="9.2883420">
	<ele>557.60</ele>
	<time>2024-03-25T06:51:39.000Z</time>
</trkpt>
<trkpt lat="45.8504900" lon="9.2883550">
	<ele>557.60</ele>
	<time>2024-03-25T06:51:40.000Z</time>
</trkpt>
<trkpt lat="45.8504910" lon="9.2883730">
	<ele>557.80</ele>
	<time>2024-03-25T06:51:41.000Z</time>
</trkpt>
<trkpt lat="45.8504930" lon="9.2883850">
	<ele>557.80</ele>
	<time>2024-03-25T06:51:42.000Z</time>
</trkpt>
<trkpt lat="45.8504980" lon="9.2883940">
	<ele>558.00</ele>
	<time>2024-03-25T06:51:43.000Z</time>
</trkpt>
<trkpt lat="45.8505050" lon="9.2884030">
	<ele>558.00</ele>
	<time>2024-03-25T06:51:44.000Z</time>
</trkpt>
<trkpt lat="45.8505130" lon="9.2884190">
	<ele>558.00</ele>
	<time>2024-03-25T06:51:45.000Z</time>
</trkpt>
<trkpt lat="45.8505140" lon="9.2884400">
	<ele>558.20</ele>
	<time>2024-03-25T06:51:46.000Z</time>
</trkpt>
<trkpt lat="45.8505090" lon="9.2884650">
	<ele>558.20</ele>
	<time>2024-03-25T06:51:47.000Z</time>
</trkpt>
<trkpt lat="45.8505040" lon="9.2884890">
	<ele>558.40</ele>
	<time>2024-03-25T06:51:48.000Z</time>
</trkpt>
<trkpt lat="45.8505040" lon="9.2885080">
	<ele>558.40</ele>
	<time>2024-03-25T06:51:49.000Z</time>
</trkpt>
<trkpt lat="45.8505100" lon="9.2885210">
	<ele>558.40</ele>
	<time>2024-03-25T06:51:50.000Z</time>
</trkpt>
<trkpt lat="45.8505140" lon="9.2885320">
	<ele>558.40</ele>
	<time>2024-03-25T06:51:51.000Z</time>
</trkpt>
<trkpt lat="45.8505190" lon="9.2885350">
	<ele>558.60</ele>
	<time>2024-03-25T06:51:52.000Z</time>
</trkpt>
<trkpt lat="45.8505220" lon="9.2885390">
	<ele>558.60</ele>
	<time>2024-03-25T06:51:53.000Z</time>
</trkpt>
<trkpt lat="45.8505250" lon="9.2885500">
	<ele>558.80</ele>
	<time>2024-03-25T06:51:54.000Z</time>
</trkpt>
<trkpt lat="45.8505330" lon="9.2885600">
	<ele>559.00</ele>
	<time>2024-03-25T06:51:55.000Z</time>
</trkpt>
<trkpt lat="45.8505440" lon="9.2885710">
	<ele>559.00</ele>
	<time>2024-03-25T06:51:56.000Z</time>
</trkpt>
<trkpt lat="45.8505560" lon="9.2885770">
	<ele>559.20</ele>
	<time>2024-03-25T06:51:57.000Z</time>
</trkpt>
<trkpt lat="45.8505640" lon="9.2885880">
	<ele>559.60</ele>
	<time>2024-03-25T06:51:58.000Z</time>
</trkpt>
<trkpt lat="45.8505710" lon="9.2885980">
	<ele>559.80</ele>
	<time>2024-03-25T06:51:59.000Z</time>
</trkpt>
<trkpt lat="45.8505760" lon="9.2886050">
	<ele>560.00</ele>
	<time>2024-03-25T06:52:00.000Z</time>
</trkpt>
<trkpt lat="45.8505830" lon="9.2886150">
	<ele>560.20</ele>
	<time>2024-03-25T06:52:01.000Z</time>
</trkpt>
<trkpt lat="45.8505900" lon="9.2886250">
	<ele>560.20</ele>
	<time>2024-03-25T06:52:02.000Z</time>
</trkpt>
<trkpt lat="45.8505960" lon="9.2886350">
	<ele>560.60</ele>
	<time>2024-03-25T06:52:03.000Z</time>
</trkpt>
<trkpt lat="45.8506030" lon="9.2886440">
	<ele>560.80</ele>
	<time>2024-03-25T06:52:04.000Z</time>
</trkpt>
<trkpt lat="45.8506110" lon="9.2886490">
	<ele>561.00</ele>
	<time>2024-03-25T06:52:05.000Z</time>
</trkpt>
<trkpt lat="45.8506150" lon="9.2886570">
	<ele>561.40</ele>
	<time>2024-03-25T06:52:06.000Z</time>
</trkpt>
<trkpt lat="45.8506190" lon="9.2886680">
	<ele>561.80</ele>
	<time>2024-03-25T06:52:07.000Z</time>
</trkpt>
<trkpt lat="45.8506230" lon="9.2886790">
	<ele>562.00</ele>
	<time>2024-03-25T06:52:08.000Z</time>
</trkpt>
<trkpt lat="45.8506280" lon="9.2886900">
	<ele>562.20</ele>
	<time>2024-03-25T06:52:09.000Z</time>
</trkpt>
<trkpt lat="45.8506310" lon="9.2887010">
	<ele>562.20</ele>
	<time>2024-03-25T06:52:10.000Z</time>
</trkpt>
<trkpt lat="45.8506360" lon="9.2887200">
	<ele>562.40</ele>
	<time>2024-03-25T06:52:11.000Z</time>
</trkpt>
<trkpt lat="45.8506470" lon="9.2887370">
	<ele>562.40</ele>
	<time>2024-03-25T06:52:12.000Z</time>
</trkpt>
<trkpt lat="45.8506520" lon="9.2887490">
	<ele>562.40</ele>
	<time>2024-03-25T06:52:13.000Z</time>
</trkpt>
<trkpt lat="45.8506560" lon="9.2887570">
	<ele>562.60</ele>
	<time>2024-03-25T06:52:14.000Z</time>
</trkpt>
<trkpt lat="45.8506580" lon="9.2887680">
	<ele>562.60</ele>
	<time>2024-03-25T06:52:15.000Z</time>
</trkpt>
<trkpt lat="45.8506600" lon="9.2887790">
	<ele>562.80</ele>
	<time>2024-03-25T06:52:16.000Z</time>
</trkpt>
<trkpt lat="45.8506650" lon="9.2887900">
	<ele>562.80</ele>
	<time>2024-03-25T06:52:17.000Z</time>
</trkpt>
<trkpt lat="45.8506760" lon="9.2888030">
	<ele>563.00</ele>
	<time>2024-03-25T06:52:18.000Z</time>
</trkpt>
<trkpt lat="45.8506840" lon="9.2888160">
	<ele>563.00</ele>
	<time>2024-03-25T06:52:19.000Z</time>
</trkpt>
<trkpt lat="45.8506900" lon="9.2888320">
	<ele>563.20</ele>
	<time>2024-03-25T06:52:20.000Z</time>
</trkpt>
<trkpt lat="45.8506950" lon="9.2888470">
	<ele>563.40</ele>
	<time>2024-03-25T06:52:21.000Z</time>
</trkpt>
<trkpt lat="45.8506990" lon="9.2888630">
	<ele>563.40</ele>
	<time>2024-03-25T06:52:22.000Z</time>
</trkpt>
<trkpt lat="45.8507050" lon="9.2888760">
	<ele>563.40</ele>
	<time>2024-03-25T06:52:23.000Z</time>
</trkpt>
<trkpt lat="45.8507180" lon="9.2888860">
	<ele>563.80</ele>
	<time>2024-03-25T06:52:24.000Z</time>
</trkpt>
<trkpt lat="45.8507290" lon="9.2888970">
	<ele>564.00</ele>
	<time>2024-03-25T06:52:25.000Z</time>
</trkpt>
<trkpt lat="45.8507370" lon="9.2889070">
	<ele>564.20</ele>
	<time>2024-03-25T06:52:26.000Z</time>
</trkpt>
<trkpt lat="45.8507480" lon="9.2889140">
	<ele>564.20</ele>
	<time>2024-03-25T06:52:27.000Z</time>
</trkpt>
<trkpt lat="45.8507540" lon="9.2889260">
	<ele>564.40</ele>
	<time>2024-03-25T06:52:28.000Z</time>
</trkpt>
<trkpt lat="45.8507610" lon="9.2889410">
	<ele>564.40</ele>
	<time>2024-03-25T06:52:29.000Z</time>
</trkpt>
<trkpt lat="45.8507660" lon="9.2889520">
	<ele>564.60</ele>
	<time>2024-03-25T06:52:30.000Z</time>
</trkpt>
<trkpt lat="45.8507670" lon="9.2889670">
	<ele>564.80</ele>
	<time>2024-03-25T06:52:31.000Z</time>
</trkpt>
<trkpt lat="45.8507690" lon="9.2889780">
	<ele>564.80</ele>
	<time>2024-03-25T06:52:32.000Z</time>
</trkpt>
<trkpt lat="45.8507740" lon="9.2889870">
	<ele>565.00</ele>
	<time>2024-03-25T06:52:33.000Z</time>
</trkpt>
<trkpt lat="45.8507810" lon="9.2889970">
	<ele>565.20</ele>
	<time>2024-03-25T06:52:34.000Z</time>
</trkpt>
<trkpt lat="45.8507870" lon="9.2890060">
	<ele>565.40</ele>
	<time>2024-03-25T06:52:35.000Z</time>
</trkpt>
<trkpt lat="45.8507960" lon="9.2890140">
	<ele>565.60</ele>
	<time>2024-03-25T06:52:36.000Z</time>
</trkpt>
<trkpt lat="45.8508050" lon="9.2890210">
	<ele>565.60</ele>
	<time>2024-03-25T06:52:37.000Z</time>
</trkpt>
<trkpt lat="45.8508160" lon="9.2890310">
	<ele>565.80</ele>
	<time>2024-03-25T06:52:38.000Z</time>
</trkpt>
<trkpt lat="45.8508280" lon="9.2890420">
	<ele>566.00</ele>
	<time>2024-03-25T06:52:39.000Z</time>
</trkpt>
<trkpt lat="45.8508340" lon="9.2890530">
	<ele>566.20</ele>
	<time>2024-03-25T06:52:40.000Z</time>
</trkpt>
<trkpt lat="45.8508400" lon="9.2890610">
	<ele>566.40</ele>
	<time>2024-03-25T06:52:41.000Z</time>
</trkpt>
<trkpt lat="45.8508490" lon="9.2890710">
	<ele>566.60</ele>
	<time>2024-03-25T06:52:42.000Z</time>
</trkpt>
<trkpt lat="45.8508610" lon="9.2890850">
	<ele>566.60</ele>
	<time>2024-03-25T06:52:43.000Z</time>
</trkpt>
<trkpt lat="45.8508720" lon="9.2890970">
	<ele>566.80</ele>
	<time>2024-03-25T06:52:44.000Z</time>
</trkpt>
<trkpt lat="45.8508830" lon="9.2891060">
	<ele>566.80</ele>
	<time>2024-03-25T06:52:45.000Z</time>
</trkpt>
<trkpt lat="45.8508930" lon="9.2891170">
	<ele>567.00</ele>
	<time>2024-03-25T06:52:46.000Z</time>
</trkpt>
<trkpt lat="45.8509030" lon="9.2891300">
	<ele>567.00</ele>
	<time>2024-03-25T06:52:47.000Z</time>
</trkpt>
<trkpt lat="45.8509110" lon="9.2891480">
	<ele>567.00</ele>
	<time>2024-03-25T06:52:48.000Z</time>
</trkpt>
<trkpt lat="45.8509200" lon="9.2891660">
	<ele>567.20</ele>
	<time>2024-03-25T06:52:49.000Z</time>
</trkpt>
<trkpt lat="45.8509300" lon="9.2891750">
	<ele>567.20</ele>
	<time>2024-03-25T06:52:50.000Z</time>
</trkpt>
<trkpt lat="45.8509370" lon="9.2891840">
	<ele>567.20</ele>
	<time>2024-03-25T06:52:51.000Z</time>
</trkpt>
<trkpt lat="45.8509450" lon="9.2891900">
	<ele>567.40</ele>
	<time>2024-03-25T06:52:52.000Z</time>
</trkpt>
<trkpt lat="45.8509530" lon="9.2891970">
	<ele>567.60</ele>
	<time>2024-03-25T06:52:53.000Z</time>
</trkpt>
<trkpt lat="45.8509600" lon="9.2892050">
	<ele>567.60</ele>
	<time>2024-03-25T06:52:54.000Z</time>
</trkpt>
<trkpt lat="45.8509630" lon="9.2892190">
	<ele>567.80</ele>
	<time>2024-03-25T06:52:55.000Z</time>
</trkpt>
<trkpt lat="45.8509730" lon="9.2892300">
	<ele>568.20</ele>
	<time>2024-03-25T06:52:56.000Z</time>
</trkpt>
<trkpt lat="45.8509790" lon="9.2892440">
	<ele>568.40</ele>
	<time>2024-03-25T06:52:57.000Z</time>
</trkpt>
<trkpt lat="45.8509870" lon="9.2892540">
	<ele>568.40</ele>
	<time>2024-03-25T06:52:58.000Z</time>
</trkpt>
<trkpt lat="45.8509960" lon="9.2892630">
	<ele>568.60</ele>
	<time>2024-03-25T06:52:59.000Z</time>
</trkpt>
<trkpt lat="45.8510040" lon="9.2892720">
	<ele>568.60</ele>
	<time>2024-03-25T06:53:00.000Z</time>
</trkpt>
<trkpt lat="45.8510140" lon="9.2892760">
	<ele>568.80</ele>
	<time>2024-03-25T06:53:01.000Z</time>
</trkpt>
<trkpt lat="45.8510250" lon="9.2892800">
	<ele>568.80</ele>
	<time>2024-03-25T06:53:02.000Z</time>
</trkpt>
<trkpt lat="45.8510350" lon="9.2892870">
	<ele>569.00</ele>
	<time>2024-03-25T06:53:03.000Z</time>
</trkpt>
<trkpt lat="45.8510440" lon="9.2892950">
	<ele>569.20</ele>
	<time>2024-03-25T06:53:04.000Z</time>
</trkpt>
<trkpt lat="45.8510530" lon="9.2893030">
	<ele>569.40</ele>
	<time>2024-03-25T06:53:05.000Z</time>
</trkpt>
<trkpt lat="45.8510610" lon="9.2893110">
	<ele>569.80</ele>
	<time>2024-03-25T06:53:06.000Z</time>
</trkpt>
<trkpt lat="45.8510700" lon="9.2893180">
	<ele>570.00</ele>
	<time>2024-03-25T06:53:07.000Z</time>
</trkpt>
<trkpt lat="45.8510770" lon="9.2893240">
	<ele>570.00</ele>
	<time>2024-03-25T06:53:08.000Z</time>
</trkpt>
<trkpt lat="45.8510840" lon="9.2893300">
	<ele>570.00</ele>
	<time>2024-03-25T06:53:09.000Z</time>
</trkpt>
<trkpt lat="45.8510860" lon="9.2893350">
	<ele>570.20</ele>
	<time>2024-03-25T06:53:10.000Z</time>
</trkpt>
<trkpt lat="45.8510870" lon="9.2893400">
	<ele>570.40</ele>
	<time>2024-03-25T06:53:11.000Z</time>
</trkpt>
<trkpt lat="45.8510870" lon="9.2893330">
	<ele>570.60</ele>
	<time>2024-03-25T06:53:12.000Z</time>
</trkpt>
<trkpt lat="45.8510850" lon="9.2893340">
	<ele>570.80</ele>
	<time>2024-03-25T06:53:13.000Z</time>
</trkpt>
<trkpt lat="45.8510810" lon="9.2893340">
	<ele>571.00</ele>
	<time>2024-03-25T06:53:14.000Z</time>
</trkpt>
<trkpt lat="45.8510800" lon="9.2893300">
	<ele>571.00</ele>
	<time>2024-03-25T06:53:15.000Z</time>
</trkpt>
<trkpt lat="45.8510750" lon="9.2893170">
	<ele>571.20</ele>
	<time>2024-03-25T06:53:16.000Z</time>
</trkpt>
<trkpt lat="45.8510700" lon="9.2893070">
	<ele>571.20</ele>
	<time>2024-03-25T06:53:17.000Z</time>
</trkpt>
<trkpt lat="45.8510630" lon="9.2892980">
	<ele>571.40</ele>
	<time>2024-03-25T06:53:18.000Z</time>
</trkpt>
<trkpt lat="45.8510590" lon="9.2892950">
	<ele>571.40</ele>
	<time>2024-03-25T06:53:19.000Z</time>
</trkpt>
<trkpt lat="45.8510520" lon="9.2892940">
	<ele>571.60</ele>
	<time>2024-03-25T06:53:20.000Z</time>
</trkpt>
<trkpt lat="45.8510490" lon="9.2892960">
	<ele>571.60</ele>
	<time>2024-03-25T06:53:21.000Z</time>
</trkpt>
<trkpt lat="45.8510480" lon="9.2892990">
	<ele>571.80</ele>
	<time>2024-03-25T06:53:22.000Z</time>
</trkpt>
<trkpt lat="45.8510470" lon="9.2893010">
	<ele>571.80</ele>
	<time>2024-03-25T06:53:23.000Z</time>
</trkpt>
<trkpt lat="45.8510470" lon="9.2893010">
	<ele>572.00</ele>
	<time>2024-03-25T06:53:24.000Z</time>
</trkpt>
<trkpt lat="45.8510470" lon="9.2893010">
	<ele>572.00</ele>
	<time>2024-03-25T06:53:25.000Z</time>
</trkpt>
<trkpt lat="45.8510470" lon="9.2893010">
	<ele>572.00</ele>
	<time>2024-03-25T06:53:26.000Z</time>
</trkpt>
<trkpt lat="45.8510470" lon="9.2893010">
	<ele>572.20</ele>
	<time>2024-03-25T06:53:27.000Z</time>
</trkpt>
<trkpt lat="45.8510470" lon="9.2893010">
	<ele>572.20</ele>
	<time>2024-03-25T06:53:28.000Z</time>
</trkpt>
<trkpt lat="45.8510470" lon="9.2893010">
	<ele>572.20</ele>
	<time>2024-03-25T06:53:29.000Z</time>
</trkpt>
<trkpt lat="45.8510470" lon="9.2893010">
	<ele>572.40</ele>
	<time>2024-03-25T06:53:30.000Z</time>
</trkpt>
<trkpt lat="45.8510480" lon="9.2893010">
	<ele>572.40</ele>
	<time>2024-03-25T06:53:31.000Z</time>
</trkpt>
<trkpt lat="45.8510480" lon="9.2893010">
	<ele>572.40</ele>
	<time>2024-03-25T06:53:32.000Z</time>
</trkpt>
<trkpt lat="45.8510480" lon="9.2893010">
	<ele>572.40</ele>
	<time>2024-03-25T06:53:33.000Z</time>
</trkpt>
<trkpt lat="45.8510480" lon="9.2893010">
	<ele>572.40</ele>
	<time>2024-03-25T06:53:34.000Z</time>
</trkpt>
<trkpt lat="45.8510480" lon="9.2893010">
	<ele>572.60</ele>
	<time>2024-03-25T06:53:35.000Z</time>
</trkpt>
<trkpt lat="45.8510440" lon="9.2892990">
	<ele>572.60</ele>
	<time>2024-03-25T06:53:36.000Z</time>
</trkpt>
<trkpt lat="45.8510320" lon="9.2892930">
	<ele>572.60</ele>
	<time>2024-03-25T06:53:37.000Z</time>
</trkpt>
<trkpt lat="45.8510200" lon="9.2892900">
	<ele>572.80</ele>
	<time>2024-03-25T06:53:38.000Z</time>
</trkpt>
<trkpt lat="45.8510090" lon="9.2892820">
	<ele>573.00</ele>
	<time>2024-03-25T06:53:39.000Z</time>
</trkpt>
<trkpt lat="45.8509970" lon="9.2892750">
	<ele>573.20</ele>
	<time>2024-03-25T06:53:40.000Z</time>
</trkpt>
<trkpt lat="45.8509840" lon="9.2892700">
	<ele>573.20</ele>
	<time>2024-03-25T06:53:41.000Z</time>
</trkpt>
<trkpt lat="45.8509690" lon="9.2892680">
	<ele>573.40</ele>
	<time>2024-03-25T06:53:42.000Z</time>
</trkpt>
<trkpt lat="45.8509560" lon="9.2892680">
	<ele>573.60</ele>
	<time>2024-03-25T06:53:43.000Z</time>
</trkpt>
<trkpt lat="45.8509470" lon="9.2892640">
	<ele>573.80</ele>
	<time>2024-03-25T06:53:44.000Z</time>
</trkpt>
<trkpt lat="45.8509350" lon="9.2892610">
	<ele>574.00</ele>
	<time>2024-03-25T06:53:45.000Z</time>
</trkpt>
<trkpt lat="45.8509250" lon="9.2892610">
	<ele>574.20</ele>
	<time>2024-03-25T06:53:46.000Z</time>
</trkpt>
<trkpt lat="45.8509160" lon="9.2892600">
	<ele>574.40</ele>
	<time>2024-03-25T06:53:47.000Z</time>
</trkpt>
<trkpt lat="45.8509040" lon="9.2892650">
	<ele>574.60</ele>
	<time>2024-03-25T06:53:48.000Z</time>
</trkpt>
<trkpt lat="45.8508970" lon="9.2892690">
	<ele>574.80</ele>
	<time>2024-03-25T06:53:49.000Z</time>
</trkpt>
<trkpt lat="45.8508880" lon="9.2892710">
	<ele>575.20</ele>
	<time>2024-03-25T06:53:50.000Z</time>
</trkpt>
<trkpt lat="45.8508780" lon="9.2892740">
	<ele>575.40</ele>
	<time>2024-03-25T06:53:51.000Z</time>
</trkpt>
<trkpt lat="45.8508690" lon="9.2892760">
	<ele>575.40</ele>
	<time>2024-03-25T06:53:52.000Z</time>
</trkpt>
<trkpt lat="45.8508560" lon="9.2892790">
	<ele>575.60</ele>
	<time>2024-03-25T06:53:53.000Z</time>
</trkpt>
<trkpt lat="45.8508460" lon="9.2892820">
	<ele>575.60</ele>
	<time>2024-03-25T06:53:54.000Z</time>
</trkpt>
<trkpt lat="45.8508370" lon="9.2892860">
	<ele>575.80</ele>
	<time>2024-03-25T06:53:55.000Z</time>
</trkpt>
<trkpt lat="45.8508280" lon="9.2892890">
	<ele>576.00</ele>
	<time>2024-03-25T06:53:56.000Z</time>
</trkpt>
<trkpt lat="45.8508190" lon="9.2892920">
	<ele>576.20</ele>
	<time>2024-03-25T06:53:57.000Z</time>
</trkpt>
<trkpt lat="45.8508090" lon="9.2892940">
	<ele>576.40</ele>
	<time>2024-03-25T06:53:58.000Z</time>
</trkpt>
<trkpt lat="45.8508010" lon="9.2892930">
	<ele>576.40</ele>
	<time>2024-03-25T06:53:59.000Z</time>
</trkpt>
<trkpt lat="45.8507910" lon="9.2892960">
	<ele>576.60</ele>
	<time>2024-03-25T06:54:00.000Z</time>
</trkpt>
<trkpt lat="45.8507830" lon="9.2893000">
	<ele>576.80</ele>
	<time>2024-03-25T06:54:01.000Z</time>
</trkpt>
<trkpt lat="45.8507750" lon="9.2893030">
	<ele>577.00</ele>
	<time>2024-03-25T06:54:02.000Z</time>
</trkpt>
<trkpt lat="45.8507670" lon="9.2893030">
	<ele>577.00</ele>
	<time>2024-03-25T06:54:03.000Z</time>
</trkpt>
<trkpt lat="45.8507610" lon="9.2893030">
	<ele>577.20</ele>
	<time>2024-03-25T06:54:04.000Z</time>
</trkpt>
<trkpt lat="45.8507560" lon="9.2893060">
	<ele>577.40</ele>
	<time>2024-03-25T06:54:05.000Z</time>
</trkpt>
<trkpt lat="45.8507510" lon="9.2893080">
	<ele>577.60</ele>
	<time>2024-03-25T06:54:06.000Z</time>
</trkpt>
<trkpt lat="45.8507450" lon="9.2893060">
	<ele>578.00</ele>
	<time>2024-03-25T06:54:07.000Z</time>
</trkpt>
<trkpt lat="45.8507390" lon="9.2893020">
	<ele>578.20</ele>
	<time>2024-03-25T06:54:08.000Z</time>
</trkpt>
<trkpt lat="45.8507320" lon="9.2893010">
	<ele>578.40</ele>
	<time>2024-03-25T06:54:09.000Z</time>
</trkpt>
<trkpt lat="45.8507230" lon="9.2893030">
	<ele>578.40</ele>
	<time>2024-03-25T06:54:10.000Z</time>
</trkpt>
<trkpt lat="45.8507170" lon="9.2893020">
	<ele>578.60</ele>
	<time>2024-03-25T06:54:11.000Z</time>
</trkpt>
<trkpt lat="45.8507100" lon="9.2892990">
	<ele>578.80</ele>
	<time>2024-03-25T06:54:12.000Z</time>
</trkpt>
<trkpt lat="45.8507010" lon="9.2892960">
	<ele>579.00</ele>
	<time>2024-03-25T06:54:13.000Z</time>
</trkpt>
<trkpt lat="45.8506960" lon="9.2892920">
	<ele>579.40</ele>
	<time>2024-03-25T06:54:14.000Z</time>
</trkpt>
<trkpt lat="45.8506900" lon="9.2892880">
	<ele>579.60</ele>
	<time>2024-03-25T06:54:15.000Z</time>
</trkpt>
<trkpt lat="45.8506820" lon="9.2892840">
	<ele>579.80</ele>
	<time>2024-03-25T06:54:16.000Z</time>
</trkpt>
<trkpt lat="45.8506740" lon="9.2892790">
	<ele>580.00</ele>
	<time>2024-03-25T06:54:17.000Z</time>
</trkpt>
<trkpt lat="45.8506670" lon="9.2892720">
	<ele>580.20</ele>
	<time>2024-03-25T06:54:18.000Z</time>
</trkpt>
<trkpt lat="45.8506620" lon="9.2892740">
	<ele>580.40</ele>
	<time>2024-03-25T06:54:19.000Z</time>
</trkpt>
<trkpt lat="45.8506560" lon="9.2892790">
	<ele>580.40</ele>
	<time>2024-03-25T06:54:20.000Z</time>
</trkpt>
<trkpt lat="45.8506520" lon="9.2892830">
	<ele>580.60</ele>
	<time>2024-03-25T06:54:21.000Z</time>
</trkpt>
<trkpt lat="45.8506500" lon="9.2892820">
	<ele>580.80</ele>
	<time>2024-03-25T06:54:22.000Z</time>
</trkpt>
<trkpt lat="45.8506600" lon="9.2892720">
	<ele>581.00</ele>
	<time>2024-03-25T06:54:23.000Z</time>
</trkpt>
<trkpt lat="45.8506640" lon="9.2892620">
	<ele>581.20</ele>
	<time>2024-03-25T06:54:24.000Z</time>
</trkpt>
<trkpt lat="45.8506600" lon="9.2892540">
	<ele>581.40</ele>
	<time>2024-03-25T06:54:25.000Z</time>
</trkpt>
<trkpt lat="45.8506470" lon="9.2892500">
	<ele>581.40</ele>
	<time>2024-03-25T06:54:26.000Z</time>
</trkpt>
<trkpt lat="45.8506360" lon="9.2892510">
	<ele>581.60</ele>
	<time>2024-03-25T06:54:27.000Z</time>
</trkpt>
<trkpt lat="45.8506230" lon="9.2892480">
	<ele>581.60</ele>
	<time>2024-03-25T06:54:28.000Z</time>
</trkpt>
<trkpt lat="45.8506120" lon="9.2892450">
	<ele>581.80</ele>
	<time>2024-03-25T06:54:29.000Z</time>
</trkpt>
<trkpt lat="45.8506050" lon="9.2892440">
	<ele>582.00</ele>
	<time>2024-03-25T06:54:30.000Z</time>
</trkpt>
<trkpt lat="45.8505950" lon="9.2892450">
	<ele>582.20</ele>
	<time>2024-03-25T06:54:31.000Z</time>
</trkpt>
<trkpt lat="45.8505840" lon="9.2892580">
	<ele>582.40</ele>
	<time>2024-03-25T06:54:32.000Z</time>
</trkpt>
<trkpt lat="45.8505740" lon="9.2892770">
	<ele>582.60</ele>
	<time>2024-03-25T06:54:33.000Z</time>
</trkpt>
<trkpt lat="45.8505690" lon="9.2892950">
	<ele>582.80</ele>
	<time>2024-03-25T06:54:34.000Z</time>
</trkpt>
<trkpt lat="45.8505700" lon="9.2893100">
	<ele>583.00</ele>
	<time>2024-03-25T06:54:35.000Z</time>
</trkpt>
<trkpt lat="45.8505720" lon="9.2893270">
	<ele>583.00</ele>
	<time>2024-03-25T06:54:36.000Z</time>
</trkpt>
<trkpt lat="45.8505760" lon="9.2893350">
	<ele>583.20</ele>
	<time>2024-03-25T06:54:37.000Z</time>
</trkpt>
<trkpt lat="45.8505760" lon="9.2893520">
	<ele>583.20</ele>
	<time>2024-03-25T06:54:38.000Z</time>
</trkpt>
<trkpt lat="45.8505750" lon="9.2893760">
	<ele>583.40</ele>
	<time>2024-03-25T06:54:39.000Z</time>
</trkpt>
<trkpt lat="45.8505780" lon="9.2893970">
	<ele>583.60</ele>
	<time>2024-03-25T06:54:40.000Z</time>
</trkpt>
<trkpt lat="45.8505840" lon="9.2894060">
	<ele>583.80</ele>
	<time>2024-03-25T06:54:41.000Z</time>
</trkpt>
<trkpt lat="45.8505930" lon="9.2894140">
	<ele>584.00</ele>
	<time>2024-03-25T06:54:42.000Z</time>
</trkpt>
<trkpt lat="45.8506000" lon="9.2894200">
	<ele>584.00</ele>
	<time>2024-03-25T06:54:43.000Z</time>
</trkpt>
<trkpt lat="45.8506040" lon="9.2894280">
	<ele>584.20</ele>
	<time>2024-03-25T06:54:44.000Z</time>
</trkpt>
<trkpt lat="45.8506070" lon="9.2894370">
	<ele>584.40</ele>
	<time>2024-03-25T06:54:45.000Z</time>
</trkpt>
<trkpt lat="45.8506120" lon="9.2894460">
	<ele>584.40</ele>
	<time>2024-03-25T06:54:46.000Z</time>
</trkpt>
<trkpt lat="45.8506180" lon="9.2894550">
	<ele>584.60</ele>
	<time>2024-03-25T06:54:47.000Z</time>
</trkpt>
<trkpt lat="45.8506260" lon="9.2894630">
	<ele>584.80</ele>
	<time>2024-03-25T06:54:48.000Z</time>
</trkpt>
<trkpt lat="45.8506320" lon="9.2894690">
	<ele>584.80</ele>
	<time>2024-03-25T06:54:49.000Z</time>
</trkpt>
<trkpt lat="45.8506360" lon="9.2894790">
	<ele>585.00</ele>
	<time>2024-03-25T06:54:50.000Z</time>
</trkpt>
<trkpt lat="45.8506410" lon="9.2894890">
	<ele>585.20</ele>
	<time>2024-03-25T06:54:51.000Z</time>
</trkpt>
<trkpt lat="45.8506470" lon="9.2895010">
	<ele>585.40</ele>
	<time>2024-03-25T06:54:52.000Z</time>
</trkpt>
<trkpt lat="45.8506520" lon="9.2895130">
	<ele>585.60</ele>
	<time>2024-03-25T06:54:53.000Z</time>
</trkpt>
<trkpt lat="45.8506570" lon="9.2895220">
	<ele>585.60</ele>
	<time>2024-03-25T06:54:54.000Z</time>
</trkpt>
<trkpt lat="45.8506600" lon="9.2895340">
	<ele>585.80</ele>
	<time>2024-03-25T06:54:55.000Z</time>
</trkpt>
<trkpt lat="45.8506620" lon="9.2895470">
	<ele>586.00</ele>
	<time>2024-03-25T06:54:56.000Z</time>
</trkpt>
<trkpt lat="45.8506650" lon="9.2895600">
	<ele>586.20</ele>
	<time>2024-03-25T06:54:57.000Z</time>
</trkpt>
<trkpt lat="45.8506700" lon="9.2895720">
	<ele>586.60</ele>
	<time>2024-03-25T06:54:58.000Z</time>
</trkpt>
<trkpt lat="45.8506790" lon="9.2895830">
	<ele>586.80</ele>
	<time>2024-03-25T06:54:59.000Z</time>
</trkpt>
<trkpt lat="45.8506870" lon="9.2895910">
	<ele>587.00</ele>
	<time>2024-03-25T06:55:00.000Z</time>
</trkpt>
<trkpt lat="45.8506930" lon="9.2895990">
	<ele>587.20</ele>
	<time>2024-03-25T06:55:01.000Z</time>
</trkpt>
<trkpt lat="45.8506970" lon="9.2896070">
	<ele>587.40</ele>
	<time>2024-03-25T06:55:02.000Z</time>
</trkpt>
<trkpt lat="45.8507020" lon="9.2896130">
	<ele>587.60</ele>
	<time>2024-03-25T06:55:03.000Z</time>
</trkpt>
<trkpt lat="45.8507090" lon="9.2896220">
	<ele>587.60</ele>
	<time>2024-03-25T06:55:04.000Z</time>
</trkpt>
<trkpt lat="45.8507170" lon="9.2896330">
	<ele>588.00</ele>
	<time>2024-03-25T06:55:05.000Z</time>
</trkpt>
<trkpt lat="45.8507210" lon="9.2896430">
	<ele>588.00</ele>
	<time>2024-03-25T06:55:06.000Z</time>
</trkpt>
<trkpt lat="45.8507260" lon="9.2896490">
	<ele>588.40</ele>
	<time>2024-03-25T06:55:07.000Z</time>
</trkpt>
<trkpt lat="45.8507310" lon="9.2896560">
	<ele>588.60</ele>
	<time>2024-03-25T06:55:08.000Z</time>
</trkpt>
<trkpt lat="45.8507360" lon="9.2896660">
	<ele>588.60</ele>
	<time>2024-03-25T06:55:09.000Z</time>
</trkpt>
<trkpt lat="45.8507410" lon="9.2896790">
	<ele>588.80</ele>
	<time>2024-03-25T06:55:10.000Z</time>
</trkpt>
<trkpt lat="45.8507460" lon="9.2896920">
	<ele>589.00</ele>
	<time>2024-03-25T06:55:11.000Z</time>
</trkpt>
<trkpt lat="45.8507500" lon="9.2897040">
	<ele>589.20</ele>
	<time>2024-03-25T06:55:12.000Z</time>
</trkpt>
<trkpt lat="45.8507540" lon="9.2897140">
	<ele>589.60</ele>
	<time>2024-03-25T06:55:13.000Z</time>
</trkpt>
<trkpt lat="45.8507560" lon="9.2897260">
	<ele>589.60</ele>
	<time>2024-03-25T06:55:14.000Z</time>
</trkpt>
<trkpt lat="45.8507600" lon="9.2897390">
	<ele>589.80</ele>
	<time>2024-03-25T06:55:15.000Z</time>
</trkpt>
<trkpt lat="45.8507660" lon="9.2897460">
	<ele>590.20</ele>
	<time>2024-03-25T06:55:16.000Z</time>
</trkpt>
<trkpt lat="45.8507700" lon="9.2897550">
	<ele>590.20</ele>
	<time>2024-03-25T06:55:17.000Z</time>
</trkpt>
<trkpt lat="45.8507770" lon="9.2897650">
	<ele>590.60</ele>
	<time>2024-03-25T06:55:18.000Z</time>
</trkpt>
<trkpt lat="45.8507830" lon="9.2897770">
	<ele>590.60</ele>
	<time>2024-03-25T06:55:19.000Z</time>
</trkpt>
<trkpt lat="45.8507900" lon="9.2897860">
	<ele>590.80</ele>
	<time>2024-03-25T06:55:20.000Z</time>
</trkpt>
<trkpt lat="45.8507980" lon="9.2897970">
	<ele>591.20</ele>
	<time>2024-03-25T06:55:21.000Z</time>
</trkpt>
<trkpt lat="45.8508030" lon="9.2898060">
	<ele>591.40</ele>
	<time>2024-03-25T06:55:22.000Z</time>
</trkpt>
<trkpt lat="45.8508100" lon="9.2898160">
	<ele>591.60</ele>
	<time>2024-03-25T06:55:23.000Z</time>
</trkpt>
<trkpt lat="45.8508160" lon="9.2898220">
	<ele>591.80</ele>
	<time>2024-03-25T06:55:24.000Z</time>
</trkpt>
<trkpt lat="45.8508240" lon="9.2898290">
	<ele>591.80</ele>
	<time>2024-03-25T06:55:25.000Z</time>
</trkpt>
<trkpt lat="45.8508310" lon="9.2898360">
	<ele>592.00</ele>
	<time>2024-03-25T06:55:26.000Z</time>
</trkpt>
<trkpt lat="45.8508370" lon="9.2898400">
	<ele>592.20</ele>
	<time>2024-03-25T06:55:27.000Z</time>
</trkpt>
<trkpt lat="45.8508410" lon="9.2898430">
	<ele>592.60</ele>
	<time>2024-03-25T06:55:28.000Z</time>
</trkpt>
<trkpt lat="45.8508450" lon="9.2898540">
	<ele>592.80</ele>
	<time>2024-03-25T06:55:29.000Z</time>
</trkpt>
<trkpt lat="45.8508490" lon="9.2898680">
	<ele>593.00</ele>
	<time>2024-03-25T06:55:30.000Z</time>
</trkpt>
<trkpt lat="45.8508510" lon="9.2898820">
	<ele>593.00</ele>
	<time>2024-03-25T06:55:31.000Z</time>
</trkpt>
<trkpt lat="45.8508550" lon="9.2898940">
	<ele>593.20</ele>
	<time>2024-03-25T06:55:32.000Z</time>
</trkpt>
<trkpt lat="45.8508620" lon="9.2899050">
	<ele>593.40</ele>
	<time>2024-03-25T06:55:33.000Z</time>
</trkpt>
<trkpt lat="45.8508700" lon="9.2899140">
	<ele>593.60</ele>
	<time>2024-03-25T06:55:34.000Z</time>
</trkpt>
<trkpt lat="45.8508780" lon="9.2899230">
	<ele>593.80</ele>
	<time>2024-03-25T06:55:35.000Z</time>
</trkpt>
<trkpt lat="45.8508880" lon="9.2899280">
	<ele>594.00</ele>
	<time>2024-03-25T06:55:36.000Z</time>
</trkpt>
<trkpt lat="45.8508940" lon="9.2899370">
	<ele>594.00</ele>
	<time>2024-03-25T06:55:37.000Z</time>
</trkpt>
<trkpt lat="45.8508980" lon="9.2899480">
	<ele>594.20</ele>
	<time>2024-03-25T06:55:38.000Z</time>
</trkpt>
<trkpt lat="45.8509070" lon="9.2899590">
	<ele>594.40</ele>
	<time>2024-03-25T06:55:39.000Z</time>
</trkpt>
<trkpt lat="45.8509200" lon="9.2899630">
	<ele>594.60</ele>
	<time>2024-03-25T06:55:40.000Z</time>
</trkpt>
<trkpt lat="45.8509320" lon="9.2899680">
	<ele>594.80</ele>
	<time>2024-03-25T06:55:41.000Z</time>
</trkpt>
<trkpt lat="45.8509390" lon="9.2899750">
	<ele>595.00</ele>
	<time>2024-03-25T06:55:42.000Z</time>
</trkpt>
<trkpt lat="45.8509440" lon="9.2899840">
	<ele>595.00</ele>
	<time>2024-03-25T06:55:43.000Z</time>
</trkpt>
<trkpt lat="45.8509480" lon="9.2899900">
	<ele>595.20</ele>
	<time>2024-03-25T06:55:44.000Z</time>
</trkpt>
<trkpt lat="45.8509520" lon="9.2899970">
	<ele>595.40</ele>
	<time>2024-03-25T06:55:45.000Z</time>
</trkpt>
<trkpt lat="45.8509570" lon="9.2900070">
	<ele>595.60</ele>
	<time>2024-03-25T06:55:46.000Z</time>
</trkpt>
<trkpt lat="45.8509600" lon="9.2900170">
	<ele>595.80</ele>
	<time>2024-03-25T06:55:47.000Z</time>
</trkpt>
<trkpt lat="45.8509630" lon="9.2900270">
	<ele>596.00</ele>
	<time>2024-03-25T06:55:48.000Z</time>
</trkpt>
<trkpt lat="45.8509670" lon="9.2900360">
	<ele>596.20</ele>
	<time>2024-03-25T06:55:49.000Z</time>
</trkpt>
<trkpt lat="45.8509720" lon="9.2900440">
	<ele>596.40</ele>
	<time>2024-03-25T06:55:50.000Z</time>
</trkpt>
<trkpt lat="45.8509770" lon="9.2900500">
	<ele>596.60</ele>
	<time>2024-03-25T06:55:51.000Z</time>
</trkpt>
<trkpt lat="45.8509810" lon="9.2900580">
	<ele>596.80</ele>
	<time>2024-03-25T06:55:52.000Z</time>
</trkpt>
<trkpt lat="45.8509860" lon="9.2900650">
	<ele>596.80</ele>
	<time>2024-03-25T06:55:53.000Z</time>
</trkpt>
<trkpt lat="45.8509920" lon="9.2900780">
	<ele>597.00</ele>
	<time>2024-03-25T06:55:54.000Z</time>
</trkpt>
<trkpt lat="45.8510000" lon="9.2900910">
	<ele>597.20</ele>
	<time>2024-03-25T06:55:55.000Z</time>
</trkpt>
<trkpt lat="45.8510080" lon="9.2900970">
	<ele>597.40</ele>
	<time>2024-03-25T06:55:56.000Z</time>
</trkpt>
<trkpt lat="45.8510170" lon="9.2901030">
	<ele>597.60</ele>
	<time>2024-03-25T06:55:57.000Z</time>
</trkpt>
<trkpt lat="45.8510240" lon="9.2901100">
	<ele>597.80</ele>
	<time>2024-03-25T06:55:58.000Z</time>
</trkpt>
<trkpt lat="45.8510320" lon="9.2901200">
	<ele>598.00</ele>
	<time>2024-03-25T06:55:59.000Z</time>
</trkpt>
<trkpt lat="45.8510390" lon="9.2901270">
	<ele>598.00</ele>
	<time>2024-03-25T06:56:00.000Z</time>
</trkpt>
<trkpt lat="45.8510440" lon="9.2901330">
	<ele>598.40</ele>
	<time>2024-03-25T06:56:01.000Z</time>
</trkpt>
<trkpt lat="45.8510460" lon="9.2901410">
	<ele>598.40</ele>
	<time>2024-03-25T06:56:02.000Z</time>
</trkpt>
<trkpt lat="45.8510490" lon="9.2901500">
	<ele>598.60</ele>
	<time>2024-03-25T06:56:03.000Z</time>
</trkpt>
<trkpt lat="45.8510510" lon="9.2901640">
	<ele>598.80</ele>
	<time>2024-03-25T06:56:04.000Z</time>
</trkpt>
<trkpt lat="45.8510560" lon="9.2901740">
	<ele>598.80</ele>
	<time>2024-03-25T06:56:05.000Z</time>
</trkpt>
<trkpt lat="45.8510640" lon="9.2901780">
	<ele>599.00</ele>
	<time>2024-03-25T06:56:06.000Z</time>
</trkpt>
<trkpt lat="45.8510740" lon="9.2901830">
	<ele>599.20</ele>
	<time>2024-03-25T06:56:07.000Z</time>
</trkpt>
<trkpt lat="45.8510810" lon="9.2901950">
	<ele>599.40</ele>
	<time>2024-03-25T06:56:08.000Z</time>
</trkpt>
<trkpt lat="45.8510870" lon="9.2902090">
	<ele>599.40</ele>
	<time>2024-03-25T06:56:09.000Z</time>
</trkpt>
<trkpt lat="45.8510900" lon="9.2902240">
	<ele>599.80</ele>
	<time>2024-03-25T06:56:10.000Z</time>
</trkpt>
<trkpt lat="45.8510890" lon="9.2902370">
	<ele>599.80</ele>
	<time>2024-03-25T06:56:11.000Z</time>
</trkpt>
<trkpt lat="45.8510880" lon="9.2902520">
	<ele>600.00</ele>
	<time>2024-03-25T06:56:12.000Z</time>
</trkpt>
<trkpt lat="45.8510920" lon="9.2902630">
	<ele>600.00</ele>
	<time>2024-03-25T06:56:13.000Z</time>
</trkpt>
<trkpt lat="45.8511000" lon="9.2902730">
	<ele>600.20</ele>
	<time>2024-03-25T06:56:14.000Z</time>
</trkpt>
<trkpt lat="45.8511070" lon="9.2902790">
	<ele>600.20</ele>
	<time>2024-03-25T06:56:15.000Z</time>
</trkpt>
<trkpt lat="45.8511110" lon="9.2902830">
	<ele>600.40</ele>
	<time>2024-03-25T06:56:16.000Z</time>
</trkpt>
<trkpt lat="45.8511180" lon="9.2902900">
	<ele>600.60</ele>
	<time>2024-03-25T06:56:17.000Z</time>
</trkpt>
<trkpt lat="45.8511260" lon="9.2902940">
	<ele>600.80</ele>
	<time>2024-03-25T06:56:18.000Z</time>
</trkpt>
<trkpt lat="45.8511360" lon="9.2902960">
	<ele>601.00</ele>
	<time>2024-03-25T06:56:19.000Z</time>
</trkpt>
<trkpt lat="45.8511400" lon="9.2902980">
	<ele>601.00</ele>
	<time>2024-03-25T06:56:20.000Z</time>
</trkpt>
<trkpt lat="45.8511430" lon="9.2903070">
	<ele>601.40</ele>
	<time>2024-03-25T06:56:21.000Z</time>
</trkpt>
<trkpt lat="45.8511470" lon="9.2903190">
	<ele>601.60</ele>
	<time>2024-03-25T06:56:22.000Z</time>
</trkpt>
<trkpt lat="45.8511490" lon="9.2903300">
	<ele>601.60</ele>
	<time>2024-03-25T06:56:23.000Z</time>
</trkpt>
<trkpt lat="45.8511530" lon="9.2903410">
	<ele>601.80</ele>
	<time>2024-03-25T06:56:24.000Z</time>
</trkpt>
<trkpt lat="45.8511580" lon="9.2903520">
	<ele>602.00</ele>
	<time>2024-03-25T06:56:25.000Z</time>
</trkpt>
<trkpt lat="45.8511640" lon="9.2903590">
	<ele>602.00</ele>
	<time>2024-03-25T06:56:26.000Z</time>
</trkpt>
<trkpt lat="45.8511720" lon="9.2903650">
	<ele>602.20</ele>
	<time>2024-03-25T06:56:27.000Z</time>
</trkpt>
<trkpt lat="45.8511800" lon="9.2903690">
	<ele>602.40</ele>
	<time>2024-03-25T06:56:28.000Z</time>
</trkpt>
<trkpt lat="45.8511850" lon="9.2903780">
	<ele>602.60</ele>
	<time>2024-03-25T06:56:29.000Z</time>
</trkpt>
<trkpt lat="45.8511880" lon="9.2903930">
	<ele>602.60</ele>
	<time>2024-03-25T06:56:30.000Z</time>
</trkpt>
<trkpt lat="45.8511900" lon="9.2904090">
	<ele>602.80</ele>
	<time>2024-03-25T06:56:31.000Z</time>
</trkpt>
<trkpt lat="45.8511910" lon="9.2904150">
	<ele>602.80</ele>
	<time>2024-03-25T06:56:32.000Z</time>
</trkpt>
<trkpt lat="45.8511920" lon="9.2904210">
	<ele>603.00</ele>
	<time>2024-03-25T06:56:33.000Z</time>
</trkpt>
<trkpt lat="45.8511980" lon="9.2904310">
	<ele>603.20</ele>
	<time>2024-03-25T06:56:34.000Z</time>
</trkpt>
<trkpt lat="45.8512050" lon="9.2904390">
	<ele>603.40</ele>
	<time>2024-03-25T06:56:35.000Z</time>
</trkpt>
<trkpt lat="45.8512080" lon="9.2904440">
	<ele>603.60</ele>
	<time>2024-03-25T06:56:36.000Z</time>
</trkpt>
<trkpt lat="45.8512180" lon="9.2904510">
	<ele>603.80</ele>
	<time>2024-03-25T06:56:37.000Z</time>
</trkpt>
<trkpt lat="45.8512290" lon="9.2904610">
	<ele>604.20</ele>
	<time>2024-03-25T06:56:38.000Z</time>
</trkpt>
<trkpt lat="45.8512300" lon="9.2904660">
	<ele>604.40</ele>
	<time>2024-03-25T06:56:39.000Z</time>
</trkpt>
<trkpt lat="45.8512310" lon="9.2904700">
	<ele>604.40</ele>
	<time>2024-03-25T06:56:40.000Z</time>
</trkpt>
<trkpt lat="45.8512320" lon="9.2904740">
	<ele>604.60</ele>
	<time>2024-03-25T06:56:41.000Z</time>
</trkpt>
<trkpt lat="45.8512330" lon="9.2904760">
	<ele>604.80</ele>
	<time>2024-03-25T06:56:42.000Z</time>
</trkpt>
<trkpt lat="45.8512360" lon="9.2904830">
	<ele>604.80</ele>
	<time>2024-03-25T06:56:43.000Z</time>
</trkpt>
<trkpt lat="45.8512410" lon="9.2905000">
	<ele>605.00</ele>
	<time>2024-03-25T06:56:44.000Z</time>
</trkpt>
<trkpt lat="45.8512530" lon="9.2905150">
	<ele>605.20</ele>
	<time>2024-03-25T06:56:45.000Z</time>
</trkpt>
<trkpt lat="45.8512600" lon="9.2905250">
	<ele>605.20</ele>
	<time>2024-03-25T06:56:46.000Z</time>
</trkpt>
<trkpt lat="45.8512650" lon="9.2905340">
	<ele>605.40</ele>
	<time>2024-03-25T06:56:47.000Z</time>
</trkpt>
<trkpt lat="45.8512710" lon="9.2905450">
	<ele>605.60</ele>
	<time>2024-03-25T06:56:48.000Z</time>
</trkpt>
<trkpt lat="45.8512770" lon="9.2905600">
	<ele>605.80</ele>
	<time>2024-03-25T06:56:49.000Z</time>
</trkpt>
<trkpt lat="45.8512830" lon="9.2905690">
	<ele>606.00</ele>
	<time>2024-03-25T06:56:50.000Z</time>
</trkpt>
<trkpt lat="45.8512870" lon="9.2905780">
	<ele>606.20</ele>
	<time>2024-03-25T06:56:51.000Z</time>
</trkpt>
<trkpt lat="45.8512930" lon="9.2905870">
	<ele>606.40</ele>
	<time>2024-03-25T06:56:52.000Z</time>
</trkpt>
<trkpt lat="45.8513000" lon="9.2905970">
	<ele>606.60</ele>
	<time>2024-03-25T06:56:53.000Z</time>
</trkpt>
<trkpt lat="45.8513040" lon="9.2906080">
	<ele>606.80</ele>
	<time>2024-03-25T06:56:54.000Z</time>
</trkpt>
<trkpt lat="45.8513100" lon="9.2906180">
	<ele>607.00</ele>
	<time>2024-03-25T06:56:55.000Z</time>
</trkpt>
<trkpt lat="45.8513190" lon="9.2906250">
	<ele>607.20</ele>
	<time>2024-03-25T06:56:56.000Z</time>
</trkpt>
<trkpt lat="45.8513280" lon="9.2906280">
	<ele>607.20</ele>
	<time>2024-03-25T06:56:57.000Z</time>
</trkpt>
<trkpt lat="45.8513370" lon="9.2906350">
	<ele>607.40</ele>
	<time>2024-03-25T06:56:58.000Z</time>
</trkpt>
<trkpt lat="45.8513440" lon="9.2906460">
	<ele>607.60</ele>
	<time>2024-03-25T06:56:59.000Z</time>
</trkpt>
<trkpt lat="45.8513480" lon="9.2906540">
	<ele>607.80</ele>
	<time>2024-03-25T06:57:00.000Z</time>
</trkpt>
<trkpt lat="45.8513520" lon="9.2906640">
	<ele>607.80</ele>
	<time>2024-03-25T06:57:01.000Z</time>
</trkpt>
<trkpt lat="45.8513590" lon="9.2906750">
	<ele>608.00</ele>
	<time>2024-03-25T06:57:02.000Z</time>
</trkpt>
<trkpt lat="45.8513630" lon="9.2906900">
	<ele>608.00</ele>
	<time>2024-03-25T06:57:03.000Z</time>
</trkpt>
<trkpt lat="45.8513710" lon="9.2907000">
	<ele>608.40</ele>
	<time>2024-03-25T06:57:04.000Z</time>
</trkpt>
<trkpt lat="45.8513790" lon="9.2907080">
	<ele>608.40</ele>
	<time>2024-03-25T06:57:05.000Z</time>
</trkpt>
<trkpt lat="45.8513840" lon="9.2907180">
	<ele>608.60</ele>
	<time>2024-03-25T06:57:06.000Z</time>
</trkpt>
<trkpt lat="45.8513880" lon="9.2907290">
	<ele>608.60</ele>
	<time>2024-03-25T06:57:07.000Z</time>
</trkpt>
<trkpt lat="45.8513930" lon="9.2907390">
	<ele>608.80</ele>
	<time>2024-03-25T06:57:08.000Z</time>
</trkpt>
<trkpt lat="45.8514020" lon="9.2907500">
	<ele>609.00</ele>
	<time>2024-03-25T06:57:09.000Z</time>
</trkpt>
<trkpt lat="45.8514070" lon="9.2907610">
	<ele>609.00</ele>
	<time>2024-03-25T06:57:10.000Z</time>
</trkpt>
<trkpt lat="45.8514120" lon="9.2907680">
	<ele>609.20</ele>
	<time>2024-03-25T06:57:11.000Z</time>
</trkpt>
<trkpt lat="45.8514200" lon="9.2907760">
	<ele>609.20</ele>
	<time>2024-03-25T06:57:12.000Z</time>
</trkpt>
<trkpt lat="45.8514300" lon="9.2907820">
	<ele>609.60</ele>
	<time>2024-03-25T06:57:13.000Z</time>
</trkpt>
<trkpt lat="45.8514370" lon="9.2907880">
	<ele>609.80</ele>
	<time>2024-03-25T06:57:14.000Z</time>
</trkpt>
<trkpt lat="45.8514420" lon="9.2907940">
	<ele>610.00</ele>
	<time>2024-03-25T06:57:15.000Z</time>
</trkpt>
<trkpt lat="45.8514460" lon="9.2908000">
	<ele>610.20</ele>
	<time>2024-03-25T06:57:16.000Z</time>
</trkpt>
<trkpt lat="45.8514490" lon="9.2908070">
	<ele>610.40</ele>
	<time>2024-03-25T06:57:17.000Z</time>
</trkpt>
<trkpt lat="45.8514540" lon="9.2908140">
	<ele>610.60</ele>
	<time>2024-03-25T06:57:18.000Z</time>
</trkpt>
<trkpt lat="45.8514600" lon="9.2908230">
	<ele>610.60</ele>
	<time>2024-03-25T06:57:19.000Z</time>
</trkpt>
<trkpt lat="45.8514730" lon="9.2908300">
	<ele>610.80</ele>
	<time>2024-03-25T06:57:20.000Z</time>
</trkpt>
<trkpt lat="45.8514790" lon="9.2908420">
	<ele>611.20</ele>
	<time>2024-03-25T06:57:21.000Z</time>
</trkpt>
<trkpt lat="45.8514820" lon="9.2908500">
	<ele>611.20</ele>
	<time>2024-03-25T06:57:22.000Z</time>
</trkpt>
<trkpt lat="45.8514850" lon="9.2908580">
	<ele>611.40</ele>
	<time>2024-03-25T06:57:23.000Z</time>
</trkpt>
<trkpt lat="45.8514910" lon="9.2908660">
	<ele>611.60</ele>
	<time>2024-03-25T06:57:24.000Z</time>
</trkpt>
<trkpt lat="45.8514960" lon="9.2908790">
	<ele>611.80</ele>
	<time>2024-03-25T06:57:25.000Z</time>
</trkpt>
<trkpt lat="45.8515000" lon="9.2908920">
	<ele>612.00</ele>
	<time>2024-03-25T06:57:26.000Z</time>
</trkpt>
<trkpt lat="45.8515080" lon="9.2908960">
	<ele>612.00</ele>
	<time>2024-03-25T06:57:27.000Z</time>
</trkpt>
<trkpt lat="45.8515170" lon="9.2909030">
	<ele>612.20</ele>
	<time>2024-03-25T06:57:28.000Z</time>
</trkpt>
<trkpt lat="45.8515260" lon="9.2909140">
	<ele>612.40</ele>
	<time>2024-03-25T06:57:29.000Z</time>
</trkpt>
<trkpt lat="45.8515340" lon="9.2909240">
	<ele>612.40</ele>
	<time>2024-03-25T06:57:30.000Z</time>
</trkpt>
<trkpt lat="45.8515370" lon="9.2909290">
	<ele>612.60</ele>
	<time>2024-03-25T06:57:31.000Z</time>
</trkpt>
<trkpt lat="45.8515360" lon="9.2909340">
	<ele>613.00</ele>
	<time>2024-03-25T06:57:32.000Z</time>
</trkpt>
<trkpt lat="45.8515360" lon="9.2909390">
	<ele>613.20</ele>
	<time>2024-03-25T06:57:33.000Z</time>
</trkpt>
<trkpt lat="45.8515420" lon="9.2909470">
	<ele>613.40</ele>
	<time>2024-03-25T06:57:34.000Z</time>
</trkpt>
<trkpt lat="45.8515470" lon="9.2909550">
	<ele>613.60</ele>
	<time>2024-03-25T06:57:35.000Z</time>
</trkpt>
<trkpt lat="45.8515510" lon="9.2909590">
	<ele>613.60</ele>
	<time>2024-03-25T06:57:36.000Z</time>
</trkpt>
<trkpt lat="45.8515560" lon="9.2909660">
	<ele>613.80</ele>
	<time>2024-03-25T06:57:37.000Z</time>
</trkpt>
<trkpt lat="45.8515640" lon="9.2909720">
	<ele>614.00</ele>
	<time>2024-03-25T06:57:38.000Z</time>
</trkpt>
<trkpt lat="45.8515720" lon="9.2909800">
	<ele>614.20</ele>
	<time>2024-03-25T06:57:39.000Z</time>
</trkpt>
<trkpt lat="45.8515820" lon="9.2910000">
	<ele>614.20</ele>
	<time>2024-03-25T06:57:40.000Z</time>
</trkpt>
<trkpt lat="45.8515940" lon="9.2910140">
	<ele>614.40</ele>
	<time>2024-03-25T06:57:41.000Z</time>
</trkpt>
<trkpt lat="45.8516070" lon="9.2910250">
	<ele>614.40</ele>
	<time>2024-03-25T06:57:42.000Z</time>
</trkpt>
<trkpt lat="45.8516190" lon="9.2910320">
	<ele>614.60</ele>
	<time>2024-03-25T06:57:43.000Z</time>
</trkpt>
<trkpt lat="45.8516330" lon="9.2910340">
	<ele>614.80</ele>
	<time>2024-03-25T06:57:44.000Z</time>
</trkpt>
<trkpt lat="45.8516410" lon="9.2910390">
	<ele>615.00</ele>
	<time>2024-03-25T06:57:45.000Z</time>
</trkpt>
<trkpt lat="45.8516470" lon="9.2910490">
	<ele>615.20</ele>
	<time>2024-03-25T06:57:46.000Z</time>
</trkpt>
<trkpt lat="45.8516520" lon="9.2910560">
	<ele>615.20</ele>
	<time>2024-03-25T06:57:47.000Z</time>
</trkpt>
<trkpt lat="45.8516570" lon="9.2910650">
	<ele>615.40</ele>
	<time>2024-03-25T06:57:48.000Z</time>
</trkpt>
<trkpt lat="45.8516600" lon="9.2910810">
	<ele>615.60</ele>
	<time>2024-03-25T06:57:49.000Z</time>
</trkpt>
<trkpt lat="45.8516650" lon="9.2910930">
	<ele>616.00</ele>
	<time>2024-03-25T06:57:50.000Z</time>
</trkpt>
<trkpt lat="45.8516690" lon="9.2911020">
	<ele>616.00</ele>
	<time>2024-03-25T06:57:51.000Z</time>
</trkpt>
<trkpt lat="45.8516750" lon="9.2911120">
	<ele>616.20</ele>
	<time>2024-03-25T06:57:52.000Z</time>
</trkpt>
<trkpt lat="45.8516870" lon="9.2911170">
	<ele>616.40</ele>
	<time>2024-03-25T06:57:53.000Z</time>
</trkpt>
<trkpt lat="45.8517010" lon="9.2911200">
	<ele>616.40</ele>
	<time>2024-03-25T06:57:54.000Z</time>
</trkpt>
<trkpt lat="45.8517120" lon="9.2911310">
	<ele>616.60</ele>
	<time>2024-03-25T06:57:55.000Z</time>
</trkpt>
<trkpt lat="45.8517200" lon="9.2911360">
	<ele>616.80</ele>
	<time>2024-03-25T06:57:56.000Z</time>
</trkpt>
<trkpt lat="45.8517530" lon="9.2911730">
	<ele>617.00</ele>
	<time>2024-03-25T06:57:57.000Z</time>
</trkpt>
<trkpt lat="45.8518050" lon="9.2911200">
	<ele>617.20</ele>
	<time>2024-03-25T06:57:58.000Z</time>
</trkpt>
<trkpt lat="45.8517630" lon="9.2911200">
	<ele>617.40</ele>
	<time>2024-03-25T06:57:59.000Z</time>
</trkpt>
<trkpt lat="45.8517590" lon="9.2911430">
	<ele>617.40</ele>
	<time>2024-03-25T06:58:00.000Z</time>
</trkpt>
<trkpt lat="45.8517630" lon="9.2911490">
	<ele>617.80</ele>
	<time>2024-03-25T06:58:01.000Z</time>
</trkpt>
<trkpt lat="45.8517710" lon="9.2911570">
	<ele>618.00</ele>
	<time>2024-03-25T06:58:02.000Z</time>
</trkpt>
<trkpt lat="45.8517940" lon="9.2911440">
	<ele>618.20</ele>
	<time>2024-03-25T06:58:03.000Z</time>
</trkpt>
<trkpt lat="45.8518060" lon="9.2911460">
	<ele>618.40</ele>
	<time>2024-03-25T06:58:04.000Z</time>
</trkpt>
<trkpt lat="45.8518120" lon="9.2911460">
	<ele>618.40</ele>
	<time>2024-03-25T06:58:05.000Z</time>
</trkpt>
<trkpt lat="45.8518180" lon="9.2911500">
	<ele>618.60</ele>
	<time>2024-03-25T06:58:06.000Z</time>
</trkpt>
<trkpt lat="45.8518220" lon="9.2911610">
	<ele>618.80</ele>
	<time>2024-03-25T06:58:07.000Z</time>
</trkpt>
<trkpt lat="45.8518300" lon="9.2911700">
	<ele>618.80</ele>
	<time>2024-03-25T06:58:08.000Z</time>
</trkpt>
<trkpt lat="45.8518400" lon="9.2911740">
	<ele>619.00</ele>
	<time>2024-03-25T06:58:09.000Z</time>
</trkpt>
<trkpt lat="45.8518490" lon="9.2911790">
	<ele>619.40</ele>
	<time>2024-03-25T06:58:10.000Z</time>
</trkpt>
<trkpt lat="45.8518580" lon="9.2911870">
	<ele>619.60</ele>
	<time>2024-03-25T06:58:11.000Z</time>
</trkpt>
<trkpt lat="45.8518650" lon="9.2911940">
	<ele>619.80</ele>
	<time>2024-03-25T06:58:12.000Z</time>
</trkpt>
<trkpt lat="45.8518740" lon="9.2911960">
	<ele>620.00</ele>
	<time>2024-03-25T06:58:13.000Z</time>
</trkpt>
<trkpt lat="45.8518820" lon="9.2912000">
	<ele>620.00</ele>
	<time>2024-03-25T06:58:14.000Z</time>
</trkpt>
<trkpt lat="45.8518920" lon="9.2912040">
	<ele>620.20</ele>
	<time>2024-03-25T06:58:15.000Z</time>
</trkpt>
<trkpt lat="45.8519020" lon="9.2912070">
	<ele>620.20</ele>
	<time>2024-03-25T06:58:16.000Z</time>
</trkpt>
<trkpt lat="45.8519110" lon="9.2912060">
	<ele>620.60</ele>
	<time>2024-03-25T06:58:17.000Z</time>
</trkpt>
<trkpt lat="45.8519190" lon="9.2912070">
	<ele>620.80</ele>
	<time>2024-03-25T06:58:18.000Z</time>
</trkpt>
<trkpt lat="45.8519270" lon="9.2912100">
	<ele>621.00</ele>
	<time>2024-03-25T06:58:19.000Z</time>
</trkpt>
<trkpt lat="45.8519360" lon="9.2912170">
	<ele>621.20</ele>
	<time>2024-03-25T06:58:20.000Z</time>
</trkpt>
<trkpt lat="45.8519420" lon="9.2912260">
	<ele>621.60</ele>
	<time>2024-03-25T06:58:21.000Z</time>
</trkpt>
<trkpt lat="45.8519450" lon="9.2912300">
	<ele>621.80</ele>
	<time>2024-03-25T06:58:22.000Z</time>
</trkpt>
<trkpt lat="45.8519500" lon="9.2912330">
	<ele>621.80</ele>
	<time>2024-03-25T06:58:23.000Z</time>
</trkpt>
<trkpt lat="45.8519590" lon="9.2912380">
	<ele>622.00</ele>
	<time>2024-03-25T06:58:24.000Z</time>
</trkpt>
<trkpt lat="45.8519660" lon="9.2912460">
	<ele>622.00</ele>
	<time>2024-03-25T06:58:25.000Z</time>
</trkpt>
<trkpt lat="45.8519730" lon="9.2912530">
	<ele>622.40</ele>
	<time>2024-03-25T06:58:26.000Z</time>
</trkpt>
<trkpt lat="45.8519810" lon="9.2912550">
	<ele>622.40</ele>
	<time>2024-03-25T06:58:27.000Z</time>
</trkpt>
<trkpt lat="45.8519870" lon="9.2912540">
	<ele>622.60</ele>
	<time>2024-03-25T06:58:28.000Z</time>
</trkpt>
<trkpt lat="45.8519940" lon="9.2912550">
	<ele>622.60</ele>
	<time>2024-03-25T06:58:29.000Z</time>
</trkpt>
<trkpt lat="45.8520010" lon="9.2912590">
	<ele>622.80</ele>
	<time>2024-03-25T06:58:30.000Z</time>
</trkpt>
<trkpt lat="45.8520070" lon="9.2912670">
	<ele>622.80</ele>
	<time>2024-03-25T06:58:31.000Z</time>
</trkpt>
<trkpt lat="45.8520140" lon="9.2912810">
	<ele>622.80</ele>
	<time>2024-03-25T06:58:32.000Z</time>
</trkpt>
<trkpt lat="45.8520210" lon="9.2912940">
	<ele>623.00</ele>
	<time>2024-03-25T06:58:33.000Z</time>
</trkpt>
<trkpt lat="45.8520240" lon="9.2913030">
	<ele>623.20</ele>
	<time>2024-03-25T06:58:34.000Z</time>
</trkpt>
<trkpt lat="45.8520200" lon="9.2913080">
	<ele>623.20</ele>
	<time>2024-03-25T06:58:35.000Z</time>
</trkpt>
<trkpt lat="45.8520190" lon="9.2913200">
	<ele>623.40</ele>
	<time>2024-03-25T06:58:36.000Z</time>
</trkpt>
<trkpt lat="45.8520180" lon="9.2913330">
	<ele>623.40</ele>
	<time>2024-03-25T06:58:37.000Z</time>
</trkpt>
<trkpt lat="45.8520140" lon="9.2913410">
	<ele>623.40</ele>
	<time>2024-03-25T06:58:38.000Z</time>
</trkpt>
<trkpt lat="45.8520090" lon="9.2913480">
	<ele>623.60</ele>
	<time>2024-03-25T06:58:39.000Z</time>
</trkpt>
<trkpt lat="45.8520010" lon="9.2913480">
	<ele>623.80</ele>
	<time>2024-03-25T06:58:40.000Z</time>
</trkpt>
<trkpt lat="45.8519920" lon="9.2913450">
	<ele>624.00</ele>
	<time>2024-03-25T06:58:41.000Z</time>
</trkpt>
<trkpt lat="45.8519840" lon="9.2913450">
	<ele>624.00</ele>
	<time>2024-03-25T06:58:42.000Z</time>
</trkpt>
<trkpt lat="45.8519770" lon="9.2913440">
	<ele>624.00</ele>
	<time>2024-03-25T06:58:43.000Z</time>
</trkpt>
<trkpt lat="45.8519700" lon="9.2913420">
	<ele>624.20</ele>
	<time>2024-03-25T06:58:44.000Z</time>
</trkpt>
<trkpt lat="45.8519630" lon="9.2913410">
	<ele>624.20</ele>
	<time>2024-03-25T06:58:45.000Z</time>
</trkpt>
<trkpt lat="45.8519600" lon="9.2913400">
	<ele>624.20</ele>
	<time>2024-03-25T06:58:46.000Z</time>
</trkpt>
<trkpt lat="45.8519520" lon="9.2913380">
	<ele>624.20</ele>
	<time>2024-03-25T06:58:47.000Z</time>
</trkpt>
<trkpt lat="45.8519450" lon="9.2913400">
	<ele>624.40</ele>
	<time>2024-03-25T06:58:48.000Z</time>
</trkpt>
<trkpt lat="45.8519350" lon="9.2913430">
	<ele>624.40</ele>
	<time>2024-03-25T06:58:49.000Z</time>
</trkpt>
<trkpt lat="45.8519250" lon="9.2913390">
	<ele>624.60</ele>
	<time>2024-03-25T06:58:50.000Z</time>
</trkpt>
<trkpt lat="45.8519170" lon="9.2913370">
	<ele>624.80</ele>
	<time>2024-03-25T06:58:51.000Z</time>
</trkpt>
<trkpt lat="45.8519070" lon="9.2913400">
	<ele>625.00</ele>
	<time>2024-03-25T06:58:52.000Z</time>
</trkpt>
<trkpt lat="45.8519030" lon="9.2913460">
	<ele>625.00</ele>
	<time>2024-03-25T06:58:53.000Z</time>
</trkpt>
<trkpt lat="45.8518980" lon="9.2913580">
	<ele>625.20</ele>
	<time>2024-03-25T06:58:54.000Z</time>
</trkpt>
<trkpt lat="45.8518930" lon="9.2913680">
	<ele>625.40</ele>
	<time>2024-03-25T06:58:55.000Z</time>
</trkpt>
<trkpt lat="45.8518860" lon="9.2913660">
	<ele>625.40</ele>
	<time>2024-03-25T06:58:56.000Z</time>
</trkpt>
<trkpt lat="45.8518780" lon="9.2913690">
	<ele>625.60</ele>
	<time>2024-03-25T06:58:57.000Z</time>
</trkpt>
<trkpt lat="45.8518690" lon="9.2913740">
	<ele>625.80</ele>
	<time>2024-03-25T06:58:58.000Z</time>
</trkpt>
<trkpt lat="45.8518610" lon="9.2913740">
	<ele>626.00</ele>
	<time>2024-03-25T06:58:59.000Z</time>
</trkpt>
<trkpt lat="45.8518550" lon="9.2913760">
	<ele>626.00</ele>
	<time>2024-03-25T06:59:00.000Z</time>
</trkpt>
<trkpt lat="45.8518470" lon="9.2913760">
	<ele>626.20</ele>
	<time>2024-03-25T06:59:01.000Z</time>
</trkpt>
<trkpt lat="45.8518380" lon="9.2913790">
	<ele>626.20</ele>
	<time>2024-03-25T06:59:02.000Z</time>
</trkpt>
<trkpt lat="45.8518270" lon="9.2913790">
	<ele>626.40</ele>
	<time>2024-03-25T06:59:03.000Z</time>
</trkpt>
<trkpt lat="45.8518180" lon="9.2913880">
	<ele>626.40</ele>
	<time>2024-03-25T06:59:04.000Z</time>
</trkpt>
<trkpt lat="45.8518100" lon="9.2913950">
	<ele>626.60</ele>
	<time>2024-03-25T06:59:05.000Z</time>
</trkpt>
<trkpt lat="45.8518030" lon="9.2914010">
	<ele>626.80</ele>
	<time>2024-03-25T06:59:06.000Z</time>
</trkpt>
<trkpt lat="45.8517960" lon="9.2914050">
	<ele>627.00</ele>
	<time>2024-03-25T06:59:07.000Z</time>
</trkpt>
<trkpt lat="45.8517880" lon="9.2914100">
	<ele>627.00</ele>
	<time>2024-03-25T06:59:08.000Z</time>
</trkpt>
<trkpt lat="45.8517800" lon="9.2914180">
	<ele>627.20</ele>
	<time>2024-03-25T06:59:09.000Z</time>
</trkpt>
<trkpt lat="45.8517700" lon="9.2914270">
	<ele>627.40</ele>
	<time>2024-03-25T06:59:10.000Z</time>
</trkpt>
<trkpt lat="45.8517590" lon="9.2914340">
	<ele>627.60</ele>
	<time>2024-03-25T06:59:11.000Z</time>
</trkpt>
<trkpt lat="45.8517480" lon="9.2914370">
	<ele>627.80</ele>
	<time>2024-03-25T06:59:12.000Z</time>
</trkpt>
<trkpt lat="45.8517390" lon="9.2914420">
	<ele>627.80</ele>
	<time>2024-03-25T06:59:13.000Z</time>
</trkpt>
<trkpt lat="45.8517290" lon="9.2914470">
	<ele>627.80</ele>
	<time>2024-03-25T06:59:14.000Z</time>
</trkpt>
<trkpt lat="45.8517190" lon="9.2914540">
	<ele>628.20</ele>
	<time>2024-03-25T06:59:15.000Z</time>
</trkpt>
<trkpt lat="45.8517100" lon="9.2914590">
	<ele>628.40</ele>
	<time>2024-03-25T06:59:16.000Z</time>
</trkpt>
<trkpt lat="45.8517020" lon="9.2914600">
	<ele>628.80</ele>
	<time>2024-03-25T06:59:17.000Z</time>
</trkpt>
<trkpt lat="45.8516960" lon="9.2914630">
	<ele>628.80</ele>
	<time>2024-03-25T06:59:18.000Z</time>
</trkpt>
<trkpt lat="45.8516890" lon="9.2914570">
	<ele>629.00</ele>
	<time>2024-03-25T06:59:19.000Z</time>
</trkpt>
<trkpt lat="45.8516820" lon="9.2914500">
	<ele>629.00</ele>
	<time>2024-03-25T06:59:20.000Z</time>
</trkpt>
<trkpt lat="45.8516730" lon="9.2914460">
	<ele>629.20</ele>
	<time>2024-03-25T06:59:21.000Z</time>
</trkpt>
<trkpt lat="45.8516660" lon="9.2914440">
	<ele>629.20</ele>
	<time>2024-03-25T06:59:22.000Z</time>
</trkpt>
<trkpt lat="45.8516590" lon="9.2914460">
	<ele>629.40</ele>
	<time>2024-03-25T06:59:23.000Z</time>
</trkpt>
<trkpt lat="45.8516550" lon="9.2914540">
	<ele>629.60</ele>
	<time>2024-03-25T06:59:24.000Z</time>
</trkpt>
<trkpt lat="45.8516520" lon="9.2914630">
	<ele>629.80</ele>
	<time>2024-03-25T06:59:25.000Z</time>
</trkpt>
<trkpt lat="45.8516470" lon="9.2914700">
	<ele>629.80</ele>
	<time>2024-03-25T06:59:26.000Z</time>
</trkpt>
<trkpt lat="45.8516450" lon="9.2914850">
	<ele>630.00</ele>
	<time>2024-03-25T06:59:27.000Z</time>
</trkpt>
<trkpt lat="45.8516400" lon="9.2915000">
	<ele>630.00</ele>
	<time>2024-03-25T06:59:28.000Z</time>
</trkpt>
<trkpt lat="45.8516280" lon="9.2914950">
	<ele>630.20</ele>
	<time>2024-03-25T06:59:29.000Z</time>
</trkpt>
<trkpt lat="45.8516220" lon="9.2914930">
	<ele>630.40</ele>
	<time>2024-03-25T06:59:30.000Z</time>
</trkpt>
<trkpt lat="45.8516160" lon="9.2914940">
	<ele>630.60</ele>
	<time>2024-03-25T06:59:31.000Z</time>
</trkpt>
<trkpt lat="45.8516110" lon="9.2914940">
	<ele>630.80</ele>
	<time>2024-03-25T06:59:32.000Z</time>
</trkpt>
<trkpt lat="45.8516040" lon="9.2914940">
	<ele>630.80</ele>
	<time>2024-03-25T06:59:33.000Z</time>
</trkpt>
<trkpt lat="45.8515930" lon="9.2914880">
	<ele>631.00</ele>
	<time>2024-03-25T06:59:34.000Z</time>
</trkpt>
<trkpt lat="45.8515840" lon="9.2914870">
	<ele>631.00</ele>
	<time>2024-03-25T06:59:35.000Z</time>
</trkpt>
<trkpt lat="45.8515720" lon="9.2914870">
	<ele>631.20</ele>
	<time>2024-03-25T06:59:36.000Z</time>
</trkpt>
<trkpt lat="45.8515610" lon="9.2914940">
	<ele>631.20</ele>
	<time>2024-03-25T06:59:37.000Z</time>
</trkpt>
<trkpt lat="45.8515570" lon="9.2914950">
	<ele>631.60</ele>
	<time>2024-03-25T06:59:38.000Z</time>
</trkpt>
<trkpt lat="45.8515540" lon="9.2915000">
	<ele>631.80</ele>
	<time>2024-03-25T06:59:39.000Z</time>
</trkpt>
<trkpt lat="45.8515460" lon="9.2915000">
	<ele>632.00</ele>
	<time>2024-03-25T06:59:40.000Z</time>
</trkpt>
<trkpt lat="45.8515420" lon="9.2915060">
	<ele>632.20</ele>
	<time>2024-03-25T06:59:41.000Z</time>
</trkpt>
<trkpt lat="45.8515350" lon="9.2915060">
	<ele>632.40</ele>
	<time>2024-03-25T06:59:42.000Z</time>
</trkpt>
<trkpt lat="45.8515280" lon="9.2915070">
	<ele>632.40</ele>
	<time>2024-03-25T06:59:43.000Z</time>
</trkpt>
<trkpt lat="45.8515200" lon="9.2915030">
	<ele>632.60</ele>
	<time>2024-03-25T06:59:44.000Z</time>
</trkpt>
<trkpt lat="45.8515100" lon="9.2915020">
	<ele>632.60</ele>
	<time>2024-03-25T06:59:45.000Z</time>
</trkpt>
<trkpt lat="45.8514980" lon="9.2915000">
	<ele>633.00</ele>
	<time>2024-03-25T06:59:46.000Z</time>
</trkpt>
<trkpt lat="45.8514890" lon="9.2915070">
	<ele>633.20</ele>
	<time>2024-03-25T06:59:47.000Z</time>
</trkpt>
<trkpt lat="45.8514780" lon="9.2915090">
	<ele>633.40</ele>
	<time>2024-03-25T06:59:48.000Z</time>
</trkpt>
<trkpt lat="45.8514600" lon="9.2915220">
	<ele>633.60</ele>
	<time>2024-03-25T06:59:49.000Z</time>
</trkpt>
<trkpt lat="45.8514490" lon="9.2915320">
	<ele>633.60</ele>
	<time>2024-03-25T06:59:50.000Z</time>
</trkpt>
<trkpt lat="45.8514390" lon="9.2915420">
	<ele>633.80</ele>
	<time>2024-03-25T06:59:51.000Z</time>
</trkpt>
<trkpt lat="45.8514300" lon="9.2915550">
	<ele>634.20</ele>
	<time>2024-03-25T06:59:52.000Z</time>
</trkpt>
<trkpt lat="45.8514170" lon="9.2915670">
	<ele>634.40</ele>
	<time>2024-03-25T06:59:53.000Z</time>
</trkpt>
<trkpt lat="45.8514100" lon="9.2915690">
	<ele>634.60</ele>
	<time>2024-03-25T06:59:54.000Z</time>
</trkpt>
<trkpt lat="45.8513930" lon="9.2915680">
	<ele>634.80</ele>
	<time>2024-03-25T06:59:55.000Z</time>
</trkpt>
<trkpt lat="45.8513770" lon="9.2915600">
	<ele>635.00</ele>
	<time>2024-03-25T06:59:56.000Z</time>
</trkpt>
<trkpt lat="45.8513610" lon="9.2915500">
	<ele>635.00</ele>
	<time>2024-03-25T06:59:57.000Z</time>
</trkpt>
<trkpt lat="45.8513500" lon="9.2915520">
	<ele>635.20</ele>
	<time>2024-03-25T06:59:58.000Z</time>
</trkpt>
<trkpt lat="45.8513370" lon="9.2915610">
	<ele>635.40</ele>
	<time>2024-03-25T06:59:59.000Z</time>
</trkpt>
<trkpt lat="45.8513260" lon="9.2915740">
	<ele>635.60</ele>
	<time>2024-03-25T07:00:00.000Z</time>
</trkpt>
<trkpt lat="45.8513150" lon="9.2915870">
	<ele>635.80</ele>
	<time>2024-03-25T07:00:01.000Z</time>
</trkpt>
<trkpt lat="45.8513070" lon="9.2915950">
	<ele>635.80</ele>
	<time>2024-03-25T07:00:02.000Z</time>
</trkpt>
<trkpt lat="45.8513010" lon="9.2916050">
	<ele>636.00</ele>
	<time>2024-03-25T07:00:03.000Z</time>
</trkpt>
<trkpt lat="45.8512940" lon="9.2916180">
	<ele>636.20</ele>
	<time>2024-03-25T07:00:04.000Z</time>
</trkpt>
<trkpt lat="45.8512840" lon="9.2916290">
	<ele>636.20</ele>
	<time>2024-03-25T07:00:05.000Z</time>
</trkpt>
<trkpt lat="45.8512750" lon="9.2916370">
	<ele>636.60</ele>
	<time>2024-03-25T07:00:06.000Z</time>
</trkpt>
<trkpt lat="45.8512660" lon="9.2916410">
	<ele>636.80</ele>
	<time>2024-03-25T07:00:07.000Z</time>
</trkpt>
<trkpt lat="45.8512610" lon="9.2916430">
	<ele>637.00</ele>
	<time>2024-03-25T07:00:08.000Z</time>
</trkpt>
<trkpt lat="45.8512530" lon="9.2916410">
	<ele>637.40</ele>
	<time>2024-03-25T07:00:09.000Z</time>
</trkpt>
<trkpt lat="45.8512460" lon="9.2916390">
	<ele>637.60</ele>
	<time>2024-03-25T07:00:10.000Z</time>
</trkpt>
<trkpt lat="45.8512420" lon="9.2916400">
	<ele>637.80</ele>
	<time>2024-03-25T07:00:11.000Z</time>
</trkpt>
<trkpt lat="45.8512330" lon="9.2916420">
	<ele>638.00</ele>
	<time>2024-03-25T07:00:12.000Z</time>
</trkpt>
<trkpt lat="45.8512260" lon="9.2916420">
	<ele>638.20</ele>
	<time>2024-03-25T07:00:13.000Z</time>
</trkpt>
<trkpt lat="45.8512210" lon="9.2916380">
	<ele>638.40</ele>
	<time>2024-03-25T07:00:14.000Z</time>
</trkpt>
<trkpt lat="45.8512170" lon="9.2916330">
	<ele>638.60</ele>
	<time>2024-03-25T07:00:15.000Z</time>
</trkpt>
<trkpt lat="45.8512070" lon="9.2916250">
	<ele>638.60</ele>
	<time>2024-03-25T07:00:16.000Z</time>
</trkpt>
<trkpt lat="45.8511990" lon="9.2916190">
	<ele>638.60</ele>
	<time>2024-03-25T07:00:17.000Z</time>
</trkpt>
<trkpt lat="45.8511930" lon="9.2916180">
	<ele>638.80</ele>
	<time>2024-03-25T07:00:18.000Z</time>
</trkpt>
<trkpt lat="45.8511890" lon="9.2916180">
	<ele>638.80</ele>
	<time>2024-03-25T07:00:19.000Z</time>
</trkpt>
<trkpt lat="45.8511830" lon="9.2916200">
	<ele>638.80</ele>
	<time>2024-03-25T07:00:20.000Z</time>
</trkpt>
<trkpt lat="45.8511740" lon="9.2916170">
	<ele>639.00</ele>
	<time>2024-03-25T07:00:21.000Z</time>
</trkpt>
<trkpt lat="45.8511630" lon="9.2916200">
	<ele>639.20</ele>
	<time>2024-03-25T07:00:22.000Z</time>
</trkpt>
<trkpt lat="45.8511530" lon="9.2916190">
	<ele>639.20</ele>
	<time>2024-03-25T07:00:23.000Z</time>
</trkpt>
<trkpt lat="45.8511450" lon="9.2916200">
	<ele>639.40</ele>
	<time>2024-03-25T07:00:24.000Z</time>
</trkpt>
<trkpt lat="45.8511390" lon="9.2916220">
	<ele>639.60</ele>
	<time>2024-03-25T07:00:25.000Z</time>
</trkpt>
<trkpt lat="45.8511320" lon="9.2916190">
	<ele>639.60</ele>
	<time>2024-03-25T07:00:26.000Z</time>
</trkpt>
<trkpt lat="45.8511320" lon="9.2916140">
	<ele>639.60</ele>
	<time>2024-03-25T07:00:27.000Z</time>
</trkpt>
<trkpt lat="45.8511260" lon="9.2916070">
	<ele>639.80</ele>
	<time>2024-03-25T07:00:28.000Z</time>
</trkpt>
<trkpt lat="45.8511220" lon="9.2916020">
	<ele>639.80</ele>
	<time>2024-03-25T07:00:29.000Z</time>
</trkpt>
<trkpt lat="45.8511170" lon="9.2915930">
	<ele>640.00</ele>
	<time>2024-03-25T07:00:30.000Z</time>
</trkpt>
<trkpt lat="45.8511080" lon="9.2915880">
	<ele>640.20</ele>
	<time>2024-03-25T07:00:31.000Z</time>
</trkpt>
<trkpt lat="45.8511000" lon="9.2915840">
	<ele>640.60</ele>
	<time>2024-03-25T07:00:32.000Z</time>
</trkpt>
<trkpt lat="45.8510930" lon="9.2915760">
	<ele>640.80</ele>
	<time>2024-03-25T07:00:33.000Z</time>
</trkpt>
<trkpt lat="45.8510880" lon="9.2915750">
	<ele>640.80</ele>
	<time>2024-03-25T07:00:34.000Z</time>
</trkpt>
<trkpt lat="45.8510860" lon="9.2915820">
	<ele>641.00</ele>
	<time>2024-03-25T07:00:35.000Z</time>
</trkpt>
<trkpt lat="45.8510820" lon="9.2915900">
	<ele>641.20</ele>
	<time>2024-03-25T07:00:36.000Z</time>
</trkpt>
<trkpt lat="45.8510780" lon="9.2915950">
	<ele>641.40</ele>
	<time>2024-03-25T07:00:37.000Z</time>
</trkpt>
<trkpt lat="45.8510750" lon="9.2916040">
	<ele>641.60</ele>
	<time>2024-03-25T07:00:38.000Z</time>
</trkpt>
<trkpt lat="45.8510730" lon="9.2916220">
	<ele>641.60</ele>
	<time>2024-03-25T07:00:39.000Z</time>
</trkpt>
<trkpt lat="45.8510780" lon="9.2916370">
	<ele>641.60</ele>
	<time>2024-03-25T07:00:40.000Z</time>
</trkpt>
<trkpt lat="45.8510810" lon="9.2916570">
	<ele>641.80</ele>
	<time>2024-03-25T07:00:41.000Z</time>
</trkpt>
<trkpt lat="45.8510830" lon="9.2916780">
	<ele>641.80</ele>
	<time>2024-03-25T07:00:42.000Z</time>
</trkpt>
<trkpt lat="45.8510880" lon="9.2916960">
	<ele>641.80</ele>
	<time>2024-03-25T07:00:43.000Z</time>
</trkpt>
<trkpt lat="45.8510910" lon="9.2917120">
	<ele>641.80</ele>
	<time>2024-03-25T07:00:44.000Z</time>
</trkpt>
<trkpt lat="45.8510980" lon="9.2917270">
	<ele>641.80</ele>
	<time>2024-03-25T07:00:45.000Z</time>
</trkpt>
<trkpt lat="45.8511050" lon="9.2917360">
	<ele>641.80</ele>
	<time>2024-03-25T07:00:46.000Z</time>
</trkpt>
<trkpt lat="45.8511140" lon="9.2917410">
	<ele>642.00</ele>
	<time>2024-03-25T07:00:47.000Z</time>
</trkpt>
<trkpt lat="45.8511220" lon="9.2917470">
	<ele>642.00</ele>
	<time>2024-03-25T07:00:48.000Z</time>
</trkpt>
<trkpt lat="45.8511290" lon="9.2917540">
	<ele>642.20</ele>
	<time>2024-03-25T07:00:49.000Z</time>
</trkpt>
<trkpt lat="45.8511290" lon="9.2917680">
	<ele>642.40</ele>
	<time>2024-03-25T07:00:50.000Z</time>
</trkpt>
<trkpt lat="45.8511320" lon="9.2917790">
	<ele>642.40</ele>
	<time>2024-03-25T07:00:51.000Z</time>
</trkpt>
<trkpt lat="45.8511290" lon="9.2917910">
	<ele>642.60</ele>
	<time>2024-03-25T07:00:52.000Z</time>
</trkpt>
<trkpt lat="45.8511210" lon="9.2918040">
	<ele>642.60</ele>
	<time>2024-03-25T07:00:53.000Z</time>
</trkpt>
<trkpt lat="45.8511150" lon="9.2918160">
	<ele>643.00</ele>
	<time>2024-03-25T07:00:54.000Z</time>
</trkpt>
<trkpt lat="45.8511160" lon="9.2918270">
	<ele>643.00</ele>
	<time>2024-03-25T07:00:55.000Z</time>
</trkpt>
<trkpt lat="45.8511200" lon="9.2918330">
	<ele>643.20</ele>
	<time>2024-03-25T07:00:56.000Z</time>
</trkpt>
<trkpt lat="45.8511210" lon="9.2918370">
	<ele>643.20</ele>
	<time>2024-03-25T07:00:57.000Z</time>
</trkpt>
<trkpt lat="45.8511240" lon="9.2918470">
	<ele>643.60</ele>
	<time>2024-03-25T07:00:58.000Z</time>
</trkpt>
<trkpt lat="45.8511290" lon="9.2918560">
	<ele>643.80</ele>
	<time>2024-03-25T07:00:59.000Z</time>
</trkpt>
<trkpt lat="45.8511340" lon="9.2918620">
	<ele>643.80</ele>
	<time>2024-03-25T07:01:00.000Z</time>
</trkpt>
<trkpt lat="45.8511380" lon="9.2918720">
	<ele>644.20</ele>
	<time>2024-03-25T07:01:01.000Z</time>
</trkpt>
<trkpt lat="45.8511430" lon="9.2918840">
	<ele>644.40</ele>
	<time>2024-03-25T07:01:02.000Z</time>
</trkpt>
<trkpt lat="45.8511480" lon="9.2918910">
	<ele>644.60</ele>
	<time>2024-03-25T07:01:03.000Z</time>
</trkpt>
<trkpt lat="45.8511520" lon="9.2919000">
	<ele>644.80</ele>
	<time>2024-03-25T07:01:04.000Z</time>
</trkpt>
<trkpt lat="45.8511560" lon="9.2919110">
	<ele>644.80</ele>
	<time>2024-03-25T07:01:05.000Z</time>
</trkpt>
<trkpt lat="45.8511590" lon="9.2919230">
	<ele>645.00</ele>
	<time>2024-03-25T07:01:06.000Z</time>
</trkpt>
<trkpt lat="45.8511610" lon="9.2919350">
	<ele>645.20</ele>
	<time>2024-03-25T07:01:07.000Z</time>
</trkpt>
<trkpt lat="45.8511630" lon="9.2919420">
	<ele>645.20</ele>
	<time>2024-03-25T07:01:08.000Z</time>
</trkpt>
<trkpt lat="45.8511620" lon="9.2919520">
	<ele>645.20</ele>
	<time>2024-03-25T07:01:09.000Z</time>
</trkpt>
<trkpt lat="45.8511630" lon="9.2919570">
	<ele>645.40</ele>
	<time>2024-03-25T07:01:10.000Z</time>
</trkpt>
<trkpt lat="45.8511630" lon="9.2919700">
	<ele>645.60</ele>
	<time>2024-03-25T07:01:11.000Z</time>
</trkpt>
<trkpt lat="45.8511650" lon="9.2919870">
	<ele>645.60</ele>
	<time>2024-03-25T07:01:12.000Z</time>
</trkpt>
<trkpt lat="45.8511690" lon="9.2920000">
	<ele>645.80</ele>
	<time>2024-03-25T07:01:13.000Z</time>
</trkpt>
<trkpt lat="45.8511730" lon="9.2920100">
	<ele>646.00</ele>
	<time>2024-03-25T07:01:14.000Z</time>
</trkpt>
<trkpt lat="45.8511770" lon="9.2920180">
	<ele>646.00</ele>
	<time>2024-03-25T07:01:15.000Z</time>
</trkpt>
<trkpt lat="45.8511820" lon="9.2920250">
	<ele>646.60</ele>
	<time>2024-03-25T07:01:16.000Z</time>
</trkpt>
<trkpt lat="45.8511860" lon="9.2920350">
	<ele>647.00</ele>
	<time>2024-03-25T07:01:17.000Z</time>
</trkpt>
<trkpt lat="45.8511850" lon="9.2920610">
	<ele>647.40</ele>
	<time>2024-03-25T07:01:18.000Z</time>
</trkpt>
<trkpt lat="45.8511820" lon="9.2920750">
	<ele>647.60</ele>
	<time>2024-03-25T07:01:19.000Z</time>
</trkpt>
<trkpt lat="45.8511860" lon="9.2920940">
	<ele>647.60</ele>
	<time>2024-03-25T07:01:20.000Z</time>
</trkpt>
<trkpt lat="45.8511860" lon="9.2921140">
	<ele>647.60</ele>
	<time>2024-03-25T07:01:21.000Z</time>
</trkpt>
<trkpt lat="45.8511850" lon="9.2921290">
	<ele>647.80</ele>
	<time>2024-03-25T07:01:22.000Z</time>
</trkpt>
<trkpt lat="45.8511870" lon="9.2921470">
	<ele>647.80</ele>
	<time>2024-03-25T07:01:23.000Z</time>
</trkpt>
<trkpt lat="45.8511930" lon="9.2921590">
	<ele>648.00</ele>
	<time>2024-03-25T07:01:24.000Z</time>
</trkpt>
<trkpt lat="45.8511980" lon="9.2921730">
	<ele>648.00</ele>
	<time>2024-03-25T07:01:25.000Z</time>
</trkpt>
<trkpt lat="45.8512010" lon="9.2921840">
	<ele>648.00</ele>
	<time>2024-03-25T07:01:26.000Z</time>
</trkpt>
<trkpt lat="45.8512070" lon="9.2921890">
	<ele>648.20</ele>
	<time>2024-03-25T07:01:27.000Z</time>
</trkpt>
<trkpt lat="45.8512140" lon="9.2921960">
	<ele>648.40</ele>
	<time>2024-03-25T07:01:28.000Z</time>
</trkpt>
<trkpt lat="45.8512220" lon="9.2922010">
	<ele>648.60</ele>
	<time>2024-03-25T07:01:29.000Z</time>
</trkpt>
<trkpt lat="45.8512270" lon="9.2922100">
	<ele>648.80</ele>
	<time>2024-03-25T07:01:30.000Z</time>
</trkpt>
<trkpt lat="45.8512290" lon="9.2922210">
	<ele>649.00</ele>
	<time>2024-03-25T07:01:31.000Z</time>
</trkpt>
<trkpt lat="45.8512300" lon="9.2922340">
	<ele>649.00</ele>
	<time>2024-03-25T07:01:32.000Z</time>
</trkpt>
<trkpt lat="45.8512310" lon="9.2922520">
	<ele>649.20</ele>
	<time>2024-03-25T07:01:33.000Z</time>
</trkpt>
<trkpt lat="45.8512320" lon="9.2922660">
	<ele>649.40</ele>
	<time>2024-03-25T07:01:34.000Z</time>
</trkpt>
<trkpt lat="45.8512390" lon="9.2922750">
	<ele>649.60</ele>
	<time>2024-03-25T07:01:35.000Z</time>
</trkpt>
<trkpt lat="45.8512490" lon="9.2922820">
	<ele>649.80</ele>
	<time>2024-03-25T07:01:36.000Z</time>
</trkpt>
<trkpt lat="45.8512580" lon="9.2922890">
	<ele>650.00</ele>
	<time>2024-03-25T07:01:37.000Z</time>
</trkpt>
<trkpt lat="45.8512640" lon="9.2922930">
	<ele>650.00</ele>
	<time>2024-03-25T07:01:38.000Z</time>
</trkpt>
<trkpt lat="45.8512700" lon="9.2922910">
	<ele>650.20</ele>
	<time>2024-03-25T07:01:39.000Z</time>
</trkpt>
<trkpt lat="45.8512730" lon="9.2922960">
	<ele>650.20</ele>
	<time>2024-03-25T07:01:40.000Z</time>
</trkpt>
<trkpt lat="45.8512760" lon="9.2923020">
	<ele>650.40</ele>
	<time>2024-03-25T07:01:41.000Z</time>
</trkpt>
<trkpt lat="45.8512820" lon="9.2923080">
	<ele>650.60</ele>
	<time>2024-03-25T07:01:42.000Z</time>
</trkpt>
<trkpt lat="45.8512890" lon="9.2923120">
	<ele>650.60</ele>
	<time>2024-03-25T07:01:43.000Z</time>
</trkpt>
<trkpt lat="45.8512950" lon="9.2923180">
	<ele>650.80</ele>
	<time>2024-03-25T07:01:44.000Z</time>
</trkpt>
<trkpt lat="45.8512990" lon="9.2923280">
	<ele>651.00</ele>
	<time>2024-03-25T07:01:45.000Z</time>
</trkpt>
<trkpt lat="45.8513040" lon="9.2923380">
	<ele>651.00</ele>
	<time>2024-03-25T07:01:46.000Z</time>
</trkpt>
<trkpt lat="45.8513110" lon="9.2923470">
	<ele>651.20</ele>
	<time>2024-03-25T07:01:47.000Z</time>
</trkpt>
<trkpt lat="45.8513150" lon="9.2923550">
	<ele>651.20</ele>
	<time>2024-03-25T07:01:48.000Z</time>
</trkpt>
<trkpt lat="45.8513180" lon="9.2923690">
	<ele>651.40</ele>
	<time>2024-03-25T07:01:49.000Z</time>
</trkpt>
<trkpt lat="45.8513210" lon="9.2923830">
	<ele>651.60</ele>
	<time>2024-03-25T07:01:50.000Z</time>
</trkpt>
<trkpt lat="45.8513230" lon="9.2923990">
	<ele>651.80</ele>
	<time>2024-03-25T07:01:51.000Z</time>
</trkpt>
<trkpt lat="45.8513250" lon="9.2924060">
	<ele>651.80</ele>
	<time>2024-03-25T07:01:52.000Z</time>
</trkpt>
<trkpt lat="45.8513240" lon="9.2924220">
	<ele>652.00</ele>
	<time>2024-03-25T07:01:53.000Z</time>
</trkpt>
<trkpt lat="45.8513270" lon="9.2924340">
	<ele>652.20</ele>
	<time>2024-03-25T07:01:54.000Z</time>
</trkpt>
<trkpt lat="45.8513330" lon="9.2924460">
	<ele>652.40</ele>
	<time>2024-03-25T07:01:55.000Z</time>
</trkpt>
<trkpt lat="45.8513390" lon="9.2924540">
	<ele>652.80</ele>
	<time>2024-03-25T07:01:56.000Z</time>
</trkpt>
<trkpt lat="45.8513450" lon="9.2924580">
	<ele>652.80</ele>
	<time>2024-03-25T07:01:57.000Z</time>
</trkpt>
<trkpt lat="45.8513540" lon="9.2924600">
	<ele>653.00</ele>
	<time>2024-03-25T07:01:58.000Z</time>
</trkpt>
<trkpt lat="45.8513600" lon="9.2924650">
	<ele>653.20</ele>
	<time>2024-03-25T07:01:59.000Z</time>
</trkpt>
<trkpt lat="45.8513670" lon="9.2924720">
	<ele>653.40</ele>
	<time>2024-03-25T07:02:00.000Z</time>
</trkpt>
<trkpt lat="45.8513740" lon="9.2924820">
	<ele>653.60</ele>
	<time>2024-03-25T07:02:01.000Z</time>
</trkpt>
<trkpt lat="45.8513800" lon="9.2924910">
	<ele>653.60</ele>
	<time>2024-03-25T07:02:02.000Z</time>
</trkpt>
<trkpt lat="45.8513860" lon="9.2925020">
	<ele>653.80</ele>
	<time>2024-03-25T07:02:03.000Z</time>
</trkpt>
<trkpt lat="45.8513930" lon="9.2925130">
	<ele>654.00</ele>
	<time>2024-03-25T07:02:04.000Z</time>
</trkpt>
<trkpt lat="45.8513970" lon="9.2925210">
	<ele>654.20</ele>
	<time>2024-03-25T07:02:05.000Z</time>
</trkpt>
<trkpt lat="45.8514020" lon="9.2925370">
	<ele>654.20</ele>
	<time>2024-03-25T07:02:06.000Z</time>
</trkpt>
<trkpt lat="45.8514010" lon="9.2925550">
	<ele>654.40</ele>
	<time>2024-03-25T07:02:07.000Z</time>
</trkpt>
<trkpt lat="45.8514040" lon="9.2925630">
	<ele>654.60</ele>
	<time>2024-03-25T07:02:08.000Z</time>
</trkpt>
<trkpt lat="45.8514100" lon="9.2925650">
	<ele>654.60</ele>
	<time>2024-03-25T07:02:09.000Z</time>
</trkpt>
<trkpt lat="45.8514170" lon="9.2925660">
	<ele>654.60</ele>
	<time>2024-03-25T07:02:10.000Z</time>
</trkpt>
<trkpt lat="45.8514250" lon="9.2925670">
	<ele>654.60</ele>
	<time>2024-03-25T07:02:11.000Z</time>
</trkpt>
<trkpt lat="45.8514310" lon="9.2925680">
	<ele>654.60</ele>
	<time>2024-03-25T07:02:12.000Z</time>
</trkpt>
<trkpt lat="45.8514350" lon="9.2925720">
	<ele>654.80</ele>
	<time>2024-03-25T07:02:13.000Z</time>
</trkpt>
<trkpt lat="45.8514320" lon="9.2925660">
	<ele>654.80</ele>
	<time>2024-03-25T07:02:14.000Z</time>
</trkpt>
<trkpt lat="45.8514300" lon="9.2925690">
	<ele>655.00</ele>
	<time>2024-03-25T07:02:15.000Z</time>
</trkpt>
<trkpt lat="45.8514250" lon="9.2925720">
	<ele>655.00</ele>
	<time>2024-03-25T07:02:16.000Z</time>
</trkpt>
<trkpt lat="45.8514190" lon="9.2925760">
	<ele>655.20</ele>
	<time>2024-03-25T07:02:17.000Z</time>
</trkpt>
<trkpt lat="45.8514160" lon="9.2925690">
	<ele>655.20</ele>
	<time>2024-03-25T07:02:18.000Z</time>
</trkpt>
<trkpt lat="45.8514070" lon="9.2925630">
	<ele>655.20</ele>
	<time>2024-03-25T07:02:19.000Z</time>
</trkpt>
<trkpt lat="45.8514050" lon="9.2925670">
	<ele>655.20</ele>
	<time>2024-03-25T07:02:20.000Z</time>
</trkpt>
<trkpt lat="45.8514070" lon="9.2925670">
	<ele>655.40</ele>
	<time>2024-03-25T07:02:21.000Z</time>
</trkpt>
<trkpt lat="45.8514070" lon="9.2925670">
	<ele>655.40</ele>
	<time>2024-03-25T07:02:22.000Z</time>
</trkpt>
<trkpt lat="45.8514070" lon="9.2925670">
	<ele>655.40</ele>
	<time>2024-03-25T07:02:23.000Z</time>
</trkpt>
<trkpt lat="45.8514070" lon="9.2925670">
	<ele>655.40</ele>
	<time>2024-03-25T07:02:24.000Z</time>
</trkpt>
<trkpt lat="45.8514070" lon="9.2925670">
	<ele>655.40</ele>
	<time>2024-03-25T07:02:25.000Z</time>
</trkpt>
<trkpt lat="45.8514090" lon="9.2925740">
	<ele>655.40</ele>
	<time>2024-03-25T07:02:26.000Z</time>
</trkpt>
<trkpt lat="45.8514130" lon="9.2925880">
	<ele>655.40</ele>
	<time>2024-03-25T07:02:27.000Z</time>
</trkpt>
<trkpt lat="45.8514150" lon="9.2925990">
	<ele>655.40</ele>
	<time>2024-03-25T07:02:28.000Z</time>
</trkpt>
<trkpt lat="45.8514200" lon="9.2926030">
	<ele>655.40</ele>
	<time>2024-03-25T07:02:29.000Z</time>
</trkpt>
<trkpt lat="45.8514260" lon="9.2926020">
	<ele>655.40</ele>
	<time>2024-03-25T07:02:30.000Z</time>
</trkpt>
<trkpt lat="45.8514340" lon="9.2926040">
	<ele>655.40</ele>
	<time>2024-03-25T07:02:31.000Z</time>
</trkpt>
<trkpt lat="45.8514380" lon="9.2926040">
	<ele>655.60</ele>
	<time>2024-03-25T07:02:32.000Z</time>
</trkpt>
<trkpt lat="45.8514420" lon="9.2926100">
	<ele>655.60</ele>
	<time>2024-03-25T07:02:33.000Z</time>
</trkpt>
<trkpt lat="45.8514440" lon="9.2926220">
	<ele>655.80</ele>
	<time>2024-03-25T07:02:34.000Z</time>
</trkpt>
<trkpt lat="45.8514490" lon="9.2926360">
	<ele>655.80</ele>
	<time>2024-03-25T07:02:35.000Z</time>
</trkpt>
<trkpt lat="45.8514590" lon="9.2926470">
	<ele>656.00</ele>
	<time>2024-03-25T07:02:36.000Z</time>
</trkpt>
<trkpt lat="45.8514690" lon="9.2926550">
	<ele>656.20</ele>
	<time>2024-03-25T07:02:37.000Z</time>
</trkpt>
<trkpt lat="45.8514800" lon="9.2926650">
	<ele>656.20</ele>
	<time>2024-03-25T07:02:38.000Z</time>
</trkpt>
<trkpt lat="45.8514870" lon="9.2926700">
	<ele>656.40</ele>
	<time>2024-03-25T07:02:39.000Z</time>
</trkpt>
<trkpt lat="45.8514920" lon="9.2926790">
	<ele>656.60</ele>
	<time>2024-03-25T07:02:40.000Z</time>
</trkpt>
<trkpt lat="45.8514940" lon="9.2926960">
	<ele>656.60</ele>
	<time>2024-03-25T07:02:41.000Z</time>
</trkpt>
<trkpt lat="45.8514970" lon="9.2927120">
	<ele>656.80</ele>
	<time>2024-03-25T07:02:42.000Z</time>
</trkpt>
<trkpt lat="45.8515030" lon="9.2927300">
	<ele>657.00</ele>
	<time>2024-03-25T07:02:43.000Z</time>
</trkpt>
<trkpt lat="45.8515080" lon="9.2927430">
	<ele>657.00</ele>
	<time>2024-03-25T07:02:44.000Z</time>
</trkpt>
<trkpt lat="45.8515170" lon="9.2927520">
	<ele>657.20</ele>
	<time>2024-03-25T07:02:45.000Z</time>
</trkpt>
<trkpt lat="45.8515240" lon="9.2927500">
	<ele>657.40</ele>
	<time>2024-03-25T07:02:46.000Z</time>
</trkpt>
<trkpt lat="45.8515360" lon="9.2927470">
	<ele>657.60</ele>
	<time>2024-03-25T07:02:47.000Z</time>
</trkpt>
<trkpt lat="45.8515470" lon="9.2927510">
	<ele>657.60</ele>
	<time>2024-03-25T07:02:48.000Z</time>
</trkpt>
<trkpt lat="45.8515540" lon="9.2927520">
	<ele>657.80</ele>
	<time>2024-03-25T07:02:49.000Z</time>
</trkpt>
<trkpt lat="45.8515560" lon="9.2927540">
	<ele>658.00</ele>
	<time>2024-03-25T07:02:50.000Z</time>
</trkpt>
<trkpt lat="45.8515560" lon="9.2927570">
	<ele>658.00</ele>
	<time>2024-03-25T07:02:51.000Z</time>
</trkpt>
<trkpt lat="45.8515550" lon="9.2927590">
	<ele>658.00</ele>
	<time>2024-03-25T07:02:52.000Z</time>
</trkpt>
<trkpt lat="45.8515550" lon="9.2927610">
	<ele>658.20</ele>
	<time>2024-03-25T07:02:53.000Z</time>
</trkpt>
<trkpt lat="45.8515540" lon="9.2927620">
	<ele>658.20</ele>
	<time>2024-03-25T07:02:54.000Z</time>
</trkpt>
<trkpt lat="45.8515540" lon="9.2927630">
	<ele>658.20</ele>
	<time>2024-03-25T07:02:55.000Z</time>
</trkpt>
<trkpt lat="45.8515530" lon="9.2927650">
	<ele>658.40</ele>
	<time>2024-03-25T07:02:56.000Z</time>
</trkpt>
<trkpt lat="45.8515540" lon="9.2927700">
	<ele>658.40</ele>
	<time>2024-03-25T07:02:57.000Z</time>
</trkpt>
<trkpt lat="45.8515600" lon="9.2927710">
	<ele>658.40</ele>
	<time>2024-03-25T07:02:58.000Z</time>
</trkpt>
<trkpt lat="45.8515670" lon="9.2927810">
	<ele>658.40</ele>
	<time>2024-03-25T07:02:59.000Z</time>
</trkpt>
<trkpt lat="45.8515660" lon="9.2927980">
	<ele>658.40</ele>
	<time>2024-03-25T07:03:00.000Z</time>
</trkpt>
<trkpt lat="45.8515690" lon="9.2928100">
	<ele>658.40</ele>
	<time>2024-03-25T07:03:01.000Z</time>
</trkpt>
<trkpt lat="45.8515730" lon="9.2928080">
	<ele>658.40</ele>
	<time>2024-03-25T07:03:02.000Z</time>
</trkpt>
<trkpt lat="45.8515770" lon="9.2928120">
	<ele>658.60</ele>
	<time>2024-03-25T07:03:03.000Z</time>
</trkpt>
<trkpt lat="45.8515810" lon="9.2928160">
	<ele>658.60</ele>
	<time>2024-03-25T07:03:04.000Z</time>
</trkpt>
<trkpt lat="45.8515870" lon="9.2928230">
	<ele>658.80</ele>
	<time>2024-03-25T07:03:05.000Z</time>
</trkpt>
<trkpt lat="45.8515950" lon="9.2928300">
	<ele>658.80</ele>
	<time>2024-03-25T07:03:06.000Z</time>
</trkpt>
<trkpt lat="45.8516040" lon="9.2928420">
	<ele>659.00</ele>
	<time>2024-03-25T07:03:07.000Z</time>
</trkpt>
<trkpt lat="45.8516110" lon="9.2928490">
	<ele>659.20</ele>
	<time>2024-03-25T07:03:08.000Z</time>
</trkpt>
<trkpt lat="45.8516170" lon="9.2928560">
	<ele>659.40</ele>
	<time>2024-03-25T07:03:09.000Z</time>
</trkpt>
<trkpt lat="45.8516240" lon="9.2928620">
	<ele>659.60</ele>
	<time>2024-03-25T07:03:10.000Z</time>
</trkpt>
<trkpt lat="45.8516300" lon="9.2928650">
	<ele>659.60</ele>
	<time>2024-03-25T07:03:11.000Z</time>
</trkpt>
<trkpt lat="45.8516390" lon="9.2928740">
	<ele>659.80</ele>
	<time>2024-03-25T07:03:12.000Z</time>
</trkpt>
<trkpt lat="45.8516460" lon="9.2928800">
	<ele>660.00</ele>
	<time>2024-03-25T07:03:13.000Z</time>
</trkpt>
<trkpt lat="45.8516500" lon="9.2928790">
	<ele>660.20</ele>
	<time>2024-03-25T07:03:14.000Z</time>
</trkpt>
<trkpt lat="45.8516530" lon="9.2928800">
	<ele>660.40</ele>
	<time>2024-03-25T07:03:15.000Z</time>
</trkpt>
<trkpt lat="45.8516590" lon="9.2928900">
	<ele>660.40</ele>
	<time>2024-03-25T07:03:16.000Z</time>
</trkpt>
<trkpt lat="45.8516670" lon="9.2929040">
	<ele>660.60</ele>
	<time>2024-03-25T07:03:17.000Z</time>
</trkpt>
<trkpt lat="45.8516730" lon="9.2929150">
	<ele>660.60</ele>
	<time>2024-03-25T07:03:18.000Z</time>
</trkpt>
<trkpt lat="45.8516810" lon="9.2929240">
	<ele>660.60</ele>
	<time>2024-03-25T07:03:19.000Z</time>
</trkpt>
<trkpt lat="45.8516870" lon="9.2929330">
	<ele>660.80</ele>
	<time>2024-03-25T07:03:20.000Z</time>
</trkpt>
<trkpt lat="45.8516930" lon="9.2929400">
	<ele>661.00</ele>
	<time>2024-03-25T07:03:21.000Z</time>
</trkpt>
<trkpt lat="45.8517020" lon="9.2929530">
	<ele>661.20</ele>
	<time>2024-03-25T07:03:22.000Z</time>
</trkpt>
<trkpt lat="45.8517070" lon="9.2929550">
	<ele>661.20</ele>
	<time>2024-03-25T07:03:23.000Z</time>
</trkpt>
<trkpt lat="45.8517130" lon="9.2929660">
	<ele>661.40</ele>
	<time>2024-03-25T07:03:24.000Z</time>
</trkpt>
<trkpt lat="45.8517210" lon="9.2929780">
	<ele>661.40</ele>
	<time>2024-03-25T07:03:25.000Z</time>
</trkpt>
<trkpt lat="45.8517290" lon="9.2929950">
	<ele>661.60</ele>
	<time>2024-03-25T07:03:26.000Z</time>
</trkpt>
<trkpt lat="45.8517310" lon="9.2930010">
	<ele>661.80</ele>
	<time>2024-03-25T07:03:27.000Z</time>
</trkpt>
<trkpt lat="45.8517370" lon="9.2930130">
	<ele>661.80</ele>
	<time>2024-03-25T07:03:28.000Z</time>
</trkpt>
<trkpt lat="45.8517440" lon="9.2930250">
	<ele>661.80</ele>
	<time>2024-03-25T07:03:29.000Z</time>
</trkpt>
<trkpt lat="45.8517510" lon="9.2930370">
	<ele>662.00</ele>
	<time>2024-03-25T07:03:30.000Z</time>
</trkpt>
<trkpt lat="45.8517580" lon="9.2930490">
	<ele>662.20</ele>
	<time>2024-03-25T07:03:31.000Z</time>
</trkpt>
<trkpt lat="45.8517660" lon="9.2930630">
	<ele>662.20</ele>
	<time>2024-03-25T07:03:32.000Z</time>
</trkpt>
<trkpt lat="45.8517770" lon="9.2930760">
	<ele>662.60</ele>
	<time>2024-03-25T07:03:33.000Z</time>
</trkpt>
<trkpt lat="45.8517810" lon="9.2930800">
	<ele>662.80</ele>
	<time>2024-03-25T07:03:34.000Z</time>
</trkpt>
<trkpt lat="45.8517900" lon="9.2930900">
	<ele>662.80</ele>
	<time>2024-03-25T07:03:35.000Z</time>
</trkpt>
<trkpt lat="45.8517970" lon="9.2930930">
	<ele>663.00</ele>
	<time>2024-03-25T07:03:36.000Z</time>
</trkpt>
<trkpt lat="45.8518070" lon="9.2931020">
	<ele>663.20</ele>
	<time>2024-03-25T07:03:37.000Z</time>
</trkpt>
<trkpt lat="45.8518100" lon="9.2931140">
	<ele>663.40</ele>
	<time>2024-03-25T07:03:38.000Z</time>
</trkpt>
<trkpt lat="45.8518130" lon="9.2931250">
	<ele>663.40</ele>
	<time>2024-03-25T07:03:39.000Z</time>
</trkpt>
<trkpt lat="45.8518230" lon="9.2931330">
	<ele>663.60</ele>
	<time>2024-03-25T07:03:40.000Z</time>
</trkpt>
<trkpt lat="45.8518320" lon="9.2931430">
	<ele>663.80</ele>
	<time>2024-03-25T07:03:41.000Z</time>
</trkpt>
<trkpt lat="45.8518410" lon="9.2931570">
	<ele>664.00</ele>
	<time>2024-03-25T07:03:42.000Z</time>
</trkpt>
<trkpt lat="45.8518470" lon="9.2931630">
	<ele>664.00</ele>
	<time>2024-03-25T07:03:43.000Z</time>
</trkpt>
<trkpt lat="45.8518570" lon="9.2931650">
	<ele>664.20</ele>
	<time>2024-03-25T07:03:44.000Z</time>
</trkpt>
<trkpt lat="45.8518640" lon="9.2931670">
	<ele>664.20</ele>
	<time>2024-03-25T07:03:45.000Z</time>
</trkpt>
<trkpt lat="45.8518680" lon="9.2931640">
	<ele>664.40</ele>
	<time>2024-03-25T07:03:46.000Z</time>
</trkpt>
<trkpt lat="45.8518750" lon="9.2931700">
	<ele>664.40</ele>
	<time>2024-03-25T07:03:47.000Z</time>
</trkpt>
<trkpt lat="45.8518830" lon="9.2931810">
	<ele>664.60</ele>
	<time>2024-03-25T07:03:48.000Z</time>
</trkpt>
<trkpt lat="45.8518900" lon="9.2931880">
	<ele>664.80</ele>
	<time>2024-03-25T07:03:49.000Z</time>
</trkpt>
<trkpt lat="45.8518960" lon="9.2931980">
	<ele>665.00</ele>
	<time>2024-03-25T07:03:50.000Z</time>
</trkpt>
<trkpt lat="45.8519030" lon="9.2932050">
	<ele>665.00</ele>
	<time>2024-03-25T07:03:51.000Z</time>
</trkpt>
<trkpt lat="45.8519070" lon="9.2932060">
	<ele>665.20</ele>
	<time>2024-03-25T07:03:52.000Z</time>
</trkpt>
<trkpt lat="45.8519120" lon="9.2932040">
	<ele>665.20</ele>
	<time>2024-03-25T07:03:53.000Z</time>
</trkpt>
<trkpt lat="45.8519210" lon="9.2932080">
	<ele>665.40</ele>
	<time>2024-03-25T07:03:54.000Z</time>
</trkpt>
<trkpt lat="45.8519290" lon="9.2932150">
	<ele>665.60</ele>
	<time>2024-03-25T07:03:55.000Z</time>
</trkpt>
<trkpt lat="45.8519320" lon="9.2932200">
	<ele>665.80</ele>
	<time>2024-03-25T07:03:56.000Z</time>
</trkpt>
<trkpt lat="45.8519370" lon="9.2932280">
	<ele>666.00</ele>
	<time>2024-03-25T07:03:57.000Z</time>
</trkpt>
<trkpt lat="45.8519430" lon="9.2932400">
	<ele>666.00</ele>
	<time>2024-03-25T07:03:58.000Z</time>
</trkpt>
<trkpt lat="45.8519460" lon="9.2932500">
	<ele>666.20</ele>
	<time>2024-03-25T07:03:59.000Z</time>
</trkpt>
<trkpt lat="45.8519520" lon="9.2932540">
	<ele>666.40</ele>
	<time>2024-03-25T07:04:00.000Z</time>
</trkpt>
<trkpt lat="45.8519550" lon="9.2932580">
	<ele>666.40</ele>
	<time>2024-03-25T07:04:01.000Z</time>
</trkpt>
<trkpt lat="45.8519610" lon="9.2932570">
	<ele>666.60</ele>
	<time>2024-03-25T07:04:02.000Z</time>
</trkpt>
<trkpt lat="45.8519680" lon="9.2932610">
	<ele>666.80</ele>
	<time>2024-03-25T07:04:03.000Z</time>
</trkpt>
<trkpt lat="45.8519740" lon="9.2932650">
	<ele>667.00</ele>
	<time>2024-03-25T07:04:04.000Z</time>
</trkpt>
<trkpt lat="45.8519800" lon="9.2932670">
	<ele>667.00</ele>
	<time>2024-03-25T07:04:05.000Z</time>
</trkpt>
<trkpt lat="45.8519870" lon="9.2932750">
	<ele>667.20</ele>
	<time>2024-03-25T07:04:06.000Z</time>
</trkpt>
<trkpt lat="45.8519930" lon="9.2932790">
	<ele>667.40</ele>
	<time>2024-03-25T07:04:07.000Z</time>
</trkpt>
<trkpt lat="45.8520020" lon="9.2932810">
	<ele>667.80</ele>
	<time>2024-03-25T07:04:08.000Z</time>
</trkpt>
<trkpt lat="45.8520150" lon="9.2932860">
	<ele>668.00</ele>
	<time>2024-03-25T07:04:09.000Z</time>
</trkpt>
<trkpt lat="45.8520270" lon="9.2932920">
	<ele>668.40</ele>
	<time>2024-03-25T07:04:10.000Z</time>
</trkpt>
<trkpt lat="45.8520360" lon="9.2933030">
	<ele>668.80</ele>
	<time>2024-03-25T07:04:11.000Z</time>
</trkpt>
<trkpt lat="45.8520430" lon="9.2933040">
	<ele>669.20</ele>
	<time>2024-03-25T07:04:12.000Z</time>
</trkpt>
<trkpt lat="45.8520500" lon="9.2933010">
	<ele>669.40</ele>
	<time>2024-03-25T07:04:13.000Z</time>
</trkpt>
<trkpt lat="45.8520560" lon="9.2932970">
	<ele>669.80</ele>
	<time>2024-03-25T07:04:14.000Z</time>
</trkpt>
<trkpt lat="45.8520600" lon="9.2932960">
	<ele>670.00</ele>
	<time>2024-03-25T07:04:15.000Z</time>
</trkpt>
<trkpt lat="45.8520620" lon="9.2932970">
	<ele>670.20</ele>
	<time>2024-03-25T07:04:16.000Z</time>
</trkpt>
<trkpt lat="45.8520670" lon="9.2932990">
	<ele>670.20</ele>
	<time>2024-03-25T07:04:17.000Z</time>
</trkpt>
<trkpt lat="45.8520730" lon="9.2933010">
	<ele>670.40</ele>
	<time>2024-03-25T07:04:18.000Z</time>
</trkpt>
<trkpt lat="45.8520790" lon="9.2933070">
	<ele>670.40</ele>
	<time>2024-03-25T07:04:19.000Z</time>
</trkpt>
<trkpt lat="45.8520840" lon="9.2933140">
	<ele>670.40</ele>
	<time>2024-03-25T07:04:20.000Z</time>
</trkpt>
<trkpt lat="45.8520920" lon="9.2933180">
	<ele>670.60</ele>
	<time>2024-03-25T07:04:21.000Z</time>
</trkpt>
<trkpt lat="45.8521020" lon="9.2933220">
	<ele>670.80</ele>
	<time>2024-03-25T07:04:22.000Z</time>
</trkpt>
<trkpt lat="45.8521120" lon="9.2933300">
	<ele>670.80</ele>
	<time>2024-03-25T07:04:23.000Z</time>
</trkpt>
<trkpt lat="45.8521180" lon="9.2933380">
	<ele>671.00</ele>
	<time>2024-03-25T07:04:24.000Z</time>
</trkpt>
<trkpt lat="45.8521240" lon="9.2933460">
	<ele>671.00</ele>
	<time>2024-03-25T07:04:25.000Z</time>
</trkpt>
<trkpt lat="45.8521300" lon="9.2933460">
	<ele>671.20</ele>
	<time>2024-03-25T07:04:26.000Z</time>
</trkpt>
<trkpt lat="45.8521380" lon="9.2933490">
	<ele>671.20</ele>
	<time>2024-03-25T07:04:27.000Z</time>
</trkpt>
<trkpt lat="45.8521400" lon="9.2933490">
	<ele>671.20</ele>
	<time>2024-03-25T07:04:28.000Z</time>
</trkpt>
<trkpt lat="45.8521470" lon="9.2933470">
	<ele>671.40</ele>
	<time>2024-03-25T07:04:29.000Z</time>
</trkpt>
<trkpt lat="45.8521530" lon="9.2933450">
	<ele>671.60</ele>
	<time>2024-03-25T07:04:30.000Z</time>
</trkpt>
<trkpt lat="45.8521650" lon="9.2933530">
	<ele>671.80</ele>
	<time>2024-03-25T07:04:31.000Z</time>
</trkpt>
<trkpt lat="45.8521790" lon="9.2933620">
	<ele>672.00</ele>
	<time>2024-03-25T07:04:32.000Z</time>
</trkpt>
<trkpt lat="45.8521870" lon="9.2933710">
	<ele>672.20</ele>
	<time>2024-03-25T07:04:33.000Z</time>
</trkpt>
<trkpt lat="45.8521960" lon="9.2933790">
	<ele>672.20</ele>
	<time>2024-03-25T07:04:34.000Z</time>
</trkpt>
<trkpt lat="45.8522020" lon="9.2933840">
	<ele>672.40</ele>
	<time>2024-03-25T07:04:35.000Z</time>
</trkpt>
<trkpt lat="45.8522090" lon="9.2933900">
	<ele>672.40</ele>
	<time>2024-03-25T07:04:36.000Z</time>
</trkpt>
<trkpt lat="45.8522160" lon="9.2933970">
	<ele>672.60</ele>
	<time>2024-03-25T07:04:37.000Z</time>
</trkpt>
<trkpt lat="45.8522220" lon="9.2934060">
	<ele>672.80</ele>
	<time>2024-03-25T07:04:38.000Z</time>
</trkpt>
<trkpt lat="45.8522280" lon="9.2934090">
	<ele>673.00</ele>
	<time>2024-03-25T07:04:39.000Z</time>
</trkpt>
<trkpt lat="45.8522320" lon="9.2934190">
	<ele>673.00</ele>
	<time>2024-03-25T07:04:40.000Z</time>
</trkpt>
<trkpt lat="45.8522390" lon="9.2934250">
	<ele>673.00</ele>
	<time>2024-03-25T07:04:41.000Z</time>
</trkpt>
<trkpt lat="45.8522390" lon="9.2934290">
	<ele>673.20</ele>
	<time>2024-03-25T07:04:42.000Z</time>
</trkpt>
<trkpt lat="45.8522390" lon="9.2934290">
	<ele>673.40</ele>
	<time>2024-03-25T07:04:43.000Z</time>
</trkpt>
<trkpt lat="45.8522400" lon="9.2934200">
	<ele>673.60</ele>
	<time>2024-03-25T07:04:44.000Z</time>
</trkpt>
<trkpt lat="45.8522450" lon="9.2934220">
	<ele>673.80</ele>
	<time>2024-03-25T07:04:45.000Z</time>
</trkpt>
<trkpt lat="45.8522500" lon="9.2934270">
	<ele>674.00</ele>
	<time>2024-03-25T07:04:46.000Z</time>
</trkpt>
<trkpt lat="45.8522450" lon="9.2934320">
	<ele>674.20</ele>
	<time>2024-03-25T07:04:47.000Z</time>
</trkpt>
<trkpt lat="45.8522500" lon="9.2934400">
	<ele>674.40</ele>
	<time>2024-03-25T07:04:48.000Z</time>
</trkpt>
<trkpt lat="45.8522570" lon="9.2934480">
	<ele>674.60</ele>
	<time>2024-03-25T07:04:49.000Z</time>
</trkpt>
<trkpt lat="45.8522630" lon="9.2934550">
	<ele>674.60</ele>
	<time>2024-03-25T07:04:50.000Z</time>
</trkpt>
<trkpt lat="45.8522700" lon="9.2934660">
	<ele>674.80</ele>
	<time>2024-03-25T07:04:51.000Z</time>
</trkpt>
<trkpt lat="45.8522750" lon="9.2934740">
	<ele>675.00</ele>
	<time>2024-03-25T07:04:52.000Z</time>
</trkpt>
<trkpt lat="45.8522820" lon="9.2934790">
	<ele>675.20</ele>
	<time>2024-03-25T07:04:53.000Z</time>
</trkpt>
<trkpt lat="45.8522870" lon="9.2934820">
	<ele>675.20</ele>
	<time>2024-03-25T07:04:54.000Z</time>
</trkpt>
<trkpt lat="45.8522950" lon="9.2934960">
	<ele>675.40</ele>
	<time>2024-03-25T07:04:55.000Z</time>
</trkpt>
<trkpt lat="45.8523020" lon="9.2935080">
	<ele>675.40</ele>
	<time>2024-03-25T07:04:56.000Z</time>
</trkpt>
<trkpt lat="45.8523090" lon="9.2935200">
	<ele>675.60</ele>
	<time>2024-03-25T07:04:57.000Z</time>
</trkpt>
<trkpt lat="45.8523190" lon="9.2935270">
	<ele>675.80</ele>
	<time>2024-03-25T07:04:58.000Z</time>
</trkpt>
<trkpt lat="45.8523310" lon="9.2935350">
	<ele>676.20</ele>
	<time>2024-03-25T07:04:59.000Z</time>
</trkpt>
<trkpt lat="45.8523420" lon="9.2935460">
	<ele>676.20</ele>
	<time>2024-03-25T07:05:00.000Z</time>
</trkpt>
<trkpt lat="45.8523450" lon="9.2935500">
	<ele>676.40</ele>
	<time>2024-03-25T07:05:01.000Z</time>
</trkpt>
<trkpt lat="45.8523520" lon="9.2935550">
	<ele>676.60</ele>
	<time>2024-03-25T07:05:02.000Z</time>
</trkpt>
<trkpt lat="45.8523620" lon="9.2935630">
	<ele>676.60</ele>
	<time>2024-03-25T07:05:03.000Z</time>
</trkpt>
<trkpt lat="45.8523700" lon="9.2935640">
	<ele>676.80</ele>
	<time>2024-03-25T07:05:04.000Z</time>
</trkpt>
<trkpt lat="45.8523770" lon="9.2935730">
	<ele>677.00</ele>
	<time>2024-03-25T07:05:05.000Z</time>
</trkpt>
<trkpt lat="45.8523810" lon="9.2935840">
	<ele>677.00</ele>
	<time>2024-03-25T07:05:06.000Z</time>
</trkpt>
<trkpt lat="45.8523850" lon="9.2936020">
	<ele>677.20</ele>
	<time>2024-03-25T07:05:07.000Z</time>
</trkpt>
<trkpt lat="45.8523910" lon="9.2936110">
	<ele>677.40</ele>
	<time>2024-03-25T07:05:08.000Z</time>
</trkpt>
<trkpt lat="45.8523980" lon="9.2936220">
	<ele>677.40</ele>
	<time>2024-03-25T07:05:09.000Z</time>
</trkpt>
<trkpt lat="45.8524050" lon="9.2936340">
	<ele>677.60</ele>
	<time>2024-03-25T07:05:10.000Z</time>
</trkpt>
<trkpt lat="45.8524120" lon="9.2936490">
	<ele>677.80</ele>
	<time>2024-03-25T07:05:11.000Z</time>
</trkpt>
<trkpt lat="45.8524220" lon="9.2936650">
	<ele>678.20</ele>
	<time>2024-03-25T07:05:12.000Z</time>
</trkpt>
<trkpt lat="45.8524280" lon="9.2936690">
	<ele>678.60</ele>
	<time>2024-03-25T07:05:13.000Z</time>
</trkpt>
<trkpt lat="45.8524360" lon="9.2936720">
	<ele>678.60</ele>
	<time>2024-03-25T07:05:14.000Z</time>
</trkpt>
<trkpt lat="45.8524430" lon="9.2936790">
	<ele>678.80</ele>
	<time>2024-03-25T07:05:15.000Z</time>
</trkpt>
<trkpt lat="45.8524470" lon="9.2936820">
	<ele>678.80</ele>
	<time>2024-03-25T07:05:16.000Z</time>
</trkpt>
<trkpt lat="45.8524550" lon="9.2936960">
	<ele>679.00</ele>
	<time>2024-03-25T07:05:17.000Z</time>
</trkpt>
<trkpt lat="45.8524630" lon="9.2937070">
	<ele>679.00</ele>
	<time>2024-03-25T07:05:18.000Z</time>
</trkpt>
<trkpt lat="45.8524700" lon="9.2937150">
	<ele>679.20</ele>
	<time>2024-03-25T07:05:19.000Z</time>
</trkpt>
<trkpt lat="45.8524740" lon="9.2937250">
	<ele>679.20</ele>
	<time>2024-03-25T07:05:20.000Z</time>
</trkpt>
<trkpt lat="45.8524750" lon="9.2937320">
	<ele>679.20</ele>
	<time>2024-03-25T07:05:21.000Z</time>
</trkpt>
<trkpt lat="45.8524820" lon="9.2937390">
	<ele>679.40</ele>
	<time>2024-03-25T07:05:22.000Z</time>
</trkpt>
<trkpt lat="45.8524850" lon="9.2937550">
	<ele>679.40</ele>
	<time>2024-03-25T07:05:23.000Z</time>
</trkpt>
<trkpt lat="45.8524900" lon="9.2937440">
	<ele>679.60</ele>
	<time>2024-03-25T07:05:24.000Z</time>
</trkpt>
<trkpt lat="45.8525050" lon="9.2937480">
	<ele>679.80</ele>
	<time>2024-03-25T07:05:25.000Z</time>
</trkpt>
<trkpt lat="45.8525150" lon="9.2937410">
	<ele>680.00</ele>
	<time>2024-03-25T07:05:26.000Z</time>
</trkpt>
<trkpt lat="45.8525280" lon="9.2937510">
	<ele>680.00</ele>
	<time>2024-03-25T07:05:27.000Z</time>
</trkpt>
<trkpt lat="45.8525360" lon="9.2937670">
	<ele>680.00</ele>
	<time>2024-03-25T07:05:28.000Z</time>
</trkpt>
<trkpt lat="45.8525440" lon="9.2937800">
	<ele>680.20</ele>
	<time>2024-03-25T07:05:29.000Z</time>
</trkpt>
<trkpt lat="45.8525530" lon="9.2937910">
	<ele>680.40</ele>
	<time>2024-03-25T07:05:30.000Z</time>
</trkpt>
<trkpt lat="45.8525570" lon="9.2938070">
	<ele>680.40</ele>
	<time>2024-03-25T07:05:31.000Z</time>
</trkpt>
<trkpt lat="45.8525670" lon="9.2938130">
	<ele>680.60</ele>
	<time>2024-03-25T07:05:32.000Z</time>
</trkpt>
<trkpt lat="45.8525810" lon="9.2938170">
	<ele>680.80</ele>
	<time>2024-03-25T07:05:33.000Z</time>
</trkpt>
<trkpt lat="45.8525950" lon="9.2938320">
	<ele>681.00</ele>
	<time>2024-03-25T07:05:34.000Z</time>
</trkpt>
<trkpt lat="45.8526110" lon="9.2938370">
	<ele>681.20</ele>
	<time>2024-03-25T07:05:35.000Z</time>
</trkpt>
<trkpt lat="45.8526250" lon="9.2938410">
	<ele>681.40</ele>
	<time>2024-03-25T07:05:36.000Z</time>
</trkpt>
<trkpt lat="45.8526350" lon="9.2938430">
	<ele>681.60</ele>
	<time>2024-03-25T07:05:37.000Z</time>
</trkpt>
<trkpt lat="45.8526380" lon="9.2938620">
	<ele>681.80</ele>
	<time>2024-03-25T07:05:38.000Z</time>
</trkpt>
<trkpt lat="45.8526440" lon="9.2938650">
	<ele>681.80</ele>
	<time>2024-03-25T07:05:39.000Z</time>
</trkpt>
<trkpt lat="45.8526500" lon="9.2938710">
	<ele>682.20</ele>
	<time>2024-03-25T07:05:40.000Z</time>
</trkpt>
<trkpt lat="45.8526490" lon="9.2938780">
	<ele>682.40</ele>
	<time>2024-03-25T07:05:41.000Z</time>
</trkpt>
<trkpt lat="45.8526500" lon="9.2938900">
	<ele>682.60</ele>
	<time>2024-03-25T07:05:42.000Z</time>
</trkpt>
<trkpt lat="45.8526550" lon="9.2939030">
	<ele>682.60</ele>
	<time>2024-03-25T07:05:43.000Z</time>
</trkpt>
<trkpt lat="45.8526640" lon="9.2939050">
	<ele>682.80</ele>
	<time>2024-03-25T07:05:44.000Z</time>
</trkpt>
<trkpt lat="45.8526740" lon="9.2939160">
	<ele>683.00</ele>
	<time>2024-03-25T07:05:45.000Z</time>
</trkpt>
<trkpt lat="45.8526820" lon="9.2939310">
	<ele>683.00</ele>
	<time>2024-03-25T07:05:46.000Z</time>
</trkpt>
<trkpt lat="45.8526870" lon="9.2939380">
	<ele>683.20</ele>
	<time>2024-03-25T07:05:47.000Z</time>
</trkpt>
<trkpt lat="45.8526910" lon="9.2939440">
	<ele>683.20</ele>
	<time>2024-03-25T07:05:48.000Z</time>
</trkpt>
<trkpt lat="45.8526940" lon="9.2939450">
	<ele>683.20</ele>
	<time>2024-03-25T07:05:49.000Z</time>
</trkpt>
<trkpt lat="45.8527000" lon="9.2939440">
	<ele>683.40</ele>
	<time>2024-03-25T07:05:50.000Z</time>
</trkpt>
<trkpt lat="45.8527070" lon="9.2939370">
	<ele>683.60</ele>
	<time>2024-03-25T07:05:51.000Z</time>
</trkpt>
<trkpt lat="45.8527110" lon="9.2939380">
	<ele>683.80</ele>
	<time>2024-03-25T07:05:52.000Z</time>
</trkpt>
<trkpt lat="45.8527130" lon="9.2939450">
	<ele>683.80</ele>
	<time>2024-03-25T07:05:53.000Z</time>
</trkpt>
<trkpt lat="45.8527250" lon="9.2939510">
	<ele>684.00</ele>
	<time>2024-03-25T07:05:54.000Z</time>
</trkpt>
<trkpt lat="45.8527270" lon="9.2939570">
	<ele>684.20</ele>
	<time>2024-03-25T07:05:55.000Z</time>
</trkpt>
<trkpt lat="45.8527340" lon="9.2939590">
	<ele>684.20</ele>
	<time>2024-03-25T07:05:56.000Z</time>
</trkpt>
<trkpt lat="45.8527380" lon="9.2939590">
	<ele>684.40</ele>
	<time>2024-03-25T07:05:57.000Z</time>
</trkpt>
<trkpt lat="45.8527380" lon="9.2939620">
	<ele>684.40</ele>
	<time>2024-03-25T07:05:58.000Z</time>
</trkpt>
<trkpt lat="45.8527400" lon="9.2939670">
	<ele>684.60</ele>
	<time>2024-03-25T07:05:59.000Z</time>
</trkpt>
<trkpt lat="45.8527430" lon="9.2939730">
	<ele>684.80</ele>
	<time>2024-03-25T07:06:00.000Z</time>
</trkpt>
<trkpt lat="45.8527420" lon="9.2939780">
	<ele>685.00</ele>
	<time>2024-03-25T07:06:01.000Z</time>
</trkpt>
<trkpt lat="45.8527440" lon="9.2939880">
	<ele>685.00</ele>
	<time>2024-03-25T07:06:02.000Z</time>
</trkpt>
<trkpt lat="45.8527480" lon="9.2939920">
	<ele>685.20</ele>
	<time>2024-03-25T07:06:03.000Z</time>
</trkpt>
<trkpt lat="45.8527540" lon="9.2939930">
	<ele>685.40</ele>
	<time>2024-03-25T07:06:04.000Z</time>
</trkpt>
<trkpt lat="45.8527610" lon="9.2939970">
	<ele>685.60</ele>
	<time>2024-03-25T07:06:05.000Z</time>
</trkpt>
<trkpt lat="45.8527720" lon="9.2940050">
	<ele>685.80</ele>
	<time>2024-03-25T07:06:06.000Z</time>
</trkpt>
<trkpt lat="45.8527850" lon="9.2940140">
	<ele>686.00</ele>
	<time>2024-03-25T07:06:07.000Z</time>
</trkpt>
<trkpt lat="45.8528000" lon="9.2940410">
	<ele>686.20</ele>
	<time>2024-03-25T07:06:08.000Z</time>
</trkpt>
<trkpt lat="45.8528050" lon="9.2940500">
	<ele>686.40</ele>
	<time>2024-03-25T07:06:09.000Z</time>
</trkpt>
<trkpt lat="45.8528170" lon="9.2940540">
	<ele>686.40</ele>
	<time>2024-03-25T07:06:10.000Z</time>
</trkpt>
<trkpt lat="45.8528220" lon="9.2940680">
	<ele>686.60</ele>
	<time>2024-03-25T07:06:11.000Z</time>
</trkpt>
<trkpt lat="45.8528340" lon="9.2940710">
	<ele>686.60</ele>
	<time>2024-03-25T07:06:12.000Z</time>
</trkpt>
<trkpt lat="45.8528390" lon="9.2940750">
	<ele>686.80</ele>
	<time>2024-03-25T07:06:13.000Z</time>
</trkpt>
<trkpt lat="45.8528420" lon="9.2940700">
	<ele>687.00</ele>
	<time>2024-03-25T07:06:14.000Z</time>
</trkpt>
<trkpt lat="45.8528470" lon="9.2940690">
	<ele>687.20</ele>
	<time>2024-03-25T07:06:15.000Z</time>
</trkpt>
<trkpt lat="45.8528610" lon="9.2940650">
	<ele>687.20</ele>
	<time>2024-03-25T07:06:16.000Z</time>
</trkpt>
<trkpt lat="45.8528720" lon="9.2940720">
	<ele>687.40</ele>
	<time>2024-03-25T07:06:17.000Z</time>
</trkpt>
<trkpt lat="45.8528840" lon="9.2940830">
	<ele>687.60</ele>
	<time>2024-03-25T07:06:18.000Z</time>
</trkpt>
<trkpt lat="45.8528930" lon="9.2940990">
	<ele>687.80</ele>
	<time>2024-03-25T07:06:19.000Z</time>
</trkpt>
<trkpt lat="45.8529010" lon="9.2941190">
	<ele>688.00</ele>
	<time>2024-03-25T07:06:20.000Z</time>
</trkpt>
<trkpt lat="45.8529120" lon="9.2941360">
	<ele>688.20</ele>
	<time>2024-03-25T07:06:21.000Z</time>
</trkpt>
<trkpt lat="45.8529180" lon="9.2941420">
	<ele>688.60</ele>
	<time>2024-03-25T07:06:22.000Z</time>
</trkpt>
<trkpt lat="45.8529230" lon="9.2941440">
	<ele>688.60</ele>
	<time>2024-03-25T07:06:23.000Z</time>
</trkpt>
<trkpt lat="45.8529300" lon="9.2941460">
	<ele>688.80</ele>
	<time>2024-03-25T07:06:24.000Z</time>
</trkpt>
<trkpt lat="45.8529350" lon="9.2941470">
	<ele>688.80</ele>
	<time>2024-03-25T07:06:25.000Z</time>
</trkpt>
<trkpt lat="45.8529360" lon="9.2941440">
	<ele>689.00</ele>
	<time>2024-03-25T07:06:26.000Z</time>
</trkpt>
<trkpt lat="45.8529430" lon="9.2941440">
	<ele>689.00</ele>
	<time>2024-03-25T07:06:27.000Z</time>
</trkpt>
<trkpt lat="45.8529500" lon="9.2941490">
	<ele>689.20</ele>
	<time>2024-03-25T07:06:28.000Z</time>
</trkpt>
<trkpt lat="45.8529560" lon="9.2941510">
	<ele>689.20</ele>
	<time>2024-03-25T07:06:29.000Z</time>
</trkpt>
<trkpt lat="45.8529600" lon="9.2941570">
	<ele>689.40</ele>
	<time>2024-03-25T07:06:30.000Z</time>
</trkpt>
<trkpt lat="45.8529610" lon="9.2941660">
	<ele>689.60</ele>
	<time>2024-03-25T07:06:31.000Z</time>
</trkpt>
<trkpt lat="45.8529650" lon="9.2941730">
	<ele>689.80</ele>
	<time>2024-03-25T07:06:32.000Z</time>
</trkpt>
<trkpt lat="45.8529700" lon="9.2941820">
	<ele>690.00</ele>
	<time>2024-03-25T07:06:33.000Z</time>
</trkpt>
<trkpt lat="45.8529760" lon="9.2941940">
	<ele>690.20</ele>
	<time>2024-03-25T07:06:34.000Z</time>
</trkpt>
<trkpt lat="45.8529780" lon="9.2941980">
	<ele>690.20</ele>
	<time>2024-03-25T07:06:35.000Z</time>
</trkpt>
<trkpt lat="45.8529850" lon="9.2942160">
	<ele>690.40</ele>
	<time>2024-03-25T07:06:36.000Z</time>
</trkpt>
<trkpt lat="45.8529900" lon="9.2942410">
	<ele>690.60</ele>
	<time>2024-03-25T07:06:37.000Z</time>
</trkpt>
<trkpt lat="45.8530000" lon="9.2942480">
	<ele>690.60</ele>
	<time>2024-03-25T07:06:38.000Z</time>
</trkpt>
<trkpt lat="45.8530070" lon="9.2942670">
	<ele>690.80</ele>
	<time>2024-03-25T07:06:39.000Z</time>
</trkpt>
<trkpt lat="45.8530180" lon="9.2942780">
	<ele>691.00</ele>
	<time>2024-03-25T07:06:40.000Z</time>
</trkpt>
<trkpt lat="45.8530310" lon="9.2942930">
	<ele>691.20</ele>
	<time>2024-03-25T07:06:41.000Z</time>
</trkpt>
<trkpt lat="45.8530410" lon="9.2942990">
	<ele>691.20</ele>
	<time>2024-03-25T07:06:42.000Z</time>
</trkpt>
<trkpt lat="45.8530450" lon="9.2942990">
	<ele>691.40</ele>
	<time>2024-03-25T07:06:43.000Z</time>
</trkpt>
<trkpt lat="45.8530450" lon="9.2942980">
	<ele>691.80</ele>
	<time>2024-03-25T07:06:44.000Z</time>
</trkpt>
<trkpt lat="45.8530480" lon="9.2942960">
	<ele>692.00</ele>
	<time>2024-03-25T07:06:45.000Z</time>
</trkpt>
<trkpt lat="45.8530500" lon="9.2942950">
	<ele>692.00</ele>
	<time>2024-03-25T07:06:46.000Z</time>
</trkpt>
<trkpt lat="45.8530480" lon="9.2942970">
	<ele>692.20</ele>
	<time>2024-03-25T07:06:47.000Z</time>
</trkpt>
<trkpt lat="45.8530480" lon="9.2942990">
	<ele>692.20</ele>
	<time>2024-03-25T07:06:48.000Z</time>
</trkpt>
<trkpt lat="45.8530460" lon="9.2942980">
	<ele>692.20</ele>
	<time>2024-03-25T07:06:49.000Z</time>
</trkpt>
<trkpt lat="45.8530480" lon="9.2942980">
	<ele>692.00</ele>
	<time>2024-03-25T07:06:50.000Z</time>
</trkpt>
<trkpt lat="45.8530450" lon="9.2942980">
	<ele>692.00</ele>
	<time>2024-03-25T07:06:51.000Z</time>
</trkpt>
<trkpt lat="45.8530410" lon="9.2942900">
	<ele>691.80</ele>
	<time>2024-03-25T07:06:52.000Z</time>
</trkpt>
<trkpt lat="45.8530390" lon="9.2942940">
	<ele>691.80</ele>
	<time>2024-03-25T07:06:53.000Z</time>
</trkpt>
<trkpt lat="45.8530410" lon="9.2942900">
	<ele>691.80</ele>
	<time>2024-03-25T07:06:54.000Z</time>
</trkpt>
<trkpt lat="45.8530420" lon="9.2942960">
	<ele>691.80</ele>
	<time>2024-03-25T07:06:55.000Z</time>
</trkpt>
<trkpt lat="45.8530420" lon="9.2942970">
	<ele>692.00</ele>
	<time>2024-03-25T07:06:56.000Z</time>
</trkpt>
<trkpt lat="45.8530420" lon="9.2942950">
	<ele>692.00</ele>
	<time>2024-03-25T07:06:57.000Z</time>
</trkpt>
<trkpt lat="45.8530460" lon="9.2942970">
	<ele>692.20</ele>
	<time>2024-03-25T07:06:58.000Z</time>
</trkpt>
<trkpt lat="45.8530520" lon="9.2943030">
	<ele>692.40</ele>
	<time>2024-03-25T07:06:59.000Z</time>
</trkpt>
<trkpt lat="45.8530580" lon="9.2943140">
	<ele>692.60</ele>
	<time>2024-03-25T07:07:00.000Z</time>
</trkpt>
<trkpt lat="45.8530630" lon="9.2943260">
	<ele>692.60</ele>
	<time>2024-03-25T07:07:01.000Z</time>
</trkpt>
<trkpt lat="45.8530660" lon="9.2943320">
	<ele>692.80</ele>
	<time>2024-03-25T07:07:02.000Z</time>
</trkpt>
<trkpt lat="45.8530720" lon="9.2943380">
	<ele>693.00</ele>
	<time>2024-03-25T07:07:03.000Z</time>
</trkpt>
<trkpt lat="45.8530790" lon="9.2943480">
	<ele>693.20</ele>
	<time>2024-03-25T07:07:04.000Z</time>
</trkpt>
<trkpt lat="45.8530870" lon="9.2943610">
	<ele>693.40</ele>
	<time>2024-03-25T07:07:05.000Z</time>
</trkpt>
<trkpt lat="45.8530940" lon="9.2943700">
	<ele>693.60</ele>
	<time>2024-03-25T07:07:06.000Z</time>
</trkpt>
<trkpt lat="45.8530960" lon="9.2943750">
	<ele>693.80</ele>
	<time>2024-03-25T07:07:07.000Z</time>
</trkpt>
<trkpt lat="45.8530950" lon="9.2943750">
	<ele>694.00</ele>
	<time>2024-03-25T07:07:08.000Z</time>
</trkpt>
<trkpt lat="45.8530930" lon="9.2943810">
	<ele>694.20</ele>
	<time>2024-03-25T07:07:09.000Z</time>
</trkpt>
<trkpt lat="45.8530960" lon="9.2943880">
	<ele>694.40</ele>
	<time>2024-03-25T07:07:10.000Z</time>
</trkpt>
<trkpt lat="45.8531030" lon="9.2943930">
	<ele>694.40</ele>
	<time>2024-03-25T07:07:11.000Z</time>
</trkpt>
<trkpt lat="45.8531110" lon="9.2943960">
	<ele>694.60</ele>
	<time>2024-03-25T07:07:12.000Z</time>
</trkpt>
<trkpt lat="45.8531200" lon="9.2943930">
	<ele>694.60</ele>
	<time>2024-03-25T07:07:13.000Z</time>
</trkpt>
<trkpt lat="45.8531270" lon="9.2943980">
	<ele>694.80</ele>
	<time>2024-03-25T07:07:14.000Z</time>
</trkpt>
<trkpt lat="45.8531310" lon="9.2944060">
	<ele>694.80</ele>
	<time>2024-03-25T07:07:15.000Z</time>
</trkpt>
<trkpt lat="45.8531330" lon="9.2944170">
	<ele>695.00</ele>
	<time>2024-03-25T07:07:16.000Z</time>
</trkpt>
<trkpt lat="45.8531390" lon="9.2944340">
	<ele>695.00</ele>
	<time>2024-03-25T07:07:17.000Z</time>
</trkpt>
<trkpt lat="45.8531420" lon="9.2944480">
	<ele>695.20</ele>
	<time>2024-03-25T07:07:18.000Z</time>
</trkpt>
<trkpt lat="45.8531420" lon="9.2944530">
	<ele>695.40</ele>
	<time>2024-03-25T07:07:19.000Z</time>
</trkpt>
<trkpt lat="45.8531400" lon="9.2944540">
	<ele>695.40</ele>
	<time>2024-03-25T07:07:20.000Z</time>
</trkpt>
<trkpt lat="45.8531450" lon="9.2944580">
	<ele>695.60</ele>
	<time>2024-03-25T07:07:21.000Z</time>
</trkpt>
<trkpt lat="45.8531460" lon="9.2944640">
	<ele>695.80</ele>
	<time>2024-03-25T07:07:22.000Z</time>
</trkpt>
<trkpt lat="45.8531420" lon="9.2944680">
	<ele>695.80</ele>
	<time>2024-03-25T07:07:23.000Z</time>
</trkpt>
<trkpt lat="45.8531340" lon="9.2944680">
	<ele>696.00</ele>
	<time>2024-03-25T07:07:24.000Z</time>
</trkpt>
<trkpt lat="45.8531300" lon="9.2944710">
	<ele>696.20</ele>
	<time>2024-03-25T07:07:25.000Z</time>
</trkpt>
<trkpt lat="45.8531200" lon="9.2944820">
	<ele>696.40</ele>
	<time>2024-03-25T07:07:26.000Z</time>
</trkpt>
<trkpt lat="45.8531060" lon="9.2944880">
	<ele>696.40</ele>
	<time>2024-03-25T07:07:27.000Z</time>
</trkpt>
<trkpt lat="45.8531030" lon="9.2944920">
	<ele>696.80</ele>
	<time>2024-03-25T07:07:28.000Z</time>
</trkpt>
<trkpt lat="45.8531020" lon="9.2944950">
	<ele>696.80</ele>
	<time>2024-03-25T07:07:29.000Z</time>
</trkpt>
<trkpt lat="45.8531080" lon="9.2944940">
	<ele>697.00</ele>
	<time>2024-03-25T07:07:30.000Z</time>
</trkpt>
<trkpt lat="45.8531130" lon="9.2945040">
	<ele>697.40</ele>
	<time>2024-03-25T07:07:31.000Z</time>
</trkpt>
<trkpt lat="45.8531130" lon="9.2945130">
	<ele>697.40</ele>
	<time>2024-03-25T07:07:32.000Z</time>
</trkpt>
<trkpt lat="45.8531120" lon="9.2945140">
	<ele>697.60</ele>
	<time>2024-03-25T07:07:33.000Z</time>
</trkpt>
<trkpt lat="45.8531100" lon="9.2945210">
	<ele>697.80</ele>
	<time>2024-03-25T07:07:34.000Z</time>
</trkpt>
<trkpt lat="45.8531050" lon="9.2945240">
	<ele>697.80</ele>
	<time>2024-03-25T07:07:35.000Z</time>
</trkpt>
<trkpt lat="45.8530990" lon="9.2945260">
	<ele>697.80</ele>
	<time>2024-03-25T07:07:36.000Z</time>
</trkpt>
<trkpt lat="45.8530940" lon="9.2945330">
	<ele>698.20</ele>
	<time>2024-03-25T07:07:37.000Z</time>
</trkpt>
<trkpt lat="45.8530930" lon="9.2945450">
	<ele>698.20</ele>
	<time>2024-03-25T07:07:38.000Z</time>
</trkpt>
<trkpt lat="45.8530900" lon="9.2945510">
	<ele>698.40</ele>
	<time>2024-03-25T07:07:39.000Z</time>
</trkpt>
<trkpt lat="45.8530850" lon="9.2945540">
	<ele>698.40</ele>
	<time>2024-03-25T07:07:40.000Z</time>
</trkpt>
<trkpt lat="45.8530760" lon="9.2945570">
	<ele>698.60</ele>
	<time>2024-03-25T07:07:41.000Z</time>
</trkpt>
<trkpt lat="45.8530670" lon="9.2945620">
	<ele>698.80</ele>
	<time>2024-03-25T07:07:42.000Z</time>
</trkpt>
<trkpt lat="45.8530620" lon="9.2945640">
	<ele>699.00</ele>
	<time>2024-03-25T07:07:43.000Z</time>
</trkpt>
<trkpt lat="45.8530570" lon="9.2945690">
	<ele>699.20</ele>
	<time>2024-03-25T07:07:44.000Z</time>
</trkpt>
<trkpt lat="45.8530500" lon="9.2945660">
	<ele>699.40</ele>
	<time>2024-03-25T07:07:45.000Z</time>
</trkpt>
<trkpt lat="45.8530440" lon="9.2945690">
	<ele>699.40</ele>
	<time>2024-03-25T07:07:46.000Z</time>
</trkpt>
<trkpt lat="45.8530420" lon="9.2945750">
	<ele>699.60</ele>
	<time>2024-03-25T07:07:47.000Z</time>
</trkpt>
<trkpt lat="45.8530330" lon="9.2945780">
	<ele>699.80</ele>
	<time>2024-03-25T07:07:48.000Z</time>
</trkpt>
<trkpt lat="45.8530230" lon="9.2945860">
	<ele>700.00</ele>
	<time>2024-03-25T07:07:49.000Z</time>
</trkpt>
<trkpt lat="45.8530050" lon="9.2945820">
	<ele>700.00</ele>
	<time>2024-03-25T07:07:50.000Z</time>
</trkpt>
<trkpt lat="45.8529930" lon="9.2945830">
	<ele>700.40</ele>
	<time>2024-03-25T07:07:51.000Z</time>
</trkpt>
<trkpt lat="45.8529850" lon="9.2945940">
	<ele>700.40</ele>
	<time>2024-03-25T07:07:52.000Z</time>
</trkpt>
<trkpt lat="45.8529760" lon="9.2946050">
	<ele>700.60</ele>
	<time>2024-03-25T07:07:53.000Z</time>
</trkpt>
<trkpt lat="45.8529700" lon="9.2946180">
	<ele>700.60</ele>
	<time>2024-03-25T07:07:54.000Z</time>
</trkpt>
<trkpt lat="45.8529640" lon="9.2946250">
	<ele>700.80</ele>
	<time>2024-03-25T07:07:55.000Z</time>
</trkpt>
<trkpt lat="45.8529530" lon="9.2946240">
	<ele>701.00</ele>
	<time>2024-03-25T07:07:56.000Z</time>
</trkpt>
<trkpt lat="45.8529440" lon="9.2946250">
	<ele>701.20</ele>
	<time>2024-03-25T07:07:57.000Z</time>
</trkpt>
<trkpt lat="45.8529380" lon="9.2946300">
	<ele>701.40</ele>
	<time>2024-03-25T07:07:58.000Z</time>
</trkpt>
<trkpt lat="45.8529310" lon="9.2946390">
	<ele>701.60</ele>
	<time>2024-03-25T07:07:59.000Z</time>
</trkpt>
<trkpt lat="45.8529230" lon="9.2946440">
	<ele>701.60</ele>
	<time>2024-03-25T07:08:00.000Z</time>
</trkpt>
<trkpt lat="45.8529180" lon="9.2946550">
	<ele>701.80</ele>
	<time>2024-03-25T07:08:01.000Z</time>
</trkpt>
<trkpt lat="45.8529140" lon="9.2946660">
	<ele>702.00</ele>
	<time>2024-03-25T07:08:02.000Z</time>
</trkpt>
<trkpt lat="45.8529120" lon="9.2946740">
	<ele>702.20</ele>
	<time>2024-03-25T07:08:03.000Z</time>
</trkpt>
<trkpt lat="45.8529090" lon="9.2946810">
	<ele>702.40</ele>
	<time>2024-03-25T07:08:04.000Z</time>
</trkpt>
<trkpt lat="45.8529080" lon="9.2946830">
	<ele>702.40</ele>
	<time>2024-03-25T07:08:05.000Z</time>
</trkpt>
<trkpt lat="45.8529100" lon="9.2946930">
	<ele>702.60</ele>
	<time>2024-03-25T07:08:06.000Z</time>
</trkpt>
<trkpt lat="45.8529120" lon="9.2947130">
	<ele>702.60</ele>
	<time>2024-03-25T07:08:07.000Z</time>
</trkpt>
<trkpt lat="45.8529150" lon="9.2947390">
	<ele>702.80</ele>
	<time>2024-03-25T07:08:08.000Z</time>
</trkpt>
<trkpt lat="45.8529160" lon="9.2947600">
	<ele>702.80</ele>
	<time>2024-03-25T07:08:09.000Z</time>
</trkpt>
<trkpt lat="45.8529200" lon="9.2947810">
	<ele>703.00</ele>
	<time>2024-03-25T07:08:10.000Z</time>
</trkpt>
<trkpt lat="45.8529220" lon="9.2947950">
	<ele>703.20</ele>
	<time>2024-03-25T07:08:11.000Z</time>
</trkpt>
<trkpt lat="45.8529230" lon="9.2948100">
	<ele>703.20</ele>
	<time>2024-03-25T07:08:12.000Z</time>
</trkpt>
<trkpt lat="45.8529260" lon="9.2948240">
	<ele>703.40</ele>
	<time>2024-03-25T07:08:13.000Z</time>
</trkpt>
<trkpt lat="45.8529280" lon="9.2948380">
	<ele>703.80</ele>
	<time>2024-03-25T07:08:14.000Z</time>
</trkpt>
<trkpt lat="45.8529300" lon="9.2948560">
	<ele>703.80</ele>
	<time>2024-03-25T07:08:15.000Z</time>
</trkpt>
<trkpt lat="45.8529320" lon="9.2948720">
	<ele>704.00</ele>
	<time>2024-03-25T07:08:16.000Z</time>
</trkpt>
<trkpt lat="45.8529330" lon="9.2948880">
	<ele>704.20</ele>
	<time>2024-03-25T07:08:17.000Z</time>
</trkpt>
<trkpt lat="45.8529310" lon="9.2948990">
	<ele>704.20</ele>
	<time>2024-03-25T07:08:18.000Z</time>
</trkpt>
<trkpt lat="45.8529350" lon="9.2949020">
	<ele>704.40</ele>
	<time>2024-03-25T07:08:19.000Z</time>
</trkpt>
<trkpt lat="45.8529400" lon="9.2949130">
	<ele>704.40</ele>
	<time>2024-03-25T07:08:20.000Z</time>
</trkpt>
<trkpt lat="45.8529470" lon="9.2949250">
	<ele>704.40</ele>
	<time>2024-03-25T07:08:21.000Z</time>
</trkpt>
<trkpt lat="45.8529570" lon="9.2949390">
	<ele>704.60</ele>
	<time>2024-03-25T07:08:22.000Z</time>
</trkpt>
<trkpt lat="45.8529620" lon="9.2949450">
	<ele>704.80</ele>
	<time>2024-03-25T07:08:23.000Z</time>
</trkpt>
<trkpt lat="45.8529680" lon="9.2949470">
	<ele>705.00</ele>
	<time>2024-03-25T07:08:24.000Z</time>
</trkpt>
<trkpt lat="45.8529710" lon="9.2949560">
	<ele>705.00</ele>
	<time>2024-03-25T07:08:25.000Z</time>
</trkpt>
<trkpt lat="45.8529770" lon="9.2949650">
	<ele>705.20</ele>
	<time>2024-03-25T07:08:26.000Z</time>
</trkpt>
<trkpt lat="45.8529930" lon="9.2949750">
	<ele>705.60</ele>
	<time>2024-03-25T07:08:27.000Z</time>
</trkpt>
<trkpt lat="45.8530080" lon="9.2949820">
	<ele>705.80</ele>
	<time>2024-03-25T07:08:28.000Z</time>
</trkpt>
<trkpt lat="45.8530160" lon="9.2949970">
	<ele>705.80</ele>
	<time>2024-03-25T07:08:29.000Z</time>
</trkpt>
<trkpt lat="45.8530120" lon="9.2950000">
	<ele>706.00</ele>
	<time>2024-03-25T07:08:30.000Z</time>
</trkpt>
<trkpt lat="45.8530010" lon="9.2950030">
	<ele>706.00</ele>
	<time>2024-03-25T07:08:31.000Z</time>
</trkpt>
<trkpt lat="45.8530030" lon="9.2950120">
	<ele>706.00</ele>
	<time>2024-03-25T07:08:32.000Z</time>
</trkpt>
<trkpt lat="45.8530040" lon="9.2950280">
	<ele>706.20</ele>
	<time>2024-03-25T07:08:33.000Z</time>
</trkpt>
<trkpt lat="45.8530050" lon="9.2950550">
	<ele>706.40</ele>
	<time>2024-03-25T07:08:34.000Z</time>
</trkpt>
<trkpt lat="45.8530060" lon="9.2950670">
	<ele>706.40</ele>
	<time>2024-03-25T07:08:35.000Z</time>
</trkpt>
<trkpt lat="45.8530100" lon="9.2950680">
	<ele>706.60</ele>
	<time>2024-03-25T07:08:36.000Z</time>
</trkpt>
<trkpt lat="45.8530180" lon="9.2950840">
	<ele>706.60</ele>
	<time>2024-03-25T07:08:37.000Z</time>
</trkpt>
<trkpt lat="45.8530250" lon="9.2951060">
	<ele>706.80</ele>
	<time>2024-03-25T07:08:38.000Z</time>
</trkpt>
<trkpt lat="45.8530190" lon="9.2951080">
	<ele>707.00</ele>
	<time>2024-03-25T07:08:39.000Z</time>
</trkpt>
<trkpt lat="45.8530160" lon="9.2951210">
	<ele>707.00</ele>
	<time>2024-03-25T07:08:40.000Z</time>
</trkpt>
<trkpt lat="45.8530230" lon="9.2951240">
	<ele>707.20</ele>
	<time>2024-03-25T07:08:41.000Z</time>
</trkpt>
<trkpt lat="45.8530270" lon="9.2951340">
	<ele>707.40</ele>
	<time>2024-03-25T07:08:42.000Z</time>
</trkpt>
<trkpt lat="45.8530310" lon="9.2951530">
	<ele>707.40</ele>
	<time>2024-03-25T07:08:43.000Z</time>
</trkpt>
<trkpt lat="45.8530360" lon="9.2951680">
	<ele>707.60</ele>
	<time>2024-03-25T07:08:44.000Z</time>
</trkpt>
<trkpt lat="45.8530380" lon="9.2951840">
	<ele>707.80</ele>
	<time>2024-03-25T07:08:45.000Z</time>
</trkpt>
<trkpt lat="45.8530410" lon="9.2951980">
	<ele>707.80</ele>
	<time>2024-03-25T07:08:46.000Z</time>
</trkpt>
<trkpt lat="45.8530430" lon="9.2952140">
	<ele>708.00</ele>
	<time>2024-03-25T07:08:47.000Z</time>
</trkpt>
<trkpt lat="45.8530450" lon="9.2952280">
	<ele>708.20</ele>
	<time>2024-03-25T07:08:48.000Z</time>
</trkpt>
<trkpt lat="45.8530450" lon="9.2952380">
	<ele>708.20</ele>
	<time>2024-03-25T07:08:49.000Z</time>
</trkpt>
<trkpt lat="45.8530480" lon="9.2952490">
	<ele>708.40</ele>
	<time>2024-03-25T07:08:50.000Z</time>
</trkpt>
<trkpt lat="45.8530510" lon="9.2952660">
	<ele>708.60</ele>
	<time>2024-03-25T07:08:51.000Z</time>
</trkpt>
<trkpt lat="45.8530500" lon="9.2952780">
	<ele>708.60</ele>
	<time>2024-03-25T07:08:52.000Z</time>
</trkpt>
<trkpt lat="45.8530520" lon="9.2952910">
	<ele>708.80</ele>
	<time>2024-03-25T07:08:53.000Z</time>
</trkpt>
<trkpt lat="45.8530490" lon="9.2952900">
	<ele>709.00</ele>
	<time>2024-03-25T07:08:54.000Z</time>
</trkpt>
<trkpt lat="45.8530460" lon="9.2953010">
	<ele>709.20</ele>
	<time>2024-03-25T07:08:55.000Z</time>
</trkpt>
<trkpt lat="45.8530430" lon="9.2953120">
	<ele>709.20</ele>
	<time>2024-03-25T07:08:56.000Z</time>
</trkpt>
<trkpt lat="45.8530420" lon="9.2953340">
	<ele>709.40</ele>
	<time>2024-03-25T07:08:57.000Z</time>
</trkpt>
<trkpt lat="45.8530430" lon="9.2953470">
	<ele>709.60</ele>
	<time>2024-03-25T07:08:58.000Z</time>
</trkpt>
<trkpt lat="45.8530460" lon="9.2953610">
	<ele>709.80</ele>
	<time>2024-03-25T07:08:59.000Z</time>
</trkpt>
<trkpt lat="45.8530510" lon="9.2953700">
	<ele>709.80</ele>
	<time>2024-03-25T07:09:00.000Z</time>
</trkpt>
<trkpt lat="45.8530550" lon="9.2953780">
	<ele>710.00</ele>
	<time>2024-03-25T07:09:01.000Z</time>
</trkpt>
<trkpt lat="45.8530590" lon="9.2953860">
	<ele>710.20</ele>
	<time>2024-03-25T07:09:02.000Z</time>
</trkpt>
<trkpt lat="45.8530630" lon="9.2953970">
	<ele>710.20</ele>
	<time>2024-03-25T07:09:03.000Z</time>
</trkpt>
<trkpt lat="45.8530670" lon="9.2954120">
	<ele>710.40</ele>
	<time>2024-03-25T07:09:04.000Z</time>
</trkpt>
<trkpt lat="45.8530680" lon="9.2954230">
	<ele>710.60</ele>
	<time>2024-03-25T07:09:05.000Z</time>
</trkpt>
<trkpt lat="45.8530670" lon="9.2954480">
	<ele>710.80</ele>
	<time>2024-03-25T07:09:06.000Z</time>
</trkpt>
<trkpt lat="45.8530610" lon="9.2954690">
	<ele>710.80</ele>
	<time>2024-03-25T07:09:07.000Z</time>
</trkpt>
<trkpt lat="45.8530560" lon="9.2954770">
	<ele>711.00</ele>
	<time>2024-03-25T07:09:08.000Z</time>
</trkpt>
<trkpt lat="45.8530530" lon="9.2954880">
	<ele>711.20</ele>
	<time>2024-03-25T07:09:09.000Z</time>
</trkpt>
<trkpt lat="45.8530540" lon="9.2954960">
	<ele>711.40</ele>
	<time>2024-03-25T07:09:10.000Z</time>
</trkpt>
<trkpt lat="45.8530560" lon="9.2955060">
	<ele>711.60</ele>
	<time>2024-03-25T07:09:11.000Z</time>
</trkpt>
<trkpt lat="45.8530570" lon="9.2955130">
	<ele>711.60</ele>
	<time>2024-03-25T07:09:12.000Z</time>
</trkpt>
<trkpt lat="45.8530580" lon="9.2955170">
	<ele>711.80</ele>
	<time>2024-03-25T07:09:13.000Z</time>
</trkpt>
<trkpt lat="45.8530590" lon="9.2955240">
	<ele>712.00</ele>
	<time>2024-03-25T07:09:14.000Z</time>
</trkpt>
<trkpt lat="45.8530620" lon="9.2955360">
	<ele>712.00</ele>
	<time>2024-03-25T07:09:15.000Z</time>
</trkpt>
<trkpt lat="45.8530640" lon="9.2955490">
	<ele>712.20</ele>
	<time>2024-03-25T07:09:16.000Z</time>
</trkpt>
<trkpt lat="45.8530670" lon="9.2955580">
	<ele>712.40</ele>
	<time>2024-03-25T07:09:17.000Z</time>
</trkpt>
<trkpt lat="45.8530730" lon="9.2955690">
	<ele>712.80</ele>
	<time>2024-03-25T07:09:18.000Z</time>
</trkpt>
<trkpt lat="45.8530760" lon="9.2955800">
	<ele>712.80</ele>
	<time>2024-03-25T07:09:19.000Z</time>
</trkpt>
<trkpt lat="45.8530800" lon="9.2955950">
	<ele>713.00</ele>
	<time>2024-03-25T07:09:20.000Z</time>
</trkpt>
<trkpt lat="45.8530850" lon="9.2956130">
	<ele>713.00</ele>
	<time>2024-03-25T07:09:21.000Z</time>
</trkpt>
<trkpt lat="45.8530880" lon="9.2956260">
	<ele>713.00</ele>
	<time>2024-03-25T07:09:22.000Z</time>
</trkpt>
<trkpt lat="45.8530880" lon="9.2956380">
	<ele>713.20</ele>
	<time>2024-03-25T07:09:23.000Z</time>
</trkpt>
<trkpt lat="45.8530890" lon="9.2956470">
	<ele>713.20</ele>
	<time>2024-03-25T07:09:24.000Z</time>
</trkpt>
<trkpt lat="45.8530890" lon="9.2956570">
	<ele>713.20</ele>
	<time>2024-03-25T07:09:25.000Z</time>
</trkpt>
<trkpt lat="45.8530930" lon="9.2956690">
	<ele>713.40</ele>
	<time>2024-03-25T07:09:26.000Z</time>
</trkpt>
<trkpt lat="45.8530960" lon="9.2956710">
	<ele>713.60</ele>
	<time>2024-03-25T07:09:27.000Z</time>
</trkpt>
<trkpt lat="45.8531000" lon="9.2956750">
	<ele>713.60</ele>
	<time>2024-03-25T07:09:28.000Z</time>
</trkpt>
<trkpt lat="45.8531100" lon="9.2956770">
	<ele>713.80</ele>
	<time>2024-03-25T07:09:29.000Z</time>
</trkpt>
<trkpt lat="45.8531180" lon="9.2956830">
	<ele>713.80</ele>
	<time>2024-03-25T07:09:30.000Z</time>
</trkpt>
<trkpt lat="45.8531230" lon="9.2956910">
	<ele>714.00</ele>
	<time>2024-03-25T07:09:31.000Z</time>
</trkpt>
<trkpt lat="45.8531220" lon="9.2957000">
	<ele>714.00</ele>
	<time>2024-03-25T07:09:32.000Z</time>
</trkpt>
<trkpt lat="45.8531230" lon="9.2957150">
	<ele>714.20</ele>
	<time>2024-03-25T07:09:33.000Z</time>
</trkpt>
<trkpt lat="45.8531200" lon="9.2957240">
	<ele>714.40</ele>
	<time>2024-03-25T07:09:34.000Z</time>
</trkpt>
<trkpt lat="45.8531160" lon="9.2957410">
	<ele>714.60</ele>
	<time>2024-03-25T07:09:35.000Z</time>
</trkpt>
<trkpt lat="45.8531110" lon="9.2957540">
	<ele>715.00</ele>
	<time>2024-03-25T07:09:36.000Z</time>
</trkpt>
<trkpt lat="45.8531140" lon="9.2957680">
	<ele>715.00</ele>
	<time>2024-03-25T07:09:37.000Z</time>
</trkpt>
<trkpt lat="45.8531160" lon="9.2957780">
	<ele>715.20</ele>
	<time>2024-03-25T07:09:38.000Z</time>
</trkpt>
<trkpt lat="45.8531210" lon="9.2957950">
	<ele>715.40</ele>
	<time>2024-03-25T07:09:39.000Z</time>
</trkpt>
<trkpt lat="45.8531240" lon="9.2958120">
	<ele>715.40</ele>
	<time>2024-03-25T07:09:40.000Z</time>
</trkpt>
<trkpt lat="45.8531240" lon="9.2958290">
	<ele>715.60</ele>
	<time>2024-03-25T07:09:41.000Z</time>
</trkpt>
<trkpt lat="45.8531180" lon="9.2958400">
	<ele>715.80</ele>
	<time>2024-03-25T07:09:42.000Z</time>
</trkpt>
<trkpt lat="45.8531160" lon="9.2958550">
	<ele>716.00</ele>
	<time>2024-03-25T07:09:43.000Z</time>
</trkpt>
<trkpt lat="45.8531180" lon="9.2958720">
	<ele>716.00</ele>
	<time>2024-03-25T07:09:44.000Z</time>
</trkpt>
<trkpt lat="45.8531160" lon="9.2958880">
	<ele>716.20</ele>
	<time>2024-03-25T07:09:45.000Z</time>
</trkpt>
<trkpt lat="45.8531040" lon="9.2959010">
	<ele>716.20</ele>
	<time>2024-03-25T07:09:46.000Z</time>
</trkpt>
<trkpt lat="45.8530950" lon="9.2959160">
	<ele>716.40</ele>
	<time>2024-03-25T07:09:47.000Z</time>
</trkpt>
<trkpt lat="45.8530930" lon="9.2959250">
	<ele>716.60</ele>
	<time>2024-03-25T07:09:48.000Z</time>
</trkpt>
<trkpt lat="45.8530950" lon="9.2959320">
	<ele>716.80</ele>
	<time>2024-03-25T07:09:49.000Z</time>
</trkpt>
<trkpt lat="45.8531000" lon="9.2959390">
	<ele>716.80</ele>
	<time>2024-03-25T07:09:50.000Z</time>
</trkpt>
<trkpt lat="45.8531030" lon="9.2959450">
	<ele>717.00</ele>
	<time>2024-03-25T07:09:51.000Z</time>
</trkpt>
<trkpt lat="45.8531070" lon="9.2959520">
	<ele>717.00</ele>
	<time>2024-03-25T07:09:52.000Z</time>
</trkpt>
<trkpt lat="45.8531060" lon="9.2959650">
	<ele>717.20</ele>
	<time>2024-03-25T07:09:53.000Z</time>
</trkpt>
<trkpt lat="45.8531070" lon="9.2959760">
	<ele>717.20</ele>
	<time>2024-03-25T07:09:54.000Z</time>
</trkpt>
<trkpt lat="45.8531080" lon="9.2959890">
	<ele>717.40</ele>
	<time>2024-03-25T07:09:55.000Z</time>
</trkpt>
<trkpt lat="45.8531140" lon="9.2959960">
	<ele>717.60</ele>
	<time>2024-03-25T07:09:56.000Z</time>
</trkpt>
<trkpt lat="45.8531130" lon="9.2960100">
	<ele>718.00</ele>
	<time>2024-03-25T07:09:57.000Z</time>
</trkpt>
<trkpt lat="45.8531130" lon="9.2960120">
	<ele>718.20</ele>
	<time>2024-03-25T07:09:58.000Z</time>
</trkpt>
<trkpt lat="45.8531100" lon="9.2960230">
	<ele>718.40</ele>
	<time>2024-03-25T07:09:59.000Z</time>
</trkpt>
<trkpt lat="45.8531070" lon="9.2960350">
	<ele>718.60</ele>
	<time>2024-03-25T07:10:00.000Z</time>
</trkpt>
<trkpt lat="45.8531060" lon="9.2960410">
	<ele>718.60</ele>
	<time>2024-03-25T07:10:01.000Z</time>
</trkpt>
<trkpt lat="45.8531050" lon="9.2960480">
	<ele>718.80</ele>
	<time>2024-03-25T07:10:02.000Z</time>
</trkpt>
<trkpt lat="45.8531060" lon="9.2960630">
	<ele>719.00</ele>
	<time>2024-03-25T07:10:03.000Z</time>
</trkpt>
<trkpt lat="45.8531030" lon="9.2960800">
	<ele>719.00</ele>
	<time>2024-03-25T07:10:04.000Z</time>
</trkpt>
<trkpt lat="45.8530970" lon="9.2960980">
	<ele>719.00</ele>
	<time>2024-03-25T07:10:05.000Z</time>
</trkpt>
<trkpt lat="45.8530900" lon="9.2961120">
	<ele>719.20</ele>
	<time>2024-03-25T07:10:06.000Z</time>
</trkpt>
<trkpt lat="45.8530910" lon="9.2961260">
	<ele>719.40</ele>
	<time>2024-03-25T07:10:07.000Z</time>
</trkpt>
<trkpt lat="45.8530910" lon="9.2961450">
	<ele>719.60</ele>
	<time>2024-03-25T07:10:08.000Z</time>
</trkpt>
<trkpt lat="45.8530900" lon="9.2961620">
	<ele>719.60</ele>
	<time>2024-03-25T07:10:09.000Z</time>
</trkpt>
<trkpt lat="45.8530870" lon="9.2961830">
	<ele>719.80</ele>
	<time>2024-03-25T07:10:10.000Z</time>
</trkpt>
<trkpt lat="45.8530860" lon="9.2962040">
	<ele>720.00</ele>
	<time>2024-03-25T07:10:11.000Z</time>
</trkpt>
<trkpt lat="45.8530850" lon="9.2962190">
	<ele>720.20</ele>
	<time>2024-03-25T07:10:12.000Z</time>
</trkpt>
<trkpt lat="45.8530820" lon="9.2962290">
	<ele>720.40</ele>
	<time>2024-03-25T07:10:13.000Z</time>
</trkpt>
<trkpt lat="45.8530790" lon="9.2962390">
	<ele>720.40</ele>
	<time>2024-03-25T07:10:14.000Z</time>
</trkpt>
<trkpt lat="45.8530770" lon="9.2962490">
	<ele>720.60</ele>
	<time>2024-03-25T07:10:15.000Z</time>
</trkpt>
<trkpt lat="45.8530780" lon="9.2962600">
	<ele>720.80</ele>
	<time>2024-03-25T07:10:16.000Z</time>
</trkpt>
<trkpt lat="45.8530800" lon="9.2962780">
	<ele>721.00</ele>
	<time>2024-03-25T07:10:17.000Z</time>
</trkpt>
<trkpt lat="45.8530760" lon="9.2962870">
	<ele>721.20</ele>
	<time>2024-03-25T07:10:18.000Z</time>
</trkpt>
<trkpt lat="45.8530740" lon="9.2962880">
	<ele>721.20</ele>
	<time>2024-03-25T07:10:19.000Z</time>
</trkpt>
<trkpt lat="45.8530690" lon="9.2962950">
	<ele>721.40</ele>
	<time>2024-03-25T07:10:20.000Z</time>
</trkpt>
<trkpt lat="45.8530640" lon="9.2963010">
	<ele>721.40</ele>
	<time>2024-03-25T07:10:21.000Z</time>
</trkpt>
<trkpt lat="45.8530570" lon="9.2963030">
	<ele>721.80</ele>
	<time>2024-03-25T07:10:22.000Z</time>
</trkpt>
<trkpt lat="45.8530550" lon="9.2963070">
	<ele>721.80</ele>
	<time>2024-03-25T07:10:23.000Z</time>
</trkpt>
<trkpt lat="45.8530500" lon="9.2963220">
	<ele>722.00</ele>
	<time>2024-03-25T07:10:24.000Z</time>
</trkpt>
<trkpt lat="45.8530470" lon="9.2963370">
	<ele>722.20</ele>
	<time>2024-03-25T07:10:25.000Z</time>
</trkpt>
<trkpt lat="45.8530420" lon="9.2963560">
	<ele>722.20</ele>
	<time>2024-03-25T07:10:26.000Z</time>
</trkpt>
<trkpt lat="45.8530410" lon="9.2963640">
	<ele>722.60</ele>
	<time>2024-03-25T07:10:27.000Z</time>
</trkpt>
<trkpt lat="45.8530420" lon="9.2963760">
	<ele>722.80</ele>
	<time>2024-03-25T07:10:28.000Z</time>
</trkpt>
<trkpt lat="45.8530450" lon="9.2963900">
	<ele>723.00</ele>
	<time>2024-03-25T07:10:29.000Z</time>
</trkpt>
<trkpt lat="45.8530500" lon="9.2964030">
	<ele>723.00</ele>
	<time>2024-03-25T07:10:30.000Z</time>
</trkpt>
<trkpt lat="45.8530500" lon="9.2964150">
	<ele>723.20</ele>
	<time>2024-03-25T07:10:31.000Z</time>
</trkpt>
<trkpt lat="45.8530510" lon="9.2964300">
	<ele>723.40</ele>
	<time>2024-03-25T07:10:32.000Z</time>
</trkpt>
<trkpt lat="45.8530510" lon="9.2964450">
	<ele>723.60</ele>
	<time>2024-03-25T07:10:33.000Z</time>
</trkpt>
<trkpt lat="45.8530520" lon="9.2964540">
	<ele>723.80</ele>
	<time>2024-03-25T07:10:34.000Z</time>
</trkpt>
<trkpt lat="45.8530520" lon="9.2964680">
	<ele>724.00</ele>
	<time>2024-03-25T07:10:35.000Z</time>
</trkpt>
<trkpt lat="45.8530480" lon="9.2964780">
	<ele>724.00</ele>
	<time>2024-03-25T07:10:36.000Z</time>
</trkpt>
<trkpt lat="45.8530460" lon="9.2964930">
	<ele>724.00</ele>
	<time>2024-03-25T07:10:37.000Z</time>
</trkpt>
<trkpt lat="45.8530470" lon="9.2965090">
	<ele>724.00</ele>
	<time>2024-03-25T07:10:38.000Z</time>
</trkpt>
<trkpt lat="45.8530480" lon="9.2965230">
	<ele>724.20</ele>
	<time>2024-03-25T07:10:39.000Z</time>
</trkpt>
<trkpt lat="45.8530520" lon="9.2965350">
	<ele>724.20</ele>
	<time>2024-03-25T07:10:40.000Z</time>
</trkpt>
<trkpt lat="45.8530540" lon="9.2965500">
	<ele>724.20</ele>
	<time>2024-03-25T07:10:41.000Z</time>
</trkpt>
<trkpt lat="45.8530550" lon="9.2965730">
	<ele>724.20</ele>
	<time>2024-03-25T07:10:42.000Z</time>
</trkpt>
<trkpt lat="45.8530520" lon="9.2965940">
	<ele>724.40</ele>
	<time>2024-03-25T07:10:43.000Z</time>
</trkpt>
<trkpt lat="45.8530500" lon="9.2966110">
	<ele>724.60</ele>
	<time>2024-03-25T07:10:44.000Z</time>
</trkpt>
<trkpt lat="45.8530450" lon="9.2966220">
	<ele>724.60</ele>
	<time>2024-03-25T07:10:45.000Z</time>
</trkpt>
<trkpt lat="45.8530420" lon="9.2966340">
	<ele>724.60</ele>
	<time>2024-03-25T07:10:46.000Z</time>
</trkpt>
<trkpt lat="45.8530410" lon="9.2966470">
	<ele>724.60</ele>
	<time>2024-03-25T07:10:47.000Z</time>
</trkpt>
<trkpt lat="45.8530400" lon="9.2966540">
	<ele>724.80</ele>
	<time>2024-03-25T07:10:48.000Z</time>
</trkpt>
<trkpt lat="45.8530440" lon="9.2966630">
	<ele>724.80</ele>
	<time>2024-03-25T07:10:49.000Z</time>
</trkpt>
<trkpt lat="45.8530510" lon="9.2966730">
	<ele>725.00</ele>
	<time>2024-03-25T07:10:50.000Z</time>
</trkpt>
<trkpt lat="45.8530540" lon="9.2966790">
	<ele>725.00</ele>
	<time>2024-03-25T07:10:51.000Z</time>
</trkpt>
<trkpt lat="45.8530630" lon="9.2966870">
	<ele>725.20</ele>
	<time>2024-03-25T07:10:52.000Z</time>
</trkpt>
<trkpt lat="45.8530680" lon="9.2966960">
	<ele>725.40</ele>
	<time>2024-03-25T07:10:53.000Z</time>
</trkpt>
<trkpt lat="45.8530710" lon="9.2967060">
	<ele>725.40</ele>
	<time>2024-03-25T07:10:54.000Z</time>
</trkpt>
<trkpt lat="45.8530730" lon="9.2967190">
	<ele>725.40</ele>
	<time>2024-03-25T07:10:55.000Z</time>
</trkpt>
<trkpt lat="45.8530740" lon="9.2967340">
	<ele>725.60</ele>
	<time>2024-03-25T07:10:56.000Z</time>
</trkpt>
<trkpt lat="45.8530750" lon="9.2967480">
	<ele>725.60</ele>
	<time>2024-03-25T07:10:57.000Z</time>
</trkpt>
<trkpt lat="45.8530690" lon="9.2967750">
	<ele>725.60</ele>
	<time>2024-03-25T07:10:58.000Z</time>
</trkpt>
<trkpt lat="45.8530640" lon="9.2967990">
	<ele>725.80</ele>
	<time>2024-03-25T07:10:59.000Z</time>
</trkpt>
<trkpt lat="45.8530610" lon="9.2968210">
	<ele>726.00</ele>
	<time>2024-03-25T07:11:00.000Z</time>
</trkpt>
<trkpt lat="45.8530660" lon="9.2968390">
	<ele>726.00</ele>
	<time>2024-03-25T07:11:01.000Z</time>
</trkpt>
<trkpt lat="45.8530690" lon="9.2968530">
	<ele>726.20</ele>
	<time>2024-03-25T07:11:02.000Z</time>
</trkpt>
<trkpt lat="45.8530700" lon="9.2968570">
	<ele>726.40</ele>
	<time>2024-03-25T07:11:03.000Z</time>
</trkpt>
<trkpt lat="45.8530710" lon="9.2968590">
	<ele>726.40</ele>
	<time>2024-03-25T07:11:04.000Z</time>
</trkpt>
<trkpt lat="45.8530700" lon="9.2968610">
	<ele>726.40</ele>
	<time>2024-03-25T07:11:05.000Z</time>
</trkpt>
<trkpt lat="45.8530700" lon="9.2968630">
	<ele>726.40</ele>
	<time>2024-03-25T07:11:06.000Z</time>
</trkpt>
<trkpt lat="45.8530690" lon="9.2968610">
	<ele>726.40</ele>
	<time>2024-03-25T07:11:07.000Z</time>
</trkpt>
<trkpt lat="45.8530690" lon="9.2968610">
	<ele>726.40</ele>
	<time>2024-03-25T07:11:08.000Z</time>
</trkpt>
<trkpt lat="45.8530700" lon="9.2968620">
	<ele>726.60</ele>
	<time>2024-03-25T07:11:09.000Z</time>
</trkpt>
<trkpt lat="45.8530700" lon="9.2968620">
	<ele>726.60</ele>
	<time>2024-03-25T07:11:10.000Z</time>
</trkpt>
<trkpt lat="45.8530700" lon="9.2968630">
	<ele>726.60</ele>
	<time>2024-03-25T07:11:11.000Z</time>
</trkpt>
<trkpt lat="45.8530710" lon="9.2968660">
	<ele>726.80</ele>
	<time>2024-03-25T07:11:12.000Z</time>
</trkpt>
<trkpt lat="45.8530710" lon="9.2968680">
	<ele>726.80</ele>
	<time>2024-03-25T07:11:13.000Z</time>
</trkpt>
<trkpt lat="45.8530730" lon="9.2968710">
	<ele>726.80</ele>
	<time>2024-03-25T07:11:14.000Z</time>
</trkpt>
<trkpt lat="45.8530740" lon="9.2968720">
	<ele>726.80</ele>
	<time>2024-03-25T07:11:15.000Z</time>
</trkpt>
<trkpt lat="45.8530740" lon="9.2968750">
	<ele>727.00</ele>
	<time>2024-03-25T07:11:16.000Z</time>
</trkpt>
<trkpt lat="45.8530740" lon="9.2968780">
	<ele>727.00</ele>
	<time>2024-03-25T07:11:17.000Z</time>
</trkpt>
<trkpt lat="45.8530740" lon="9.2968770">
	<ele>727.00</ele>
	<time>2024-03-25T07:11:18.000Z</time>
</trkpt>
<trkpt lat="45.8530740" lon="9.2968770">
	<ele>726.80</ele>
	<time>2024-03-25T07:11:19.000Z</time>
</trkpt>
<trkpt lat="45.8530740" lon="9.2968770">
	<ele>726.80</ele>
	<time>2024-03-25T07:11:20.000Z</time>
</trkpt>
<trkpt lat="45.8530740" lon="9.2968770">
	<ele>726.80</ele>
	<time>2024-03-25T07:11:21.000Z</time>
</trkpt>
<trkpt lat="45.8530740" lon="9.2968770">
	<ele>726.80</ele>
	<time>2024-03-25T07:11:22.000Z</time>
</trkpt>
<trkpt lat="45.8530740" lon="9.2968770">
	<ele>726.80</ele>
	<time>2024-03-25T07:11:23.000Z</time>
</trkpt>
<trkpt lat="45.8530740" lon="9.2968770">
	<ele>726.80</ele>
	<time>2024-03-25T07:11:24.000Z</time>
</trkpt>
<trkpt lat="45.8530740" lon="9.2968770">
	<ele>726.80</ele>
	<time>2024-03-25T07:11:25.000Z</time>
</trkpt>
<trkpt lat="45.8530740" lon="9.2968770">
	<ele>727.00</ele>
	<time>2024-03-25T07:11:26.000Z</time>
</trkpt>
<trkpt lat="45.8530740" lon="9.2968770">
	<ele>726.80</ele>
	<time>2024-03-25T07:11:27.000Z</time>
</trkpt>
<trkpt lat="45.8530740" lon="9.2968770">
	<ele>726.60</ele>
	<time>2024-03-25T07:11:28.000Z</time>
</trkpt>
<trkpt lat="45.8530740" lon="9.2968770">
	<ele>726.40</ele>
	<time>2024-03-25T07:11:29.000Z</time>
</trkpt>
<trkpt lat="45.8530740" lon="9.2968770">
	<ele>726.20</ele>
	<time>2024-03-25T07:11:30.000Z</time>
</trkpt>
<trkpt lat="45.8530740" lon="9.2968770">
	<ele>726.20</ele>
	<time>2024-03-25T07:11:31.000Z</time>
</trkpt>
<trkpt lat="45.8530740" lon="9.2968770">
	<ele>726.20</ele>
	<time>2024-03-25T07:11:32.000Z</time>
</trkpt>
<trkpt lat="45.8530740" lon="9.2968780">
	<ele>726.20</ele>
	<time>2024-03-25T07:11:33.000Z</time>
</trkpt>
<trkpt lat="45.8530740" lon="9.2968790">
	<ele>726.20</ele>
	<time>2024-03-25T07:11:34.000Z</time>
</trkpt>
<trkpt lat="45.8530740" lon="9.2968800">
	<ele>726.40</ele>
	<time>2024-03-25T07:11:35.000Z</time>
</trkpt>
<trkpt lat="45.8530740" lon="9.2968800">
	<ele>726.60</ele>
	<time>2024-03-25T07:11:36.000Z</time>
</trkpt>
<trkpt lat="45.8530740" lon="9.2968830">
	<ele>726.60</ele>
	<time>2024-03-25T07:11:37.000Z</time>
</trkpt>
<trkpt lat="45.8530740" lon="9.2968870">
	<ele>726.60</ele>
	<time>2024-03-25T07:11:38.000Z</time>
</trkpt>
<trkpt lat="45.8530740" lon="9.2968920">
	<ele>727.00</ele>
	<time>2024-03-25T07:11:39.000Z</time>
</trkpt>
<trkpt lat="45.8530740" lon="9.2969010">
	<ele>727.40</ele>
	<time>2024-03-25T07:11:40.000Z</time>
</trkpt>
<trkpt lat="45.8530740" lon="9.2969060">
	<ele>727.60</ele>
	<time>2024-03-25T07:11:41.000Z</time>
</trkpt>
<trkpt lat="45.8530740" lon="9.2969080">
	<ele>727.60</ele>
	<time>2024-03-25T07:11:42.000Z</time>
</trkpt>
<trkpt lat="45.8530740" lon="9.2969100">
	<ele>727.60</ele>
	<time>2024-03-25T07:11:43.000Z</time>
</trkpt>
<trkpt lat="45.8530740" lon="9.2969110">
	<ele>727.60</ele>
	<time>2024-03-25T07:11:44.000Z</time>
</trkpt>
<trkpt lat="45.8530740" lon="9.2969140">
	<ele>727.60</ele>
	<time>2024-03-25T07:11:45.000Z</time>
</trkpt>
<trkpt lat="45.8530680" lon="9.2969190">
	<ele>727.60</ele>
	<time>2024-03-25T07:11:46.000Z</time>
</trkpt>
<trkpt lat="45.8530670" lon="9.2969200">
	<ele>727.60</ele>
	<time>2024-03-25T07:11:47.000Z</time>
</trkpt>
<trkpt lat="45.8530670" lon="9.2969230">
	<ele>727.60</ele>
	<time>2024-03-25T07:11:48.000Z</time>
</trkpt>
<trkpt lat="45.8530670" lon="9.2969340">
	<ele>727.60</ele>
	<time>2024-03-25T07:11:49.000Z</time>
</trkpt>
<trkpt lat="45.8530670" lon="9.2969410">
	<ele>727.80</ele>
	<time>2024-03-25T07:11:50.000Z</time>
</trkpt>
<trkpt lat="45.8530660" lon="9.2969430">
	<ele>728.00</ele>
	<time>2024-03-25T07:11:51.000Z</time>
</trkpt>
<trkpt lat="45.8530660" lon="9.2969440">
	<ele>728.00</ele>
	<time>2024-03-25T07:11:52.000Z</time>
</trkpt>
<trkpt lat="45.8530650" lon="9.2969460">
	<ele>728.20</ele>
	<time>2024-03-25T07:11:53.000Z</time>
</trkpt>
<trkpt lat="45.8530650" lon="9.2969470">
	<ele>728.20</ele>
	<time>2024-03-25T07:11:54.000Z</time>
</trkpt>
<trkpt lat="45.8530650" lon="9.2969470">
	<ele>728.20</ele>
	<time>2024-03-25T07:11:55.000Z</time>
</trkpt>
<trkpt lat="45.8530640" lon="9.2969470">
	<ele>728.20</ele>
	<time>2024-03-25T07:11:56.000Z</time>
</trkpt>
<trkpt lat="45.8530640" lon="9.2969470">
	<ele>728.20</ele>
	<time>2024-03-25T07:11:57.000Z</time>
</trkpt>
<trkpt lat="45.8530640" lon="9.2969480">
	<ele>728.40</ele>
	<time>2024-03-25T07:11:58.000Z</time>
</trkpt>
<trkpt lat="45.8530640" lon="9.2969480">
	<ele>728.40</ele>
	<time>2024-03-25T07:11:59.000Z</time>
</trkpt>
<trkpt lat="45.8530640" lon="9.2969490">
	<ele>728.40</ele>
	<time>2024-03-25T07:12:00.000Z</time>
</trkpt>
<trkpt lat="45.8530640" lon="9.2969500">
	<ele>728.40</ele>
	<time>2024-03-25T07:12:01.000Z</time>
</trkpt>
<trkpt lat="45.8530650" lon="9.2969560">
	<ele>728.40</ele>
	<time>2024-03-25T07:12:02.000Z</time>
</trkpt>
<trkpt lat="45.8530650" lon="9.2969570">
	<ele>728.40</ele>
	<time>2024-03-25T07:12:03.000Z</time>
</trkpt>
<trkpt lat="45.8530650" lon="9.2969590">
	<ele>728.40</ele>
	<time>2024-03-25T07:12:04.000Z</time>
</trkpt>
<trkpt lat="45.8530660" lon="9.2969600">
	<ele>728.40</ele>
	<time>2024-03-25T07:12:05.000Z</time>
</trkpt>
<trkpt lat="45.8530660" lon="9.2969610">
	<ele>728.40</ele>
	<time>2024-03-25T07:12:06.000Z</time>
</trkpt>
<trkpt lat="45.8530670" lon="9.2969610">
	<ele>728.20</ele>
	<time>2024-03-25T07:12:07.000Z</time>
</trkpt>
<trkpt lat="45.8530670" lon="9.2969610">
	<ele>728.00</ele>
	<time>2024-03-25T07:12:08.000Z</time>
</trkpt>
<trkpt lat="45.8530670" lon="9.2969620">
	<ele>728.00</ele>
	<time>2024-03-25T07:12:09.000Z</time>
</trkpt>
<trkpt lat="45.8530670" lon="9.2969620">
	<ele>728.00</ele>
	<time>2024-03-25T07:12:10.000Z</time>
</trkpt>
<trkpt lat="45.8530680" lon="9.2969620">
	<ele>728.00</ele>
	<time>2024-03-25T07:12:11.000Z</time>
</trkpt>
<trkpt lat="45.8530680" lon="9.2969620">
	<ele>728.20</ele>
	<time>2024-03-25T07:12:12.000Z</time>
</trkpt>
<trkpt lat="45.8530680" lon="9.2969630">
	<ele>728.40</ele>
	<time>2024-03-25T07:12:13.000Z</time>
</trkpt>
<trkpt lat="45.8530700" lon="9.2969740">
	<ele>728.60</ele>
	<time>2024-03-25T07:12:14.000Z</time>
</trkpt>
<trkpt lat="45.8530750" lon="9.2970030">
	<ele>728.80</ele>
	<time>2024-03-25T07:12:15.000Z</time>
</trkpt>
<trkpt lat="45.8530790" lon="9.2970370">
	<ele>728.80</ele>
	<time>2024-03-25T07:12:16.000Z</time>
</trkpt>
<trkpt lat="45.8530860" lon="9.2970640">
	<ele>728.80</ele>
	<time>2024-03-25T07:12:17.000Z</time>
</trkpt>
<trkpt lat="45.8530960" lon="9.2970930">
	<ele>728.80</ele>
	<time>2024-03-25T07:12:18.000Z</time>
</trkpt>
<trkpt lat="45.8531000" lon="9.2971150">
	<ele>729.00</ele>
	<time>2024-03-25T07:12:19.000Z</time>
</trkpt>
<trkpt lat="45.8531040" lon="9.2971420">
	<ele>729.00</ele>
	<time>2024-03-25T07:12:20.000Z</time>
</trkpt>
<trkpt lat="45.8531030" lon="9.2971690">
	<ele>729.00</ele>
	<time>2024-03-25T07:12:21.000Z</time>
</trkpt>
<trkpt lat="45.8531050" lon="9.2971950">
	<ele>729.20</ele>
	<time>2024-03-25T07:12:22.000Z</time>
</trkpt>
<trkpt lat="45.8531000" lon="9.2972220">
	<ele>729.20</ele>
	<time>2024-03-25T07:12:23.000Z</time>
</trkpt>
<trkpt lat="45.8530870" lon="9.2972430">
	<ele>729.40</ele>
	<time>2024-03-25T07:12:24.000Z</time>
</trkpt>
<trkpt lat="45.8530760" lon="9.2972630">
	<ele>729.40</ele>
	<time>2024-03-25T07:12:25.000Z</time>
</trkpt>
<trkpt lat="45.8530680" lon="9.2972730">
	<ele>729.60</ele>
	<time>2024-03-25T07:12:26.000Z</time>
</trkpt>
<trkpt lat="45.8530840" lon="9.2972820">
	<ele>729.80</ele>
	<time>2024-03-25T07:12:27.000Z</time>
</trkpt>
<trkpt lat="45.8531040" lon="9.2972840">
	<ele>729.80</ele>
	<time>2024-03-25T07:12:28.000Z</time>
</trkpt>
<trkpt lat="45.8531150" lon="9.2972880">
	<ele>730.00</ele>
	<time>2024-03-25T07:12:29.000Z</time>
</trkpt>
<trkpt lat="45.8531200" lon="9.2973000">
	<ele>730.00</ele>
	<time>2024-03-25T07:12:30.000Z</time>
</trkpt>
<trkpt lat="45.8531240" lon="9.2973150">
	<ele>730.00</ele>
	<time>2024-03-25T07:12:31.000Z</time>
</trkpt>
<trkpt lat="45.8531260" lon="9.2973250">
	<ele>730.20</ele>
	<time>2024-03-25T07:12:32.000Z</time>
</trkpt>
<trkpt lat="45.8531270" lon="9.2973350">
	<ele>730.20</ele>
	<time>2024-03-25T07:12:33.000Z</time>
</trkpt>
<trkpt lat="45.8531270" lon="9.2973440">
	<ele>730.40</ele>
	<time>2024-03-25T07:12:34.000Z</time>
</trkpt>
<trkpt lat="45.8531210" lon="9.2973580">
	<ele>730.60</ele>
	<time>2024-03-25T07:12:35.000Z</time>
</trkpt>
<trkpt lat="45.8531230" lon="9.2973880">
	<ele>730.60</ele>
	<time>2024-03-25T07:12:36.000Z</time>
</trkpt>
<trkpt lat="45.8531200" lon="9.2973990">
	<ele>730.60</ele>
	<time>2024-03-25T07:12:37.000Z</time>
</trkpt>
<trkpt lat="45.8531230" lon="9.2974130">
	<ele>730.80</ele>
	<time>2024-03-25T07:12:38.000Z</time>
</trkpt>
<trkpt lat="45.8531310" lon="9.2974230">
	<ele>730.80</ele>
	<time>2024-03-25T07:12:39.000Z</time>
</trkpt>
<trkpt lat="45.8531390" lon="9.2974310">
	<ele>731.00</ele>
	<time>2024-03-25T07:12:40.000Z</time>
</trkpt>
<trkpt lat="45.8531490" lon="9.2974330">
	<ele>731.20</ele>
	<time>2024-03-25T07:12:41.000Z</time>
</trkpt>
<trkpt lat="45.8531660" lon="9.2974420">
	<ele>731.20</ele>
	<time>2024-03-25T07:12:42.000Z</time>
</trkpt>
<trkpt lat="45.8531800" lon="9.2974550">
	<ele>731.40</ele>
	<time>2024-03-25T07:12:43.000Z</time>
</trkpt>
<trkpt lat="45.8531980" lon="9.2974640">
	<ele>731.40</ele>
	<time>2024-03-25T07:12:44.000Z</time>
</trkpt>
<trkpt lat="45.8532130" lon="9.2974740">
	<ele>731.60</ele>
	<time>2024-03-25T07:12:45.000Z</time>
</trkpt>
<trkpt lat="45.8532260" lon="9.2974800">
	<ele>731.60</ele>
	<time>2024-03-25T07:12:46.000Z</time>
</trkpt>
<trkpt lat="45.8532330" lon="9.2974850">
	<ele>731.80</ele>
	<time>2024-03-25T07:12:47.000Z</time>
</trkpt>
<trkpt lat="45.8532350" lon="9.2974880">
	<ele>732.00</ele>
	<time>2024-03-25T07:12:48.000Z</time>
</trkpt>
<trkpt lat="45.8532470" lon="9.2974860">
	<ele>732.20</ele>
	<time>2024-03-25T07:12:49.000Z</time>
</trkpt>
<trkpt lat="45.8532520" lon="9.2974870">
	<ele>732.20</ele>
	<time>2024-03-25T07:12:50.000Z</time>
</trkpt>
<trkpt lat="45.8532610" lon="9.2974950">
	<ele>732.40</ele>
	<time>2024-03-25T07:12:51.000Z</time>
</trkpt>
<trkpt lat="45.8532680" lon="9.2975000">
	<ele>732.40</ele>
	<time>2024-03-25T07:12:52.000Z</time>
</trkpt>
<trkpt lat="45.8532760" lon="9.2975040">
	<ele>732.40</ele>
	<time>2024-03-25T07:12:53.000Z</time>
</trkpt>
<trkpt lat="45.8532820" lon="9.2975090">
	<ele>732.40</ele>
	<time>2024-03-25T07:12:54.000Z</time>
</trkpt>
<trkpt lat="45.8532880" lon="9.2975070">
	<ele>732.40</ele>
	<time>2024-03-25T07:12:55.000Z</time>
</trkpt>
<trkpt lat="45.8533000" lon="9.2975000">
	<ele>732.40</ele>
	<time>2024-03-25T07:12:56.000Z</time>
</trkpt>
<trkpt lat="45.8533060" lon="9.2975070">
	<ele>732.40</ele>
	<time>2024-03-25T07:12:57.000Z</time>
</trkpt>
<trkpt lat="45.8533130" lon="9.2975070">
	<ele>732.60</ele>
	<time>2024-03-25T07:12:58.000Z</time>
</trkpt>
<trkpt lat="45.8533210" lon="9.2975020">
	<ele>732.60</ele>
	<time>2024-03-25T07:12:59.000Z</time>
</trkpt>
<trkpt lat="45.8533300" lon="9.2974850">
	<ele>732.80</ele>
	<time>2024-03-25T07:13:00.000Z</time>
</trkpt>
<trkpt lat="45.8533370" lon="9.2974830">
	<ele>733.00</ele>
	<time>2024-03-25T07:13:01.000Z</time>
</trkpt>
<trkpt lat="45.8533440" lon="9.2974780">
	<ele>733.00</ele>
	<time>2024-03-25T07:13:02.000Z</time>
</trkpt>
<trkpt lat="45.8533300" lon="9.2974880">
	<ele>733.20</ele>
	<time>2024-03-25T07:13:03.000Z</time>
</trkpt>
<trkpt lat="45.8533250" lon="9.2974930">
	<ele>733.20</ele>
	<time>2024-03-25T07:13:04.000Z</time>
</trkpt>
<trkpt lat="45.8533230" lon="9.2974900">
	<ele>733.20</ele>
	<time>2024-03-25T07:13:05.000Z</time>
</trkpt>
<trkpt lat="45.8533190" lon="9.2974910">
	<ele>733.00</ele>
	<time>2024-03-25T07:13:06.000Z</time>
</trkpt>
<trkpt lat="45.8533140" lon="9.2974900">
	<ele>733.00</ele>
	<time>2024-03-25T07:13:07.000Z</time>
</trkpt>
<trkpt lat="45.8533150" lon="9.2974930">
	<ele>733.00</ele>
	<time>2024-03-25T07:13:08.000Z</time>
</trkpt>
<trkpt lat="45.8533140" lon="9.2975030">
	<ele>733.00</ele>
	<time>2024-03-25T07:13:09.000Z</time>
</trkpt>
<trkpt lat="45.8533190" lon="9.2975070">
	<ele>733.00</ele>
	<time>2024-03-25T07:13:10.000Z</time>
</trkpt>
<trkpt lat="45.8533290" lon="9.2975110">
	<ele>733.00</ele>
	<time>2024-03-25T07:13:11.000Z</time>
</trkpt>
<trkpt lat="45.8533440" lon="9.2975160">
	<ele>733.00</ele>
	<time>2024-03-25T07:13:12.000Z</time>
</trkpt>
<trkpt lat="45.8533550" lon="9.2975060">
	<ele>732.80</ele>
	<time>2024-03-25T07:13:13.000Z</time>
</trkpt>
<trkpt lat="45.8533630" lon="9.2974990">
	<ele>732.80</ele>
	<time>2024-03-25T07:13:14.000Z</time>
</trkpt>
<trkpt lat="45.8533660" lon="9.2974930">
	<ele>732.80</ele>
	<time>2024-03-25T07:13:15.000Z</time>
</trkpt>
<trkpt lat="45.8533740" lon="9.2974930">
	<ele>732.80</ele>
	<time>2024-03-25T07:13:16.000Z</time>
</trkpt>
<trkpt lat="45.8533830" lon="9.2974950">
	<ele>733.00</ele>
	<time>2024-03-25T07:13:17.000Z</time>
</trkpt>
<trkpt lat="45.8533930" lon="9.2974910">
	<ele>733.00</ele>
	<time>2024-03-25T07:13:18.000Z</time>
</trkpt>
<trkpt lat="45.8533980" lon="9.2974920">
	<ele>733.00</ele>
	<time>2024-03-25T07:13:19.000Z</time>
</trkpt>
<trkpt lat="45.8534080" lon="9.2974910">
	<ele>733.00</ele>
	<time>2024-03-25T07:13:20.000Z</time>
</trkpt>
<trkpt lat="45.8534220" lon="9.2975070">
	<ele>733.00</ele>
	<time>2024-03-25T07:13:21.000Z</time>
</trkpt>
<trkpt lat="45.8534300" lon="9.2975180">
	<ele>733.00</ele>
	<time>2024-03-25T07:13:22.000Z</time>
</trkpt>
<trkpt lat="45.8534370" lon="9.2975330">
	<ele>733.20</ele>
	<time>2024-03-25T07:13:23.000Z</time>
</trkpt>
<trkpt lat="45.8534460" lon="9.2975440">
	<ele>733.20</ele>
	<time>2024-03-25T07:13:24.000Z</time>
</trkpt>
<trkpt lat="45.8534530" lon="9.2975530">
	<ele>733.20</ele>
	<time>2024-03-25T07:13:25.000Z</time>
</trkpt>
<trkpt lat="45.8534590" lon="9.2975640">
	<ele>733.20</ele>
	<time>2024-03-25T07:13:26.000Z</time>
</trkpt>
<trkpt lat="45.8534680" lon="9.2975700">
	<ele>733.20</ele>
	<time>2024-03-25T07:13:27.000Z</time>
</trkpt>
<trkpt lat="45.8534760" lon="9.2975760">
	<ele>733.20</ele>
	<time>2024-03-25T07:13:28.000Z</time>
</trkpt>
<trkpt lat="45.8534900" lon="9.2975860">
	<ele>733.40</ele>
	<time>2024-03-25T07:13:29.000Z</time>
</trkpt>
<trkpt lat="45.8535010" lon="9.2975930">
	<ele>733.40</ele>
	<time>2024-03-25T07:13:30.000Z</time>
</trkpt>
<trkpt lat="45.8535080" lon="9.2975930">
	<ele>733.60</ele>
	<time>2024-03-25T07:13:31.000Z</time>
</trkpt>
<trkpt lat="45.8535160" lon="9.2975890">
	<ele>733.60</ele>
	<time>2024-03-25T07:13:32.000Z</time>
</trkpt>
<trkpt lat="45.8535170" lon="9.2975820">
	<ele>733.60</ele>
	<time>2024-03-25T07:13:33.000Z</time>
</trkpt>
<trkpt lat="45.8535200" lon="9.2975740">
	<ele>733.60</ele>
	<time>2024-03-25T07:13:34.000Z</time>
</trkpt>
<trkpt lat="45.8535190" lon="9.2975660">
	<ele>733.60</ele>
	<time>2024-03-25T07:13:35.000Z</time>
</trkpt>
<trkpt lat="45.8535170" lon="9.2975660">
	<ele>733.40</ele>
	<time>2024-03-25T07:13:36.000Z</time>
</trkpt>
<trkpt lat="45.8535220" lon="9.2975600">
	<ele>733.40</ele>
	<time>2024-03-25T07:13:37.000Z</time>
</trkpt>
<trkpt lat="45.8535330" lon="9.2975690">
	<ele>733.40</ele>
	<time>2024-03-25T07:13:38.000Z</time>
</trkpt>
<trkpt lat="45.8535410" lon="9.2975680">
	<ele>733.40</ele>
	<time>2024-03-25T07:13:39.000Z</time>
</trkpt>
<trkpt lat="45.8535370" lon="9.2975640">
	<ele>733.40</ele>
	<time>2024-03-25T07:13:40.000Z</time>
</trkpt>
<trkpt lat="45.8535330" lon="9.2975600">
	<ele>733.40</ele>
	<time>2024-03-25T07:13:41.000Z</time>
</trkpt>
<trkpt lat="45.8535310" lon="9.2975600">
	<ele>733.60</ele>
	<time>2024-03-25T07:13:42.000Z</time>
</trkpt>
<trkpt lat="45.8535290" lon="9.2975610">
	<ele>733.60</ele>
	<time>2024-03-25T07:13:43.000Z</time>
</trkpt>
<trkpt lat="45.8535270" lon="9.2975660">
	<ele>733.60</ele>
	<time>2024-03-25T07:13:44.000Z</time>
</trkpt>
<trkpt lat="45.8535240" lon="9.2975730">
	<ele>733.60</ele>
	<time>2024-03-25T07:13:45.000Z</time>
</trkpt>
<trkpt lat="45.8535190" lon="9.2975750">
	<ele>733.60</ele>
	<time>2024-03-25T07:13:46.000Z</time>
</trkpt>
<trkpt lat="45.8535140" lon="9.2975780">
	<ele>733.60</ele>
	<time>2024-03-25T07:13:47.000Z</time>
</trkpt>
<trkpt lat="45.8535090" lon="9.2975800">
	<ele>733.60</ele>
	<time>2024-03-25T07:13:48.000Z</time>
</trkpt>
<trkpt lat="45.8535040" lon="9.2975800">
	<ele>733.60</ele>
	<time>2024-03-25T07:13:49.000Z</time>
</trkpt>
<trkpt lat="45.8534960" lon="9.2975780">
	<ele>733.80</ele>
	<time>2024-03-25T07:13:50.000Z</time>
</trkpt>
<trkpt lat="45.8534960" lon="9.2975760">
	<ele>733.80</ele>
	<time>2024-03-25T07:13:51.000Z</time>
</trkpt>
<trkpt lat="45.8534990" lon="9.2975740">
	<ele>733.80</ele>
	<time>2024-03-25T07:13:52.000Z</time>
</trkpt>
<trkpt lat="45.8535080" lon="9.2975810">
	<ele>733.60</ele>
	<time>2024-03-25T07:13:53.000Z</time>
</trkpt>
<trkpt lat="45.8535210" lon="9.2975950">
	<ele>733.60</ele>
	<time>2024-03-25T07:13:54.000Z</time>
</trkpt>
<trkpt lat="45.8535320" lon="9.2976100">
	<ele>733.40</ele>
	<time>2024-03-25T07:13:55.000Z</time>
</trkpt>
<trkpt lat="45.8535380" lon="9.2976220">
	<ele>733.40</ele>
	<time>2024-03-25T07:13:56.000Z</time>
</trkpt>
<trkpt lat="45.8535410" lon="9.2976350">
	<ele>733.40</ele>
	<time>2024-03-25T07:13:57.000Z</time>
</trkpt>
<trkpt lat="45.8535460" lon="9.2976480">
	<ele>733.20</ele>
	<time>2024-03-25T07:13:58.000Z</time>
</trkpt>
<trkpt lat="45.8535540" lon="9.2976590">
	<ele>733.20</ele>
	<time>2024-03-25T07:13:59.000Z</time>
</trkpt>
<trkpt lat="45.8535670" lon="9.2976670">
	<ele>733.20</ele>
	<time>2024-03-25T07:14:00.000Z</time>
</trkpt>
<trkpt lat="45.8535710" lon="9.2976730">
	<ele>733.20</ele>
	<time>2024-03-25T07:14:01.000Z</time>
</trkpt>
<trkpt lat="45.8535780" lon="9.2976760">
	<ele>733.20</ele>
	<time>2024-03-25T07:14:02.000Z</time>
</trkpt>
<trkpt lat="45.8535790" lon="9.2976790">
	<ele>733.20</ele>
	<time>2024-03-25T07:14:03.000Z</time>
</trkpt>
<trkpt lat="45.8535790" lon="9.2976820">
	<ele>733.20</ele>
	<time>2024-03-25T07:14:04.000Z</time>
</trkpt>
<trkpt lat="45.8535890" lon="9.2976890">
	<ele>733.20</ele>
	<time>2024-03-25T07:14:05.000Z</time>
</trkpt>
<trkpt lat="45.8535990" lon="9.2976910">
	<ele>733.20</ele>
	<time>2024-03-25T07:14:06.000Z</time>
</trkpt>
<trkpt lat="45.8536110" lon="9.2976970">
	<ele>733.20</ele>
	<time>2024-03-25T07:14:07.000Z</time>
</trkpt>
<trkpt lat="45.8536230" lon="9.2977010">
	<ele>733.20</ele>
	<time>2024-03-25T07:14:08.000Z</time>
</trkpt>
<trkpt lat="45.8536330" lon="9.2977130">
	<ele>733.20</ele>
	<time>2024-03-25T07:14:09.000Z</time>
</trkpt>
<trkpt lat="45.8536360" lon="9.2977140">
	<ele>733.40</ele>
	<time>2024-03-25T07:14:10.000Z</time>
</trkpt>
<trkpt lat="45.8536420" lon="9.2977140">
	<ele>733.40</ele>
	<time>2024-03-25T07:14:11.000Z</time>
</trkpt>
<trkpt lat="45.8536540" lon="9.2977030">
	<ele>733.60</ele>
	<time>2024-03-25T07:14:12.000Z</time>
</trkpt>
<trkpt lat="45.8536600" lon="9.2977010">
	<ele>733.80</ele>
	<time>2024-03-25T07:14:13.000Z</time>
</trkpt>
<trkpt lat="45.8536740" lon="9.2977030">
	<ele>733.80</ele>
	<time>2024-03-25T07:14:14.000Z</time>
</trkpt>
<trkpt lat="45.8536770" lon="9.2977020">
	<ele>733.80</ele>
	<time>2024-03-25T07:14:15.000Z</time>
</trkpt>
<trkpt lat="45.8536770" lon="9.2977000">
	<ele>733.80</ele>
	<time>2024-03-25T07:14:16.000Z</time>
</trkpt>
<trkpt lat="45.8536740" lon="9.2976990">
	<ele>733.80</ele>
	<time>2024-03-25T07:14:17.000Z</time>
</trkpt>
<trkpt lat="45.8536860" lon="9.2976950">
	<ele>733.80</ele>
	<time>2024-03-25T07:14:18.000Z</time>
</trkpt>
<trkpt lat="45.8536980" lon="9.2976980">
	<ele>733.80</ele>
	<time>2024-03-25T07:14:19.000Z</time>
</trkpt>
<trkpt lat="45.8536980" lon="9.2977030">
	<ele>733.80</ele>
	<time>2024-03-25T07:14:20.000Z</time>
</trkpt>
<trkpt lat="45.8536970" lon="9.2977070">
	<ele>733.80</ele>
	<time>2024-03-25T07:14:21.000Z</time>
</trkpt>
<trkpt lat="45.8536960" lon="9.2977130">
	<ele>733.60</ele>
	<time>2024-03-25T07:14:22.000Z</time>
</trkpt>
<trkpt lat="45.8536950" lon="9.2977140">
	<ele>733.60</ele>
	<time>2024-03-25T07:14:23.000Z</time>
</trkpt>
<trkpt lat="45.8536950" lon="9.2977170">
	<ele>733.60</ele>
	<time>2024-03-25T07:14:24.000Z</time>
</trkpt>
<trkpt lat="45.8536960" lon="9.2977230">
	<ele>733.60</ele>
	<time>2024-03-25T07:14:25.000Z</time>
</trkpt>
<trkpt lat="45.8536930" lon="9.2977240">
	<ele>733.60</ele>
	<time>2024-03-25T07:14:26.000Z</time>
</trkpt>
<trkpt lat="45.8536890" lon="9.2977240">
	<ele>733.60</ele>
	<time>2024-03-25T07:14:27.000Z</time>
</trkpt>
<trkpt lat="45.8536910" lon="9.2977240">
	<ele>733.60</ele>
	<time>2024-03-25T07:14:28.000Z</time>
</trkpt>
<trkpt lat="45.8536880" lon="9.2977240">
	<ele>733.60</ele>
	<time>2024-03-25T07:14:29.000Z</time>
</trkpt>
<trkpt lat="45.8536890" lon="9.2977200">
	<ele>733.80</ele>
	<time>2024-03-25T07:14:30.000Z</time>
</trkpt>
<trkpt lat="45.8536830" lon="9.2977200">
	<ele>733.80</ele>
	<time>2024-03-25T07:14:31.000Z</time>
</trkpt>
<trkpt lat="45.8536790" lon="9.2977170">
	<ele>733.80</ele>
	<time>2024-03-25T07:14:32.000Z</time>
</trkpt>
<trkpt lat="45.8536940" lon="9.2977150">
	<ele>733.60</ele>
	<time>2024-03-25T07:14:33.000Z</time>
</trkpt>
<trkpt lat="45.8537060" lon="9.2977130">
	<ele>733.60</ele>
	<time>2024-03-25T07:14:34.000Z</time>
</trkpt>
<trkpt lat="45.8537160" lon="9.2977060">
	<ele>733.40</ele>
	<time>2024-03-25T07:14:35.000Z</time>
</trkpt>
<trkpt lat="45.8537170" lon="9.2977040">
	<ele>733.40</ele>
	<time>2024-03-25T07:14:36.000Z</time>
</trkpt>
<trkpt lat="45.8537150" lon="9.2977070">
	<ele>733.40</ele>
	<time>2024-03-25T07:14:37.000Z</time>
</trkpt>
<trkpt lat="45.8537130" lon="9.2977110">
	<ele>733.40</ele>
	<time>2024-03-25T07:14:38.000Z</time>
</trkpt>
<trkpt lat="45.8537100" lon="9.2977090">
	<ele>733.60</ele>
	<time>2024-03-25T07:14:39.000Z</time>
</trkpt>
<trkpt lat="45.8537050" lon="9.2977090">
	<ele>733.60</ele>
	<time>2024-03-25T07:14:40.000Z</time>
</trkpt>
<trkpt lat="45.8537050" lon="9.2977220">
	<ele>733.60</ele>
	<time>2024-03-25T07:14:41.000Z</time>
</trkpt>
<trkpt lat="45.8537020" lon="9.2977310">
	<ele>733.60</ele>
	<time>2024-03-25T07:14:42.000Z</time>
</trkpt>
<trkpt lat="45.8537050" lon="9.2977420">
	<ele>733.60</ele>
	<time>2024-03-25T07:14:43.000Z</time>
</trkpt>
<trkpt lat="45.8537070" lon="9.2977560">
	<ele>733.60</ele>
	<time>2024-03-25T07:14:44.000Z</time>
</trkpt>
<trkpt lat="45.8537080" lon="9.2977720">
	<ele>733.40</ele>
	<time>2024-03-25T07:14:45.000Z</time>
</trkpt>
<trkpt lat="45.8537120" lon="9.2977920">
	<ele>733.40</ele>
	<time>2024-03-25T07:14:46.000Z</time>
</trkpt>
<trkpt lat="45.8537130" lon="9.2978100">
	<ele>733.40</ele>
	<time>2024-03-25T07:14:47.000Z</time>
</trkpt>
<trkpt lat="45.8537220" lon="9.2978240">
	<ele>733.40</ele>
	<time>2024-03-25T07:14:48.000Z</time>
</trkpt>
<trkpt lat="45.8537320" lon="9.2978350">
	<ele>733.40</ele>
	<time>2024-03-25T07:14:49.000Z</time>
</trkpt>
<trkpt lat="45.8537460" lon="9.2978480">
	<ele>733.20</ele>
	<time>2024-03-25T07:14:50.000Z</time>
</trkpt>
<trkpt lat="45.8537570" lon="9.2978690">
	<ele>733.20</ele>
	<time>2024-03-25T07:14:51.000Z</time>
</trkpt>
<trkpt lat="45.8537650" lon="9.2978860">
	<ele>733.20</ele>
	<time>2024-03-25T07:14:52.000Z</time>
</trkpt>
<trkpt lat="45.8537720" lon="9.2979090">
	<ele>733.20</ele>
	<time>2024-03-25T07:14:53.000Z</time>
</trkpt>
<trkpt lat="45.8537870" lon="9.2979230">
	<ele>733.40</ele>
	<time>2024-03-25T07:14:54.000Z</time>
</trkpt>
<trkpt lat="45.8538010" lon="9.2979360">
	<ele>733.40</ele>
	<time>2024-03-25T07:14:55.000Z</time>
</trkpt>
<trkpt lat="45.8538150" lon="9.2979450">
	<ele>733.40</ele>
	<time>2024-03-25T07:14:56.000Z</time>
</trkpt>
<trkpt lat="45.8538270" lon="9.2979540">
	<ele>733.40</ele>
	<time>2024-03-25T07:14:57.000Z</time>
</trkpt>
<trkpt lat="45.8538490" lon="9.2979640">
	<ele>733.40</ele>
	<time>2024-03-25T07:14:58.000Z</time>
</trkpt>
<trkpt lat="45.8538690" lon="9.2979690">
	<ele>733.60</ele>
	<time>2024-03-25T07:14:59.000Z</time>
</trkpt>
<trkpt lat="45.8538850" lon="9.2979810">
	<ele>733.60</ele>
	<time>2024-03-25T07:15:00.000Z</time>
</trkpt>
<trkpt lat="45.8539030" lon="9.2979930">
	<ele>733.60</ele>
	<time>2024-03-25T07:15:01.000Z</time>
</trkpt>
<trkpt lat="45.8539200" lon="9.2980000">
	<ele>733.60</ele>
	<time>2024-03-25T07:15:02.000Z</time>
</trkpt>
<trkpt lat="45.8539330" lon="9.2980100">
	<ele>733.60</ele>
	<time>2024-03-25T07:15:03.000Z</time>
</trkpt>
<trkpt lat="45.8539460" lon="9.2980180">
	<ele>733.60</ele>
	<time>2024-03-25T07:15:04.000Z</time>
</trkpt>
<trkpt lat="45.8539540" lon="9.2980210">
	<ele>733.60</ele>
	<time>2024-03-25T07:15:05.000Z</time>
</trkpt>
<trkpt lat="45.8539640" lon="9.2980250">
	<ele>733.60</ele>
	<time>2024-03-25T07:15:06.000Z</time>
</trkpt>
<trkpt lat="45.8539690" lon="9.2980300">
	<ele>733.60</ele>
	<time>2024-03-25T07:15:07.000Z</time>
</trkpt>
<trkpt lat="45.8539810" lon="9.2980430">
	<ele>733.60</ele>
	<time>2024-03-25T07:15:08.000Z</time>
</trkpt>
<trkpt lat="45.8539940" lon="9.2980610">
	<ele>733.60</ele>
	<time>2024-03-25T07:15:09.000Z</time>
</trkpt>
<trkpt lat="45.8540050" lon="9.2980740">
	<ele>733.60</ele>
	<time>2024-03-25T07:15:10.000Z</time>
</trkpt>
<trkpt lat="45.8540140" lon="9.2980860">
	<ele>733.80</ele>
	<time>2024-03-25T07:15:11.000Z</time>
</trkpt>
<trkpt lat="45.8540260" lon="9.2981130">
	<ele>733.80</ele>
	<time>2024-03-25T07:15:12.000Z</time>
</trkpt>
<trkpt lat="45.8540340" lon="9.2981300">
	<ele>733.60</ele>
	<time>2024-03-25T07:15:13.000Z</time>
</trkpt>
<trkpt lat="45.8540330" lon="9.2981370">
	<ele>733.60</ele>
	<time>2024-03-25T07:15:14.000Z</time>
</trkpt>
<trkpt lat="45.8540350" lon="9.2981490">
	<ele>733.60</ele>
	<time>2024-03-25T07:15:15.000Z</time>
</trkpt>
<trkpt lat="45.8540410" lon="9.2981570">
	<ele>733.80</ele>
	<time>2024-03-25T07:15:16.000Z</time>
</trkpt>
<trkpt lat="45.8540460" lon="9.2981740">
	<ele>733.80</ele>
	<time>2024-03-25T07:15:17.000Z</time>
</trkpt>
<trkpt lat="45.8540520" lon="9.2981950">
	<ele>733.80</ele>
	<time>2024-03-25T07:15:18.000Z</time>
</trkpt>
<trkpt lat="45.8540600" lon="9.2982170">
	<ele>733.80</ele>
	<time>2024-03-25T07:15:19.000Z</time>
</trkpt>
<trkpt lat="45.8540700" lon="9.2982310">
	<ele>734.00</ele>
	<time>2024-03-25T07:15:20.000Z</time>
</trkpt>
<trkpt lat="45.8540810" lon="9.2982420">
	<ele>734.00</ele>
	<time>2024-03-25T07:15:21.000Z</time>
</trkpt>
<trkpt lat="45.8540920" lon="9.2982570">
	<ele>734.20</ele>
	<time>2024-03-25T07:15:22.000Z</time>
</trkpt>
<trkpt lat="45.8541010" lon="9.2982660">
	<ele>734.20</ele>
	<time>2024-03-25T07:15:23.000Z</time>
</trkpt>
<trkpt lat="45.8541150" lon="9.2982790">
	<ele>734.20</ele>
	<time>2024-03-25T07:15:24.000Z</time>
</trkpt>
<trkpt lat="45.8541270" lon="9.2982930">
	<ele>734.00</ele>
	<time>2024-03-25T07:15:25.000Z</time>
</trkpt>
<trkpt lat="45.8541360" lon="9.2983090">
	<ele>734.00</ele>
	<time>2024-03-25T07:15:26.000Z</time>
</trkpt>
<trkpt lat="45.8541470" lon="9.2983280">
	<ele>734.00</ele>
	<time>2024-03-25T07:15:27.000Z</time>
</trkpt>
<trkpt lat="45.8541570" lon="9.2983440">
	<ele>733.80</ele>
	<time>2024-03-25T07:15:28.000Z</time>
</trkpt>
<trkpt lat="45.8541670" lon="9.2983590">
	<ele>733.80</ele>
	<time>2024-03-25T07:15:29.000Z</time>
</trkpt>
<trkpt lat="45.8541660" lon="9.2983760">
	<ele>733.80</ele>
	<time>2024-03-25T07:15:30.000Z</time>
</trkpt>
<trkpt lat="45.8541700" lon="9.2983810">
	<ele>733.60</ele>
	<time>2024-03-25T07:15:31.000Z</time>
</trkpt>
<trkpt lat="45.8541770" lon="9.2983900">
	<ele>733.80</ele>
	<time>2024-03-25T07:15:32.000Z</time>
</trkpt>
<trkpt lat="45.8541870" lon="9.2983960">
	<ele>733.80</ele>
	<time>2024-03-25T07:15:33.000Z</time>
</trkpt>
<trkpt lat="45.8541970" lon="9.2984020">
	<ele>733.80</ele>
	<time>2024-03-25T07:15:34.000Z</time>
</trkpt>
<trkpt lat="45.8542080" lon="9.2984100">
	<ele>733.80</ele>
	<time>2024-03-25T07:15:35.000Z</time>
</trkpt>
<trkpt lat="45.8542190" lon="9.2984200">
	<ele>733.80</ele>
	<time>2024-03-25T07:15:36.000Z</time>
</trkpt>
<trkpt lat="45.8542320" lon="9.2984300">
	<ele>733.80</ele>
	<time>2024-03-25T07:15:37.000Z</time>
</trkpt>
<trkpt lat="45.8542420" lon="9.2984370">
	<ele>733.80</ele>
	<time>2024-03-25T07:15:38.000Z</time>
</trkpt>
<trkpt lat="45.8542520" lon="9.2984460">
	<ele>733.80</ele>
	<time>2024-03-25T07:15:39.000Z</time>
</trkpt>
<trkpt lat="45.8542550" lon="9.2984570">
	<ele>733.80</ele>
	<time>2024-03-25T07:15:40.000Z</time>
</trkpt>
<trkpt lat="45.8542620" lon="9.2984630">
	<ele>733.80</ele>
	<time>2024-03-25T07:15:41.000Z</time>
</trkpt>
<trkpt lat="45.8542650" lon="9.2984650">
	<ele>734.00</ele>
	<time>2024-03-25T07:15:42.000Z</time>
</trkpt>
<trkpt lat="45.8542670" lon="9.2984760">
	<ele>734.00</ele>
	<time>2024-03-25T07:15:43.000Z</time>
</trkpt>
<trkpt lat="45.8542550" lon="9.2984930">
	<ele>734.00</ele>
	<time>2024-03-25T07:15:44.000Z</time>
</trkpt>
<trkpt lat="45.8542650" lon="9.2984960">
	<ele>734.00</ele>
	<time>2024-03-25T07:15:45.000Z</time>
</trkpt>
<trkpt lat="45.8542740" lon="9.2984970">
	<ele>734.00</ele>
	<time>2024-03-25T07:15:46.000Z</time>
</trkpt>
<trkpt lat="45.8542840" lon="9.2985010">
	<ele>734.00</ele>
	<time>2024-03-25T07:15:47.000Z</time>
</trkpt>
<trkpt lat="45.8542930" lon="9.2985020">
	<ele>734.00</ele>
	<time>2024-03-25T07:15:48.000Z</time>
</trkpt>
<trkpt lat="45.8543030" lon="9.2984990">
	<ele>734.20</ele>
	<time>2024-03-25T07:15:49.000Z</time>
</trkpt>
<trkpt lat="45.8543200" lon="9.2985010">
	<ele>734.20</ele>
	<time>2024-03-25T07:15:50.000Z</time>
</trkpt>
<trkpt lat="45.8543370" lon="9.2985050">
	<ele>734.20</ele>
	<time>2024-03-25T07:15:51.000Z</time>
</trkpt>
<trkpt lat="45.8543510" lon="9.2985120">
	<ele>734.40</ele>
	<time>2024-03-25T07:15:52.000Z</time>
</trkpt>
<trkpt lat="45.8543700" lon="9.2985180">
	<ele>734.40</ele>
	<time>2024-03-25T07:15:53.000Z</time>
</trkpt>
<trkpt lat="45.8543810" lon="9.2985280">
	<ele>734.40</ele>
	<time>2024-03-25T07:15:54.000Z</time>
</trkpt>
<trkpt lat="45.8543880" lon="9.2985340">
	<ele>734.60</ele>
	<time>2024-03-25T07:15:55.000Z</time>
</trkpt>
<trkpt lat="45.8543980" lon="9.2985400">
	<ele>734.60</ele>
	<time>2024-03-25T07:15:56.000Z</time>
</trkpt>
<trkpt lat="45.8544080" lon="9.2985470">
	<ele>734.60</ele>
	<time>2024-03-25T07:15:57.000Z</time>
</trkpt>
<trkpt lat="45.8544200" lon="9.2985560">
	<ele>734.60</ele>
	<time>2024-03-25T07:15:58.000Z</time>
</trkpt>
<trkpt lat="45.8544320" lon="9.2985670">
	<ele>734.60</ele>
	<time>2024-03-25T07:15:59.000Z</time>
</trkpt>
<trkpt lat="45.8544380" lon="9.2985750">
	<ele>734.40</ele>
	<time>2024-03-25T07:16:00.000Z</time>
</trkpt>
<trkpt lat="45.8544440" lon="9.2985870">
	<ele>734.40</ele>
	<time>2024-03-25T07:16:01.000Z</time>
</trkpt>
<trkpt lat="45.8544570" lon="9.2985900">
	<ele>734.40</ele>
	<time>2024-03-25T07:16:02.000Z</time>
</trkpt>
<trkpt lat="45.8544690" lon="9.2985890">
	<ele>734.20</ele>
	<time>2024-03-25T07:16:03.000Z</time>
</trkpt>
<trkpt lat="45.8544800" lon="9.2985980">
	<ele>734.20</ele>
	<time>2024-03-25T07:16:04.000Z</time>
</trkpt>
<trkpt lat="45.8544910" lon="9.2986080">
	<ele>734.20</ele>
	<time>2024-03-25T07:16:05.000Z</time>
</trkpt>
<trkpt lat="45.8545060" lon="9.2986160">
	<ele>734.20</ele>
	<time>2024-03-25T07:16:06.000Z</time>
</trkpt>
<trkpt lat="45.8545190" lon="9.2986260">
	<ele>734.20</ele>
	<time>2024-03-25T07:16:07.000Z</time>
</trkpt>
<trkpt lat="45.8545340" lon="9.2986400">
	<ele>734.20</ele>
	<time>2024-03-25T07:16:08.000Z</time>
</trkpt>
<trkpt lat="45.8545460" lon="9.2986610">
	<ele>734.20</ele>
	<time>2024-03-25T07:16:09.000Z</time>
</trkpt>
<trkpt lat="45.8545620" lon="9.2986790">
	<ele>734.00</ele>
	<time>2024-03-25T07:16:10.000Z</time>
</trkpt>
<trkpt lat="45.8545700" lon="9.2986890">
	<ele>734.00</ele>
	<time>2024-03-25T07:16:11.000Z</time>
</trkpt>
<trkpt lat="45.8545750" lon="9.2986990">
	<ele>734.00</ele>
	<time>2024-03-25T07:16:12.000Z</time>
</trkpt>
<trkpt lat="45.8545870" lon="9.2987080">
	<ele>734.00</ele>
	<time>2024-03-25T07:16:13.000Z</time>
</trkpt>
<trkpt lat="45.8545980" lon="9.2987110">
	<ele>734.00</ele>
	<time>2024-03-25T07:16:14.000Z</time>
</trkpt>
<trkpt lat="45.8546070" lon="9.2987160">
	<ele>734.00</ele>
	<time>2024-03-25T07:16:15.000Z</time>
</trkpt>
<trkpt lat="45.8546140" lon="9.2987270">
	<ele>734.00</ele>
	<time>2024-03-25T07:16:16.000Z</time>
</trkpt>
<trkpt lat="45.8546200" lon="9.2987390">
	<ele>734.00</ele>
	<time>2024-03-25T07:16:17.000Z</time>
</trkpt>
<trkpt lat="45.8546310" lon="9.2987510">
	<ele>734.00</ele>
	<time>2024-03-25T07:16:18.000Z</time>
</trkpt>
<trkpt lat="45.8546410" lon="9.2987520">
	<ele>734.00</ele>
	<time>2024-03-25T07:16:19.000Z</time>
</trkpt>
<trkpt lat="45.8546570" lon="9.2987580">
	<ele>734.00</ele>
	<time>2024-03-25T07:16:20.000Z</time>
</trkpt>
<trkpt lat="45.8546710" lon="9.2987610">
	<ele>733.80</ele>
	<time>2024-03-25T07:16:21.000Z</time>
</trkpt>
<trkpt lat="45.8546830" lon="9.2987660">
	<ele>733.80</ele>
	<time>2024-03-25T07:16:22.000Z</time>
</trkpt>
<trkpt lat="45.8546940" lon="9.2987640">
	<ele>733.80</ele>
	<time>2024-03-25T07:16:23.000Z</time>
</trkpt>
<trkpt lat="45.8546830" lon="9.2987680">
	<ele>733.80</ele>
	<time>2024-03-25T07:16:24.000Z</time>
</trkpt>
<trkpt lat="45.8546900" lon="9.2987750">
	<ele>733.80</ele>
	<time>2024-03-25T07:16:25.000Z</time>
</trkpt>
<trkpt lat="45.8546970" lon="9.2987870">
	<ele>733.80</ele>
	<time>2024-03-25T07:16:26.000Z</time>
</trkpt>
<trkpt lat="45.8547040" lon="9.2987960">
	<ele>733.80</ele>
	<time>2024-03-25T07:16:27.000Z</time>
</trkpt>
<trkpt lat="45.8547090" lon="9.2988120">
	<ele>734.00</ele>
	<time>2024-03-25T07:16:28.000Z</time>
</trkpt>
<trkpt lat="45.8547340" lon="9.2988230">
	<ele>734.00</ele>
	<time>2024-03-25T07:16:29.000Z</time>
</trkpt>
<trkpt lat="45.8547460" lon="9.2988340">
	<ele>734.00</ele>
	<time>2024-03-25T07:16:30.000Z</time>
</trkpt>
<trkpt lat="45.8547600" lon="9.2988410">
	<ele>734.00</ele>
	<time>2024-03-25T07:16:31.000Z</time>
</trkpt>
<trkpt lat="45.8547770" lon="9.2988520">
	<ele>734.20</ele>
	<time>2024-03-25T07:16:32.000Z</time>
</trkpt>
<trkpt lat="45.8547950" lon="9.2988630">
	<ele>734.20</ele>
	<time>2024-03-25T07:16:33.000Z</time>
</trkpt>
<trkpt lat="45.8548100" lon="9.2988740">
	<ele>734.20</ele>
	<time>2024-03-25T07:16:34.000Z</time>
</trkpt>
<trkpt lat="45.8548300" lon="9.2988800">
	<ele>734.40</ele>
	<time>2024-03-25T07:16:35.000Z</time>
</trkpt>
<trkpt lat="45.8548460" lon="9.2988910">
	<ele>734.60</ele>
	<time>2024-03-25T07:16:36.000Z</time>
</trkpt>
<trkpt lat="45.8548600" lon="9.2989030">
	<ele>734.60</ele>
	<time>2024-03-25T07:16:37.000Z</time>
</trkpt>
<trkpt lat="45.8548730" lon="9.2989130">
	<ele>734.80</ele>
	<time>2024-03-25T07:16:38.000Z</time>
</trkpt>
<trkpt lat="45.8548780" lon="9.2989190">
	<ele>734.80</ele>
	<time>2024-03-25T07:16:39.000Z</time>
</trkpt>
<trkpt lat="45.8548850" lon="9.2989350">
	<ele>735.00</ele>
	<time>2024-03-25T07:16:40.000Z</time>
</trkpt>
<trkpt lat="45.8548920" lon="9.2989400">
	<ele>735.00</ele>
	<time>2024-03-25T07:16:41.000Z</time>
</trkpt>
<trkpt lat="45.8548960" lon="9.2989440">
	<ele>735.40</ele>
	<time>2024-03-25T07:16:42.000Z</time>
</trkpt>
<trkpt lat="45.8549090" lon="9.2989480">
	<ele>735.60</ele>
	<time>2024-03-25T07:16:43.000Z</time>
</trkpt>
<trkpt lat="45.8549170" lon="9.2989600">
	<ele>735.60</ele>
	<time>2024-03-25T07:16:44.000Z</time>
</trkpt>
<trkpt lat="45.8549360" lon="9.2989730">
	<ele>735.80</ele>
	<time>2024-03-25T07:16:45.000Z</time>
</trkpt>
<trkpt lat="45.8549480" lon="9.2989790">
	<ele>736.00</ele>
	<time>2024-03-25T07:16:46.000Z</time>
</trkpt>
<trkpt lat="45.8549560" lon="9.2989790">
	<ele>736.20</ele>
	<time>2024-03-25T07:16:47.000Z</time>
</trkpt>
<trkpt lat="45.8549700" lon="9.2989700">
	<ele>736.40</ele>
	<time>2024-03-25T07:16:48.000Z</time>
</trkpt>
<trkpt lat="45.8549820" lon="9.2989640">
	<ele>736.60</ele>
	<time>2024-03-25T07:16:49.000Z</time>
</trkpt>
<trkpt lat="45.8549940" lon="9.2989710">
	<ele>736.60</ele>
	<time>2024-03-25T07:16:50.000Z</time>
</trkpt>
<trkpt lat="45.8550010" lon="9.2989820">
	<ele>736.80</ele>
	<time>2024-03-25T07:16:51.000Z</time>
</trkpt>
<trkpt lat="45.8549970" lon="9.2989950">
	<ele>736.80</ele>
	<time>2024-03-25T07:16:52.000Z</time>
</trkpt>
<trkpt lat="45.8549970" lon="9.2989960">
	<ele>737.00</ele>
	<time>2024-03-25T07:16:53.000Z</time>
</trkpt>
<trkpt lat="45.8550000" lon="9.2990040">
	<ele>737.20</ele>
	<time>2024-03-25T07:16:54.000Z</time>
</trkpt>
<trkpt lat="45.8550040" lon="9.2990110">
	<ele>737.20</ele>
	<time>2024-03-25T07:16:55.000Z</time>
</trkpt>
<trkpt lat="45.8550120" lon="9.2990140">
	<ele>737.20</ele>
	<time>2024-03-25T07:16:56.000Z</time>
</trkpt>
<trkpt lat="45.8550200" lon="9.2990180">
	<ele>737.40</ele>
	<time>2024-03-25T07:16:57.000Z</time>
</trkpt>
<trkpt lat="45.8550290" lon="9.2990230">
	<ele>737.40</ele>
	<time>2024-03-25T07:16:58.000Z</time>
</trkpt>
<trkpt lat="45.8550440" lon="9.2990380">
	<ele>737.80</ele>
	<time>2024-03-25T07:16:59.000Z</time>
</trkpt>
<trkpt lat="45.8550620" lon="9.2990510">
	<ele>737.80</ele>
	<time>2024-03-25T07:17:00.000Z</time>
</trkpt>
<trkpt lat="45.8550840" lon="9.2990690">
	<ele>737.80</ele>
	<time>2024-03-25T07:17:01.000Z</time>
</trkpt>
<trkpt lat="45.8551220" lon="9.2990730">
	<ele>738.00</ele>
	<time>2024-03-25T07:17:02.000Z</time>
</trkpt>
<trkpt lat="45.8551730" lon="9.2990580">
	<ele>738.00</ele>
	<time>2024-03-25T07:17:03.000Z</time>
</trkpt>
<trkpt lat="45.8551050" lon="9.2990750">
	<ele>738.00</ele>
	<time>2024-03-25T07:17:04.000Z</time>
</trkpt>
<trkpt lat="45.8551030" lon="9.2990610">
	<ele>738.00</ele>
	<time>2024-03-25T07:17:05.000Z</time>
</trkpt>
<trkpt lat="45.8550990" lon="9.2990600">
	<ele>738.00</ele>
	<time>2024-03-25T07:17:06.000Z</time>
</trkpt>
<trkpt lat="45.8550950" lon="9.2990650">
	<ele>738.00</ele>
	<time>2024-03-25T07:17:07.000Z</time>
</trkpt>
<trkpt lat="45.8550880" lon="9.2990690">
	<ele>738.00</ele>
	<time>2024-03-25T07:17:09.000Z</time>
</trkpt>
<trkpt lat="45.8550860" lon="9.2990690">
	<ele>738.00</ele>
	<time>2024-03-25T07:17:10.000Z</time>
</trkpt>
<trkpt lat="45.8550840" lon="9.2990710">
	<ele>738.00</ele>
	<time>2024-03-25T07:17:11.000Z</time>
</trkpt>
<trkpt lat="45.8550830" lon="9.2990700">
	<ele>738.00</ele>
	<time>2024-03-25T07:17:12.000Z</time>
</trkpt>
<trkpt lat="45.8550820" lon="9.2990770">
	<ele>738.00</ele>
	<time>2024-03-25T07:17:13.000Z</time>
</trkpt>
<trkpt lat="45.8550790" lon="9.2990880">
	<ele>738.00</ele>
	<time>2024-03-25T07:17:14.000Z</time>
</trkpt>
<trkpt lat="45.8550780" lon="9.2990930">
	<ele>738.00</ele>
	<time>2024-03-25T07:17:15.000Z</time>
</trkpt>
<trkpt lat="45.8550810" lon="9.2991000">
	<ele>738.00</ele>
	<time>2024-03-25T07:17:16.000Z</time>
</trkpt>
<trkpt lat="45.8550810" lon="9.2991010">
	<ele>738.20</ele>
	<time>2024-03-25T07:17:17.000Z</time>
</trkpt>
<trkpt lat="45.8550760" lon="9.2990980">
	<ele>738.20</ele>
	<time>2024-03-25T07:17:18.000Z</time>
</trkpt>
<trkpt lat="45.8550730" lon="9.2990880">
	<ele>738.20</ele>
	<time>2024-03-25T07:17:19.000Z</time>
</trkpt>
<trkpt lat="45.8550760" lon="9.2990760">
	<ele>738.60</ele>
	<time>2024-03-25T07:17:20.000Z</time>
</trkpt>
<trkpt lat="45.8550680" lon="9.2990690">
	<ele>738.60</ele>
	<time>2024-03-25T07:17:21.000Z</time>
</trkpt>
<trkpt lat="45.8550840" lon="9.2990750">
	<ele>738.80</ele>
	<time>2024-03-25T07:17:22.000Z</time>
</trkpt>
<trkpt lat="45.8550950" lon="9.2990840">
	<ele>739.00</ele>
	<time>2024-03-25T07:17:23.000Z</time>
</trkpt>
<trkpt lat="45.8550820" lon="9.2990920">
	<ele>739.00</ele>
	<time>2024-03-25T07:17:24.000Z</time>
</trkpt>
<trkpt lat="45.8550680" lon="9.2990910">
	<ele>739.20</ele>
	<time>2024-03-25T07:17:25.000Z</time>
</trkpt>
<trkpt lat="45.8550610" lon="9.2990870">
	<ele>739.40</ele>
	<time>2024-03-25T07:17:26.000Z</time>
</trkpt>
<trkpt lat="45.8550540" lon="9.2990890">
	<ele>739.60</ele>
	<time>2024-03-25T07:17:27.000Z</time>
</trkpt>
<trkpt lat="45.8550410" lon="9.2990950">
	<ele>739.80</ele>
	<time>2024-03-25T07:17:28.000Z</time>
</trkpt>
<trkpt lat="45.8550350" lon="9.2991030">
	<ele>740.00</ele>
	<time>2024-03-25T07:17:29.000Z</time>
</trkpt>
<trkpt lat="45.8550220" lon="9.2991120">
	<ele>740.20</ele>
	<time>2024-03-25T07:17:30.000Z</time>
</trkpt>
<trkpt lat="45.8550120" lon="9.2991110">
	<ele>740.60</ele>
	<time>2024-03-25T07:17:31.000Z</time>
</trkpt>
<trkpt lat="45.8550000" lon="9.2991100">
	<ele>740.60</ele>
	<time>2024-03-25T07:17:32.000Z</time>
</trkpt>
<trkpt lat="45.8549850" lon="9.2991080">
	<ele>740.80</ele>
	<time>2024-03-25T07:17:33.000Z</time>
</trkpt>
<trkpt lat="45.8549740" lon="9.2991170">
	<ele>740.80</ele>
	<time>2024-03-25T07:17:34.000Z</time>
</trkpt>
<trkpt lat="45.8549570" lon="9.2991240">
	<ele>741.00</ele>
	<time>2024-03-25T07:17:35.000Z</time>
</trkpt>
<trkpt lat="45.8549460" lon="9.2991330">
	<ele>741.40</ele>
	<time>2024-03-25T07:17:36.000Z</time>
</trkpt>
<trkpt lat="45.8549360" lon="9.2991400">
	<ele>741.60</ele>
	<time>2024-03-25T07:17:37.000Z</time>
</trkpt>
<trkpt lat="45.8549130" lon="9.2991360">
	<ele>741.60</ele>
	<time>2024-03-25T07:17:38.000Z</time>
</trkpt>
<trkpt lat="45.8548950" lon="9.2991330">
	<ele>741.80</ele>
	<time>2024-03-25T07:17:39.000Z</time>
</trkpt>
<trkpt lat="45.8548740" lon="9.2991470">
	<ele>742.00</ele>
	<time>2024-03-25T07:17:40.000Z</time>
</trkpt>
<trkpt lat="45.8548510" lon="9.2991540">
	<ele>742.20</ele>
	<time>2024-03-25T07:17:41.000Z</time>
</trkpt>
<trkpt lat="45.8548380" lon="9.2991560">
	<ele>742.40</ele>
	<time>2024-03-25T07:17:42.000Z</time>
</trkpt>
<trkpt lat="45.8548230" lon="9.2991540">
	<ele>742.40</ele>
	<time>2024-03-25T07:17:43.000Z</time>
</trkpt>
<trkpt lat="45.8548240" lon="9.2991540">
	<ele>742.60</ele>
	<time>2024-03-25T07:17:44.000Z</time>
</trkpt>
<trkpt lat="45.8548210" lon="9.2991530">
	<ele>742.80</ele>
	<time>2024-03-25T07:17:45.000Z</time>
</trkpt>
<trkpt lat="45.8548170" lon="9.2991530">
	<ele>743.00</ele>
	<time>2024-03-25T07:17:46.000Z</time>
</trkpt>
<trkpt lat="45.8548050" lon="9.2991550">
	<ele>743.20</ele>
	<time>2024-03-25T07:17:47.000Z</time>
</trkpt>
<trkpt lat="45.8547960" lon="9.2991580">
	<ele>743.40</ele>
	<time>2024-03-25T07:17:48.000Z</time>
</trkpt>
<trkpt lat="45.8547900" lon="9.2991520">
	<ele>743.60</ele>
	<time>2024-03-25T07:17:49.000Z</time>
</trkpt>
<trkpt lat="45.8547870" lon="9.2991500">
	<ele>743.60</ele>
	<time>2024-03-25T07:17:50.000Z</time>
</trkpt>
<trkpt lat="45.8547860" lon="9.2991470">
	<ele>743.80</ele>
	<time>2024-03-25T07:17:51.000Z</time>
</trkpt>
<trkpt lat="45.8547770" lon="9.2991420">
	<ele>744.20</ele>
	<time>2024-03-25T07:17:52.000Z</time>
</trkpt>
<trkpt lat="45.8547600" lon="9.2991320">
	<ele>744.40</ele>
	<time>2024-03-25T07:17:53.000Z</time>
</trkpt>
<trkpt lat="45.8547410" lon="9.2991220">
	<ele>744.60</ele>
	<time>2024-03-25T07:17:54.000Z</time>
</trkpt>
<trkpt lat="45.8547220" lon="9.2991220">
	<ele>744.80</ele>
	<time>2024-03-25T07:17:55.000Z</time>
</trkpt>
<trkpt lat="45.8547070" lon="9.2991230">
	<ele>744.80</ele>
	<time>2024-03-25T07:17:56.000Z</time>
</trkpt>
<trkpt lat="45.8546890" lon="9.2991280">
	<ele>745.00</ele>
	<time>2024-03-25T07:17:57.000Z</time>
</trkpt>
<trkpt lat="45.8546770" lon="9.2991330">
	<ele>745.00</ele>
	<time>2024-03-25T07:17:58.000Z</time>
</trkpt>
<trkpt lat="45.8546700" lon="9.2991470">
	<ele>745.20</ele>
	<time>2024-03-25T07:17:59.000Z</time>
</trkpt>
<trkpt lat="45.8546600" lon="9.2991600">
	<ele>745.40</ele>
	<time>2024-03-25T07:18:00.000Z</time>
</trkpt>
<trkpt lat="45.8546580" lon="9.2991730">
	<ele>745.60</ele>
	<time>2024-03-25T07:18:01.000Z</time>
</trkpt>
<trkpt lat="45.8546540" lon="9.2991770">
	<ele>745.80</ele>
	<time>2024-03-25T07:18:02.000Z</time>
</trkpt>
<trkpt lat="45.8546460" lon="9.2991770">
	<ele>745.80</ele>
	<time>2024-03-25T07:18:03.000Z</time>
</trkpt>
<trkpt lat="45.8546420" lon="9.2991820">
	<ele>746.00</ele>
	<time>2024-03-25T07:18:04.000Z</time>
</trkpt>
<trkpt lat="45.8546390" lon="9.2991860">
	<ele>746.00</ele>
	<time>2024-03-25T07:18:05.000Z</time>
</trkpt>
<trkpt lat="45.8546380" lon="9.2991890">
	<ele>746.20</ele>
	<time>2024-03-25T07:18:06.000Z</time>
</trkpt>
<trkpt lat="45.8546380" lon="9.2991900">
	<ele>746.40</ele>
	<time>2024-03-25T07:18:07.000Z</time>
</trkpt>
<trkpt lat="45.8546370" lon="9.2991920">
	<ele>746.60</ele>
	<time>2024-03-25T07:18:08.000Z</time>
</trkpt>
<trkpt lat="45.8546360" lon="9.2991970">
	<ele>746.80</ele>
	<time>2024-03-25T07:18:09.000Z</time>
</trkpt>
<trkpt lat="45.8546370" lon="9.2991910">
	<ele>746.80</ele>
	<time>2024-03-25T07:18:10.000Z</time>
</trkpt>
<trkpt lat="45.8546400" lon="9.2991870">
	<ele>746.80</ele>
	<time>2024-03-25T07:18:11.000Z</time>
</trkpt>
<trkpt lat="45.8546360" lon="9.2991840">
	<ele>747.00</ele>
	<time>2024-03-25T07:18:12.000Z</time>
</trkpt>
<trkpt lat="45.8546330" lon="9.2991840">
	<ele>747.00</ele>
	<time>2024-03-25T07:18:13.000Z</time>
</trkpt>
<trkpt lat="45.8546300" lon="9.2991780">
	<ele>747.00</ele>
	<time>2024-03-25T07:18:14.000Z</time>
</trkpt>
<trkpt lat="45.8546220" lon="9.2991770">
	<ele>746.80</ele>
	<time>2024-03-25T07:18:15.000Z</time>
</trkpt>
<trkpt lat="45.8546250" lon="9.2991750">
	<ele>746.80</ele>
	<time>2024-03-25T07:18:16.000Z</time>
</trkpt>
<trkpt lat="45.8546200" lon="9.2991780">
	<ele>746.80</ele>
	<time>2024-03-25T07:18:17.000Z</time>
</trkpt>
<trkpt lat="45.8546190" lon="9.2991890">
	<ele>746.80</ele>
	<time>2024-03-25T07:18:18.000Z</time>
</trkpt>
<trkpt lat="45.8546220" lon="9.2991910">
	<ele>746.80</ele>
	<time>2024-03-25T07:18:19.000Z</time>
</trkpt>
<trkpt lat="45.8546220" lon="9.2991900">
	<ele>746.80</ele>
	<time>2024-03-25T07:18:20.000Z</time>
</trkpt>
<trkpt lat="45.8546220" lon="9.2991890">
	<ele>746.80</ele>
	<time>2024-03-25T07:18:21.000Z</time>
</trkpt>
<trkpt lat="45.8546190" lon="9.2991970">
	<ele>746.80</ele>
	<time>2024-03-25T07:18:22.000Z</time>
</trkpt>
<trkpt lat="45.8546200" lon="9.2992030">
	<ele>746.80</ele>
	<time>2024-03-25T07:18:23.000Z</time>
</trkpt>
<trkpt lat="45.8546210" lon="9.2992060">
	<ele>746.80</ele>
	<time>2024-03-25T07:18:24.000Z</time>
</trkpt>
<trkpt lat="45.8546200" lon="9.2992100">
	<ele>747.00</ele>
	<time>2024-03-25T07:18:25.000Z</time>
</trkpt>
<trkpt lat="45.8546190" lon="9.2992100">
	<ele>747.00</ele>
	<time>2024-03-25T07:18:26.000Z</time>
</trkpt>
<trkpt lat="45.8546200" lon="9.2992090">
	<ele>747.20</ele>
	<time>2024-03-25T07:18:27.000Z</time>
</trkpt>
<trkpt lat="45.8546220" lon="9.2992090">
	<ele>747.20</ele>
	<time>2024-03-25T07:18:28.000Z</time>
</trkpt>
<trkpt lat="45.8546250" lon="9.2992090">
	<ele>747.20</ele>
	<time>2024-03-25T07:18:29.000Z</time>
</trkpt>
<trkpt lat="45.8546270" lon="9.2992080">
	<ele>747.20</ele>
	<time>2024-03-25T07:18:30.000Z</time>
</trkpt>
<trkpt lat="45.8546260" lon="9.2992100">
	<ele>747.20</ele>
	<time>2024-03-25T07:18:31.000Z</time>
</trkpt>
<trkpt lat="45.8546260" lon="9.2992100">
	<ele>747.00</ele>
	<time>2024-03-25T07:18:32.000Z</time>
</trkpt>
<trkpt lat="45.8546260" lon="9.2992100">
	<ele>747.00</ele>
	<time>2024-03-25T07:18:33.000Z</time>
</trkpt>
<trkpt lat="45.8546260" lon="9.2992100">
	<ele>747.00</ele>
	<time>2024-03-25T07:18:34.000Z</time>
</trkpt>
<trkpt lat="45.8546260" lon="9.2992100">
	<ele>747.00</ele>
	<time>2024-03-25T07:18:35.000Z</time>
</trkpt>
<trkpt lat="45.8546260" lon="9.2992100">
	<ele>747.00</ele>
	<time>2024-03-25T07:18:36.000Z</time>
</trkpt>
<trkpt lat="45.8546260" lon="9.2992100">
	<ele>746.80</ele>
	<time>2024-03-25T07:18:37.000Z</time>
</trkpt>
<trkpt lat="45.8546260" lon="9.2992100">
	<ele>746.80</ele>
	<time>2024-03-25T07:18:38.000Z</time>
</trkpt>
<trkpt lat="45.8546240" lon="9.2992170">
	<ele>746.80</ele>
	<time>2024-03-25T07:18:39.000Z</time>
</trkpt>
<trkpt lat="45.8546240" lon="9.2992170">
	<ele>746.80</ele>
	<time>2024-03-25T07:18:40.000Z</time>
</trkpt>
<trkpt lat="45.8546230" lon="9.2992180">
	<ele>746.80</ele>
	<time>2024-03-25T07:18:41.000Z</time>
</trkpt>
<trkpt lat="45.8546140" lon="9.2992220">
	<ele>746.80</ele>
	<time>2024-03-25T07:18:42.000Z</time>
</trkpt>
<trkpt lat="45.8545980" lon="9.2992290">
	<ele>746.80</ele>
	<time>2024-03-25T07:18:43.000Z</time>
</trkpt>
<trkpt lat="45.8545940" lon="9.2992300">
	<ele>746.80</ele>
	<time>2024-03-25T07:18:44.000Z</time>
</trkpt>
<trkpt lat="45.8545910" lon="9.2992300">
	<ele>746.80</ele>
	<time>2024-03-25T07:18:45.000Z</time>
</trkpt>
<trkpt lat="45.8545860" lon="9.2992310">
	<ele>746.80</ele>
	<time>2024-03-25T07:18:46.000Z</time>
</trkpt>
<trkpt lat="45.8545850" lon="9.2992330">
	<ele>746.80</ele>
	<time>2024-03-25T07:18:47.000Z</time>
</trkpt>
<trkpt lat="45.8545820" lon="9.2992340">
	<ele>746.80</ele>
	<time>2024-03-25T07:18:48.000Z</time>
</trkpt>
<trkpt lat="45.8545780" lon="9.2992430">
	<ele>747.00</ele>
	<time>2024-03-25T07:18:49.000Z</time>
</trkpt>
<trkpt lat="45.8545710" lon="9.2992480">
	<ele>747.00</ele>
	<time>2024-03-25T07:18:50.000Z</time>
</trkpt>
<trkpt lat="45.8545690" lon="9.2992440">
	<ele>747.00</ele>
	<time>2024-03-25T07:18:51.000Z</time>
</trkpt>
<trkpt lat="45.8545660" lon="9.2992420">
	<ele>747.20</ele>
	<time>2024-03-25T07:18:52.000Z</time>
</trkpt>
<trkpt lat="45.8545600" lon="9.2992430">
	<ele>747.20</ele>
	<time>2024-03-25T07:18:53.000Z</time>
</trkpt>
<trkpt lat="45.8545600" lon="9.2992430">
	<ele>747.20</ele>
	<time>2024-03-25T07:18:54.000Z</time>
</trkpt>
<trkpt lat="45.8545620" lon="9.2992450">
	<ele>747.20</ele>
	<time>2024-03-25T07:18:55.000Z</time>
</trkpt>
<trkpt lat="45.8545610" lon="9.2992600">
	<ele>747.20</ele>
	<time>2024-03-25T07:18:56.000Z</time>
</trkpt>
<trkpt lat="45.8545550" lon="9.2992590">
	<ele>747.20</ele>
	<time>2024-03-25T07:18:57.000Z</time>
</trkpt>
<trkpt lat="45.8545510" lon="9.2992740">
	<ele>747.20</ele>
	<time>2024-03-25T07:18:58.000Z</time>
</trkpt>
<trkpt lat="45.8545500" lon="9.2992750">
	<ele>747.20</ele>
	<time>2024-03-25T07:18:59.000Z</time>
</trkpt>
<trkpt lat="45.8545510" lon="9.2992880">
	<ele>747.20</ele>
	<time>2024-03-25T07:19:00.000Z</time>
</trkpt>
<trkpt lat="45.8545430" lon="9.2992960">
	<ele>747.20</ele>
	<time>2024-03-25T07:19:01.000Z</time>
</trkpt>
<trkpt lat="45.8545410" lon="9.2993000">
	<ele>747.00</ele>
	<time>2024-03-25T07:19:02.000Z</time>
</trkpt>
<trkpt lat="45.8545380" lon="9.2993050">
	<ele>747.00</ele>
	<time>2024-03-25T07:19:03.000Z</time>
</trkpt>
<trkpt lat="45.8545390" lon="9.2993050">
	<ele>747.00</ele>
	<time>2024-03-25T07:19:04.000Z</time>
</trkpt>
<trkpt lat="45.8545390" lon="9.2993040">
	<ele>747.00</ele>
	<time>2024-03-25T07:19:05.000Z</time>
</trkpt>
<trkpt lat="45.8545370" lon="9.2993060">
	<ele>747.00</ele>
	<time>2024-03-25T07:19:06.000Z</time>
</trkpt>
<trkpt lat="45.8545340" lon="9.2993070">
	<ele>746.80</ele>
	<time>2024-03-25T07:19:07.000Z</time>
</trkpt>
<trkpt lat="45.8545310" lon="9.2993030">
	<ele>747.00</ele>
	<time>2024-03-25T07:19:08.000Z</time>
</trkpt>
<trkpt lat="45.8545280" lon="9.2992990">
	<ele>747.00</ele>
	<time>2024-03-25T07:19:09.000Z</time>
</trkpt>
<trkpt lat="45.8545240" lon="9.2992970">
	<ele>747.00</ele>
	<time>2024-03-25T07:19:10.000Z</time>
</trkpt>
<trkpt lat="45.8545200" lon="9.2992940">
	<ele>747.00</ele>
	<time>2024-03-25T07:19:11.000Z</time>
</trkpt>
<trkpt lat="45.8545160" lon="9.2992930">
	<ele>747.00</ele>
	<time>2024-03-25T07:19:12.000Z</time>
</trkpt>
<trkpt lat="45.8545150" lon="9.2992940">
	<ele>747.00</ele>
	<time>2024-03-25T07:19:13.000Z</time>
</trkpt>
<trkpt lat="45.8545160" lon="9.2992920">
	<ele>747.20</ele>
	<time>2024-03-25T07:19:14.000Z</time>
</trkpt>
<trkpt lat="45.8545190" lon="9.2992940">
	<ele>747.20</ele>
	<time>2024-03-25T07:19:15.000Z</time>
</trkpt>
<trkpt lat="45.8545290" lon="9.2993070">
	<ele>747.20</ele>
	<time>2024-03-25T07:19:16.000Z</time>
</trkpt>
<trkpt lat="45.8545330" lon="9.2993060">
	<ele>747.20</ele>
	<time>2024-03-25T07:19:17.000Z</time>
</trkpt>
<trkpt lat="45.8545310" lon="9.2993010">
	<ele>747.20</ele>
	<time>2024-03-25T07:19:18.000Z</time>
</trkpt>
<trkpt lat="45.8545320" lon="9.2993020">
	<ele>747.40</ele>
	<time>2024-03-25T07:19:19.000Z</time>
</trkpt>
<trkpt lat="45.8545340" lon="9.2993060">
	<ele>747.60</ele>
	<time>2024-03-25T07:19:20.000Z</time>
</trkpt>
<trkpt lat="45.8545330" lon="9.2993060">
	<ele>747.80</ele>
	<time>2024-03-25T07:19:21.000Z</time>
</trkpt>
<trkpt lat="45.8545360" lon="9.2993140">
	<ele>748.00</ele>
	<time>2024-03-25T07:19:22.000Z</time>
</trkpt>
<trkpt lat="45.8545370" lon="9.2993270">
	<ele>748.20</ele>
	<time>2024-03-25T07:19:23.000Z</time>
</trkpt>
<trkpt lat="45.8545390" lon="9.2993340">
	<ele>748.20</ele>
	<time>2024-03-25T07:19:24.000Z</time>
</trkpt>
<trkpt lat="45.8545410" lon="9.2993380">
	<ele>748.40</ele>
	<time>2024-03-25T07:19:25.000Z</time>
</trkpt>
<trkpt lat="45.8545450" lon="9.2993470">
	<ele>748.40</ele>
	<time>2024-03-25T07:19:26.000Z</time>
</trkpt>
<trkpt lat="45.8545470" lon="9.2993530">
	<ele>748.80</ele>
	<time>2024-03-25T07:19:27.000Z</time>
</trkpt>
<trkpt lat="45.8545490" lon="9.2993650">
	<ele>749.00</ele>
	<time>2024-03-25T07:19:28.000Z</time>
</trkpt>
<trkpt lat="45.8545540" lon="9.2993720">
	<ele>749.20</ele>
	<time>2024-03-25T07:19:29.000Z</time>
</trkpt>
<trkpt lat="45.8545610" lon="9.2993760">
	<ele>749.20</ele>
	<time>2024-03-25T07:19:30.000Z</time>
</trkpt>
<trkpt lat="45.8545640" lon="9.2993820">
	<ele>749.40</ele>
	<time>2024-03-25T07:19:31.000Z</time>
</trkpt>
<trkpt lat="45.8545730" lon="9.2993920">
	<ele>749.40</ele>
	<time>2024-03-25T07:19:32.000Z</time>
</trkpt>
<trkpt lat="45.8545820" lon="9.2993970">
	<ele>749.60</ele>
	<time>2024-03-25T07:19:33.000Z</time>
</trkpt>
<trkpt lat="45.8545890" lon="9.2994060">
	<ele>749.60</ele>
	<time>2024-03-25T07:19:34.000Z</time>
</trkpt>
<trkpt lat="45.8545940" lon="9.2994010">
	<ele>749.80</ele>
	<time>2024-03-25T07:19:35.000Z</time>
</trkpt>
<trkpt lat="45.8546060" lon="9.2994040">
	<ele>749.80</ele>
	<time>2024-03-25T07:19:36.000Z</time>
</trkpt>
<trkpt lat="45.8546200" lon="9.2993960">
	<ele>749.80</ele>
	<time>2024-03-25T07:19:37.000Z</time>
</trkpt>
<trkpt lat="45.8546310" lon="9.2993910">
	<ele>749.80</ele>
	<time>2024-03-25T07:19:38.000Z</time>
</trkpt>
<trkpt lat="45.8546300" lon="9.2993890">
	<ele>750.00</ele>
	<time>2024-03-25T07:19:39.000Z</time>
</trkpt>
<trkpt lat="45.8546310" lon="9.2993900">
	<ele>750.00</ele>
	<time>2024-03-25T07:19:40.000Z</time>
</trkpt>
<trkpt lat="45.8546320" lon="9.2993900">
	<ele>750.00</ele>
	<time>2024-03-25T07:19:41.000Z</time>
</trkpt>
<trkpt lat="45.8546360" lon="9.2993930">
	<ele>750.00</ele>
	<time>2024-03-25T07:19:42.000Z</time>
</trkpt>
<trkpt lat="45.8546380" lon="9.2993980">
	<ele>750.20</ele>
	<time>2024-03-25T07:19:43.000Z</time>
</trkpt>
<trkpt lat="45.8546400" lon="9.2993960">
	<ele>750.20</ele>
	<time>2024-03-25T07:19:44.000Z</time>
</trkpt>
<trkpt lat="45.8546440" lon="9.2993940">
	<ele>750.40</ele>
	<time>2024-03-25T07:19:45.000Z</time>
</trkpt>
<trkpt lat="45.8546450" lon="9.2993920">
	<ele>750.40</ele>
	<time>2024-03-25T07:19:46.000Z</time>
</trkpt>
<trkpt lat="45.8546430" lon="9.2993910">
	<ele>750.40</ele>
	<time>2024-03-25T07:19:47.000Z</time>
</trkpt>
<trkpt lat="45.8546430" lon="9.2993920">
	<ele>750.40</ele>
	<time>2024-03-25T07:19:48.000Z</time>
</trkpt>
<trkpt lat="45.8546450" lon="9.2993890">
	<ele>750.20</ele>
	<time>2024-03-25T07:19:49.000Z</time>
</trkpt>
<trkpt lat="45.8546460" lon="9.2993890">
	<ele>750.20</ele>
	<time>2024-03-25T07:19:50.000Z</time>
</trkpt>
<trkpt lat="45.8546430" lon="9.2993890">
	<ele>750.20</ele>
	<time>2024-03-25T07:19:51.000Z</time>
</trkpt>
<trkpt lat="45.8546420" lon="9.2993880">
	<ele>750.40</ele>
	<time>2024-03-25T07:19:52.000Z</time>
</trkpt>
<trkpt lat="45.8546400" lon="9.2993900">
	<ele>750.40</ele>
	<time>2024-03-25T07:19:53.000Z</time>
</trkpt>
<trkpt lat="45.8546390" lon="9.2993910">
	<ele>750.40</ele>
	<time>2024-03-25T07:19:54.000Z</time>
</trkpt>
<trkpt lat="45.8546410" lon="9.2993940">
	<ele>750.40</ele>
	<time>2024-03-25T07:19:55.000Z</time>
</trkpt>
<trkpt lat="45.8546460" lon="9.2993900">
	<ele>750.40</ele>
	<time>2024-03-25T07:19:56.000Z</time>
</trkpt>
<trkpt lat="45.8546490" lon="9.2993870">
	<ele>750.40</ele>
	<time>2024-03-25T07:19:57.000Z</time>
</trkpt>
<trkpt lat="45.8546520" lon="9.2993880">
	<ele>750.40</ele>
	<time>2024-03-25T07:19:58.000Z</time>
</trkpt>
<trkpt lat="45.8546510" lon="9.2993940">
	<ele>750.60</ele>
	<time>2024-03-25T07:19:59.000Z</time>
</trkpt>
<trkpt lat="45.8546520" lon="9.2994070">
	<ele>750.60</ele>
	<time>2024-03-25T07:20:00.000Z</time>
</trkpt>
<trkpt lat="45.8546500" lon="9.2994180">
	<ele>750.80</ele>
	<time>2024-03-25T07:20:01.000Z</time>
</trkpt>
<trkpt lat="45.8546510" lon="9.2994310">
	<ele>751.00</ele>
	<time>2024-03-25T07:20:02.000Z</time>
</trkpt>
<trkpt lat="45.8546530" lon="9.2994420">
	<ele>751.40</ele>
	<time>2024-03-25T07:20:03.000Z</time>
</trkpt>
<trkpt lat="45.8546600" lon="9.2994480">
	<ele>751.60</ele>
	<time>2024-03-25T07:20:04.000Z</time>
</trkpt>
<trkpt lat="45.8546740" lon="9.2994560">
	<ele>751.80</ele>
	<time>2024-03-25T07:20:05.000Z</time>
</trkpt>
<trkpt lat="45.8546760" lon="9.2994530">
	<ele>752.00</ele>
	<time>2024-03-25T07:20:06.000Z</time>
</trkpt>
<trkpt lat="45.8546780" lon="9.2994560">
	<ele>752.20</ele>
	<time>2024-03-25T07:20:07.000Z</time>
</trkpt>
<trkpt lat="45.8546800" lon="9.2994570">
	<ele>752.60</ele>
	<time>2024-03-25T07:20:08.000Z</time>
</trkpt>
<trkpt lat="45.8546880" lon="9.2994620">
	<ele>752.80</ele>
	<time>2024-03-25T07:20:09.000Z</time>
</trkpt>
<trkpt lat="45.8546940" lon="9.2994710">
	<ele>753.00</ele>
	<time>2024-03-25T07:20:10.000Z</time>
</trkpt>
<trkpt lat="45.8546950" lon="9.2994820">
	<ele>753.20</ele>
	<time>2024-03-25T07:20:11.000Z</time>
</trkpt>
<trkpt lat="45.8546970" lon="9.2994870">
	<ele>753.20</ele>
	<time>2024-03-25T07:20:12.000Z</time>
</trkpt>
<trkpt lat="45.8547050" lon="9.2994950">
	<ele>753.40</ele>
	<time>2024-03-25T07:20:13.000Z</time>
</trkpt>
<trkpt lat="45.8547070" lon="9.2995020">
	<ele>753.60</ele>
	<time>2024-03-25T07:20:14.000Z</time>
</trkpt>
<trkpt lat="45.8547140" lon="9.2995050">
	<ele>753.80</ele>
	<time>2024-03-25T07:20:15.000Z</time>
</trkpt>
<trkpt lat="45.8547210" lon="9.2995140">
	<ele>754.00</ele>
	<time>2024-03-25T07:20:16.000Z</time>
</trkpt>
<trkpt lat="45.8547270" lon="9.2995230">
	<ele>754.20</ele>
	<time>2024-03-25T07:20:17.000Z</time>
</trkpt>
<trkpt lat="45.8547380" lon="9.2995280">
	<ele>754.40</ele>
	<time>2024-03-25T07:20:18.000Z</time>
</trkpt>
<trkpt lat="45.8547470" lon="9.2995330">
	<ele>754.60</ele>
	<time>2024-03-25T07:20:19.000Z</time>
</trkpt>
<trkpt lat="45.8547580" lon="9.2995380">
	<ele>754.80</ele>
	<time>2024-03-25T07:20:20.000Z</time>
</trkpt>
<trkpt lat="45.8547620" lon="9.2995460">
	<ele>754.80</ele>
	<time>2024-03-25T07:20:21.000Z</time>
</trkpt>
<trkpt lat="45.8547670" lon="9.2995580">
	<ele>755.00</ele>
	<time>2024-03-25T07:20:22.000Z</time>
</trkpt>
<trkpt lat="45.8547700" lon="9.2995600">
	<ele>755.20</ele>
	<time>2024-03-25T07:20:23.000Z</time>
</trkpt>
<trkpt lat="45.8547700" lon="9.2995620">
	<ele>755.40</ele>
	<time>2024-03-25T07:20:24.000Z</time>
</trkpt>
<trkpt lat="45.8547780" lon="9.2995660">
	<ele>755.60</ele>
	<time>2024-03-25T07:20:25.000Z</time>
</trkpt>
<trkpt lat="45.8547890" lon="9.2995690">
	<ele>755.60</ele>
	<time>2024-03-25T07:20:26.000Z</time>
</trkpt>
<trkpt lat="45.8547970" lon="9.2995690">
	<ele>755.80</ele>
	<time>2024-03-25T07:20:27.000Z</time>
</trkpt>
<trkpt lat="45.8548050" lon="9.2995700">
	<ele>756.00</ele>
	<time>2024-03-25T07:20:28.000Z</time>
</trkpt>
<trkpt lat="45.8548120" lon="9.2995870">
	<ele>756.20</ele>
	<time>2024-03-25T07:20:29.000Z</time>
</trkpt>
<trkpt lat="45.8548070" lon="9.2995840">
	<ele>756.40</ele>
	<time>2024-03-25T07:20:30.000Z</time>
</trkpt>
<trkpt lat="45.8548060" lon="9.2995860">
	<ele>756.40</ele>
	<time>2024-03-25T07:20:31.000Z</time>
</trkpt>
<trkpt lat="45.8548090" lon="9.2995850">
	<ele>756.60</ele>
	<time>2024-03-25T07:20:32.000Z</time>
</trkpt>
<trkpt lat="45.8548100" lon="9.2995710">
	<ele>756.80</ele>
	<time>2024-03-25T07:20:33.000Z</time>
</trkpt>
<trkpt lat="45.8548130" lon="9.2995640">
	<ele>757.20</ele>
	<time>2024-03-25T07:20:34.000Z</time>
</trkpt>
<trkpt lat="45.8548150" lon="9.2995660">
	<ele>757.40</ele>
	<time>2024-03-25T07:20:35.000Z</time>
</trkpt>
<trkpt lat="45.8548220" lon="9.2995670">
	<ele>757.60</ele>
	<time>2024-03-25T07:20:36.000Z</time>
</trkpt>
<trkpt lat="45.8548300" lon="9.2995600">
	<ele>757.80</ele>
	<time>2024-03-25T07:20:37.000Z</time>
</trkpt>
<trkpt lat="45.8548370" lon="9.2995560">
	<ele>758.00</ele>
	<time>2024-03-25T07:20:38.000Z</time>
</trkpt>
<trkpt lat="45.8548390" lon="9.2995510">
	<ele>758.00</ele>
	<time>2024-03-25T07:20:39.000Z</time>
</trkpt>
<trkpt lat="45.8548410" lon="9.2995510">
	<ele>758.20</ele>
	<time>2024-03-25T07:20:40.000Z</time>
</trkpt>
<trkpt lat="45.8548430" lon="9.2995510">
	<ele>758.20</ele>
	<time>2024-03-25T07:20:41.000Z</time>
</trkpt>
<trkpt lat="45.8548490" lon="9.2995490">
	<ele>758.20</ele>
	<time>2024-03-25T07:20:42.000Z</time>
</trkpt>
<trkpt lat="45.8548570" lon="9.2995480">
	<ele>758.40</ele>
	<time>2024-03-25T07:20:43.000Z</time>
</trkpt>
<trkpt lat="45.8548680" lon="9.2995500">
	<ele>758.60</ele>
	<time>2024-03-25T07:20:44.000Z</time>
</trkpt>
<trkpt lat="45.8548700" lon="9.2995510">
	<ele>758.80</ele>
	<time>2024-03-25T07:20:45.000Z</time>
</trkpt>
<trkpt lat="45.8548740" lon="9.2995540">
	<ele>759.00</ele>
	<time>2024-03-25T07:20:46.000Z</time>
</trkpt>
<trkpt lat="45.8548760" lon="9.2995550">
	<ele>759.00</ele>
	<time>2024-03-25T07:20:47.000Z</time>
</trkpt>
<trkpt lat="45.8548790" lon="9.2995650">
	<ele>759.20</ele>
	<time>2024-03-25T07:20:48.000Z</time>
</trkpt>
<trkpt lat="45.8548830" lon="9.2995720">
	<ele>759.40</ele>
	<time>2024-03-25T07:20:49.000Z</time>
</trkpt>
<trkpt lat="45.8548850" lon="9.2995690">
	<ele>759.60</ele>
	<time>2024-03-25T07:20:50.000Z</time>
</trkpt>
<trkpt lat="45.8548850" lon="9.2995720">
	<ele>759.80</ele>
	<time>2024-03-25T07:20:51.000Z</time>
</trkpt>
<trkpt lat="45.8548870" lon="9.2995690">
	<ele>759.80</ele>
	<time>2024-03-25T07:20:52.000Z</time>
</trkpt>
<trkpt lat="45.8548880" lon="9.2995690">
	<ele>760.00</ele>
	<time>2024-03-25T07:20:53.000Z</time>
</trkpt>
<trkpt lat="45.8548980" lon="9.2995720">
	<ele>760.20</ele>
	<time>2024-03-25T07:20:54.000Z</time>
</trkpt>
<trkpt lat="45.8549030" lon="9.2995840">
	<ele>760.40</ele>
	<time>2024-03-25T07:20:55.000Z</time>
</trkpt>
<trkpt lat="45.8549080" lon="9.2995810">
	<ele>760.60</ele>
	<time>2024-03-25T07:20:56.000Z</time>
</trkpt>
<trkpt lat="45.8549170" lon="9.2995750">
	<ele>760.80</ele>
	<time>2024-03-25T07:20:57.000Z</time>
</trkpt>
<trkpt lat="45.8549200" lon="9.2995690">
	<ele>761.00</ele>
	<time>2024-03-25T07:20:58.000Z</time>
</trkpt>
<trkpt lat="45.8549220" lon="9.2995660">
	<ele>761.00</ele>
	<time>2024-03-25T07:20:59.000Z</time>
</trkpt>
<trkpt lat="45.8549200" lon="9.2995650">
	<ele>761.40</ele>
	<time>2024-03-25T07:21:00.000Z</time>
</trkpt>
<trkpt lat="45.8549210" lon="9.2995650">
	<ele>761.60</ele>
	<time>2024-03-25T07:21:01.000Z</time>
</trkpt>
<trkpt lat="45.8549210" lon="9.2995630">
	<ele>761.80</ele>
	<time>2024-03-25T07:21:02.000Z</time>
</trkpt>
<trkpt lat="45.8549270" lon="9.2995640">
	<ele>761.80</ele>
	<time>2024-03-25T07:21:03.000Z</time>
</trkpt>
<trkpt lat="45.8549300" lon="9.2995660">
	<ele>762.00</ele>
	<time>2024-03-25T07:21:04.000Z</time>
</trkpt>
<trkpt lat="45.8549360" lon="9.2995660">
	<ele>762.00</ele>
	<time>2024-03-25T07:21:05.000Z</time>
</trkpt>
<trkpt lat="45.8549440" lon="9.2995580">
	<ele>762.40</ele>
	<time>2024-03-25T07:21:06.000Z</time>
</trkpt>
<trkpt lat="45.8549440" lon="9.2995590">
	<ele>762.60</ele>
	<time>2024-03-25T07:21:07.000Z</time>
</trkpt>
<trkpt lat="45.8549440" lon="9.2995610">
	<ele>762.80</ele>
	<time>2024-03-25T07:21:08.000Z</time>
</trkpt>
<trkpt lat="45.8549510" lon="9.2995690">
	<ele>763.00</ele>
	<time>2024-03-25T07:21:09.000Z</time>
</trkpt>
<trkpt lat="45.8549490" lon="9.2995780">
	<ele>763.20</ele>
	<time>2024-03-25T07:21:10.000Z</time>
</trkpt>
<trkpt lat="45.8549470" lon="9.2995800">
	<ele>763.20</ele>
	<time>2024-03-25T07:21:11.000Z</time>
</trkpt>
<trkpt lat="45.8549540" lon="9.2995760">
	<ele>763.40</ele>
	<time>2024-03-25T07:21:12.000Z</time>
</trkpt>
<trkpt lat="45.8549550" lon="9.2995790">
	<ele>763.60</ele>
	<time>2024-03-25T07:21:13.000Z</time>
</trkpt>
<trkpt lat="45.8549590" lon="9.2995830">
	<ele>763.60</ele>
	<time>2024-03-25T07:21:14.000Z</time>
</trkpt>
<trkpt lat="45.8549600" lon="9.2995880">
	<ele>763.80</ele>
	<time>2024-03-25T07:21:15.000Z</time>
</trkpt>
<trkpt lat="45.8549620" lon="9.2995890">
	<ele>764.00</ele>
	<time>2024-03-25T07:21:16.000Z</time>
</trkpt>
<trkpt lat="45.8549700" lon="9.2996060">
	<ele>764.00</ele>
	<time>2024-03-25T07:21:17.000Z</time>
</trkpt>
<trkpt lat="45.8549760" lon="9.2996220">
	<ele>764.20</ele>
	<time>2024-03-25T07:21:18.000Z</time>
</trkpt>
<trkpt lat="45.8549800" lon="9.2996190">
	<ele>764.40</ele>
	<time>2024-03-25T07:21:19.000Z</time>
</trkpt>
<trkpt lat="45.8549800" lon="9.2996190">
	<ele>764.60</ele>
	<time>2024-03-25T07:21:20.000Z</time>
</trkpt>
<trkpt lat="45.8549800" lon="9.2996190">
	<ele>764.60</ele>
	<time>2024-03-25T07:21:21.000Z</time>
</trkpt>
<trkpt lat="45.8549800" lon="9.2996190">
	<ele>764.80</ele>
	<time>2024-03-25T07:21:22.000Z</time>
</trkpt>
<trkpt lat="45.8549800" lon="9.2996190">
	<ele>765.00</ele>
	<time>2024-03-25T07:21:23.000Z</time>
</trkpt>
<trkpt lat="45.8549800" lon="9.2996190">
	<ele>765.20</ele>
	<time>2024-03-25T07:21:24.000Z</time>
</trkpt>
<trkpt lat="45.8549800" lon="9.2996190">
	<ele>765.40</ele>
	<time>2024-03-25T07:21:25.000Z</time>
</trkpt>
<trkpt lat="45.8549800" lon="9.2996190">
	<ele>765.60</ele>
	<time>2024-03-25T07:21:26.000Z</time>
</trkpt>
<trkpt lat="45.8549800" lon="9.2996190">
	<ele>765.80</ele>
	<time>2024-03-25T07:21:27.000Z</time>
</trkpt>
<trkpt lat="45.8549800" lon="9.2996190">
	<ele>766.00</ele>
	<time>2024-03-25T07:21:28.000Z</time>
</trkpt>
<trkpt lat="45.8549800" lon="9.2996190">
	<ele>766.20</ele>
	<time>2024-03-25T07:21:29.000Z</time>
</trkpt>
<trkpt lat="45.8549800" lon="9.2996190">
	<ele>766.20</ele>
	<time>2024-03-25T07:21:30.000Z</time>
</trkpt>
<trkpt lat="45.8549800" lon="9.2996190">
	<ele>766.60</ele>
	<time>2024-03-25T07:21:31.000Z</time>
</trkpt>
<trkpt lat="45.8549800" lon="9.2996190">
	<ele>766.60</ele>
	<time>2024-03-25T07:21:32.000Z</time>
</trkpt>
<trkpt lat="45.8549800" lon="9.2996190">
	<ele>766.80</ele>
	<time>2024-03-25T07:21:33.000Z</time>
</trkpt>
<trkpt lat="45.8549800" lon="9.2996190">
	<ele>767.00</ele>
	<time>2024-03-25T07:21:34.000Z</time>
</trkpt>
<trkpt lat="45.8549820" lon="9.2996190">
	<ele>767.20</ele>
	<time>2024-03-25T07:21:35.000Z</time>
</trkpt>
<trkpt lat="45.8549820" lon="9.2996190">
	<ele>767.60</ele>
	<time>2024-03-25T07:21:36.000Z</time>
</trkpt>
<trkpt lat="45.8549840" lon="9.2996200">
	<ele>767.60</ele>
	<time>2024-03-25T07:21:37.000Z</time>
</trkpt>
<trkpt lat="45.8549860" lon="9.2996210">
	<ele>767.80</ele>
	<time>2024-03-25T07:21:38.000Z</time>
</trkpt>
<trkpt lat="45.8549880" lon="9.2996220">
	<ele>767.80</ele>
	<time>2024-03-25T07:21:39.000Z</time>
</trkpt>
<trkpt lat="45.8549890" lon="9.2996250">
	<ele>768.00</ele>
	<time>2024-03-25T07:21:40.000Z</time>
</trkpt>
<trkpt lat="45.8549900" lon="9.2996270">
	<ele>768.40</ele>
	<time>2024-03-25T07:21:41.000Z</time>
</trkpt>
<trkpt lat="45.8549930" lon="9.2996380">
	<ele>768.60</ele>
	<time>2024-03-25T07:21:42.000Z</time>
</trkpt>
<trkpt lat="45.8549980" lon="9.2996510">
	<ele>768.80</ele>
	<time>2024-03-25T07:21:43.000Z</time>
</trkpt>
<trkpt lat="45.8550030" lon="9.2996590">
	<ele>769.00</ele>
	<time>2024-03-25T07:21:44.000Z</time>
</trkpt>
<trkpt lat="45.8550070" lon="9.2996670">
	<ele>769.20</ele>
	<time>2024-03-25T07:21:45.000Z</time>
</trkpt>
<trkpt lat="45.8550090" lon="9.2996690">
	<ele>769.20</ele>
	<time>2024-03-25T07:21:46.000Z</time>
</trkpt>
<trkpt lat="45.8550100" lon="9.2996700">
	<ele>769.20</ele>
	<time>2024-03-25T07:21:47.000Z</time>
</trkpt>
<trkpt lat="45.8550110" lon="9.2996700">
	<ele>769.40</ele>
	<time>2024-03-25T07:21:48.000Z</time>
</trkpt>
<trkpt lat="45.8550120" lon="9.2996720">
	<ele>769.40</ele>
	<time>2024-03-25T07:21:49.000Z</time>
</trkpt>
<trkpt lat="45.8550160" lon="9.2996740">
	<ele>769.60</ele>
	<time>2024-03-25T07:21:50.000Z</time>
</trkpt>
<trkpt lat="45.8550180" lon="9.2996750">
	<ele>769.80</ele>
	<time>2024-03-25T07:21:51.000Z</time>
</trkpt>
<trkpt lat="45.8550200" lon="9.2996770">
	<ele>769.80</ele>
	<time>2024-03-25T07:21:52.000Z</time>
</trkpt>
<trkpt lat="45.8550210" lon="9.2996820">
	<ele>770.00</ele>
	<time>2024-03-25T07:21:53.000Z</time>
</trkpt>
<trkpt lat="45.8550220" lon="9.2996870">
	<ele>770.20</ele>
	<time>2024-03-25T07:21:54.000Z</time>
</trkpt>
<trkpt lat="45.8550220" lon="9.2996960">
	<ele>770.20</ele>
	<time>2024-03-25T07:21:55.000Z</time>
</trkpt>
<trkpt lat="45.8550270" lon="9.2997050">
	<ele>770.20</ele>
	<time>2024-03-25T07:21:56.000Z</time>
</trkpt>
<trkpt lat="45.8550320" lon="9.2997130">
	<ele>770.40</ele>
	<time>2024-03-25T07:21:57.000Z</time>
</trkpt>
<trkpt lat="45.8550380" lon="9.2997210">
	<ele>770.60</ele>
	<time>2024-03-25T07:21:58.000Z</time>
</trkpt>
<trkpt lat="45.8550430" lon="9.2997260">
	<ele>770.80</ele>
	<time>2024-03-25T07:21:59.000Z</time>
</trkpt>
<trkpt lat="45.8550470" lon="9.2997270">
	<ele>770.80</ele>
	<time>2024-03-25T07:22:00.000Z</time>
</trkpt>
<trkpt lat="45.8550550" lon="9.2997350">
	<ele>771.00</ele>
	<time>2024-03-25T07:22:01.000Z</time>
</trkpt>
<trkpt lat="45.8550650" lon="9.2997470">
	<ele>771.20</ele>
	<time>2024-03-25T07:22:02.000Z</time>
</trkpt>
<trkpt lat="45.8550730" lon="9.2997540">
	<ele>771.40</ele>
	<time>2024-03-25T07:22:03.000Z</time>
</trkpt>
<trkpt lat="45.8550760" lon="9.2997560">
	<ele>771.60</ele>
	<time>2024-03-25T07:22:04.000Z</time>
</trkpt>
<trkpt lat="45.8550780" lon="9.2997570">
	<ele>771.60</ele>
	<time>2024-03-25T07:22:05.000Z</time>
</trkpt>
<trkpt lat="45.8550790" lon="9.2997570">
	<ele>771.80</ele>
	<time>2024-03-25T07:22:06.000Z</time>
</trkpt>
<trkpt lat="45.8550790" lon="9.2997580">
	<ele>772.00</ele>
	<time>2024-03-25T07:22:07.000Z</time>
</trkpt>
<trkpt lat="45.8550810" lon="9.2997580">
	<ele>772.20</ele>
	<time>2024-03-25T07:22:08.000Z</time>
</trkpt>
<trkpt lat="45.8550850" lon="9.2997690">
	<ele>772.40</ele>
	<time>2024-03-25T07:22:09.000Z</time>
</trkpt>
<trkpt lat="45.8550920" lon="9.2997720">
	<ele>772.40</ele>
	<time>2024-03-25T07:22:10.000Z</time>
</trkpt>
<trkpt lat="45.8550970" lon="9.2997740">
	<ele>772.60</ele>
	<time>2024-03-25T07:22:11.000Z</time>
</trkpt>
<trkpt lat="45.8551080" lon="9.2997800">
	<ele>772.80</ele>
	<time>2024-03-25T07:22:12.000Z</time>
</trkpt>
<trkpt lat="45.8551170" lon="9.2997970">
	<ele>772.80</ele>
	<time>2024-03-25T07:22:13.000Z</time>
</trkpt>
<trkpt lat="45.8551200" lon="9.2998040">
	<ele>773.40</ele>
	<time>2024-03-25T07:22:14.000Z</time>
</trkpt>
<trkpt lat="45.8551230" lon="9.2998130">
	<ele>773.60</ele>
	<time>2024-03-25T07:22:15.000Z</time>
</trkpt>
<trkpt lat="45.8551240" lon="9.2998170">
	<ele>773.60</ele>
	<time>2024-03-25T07:22:16.000Z</time>
</trkpt>
<trkpt lat="45.8551250" lon="9.2998180">
	<ele>773.80</ele>
	<time>2024-03-25T07:22:17.000Z</time>
</trkpt>
<trkpt lat="45.8551250" lon="9.2998230">
	<ele>773.80</ele>
	<time>2024-03-25T07:22:18.000Z</time>
</trkpt>
<trkpt lat="45.8551280" lon="9.2998280">
	<ele>774.00</ele>
	<time>2024-03-25T07:22:19.000Z</time>
</trkpt>
<trkpt lat="45.8551300" lon="9.2998390">
	<ele>774.00</ele>
	<time>2024-03-25T07:22:20.000Z</time>
</trkpt>
<trkpt lat="45.8551310" lon="9.2998460">
	<ele>774.20</ele>
	<time>2024-03-25T07:22:21.000Z</time>
</trkpt>
<trkpt lat="45.8551330" lon="9.2998490">
	<ele>774.40</ele>
	<time>2024-03-25T07:22:22.000Z</time>
</trkpt>
<trkpt lat="45.8551340" lon="9.2998500">
	<ele>774.60</ele>
	<time>2024-03-25T07:22:23.000Z</time>
</trkpt>
<trkpt lat="45.8551370" lon="9.2998530">
	<ele>774.80</ele>
	<time>2024-03-25T07:22:24.000Z</time>
</trkpt>
<trkpt lat="45.8551380" lon="9.2998570">
	<ele>774.80</ele>
	<time>2024-03-25T07:22:25.000Z</time>
</trkpt>
<trkpt lat="45.8551460" lon="9.2998640">
	<ele>775.00</ele>
	<time>2024-03-25T07:22:26.000Z</time>
</trkpt>
<trkpt lat="45.8551600" lon="9.2998730">
	<ele>775.20</ele>
	<time>2024-03-25T07:22:27.000Z</time>
</trkpt>
<trkpt lat="45.8551750" lon="9.2998910">
	<ele>775.20</ele>
	<time>2024-03-25T07:22:28.000Z</time>
</trkpt>
<trkpt lat="45.8551900" lon="9.2999150">
	<ele>775.40</ele>
	<time>2024-03-25T07:22:29.000Z</time>
</trkpt>
<trkpt lat="45.8552040" lon="9.2999350">
	<ele>775.60</ele>
	<time>2024-03-25T07:22:30.000Z</time>
</trkpt>
<trkpt lat="45.8552220" lon="9.2999530">
	<ele>775.60</ele>
	<time>2024-03-25T07:22:31.000Z</time>
</trkpt>
<trkpt lat="45.8552460" lon="9.2999680">
	<ele>775.80</ele>
	<time>2024-03-25T07:22:32.000Z</time>
</trkpt>
<trkpt lat="45.8552570" lon="9.2999760">
	<ele>776.00</ele>
	<time>2024-03-25T07:22:33.000Z</time>
</trkpt>
<trkpt lat="45.8552720" lon="9.2999720">
	<ele>776.20</ele>
	<time>2024-03-25T07:22:34.000Z</time>
</trkpt>
<trkpt lat="45.8552810" lon="9.2999760">
	<ele>776.40</ele>
	<time>2024-03-25T07:22:35.000Z</time>
</trkpt>
<trkpt lat="45.8552820" lon="9.2999740">
	<ele>776.60</ele>
	<time>2024-03-25T07:22:36.000Z</time>
</trkpt>
<trkpt lat="45.8552850" lon="9.2999780">
	<ele>776.60</ele>
	<time>2024-03-25T07:22:37.000Z</time>
</trkpt>
<trkpt lat="45.8552880" lon="9.2999780">
	<ele>776.80</ele>
	<time>2024-03-25T07:22:38.000Z</time>
</trkpt>
<trkpt lat="45.8552900" lon="9.2999870">
	<ele>777.00</ele>
	<time>2024-03-25T07:22:39.000Z</time>
</trkpt>
<trkpt lat="45.8552930" lon="9.2999880">
	<ele>777.00</ele>
	<time>2024-03-25T07:22:40.000Z</time>
</trkpt>
<trkpt lat="45.8552960" lon="9.2999890">
	<ele>777.20</ele>
	<time>2024-03-25T07:22:41.000Z</time>
</trkpt>
<trkpt lat="45.8552970" lon="9.2999940">
	<ele>777.20</ele>
	<time>2024-03-25T07:22:42.000Z</time>
</trkpt>
<trkpt lat="45.8552980" lon="9.2999950">
	<ele>777.40</ele>
	<time>2024-03-25T07:22:43.000Z</time>
</trkpt>
<trkpt lat="45.8553100" lon="9.3000040">
	<ele>777.40</ele>
	<time>2024-03-25T07:22:44.000Z</time>
</trkpt>
<trkpt lat="45.8553170" lon="9.3000150">
	<ele>777.60</ele>
	<time>2024-03-25T07:22:45.000Z</time>
</trkpt>
<trkpt lat="45.8553200" lon="9.3000170">
	<ele>777.80</ele>
	<time>2024-03-25T07:22:46.000Z</time>
</trkpt>
<trkpt lat="45.8553200" lon="9.3000190">
	<ele>778.00</ele>
	<time>2024-03-25T07:22:47.000Z</time>
</trkpt>
<trkpt lat="45.8553230" lon="9.3000210">
	<ele>778.20</ele>
	<time>2024-03-25T07:22:48.000Z</time>
</trkpt>
<trkpt lat="45.8553200" lon="9.3000170">
	<ele>778.40</ele>
	<time>2024-03-25T07:22:49.000Z</time>
</trkpt>
<trkpt lat="45.8553180" lon="9.3000160">
	<ele>778.40</ele>
	<time>2024-03-25T07:22:50.000Z</time>
</trkpt>
<trkpt lat="45.8553160" lon="9.3000150">
	<ele>778.60</ele>
	<time>2024-03-25T07:22:51.000Z</time>
</trkpt>
<trkpt lat="45.8553180" lon="9.3000180">
	<ele>778.80</ele>
	<time>2024-03-25T07:22:52.000Z</time>
</trkpt>
<trkpt lat="45.8553180" lon="9.3000180">
	<ele>779.00</ele>
	<time>2024-03-25T07:22:53.000Z</time>
</trkpt>
<trkpt lat="45.8553180" lon="9.3000180">
	<ele>779.20</ele>
	<time>2024-03-25T07:22:54.000Z</time>
</trkpt>
<trkpt lat="45.8553180" lon="9.3000180">
	<ele>779.40</ele>
	<time>2024-03-25T07:22:55.000Z</time>
</trkpt>
<trkpt lat="45.8553180" lon="9.3000180">
	<ele>779.40</ele>
	<time>2024-03-25T07:22:56.000Z</time>
</trkpt>
<trkpt lat="45.8553180" lon="9.3000180">
	<ele>779.60</ele>
	<time>2024-03-25T07:22:57.000Z</time>
</trkpt>
<trkpt lat="45.8553180" lon="9.3000180">
	<ele>779.80</ele>
	<time>2024-03-25T07:22:58.000Z</time>
</trkpt>
<trkpt lat="45.8553180" lon="9.3000180">
	<ele>780.00</ele>
	<time>2024-03-25T07:22:59.000Z</time>
</trkpt>
<trkpt lat="45.8553180" lon="9.3000180">
	<ele>780.00</ele>
	<time>2024-03-25T07:23:00.000Z</time>
</trkpt>
<trkpt lat="45.8553180" lon="9.3000180">
	<ele>780.20</ele>
	<time>2024-03-25T07:23:01.000Z</time>
</trkpt>
<trkpt lat="45.8553180" lon="9.3000180">
	<ele>780.20</ele>
	<time>2024-03-25T07:23:02.000Z</time>
</trkpt>
<trkpt lat="45.8553180" lon="9.3000180">
	<ele>780.20</ele>
	<time>2024-03-25T07:23:03.000Z</time>
</trkpt>
<trkpt lat="45.8553180" lon="9.3000180">
	<ele>780.20</ele>
	<time>2024-03-25T07:23:04.000Z</time>
</trkpt>
<trkpt lat="45.8553190" lon="9.3000180">
	<ele>780.40</ele>
	<time>2024-03-25T07:23:05.000Z</time>
</trkpt>
<trkpt lat="45.8553200" lon="9.3000180">
	<ele>780.40</ele>
	<time>2024-03-25T07:23:06.000Z</time>
</trkpt>
<trkpt lat="45.8553200" lon="9.3000190">
	<ele>780.80</ele>
	<time>2024-03-25T07:23:07.000Z</time>
</trkpt>
<trkpt lat="45.8553200" lon="9.3000210">
	<ele>781.00</ele>
	<time>2024-03-25T07:23:08.000Z</time>
</trkpt>
<trkpt lat="45.8553230" lon="9.3000210">
	<ele>781.20</ele>
	<time>2024-03-25T07:23:09.000Z</time>
</trkpt>
<trkpt lat="45.8553230" lon="9.3000290">
	<ele>781.40</ele>
	<time>2024-03-25T07:23:10.000Z</time>
</trkpt>
<trkpt lat="45.8553260" lon="9.3000290">
	<ele>781.60</ele>
	<time>2024-03-25T07:23:11.000Z</time>
</trkpt>
<trkpt lat="45.8553270" lon="9.3000290">
	<ele>781.80</ele>
	<time>2024-03-25T07:23:12.000Z</time>
</trkpt>
<trkpt lat="45.8553290" lon="9.3000300">
	<ele>782.00</ele>
	<time>2024-03-25T07:23:13.000Z</time>
</trkpt>
<trkpt lat="45.8553290" lon="9.3000300">
	<ele>782.00</ele>
	<time>2024-03-25T07:23:14.000Z</time>
</trkpt>
<trkpt lat="45.8553380" lon="9.3000310">
	<ele>782.20</ele>
	<time>2024-03-25T07:23:15.000Z</time>
</trkpt>
<trkpt lat="45.8553400" lon="9.3000350">
	<ele>782.60</ele>
	<time>2024-03-25T07:23:16.000Z</time>
</trkpt>
<trkpt lat="45.8553480" lon="9.3000380">
	<ele>782.80</ele>
	<time>2024-03-25T07:23:17.000Z</time>
</trkpt>
<trkpt lat="45.8553590" lon="9.3000390">
	<ele>782.80</ele>
	<time>2024-03-25T07:23:18.000Z</time>
</trkpt>
<trkpt lat="45.8553620" lon="9.3000390">
	<ele>783.00</ele>
	<time>2024-03-25T07:23:19.000Z</time>
</trkpt>
<trkpt lat="45.8553670" lon="9.3000390">
	<ele>783.00</ele>
	<time>2024-03-25T07:23:20.000Z</time>
</trkpt>
<trkpt lat="45.8553710" lon="9.3000400">
	<ele>783.00</ele>
	<time>2024-03-25T07:23:21.000Z</time>
</trkpt>
<trkpt lat="45.8553760" lon="9.3000420">
	<ele>783.20</ele>
	<time>2024-03-25T07:23:22.000Z</time>
</trkpt>
<trkpt lat="45.8553770" lon="9.3000430">
	<ele>783.20</ele>
	<time>2024-03-25T07:23:23.000Z</time>
</trkpt>
<trkpt lat="45.8553790" lon="9.3000450">
	<ele>783.40</ele>
	<time>2024-03-25T07:23:24.000Z</time>
</trkpt>
<trkpt lat="45.8553840" lon="9.3000460">
	<ele>783.60</ele>
	<time>2024-03-25T07:23:25.000Z</time>
</trkpt>
<trkpt lat="45.8553900" lon="9.3000520">
	<ele>783.80</ele>
	<time>2024-03-25T07:23:26.000Z</time>
</trkpt>
<trkpt lat="45.8554000" lon="9.3000630">
	<ele>784.00</ele>
	<time>2024-03-25T07:23:27.000Z</time>
</trkpt>
<trkpt lat="45.8554100" lon="9.3000740">
	<ele>784.20</ele>
	<time>2024-03-25T07:23:28.000Z</time>
</trkpt>
<trkpt lat="45.8554200" lon="9.3000810">
	<ele>784.40</ele>
	<time>2024-03-25T07:23:29.000Z</time>
</trkpt>
<trkpt lat="45.8554340" lon="9.3000890">
	<ele>784.60</ele>
	<time>2024-03-25T07:23:30.000Z</time>
</trkpt>
<trkpt lat="45.8554500" lon="9.3001020">
	<ele>784.80</ele>
	<time>2024-03-25T07:23:31.000Z</time>
</trkpt>
<trkpt lat="45.8554640" lon="9.3001120">
	<ele>785.00</ele>
	<time>2024-03-25T07:23:32.000Z</time>
</trkpt>
<trkpt lat="45.8554790" lon="9.3001150">
	<ele>785.00</ele>
	<time>2024-03-25T07:23:33.000Z</time>
</trkpt>
<trkpt lat="45.8554980" lon="9.3001260">
	<ele>785.20</ele>
	<time>2024-03-25T07:23:34.000Z</time>
</trkpt>
<trkpt lat="45.8555080" lon="9.3001320">
	<ele>785.60</ele>
	<time>2024-03-25T07:23:35.000Z</time>
</trkpt>
<trkpt lat="45.8555180" lon="9.3001470">
	<ele>785.80</ele>
	<time>2024-03-25T07:23:36.000Z</time>
</trkpt>
<trkpt lat="45.8555300" lon="9.3001620">
	<ele>786.00</ele>
	<time>2024-03-25T07:23:37.000Z</time>
</trkpt>
<trkpt lat="45.8555360" lon="9.3001690">
	<ele>786.20</ele>
	<time>2024-03-25T07:23:38.000Z</time>
</trkpt>
<trkpt lat="45.8555460" lon="9.3001750">
	<ele>786.20</ele>
	<time>2024-03-25T07:23:39.000Z</time>
</trkpt>
<trkpt lat="45.8555540" lon="9.3001810">
	<ele>786.20</ele>
	<time>2024-03-25T07:23:40.000Z</time>
</trkpt>
<trkpt lat="45.8555550" lon="9.3001870">
	<ele>786.40</ele>
	<time>2024-03-25T07:23:41.000Z</time>
</trkpt>
<trkpt lat="45.8555580" lon="9.3002030">
	<ele>786.40</ele>
	<time>2024-03-25T07:23:42.000Z</time>
</trkpt>
<trkpt lat="45.8555630" lon="9.3002070">
	<ele>786.40</ele>
	<time>2024-03-25T07:23:43.000Z</time>
</trkpt>
<trkpt lat="45.8555680" lon="9.3002060">
	<ele>786.40</ele>
	<time>2024-03-25T07:23:44.000Z</time>
</trkpt>
<trkpt lat="45.8555720" lon="9.3002040">
	<ele>786.80</ele>
	<time>2024-03-25T07:23:45.000Z</time>
</trkpt>
<trkpt lat="45.8555770" lon="9.3002100">
	<ele>787.20</ele>
	<time>2024-03-25T07:23:46.000Z</time>
</trkpt>
<trkpt lat="45.8555800" lon="9.3002130">
	<ele>787.40</ele>
	<time>2024-03-25T07:23:47.000Z</time>
</trkpt>
<trkpt lat="45.8555820" lon="9.3002130">
	<ele>787.60</ele>
	<time>2024-03-25T07:23:48.000Z</time>
</trkpt>
<trkpt lat="45.8555860" lon="9.3002090">
	<ele>787.60</ele>
	<time>2024-03-25T07:23:49.000Z</time>
</trkpt>
<trkpt lat="45.8555920" lon="9.3002140">
	<ele>787.80</ele>
	<time>2024-03-25T07:23:50.000Z</time>
</trkpt>
<trkpt lat="45.8555970" lon="9.3002220">
	<ele>787.80</ele>
	<time>2024-03-25T07:23:51.000Z</time>
</trkpt>
<trkpt lat="45.8556010" lon="9.3002280">
	<ele>788.00</ele>
	<time>2024-03-25T07:23:52.000Z</time>
</trkpt>
<trkpt lat="45.8556010" lon="9.3002310">
	<ele>788.00</ele>
	<time>2024-03-25T07:23:53.000Z</time>
</trkpt>
<trkpt lat="45.8556050" lon="9.3002300">
	<ele>788.00</ele>
	<time>2024-03-25T07:23:54.000Z</time>
</trkpt>
<trkpt lat="45.8556130" lon="9.3002390">
	<ele>788.40</ele>
	<time>2024-03-25T07:23:55.000Z</time>
</trkpt>
<trkpt lat="45.8556210" lon="9.3002440">
	<ele>788.40</ele>
	<time>2024-03-25T07:23:56.000Z</time>
</trkpt>
<trkpt lat="45.8556270" lon="9.3002450">
	<ele>788.80</ele>
	<time>2024-03-25T07:23:57.000Z</time>
</trkpt>
<trkpt lat="45.8556340" lon="9.3002500">
	<ele>789.00</ele>
	<time>2024-03-25T07:23:58.000Z</time>
</trkpt>
<trkpt lat="45.8556380" lon="9.3002600">
	<ele>789.20</ele>
	<time>2024-03-25T07:23:59.000Z</time>
</trkpt>
<trkpt lat="45.8556430" lon="9.3002730">
	<ele>789.20</ele>
	<time>2024-03-25T07:24:00.000Z</time>
</trkpt>
<trkpt lat="45.8556460" lon="9.3002750">
	<ele>789.40</ele>
	<time>2024-03-25T07:24:01.000Z</time>
</trkpt>
<trkpt lat="45.8556510" lon="9.3002800">
	<ele>789.40</ele>
	<time>2024-03-25T07:24:02.000Z</time>
</trkpt>
<trkpt lat="45.8556610" lon="9.3002750">
	<ele>789.60</ele>
	<time>2024-03-25T07:24:03.000Z</time>
</trkpt>
<trkpt lat="45.8556610" lon="9.3002660">
	<ele>789.80</ele>
	<time>2024-03-25T07:24:04.000Z</time>
</trkpt>
<trkpt lat="45.8556590" lon="9.3002590">
	<ele>790.00</ele>
	<time>2024-03-25T07:24:05.000Z</time>
</trkpt>
<trkpt lat="45.8556600" lon="9.3002570">
	<ele>790.20</ele>
	<time>2024-03-25T07:24:06.000Z</time>
</trkpt>
<trkpt lat="45.8556630" lon="9.3002570">
	<ele>790.40</ele>
	<time>2024-03-25T07:24:07.000Z</time>
</trkpt>
<trkpt lat="45.8556630" lon="9.3002550">
	<ele>790.60</ele>
	<time>2024-03-25T07:24:08.000Z</time>
</trkpt>
<trkpt lat="45.8556700" lon="9.3002510">
	<ele>790.60</ele>
	<time>2024-03-25T07:24:09.000Z</time>
</trkpt>
<trkpt lat="45.8556730" lon="9.3002400">
	<ele>790.80</ele>
	<time>2024-03-25T07:24:10.000Z</time>
</trkpt>
<trkpt lat="45.8556750" lon="9.3002390">
	<ele>791.20</ele>
	<time>2024-03-25T07:24:11.000Z</time>
</trkpt>
<trkpt lat="45.8556760" lon="9.3002420">
	<ele>791.20</ele>
	<time>2024-03-25T07:24:12.000Z</time>
</trkpt>
<trkpt lat="45.8556800" lon="9.3002460">
	<ele>791.40</ele>
	<time>2024-03-25T07:24:13.000Z</time>
</trkpt>
<trkpt lat="45.8556830" lon="9.3002500">
	<ele>791.60</ele>
	<time>2024-03-25T07:24:14.000Z</time>
</trkpt>
<trkpt lat="45.8556850" lon="9.3002510">
	<ele>792.00</ele>
	<time>2024-03-25T07:24:15.000Z</time>
</trkpt>
<trkpt lat="45.8556920" lon="9.3002680">
	<ele>792.20</ele>
	<time>2024-03-25T07:24:16.000Z</time>
</trkpt>
<trkpt lat="45.8557030" lon="9.3002700">
	<ele>792.40</ele>
	<time>2024-03-25T07:24:17.000Z</time>
</trkpt>
<trkpt lat="45.8557120" lon="9.3002750">
	<ele>792.60</ele>
	<time>2024-03-25T07:24:18.000Z</time>
</trkpt>
<trkpt lat="45.8557200" lon="9.3002860">
	<ele>792.60</ele>
	<time>2024-03-25T07:24:19.000Z</time>
</trkpt>
<trkpt lat="45.8557270" lon="9.3002910">
	<ele>792.60</ele>
	<time>2024-03-25T07:24:20.000Z</time>
</trkpt>
<trkpt lat="45.8557280" lon="9.3002950">
	<ele>792.80</ele>
	<time>2024-03-25T07:24:21.000Z</time>
</trkpt>
<trkpt lat="45.8557320" lon="9.3002990">
	<ele>792.80</ele>
	<time>2024-03-25T07:24:22.000Z</time>
</trkpt>
<trkpt lat="45.8557280" lon="9.3003030">
	<ele>793.00</ele>
	<time>2024-03-25T07:24:23.000Z</time>
</trkpt>
<trkpt lat="45.8557280" lon="9.3003140">
	<ele>793.20</ele>
	<time>2024-03-25T07:24:24.000Z</time>
</trkpt>
<trkpt lat="45.8557320" lon="9.3003280">
	<ele>793.40</ele>
	<time>2024-03-25T07:24:25.000Z</time>
</trkpt>
<trkpt lat="45.8557320" lon="9.3003400">
	<ele>793.60</ele>
	<time>2024-03-25T07:24:26.000Z</time>
</trkpt>
<trkpt lat="45.8557230" lon="9.3003440">
	<ele>793.80</ele>
	<time>2024-03-25T07:24:27.000Z</time>
</trkpt>
<trkpt lat="45.8557170" lon="9.3003500">
	<ele>793.80</ele>
	<time>2024-03-25T07:24:28.000Z</time>
</trkpt>
<trkpt lat="45.8557060" lon="9.3003560">
	<ele>794.20</ele>
	<time>2024-03-25T07:24:29.000Z</time>
</trkpt>
<trkpt lat="45.8556960" lon="9.3003620">
	<ele>794.40</ele>
	<time>2024-03-25T07:24:30.000Z</time>
</trkpt>
<trkpt lat="45.8556940" lon="9.3003660">
	<ele>794.80</ele>
	<time>2024-03-25T07:24:31.000Z</time>
</trkpt>
<trkpt lat="45.8556950" lon="9.3003600">
	<ele>795.00</ele>
	<time>2024-03-25T07:24:32.000Z</time>
</trkpt>
<trkpt lat="45.8556970" lon="9.3003580">
	<ele>795.20</ele>
	<time>2024-03-25T07:24:33.000Z</time>
</trkpt>
<trkpt lat="45.8557060" lon="9.3003560">
	<ele>795.40</ele>
	<time>2024-03-25T07:24:34.000Z</time>
</trkpt>
<trkpt lat="45.8557120" lon="9.3003480">
	<ele>795.40</ele>
	<time>2024-03-25T07:24:35.000Z</time>
</trkpt>
<trkpt lat="45.8557190" lon="9.3003520">
	<ele>795.40</ele>
	<time>2024-03-25T07:24:36.000Z</time>
</trkpt>
<trkpt lat="45.8557240" lon="9.3003580">
	<ele>795.60</ele>
	<time>2024-03-25T07:24:37.000Z</time>
</trkpt>
<trkpt lat="45.8557240" lon="9.3003580">
	<ele>795.60</ele>
	<time>2024-03-25T07:24:38.000Z</time>
</trkpt>
<trkpt lat="45.8557260" lon="9.3003630">
	<ele>795.60</ele>
	<time>2024-03-25T07:24:39.000Z</time>
</trkpt>
<trkpt lat="45.8557280" lon="9.3003700">
	<ele>795.60</ele>
	<time>2024-03-25T07:24:40.000Z</time>
</trkpt>
<trkpt lat="45.8557300" lon="9.3003810">
	<ele>795.80</ele>
	<time>2024-03-25T07:24:41.000Z</time>
</trkpt>
<trkpt lat="45.8557300" lon="9.3003870">
	<ele>796.00</ele>
	<time>2024-03-25T07:24:42.000Z</time>
</trkpt>
<trkpt lat="45.8557310" lon="9.3003890">
	<ele>796.20</ele>
	<time>2024-03-25T07:24:43.000Z</time>
</trkpt>
<trkpt lat="45.8557320" lon="9.3003890">
	<ele>796.60</ele>
	<time>2024-03-25T07:24:44.000Z</time>
</trkpt>
<trkpt lat="45.8557300" lon="9.3003880">
	<ele>796.60</ele>
	<time>2024-03-25T07:24:45.000Z</time>
</trkpt>
<trkpt lat="45.8557290" lon="9.3003860">
	<ele>796.80</ele>
	<time>2024-03-25T07:24:46.000Z</time>
</trkpt>
<trkpt lat="45.8557330" lon="9.3003850">
	<ele>796.80</ele>
	<time>2024-03-25T07:24:47.000Z</time>
</trkpt>
<trkpt lat="45.8557390" lon="9.3003890">
	<ele>796.80</ele>
	<time>2024-03-25T07:24:48.000Z</time>
</trkpt>
<trkpt lat="45.8557420" lon="9.3003880">
	<ele>797.00</ele>
	<time>2024-03-25T07:24:49.000Z</time>
</trkpt>
<trkpt lat="45.8557430" lon="9.3003890">
	<ele>797.00</ele>
	<time>2024-03-25T07:24:50.000Z</time>
</trkpt>
<trkpt lat="45.8557450" lon="9.3003910">
	<ele>797.20</ele>
	<time>2024-03-25T07:24:51.000Z</time>
</trkpt>
<trkpt lat="45.8557430" lon="9.3003920">
	<ele>797.20</ele>
	<time>2024-03-25T07:24:52.000Z</time>
</trkpt>
<trkpt lat="45.8557420" lon="9.3003820">
	<ele>797.40</ele>
	<time>2024-03-25T07:24:53.000Z</time>
</trkpt>
<trkpt lat="45.8557410" lon="9.3003770">
	<ele>797.40</ele>
	<time>2024-03-25T07:24:54.000Z</time>
</trkpt>
<trkpt lat="45.8557370" lon="9.3003750">
	<ele>797.40</ele>
	<time>2024-03-25T07:24:55.000Z</time>
</trkpt>
<trkpt lat="45.8557340" lon="9.3003760">
	<ele>797.40</ele>
	<time>2024-03-25T07:24:56.000Z</time>
</trkpt>
<trkpt lat="45.8557410" lon="9.3003860">
	<ele>797.40</ele>
	<time>2024-03-25T07:24:57.000Z</time>
</trkpt>
<trkpt lat="45.8557430" lon="9.3003880">
	<ele>797.40</ele>
	<time>2024-03-25T07:24:58.000Z</time>
</trkpt>
<trkpt lat="45.8557440" lon="9.3003930">
	<ele>797.60</ele>
	<time>2024-03-25T07:24:59.000Z</time>
</trkpt>
<trkpt lat="45.8557410" lon="9.3003940">
	<ele>797.60</ele>
	<time>2024-03-25T07:25:00.000Z</time>
</trkpt>
<trkpt lat="45.8557390" lon="9.3003920">
	<ele>797.60</ele>
	<time>2024-03-25T07:25:01.000Z</time>
</trkpt>
<trkpt lat="45.8557380" lon="9.3003870">
	<ele>797.80</ele>
	<time>2024-03-25T07:25:02.000Z</time>
</trkpt>
<trkpt lat="45.8557430" lon="9.3003840">
	<ele>797.80</ele>
	<time>2024-03-25T07:25:03.000Z</time>
</trkpt>
<trkpt lat="45.8557460" lon="9.3003850">
	<ele>797.80</ele>
	<time>2024-03-25T07:25:04.000Z</time>
</trkpt>
<trkpt lat="45.8557500" lon="9.3003820">
	<ele>797.80</ele>
	<time>2024-03-25T07:25:05.000Z</time>
</trkpt>
<trkpt lat="45.8557560" lon="9.3003800">
	<ele>797.80</ele>
	<time>2024-03-25T07:25:06.000Z</time>
</trkpt>
<trkpt lat="45.8557600" lon="9.3003740">
	<ele>797.80</ele>
	<time>2024-03-25T07:25:07.000Z</time>
</trkpt>
<trkpt lat="45.8557610" lon="9.3003730">
	<ele>797.80</ele>
	<time>2024-03-25T07:25:08.000Z</time>
</trkpt>
<trkpt lat="45.8557620" lon="9.3003870">
	<ele>797.80</ele>
	<time>2024-03-25T07:25:09.000Z</time>
</trkpt>
<trkpt lat="45.8557600" lon="9.3003870">
	<ele>797.80</ele>
	<time>2024-03-25T07:25:10.000Z</time>
</trkpt>
<trkpt lat="45.8557610" lon="9.3003910">
	<ele>797.80</ele>
	<time>2024-03-25T07:25:11.000Z</time>
</trkpt>
<trkpt lat="45.8557600" lon="9.3003820">
	<ele>797.80</ele>
	<time>2024-03-25T07:25:12.000Z</time>
</trkpt>
<trkpt lat="45.8557600" lon="9.3003780">
	<ele>797.80</ele>
	<time>2024-03-25T07:25:13.000Z</time>
</trkpt>
<trkpt lat="45.8557630" lon="9.3003770">
	<ele>798.00</ele>
	<time>2024-03-25T07:25:14.000Z</time>
</trkpt>
<trkpt lat="45.8557700" lon="9.3003720">
	<ele>798.20</ele>
	<time>2024-03-25T07:25:15.000Z</time>
</trkpt>
<trkpt lat="45.8557710" lon="9.3003690">
	<ele>798.40</ele>
	<time>2024-03-25T07:25:16.000Z</time>
</trkpt>
<trkpt lat="45.8557750" lon="9.3003660">
	<ele>798.80</ele>
	<time>2024-03-25T07:25:17.000Z</time>
</trkpt>
<trkpt lat="45.8557730" lon="9.3003630">
	<ele>799.00</ele>
	<time>2024-03-25T07:25:18.000Z</time>
</trkpt>
<trkpt lat="45.8557730" lon="9.3003580">
	<ele>799.20</ele>
	<time>2024-03-25T07:25:19.000Z</time>
</trkpt>
<trkpt lat="45.8557750" lon="9.3003490">
	<ele>799.20</ele>
	<time>2024-03-25T07:25:20.000Z</time>
</trkpt>
<trkpt lat="45.8557740" lon="9.3003500">
	<ele>799.20</ele>
	<time>2024-03-25T07:25:21.000Z</time>
</trkpt>
<trkpt lat="45.8557760" lon="9.3003480">
	<ele>799.40</ele>
	<time>2024-03-25T07:25:22.000Z</time>
</trkpt>
<trkpt lat="45.8557740" lon="9.3003460">
	<ele>799.40</ele>
	<time>2024-03-25T07:25:23.000Z</time>
</trkpt>
<trkpt lat="45.8557720" lon="9.3003410">
	<ele>799.60</ele>
	<time>2024-03-25T07:25:24.000Z</time>
</trkpt>
<trkpt lat="45.8557680" lon="9.3003310">
	<ele>799.80</ele>
	<time>2024-03-25T07:25:25.000Z</time>
</trkpt>
<trkpt lat="45.8557680" lon="9.3003160">
	<ele>800.00</ele>
	<time>2024-03-25T07:25:26.000Z</time>
</trkpt>
<trkpt lat="45.8557720" lon="9.3003010">
	<ele>800.20</ele>
	<time>2024-03-25T07:25:27.000Z</time>
</trkpt>
<trkpt lat="45.8557780" lon="9.3002960">
	<ele>800.40</ele>
	<time>2024-03-25T07:25:28.000Z</time>
</trkpt>
<trkpt lat="45.8557820" lon="9.3002920">
	<ele>800.60</ele>
	<time>2024-03-25T07:25:29.000Z</time>
</trkpt>
<trkpt lat="45.8557840" lon="9.3002790">
	<ele>800.60</ele>
	<time>2024-03-25T07:25:30.000Z</time>
</trkpt>
<trkpt lat="45.8557890" lon="9.3002720">
	<ele>800.80</ele>
	<time>2024-03-25T07:25:31.000Z</time>
</trkpt>
<trkpt lat="45.8557980" lon="9.3002670">
	<ele>800.80</ele>
	<time>2024-03-25T07:25:32.000Z</time>
</trkpt>
<trkpt lat="45.8558030" lon="9.3002700">
	<ele>801.00</ele>
	<time>2024-03-25T07:25:33.000Z</time>
</trkpt>
<trkpt lat="45.8558050" lon="9.3002660">
	<ele>801.40</ele>
	<time>2024-03-25T07:25:34.000Z</time>
</trkpt>
<trkpt lat="45.8558040" lon="9.3002650">
	<ele>801.40</ele>
	<time>2024-03-25T07:25:35.000Z</time>
</trkpt>
<trkpt lat="45.8558030" lon="9.3002680">
	<ele>801.60</ele>
	<time>2024-03-25T07:25:36.000Z</time>
</trkpt>
<trkpt lat="45.8557980" lon="9.3002750">
	<ele>801.60</ele>
	<time>2024-03-25T07:25:37.000Z</time>
</trkpt>
<trkpt lat="45.8557940" lon="9.3002720">
	<ele>801.80</ele>
	<time>2024-03-25T07:25:38.000Z</time>
</trkpt>
<trkpt lat="45.8557960" lon="9.3002690">
	<ele>801.80</ele>
	<time>2024-03-25T07:25:39.000Z</time>
</trkpt>
<trkpt lat="45.8557950" lon="9.3002670">
	<ele>802.00</ele>
	<time>2024-03-25T07:25:40.000Z</time>
</trkpt>
<trkpt lat="45.8557950" lon="9.3002610">
	<ele>802.00</ele>
	<time>2024-03-25T07:25:41.000Z</time>
</trkpt>
<trkpt lat="45.8557940" lon="9.3002570">
	<ele>802.20</ele>
	<time>2024-03-25T07:25:42.000Z</time>
</trkpt>
<trkpt lat="45.8557980" lon="9.3002490">
	<ele>802.20</ele>
	<time>2024-03-25T07:25:43.000Z</time>
</trkpt>
<trkpt lat="45.8557990" lon="9.3002470">
	<ele>802.60</ele>
	<time>2024-03-25T07:25:44.000Z</time>
</trkpt>
<trkpt lat="45.8558010" lon="9.3002410">
	<ele>802.80</ele>
	<time>2024-03-25T07:25:45.000Z</time>
</trkpt>
<trkpt lat="45.8558010" lon="9.3002410">
	<ele>802.80</ele>
	<time>2024-03-25T07:25:46.000Z</time>
</trkpt>
<trkpt lat="45.8558000" lon="9.3002410">
	<ele>803.00</ele>
	<time>2024-03-25T07:25:47.000Z</time>
</trkpt>
<trkpt lat="45.8557980" lon="9.3002380">
	<ele>803.20</ele>
	<time>2024-03-25T07:25:48.000Z</time>
</trkpt>
<trkpt lat="45.8558000" lon="9.3002370">
	<ele>803.40</ele>
	<time>2024-03-25T07:25:49.000Z</time>
</trkpt>
<trkpt lat="45.8557970" lon="9.3002300">
	<ele>803.60</ele>
	<time>2024-03-25T07:25:50.000Z</time>
</trkpt>
<trkpt lat="45.8557960" lon="9.3002300">
	<ele>803.60</ele>
	<time>2024-03-25T07:25:51.000Z</time>
</trkpt>
<trkpt lat="45.8557930" lon="9.3002250">
	<ele>803.80</ele>
	<time>2024-03-25T07:25:52.000Z</time>
</trkpt>
<trkpt lat="45.8558010" lon="9.3002190">
	<ele>804.00</ele>
	<time>2024-03-25T07:25:53.000Z</time>
</trkpt>
<trkpt lat="45.8558130" lon="9.3002130">
	<ele>804.20</ele>
	<time>2024-03-25T07:25:54.000Z</time>
</trkpt>
<trkpt lat="45.8558150" lon="9.3002150">
	<ele>804.20</ele>
	<time>2024-03-25T07:25:55.000Z</time>
</trkpt>
<trkpt lat="45.8558180" lon="9.3002140">
	<ele>804.40</ele>
	<time>2024-03-25T07:25:56.000Z</time>
</trkpt>
<trkpt lat="45.8558170" lon="9.3002090">
	<ele>804.60</ele>
	<time>2024-03-25T07:25:57.000Z</time>
</trkpt>
<trkpt lat="45.8558200" lon="9.3001970">
	<ele>804.60</ele>
	<time>2024-03-25T07:25:58.000Z</time>
</trkpt>
<trkpt lat="45.8558270" lon="9.3001860">
	<ele>804.80</ele>
	<time>2024-03-25T07:25:59.000Z</time>
</trkpt>
<trkpt lat="45.8558350" lon="9.3001750">
	<ele>805.00</ele>
	<time>2024-03-25T07:26:00.000Z</time>
</trkpt>
<trkpt lat="45.8558350" lon="9.3001660">
	<ele>805.00</ele>
	<time>2024-03-25T07:26:01.000Z</time>
</trkpt>
<trkpt lat="45.8558390" lon="9.3001550">
	<ele>805.20</ele>
	<time>2024-03-25T07:26:02.000Z</time>
</trkpt>
<trkpt lat="45.8558390" lon="9.3001460">
	<ele>805.20</ele>
	<time>2024-03-25T07:26:03.000Z</time>
</trkpt>
<trkpt lat="45.8558400" lon="9.3001390">
	<ele>805.20</ele>
	<time>2024-03-25T07:26:04.000Z</time>
</trkpt>
<trkpt lat="45.8558450" lon="9.3001310">
	<ele>805.40</ele>
	<time>2024-03-25T07:26:05.000Z</time>
</trkpt>
<trkpt lat="45.8558450" lon="9.3001300">
	<ele>805.40</ele>
	<time>2024-03-25T07:26:06.000Z</time>
</trkpt>
<trkpt lat="45.8558510" lon="9.3001260">
	<ele>805.40</ele>
	<time>2024-03-25T07:26:07.000Z</time>
</trkpt>
<trkpt lat="45.8558530" lon="9.3001180">
	<ele>805.60</ele>
	<time>2024-03-25T07:26:08.000Z</time>
</trkpt>
<trkpt lat="45.8558530" lon="9.3001120">
	<ele>805.80</ele>
	<time>2024-03-25T07:26:09.000Z</time>
</trkpt>
<trkpt lat="45.8558520" lon="9.3001110">
	<ele>806.00</ele>
	<time>2024-03-25T07:26:10.000Z</time>
</trkpt>
<trkpt lat="45.8558590" lon="9.3001090">
	<ele>806.00</ele>
	<time>2024-03-25T07:26:11.000Z</time>
</trkpt>
<trkpt lat="45.8558610" lon="9.3001070">
	<ele>806.20</ele>
	<time>2024-03-25T07:26:12.000Z</time>
</trkpt>
<trkpt lat="45.8558610" lon="9.3001030">
	<ele>806.20</ele>
	<time>2024-03-25T07:26:13.000Z</time>
</trkpt>
<trkpt lat="45.8558630" lon="9.3000930">
	<ele>806.40</ele>
	<time>2024-03-25T07:26:14.000Z</time>
</trkpt>
<trkpt lat="45.8558720" lon="9.3000770">
	<ele>806.60</ele>
	<time>2024-03-25T07:26:15.000Z</time>
</trkpt>
<trkpt lat="45.8558810" lon="9.3000640">
	<ele>806.80</ele>
	<time>2024-03-25T07:26:16.000Z</time>
</trkpt>
<trkpt lat="45.8558930" lon="9.3000390">
	<ele>807.00</ele>
	<time>2024-03-25T07:26:17.000Z</time>
</trkpt>
<trkpt lat="45.8558990" lon="9.3000220">
	<ele>807.20</ele>
	<time>2024-03-25T07:26:18.000Z</time>
</trkpt>
<trkpt lat="45.8558970" lon="9.3000170">
	<ele>807.20</ele>
	<time>2024-03-25T07:26:19.000Z</time>
</trkpt>
<trkpt lat="45.8558940" lon="9.3000130">
	<ele>807.40</ele>
	<time>2024-03-25T07:26:20.000Z</time>
</trkpt>
<trkpt lat="45.8559020" lon="9.3000040">
	<ele>807.40</ele>
	<time>2024-03-25T07:26:21.000Z</time>
</trkpt>
<trkpt lat="45.8559130" lon="9.2999950">
	<ele>807.60</ele>
	<time>2024-03-25T07:26:22.000Z</time>
</trkpt>
<trkpt lat="45.8559120" lon="9.2999900">
	<ele>807.60</ele>
	<time>2024-03-25T07:26:23.000Z</time>
</trkpt>
<trkpt lat="45.8559170" lon="9.2999780">
	<ele>807.60</ele>
	<time>2024-03-25T07:26:24.000Z</time>
</trkpt>
<trkpt lat="45.8559240" lon="9.2999740">
	<ele>807.60</ele>
	<time>2024-03-25T07:26:25.000Z</time>
</trkpt>
<trkpt lat="45.8559210" lon="9.2999700">
	<ele>807.80</ele>
	<time>2024-03-25T07:26:26.000Z</time>
</trkpt>
<trkpt lat="45.8559220" lon="9.2999630">
	<ele>808.00</ele>
	<time>2024-03-25T07:26:27.000Z</time>
</trkpt>
<trkpt lat="45.8559220" lon="9.2999600">
	<ele>808.00</ele>
	<time>2024-03-25T07:26:28.000Z</time>
</trkpt>
<trkpt lat="45.8559240" lon="9.2999500">
	<ele>808.20</ele>
	<time>2024-03-25T07:26:29.000Z</time>
</trkpt>
<trkpt lat="45.8559230" lon="9.2999470">
	<ele>808.20</ele>
	<time>2024-03-25T07:26:30.000Z</time>
</trkpt>
<trkpt lat="45.8559300" lon="9.2999400">
	<ele>808.20</ele>
	<time>2024-03-25T07:26:31.000Z</time>
</trkpt>
<trkpt lat="45.8559380" lon="9.2999230">
	<ele>808.40</ele>
	<time>2024-03-25T07:26:32.000Z</time>
</trkpt>
<trkpt lat="45.8559440" lon="9.2999090">
	<ele>808.40</ele>
	<time>2024-03-25T07:26:33.000Z</time>
</trkpt>
<trkpt lat="45.8559460" lon="9.2999070">
	<ele>808.40</ele>
	<time>2024-03-25T07:26:34.000Z</time>
</trkpt>
<trkpt lat="45.8559460" lon="9.2999040">
	<ele>808.60</ele>
	<time>2024-03-25T07:26:35.000Z</time>
</trkpt>
<trkpt lat="45.8559480" lon="9.2999020">
	<ele>808.60</ele>
	<time>2024-03-25T07:26:36.000Z</time>
</trkpt>
<trkpt lat="45.8559560" lon="9.2999020">
	<ele>809.00</ele>
	<time>2024-03-25T07:26:37.000Z</time>
</trkpt>
<trkpt lat="45.8559610" lon="9.2998970">
	<ele>809.20</ele>
	<time>2024-03-25T07:26:38.000Z</time>
</trkpt>
<trkpt lat="45.8559630" lon="9.2998850">
	<ele>809.20</ele>
	<time>2024-03-25T07:26:39.000Z</time>
</trkpt>
<trkpt lat="45.8559710" lon="9.2998770">
	<ele>809.40</ele>
	<time>2024-03-25T07:26:40.000Z</time>
</trkpt>
<trkpt lat="45.8559820" lon="9.2998680">
	<ele>809.40</ele>
	<time>2024-03-25T07:26:41.000Z</time>
</trkpt>
<trkpt lat="45.8559850" lon="9.2998560">
	<ele>809.60</ele>
	<time>2024-03-25T07:26:42.000Z</time>
</trkpt>
<trkpt lat="45.8559880" lon="9.2998430">
	<ele>809.60</ele>
	<time>2024-03-25T07:26:43.000Z</time>
</trkpt>
<trkpt lat="45.8559900" lon="9.2998350">
	<ele>809.60</ele>
	<time>2024-03-25T07:26:44.000Z</time>
</trkpt>
<trkpt lat="45.8559920" lon="9.2998200">
	<ele>809.80</ele>
	<time>2024-03-25T07:26:45.000Z</time>
</trkpt>
<trkpt lat="45.8559920" lon="9.2998160">
	<ele>809.80</ele>
	<time>2024-03-25T07:26:46.000Z</time>
</trkpt>
<trkpt lat="45.8559920" lon="9.2998110">
	<ele>810.00</ele>
	<time>2024-03-25T07:26:47.000Z</time>
</trkpt>
<trkpt lat="45.8559990" lon="9.2998070">
	<ele>810.00</ele>
	<time>2024-03-25T07:26:48.000Z</time>
</trkpt>
<trkpt lat="45.8559980" lon="9.2998030">
	<ele>810.20</ele>
	<time>2024-03-25T07:26:49.000Z</time>
</trkpt>
<trkpt lat="45.8559990" lon="9.2997980">
	<ele>810.40</ele>
	<time>2024-03-25T07:26:50.000Z</time>
</trkpt>
<trkpt lat="45.8560080" lon="9.2997900">
	<ele>810.40</ele>
	<time>2024-03-25T07:26:51.000Z</time>
</trkpt>
<trkpt lat="45.8560080" lon="9.2997870">
	<ele>810.80</ele>
	<time>2024-03-25T07:26:52.000Z</time>
</trkpt>
<trkpt lat="45.8560060" lon="9.2997840">
	<ele>810.80</ele>
	<time>2024-03-25T07:26:53.000Z</time>
</trkpt>
<trkpt lat="45.8560050" lon="9.2997820">
	<ele>811.00</ele>
	<time>2024-03-25T07:26:54.000Z</time>
</trkpt>
<trkpt lat="45.8560060" lon="9.2997810">
	<ele>811.20</ele>
	<time>2024-03-25T07:26:55.000Z</time>
</trkpt>
<trkpt lat="45.8560050" lon="9.2997810">
	<ele>811.40</ele>
	<time>2024-03-25T07:26:56.000Z</time>
</trkpt>
<trkpt lat="45.8560050" lon="9.2997740">
	<ele>811.60</ele>
	<time>2024-03-25T07:26:57.000Z</time>
</trkpt>
<trkpt lat="45.8560050" lon="9.2997630">
	<ele>811.80</ele>
	<time>2024-03-25T07:26:58.000Z</time>
</trkpt>
<trkpt lat="45.8560030" lon="9.2997440">
	<ele>812.00</ele>
	<time>2024-03-25T07:26:59.000Z</time>
</trkpt>
<trkpt lat="45.8560040" lon="9.2997280">
	<ele>812.20</ele>
	<time>2024-03-25T07:27:00.000Z</time>
</trkpt>
<trkpt lat="45.8560110" lon="9.2997230">
	<ele>812.40</ele>
	<time>2024-03-25T07:27:01.000Z</time>
</trkpt>
<trkpt lat="45.8560190" lon="9.2997210">
	<ele>812.80</ele>
	<time>2024-03-25T07:27:02.000Z</time>
</trkpt>
<trkpt lat="45.8560220" lon="9.2997090">
	<ele>812.80</ele>
	<time>2024-03-25T07:27:03.000Z</time>
</trkpt>
<trkpt lat="45.8560240" lon="9.2997050">
	<ele>813.00</ele>
	<time>2024-03-25T07:27:04.000Z</time>
</trkpt>
<trkpt lat="45.8560320" lon="9.2997000">
	<ele>813.00</ele>
	<time>2024-03-25T07:27:05.000Z</time>
</trkpt>
<trkpt lat="45.8560390" lon="9.2996920">
	<ele>813.00</ele>
	<time>2024-03-25T07:27:06.000Z</time>
</trkpt>
<trkpt lat="45.8560500" lon="9.2996780">
	<ele>813.00</ele>
	<time>2024-03-25T07:27:07.000Z</time>
</trkpt>
<trkpt lat="45.8560590" lon="9.2996740">
	<ele>813.40</ele>
	<time>2024-03-25T07:27:08.000Z</time>
</trkpt>
<trkpt lat="45.8560650" lon="9.2996620">
	<ele>813.60</ele>
	<time>2024-03-25T07:27:09.000Z</time>
</trkpt>
<trkpt lat="45.8560770" lon="9.2996600">
	<ele>813.80</ele>
	<time>2024-03-25T07:27:10.000Z</time>
</trkpt>
<trkpt lat="45.8560950" lon="9.2996580">
	<ele>813.80</ele>
	<time>2024-03-25T07:27:11.000Z</time>
</trkpt>
<trkpt lat="45.8561140" lon="9.2996550">
	<ele>813.80</ele>
	<time>2024-03-25T07:27:12.000Z</time>
</trkpt>
<trkpt lat="45.8561400" lon="9.2996490">
	<ele>814.00</ele>
	<time>2024-03-25T07:27:13.000Z</time>
</trkpt>
<trkpt lat="45.8561670" lon="9.2996540">
	<ele>814.00</ele>
	<time>2024-03-25T07:27:14.000Z</time>
</trkpt>
<trkpt lat="45.8561910" lon="9.2996600">
	<ele>814.20</ele>
	<time>2024-03-25T07:27:15.000Z</time>
</trkpt>
<trkpt lat="45.8562130" lon="9.2996680">
	<ele>814.20</ele>
	<time>2024-03-25T07:27:16.000Z</time>
</trkpt>
<trkpt lat="45.8562350" lon="9.2996770">
	<ele>814.20</ele>
	<time>2024-03-25T07:27:17.000Z</time>
</trkpt>
<trkpt lat="45.8562570" lon="9.2996820">
	<ele>814.40</ele>
	<time>2024-03-25T07:27:18.000Z</time>
</trkpt>
<trkpt lat="45.8562720" lon="9.2996770">
	<ele>814.60</ele>
	<time>2024-03-25T07:27:19.000Z</time>
</trkpt>
<trkpt lat="45.8562890" lon="9.2996700">
	<ele>814.60</ele>
	<time>2024-03-25T07:27:20.000Z</time>
</trkpt>
<trkpt lat="45.8563070" lon="9.2996580">
	<ele>814.80</ele>
	<time>2024-03-25T07:27:21.000Z</time>
</trkpt>
<trkpt lat="45.8563280" lon="9.2996560">
	<ele>815.00</ele>
	<time>2024-03-25T07:27:22.000Z</time>
</trkpt>
<trkpt lat="45.8563470" lon="9.2996580">
	<ele>815.00</ele>
	<time>2024-03-25T07:27:23.000Z</time>
</trkpt>
<trkpt lat="45.8563700" lon="9.2996660">
	<ele>815.40</ele>
	<time>2024-03-25T07:27:24.000Z</time>
</trkpt>
<trkpt lat="45.8563930" lon="9.2996690">
	<ele>815.60</ele>
	<time>2024-03-25T07:27:25.000Z</time>
</trkpt>
<trkpt lat="45.8564140" lon="9.2996560">
	<ele>815.60</ele>
	<time>2024-03-25T07:27:26.000Z</time>
</trkpt>
<trkpt lat="45.8564350" lon="9.2996480">
	<ele>815.80</ele>
	<time>2024-03-25T07:27:27.000Z</time>
</trkpt>
<trkpt lat="45.8564540" lon="9.2996410">
	<ele>815.80</ele>
	<time>2024-03-25T07:27:28.000Z</time>
</trkpt>
<trkpt lat="45.8564710" lon="9.2996340">
	<ele>815.80</ele>
	<time>2024-03-25T07:27:29.000Z</time>
</trkpt>
<trkpt lat="45.8564750" lon="9.2996340">
	<ele>815.80</ele>
	<time>2024-03-25T07:27:30.000Z</time>
</trkpt>
<trkpt lat="45.8564860" lon="9.2996240">
	<ele>816.00</ele>
	<time>2024-03-25T07:27:31.000Z</time>
</trkpt>
<trkpt lat="45.8564940" lon="9.2996220">
	<ele>816.20</ele>
	<time>2024-03-25T07:27:32.000Z</time>
</trkpt>
<trkpt lat="45.8565040" lon="9.2996190">
	<ele>816.40</ele>
	<time>2024-03-25T07:27:33.000Z</time>
</trkpt>
<trkpt lat="45.8565150" lon="9.2996250">
	<ele>816.60</ele>
	<time>2024-03-25T07:27:34.000Z</time>
</trkpt>
<trkpt lat="45.8565280" lon="9.2996280">
	<ele>816.60</ele>
	<time>2024-03-25T07:27:35.000Z</time>
</trkpt>
<trkpt lat="45.8565380" lon="9.2996290">
	<ele>816.80</ele>
	<time>2024-03-25T07:27:36.000Z</time>
</trkpt>
<trkpt lat="45.8565490" lon="9.2996200">
	<ele>817.00</ele>
	<time>2024-03-25T07:27:37.000Z</time>
</trkpt>
<trkpt lat="45.8565590" lon="9.2996120">
	<ele>817.20</ele>
	<time>2024-03-25T07:27:38.000Z</time>
</trkpt>
<trkpt lat="45.8565700" lon="9.2996040">
	<ele>817.40</ele>
	<time>2024-03-25T07:27:39.000Z</time>
</trkpt>
<trkpt lat="45.8565800" lon="9.2996030">
	<ele>817.40</ele>
	<time>2024-03-25T07:27:40.000Z</time>
</trkpt>
<trkpt lat="45.8565910" lon="9.2996030">
	<ele>817.80</ele>
	<time>2024-03-25T07:27:41.000Z</time>
</trkpt>
<trkpt lat="45.8565980" lon="9.2996020">
	<ele>817.80</ele>
	<time>2024-03-25T07:27:42.000Z</time>
</trkpt>
<trkpt lat="45.8566070" lon="9.2995980">
	<ele>818.00</ele>
	<time>2024-03-25T07:27:43.000Z</time>
</trkpt>
<trkpt lat="45.8566110" lon="9.2995980">
	<ele>818.40</ele>
	<time>2024-03-25T07:27:44.000Z</time>
</trkpt>
<trkpt lat="45.8566190" lon="9.2995990">
	<ele>818.40</ele>
	<time>2024-03-25T07:27:45.000Z</time>
</trkpt>
<trkpt lat="45.8566270" lon="9.2995970">
	<ele>818.60</ele>
	<time>2024-03-25T07:27:46.000Z</time>
</trkpt>
<trkpt lat="45.8566320" lon="9.2995920">
	<ele>818.80</ele>
	<time>2024-03-25T07:27:47.000Z</time>
</trkpt>
<trkpt lat="45.8566310" lon="9.2995900">
	<ele>818.80</ele>
	<time>2024-03-25T07:27:48.000Z</time>
</trkpt>
<trkpt lat="45.8566300" lon="9.2995900">
	<ele>819.00</ele>
	<time>2024-03-25T07:27:49.000Z</time>
</trkpt>
<trkpt lat="45.8566280" lon="9.2995900">
	<ele>819.00</ele>
	<time>2024-03-25T07:27:50.000Z</time>
</trkpt>
<trkpt lat="45.8566270" lon="9.2995850">
	<ele>819.20</ele>
	<time>2024-03-25T07:27:51.000Z</time>
</trkpt>
<trkpt lat="45.8566270" lon="9.2995840">
	<ele>819.20</ele>
	<time>2024-03-25T07:27:52.000Z</time>
</trkpt>
<trkpt lat="45.8566290" lon="9.2995870">
	<ele>819.40</ele>
	<time>2024-03-25T07:27:53.000Z</time>
</trkpt>
<trkpt lat="45.8566300" lon="9.2995880">
	<ele>819.40</ele>
	<time>2024-03-25T07:27:54.000Z</time>
</trkpt>
<trkpt lat="45.8566310" lon="9.2995870">
	<ele>819.60</ele>
	<time>2024-03-25T07:27:55.000Z</time>
</trkpt>
<trkpt lat="45.8566310" lon="9.2995870">
	<ele>819.60</ele>
	<time>2024-03-25T07:27:56.000Z</time>
</trkpt>
<trkpt lat="45.8566310" lon="9.2995870">
	<ele>819.60</ele>
	<time>2024-03-25T07:27:57.000Z</time>
</trkpt>
<trkpt lat="45.8566310" lon="9.2995870">
	<ele>819.80</ele>
	<time>2024-03-25T07:27:58.000Z</time>
</trkpt>
<trkpt lat="45.8566310" lon="9.2995870">
	<ele>819.80</ele>
	<time>2024-03-25T07:27:59.000Z</time>
</trkpt>
<trkpt lat="45.8566310" lon="9.2995870">
	<ele>819.80</ele>
	<time>2024-03-25T07:28:00.000Z</time>
</trkpt>
<trkpt lat="45.8566310" lon="9.2995870">
	<ele>819.80</ele>
	<time>2024-03-25T07:28:01.000Z</time>
</trkpt>
<trkpt lat="45.8566310" lon="9.2995870">
	<ele>820.00</ele>
	<time>2024-03-25T07:28:02.000Z</time>
</trkpt>
<trkpt lat="45.8566310" lon="9.2995870">
	<ele>820.00</ele>
	<time>2024-03-25T07:28:03.000Z</time>
</trkpt>
<trkpt lat="45.8566310" lon="9.2995870">
	<ele>820.20</ele>
	<time>2024-03-25T07:28:04.000Z</time>
</trkpt>
<trkpt lat="45.8566310" lon="9.2995870">
	<ele>820.40</ele>
	<time>2024-03-25T07:28:05.000Z</time>
</trkpt>
<trkpt lat="45.8566310" lon="9.2995870">
	<ele>820.60</ele>
	<time>2024-03-25T07:28:06.000Z</time>
</trkpt>
<trkpt lat="45.8566310" lon="9.2995870">
	<ele>820.80</ele>
	<time>2024-03-25T07:28:07.000Z</time>
</trkpt>
<trkpt lat="45.8566310" lon="9.2995870">
	<ele>821.00</ele>
	<time>2024-03-25T07:28:08.000Z</time>
</trkpt>
<trkpt lat="45.8566310" lon="9.2995870">
	<ele>821.20</ele>
	<time>2024-03-25T07:28:09.000Z</time>
</trkpt>
<trkpt lat="45.8566310" lon="9.2995870">
	<ele>821.20</ele>
	<time>2024-03-25T07:28:10.000Z</time>
</trkpt>
<trkpt lat="45.8566310" lon="9.2995870">
	<ele>821.40</ele>
	<time>2024-03-25T07:28:11.000Z</time>
</trkpt>
<trkpt lat="45.8566320" lon="9.2995870">
	<ele>821.40</ele>
	<time>2024-03-25T07:28:12.000Z</time>
</trkpt>
<trkpt lat="45.8566350" lon="9.2995870">
	<ele>821.60</ele>
	<time>2024-03-25T07:28:13.000Z</time>
</trkpt>
<trkpt lat="45.8566350" lon="9.2995870">
	<ele>821.80</ele>
	<time>2024-03-25T07:28:14.000Z</time>
</trkpt>
<trkpt lat="45.8566350" lon="9.2995870">
	<ele>822.00</ele>
	<time>2024-03-25T07:28:15.000Z</time>
</trkpt>
<trkpt lat="45.8566360" lon="9.2995880">
	<ele>822.00</ele>
	<time>2024-03-25T07:28:16.000Z</time>
</trkpt>
<trkpt lat="45.8566360" lon="9.2995880">
	<ele>822.20</ele>
	<time>2024-03-25T07:28:17.000Z</time>
</trkpt>
<trkpt lat="45.8566370" lon="9.2995880">
	<ele>822.60</ele>
	<time>2024-03-25T07:28:18.000Z</time>
</trkpt>
<trkpt lat="45.8566380" lon="9.2995880">
	<ele>822.80</ele>
	<time>2024-03-25T07:28:19.000Z</time>
</trkpt>
<trkpt lat="45.8566390" lon="9.2995880">
	<ele>823.20</ele>
	<time>2024-03-25T07:28:20.000Z</time>
</trkpt>
<trkpt lat="45.8566400" lon="9.2995900">
	<ele>823.40</ele>
	<time>2024-03-25T07:28:21.000Z</time>
</trkpt>
<trkpt lat="45.8566410" lon="9.2995920">
	<ele>823.60</ele>
	<time>2024-03-25T07:28:22.000Z</time>
</trkpt>
<trkpt lat="45.8566450" lon="9.2995980">
	<ele>823.60</ele>
	<time>2024-03-25T07:28:23.000Z</time>
</trkpt>
<trkpt lat="45.8566480" lon="9.2996030">
	<ele>823.60</ele>
	<time>2024-03-25T07:28:24.000Z</time>
</trkpt>
<trkpt lat="45.8566500" lon="9.2996090">
	<ele>823.80</ele>
	<time>2024-03-25T07:28:25.000Z</time>
</trkpt>
<trkpt lat="45.8566510" lon="9.2996140">
	<ele>823.80</ele>
	<time>2024-03-25T07:28:26.000Z</time>
</trkpt>
<trkpt lat="45.8566510" lon="9.2996150">
	<ele>824.00</ele>
	<time>2024-03-25T07:28:27.000Z</time>
</trkpt>
<trkpt lat="45.8566510" lon="9.2996170">
	<ele>824.00</ele>
	<time>2024-03-25T07:28:28.000Z</time>
</trkpt>
<trkpt lat="45.8566510" lon="9.2996210">
	<ele>824.00</ele>
	<time>2024-03-25T07:28:29.000Z</time>
</trkpt>
<trkpt lat="45.8566510" lon="9.2996310">
	<ele>824.20</ele>
	<time>2024-03-25T07:28:30.000Z</time>
</trkpt>
<trkpt lat="45.8566520" lon="9.2996450">
	<ele>824.20</ele>
	<time>2024-03-25T07:28:31.000Z</time>
</trkpt>
<trkpt lat="45.8566520" lon="9.2996500">
	<ele>824.40</ele>
	<time>2024-03-25T07:28:32.000Z</time>
</trkpt>
<trkpt lat="45.8566520" lon="9.2996550">
	<ele>824.40</ele>
	<time>2024-03-25T07:28:33.000Z</time>
</trkpt>
<trkpt lat="45.8566540" lon="9.2996720">
	<ele>824.40</ele>
	<time>2024-03-25T07:28:34.000Z</time>
</trkpt>
<trkpt lat="45.8566590" lon="9.2996840">
	<ele>824.60</ele>
	<time>2024-03-25T07:28:35.000Z</time>
</trkpt>
<trkpt lat="45.8566660" lon="9.2996930">
	<ele>825.00</ele>
	<time>2024-03-25T07:28:36.000Z</time>
</trkpt>
<trkpt lat="45.8566760" lon="9.2997000">
	<ele>825.20</ele>
	<time>2024-03-25T07:28:37.000Z</time>
</trkpt>
<trkpt lat="45.8566910" lon="9.2997170">
	<ele>825.40</ele>
	<time>2024-03-25T07:28:38.000Z</time>
</trkpt>
<trkpt lat="45.8567060" lon="9.2997290">
	<ele>825.60</ele>
	<time>2024-03-25T07:28:39.000Z</time>
</trkpt>
<trkpt lat="45.8567200" lon="9.2997320">
	<ele>825.80</ele>
	<time>2024-03-25T07:28:40.000Z</time>
</trkpt>
<trkpt lat="45.8567350" lon="9.2997390">
	<ele>825.80</ele>
	<time>2024-03-25T07:28:41.000Z</time>
</trkpt>
<trkpt lat="45.8567510" lon="9.2997490">
	<ele>826.00</ele>
	<time>2024-03-25T07:28:42.000Z</time>
</trkpt>
<trkpt lat="45.8567690" lon="9.2997580">
	<ele>826.20</ele>
	<time>2024-03-25T07:28:43.000Z</time>
</trkpt>
<trkpt lat="45.8567800" lon="9.2997680">
	<ele>826.40</ele>
	<time>2024-03-25T07:28:44.000Z</time>
</trkpt>
<trkpt lat="45.8567970" lon="9.2997790">
	<ele>826.60</ele>
	<time>2024-03-25T07:28:45.000Z</time>
</trkpt>
<trkpt lat="45.8568150" lon="9.2997990">
	<ele>827.00</ele>
	<time>2024-03-25T07:28:46.000Z</time>
</trkpt>
<trkpt lat="45.8568220" lon="9.2998040">
	<ele>827.20</ele>
	<time>2024-03-25T07:28:47.000Z</time>
</trkpt>
<trkpt lat="45.8568310" lon="9.2998000">
	<ele>827.40</ele>
	<time>2024-03-25T07:28:48.000Z</time>
</trkpt>
<trkpt lat="45.8568360" lon="9.2998030">
	<ele>827.60</ele>
	<time>2024-03-25T07:28:49.000Z</time>
</trkpt>
<trkpt lat="45.8568420" lon="9.2998130">
	<ele>827.60</ele>
	<time>2024-03-25T07:28:50.000Z</time>
</trkpt>
<trkpt lat="45.8568450" lon="9.2998180">
	<ele>827.80</ele>
	<time>2024-03-25T07:28:51.000Z</time>
</trkpt>
<trkpt lat="45.8568440" lon="9.2998220">
	<ele>828.00</ele>
	<time>2024-03-25T07:28:52.000Z</time>
</trkpt>
<trkpt lat="45.8568450" lon="9.2998180">
	<ele>828.20</ele>
	<time>2024-03-25T07:28:53.000Z</time>
</trkpt>
<trkpt lat="45.8568440" lon="9.2998210">
	<ele>828.20</ele>
	<time>2024-03-25T07:28:54.000Z</time>
</trkpt>
<trkpt lat="45.8568420" lon="9.2998210">
	<ele>828.40</ele>
	<time>2024-03-25T07:28:55.000Z</time>
</trkpt>
<trkpt lat="45.8568420" lon="9.2998250">
	<ele>828.60</ele>
	<time>2024-03-25T07:28:56.000Z</time>
</trkpt>
<trkpt lat="45.8568430" lon="9.2998320">
	<ele>828.60</ele>
	<time>2024-03-25T07:28:57.000Z</time>
</trkpt>
<trkpt lat="45.8568390" lon="9.2998370">
	<ele>828.80</ele>
	<time>2024-03-25T07:28:58.000Z</time>
</trkpt>
<trkpt lat="45.8568380" lon="9.2998510">
	<ele>829.00</ele>
	<time>2024-03-25T07:28:59.000Z</time>
</trkpt>
<trkpt lat="45.8568400" lon="9.2998600">
	<ele>829.20</ele>
	<time>2024-03-25T07:29:00.000Z</time>
</trkpt>
<trkpt lat="45.8568380" lon="9.2998640">
	<ele>829.40</ele>
	<time>2024-03-25T07:29:01.000Z</time>
</trkpt>
<trkpt lat="45.8568370" lon="9.2998660">
	<ele>829.60</ele>
	<time>2024-03-25T07:29:02.000Z</time>
</trkpt>
<trkpt lat="45.8568350" lon="9.2998710">
	<ele>829.60</ele>
	<time>2024-03-25T07:29:03.000Z</time>
</trkpt>
<trkpt lat="45.8568360" lon="9.2998730">
	<ele>829.80</ele>
	<time>2024-03-25T07:29:04.000Z</time>
</trkpt>
<trkpt lat="45.8568370" lon="9.2998780">
	<ele>830.00</ele>
	<time>2024-03-25T07:29:05.000Z</time>
</trkpt>
<trkpt lat="45.8568350" lon="9.2998790">
	<ele>830.20</ele>
	<time>2024-03-25T07:29:06.000Z</time>
</trkpt>
<trkpt lat="45.8568330" lon="9.2998890">
	<ele>830.20</ele>
	<time>2024-03-25T07:29:07.000Z</time>
</trkpt>
<trkpt lat="45.8568380" lon="9.2999000">
	<ele>830.20</ele>
	<time>2024-03-25T07:29:08.000Z</time>
</trkpt>
<trkpt lat="45.8568380" lon="9.2999110">
	<ele>830.20</ele>
	<time>2024-03-25T07:29:09.000Z</time>
</trkpt>
<trkpt lat="45.8568370" lon="9.2999160">
	<ele>830.20</ele>
	<time>2024-03-25T07:29:10.000Z</time>
</trkpt>
<trkpt lat="45.8568380" lon="9.2999260">
	<ele>830.40</ele>
	<time>2024-03-25T07:29:11.000Z</time>
</trkpt>
<trkpt lat="45.8568370" lon="9.2999400">
	<ele>830.60</ele>
	<time>2024-03-25T07:29:12.000Z</time>
</trkpt>
<trkpt lat="45.8568340" lon="9.2999480">
	<ele>830.80</ele>
	<time>2024-03-25T07:29:13.000Z</time>
</trkpt>
<trkpt lat="45.8568290" lon="9.2999500">
	<ele>831.00</ele>
	<time>2024-03-25T07:29:14.000Z</time>
</trkpt>
<trkpt lat="45.8568230" lon="9.2999510">
	<ele>831.20</ele>
	<time>2024-03-25T07:29:15.000Z</time>
</trkpt>
<trkpt lat="45.8568200" lon="9.2999560">
	<ele>831.40</ele>
	<time>2024-03-25T07:29:16.000Z</time>
</trkpt>
<trkpt lat="45.8568150" lon="9.2999660">
	<ele>831.60</ele>
	<time>2024-03-25T07:29:17.000Z</time>
</trkpt>
<trkpt lat="45.8568110" lon="9.2999810">
	<ele>831.60</ele>
	<time>2024-03-25T07:29:18.000Z</time>
</trkpt>
<trkpt lat="45.8568110" lon="9.2999950">
	<ele>832.00</ele>
	<time>2024-03-25T07:29:19.000Z</time>
</trkpt>
<trkpt lat="45.8568120" lon="9.3000120">
	<ele>832.20</ele>
	<time>2024-03-25T07:29:20.000Z</time>
</trkpt>
<trkpt lat="45.8568160" lon="9.3000280">
	<ele>832.40</ele>
	<time>2024-03-25T07:29:21.000Z</time>
</trkpt>
<trkpt lat="45.8568190" lon="9.3000370">
	<ele>832.60</ele>
	<time>2024-03-25T07:29:22.000Z</time>
</trkpt>
<trkpt lat="45.8568230" lon="9.3000460">
	<ele>832.80</ele>
	<time>2024-03-25T07:29:23.000Z</time>
</trkpt>
<trkpt lat="45.8568300" lon="9.3000620">
	<ele>833.00</ele>
	<time>2024-03-25T07:29:24.000Z</time>
</trkpt>
<trkpt lat="45.8568340" lon="9.3000690">
	<ele>833.20</ele>
	<time>2024-03-25T07:29:25.000Z</time>
</trkpt>
<trkpt lat="45.8568360" lon="9.3000740">
	<ele>833.20</ele>
	<time>2024-03-25T07:29:26.000Z</time>
</trkpt>
<trkpt lat="45.8568360" lon="9.3000790">
	<ele>833.60</ele>
	<time>2024-03-25T07:29:27.000Z</time>
</trkpt>
<trkpt lat="45.8568320" lon="9.3000750">
	<ele>833.80</ele>
	<time>2024-03-25T07:29:28.000Z</time>
</trkpt>
<trkpt lat="45.8568280" lon="9.3000700">
	<ele>834.00</ele>
	<time>2024-03-25T07:29:29.000Z</time>
</trkpt>
<trkpt lat="45.8568240" lon="9.3000750">
	<ele>834.20</ele>
	<time>2024-03-25T07:29:30.000Z</time>
</trkpt>
<trkpt lat="45.8568220" lon="9.3000800">
	<ele>834.40</ele>
	<time>2024-03-25T07:29:31.000Z</time>
</trkpt>
<trkpt lat="45.8568220" lon="9.3000850">
	<ele>834.60</ele>
	<time>2024-03-25T07:29:32.000Z</time>
</trkpt>
<trkpt lat="45.8568210" lon="9.3000960">
	<ele>834.80</ele>
	<time>2024-03-25T07:29:33.000Z</time>
</trkpt>
<trkpt lat="45.8568220" lon="9.3001040">
	<ele>834.80</ele>
	<time>2024-03-25T07:29:34.000Z</time>
</trkpt>
<trkpt lat="45.8568290" lon="9.3001140">
	<ele>835.00</ele>
	<time>2024-03-25T07:29:35.000Z</time>
</trkpt>
<trkpt lat="45.8568320" lon="9.3001290">
	<ele>835.20</ele>
	<time>2024-03-25T07:29:36.000Z</time>
</trkpt>
<trkpt lat="45.8568280" lon="9.3001390">
	<ele>835.20</ele>
	<time>2024-03-25T07:29:37.000Z</time>
</trkpt>
<trkpt lat="45.8568250" lon="9.3001490">
	<ele>835.20</ele>
	<time>2024-03-25T07:29:38.000Z</time>
</trkpt>
<trkpt lat="45.8568210" lon="9.3001610">
	<ele>835.40</ele>
	<time>2024-03-25T07:29:39.000Z</time>
</trkpt>
<trkpt lat="45.8568240" lon="9.3001710">
	<ele>835.40</ele>
	<time>2024-03-25T07:29:40.000Z</time>
</trkpt>
<trkpt lat="45.8568260" lon="9.3001700">
	<ele>835.60</ele>
	<time>2024-03-25T07:29:41.000Z</time>
</trkpt>
<trkpt lat="45.8568290" lon="9.3001740">
	<ele>835.80</ele>
	<time>2024-03-25T07:29:42.000Z</time>
</trkpt>
<trkpt lat="45.8568300" lon="9.3001810">
	<ele>835.80</ele>
	<time>2024-03-25T07:29:43.000Z</time>
</trkpt>
<trkpt lat="45.8568310" lon="9.3001870">
	<ele>836.00</ele>
	<time>2024-03-25T07:29:44.000Z</time>
</trkpt>
<trkpt lat="45.8568320" lon="9.3001890">
	<ele>836.00</ele>
	<time>2024-03-25T07:29:45.000Z</time>
</trkpt>
<trkpt lat="45.8568330" lon="9.3001930">
	<ele>836.20</ele>
	<time>2024-03-25T07:29:46.000Z</time>
</trkpt>
<trkpt lat="45.8568330" lon="9.3002040">
	<ele>836.40</ele>
	<time>2024-03-25T07:29:47.000Z</time>
</trkpt>
<trkpt lat="45.8568350" lon="9.3002180">
	<ele>836.60</ele>
	<time>2024-03-25T07:29:48.000Z</time>
</trkpt>
<trkpt lat="45.8568370" lon="9.3002230">
	<ele>836.80</ele>
	<time>2024-03-25T07:29:49.000Z</time>
</trkpt>
<trkpt lat="45.8568390" lon="9.3002270">
	<ele>836.80</ele>
	<time>2024-03-25T07:29:50.000Z</time>
</trkpt>
<trkpt lat="45.8568390" lon="9.3002290">
	<ele>837.00</ele>
	<time>2024-03-25T07:29:51.000Z</time>
</trkpt>
<trkpt lat="45.8568400" lon="9.3002410">
	<ele>837.00</ele>
	<time>2024-03-25T07:29:52.000Z</time>
</trkpt>
<trkpt lat="45.8568380" lon="9.3002580">
	<ele>837.20</ele>
	<time>2024-03-25T07:29:53.000Z</time>
</trkpt>
<trkpt lat="45.8568370" lon="9.3002720">
	<ele>837.40</ele>
	<time>2024-03-25T07:29:54.000Z</time>
</trkpt>
<trkpt lat="45.8568360" lon="9.3002780">
	<ele>837.60</ele>
	<time>2024-03-25T07:29:55.000Z</time>
</trkpt>
<trkpt lat="45.8568370" lon="9.3002880">
	<ele>837.80</ele>
	<time>2024-03-25T07:29:56.000Z</time>
</trkpt>
<trkpt lat="45.8568410" lon="9.3002970">
	<ele>838.00</ele>
	<time>2024-03-25T07:29:57.000Z</time>
</trkpt>
<trkpt lat="45.8568460" lon="9.3003060">
	<ele>838.20</ele>
	<time>2024-03-25T07:29:58.000Z</time>
</trkpt>
<trkpt lat="45.8568500" lon="9.3003100">
	<ele>838.40</ele>
	<time>2024-03-25T07:29:59.000Z</time>
</trkpt>
<trkpt lat="45.8568550" lon="9.3003190">
	<ele>838.40</ele>
	<time>2024-03-25T07:30:00.000Z</time>
</trkpt>
<trkpt lat="45.8568580" lon="9.3003270">
	<ele>838.40</ele>
	<time>2024-03-25T07:30:01.000Z</time>
</trkpt>
<trkpt lat="45.8568600" lon="9.3003350">
	<ele>838.60</ele>
	<time>2024-03-25T07:30:02.000Z</time>
</trkpt>
<trkpt lat="45.8568630" lon="9.3003470">
	<ele>838.80</ele>
	<time>2024-03-25T07:30:03.000Z</time>
</trkpt>
<trkpt lat="45.8568660" lon="9.3003570">
	<ele>838.80</ele>
	<time>2024-03-25T07:30:04.000Z</time>
</trkpt>
<trkpt lat="45.8568660" lon="9.3003610">
	<ele>839.00</ele>
	<time>2024-03-25T07:30:05.000Z</time>
</trkpt>
<trkpt lat="45.8568660" lon="9.3003620">
	<ele>839.20</ele>
	<time>2024-03-25T07:30:06.000Z</time>
</trkpt>
<trkpt lat="45.8568680" lon="9.3003760">
	<ele>839.40</ele>
	<time>2024-03-25T07:30:07.000Z</time>
</trkpt>
<trkpt lat="45.8568690" lon="9.3003800">
	<ele>839.60</ele>
	<time>2024-03-25T07:30:08.000Z</time>
</trkpt>
<trkpt lat="45.8568730" lon="9.3003870">
	<ele>839.80</ele>
	<time>2024-03-25T07:30:09.000Z</time>
</trkpt>
<trkpt lat="45.8568750" lon="9.3003840">
	<ele>840.00</ele>
	<time>2024-03-25T07:30:10.000Z</time>
</trkpt>
<trkpt lat="45.8568790" lon="9.3003810">
	<ele>840.00</ele>
	<time>2024-03-25T07:30:11.000Z</time>
</trkpt>
<trkpt lat="45.8568810" lon="9.3003830">
	<ele>840.20</ele>
	<time>2024-03-25T07:30:12.000Z</time>
</trkpt>
<trkpt lat="45.8568810" lon="9.3003820">
	<ele>840.20</ele>
	<time>2024-03-25T07:30:13.000Z</time>
</trkpt>
<trkpt lat="45.8568840" lon="9.3003840">
	<ele>840.40</ele>
	<time>2024-03-25T07:30:14.000Z</time>
</trkpt>
<trkpt lat="45.8568850" lon="9.3003890">
	<ele>840.60</ele>
	<time>2024-03-25T07:30:15.000Z</time>
</trkpt>
<trkpt lat="45.8568890" lon="9.3004020">
	<ele>840.80</ele>
	<time>2024-03-25T07:30:16.000Z</time>
</trkpt>
<trkpt lat="45.8568910" lon="9.3004130">
	<ele>841.00</ele>
	<time>2024-03-25T07:30:17.000Z</time>
</trkpt>
<trkpt lat="45.8568970" lon="9.3004130">
	<ele>841.00</ele>
	<time>2024-03-25T07:30:18.000Z</time>
</trkpt>
<trkpt lat="45.8569050" lon="9.3004170">
	<ele>841.40</ele>
	<time>2024-03-25T07:30:19.000Z</time>
</trkpt>
<trkpt lat="45.8569170" lon="9.3004220">
	<ele>841.40</ele>
	<time>2024-03-25T07:30:20.000Z</time>
</trkpt>
<trkpt lat="45.8569250" lon="9.3004260">
	<ele>841.60</ele>
	<time>2024-03-25T07:30:21.000Z</time>
</trkpt>
<trkpt lat="45.8569320" lon="9.3004330">
	<ele>842.00</ele>
	<time>2024-03-25T07:30:22.000Z</time>
</trkpt>
<trkpt lat="45.8569380" lon="9.3004420">
	<ele>842.20</ele>
	<time>2024-03-25T07:30:23.000Z</time>
</trkpt>
<trkpt lat="45.8569450" lon="9.3004500">
	<ele>842.40</ele>
	<time>2024-03-25T07:30:24.000Z</time>
</trkpt>
<trkpt lat="45.8569530" lon="9.3004480">
	<ele>842.60</ele>
	<time>2024-03-25T07:30:25.000Z</time>
</trkpt>
<trkpt lat="45.8569570" lon="9.3004360">
	<ele>842.80</ele>
	<time>2024-03-25T07:30:26.000Z</time>
</trkpt>
<trkpt lat="45.8569560" lon="9.3004250">
	<ele>842.80</ele>
	<time>2024-03-25T07:30:27.000Z</time>
</trkpt>
<trkpt lat="45.8569570" lon="9.3004090">
	<ele>843.00</ele>
	<time>2024-03-25T07:30:28.000Z</time>
</trkpt>
<trkpt lat="45.8569570" lon="9.3003930">
	<ele>843.20</ele>
	<time>2024-03-25T07:30:29.000Z</time>
</trkpt>
<trkpt lat="45.8569570" lon="9.3003890">
	<ele>843.40</ele>
	<time>2024-03-25T07:30:30.000Z</time>
</trkpt>
<trkpt lat="45.8569560" lon="9.3003720">
	<ele>843.80</ele>
	<time>2024-03-25T07:30:31.000Z</time>
</trkpt>
<trkpt lat="45.8569570" lon="9.3003640">
	<ele>844.00</ele>
	<time>2024-03-25T07:30:32.000Z</time>
</trkpt>
<trkpt lat="45.8569570" lon="9.3003600">
	<ele>844.20</ele>
	<time>2024-03-25T07:30:33.000Z</time>
</trkpt>
<trkpt lat="45.8569590" lon="9.3003680">
	<ele>844.20</ele>
	<time>2024-03-25T07:30:34.000Z</time>
</trkpt>
<trkpt lat="45.8569660" lon="9.3003680">
	<ele>844.40</ele>
	<time>2024-03-25T07:30:35.000Z</time>
</trkpt>
<trkpt lat="45.8569750" lon="9.3003680">
	<ele>844.60</ele>
	<time>2024-03-25T07:30:36.000Z</time>
</trkpt>
<trkpt lat="45.8569800" lon="9.3003660">
	<ele>844.80</ele>
	<time>2024-03-25T07:30:37.000Z</time>
</trkpt>
<trkpt lat="45.8569850" lon="9.3003690">
	<ele>844.80</ele>
	<time>2024-03-25T07:30:38.000Z</time>
</trkpt>
<trkpt lat="45.8569880" lon="9.3003660">
	<ele>845.00</ele>
	<time>2024-03-25T07:30:39.000Z</time>
</trkpt>
<trkpt lat="45.8569890" lon="9.3003630">
	<ele>845.00</ele>
	<time>2024-03-25T07:30:40.000Z</time>
</trkpt>
<trkpt lat="45.8569900" lon="9.3003610">
	<ele>845.20</ele>
	<time>2024-03-25T07:30:41.000Z</time>
</trkpt>
<trkpt lat="45.8569920" lon="9.3003550">
	<ele>845.20</ele>
	<time>2024-03-25T07:30:42.000Z</time>
</trkpt>
<trkpt lat="45.8569970" lon="9.3003530">
	<ele>845.40</ele>
	<time>2024-03-25T07:30:43.000Z</time>
</trkpt>
<trkpt lat="45.8570000" lon="9.3003500">
	<ele>845.80</ele>
	<time>2024-03-25T07:30:44.000Z</time>
</trkpt>
<trkpt lat="45.8570050" lon="9.3003470">
	<ele>846.00</ele>
	<time>2024-03-25T07:30:45.000Z</time>
</trkpt>
<trkpt lat="45.8570080" lon="9.3003330">
	<ele>846.20</ele>
	<time>2024-03-25T07:30:46.000Z</time>
</trkpt>
<trkpt lat="45.8570140" lon="9.3003290">
	<ele>846.40</ele>
	<time>2024-03-25T07:30:47.000Z</time>
</trkpt>
<trkpt lat="45.8570140" lon="9.3003240">
	<ele>846.40</ele>
	<time>2024-03-25T07:30:48.000Z</time>
</trkpt>
<trkpt lat="45.8570140" lon="9.3003190">
	<ele>846.60</ele>
	<time>2024-03-25T07:30:49.000Z</time>
</trkpt>
<trkpt lat="45.8570140" lon="9.3003170">
	<ele>846.80</ele>
	<time>2024-03-25T07:30:50.000Z</time>
</trkpt>
<trkpt lat="45.8570170" lon="9.3003240">
	<ele>847.00</ele>
	<time>2024-03-25T07:30:51.000Z</time>
</trkpt>
<trkpt lat="45.8570190" lon="9.3003260">
	<ele>847.00</ele>
	<time>2024-03-25T07:30:52.000Z</time>
</trkpt>
<trkpt lat="45.8570200" lon="9.3003220">
	<ele>847.20</ele>
	<time>2024-03-25T07:30:53.000Z</time>
</trkpt>
<trkpt lat="45.8570210" lon="9.3003190">
	<ele>847.40</ele>
	<time>2024-03-25T07:30:54.000Z</time>
</trkpt>
<trkpt lat="45.8570250" lon="9.3003130">
	<ele>847.80</ele>
	<time>2024-03-25T07:30:55.000Z</time>
</trkpt>
<trkpt lat="45.8570340" lon="9.3003160">
	<ele>848.00</ele>
	<time>2024-03-25T07:30:56.000Z</time>
</trkpt>
<trkpt lat="45.8570340" lon="9.3003160">
	<ele>848.00</ele>
	<time>2024-03-25T07:30:57.000Z</time>
</trkpt>
<trkpt lat="45.8570420" lon="9.3003140">
	<ele>848.20</ele>
	<time>2024-03-25T07:30:58.000Z</time>
</trkpt>
<trkpt lat="45.8570430" lon="9.3003110">
	<ele>848.20</ele>
	<time>2024-03-25T07:30:59.000Z</time>
</trkpt>
<trkpt lat="45.8570420" lon="9.3003070">
	<ele>848.40</ele>
	<time>2024-03-25T07:31:00.000Z</time>
</trkpt>
<trkpt lat="45.8570430" lon="9.3003070">
	<ele>848.60</ele>
	<time>2024-03-25T07:31:01.000Z</time>
</trkpt>
<trkpt lat="45.8570370" lon="9.3003130">
	<ele>848.80</ele>
	<time>2024-03-25T07:31:02.000Z</time>
</trkpt>
<trkpt lat="45.8570290" lon="9.3003170">
	<ele>849.00</ele>
	<time>2024-03-25T07:31:03.000Z</time>
</trkpt>
<trkpt lat="45.8570280" lon="9.3003200">
	<ele>849.00</ele>
	<time>2024-03-25T07:31:04.000Z</time>
</trkpt>
<trkpt lat="45.8570290" lon="9.3003240">
	<ele>849.40</ele>
	<time>2024-03-25T07:31:05.000Z</time>
</trkpt>
<trkpt lat="45.8570360" lon="9.3003240">
	<ele>849.60</ele>
	<time>2024-03-25T07:31:06.000Z</time>
</trkpt>
<trkpt lat="45.8570360" lon="9.3003210">
	<ele>849.60</ele>
	<time>2024-03-25T07:31:07.000Z</time>
</trkpt>
<trkpt lat="45.8570410" lon="9.3003200">
	<ele>849.60</ele>
	<time>2024-03-25T07:31:08.000Z</time>
</trkpt>
<trkpt lat="45.8570410" lon="9.3003160">
	<ele>849.80</ele>
	<time>2024-03-25T07:31:09.000Z</time>
</trkpt>
<trkpt lat="45.8570430" lon="9.3003120">
	<ele>849.80</ele>
	<time>2024-03-25T07:31:10.000Z</time>
</trkpt>
<trkpt lat="45.8570460" lon="9.3003130">
	<ele>849.80</ele>
	<time>2024-03-25T07:31:11.000Z</time>
</trkpt>
<trkpt lat="45.8570550" lon="9.3003200">
	<ele>850.00</ele>
	<time>2024-03-25T07:31:12.000Z</time>
</trkpt>
<trkpt lat="45.8570570" lon="9.3003220">
	<ele>850.20</ele>
	<time>2024-03-25T07:31:13.000Z</time>
</trkpt>
<trkpt lat="45.8570590" lon="9.3003250">
	<ele>850.20</ele>
	<time>2024-03-25T07:31:14.000Z</time>
</trkpt>
<trkpt lat="45.8570610" lon="9.3003290">
	<ele>850.40</ele>
	<time>2024-03-25T07:31:15.000Z</time>
</trkpt>
<trkpt lat="45.8570670" lon="9.3003360">
	<ele>850.60</ele>
	<time>2024-03-25T07:31:16.000Z</time>
</trkpt>
<trkpt lat="45.8570790" lon="9.3003480">
	<ele>850.60</ele>
	<time>2024-03-25T07:31:17.000Z</time>
</trkpt>
<trkpt lat="45.8570900" lon="9.3003490">
	<ele>850.80</ele>
	<time>2024-03-25T07:31:18.000Z</time>
</trkpt>
<trkpt lat="45.8570950" lon="9.3003500">
	<ele>851.00</ele>
	<time>2024-03-25T07:31:19.000Z</time>
</trkpt>
<trkpt lat="45.8570980" lon="9.3003480">
	<ele>851.20</ele>
	<time>2024-03-25T07:31:20.000Z</time>
</trkpt>
<trkpt lat="45.8571060" lon="9.3003470">
	<ele>851.40</ele>
	<time>2024-03-25T07:31:21.000Z</time>
</trkpt>
<trkpt lat="45.8571140" lon="9.3003510">
	<ele>851.60</ele>
	<time>2024-03-25T07:31:22.000Z</time>
</trkpt>
<trkpt lat="45.8571300" lon="9.3003550">
	<ele>851.60</ele>
	<time>2024-03-25T07:31:23.000Z</time>
</trkpt>
<trkpt lat="45.8571330" lon="9.3003520">
	<ele>851.80</ele>
	<time>2024-03-25T07:31:24.000Z</time>
</trkpt>
<trkpt lat="45.8571430" lon="9.3003490">
	<ele>851.80</ele>
	<time>2024-03-25T07:31:25.000Z</time>
</trkpt>
<trkpt lat="45.8571530" lon="9.3003490">
	<ele>852.00</ele>
	<time>2024-03-25T07:31:26.000Z</time>
</trkpt>
<trkpt lat="45.8571560" lon="9.3003480">
	<ele>852.00</ele>
	<time>2024-03-25T07:31:27.000Z</time>
</trkpt>
<trkpt lat="45.8571570" lon="9.3003480">
	<ele>852.20</ele>
	<time>2024-03-25T07:31:28.000Z</time>
</trkpt>
<trkpt lat="45.8571650" lon="9.3003500">
	<ele>852.40</ele>
	<time>2024-03-25T07:31:29.000Z</time>
</trkpt>
<trkpt lat="45.8571680" lon="9.3003510">
	<ele>852.60</ele>
	<time>2024-03-25T07:31:30.000Z</time>
</trkpt>
<trkpt lat="45.8571770" lon="9.3003510">
	<ele>852.80</ele>
	<time>2024-03-25T07:31:31.000Z</time>
</trkpt>
<trkpt lat="45.8571870" lon="9.3003550">
	<ele>852.80</ele>
	<time>2024-03-25T07:31:32.000Z</time>
</trkpt>
<trkpt lat="45.8571950" lon="9.3003570">
	<ele>852.80</ele>
	<time>2024-03-25T07:31:33.000Z</time>
</trkpt>
<trkpt lat="45.8571970" lon="9.3003640">
	<ele>853.00</ele>
	<time>2024-03-25T07:31:34.000Z</time>
</trkpt>
<trkpt lat="45.8572030" lon="9.3003670">
	<ele>853.00</ele>
	<time>2024-03-25T07:31:35.000Z</time>
</trkpt>
<trkpt lat="45.8572060" lon="9.3003680">
	<ele>853.40</ele>
	<time>2024-03-25T07:31:36.000Z</time>
</trkpt>
<trkpt lat="45.8572180" lon="9.3003700">
	<ele>853.60</ele>
	<time>2024-03-25T07:31:37.000Z</time>
</trkpt>
<trkpt lat="45.8572290" lon="9.3003750">
	<ele>853.80</ele>
	<time>2024-03-25T07:31:38.000Z</time>
</trkpt>
<trkpt lat="45.8572400" lon="9.3003690">
	<ele>854.00</ele>
	<time>2024-03-25T07:31:39.000Z</time>
</trkpt>
<trkpt lat="45.8572560" lon="9.3003660">
	<ele>854.20</ele>
	<time>2024-03-25T07:31:40.000Z</time>
</trkpt>
<trkpt lat="45.8572670" lon="9.3003580">
	<ele>854.40</ele>
	<time>2024-03-25T07:31:41.000Z</time>
</trkpt>
<trkpt lat="45.8572710" lon="9.3003580">
	<ele>854.40</ele>
	<time>2024-03-25T07:31:42.000Z</time>
</trkpt>
<trkpt lat="45.8572800" lon="9.3003640">
	<ele>854.60</ele>
	<time>2024-03-25T07:31:43.000Z</time>
</trkpt>
<trkpt lat="45.8572880" lon="9.3003700">
	<ele>854.60</ele>
	<time>2024-03-25T07:31:44.000Z</time>
</trkpt>
<trkpt lat="45.8572890" lon="9.3003580">
	<ele>854.80</ele>
	<time>2024-03-25T07:31:45.000Z</time>
</trkpt>
<trkpt lat="45.8572970" lon="9.3003540">
	<ele>854.80</ele>
	<time>2024-03-25T07:31:46.000Z</time>
</trkpt>
<trkpt lat="45.8573010" lon="9.3003520">
	<ele>855.00</ele>
	<time>2024-03-25T07:31:47.000Z</time>
</trkpt>
<trkpt lat="45.8573000" lon="9.3003550">
	<ele>855.00</ele>
	<time>2024-03-25T07:31:48.000Z</time>
</trkpt>
<trkpt lat="45.8573010" lon="9.3003590">
	<ele>855.20</ele>
	<time>2024-03-25T07:31:49.000Z</time>
</trkpt>
<trkpt lat="45.8573030" lon="9.3003620">
	<ele>855.20</ele>
	<time>2024-03-25T07:31:50.000Z</time>
</trkpt>
<trkpt lat="45.8573010" lon="9.3003650">
	<ele>855.40</ele>
	<time>2024-03-25T07:31:51.000Z</time>
</trkpt>
<trkpt lat="45.8572960" lon="9.3003570">
	<ele>855.40</ele>
	<time>2024-03-25T07:31:52.000Z</time>
</trkpt>
<trkpt lat="45.8572950" lon="9.3003590">
	<ele>855.60</ele>
	<time>2024-03-25T07:31:53.000Z</time>
</trkpt>
<trkpt lat="45.8572940" lon="9.3003620">
	<ele>855.80</ele>
	<time>2024-03-25T07:31:54.000Z</time>
</trkpt>
<trkpt lat="45.8572920" lon="9.3003640">
	<ele>856.00</ele>
	<time>2024-03-25T07:31:55.000Z</time>
</trkpt>
<trkpt lat="45.8572920" lon="9.3003680">
	<ele>856.00</ele>
	<time>2024-03-25T07:31:56.000Z</time>
</trkpt>
<trkpt lat="45.8572980" lon="9.3003790">
	<ele>856.20</ele>
	<time>2024-03-25T07:31:57.000Z</time>
</trkpt>
<trkpt lat="45.8572990" lon="9.3003870">
	<ele>856.60</ele>
	<time>2024-03-25T07:31:58.000Z</time>
</trkpt>
<trkpt lat="45.8572970" lon="9.3003910">
	<ele>856.60</ele>
	<time>2024-03-25T07:31:59.000Z</time>
</trkpt>
<trkpt lat="45.8572960" lon="9.3003980">
	<ele>856.80</ele>
	<time>2024-03-25T07:32:00.000Z</time>
</trkpt>
<trkpt lat="45.8572910" lon="9.3003940">
	<ele>857.00</ele>
	<time>2024-03-25T07:32:01.000Z</time>
</trkpt>
<trkpt lat="45.8572860" lon="9.3003980">
	<ele>857.00</ele>
	<time>2024-03-25T07:32:02.000Z</time>
</trkpt>
<trkpt lat="45.8572850" lon="9.3004050">
	<ele>857.20</ele>
	<time>2024-03-25T07:32:03.000Z</time>
</trkpt>
<trkpt lat="45.8572860" lon="9.3004100">
	<ele>857.40</ele>
	<time>2024-03-25T07:32:04.000Z</time>
</trkpt>
<trkpt lat="45.8572870" lon="9.3004190">
	<ele>857.60</ele>
	<time>2024-03-25T07:32:05.000Z</time>
</trkpt>
<trkpt lat="45.8572870" lon="9.3004200">
	<ele>857.80</ele>
	<time>2024-03-25T07:32:06.000Z</time>
</trkpt>
<trkpt lat="45.8572890" lon="9.3004250">
	<ele>858.00</ele>
	<time>2024-03-25T07:32:07.000Z</time>
</trkpt>
<trkpt lat="45.8572920" lon="9.3004370">
	<ele>858.20</ele>
	<time>2024-03-25T07:32:08.000Z</time>
</trkpt>
<trkpt lat="45.8572940" lon="9.3004550">
	<ele>858.40</ele>
	<time>2024-03-25T07:32:09.000Z</time>
</trkpt>
<trkpt lat="45.8572930" lon="9.3004600">
	<ele>858.40</ele>
	<time>2024-03-25T07:32:10.000Z</time>
</trkpt>
<trkpt lat="45.8572930" lon="9.3004630">
	<ele>858.40</ele>
	<time>2024-03-25T07:32:11.000Z</time>
</trkpt>
<trkpt lat="45.8572950" lon="9.3004640">
	<ele>858.60</ele>
	<time>2024-03-25T07:32:12.000Z</time>
</trkpt>
<trkpt lat="45.8572920" lon="9.3004610">
	<ele>858.60</ele>
	<time>2024-03-25T07:32:13.000Z</time>
</trkpt>
<trkpt lat="45.8572930" lon="9.3004640">
	<ele>858.80</ele>
	<time>2024-03-25T07:32:14.000Z</time>
</trkpt>
<trkpt lat="45.8572970" lon="9.3004680">
	<ele>859.00</ele>
	<time>2024-03-25T07:32:15.000Z</time>
</trkpt>
<trkpt lat="45.8573000" lon="9.3004710">
	<ele>859.20</ele>
	<time>2024-03-25T07:32:16.000Z</time>
</trkpt>
<trkpt lat="45.8573010" lon="9.3004710">
	<ele>859.40</ele>
	<time>2024-03-25T07:32:17.000Z</time>
</trkpt>
<trkpt lat="45.8573000" lon="9.3004760">
	<ele>859.60</ele>
	<time>2024-03-25T07:32:18.000Z</time>
</trkpt>
<trkpt lat="45.8572980" lon="9.3004830">
	<ele>859.60</ele>
	<time>2024-03-25T07:32:19.000Z</time>
</trkpt>
<trkpt lat="45.8572980" lon="9.3004970">
	<ele>859.80</ele>
	<time>2024-03-25T07:32:20.000Z</time>
</trkpt>
<trkpt lat="45.8572970" lon="9.3005090">
	<ele>859.80</ele>
	<time>2024-03-25T07:32:21.000Z</time>
</trkpt>
<trkpt lat="45.8572990" lon="9.3005220">
	<ele>859.80</ele>
	<time>2024-03-25T07:32:22.000Z</time>
</trkpt>
<trkpt lat="45.8572990" lon="9.3005350">
	<ele>860.00</ele>
	<time>2024-03-25T07:32:23.000Z</time>
</trkpt>
<trkpt lat="45.8572980" lon="9.3005480">
	<ele>860.20</ele>
	<time>2024-03-25T07:32:24.000Z</time>
</trkpt>
<trkpt lat="45.8573000" lon="9.3005590">
	<ele>860.40</ele>
	<time>2024-03-25T07:32:25.000Z</time>
</trkpt>
<trkpt lat="45.8573000" lon="9.3005740">
	<ele>860.40</ele>
	<time>2024-03-25T07:32:26.000Z</time>
</trkpt>
<trkpt lat="45.8572950" lon="9.3005880">
	<ele>860.60</ele>
	<time>2024-03-25T07:32:27.000Z</time>
</trkpt>
<trkpt lat="45.8572970" lon="9.3005990">
	<ele>860.60</ele>
	<time>2024-03-25T07:32:28.000Z</time>
</trkpt>
<trkpt lat="45.8573030" lon="9.3006160">
	<ele>860.80</ele>
	<time>2024-03-25T07:32:29.000Z</time>
</trkpt>
<trkpt lat="45.8573070" lon="9.3006300">
	<ele>861.00</ele>
	<time>2024-03-25T07:32:30.000Z</time>
</trkpt>
<trkpt lat="45.8573090" lon="9.3006450">
	<ele>861.20</ele>
	<time>2024-03-25T07:32:31.000Z</time>
</trkpt>
<trkpt lat="45.8573170" lon="9.3006560">
	<ele>861.60</ele>
	<time>2024-03-25T07:32:32.000Z</time>
</trkpt>
<trkpt lat="45.8573180" lon="9.3006580">
	<ele>861.60</ele>
	<time>2024-03-25T07:32:33.000Z</time>
</trkpt>
<trkpt lat="45.8573250" lon="9.3006700">
	<ele>862.00</ele>
	<time>2024-03-25T07:32:34.000Z</time>
</trkpt>
<trkpt lat="45.8573330" lon="9.3006840">
	<ele>862.20</ele>
	<time>2024-03-25T07:32:35.000Z</time>
</trkpt>
<trkpt lat="45.8573420" lon="9.3007040">
	<ele>862.20</ele>
	<time>2024-03-25T07:32:36.000Z</time>
</trkpt>
<trkpt lat="45.8573580" lon="9.3007140">
	<ele>862.40</ele>
	<time>2024-03-25T07:32:37.000Z</time>
</trkpt>
<trkpt lat="45.8573740" lon="9.3007230">
	<ele>862.40</ele>
	<time>2024-03-25T07:32:38.000Z</time>
</trkpt>
<trkpt lat="45.8573840" lon="9.3007350">
	<ele>862.60</ele>
	<time>2024-03-25T07:32:39.000Z</time>
</trkpt>
<trkpt lat="45.8573920" lon="9.3007420">
	<ele>862.60</ele>
	<time>2024-03-25T07:32:40.000Z</time>
</trkpt>
<trkpt lat="45.8573960" lon="9.3007490">
	<ele>862.80</ele>
	<time>2024-03-25T07:32:41.000Z</time>
</trkpt>
<trkpt lat="45.8574010" lon="9.3007510">
	<ele>863.00</ele>
	<time>2024-03-25T07:32:42.000Z</time>
</trkpt>
<trkpt lat="45.8574010" lon="9.3007470">
	<ele>863.20</ele>
	<time>2024-03-25T07:32:43.000Z</time>
</trkpt>
<trkpt lat="45.8574000" lon="9.3007400">
	<ele>863.40</ele>
	<time>2024-03-25T07:32:44.000Z</time>
</trkpt>
<trkpt lat="45.8574030" lon="9.3007370">
	<ele>863.80</ele>
	<time>2024-03-25T07:32:45.000Z</time>
</trkpt>
<trkpt lat="45.8574030" lon="9.3007320">
	<ele>864.00</ele>
	<time>2024-03-25T07:32:46.000Z</time>
</trkpt>
<trkpt lat="45.8574060" lon="9.3007330">
	<ele>864.20</ele>
	<time>2024-03-25T07:32:47.000Z</time>
</trkpt>
<trkpt lat="45.8574090" lon="9.3007380">
	<ele>864.40</ele>
	<time>2024-03-25T07:32:48.000Z</time>
</trkpt>
<trkpt lat="45.8574120" lon="9.3007410">
	<ele>864.40</ele>
	<time>2024-03-25T07:32:49.000Z</time>
</trkpt>
<trkpt lat="45.8574170" lon="9.3007470">
	<ele>864.60</ele>
	<time>2024-03-25T07:32:50.000Z</time>
</trkpt>
<trkpt lat="45.8574150" lon="9.3007540">
	<ele>864.60</ele>
	<time>2024-03-25T07:32:51.000Z</time>
</trkpt>
<trkpt lat="45.8574160" lon="9.3007520">
	<ele>864.80</ele>
	<time>2024-03-25T07:32:52.000Z</time>
</trkpt>
<trkpt lat="45.8574160" lon="9.3007550">
	<ele>865.00</ele>
	<time>2024-03-25T07:32:53.000Z</time>
</trkpt>
<trkpt lat="45.8574160" lon="9.3007640">
	<ele>865.20</ele>
	<time>2024-03-25T07:32:54.000Z</time>
</trkpt>
<trkpt lat="45.8574200" lon="9.3007820">
	<ele>865.20</ele>
	<time>2024-03-25T07:32:55.000Z</time>
</trkpt>
<trkpt lat="45.8574200" lon="9.3007940">
	<ele>865.20</ele>
	<time>2024-03-25T07:32:56.000Z</time>
</trkpt>
<trkpt lat="45.8574210" lon="9.3008060">
	<ele>865.40</ele>
	<time>2024-03-25T07:32:57.000Z</time>
</trkpt>
<trkpt lat="45.8574100" lon="9.3008080">
	<ele>865.60</ele>
	<time>2024-03-25T07:32:58.000Z</time>
</trkpt>
<trkpt lat="45.8573960" lon="9.3008130">
	<ele>865.60</ele>
	<time>2024-03-25T07:32:59.000Z</time>
</trkpt>
<trkpt lat="45.8573870" lon="9.3008220">
	<ele>865.80</ele>
	<time>2024-03-25T07:33:00.000Z</time>
</trkpt>
<trkpt lat="45.8573800" lon="9.3008290">
	<ele>866.00</ele>
	<time>2024-03-25T07:33:01.000Z</time>
</trkpt>
<trkpt lat="45.8573740" lon="9.3008320">
	<ele>866.20</ele>
	<time>2024-03-25T07:33:02.000Z</time>
</trkpt>
<trkpt lat="45.8573780" lon="9.3008340">
	<ele>866.20</ele>
	<time>2024-03-25T07:33:03.000Z</time>
</trkpt>
<trkpt lat="45.8573860" lon="9.3008340">
	<ele>866.40</ele>
	<time>2024-03-25T07:33:04.000Z</time>
</trkpt>
<trkpt lat="45.8573890" lon="9.3008370">
	<ele>866.80</ele>
	<time>2024-03-25T07:33:05.000Z</time>
</trkpt>
<trkpt lat="45.8573920" lon="9.3008510">
	<ele>867.00</ele>
	<time>2024-03-25T07:33:06.000Z</time>
</trkpt>
<trkpt lat="45.8573970" lon="9.3008600">
	<ele>867.00</ele>
	<time>2024-03-25T07:33:07.000Z</time>
</trkpt>
<trkpt lat="45.8574010" lon="9.3008680">
	<ele>867.20</ele>
	<time>2024-03-25T07:33:08.000Z</time>
</trkpt>
<trkpt lat="45.8574040" lon="9.3008620">
	<ele>867.40</ele>
	<time>2024-03-25T07:33:09.000Z</time>
</trkpt>
<trkpt lat="45.8574060" lon="9.3008610">
	<ele>867.40</ele>
	<time>2024-03-25T07:33:10.000Z</time>
</trkpt>
<trkpt lat="45.8574090" lon="9.3008630">
	<ele>867.60</ele>
	<time>2024-03-25T07:33:11.000Z</time>
</trkpt>
<trkpt lat="45.8574150" lon="9.3008650">
	<ele>867.60</ele>
	<time>2024-03-25T07:33:12.000Z</time>
</trkpt>
<trkpt lat="45.8574210" lon="9.3008660">
	<ele>867.80</ele>
	<time>2024-03-25T07:33:13.000Z</time>
</trkpt>
<trkpt lat="45.8574270" lon="9.3008690">
	<ele>868.00</ele>
	<time>2024-03-25T07:33:14.000Z</time>
</trkpt>
<trkpt lat="45.8574370" lon="9.3008780">
	<ele>868.20</ele>
	<time>2024-03-25T07:33:15.000Z</time>
</trkpt>
<trkpt lat="45.8574430" lon="9.3008890">
	<ele>868.40</ele>
	<time>2024-03-25T07:33:16.000Z</time>
</trkpt>
<trkpt lat="45.8574500" lon="9.3008990">
	<ele>868.60</ele>
	<time>2024-03-25T07:33:17.000Z</time>
</trkpt>
<trkpt lat="45.8574550" lon="9.3009010">
	<ele>868.80</ele>
	<time>2024-03-25T07:33:18.000Z</time>
</trkpt>
<trkpt lat="45.8574620" lon="9.3009020">
	<ele>868.80</ele>
	<time>2024-03-25T07:33:19.000Z</time>
</trkpt>
<trkpt lat="45.8574730" lon="9.3009090">
	<ele>868.80</ele>
	<time>2024-03-25T07:33:20.000Z</time>
</trkpt>
<trkpt lat="45.8574760" lon="9.3009090">
	<ele>868.80</ele>
	<time>2024-03-25T07:33:21.000Z</time>
</trkpt>
<trkpt lat="45.8574820" lon="9.3009070">
	<ele>869.20</ele>
	<time>2024-03-25T07:33:22.000Z</time>
</trkpt>
<trkpt lat="45.8574770" lon="9.3008990">
	<ele>869.60</ele>
	<time>2024-03-25T07:33:23.000Z</time>
</trkpt>
<trkpt lat="45.8574660" lon="9.3008820">
	<ele>869.80</ele>
	<time>2024-03-25T07:33:24.000Z</time>
</trkpt>
<trkpt lat="45.8574670" lon="9.3008800">
	<ele>870.00</ele>
	<time>2024-03-25T07:33:25.000Z</time>
</trkpt>
<trkpt lat="45.8574530" lon="9.3008700">
	<ele>870.20</ele>
	<time>2024-03-25T07:33:26.000Z</time>
</trkpt>
<trkpt lat="45.8574500" lon="9.3008690">
	<ele>870.40</ele>
	<time>2024-03-25T07:33:27.000Z</time>
</trkpt>
<trkpt lat="45.8574470" lon="9.3008670">
	<ele>870.40</ele>
	<time>2024-03-25T07:33:28.000Z</time>
</trkpt>
<trkpt lat="45.8574470" lon="9.3008650">
	<ele>870.60</ele>
	<time>2024-03-25T07:33:29.000Z</time>
</trkpt>
<trkpt lat="45.8574610" lon="9.3008760">
	<ele>871.00</ele>
	<time>2024-03-25T07:33:30.000Z</time>
</trkpt>
<trkpt lat="45.8574720" lon="9.3008770">
	<ele>871.20</ele>
	<time>2024-03-25T07:33:31.000Z</time>
</trkpt>
<trkpt lat="45.8574700" lon="9.3008760">
	<ele>871.40</ele>
	<time>2024-03-25T07:33:32.000Z</time>
</trkpt>
<trkpt lat="45.8574780" lon="9.3008810">
	<ele>871.60</ele>
	<time>2024-03-25T07:33:33.000Z</time>
</trkpt>
<trkpt lat="45.8574760" lon="9.3008800">
	<ele>871.60</ele>
	<time>2024-03-25T07:33:34.000Z</time>
</trkpt>
<trkpt lat="45.8574740" lon="9.3008780">
	<ele>871.80</ele>
	<time>2024-03-25T07:33:35.000Z</time>
</trkpt>
<trkpt lat="45.8574800" lon="9.3008790">
	<ele>871.80</ele>
	<time>2024-03-25T07:33:36.000Z</time>
</trkpt>
<trkpt lat="45.8574820" lon="9.3008730">
	<ele>872.00</ele>
	<time>2024-03-25T07:33:37.000Z</time>
</trkpt>
<trkpt lat="45.8574840" lon="9.3008710">
	<ele>872.20</ele>
	<time>2024-03-25T07:33:38.000Z</time>
</trkpt>
<trkpt lat="45.8574750" lon="9.3008530">
	<ele>872.40</ele>
	<time>2024-03-25T07:33:39.000Z</time>
</trkpt>
<trkpt lat="45.8574710" lon="9.3008410">
	<ele>872.60</ele>
	<time>2024-03-25T07:33:40.000Z</time>
</trkpt>
<trkpt lat="45.8574690" lon="9.3008320">
	<ele>872.80</ele>
	<time>2024-03-25T07:33:41.000Z</time>
</trkpt>
<trkpt lat="45.8574790" lon="9.3008360">
	<ele>872.80</ele>
	<time>2024-03-25T07:33:42.000Z</time>
</trkpt>
<trkpt lat="45.8574810" lon="9.3008300">
	<ele>873.00</ele>
	<time>2024-03-25T07:33:43.000Z</time>
</trkpt>
<trkpt lat="45.8574820" lon="9.3008240">
	<ele>873.00</ele>
	<time>2024-03-25T07:33:44.000Z</time>
</trkpt>
<trkpt lat="45.8574820" lon="9.3008190">
	<ele>873.20</ele>
	<time>2024-03-25T07:33:45.000Z</time>
</trkpt>
<trkpt lat="45.8574890" lon="9.3008180">
	<ele>873.20</ele>
	<time>2024-03-25T07:33:46.000Z</time>
</trkpt>
<trkpt lat="45.8574950" lon="9.3008220">
	<ele>873.20</ele>
	<time>2024-03-25T07:33:47.000Z</time>
</trkpt>
<trkpt lat="45.8574990" lon="9.3008250">
	<ele>873.40</ele>
	<time>2024-03-25T07:33:48.000Z</time>
</trkpt>
<trkpt lat="45.8575030" lon="9.3008290">
	<ele>873.40</ele>
	<time>2024-03-25T07:33:49.000Z</time>
</trkpt>
<trkpt lat="45.8575090" lon="9.3008310">
	<ele>873.60</ele>
	<time>2024-03-25T07:33:50.000Z</time>
</trkpt>
<trkpt lat="45.8575140" lon="9.3008450">
	<ele>873.80</ele>
	<time>2024-03-25T07:33:51.000Z</time>
</trkpt>
<trkpt lat="45.8575170" lon="9.3008490">
	<ele>873.80</ele>
	<time>2024-03-25T07:33:52.000Z</time>
</trkpt>
<trkpt lat="45.8575200" lon="9.3008500">
	<ele>874.20</ele>
	<time>2024-03-25T07:33:53.000Z</time>
</trkpt>
<trkpt lat="45.8575240" lon="9.3008520">
	<ele>874.60</ele>
	<time>2024-03-25T07:33:54.000Z</time>
</trkpt>
<trkpt lat="45.8575310" lon="9.3008590">
	<ele>874.80</ele>
	<time>2024-03-25T07:33:55.000Z</time>
</trkpt>
<trkpt lat="45.8575380" lon="9.3008650">
	<ele>874.80</ele>
	<time>2024-03-25T07:33:56.000Z</time>
</trkpt>
<trkpt lat="45.8575480" lon="9.3008670">
	<ele>875.00</ele>
	<time>2024-03-25T07:33:57.000Z</time>
</trkpt>
<trkpt lat="45.8575610" lon="9.3008680">
	<ele>875.00</ele>
	<time>2024-03-25T07:33:58.000Z</time>
</trkpt>
<trkpt lat="45.8575610" lon="9.3008660">
	<ele>875.00</ele>
	<time>2024-03-25T07:33:59.000Z</time>
</trkpt>
<trkpt lat="45.8575680" lon="9.3008700">
	<ele>875.20</ele>
	<time>2024-03-25T07:34:00.000Z</time>
</trkpt>
<trkpt lat="45.8575760" lon="9.3008830">
	<ele>875.20</ele>
	<time>2024-03-25T07:34:01.000Z</time>
</trkpt>
<trkpt lat="45.8575810" lon="9.3008960">
	<ele>875.40</ele>
	<time>2024-03-25T07:34:02.000Z</time>
</trkpt>
<trkpt lat="45.8575850" lon="9.3008980">
	<ele>875.60</ele>
	<time>2024-03-25T07:34:03.000Z</time>
</trkpt>
<trkpt lat="45.8575890" lon="9.3008950">
	<ele>875.80</ele>
	<time>2024-03-25T07:34:04.000Z</time>
</trkpt>
<trkpt lat="45.8575890" lon="9.3008960">
	<ele>876.00</ele>
	<time>2024-03-25T07:34:05.000Z</time>
</trkpt>
<trkpt lat="45.8575880" lon="9.3009010">
	<ele>876.20</ele>
	<time>2024-03-25T07:34:06.000Z</time>
</trkpt>
<trkpt lat="45.8575930" lon="9.3009190">
	<ele>876.40</ele>
	<time>2024-03-25T07:34:07.000Z</time>
</trkpt>
<trkpt lat="45.8575980" lon="9.3009310">
	<ele>876.40</ele>
	<time>2024-03-25T07:34:08.000Z</time>
</trkpt>
<trkpt lat="45.8576050" lon="9.3009450">
	<ele>876.60</ele>
	<time>2024-03-25T07:34:09.000Z</time>
</trkpt>
<trkpt lat="45.8576080" lon="9.3009570">
	<ele>876.60</ele>
	<time>2024-03-25T07:34:10.000Z</time>
</trkpt>
<trkpt lat="45.8576150" lon="9.3009730">
	<ele>876.80</ele>
	<time>2024-03-25T07:34:11.000Z</time>
</trkpt>
<trkpt lat="45.8576210" lon="9.3009850">
	<ele>877.20</ele>
	<time>2024-03-25T07:34:12.000Z</time>
</trkpt>
<trkpt lat="45.8576260" lon="9.3010020">
	<ele>877.40</ele>
	<time>2024-03-25T07:34:13.000Z</time>
</trkpt>
<trkpt lat="45.8576320" lon="9.3010160">
	<ele>877.40</ele>
	<time>2024-03-25T07:34:14.000Z</time>
</trkpt>
<trkpt lat="45.8576290" lon="9.3010080">
	<ele>877.60</ele>
	<time>2024-03-25T07:34:15.000Z</time>
</trkpt>
<trkpt lat="45.8576270" lon="9.3010000">
	<ele>877.80</ele>
	<time>2024-03-25T07:34:16.000Z</time>
</trkpt>
<trkpt lat="45.8576220" lon="9.3010040">
	<ele>878.00</ele>
	<time>2024-03-25T07:34:17.000Z</time>
</trkpt>
<trkpt lat="45.8576200" lon="9.3010090">
	<ele>878.00</ele>
	<time>2024-03-25T07:34:18.000Z</time>
</trkpt>
<trkpt lat="45.8576210" lon="9.3010100">
	<ele>878.20</ele>
	<time>2024-03-25T07:34:19.000Z</time>
</trkpt>
<trkpt lat="45.8576160" lon="9.3010150">
	<ele>878.20</ele>
	<time>2024-03-25T07:34:20.000Z</time>
</trkpt>
<trkpt lat="45.8576180" lon="9.3010230">
	<ele>878.40</ele>
	<time>2024-03-25T07:34:21.000Z</time>
</trkpt>
<trkpt lat="45.8576170" lon="9.3010250">
	<ele>878.40</ele>
	<time>2024-03-25T07:34:22.000Z</time>
</trkpt>
<trkpt lat="45.8576170" lon="9.3010270">
	<ele>878.60</ele>
	<time>2024-03-25T07:34:23.000Z</time>
</trkpt>
<trkpt lat="45.8576160" lon="9.3010270">
	<ele>878.80</ele>
	<time>2024-03-25T07:34:24.000Z</time>
</trkpt>
<trkpt lat="45.8576150" lon="9.3010280">
	<ele>879.20</ele>
	<time>2024-03-25T07:34:25.000Z</time>
</trkpt>
<trkpt lat="45.8576130" lon="9.3010300">
	<ele>879.40</ele>
	<time>2024-03-25T07:34:26.000Z</time>
</trkpt>
<trkpt lat="45.8576160" lon="9.3010400">
	<ele>879.40</ele>
	<time>2024-03-25T07:34:27.000Z</time>
</trkpt>
<trkpt lat="45.8576160" lon="9.3010410">
	<ele>879.60</ele>
	<time>2024-03-25T07:34:28.000Z</time>
</trkpt>
<trkpt lat="45.8576230" lon="9.3010460">
	<ele>879.60</ele>
	<time>2024-03-25T07:34:29.000Z</time>
</trkpt>
<trkpt lat="45.8576260" lon="9.3010460">
	<ele>879.60</ele>
	<time>2024-03-25T07:34:30.000Z</time>
</trkpt>
<trkpt lat="45.8576320" lon="9.3010580">
	<ele>879.60</ele>
	<time>2024-03-25T07:34:31.000Z</time>
</trkpt>
<trkpt lat="45.8576340" lon="9.3010590">
	<ele>879.60</ele>
	<time>2024-03-25T07:34:32.000Z</time>
</trkpt>
<trkpt lat="45.8576370" lon="9.3010560">
	<ele>879.60</ele>
	<time>2024-03-25T07:34:33.000Z</time>
</trkpt>
<trkpt lat="45.8576250" lon="9.3010550">
	<ele>879.60</ele>
	<time>2024-03-25T07:34:34.000Z</time>
</trkpt>
<trkpt lat="45.8576200" lon="9.3010560">
	<ele>879.80</ele>
	<time>2024-03-25T07:34:35.000Z</time>
</trkpt>
<trkpt lat="45.8576140" lon="9.3010550">
	<ele>879.80</ele>
	<time>2024-03-25T07:34:36.000Z</time>
</trkpt>
<trkpt lat="45.8576080" lon="9.3010520">
	<ele>879.80</ele>
	<time>2024-03-25T07:34:37.000Z</time>
</trkpt>
<trkpt lat="45.8576010" lon="9.3010520">
	<ele>879.80</ele>
	<time>2024-03-25T07:34:38.000Z</time>
</trkpt>
<trkpt lat="45.8575990" lon="9.3010490">
	<ele>879.80</ele>
	<time>2024-03-25T07:34:39.000Z</time>
</trkpt>
<trkpt lat="45.8575970" lon="9.3010460">
	<ele>880.00</ele>
	<time>2024-03-25T07:34:40.000Z</time>
</trkpt>
<trkpt lat="45.8575980" lon="9.3010450">
	<ele>880.00</ele>
	<time>2024-03-25T07:34:41.000Z</time>
</trkpt>
<trkpt lat="45.8575990" lon="9.3010440">
	<ele>880.00</ele>
	<time>2024-03-25T07:34:42.000Z</time>
</trkpt>
<trkpt lat="45.8576010" lon="9.3010500">
	<ele>880.00</ele>
	<time>2024-03-25T07:34:43.000Z</time>
</trkpt>
<trkpt lat="45.8576000" lon="9.3010490">
	<ele>880.00</ele>
	<time>2024-03-25T07:34:44.000Z</time>
</trkpt>
<trkpt lat="45.8576000" lon="9.3010490">
	<ele>880.20</ele>
	<time>2024-03-25T07:34:45.000Z</time>
</trkpt>
<trkpt lat="45.8576000" lon="9.3010490">
	<ele>880.20</ele>
	<time>2024-03-25T07:34:46.000Z</time>
</trkpt>
<trkpt lat="45.8576000" lon="9.3010490">
	<ele>880.20</ele>
	<time>2024-03-25T07:34:47.000Z</time>
</trkpt>
<trkpt lat="45.8576000" lon="9.3010490">
	<ele>880.20</ele>
	<time>2024-03-25T07:34:48.000Z</time>
</trkpt>
<trkpt lat="45.8576000" lon="9.3010490">
	<ele>880.00</ele>
	<time>2024-03-25T07:34:49.000Z</time>
</trkpt>
<trkpt lat="45.8576000" lon="9.3010490">
	<ele>879.80</ele>
	<time>2024-03-25T07:34:50.000Z</time>
</trkpt>
<trkpt lat="45.8576000" lon="9.3010490">
	<ele>879.80</ele>
	<time>2024-03-25T07:34:51.000Z</time>
</trkpt>
<trkpt lat="45.8576000" lon="9.3010490">
	<ele>879.80</ele>
	<time>2024-03-25T07:34:52.000Z</time>
</trkpt>
<trkpt lat="45.8576000" lon="9.3010490">
	<ele>879.80</ele>
	<time>2024-03-25T07:34:53.000Z</time>
</trkpt>
<trkpt lat="45.8576000" lon="9.3010490">
	<ele>880.00</ele>
	<time>2024-03-25T07:34:54.000Z</time>
</trkpt>
<trkpt lat="45.8576000" lon="9.3010490">
	<ele>880.00</ele>
	<time>2024-03-25T07:34:55.000Z</time>
</trkpt>
<trkpt lat="45.8576000" lon="9.3010490">
	<ele>880.00</ele>
	<time>2024-03-25T07:34:56.000Z</time>
</trkpt>
<trkpt lat="45.8576000" lon="9.3010490">
	<ele>880.00</ele>
	<time>2024-03-25T07:34:57.000Z</time>
</trkpt>
<trkpt lat="45.8576000" lon="9.3010490">
	<ele>880.00</ele>
	<time>2024-03-25T07:34:58.000Z</time>
</trkpt>
<trkpt lat="45.8576000" lon="9.3010490">
	<ele>879.80</ele>
	<time>2024-03-25T07:34:59.000Z</time>
</trkpt>
<trkpt lat="45.8576000" lon="9.3010500">
	<ele>879.80</ele>
	<time>2024-03-25T07:35:00.000Z</time>
</trkpt>
<trkpt lat="45.8576000" lon="9.3010500">
	<ele>879.80</ele>
	<time>2024-03-25T07:35:01.000Z</time>
</trkpt>
<trkpt lat="45.8576000" lon="9.3010520">
	<ele>879.80</ele>
	<time>2024-03-25T07:35:02.000Z</time>
</trkpt>
<trkpt lat="45.8576010" lon="9.3010520">
	<ele>879.80</ele>
	<time>2024-03-25T07:35:03.000Z</time>
</trkpt>
<trkpt lat="45.8576010" lon="9.3010540">
	<ele>880.00</ele>
	<time>2024-03-25T07:35:04.000Z</time>
</trkpt>
<trkpt lat="45.8576010" lon="9.3010540">
	<ele>880.00</ele>
	<time>2024-03-25T07:35:05.000Z</time>
</trkpt>
<trkpt lat="45.8576010" lon="9.3010570">
	<ele>880.00</ele>
	<time>2024-03-25T07:35:06.000Z</time>
</trkpt>
<trkpt lat="45.8576010" lon="9.3010570">
	<ele>880.00</ele>
	<time>2024-03-25T07:35:07.000Z</time>
</trkpt>
<trkpt lat="45.8576010" lon="9.3010600">
	<ele>880.00</ele>
	<time>2024-03-25T07:35:08.000Z</time>
</trkpt>
<trkpt lat="45.8576020" lon="9.3010610">
	<ele>880.00</ele>
	<time>2024-03-25T07:35:09.000Z</time>
</trkpt>
<trkpt lat="45.8576020" lon="9.3010610">
	<ele>880.00</ele>
	<time>2024-03-25T07:35:10.000Z</time>
</trkpt>
<trkpt lat="45.8576020" lon="9.3010620">
	<ele>879.80</ele>
	<time>2024-03-25T07:35:11.000Z</time>
</trkpt>
<trkpt lat="45.8576020" lon="9.3010640">
	<ele>879.80</ele>
	<time>2024-03-25T07:35:12.000Z</time>
</trkpt>
<trkpt lat="45.8576070" lon="9.3010710">
	<ele>880.00</ele>
	<time>2024-03-25T07:35:13.000Z</time>
</trkpt>
<trkpt lat="45.8576080" lon="9.3010750">
	<ele>880.00</ele>
	<time>2024-03-25T07:35:14.000Z</time>
</trkpt>
<trkpt lat="45.8576090" lon="9.3010780">
	<ele>880.00</ele>
	<time>2024-03-25T07:35:15.000Z</time>
</trkpt>
<trkpt lat="45.8576110" lon="9.3010810">
	<ele>880.00</ele>
	<time>2024-03-25T07:35:16.000Z</time>
</trkpt>
<trkpt lat="45.8576120" lon="9.3010820">
	<ele>880.00</ele>
	<time>2024-03-25T07:35:17.000Z</time>
</trkpt>
<trkpt lat="45.8576130" lon="9.3010830">
	<ele>880.00</ele>
	<time>2024-03-25T07:35:18.000Z</time>
</trkpt>
<trkpt lat="45.8576140" lon="9.3010830">
	<ele>880.00</ele>
	<time>2024-03-25T07:35:19.000Z</time>
</trkpt>
<trkpt lat="45.8576210" lon="9.3010830">
	<ele>880.00</ele>
	<time>2024-03-25T07:35:20.000Z</time>
</trkpt>
<trkpt lat="45.8576330" lon="9.3010840">
	<ele>880.00</ele>
	<time>2024-03-25T07:35:21.000Z</time>
</trkpt>
<trkpt lat="45.8576380" lon="9.3010860">
	<ele>880.20</ele>
	<time>2024-03-25T07:35:22.000Z</time>
</trkpt>
<trkpt lat="45.8576390" lon="9.3010890">
	<ele>880.20</ele>
	<time>2024-03-25T07:35:23.000Z</time>
</trkpt>
<trkpt lat="45.8576400" lon="9.3010920">
	<ele>880.00</ele>
	<time>2024-03-25T07:35:24.000Z</time>
</trkpt>
<trkpt lat="45.8576430" lon="9.3010990">
	<ele>880.20</ele>
	<time>2024-03-25T07:35:25.000Z</time>
</trkpt>
<trkpt lat="45.8576460" lon="9.3011070">
	<ele>880.20</ele>
	<time>2024-03-25T07:35:26.000Z</time>
</trkpt>
<trkpt lat="45.8576470" lon="9.3011090">
	<ele>880.20</ele>
	<time>2024-03-25T07:35:27.000Z</time>
</trkpt>
<trkpt lat="45.8576470" lon="9.3011090">
	<ele>880.20</ele>
	<time>2024-03-25T07:35:28.000Z</time>
</trkpt>
<trkpt lat="45.8576470" lon="9.3011090">
	<ele>880.40</ele>
	<time>2024-03-25T07:35:29.000Z</time>
</trkpt>
<trkpt lat="45.8576470" lon="9.3011090">
	<ele>880.40</ele>
	<time>2024-03-25T07:35:30.000Z</time>
</trkpt>
<trkpt lat="45.8576470" lon="9.3011090">
	<ele>880.40</ele>
	<time>2024-03-25T07:35:31.000Z</time>
</trkpt>
<trkpt lat="45.8576470" lon="9.3011090">
	<ele>880.40</ele>
	<time>2024-03-25T07:35:32.000Z</time>
</trkpt>
<trkpt lat="45.8576470" lon="9.3011090">
	<ele>880.40</ele>
	<time>2024-03-25T07:35:33.000Z</time>
</trkpt>
<trkpt lat="45.8576470" lon="9.3011090">
	<ele>880.40</ele>
	<time>2024-03-25T07:35:34.000Z</time>
</trkpt>
<trkpt lat="45.8576470" lon="9.3011090">
	<ele>880.40</ele>
	<time>2024-03-25T07:35:35.000Z</time>
</trkpt>
<trkpt lat="45.8576470" lon="9.3011090">
	<ele>880.60</ele>
	<time>2024-03-25T07:35:36.000Z</time>
</trkpt>
<trkpt lat="45.8576470" lon="9.3011090">
	<ele>880.60</ele>
	<time>2024-03-25T07:35:37.000Z</time>
</trkpt>
<trkpt lat="45.8576470" lon="9.3011090">
	<ele>880.60</ele>
	<time>2024-03-25T07:35:38.000Z</time>
</trkpt>
<trkpt lat="45.8576470" lon="9.3011090">
	<ele>880.60</ele>
	<time>2024-03-25T07:35:39.000Z</time>
</trkpt>
<trkpt lat="45.8576480" lon="9.3011060">
	<ele>880.60</ele>
	<time>2024-03-25T07:35:40.000Z</time>
</trkpt>
<trkpt lat="45.8576490" lon="9.3011020">
	<ele>880.60</ele>
	<time>2024-03-25T07:35:41.000Z</time>
</trkpt>
<trkpt lat="45.8576490" lon="9.3011020">
	<ele>880.80</ele>
	<time>2024-03-25T07:35:42.000Z</time>
</trkpt>
<trkpt lat="45.8576490" lon="9.3011020">
	<ele>880.80</ele>
	<time>2024-03-25T07:35:43.000Z</time>
</trkpt>
<trkpt lat="45.8576490" lon="9.3011000">
	<ele>880.80</ele>
	<time>2024-03-25T07:35:44.000Z</time>
</trkpt>
<trkpt lat="45.8576650" lon="9.3011000">
	<ele>880.80</ele>
	<time>2024-03-25T07:35:45.000Z</time>
</trkpt>
<trkpt lat="45.8576730" lon="9.3011000">
	<ele>880.80</ele>
	<time>2024-03-25T07:35:46.000Z</time>
</trkpt>
<trkpt lat="45.8576860" lon="9.3010970">
	<ele>880.80</ele>
	<time>2024-03-25T07:35:47.000Z</time>
</trkpt>
<trkpt lat="45.8576980" lon="9.3010970">
	<ele>880.80</ele>
	<time>2024-03-25T07:35:48.000Z</time>
</trkpt>
<trkpt lat="45.8577010" lon="9.3010940">
	<ele>880.80</ele>
	<time>2024-03-25T07:35:49.000Z</time>
</trkpt>
<trkpt lat="45.8577090" lon="9.3010910">
	<ele>880.80</ele>
	<time>2024-03-25T07:35:50.000Z</time>
</trkpt>
<trkpt lat="45.8577130" lon="9.3010880">
	<ele>880.80</ele>
	<time>2024-03-25T07:35:51.000Z</time>
</trkpt>
<trkpt lat="45.8577140" lon="9.3010850">
	<ele>880.80</ele>
	<time>2024-03-25T07:35:52.000Z</time>
</trkpt>
<trkpt lat="45.8577180" lon="9.3010840">
	<ele>880.80</ele>
	<time>2024-03-25T07:35:53.000Z</time>
</trkpt>
<trkpt lat="45.8577200" lon="9.3010850">
	<ele>880.80</ele>
	<time>2024-03-25T07:35:54.000Z</time>
</trkpt>
<trkpt lat="45.8577200" lon="9.3010840">
	<ele>880.80</ele>
	<time>2024-03-25T07:35:55.000Z</time>
</trkpt>
<trkpt lat="45.8577200" lon="9.3010860">
	<ele>880.80</ele>
	<time>2024-03-25T07:35:56.000Z</time>
</trkpt>
<trkpt lat="45.8577140" lon="9.3010840">
	<ele>880.80</ele>
	<time>2024-03-25T07:35:57.000Z</time>
</trkpt>
<trkpt lat="45.8577080" lon="9.3010880">
	<ele>881.00</ele>
	<time>2024-03-25T07:35:58.000Z</time>
</trkpt>
<trkpt lat="45.8577040" lon="9.3010990">
	<ele>881.00</ele>
	<time>2024-03-25T07:35:59.000Z</time>
</trkpt>
<trkpt lat="45.8577030" lon="9.3011020">
	<ele>881.20</ele>
	<time>2024-03-25T07:36:00.000Z</time>
</trkpt>
<trkpt lat="45.8576940" lon="9.3011000">
	<ele>881.20</ele>
	<time>2024-03-25T07:36:01.000Z</time>
</trkpt>
<trkpt lat="45.8576850" lon="9.3011050">
	<ele>881.40</ele>
	<time>2024-03-25T07:36:02.000Z</time>
</trkpt>
<trkpt lat="45.8576830" lon="9.3011110">
	<ele>881.40</ele>
	<time>2024-03-25T07:36:03.000Z</time>
</trkpt>
<trkpt lat="45.8576820" lon="9.3011100">
	<ele>881.40</ele>
	<time>2024-03-25T07:36:04.000Z</time>
</trkpt>
<trkpt lat="45.8576770" lon="9.3011080">
	<ele>881.40</ele>
	<time>2024-03-25T07:36:05.000Z</time>
</trkpt>
<trkpt lat="45.8576730" lon="9.3011080">
	<ele>881.60</ele>
	<time>2024-03-25T07:36:06.000Z</time>
</trkpt>
<trkpt lat="45.8576670" lon="9.3011050">
	<ele>881.60</ele>
	<time>2024-03-25T07:36:07.000Z</time>
</trkpt>
<trkpt lat="45.8576730" lon="9.3011030">
	<ele>881.80</ele>
	<time>2024-03-25T07:36:08.000Z</time>
</trkpt>
<trkpt lat="45.8576840" lon="9.3011040">
	<ele>881.80</ele>
	<time>2024-03-25T07:36:09.000Z</time>
</trkpt>
<trkpt lat="45.8576870" lon="9.3010990">
	<ele>882.00</ele>
	<time>2024-03-25T07:36:10.000Z</time>
</trkpt>
<trkpt lat="45.8576840" lon="9.3011000">
	<ele>882.00</ele>
	<time>2024-03-25T07:36:11.000Z</time>
</trkpt>
<trkpt lat="45.8576810" lon="9.3010970">
	<ele>882.00</ele>
	<time>2024-03-25T07:36:12.000Z</time>
</trkpt>
<trkpt lat="45.8576750" lon="9.3010840">
	<ele>882.20</ele>
	<time>2024-03-25T07:36:13.000Z</time>
</trkpt>
<trkpt lat="45.8576700" lon="9.3010820">
	<ele>882.40</ele>
	<time>2024-03-25T07:36:14.000Z</time>
</trkpt>
<trkpt lat="45.8576640" lon="9.3010870">
	<ele>882.60</ele>
	<time>2024-03-25T07:36:15.000Z</time>
</trkpt>
<trkpt lat="45.8576560" lon="9.3011000">
	<ele>882.60</ele>
	<time>2024-03-25T07:36:16.000Z</time>
</trkpt>
<trkpt lat="45.8576490" lon="9.3011090">
	<ele>882.60</ele>
	<time>2024-03-25T07:36:17.000Z</time>
</trkpt>
<trkpt lat="45.8576420" lon="9.3011140">
	<ele>882.80</ele>
	<time>2024-03-25T07:36:18.000Z</time>
</trkpt>
<trkpt lat="45.8576390" lon="9.3011220">
	<ele>883.00</ele>
	<time>2024-03-25T07:36:19.000Z</time>
</trkpt>
<trkpt lat="45.8576350" lon="9.3011250">
	<ele>883.20</ele>
	<time>2024-03-25T07:36:20.000Z</time>
</trkpt>
<trkpt lat="45.8576300" lon="9.3011250">
	<ele>883.20</ele>
	<time>2024-03-25T07:36:21.000Z</time>
</trkpt>
<trkpt lat="45.8576280" lon="9.3011260">
	<ele>883.40</ele>
	<time>2024-03-25T07:36:22.000Z</time>
</trkpt>
<trkpt lat="45.8576260" lon="9.3011300">
	<ele>883.60</ele>
	<time>2024-03-25T07:36:23.000Z</time>
</trkpt>
<trkpt lat="45.8576260" lon="9.3011410">
	<ele>883.80</ele>
	<time>2024-03-25T07:36:24.000Z</time>
</trkpt>
<trkpt lat="45.8576240" lon="9.3011530">
	<ele>884.00</ele>
	<time>2024-03-25T07:36:25.000Z</time>
</trkpt>
<trkpt lat="45.8576270" lon="9.3011630">
	<ele>884.20</ele>
	<time>2024-03-25T07:36:26.000Z</time>
</trkpt>
<trkpt lat="45.8576290" lon="9.3011710">
	<ele>884.40</ele>
	<time>2024-03-25T07:36:27.000Z</time>
</trkpt>
<trkpt lat="45.8576290" lon="9.3011840">
	<ele>884.60</ele>
	<time>2024-03-25T07:36:28.000Z</time>
</trkpt>
<trkpt lat="45.8576270" lon="9.3012050">
	<ele>885.00</ele>
	<time>2024-03-25T07:36:29.000Z</time>
</trkpt>
<trkpt lat="45.8576290" lon="9.3012100">
	<ele>885.20</ele>
	<time>2024-03-25T07:36:30.000Z</time>
</trkpt>
<trkpt lat="45.8576260" lon="9.3012230">
	<ele>885.40</ele>
	<time>2024-03-25T07:36:31.000Z</time>
</trkpt>
<trkpt lat="45.8576260" lon="9.3012280">
	<ele>885.80</ele>
	<time>2024-03-25T07:36:32.000Z</time>
</trkpt>
<trkpt lat="45.8576240" lon="9.3012300">
	<ele>885.80</ele>
	<time>2024-03-25T07:36:33.000Z</time>
</trkpt>
<trkpt lat="45.8576270" lon="9.3012420">
	<ele>886.00</ele>
	<time>2024-03-25T07:36:34.000Z</time>
</trkpt>
<trkpt lat="45.8576310" lon="9.3012520">
	<ele>886.20</ele>
	<time>2024-03-25T07:36:35.000Z</time>
</trkpt>
<trkpt lat="45.8576330" lon="9.3012650">
	<ele>886.60</ele>
	<time>2024-03-25T07:36:36.000Z</time>
</trkpt>
<trkpt lat="45.8576360" lon="9.3012780">
	<ele>886.60</ele>
	<time>2024-03-25T07:36:37.000Z</time>
</trkpt>
<trkpt lat="45.8576360" lon="9.3012890">
	<ele>886.80</ele>
	<time>2024-03-25T07:36:38.000Z</time>
</trkpt>
<trkpt lat="45.8576340" lon="9.3012950">
	<ele>886.80</ele>
	<time>2024-03-25T07:36:39.000Z</time>
</trkpt>
<trkpt lat="45.8576290" lon="9.3013050">
	<ele>886.80</ele>
	<time>2024-03-25T07:36:40.000Z</time>
</trkpt>
<trkpt lat="45.8576240" lon="9.3013140">
	<ele>887.00</ele>
	<time>2024-03-25T07:36:41.000Z</time>
</trkpt>
<trkpt lat="45.8576250" lon="9.3013210">
	<ele>887.20</ele>
	<time>2024-03-25T07:36:42.000Z</time>
</trkpt>
<trkpt lat="45.8576210" lon="9.3013270">
	<ele>887.20</ele>
	<time>2024-03-25T07:36:43.000Z</time>
</trkpt>
<trkpt lat="45.8576230" lon="9.3013430">
	<ele>887.40</ele>
	<time>2024-03-25T07:36:44.000Z</time>
</trkpt>
<trkpt lat="45.8576230" lon="9.3013570">
	<ele>887.80</ele>
	<time>2024-03-25T07:36:45.000Z</time>
</trkpt>
<trkpt lat="45.8576290" lon="9.3013780">
	<ele>888.20</ele>
	<time>2024-03-25T07:36:46.000Z</time>
</trkpt>
<trkpt lat="45.8576320" lon="9.3013840">
	<ele>888.40</ele>
	<time>2024-03-25T07:36:47.000Z</time>
</trkpt>
<trkpt lat="45.8576320" lon="9.3013830">
	<ele>888.40</ele>
	<time>2024-03-25T07:36:48.000Z</time>
</trkpt>
<trkpt lat="45.8576320" lon="9.3013870">
	<ele>888.60</ele>
	<time>2024-03-25T07:36:49.000Z</time>
</trkpt>
<trkpt lat="45.8576340" lon="9.3013880">
	<ele>888.80</ele>
	<time>2024-03-25T07:36:50.000Z</time>
</trkpt>
<trkpt lat="45.8576360" lon="9.3013930">
	<ele>888.80</ele>
	<time>2024-03-25T07:36:51.000Z</time>
</trkpt>
<trkpt lat="45.8576350" lon="9.3013960">
	<ele>889.00</ele>
	<time>2024-03-25T07:36:52.000Z</time>
</trkpt>
<trkpt lat="45.8576310" lon="9.3014030">
	<ele>889.20</ele>
	<time>2024-03-25T07:36:53.000Z</time>
</trkpt>
<trkpt lat="45.8576310" lon="9.3014120">
	<ele>889.40</ele>
	<time>2024-03-25T07:36:54.000Z</time>
</trkpt>
<trkpt lat="45.8576330" lon="9.3014210">
	<ele>889.60</ele>
	<time>2024-03-25T07:36:55.000Z</time>
</trkpt>
<trkpt lat="45.8576300" lon="9.3014290">
	<ele>889.60</ele>
	<time>2024-03-25T07:36:56.000Z</time>
</trkpt>
<trkpt lat="45.8576300" lon="9.3014350">
	<ele>889.80</ele>
	<time>2024-03-25T07:36:57.000Z</time>
</trkpt>
<trkpt lat="45.8576270" lon="9.3014390">
	<ele>890.00</ele>
	<time>2024-03-25T07:36:58.000Z</time>
</trkpt>
<trkpt lat="45.8576290" lon="9.3014420">
	<ele>890.20</ele>
	<time>2024-03-25T07:36:59.000Z</time>
</trkpt>
<trkpt lat="45.8576330" lon="9.3014510">
	<ele>890.40</ele>
	<time>2024-03-25T07:37:00.000Z</time>
</trkpt>
<trkpt lat="45.8576360" lon="9.3014560">
	<ele>890.60</ele>
	<time>2024-03-25T07:37:01.000Z</time>
</trkpt>
<trkpt lat="45.8576380" lon="9.3014610">
	<ele>890.80</ele>
	<time>2024-03-25T07:37:02.000Z</time>
</trkpt>
<trkpt lat="45.8576370" lon="9.3014650">
	<ele>890.80</ele>
	<time>2024-03-25T07:37:03.000Z</time>
</trkpt>
<trkpt lat="45.8576340" lon="9.3014730">
	<ele>891.00</ele>
	<time>2024-03-25T07:37:04.000Z</time>
</trkpt>
<trkpt lat="45.8576310" lon="9.3014820">
	<ele>891.00</ele>
	<time>2024-03-25T07:37:05.000Z</time>
</trkpt>
<trkpt lat="45.8576340" lon="9.3014840">
	<ele>891.20</ele>
	<time>2024-03-25T07:37:06.000Z</time>
</trkpt>
<trkpt lat="45.8576360" lon="9.3014900">
	<ele>891.40</ele>
	<time>2024-03-25T07:37:07.000Z</time>
</trkpt>
<trkpt lat="45.8576410" lon="9.3014990">
	<ele>891.40</ele>
	<time>2024-03-25T07:37:08.000Z</time>
</trkpt>
<trkpt lat="45.8576470" lon="9.3015050">
	<ele>891.80</ele>
	<time>2024-03-25T07:37:09.000Z</time>
</trkpt>
<trkpt lat="45.8576450" lon="9.3014990">
	<ele>892.00</ele>
	<time>2024-03-25T07:37:10.000Z</time>
</trkpt>
<trkpt lat="45.8576450" lon="9.3014900">
	<ele>892.20</ele>
	<time>2024-03-25T07:37:11.000Z</time>
</trkpt>
<trkpt lat="45.8576450" lon="9.3014900">
	<ele>892.40</ele>
	<time>2024-03-25T07:37:12.000Z</time>
</trkpt>
<trkpt lat="45.8576480" lon="9.3014980">
	<ele>892.60</ele>
	<time>2024-03-25T07:37:13.000Z</time>
</trkpt>
<trkpt lat="45.8576530" lon="9.3015080">
	<ele>892.80</ele>
	<time>2024-03-25T07:37:14.000Z</time>
</trkpt>
<trkpt lat="45.8576550" lon="9.3015170">
	<ele>892.80</ele>
	<time>2024-03-25T07:37:15.000Z</time>
</trkpt>
<trkpt lat="45.8576550" lon="9.3015200">
	<ele>893.00</ele>
	<time>2024-03-25T07:37:16.000Z</time>
</trkpt>
<trkpt lat="45.8576550" lon="9.3015230">
	<ele>893.00</ele>
	<time>2024-03-25T07:37:17.000Z</time>
</trkpt>
<trkpt lat="45.8576500" lon="9.3015330">
	<ele>893.20</ele>
	<time>2024-03-25T07:37:18.000Z</time>
</trkpt>
<trkpt lat="45.8576500" lon="9.3015520">
	<ele>893.40</ele>
	<time>2024-03-25T07:37:19.000Z</time>
</trkpt>
<trkpt lat="45.8576540" lon="9.3015680">
	<ele>893.40</ele>
	<time>2024-03-25T07:37:20.000Z</time>
</trkpt>
<trkpt lat="45.8576620" lon="9.3015920">
	<ele>893.60</ele>
	<time>2024-03-25T07:37:21.000Z</time>
</trkpt>
<trkpt lat="45.8576650" lon="9.3016120">
	<ele>893.80</ele>
	<time>2024-03-25T07:37:22.000Z</time>
</trkpt>
<trkpt lat="45.8576700" lon="9.3016300">
	<ele>894.00</ele>
	<time>2024-03-25T07:37:23.000Z</time>
</trkpt>
<trkpt lat="45.8576730" lon="9.3016420">
	<ele>894.20</ele>
	<time>2024-03-25T07:37:24.000Z</time>
</trkpt>
<trkpt lat="45.8576750" lon="9.3016550">
	<ele>894.40</ele>
	<time>2024-03-25T07:37:25.000Z</time>
</trkpt>
<trkpt lat="45.8576760" lon="9.3016670">
	<ele>894.60</ele>
	<time>2024-03-25T07:37:26.000Z</time>
</trkpt>
<trkpt lat="45.8576770" lon="9.3016720">
	<ele>894.80</ele>
	<time>2024-03-25T07:37:27.000Z</time>
</trkpt>
<trkpt lat="45.8576750" lon="9.3016750">
	<ele>895.00</ele>
	<time>2024-03-25T07:37:28.000Z</time>
</trkpt>
<trkpt lat="45.8576730" lon="9.3016780">
	<ele>895.00</ele>
	<time>2024-03-25T07:37:29.000Z</time>
</trkpt>
<trkpt lat="45.8576730" lon="9.3016910">
	<ele>895.20</ele>
	<time>2024-03-25T07:37:30.000Z</time>
</trkpt>
<trkpt lat="45.8576770" lon="9.3017030">
	<ele>895.40</ele>
	<time>2024-03-25T07:37:31.000Z</time>
</trkpt>
<trkpt lat="45.8576780" lon="9.3017190">
	<ele>895.60</ele>
	<time>2024-03-25T07:37:32.000Z</time>
</trkpt>
<trkpt lat="45.8576800" lon="9.3017340">
	<ele>895.80</ele>
	<time>2024-03-25T07:37:33.000Z</time>
</trkpt>
<trkpt lat="45.8576840" lon="9.3017430">
	<ele>895.80</ele>
	<time>2024-03-25T07:37:34.000Z</time>
</trkpt>
<trkpt lat="45.8576980" lon="9.3017480">
	<ele>896.00</ele>
	<time>2024-03-25T07:37:35.000Z</time>
</trkpt>
<trkpt lat="45.8577070" lon="9.3017580">
	<ele>896.20</ele>
	<time>2024-03-25T07:37:36.000Z</time>
</trkpt>
<trkpt lat="45.8577150" lon="9.3017640">
	<ele>896.40</ele>
	<time>2024-03-25T07:37:37.000Z</time>
</trkpt>
<trkpt lat="45.8577210" lon="9.3017640">
	<ele>896.60</ele>
	<time>2024-03-25T07:37:38.000Z</time>
</trkpt>
<trkpt lat="45.8577260" lon="9.3017650">
	<ele>896.60</ele>
	<time>2024-03-25T07:37:39.000Z</time>
</trkpt>
<trkpt lat="45.8577320" lon="9.3017710">
	<ele>896.80</ele>
	<time>2024-03-25T07:37:40.000Z</time>
</trkpt>
<trkpt lat="45.8577360" lon="9.3017730">
	<ele>896.80</ele>
	<time>2024-03-25T07:37:41.000Z</time>
</trkpt>
<trkpt lat="45.8577360" lon="9.3017710">
	<ele>897.20</ele>
	<time>2024-03-25T07:37:42.000Z</time>
</trkpt>
<trkpt lat="45.8577360" lon="9.3017690">
	<ele>897.40</ele>
	<time>2024-03-25T07:37:43.000Z</time>
</trkpt>
<trkpt lat="45.8577360" lon="9.3017650">
	<ele>897.40</ele>
	<time>2024-03-25T07:37:44.000Z</time>
</trkpt>
<trkpt lat="45.8577410" lon="9.3017630">
	<ele>897.60</ele>
	<time>2024-03-25T07:37:45.000Z</time>
</trkpt>
<trkpt lat="45.8577420" lon="9.3017730">
	<ele>897.80</ele>
	<time>2024-03-25T07:37:46.000Z</time>
</trkpt>
<trkpt lat="45.8577370" lon="9.3017900">
	<ele>897.80</ele>
	<time>2024-03-25T07:37:47.000Z</time>
</trkpt>
<trkpt lat="45.8577320" lon="9.3018110">
	<ele>898.00</ele>
	<time>2024-03-25T07:37:48.000Z</time>
</trkpt>
<trkpt lat="45.8577360" lon="9.3018280">
	<ele>898.00</ele>
	<time>2024-03-25T07:37:49.000Z</time>
</trkpt>
<trkpt lat="45.8577370" lon="9.3018310">
	<ele>898.20</ele>
	<time>2024-03-25T07:37:50.000Z</time>
</trkpt>
<trkpt lat="45.8577340" lon="9.3018470">
	<ele>898.20</ele>
	<time>2024-03-25T07:37:51.000Z</time>
</trkpt>
<trkpt lat="45.8577330" lon="9.3018650">
	<ele>898.40</ele>
	<time>2024-03-25T07:37:52.000Z</time>
</trkpt>
<trkpt lat="45.8577330" lon="9.3018690">
	<ele>898.60</ele>
	<time>2024-03-25T07:37:53.000Z</time>
</trkpt>
<trkpt lat="45.8577250" lon="9.3018770">
	<ele>898.80</ele>
	<time>2024-03-25T07:37:54.000Z</time>
</trkpt>
<trkpt lat="45.8577210" lon="9.3018870">
	<ele>899.00</ele>
	<time>2024-03-25T07:37:55.000Z</time>
</trkpt>
<trkpt lat="45.8577150" lon="9.3019000">
	<ele>899.20</ele>
	<time>2024-03-25T07:37:56.000Z</time>
</trkpt>
<trkpt lat="45.8577100" lon="9.3019120">
	<ele>899.20</ele>
	<time>2024-03-25T07:37:57.000Z</time>
</trkpt>
<trkpt lat="45.8577050" lon="9.3019250">
	<ele>899.40</ele>
	<time>2024-03-25T07:37:58.000Z</time>
</trkpt>
<trkpt lat="45.8577050" lon="9.3019300">
	<ele>899.40</ele>
	<time>2024-03-25T07:37:59.000Z</time>
</trkpt>
<trkpt lat="45.8577040" lon="9.3019270">
	<ele>899.40</ele>
	<time>2024-03-25T07:38:00.000Z</time>
</trkpt>
<trkpt lat="45.8577000" lon="9.3019150">
	<ele>899.40</ele>
	<time>2024-03-25T07:38:01.000Z</time>
</trkpt>
<trkpt lat="45.8576970" lon="9.3019090">
	<ele>899.60</ele>
	<time>2024-03-25T07:38:02.000Z</time>
</trkpt>
<trkpt lat="45.8577010" lon="9.3019030">
	<ele>899.60</ele>
	<time>2024-03-25T07:38:03.000Z</time>
</trkpt>
<trkpt lat="45.8576980" lon="9.3019030">
	<ele>899.60</ele>
	<time>2024-03-25T07:38:04.000Z</time>
</trkpt>
<trkpt lat="45.8577000" lon="9.3019140">
	<ele>899.80</ele>
	<time>2024-03-25T07:38:05.000Z</time>
</trkpt>
<trkpt lat="45.8577020" lon="9.3019310">
	<ele>899.80</ele>
	<time>2024-03-25T07:38:06.000Z</time>
</trkpt>
<trkpt lat="45.8577020" lon="9.3019370">
	<ele>900.00</ele>
	<time>2024-03-25T07:38:07.000Z</time>
</trkpt>
<trkpt lat="45.8577020" lon="9.3019420">
	<ele>900.00</ele>
	<time>2024-03-25T07:38:08.000Z</time>
</trkpt>
<trkpt lat="45.8577020" lon="9.3019550">
	<ele>900.00</ele>
	<time>2024-03-25T07:38:09.000Z</time>
</trkpt>
<trkpt lat="45.8577030" lon="9.3019550">
	<ele>900.20</ele>
	<time>2024-03-25T07:38:10.000Z</time>
</trkpt>
<trkpt lat="45.8577050" lon="9.3019580">
	<ele>900.40</ele>
	<time>2024-03-25T07:38:11.000Z</time>
</trkpt>
<trkpt lat="45.8577060" lon="9.3019580">
	<ele>900.40</ele>
	<time>2024-03-25T07:38:12.000Z</time>
</trkpt>
<trkpt lat="45.8577060" lon="9.3019580">
	<ele>900.60</ele>
	<time>2024-03-25T07:38:13.000Z</time>
</trkpt>
<trkpt lat="45.8577060" lon="9.3019580">
	<ele>900.60</ele>
	<time>2024-03-25T07:38:14.000Z</time>
</trkpt>
<trkpt lat="45.8577060" lon="9.3019580">
	<ele>900.60</ele>
	<time>2024-03-25T07:38:15.000Z</time>
</trkpt>
<trkpt lat="45.8577060" lon="9.3019580">
	<ele>900.80</ele>
	<time>2024-03-25T07:38:16.000Z</time>
</trkpt>
<trkpt lat="45.8577060" lon="9.3019580">
	<ele>900.80</ele>
	<time>2024-03-25T07:38:17.000Z</time>
</trkpt>
<trkpt lat="45.8577060" lon="9.3019580">
	<ele>901.00</ele>
	<time>2024-03-25T07:38:18.000Z</time>
</trkpt>
<trkpt lat="45.8577060" lon="9.3019580">
	<ele>901.00</ele>
	<time>2024-03-25T07:38:19.000Z</time>
</trkpt>
<trkpt lat="45.8577060" lon="9.3019580">
	<ele>901.00</ele>
	<time>2024-03-25T07:38:20.000Z</time>
</trkpt>
<trkpt lat="45.8577060" lon="9.3019580">
	<ele>901.00</ele>
	<time>2024-03-25T07:38:21.000Z</time>
</trkpt>
<trkpt lat="45.8577060" lon="9.3019580">
	<ele>901.00</ele>
	<time>2024-03-25T07:38:22.000Z</time>
</trkpt>
<trkpt lat="45.8577060" lon="9.3019580">
	<ele>900.80</ele>
	<time>2024-03-25T07:38:23.000Z</time>
</trkpt>
<trkpt lat="45.8577060" lon="9.3019580">
	<ele>900.80</ele>
	<time>2024-03-25T07:38:24.000Z</time>
</trkpt>
<trkpt lat="45.8577060" lon="9.3019580">
	<ele>900.80</ele>
	<time>2024-03-25T07:38:25.000Z</time>
</trkpt>
<trkpt lat="45.8577060" lon="9.3019580">
	<ele>901.00</ele>
	<time>2024-03-25T07:38:26.000Z</time>
</trkpt>
<trkpt lat="45.8577050" lon="9.3019580">
	<ele>901.00</ele>
	<time>2024-03-25T07:38:27.000Z</time>
</trkpt>
<trkpt lat="45.8577050" lon="9.3019580">
	<ele>901.60</ele>
	<time>2024-03-25T07:38:28.000Z</time>
</trkpt>
<trkpt lat="45.8577030" lon="9.3019590">
	<ele>901.80</ele>
	<time>2024-03-25T07:38:29.000Z</time>
</trkpt>
<trkpt lat="45.8577020" lon="9.3019680">
	<ele>902.00</ele>
	<time>2024-03-25T07:38:30.000Z</time>
</trkpt>
<trkpt lat="45.8577020" lon="9.3019760">
	<ele>902.00</ele>
	<time>2024-03-25T07:38:31.000Z</time>
</trkpt>
<trkpt lat="45.8577020" lon="9.3019840">
	<ele>902.40</ele>
	<time>2024-03-25T07:38:32.000Z</time>
</trkpt>
<trkpt lat="45.8577020" lon="9.3019860">
	<ele>902.60</ele>
	<time>2024-03-25T07:38:33.000Z</time>
</trkpt>
<trkpt lat="45.8577020" lon="9.3019880">
	<ele>902.60</ele>
	<time>2024-03-25T07:38:34.000Z</time>
</trkpt>
<trkpt lat="45.8577020" lon="9.3019930">
	<ele>902.80</ele>
	<time>2024-03-25T07:38:35.000Z</time>
</trkpt>
<trkpt lat="45.8577010" lon="9.3019930">
	<ele>902.80</ele>
	<time>2024-03-25T07:38:36.000Z</time>
</trkpt>
<trkpt lat="45.8576990" lon="9.3019940">
	<ele>902.80</ele>
	<time>2024-03-25T07:38:37.000Z</time>
</trkpt>
<trkpt lat="45.8576990" lon="9.3020030">
	<ele>903.00</ele>
	<time>2024-03-25T07:38:38.000Z</time>
</trkpt>
<trkpt lat="45.8577030" lon="9.3020180">
	<ele>903.20</ele>
	<time>2024-03-25T07:38:39.000Z</time>
</trkpt>
<trkpt lat="45.8577030" lon="9.3020340">
	<ele>903.20</ele>
	<time>2024-03-25T07:38:40.000Z</time>
</trkpt>
<trkpt lat="45.8577020" lon="9.3020540">
	<ele>903.40</ele>
	<time>2024-03-25T07:38:41.000Z</time>
</trkpt>
<trkpt lat="45.8577030" lon="9.3020810">
	<ele>903.60</ele>
	<time>2024-03-25T07:38:42.000Z</time>
</trkpt>
<trkpt lat="45.8577030" lon="9.3021060">
	<ele>903.80</ele>
	<time>2024-03-25T07:38:43.000Z</time>
</trkpt>
<trkpt lat="45.8577060" lon="9.3021190">
	<ele>904.00</ele>
	<time>2024-03-25T07:38:44.000Z</time>
</trkpt>
<trkpt lat="45.8577110" lon="9.3021360">
	<ele>904.20</ele>
	<time>2024-03-25T07:38:45.000Z</time>
</trkpt>
<trkpt lat="45.8577120" lon="9.3021450">
	<ele>904.20</ele>
	<time>2024-03-25T07:38:46.000Z</time>
</trkpt>
<trkpt lat="45.8577100" lon="9.3021520">
	<ele>904.40</ele>
	<time>2024-03-25T07:38:47.000Z</time>
</trkpt>
<trkpt lat="45.8577040" lon="9.3021610">
	<ele>904.40</ele>
	<time>2024-03-25T07:38:48.000Z</time>
</trkpt>
<trkpt lat="45.8577020" lon="9.3021760">
	<ele>904.60</ele>
	<time>2024-03-25T07:38:49.000Z</time>
</trkpt>
<trkpt lat="45.8577020" lon="9.3021850">
	<ele>904.60</ele>
	<time>2024-03-25T07:38:50.000Z</time>
</trkpt>
<trkpt lat="45.8576970" lon="9.3021960">
	<ele>904.80</ele>
	<time>2024-03-25T07:38:51.000Z</time>
</trkpt>
<trkpt lat="45.8576970" lon="9.3022020">
	<ele>904.80</ele>
	<time>2024-03-25T07:38:52.000Z</time>
</trkpt>
<trkpt lat="45.8576960" lon="9.3022040">
	<ele>905.00</ele>
	<time>2024-03-25T07:38:53.000Z</time>
</trkpt>
<trkpt lat="45.8576950" lon="9.3022070">
	<ele>905.00</ele>
	<time>2024-03-25T07:38:54.000Z</time>
</trkpt>
<trkpt lat="45.8576940" lon="9.3022110">
	<ele>905.20</ele>
	<time>2024-03-25T07:38:55.000Z</time>
</trkpt>
<trkpt lat="45.8576940" lon="9.3022140">
	<ele>905.40</ele>
	<time>2024-03-25T07:38:56.000Z</time>
</trkpt>
<trkpt lat="45.8576960" lon="9.3022250">
	<ele>905.60</ele>
	<time>2024-03-25T07:38:57.000Z</time>
</trkpt>
<trkpt lat="45.8577070" lon="9.3022370">
	<ele>905.80</ele>
	<time>2024-03-25T07:38:58.000Z</time>
</trkpt>
<trkpt lat="45.8577220" lon="9.3022400">
	<ele>906.00</ele>
	<time>2024-03-25T07:38:59.000Z</time>
</trkpt>
<trkpt lat="45.8577370" lon="9.3022540">
	<ele>906.20</ele>
	<time>2024-03-25T07:39:00.000Z</time>
</trkpt>
<trkpt lat="45.8577440" lon="9.3022590">
	<ele>906.40</ele>
	<time>2024-03-25T07:39:01.000Z</time>
</trkpt>
<trkpt lat="45.8577450" lon="9.3022650">
	<ele>906.60</ele>
	<time>2024-03-25T07:39:02.000Z</time>
</trkpt>
<trkpt lat="45.8577420" lon="9.3022660">
	<ele>906.80</ele>
	<time>2024-03-25T07:39:03.000Z</time>
</trkpt>
<trkpt lat="45.8577410" lon="9.3022750">
	<ele>906.80</ele>
	<time>2024-03-25T07:39:04.000Z</time>
</trkpt>
<trkpt lat="45.8577370" lon="9.3022890">
	<ele>907.00</ele>
	<time>2024-03-25T07:39:05.000Z</time>
</trkpt>
<trkpt lat="45.8577340" lon="9.3023060">
	<ele>907.20</ele>
	<time>2024-03-25T07:39:06.000Z</time>
</trkpt>
<trkpt lat="45.8577340" lon="9.3023210">
	<ele>907.20</ele>
	<time>2024-03-25T07:39:07.000Z</time>
</trkpt>
<trkpt lat="45.8577290" lon="9.3023270">
	<ele>907.40</ele>
	<time>2024-03-25T07:39:08.000Z</time>
</trkpt>
<trkpt lat="45.8577280" lon="9.3023370">
	<ele>907.60</ele>
	<time>2024-03-25T07:39:09.000Z</time>
</trkpt>
<trkpt lat="45.8577250" lon="9.3023500">
	<ele>907.60</ele>
	<time>2024-03-25T07:39:10.000Z</time>
</trkpt>
<trkpt lat="45.8577250" lon="9.3023720">
	<ele>907.80</ele>
	<time>2024-03-25T07:39:11.000Z</time>
</trkpt>
<trkpt lat="45.8577220" lon="9.3023770">
	<ele>908.00</ele>
	<time>2024-03-25T07:39:12.000Z</time>
</trkpt>
<trkpt lat="45.8577160" lon="9.3023790">
	<ele>908.20</ele>
	<time>2024-03-25T07:39:13.000Z</time>
</trkpt>
<trkpt lat="45.8577100" lon="9.3023880">
	<ele>908.40</ele>
	<time>2024-03-25T07:39:14.000Z</time>
</trkpt>
<trkpt lat="45.8577060" lon="9.3023940">
	<ele>908.60</ele>
	<time>2024-03-25T07:39:15.000Z</time>
</trkpt>
<trkpt lat="45.8577050" lon="9.3024010">
	<ele>908.80</ele>
	<time>2024-03-25T07:39:16.000Z</time>
</trkpt>
<trkpt lat="45.8577030" lon="9.3024090">
	<ele>909.20</ele>
	<time>2024-03-25T07:39:17.000Z</time>
</trkpt>
<trkpt lat="45.8577040" lon="9.3024190">
	<ele>909.40</ele>
	<time>2024-03-25T07:39:18.000Z</time>
</trkpt>
<trkpt lat="45.8577040" lon="9.3024240">
	<ele>909.60</ele>
	<time>2024-03-25T07:39:19.000Z</time>
</trkpt>
<trkpt lat="45.8577040" lon="9.3024350">
	<ele>909.80</ele>
	<time>2024-03-25T07:39:20.000Z</time>
</trkpt>
<trkpt lat="45.8577020" lon="9.3024590">
	<ele>910.00</ele>
	<time>2024-03-25T07:39:21.000Z</time>
</trkpt>
<trkpt lat="45.8576930" lon="9.3024700">
	<ele>910.20</ele>
	<time>2024-03-25T07:39:22.000Z</time>
</trkpt>
<trkpt lat="45.8576890" lon="9.3024790">
	<ele>910.40</ele>
	<time>2024-03-25T07:39:23.000Z</time>
</trkpt>
<trkpt lat="45.8576830" lon="9.3024960">
	<ele>910.60</ele>
	<time>2024-03-25T07:39:24.000Z</time>
</trkpt>
<trkpt lat="45.8576850" lon="9.3025110">
	<ele>910.80</ele>
	<time>2024-03-25T07:39:25.000Z</time>
</trkpt>
<trkpt lat="45.8576860" lon="9.3025270">
	<ele>911.00</ele>
	<time>2024-03-25T07:39:26.000Z</time>
</trkpt>
<trkpt lat="45.8576890" lon="9.3025430">
	<ele>911.20</ele>
	<time>2024-03-25T07:39:27.000Z</time>
</trkpt>
<trkpt lat="45.8576920" lon="9.3025540">
	<ele>911.40</ele>
	<time>2024-03-25T07:39:28.000Z</time>
</trkpt>
<trkpt lat="45.8576940" lon="9.3025680">
	<ele>911.60</ele>
	<time>2024-03-25T07:39:29.000Z</time>
</trkpt>
<trkpt lat="45.8576990" lon="9.3025890">
	<ele>911.60</ele>
	<time>2024-03-25T07:39:30.000Z</time>
</trkpt>
<trkpt lat="45.8577060" lon="9.3026070">
	<ele>911.80</ele>
	<time>2024-03-25T07:39:31.000Z</time>
</trkpt>
<trkpt lat="45.8577110" lon="9.3026210">
	<ele>912.20</ele>
	<time>2024-03-25T07:39:32.000Z</time>
</trkpt>
<trkpt lat="45.8577140" lon="9.3026350">
	<ele>912.40</ele>
	<time>2024-03-25T07:39:33.000Z</time>
</trkpt>
<trkpt lat="45.8577170" lon="9.3026450">
	<ele>912.60</ele>
	<time>2024-03-25T07:39:34.000Z</time>
</trkpt>
<trkpt lat="45.8577210" lon="9.3026510">
	<ele>912.80</ele>
	<time>2024-03-25T07:39:35.000Z</time>
</trkpt>
<trkpt lat="45.8577250" lon="9.3026550">
	<ele>913.00</ele>
	<time>2024-03-25T07:39:36.000Z</time>
</trkpt>
<trkpt lat="45.8577310" lon="9.3026620">
	<ele>913.00</ele>
	<time>2024-03-25T07:39:37.000Z</time>
</trkpt>
<trkpt lat="45.8577350" lon="9.3026660">
	<ele>913.00</ele>
	<time>2024-03-25T07:39:38.000Z</time>
</trkpt>
<trkpt lat="45.8577370" lon="9.3026800">
	<ele>913.20</ele>
	<time>2024-03-25T07:39:39.000Z</time>
</trkpt>
<trkpt lat="45.8577370" lon="9.3026850">
	<ele>913.60</ele>
	<time>2024-03-25T07:39:40.000Z</time>
</trkpt>
<trkpt lat="45.8577390" lon="9.3026910">
	<ele>913.60</ele>
	<time>2024-03-25T07:39:41.000Z</time>
</trkpt>
<trkpt lat="45.8577430" lon="9.3026980">
	<ele>913.80</ele>
	<time>2024-03-25T07:39:42.000Z</time>
</trkpt>
<trkpt lat="45.8577460" lon="9.3027100">
	<ele>914.00</ele>
	<time>2024-03-25T07:39:43.000Z</time>
</trkpt>
<trkpt lat="45.8577480" lon="9.3027120">
	<ele>914.00</ele>
	<time>2024-03-25T07:39:44.000Z</time>
</trkpt>
<trkpt lat="45.8577400" lon="9.3027320">
	<ele>914.20</ele>
	<time>2024-03-25T07:39:45.000Z</time>
</trkpt>
<trkpt lat="45.8577430" lon="9.3027560">
	<ele>914.20</ele>
	<time>2024-03-25T07:39:46.000Z</time>
</trkpt>
<trkpt lat="45.8577580" lon="9.3027730">
	<ele>914.20</ele>
	<time>2024-03-25T07:39:47.000Z</time>
</trkpt>
<trkpt lat="45.8577700" lon="9.3027850">
	<ele>914.20</ele>
	<time>2024-03-25T07:39:48.000Z</time>
</trkpt>
<trkpt lat="45.8577790" lon="9.3027990">
	<ele>914.40</ele>
	<time>2024-03-25T07:39:49.000Z</time>
</trkpt>
<trkpt lat="45.8577830" lon="9.3028060">
	<ele>914.40</ele>
	<time>2024-03-25T07:39:50.000Z</time>
</trkpt>
<trkpt lat="45.8577830" lon="9.3028070">
	<ele>914.60</ele>
	<time>2024-03-25T07:39:51.000Z</time>
</trkpt>
<trkpt lat="45.8577750" lon="9.3028200">
	<ele>914.80</ele>
	<time>2024-03-25T07:39:52.000Z</time>
</trkpt>
<trkpt lat="45.8577750" lon="9.3028310">
	<ele>914.80</ele>
	<time>2024-03-25T07:39:53.000Z</time>
</trkpt>
<trkpt lat="45.8577730" lon="9.3028520">
	<ele>915.00</ele>
	<time>2024-03-25T07:39:54.000Z</time>
</trkpt>
<trkpt lat="45.8577720" lon="9.3028530">
	<ele>915.00</ele>
	<time>2024-03-25T07:39:55.000Z</time>
</trkpt>
<trkpt lat="45.8577770" lon="9.3028600">
	<ele>915.20</ele>
	<time>2024-03-25T07:39:56.000Z</time>
</trkpt>
<trkpt lat="45.8577830" lon="9.3028680">
	<ele>915.40</ele>
	<time>2024-03-25T07:39:57.000Z</time>
</trkpt>
<trkpt lat="45.8577830" lon="9.3028730">
	<ele>915.40</ele>
	<time>2024-03-25T07:39:58.000Z</time>
</trkpt>
<trkpt lat="45.8577850" lon="9.3028730">
	<ele>915.40</ele>
	<time>2024-03-25T07:39:59.000Z</time>
</trkpt>
<trkpt lat="45.8577820" lon="9.3028840">
	<ele>915.60</ele>
	<time>2024-03-25T07:40:00.000Z</time>
</trkpt>
<trkpt lat="45.8577890" lon="9.3028970">
	<ele>915.60</ele>
	<time>2024-03-25T07:40:01.000Z</time>
</trkpt>
<trkpt lat="45.8578000" lon="9.3029180">
	<ele>915.80</ele>
	<time>2024-03-25T07:40:02.000Z</time>
</trkpt>
<trkpt lat="45.8578090" lon="9.3029270">
	<ele>915.80</ele>
	<time>2024-03-25T07:40:03.000Z</time>
</trkpt>
<trkpt lat="45.8578230" lon="9.3029300">
	<ele>916.00</ele>
	<time>2024-03-25T07:40:04.000Z</time>
</trkpt>
<trkpt lat="45.8578340" lon="9.3029340">
	<ele>916.20</ele>
	<time>2024-03-25T07:40:05.000Z</time>
</trkpt>
<trkpt lat="45.8578380" lon="9.3029390">
	<ele>916.40</ele>
	<time>2024-03-25T07:40:06.000Z</time>
</trkpt>
<trkpt lat="45.8578420" lon="9.3029510">
	<ele>916.60</ele>
	<time>2024-03-25T07:40:07.000Z</time>
</trkpt>
<trkpt lat="45.8578460" lon="9.3029590">
	<ele>916.60</ele>
	<time>2024-03-25T07:40:08.000Z</time>
</trkpt>
<trkpt lat="45.8578570" lon="9.3029670">
	<ele>916.80</ele>
	<time>2024-03-25T07:40:09.000Z</time>
</trkpt>
<trkpt lat="45.8578610" lon="9.3029730">
	<ele>917.00</ele>
	<time>2024-03-25T07:40:10.000Z</time>
</trkpt>
<trkpt lat="45.8578620" lon="9.3029840">
	<ele>917.20</ele>
	<time>2024-03-25T07:40:11.000Z</time>
</trkpt>
<trkpt lat="45.8578620" lon="9.3029930">
	<ele>917.20</ele>
	<time>2024-03-25T07:40:12.000Z</time>
</trkpt>
<trkpt lat="45.8578600" lon="9.3030010">
	<ele>917.60</ele>
	<time>2024-03-25T07:40:13.000Z</time>
</trkpt>
<trkpt lat="45.8578540" lon="9.3030120">
	<ele>917.60</ele>
	<time>2024-03-25T07:40:14.000Z</time>
</trkpt>
<trkpt lat="45.8578540" lon="9.3030180">
	<ele>917.80</ele>
	<time>2024-03-25T07:40:15.000Z</time>
</trkpt>
<trkpt lat="45.8578530" lon="9.3030270">
	<ele>918.00</ele>
	<time>2024-03-25T07:40:16.000Z</time>
</trkpt>
<trkpt lat="45.8578570" lon="9.3030400">
	<ele>918.20</ele>
	<time>2024-03-25T07:40:17.000Z</time>
</trkpt>
<trkpt lat="45.8578560" lon="9.3030500">
	<ele>918.40</ele>
	<time>2024-03-25T07:40:18.000Z</time>
</trkpt>
<trkpt lat="45.8578610" lon="9.3030610">
	<ele>918.60</ele>
	<time>2024-03-25T07:40:19.000Z</time>
</trkpt>
<trkpt lat="45.8578690" lon="9.3030650">
	<ele>918.80</ele>
	<time>2024-03-25T07:40:20.000Z</time>
</trkpt>
<trkpt lat="45.8578760" lon="9.3030790">
	<ele>918.80</ele>
	<time>2024-03-25T07:40:21.000Z</time>
</trkpt>
<trkpt lat="45.8578760" lon="9.3030880">
	<ele>918.80</ele>
	<time>2024-03-25T07:40:22.000Z</time>
</trkpt>
<trkpt lat="45.8578760" lon="9.3030990">
	<ele>919.00</ele>
	<time>2024-03-25T07:40:23.000Z</time>
</trkpt>
<trkpt lat="45.8578750" lon="9.3031050">
	<ele>919.00</ele>
	<time>2024-03-25T07:40:24.000Z</time>
</trkpt>
<trkpt lat="45.8578720" lon="9.3031070">
	<ele>919.20</ele>
	<time>2024-03-25T07:40:25.000Z</time>
</trkpt>
<trkpt lat="45.8578750" lon="9.3031260">
	<ele>919.20</ele>
	<time>2024-03-25T07:40:26.000Z</time>
</trkpt>
<trkpt lat="45.8578770" lon="9.3031380">
	<ele>919.40</ele>
	<time>2024-03-25T07:40:27.000Z</time>
</trkpt>
<trkpt lat="45.8578740" lon="9.3031430">
	<ele>919.40</ele>
	<time>2024-03-25T07:40:28.000Z</time>
</trkpt>
<trkpt lat="45.8578760" lon="9.3031490">
	<ele>919.60</ele>
	<time>2024-03-25T07:40:29.000Z</time>
</trkpt>
<trkpt lat="45.8578790" lon="9.3031530">
	<ele>919.80</ele>
	<time>2024-03-25T07:40:30.000Z</time>
</trkpt>
<trkpt lat="45.8578740" lon="9.3031640">
	<ele>920.20</ele>
	<time>2024-03-25T07:40:31.000Z</time>
</trkpt>
<trkpt lat="45.8578760" lon="9.3031670">
	<ele>920.40</ele>
	<time>2024-03-25T07:40:32.000Z</time>
</trkpt>
<trkpt lat="45.8578800" lon="9.3031720">
	<ele>920.60</ele>
	<time>2024-03-25T07:40:33.000Z</time>
</trkpt>
<trkpt lat="45.8578850" lon="9.3031810">
	<ele>920.80</ele>
	<time>2024-03-25T07:40:34.000Z</time>
</trkpt>
<trkpt lat="45.8578910" lon="9.3031860">
	<ele>920.80</ele>
	<time>2024-03-25T07:40:35.000Z</time>
</trkpt>
<trkpt lat="45.8578940" lon="9.3031920">
	<ele>920.80</ele>
	<time>2024-03-25T07:40:36.000Z</time>
</trkpt>
<trkpt lat="45.8578950" lon="9.3032020">
	<ele>921.00</ele>
	<time>2024-03-25T07:40:37.000Z</time>
</trkpt>
<trkpt lat="45.8578990" lon="9.3032130">
	<ele>921.00</ele>
	<time>2024-03-25T07:40:38.000Z</time>
</trkpt>
<trkpt lat="45.8579060" lon="9.3032260">
	<ele>921.20</ele>
	<time>2024-03-25T07:40:39.000Z</time>
</trkpt>
<trkpt lat="45.8579160" lon="9.3032370">
	<ele>921.40</ele>
	<time>2024-03-25T07:40:40.000Z</time>
</trkpt>
<trkpt lat="45.8579180" lon="9.3032480">
	<ele>921.40</ele>
	<time>2024-03-25T07:40:41.000Z</time>
</trkpt>
<trkpt lat="45.8579230" lon="9.3032600">
	<ele>921.60</ele>
	<time>2024-03-25T07:40:42.000Z</time>
</trkpt>
<trkpt lat="45.8579290" lon="9.3032770">
	<ele>921.60</ele>
	<time>2024-03-25T07:40:43.000Z</time>
</trkpt>
<trkpt lat="45.8579310" lon="9.3032860">
	<ele>921.80</ele>
	<time>2024-03-25T07:40:44.000Z</time>
</trkpt>
<trkpt lat="45.8579320" lon="9.3032900">
	<ele>922.00</ele>
	<time>2024-03-25T07:40:45.000Z</time>
</trkpt>
<trkpt lat="45.8579330" lon="9.3032950">
	<ele>922.20</ele>
	<time>2024-03-25T07:40:46.000Z</time>
</trkpt>
<trkpt lat="45.8579360" lon="9.3032980">
	<ele>922.40</ele>
	<time>2024-03-25T07:40:47.000Z</time>
</trkpt>
<trkpt lat="45.8579410" lon="9.3033060">
	<ele>922.40</ele>
	<time>2024-03-25T07:40:48.000Z</time>
</trkpt>
<trkpt lat="45.8579440" lon="9.3033180">
	<ele>922.40</ele>
	<time>2024-03-25T07:40:49.000Z</time>
</trkpt>
<trkpt lat="45.8579470" lon="9.3033320">
	<ele>922.60</ele>
	<time>2024-03-25T07:40:50.000Z</time>
</trkpt>
<trkpt lat="45.8579490" lon="9.3033430">
	<ele>922.60</ele>
	<time>2024-03-25T07:40:51.000Z</time>
</trkpt>
<trkpt lat="45.8579500" lon="9.3033570">
	<ele>922.60</ele>
	<time>2024-03-25T07:40:52.000Z</time>
</trkpt>
<trkpt lat="45.8579520" lon="9.3033640">
	<ele>922.60</ele>
	<time>2024-03-25T07:40:53.000Z</time>
</trkpt>
<trkpt lat="45.8579560" lon="9.3033700">
	<ele>922.80</ele>
	<time>2024-03-25T07:40:54.000Z</time>
</trkpt>
<trkpt lat="45.8579630" lon="9.3033730">
	<ele>922.80</ele>
	<time>2024-03-25T07:40:55.000Z</time>
</trkpt>
<trkpt lat="45.8579680" lon="9.3033880">
	<ele>923.00</ele>
	<time>2024-03-25T07:40:56.000Z</time>
</trkpt>
<trkpt lat="45.8579770" lon="9.3033960">
	<ele>923.00</ele>
	<time>2024-03-25T07:40:57.000Z</time>
</trkpt>
<trkpt lat="45.8579810" lon="9.3034070">
	<ele>923.40</ele>
	<time>2024-03-25T07:40:58.000Z</time>
</trkpt>
<trkpt lat="45.8579770" lon="9.3034150">
	<ele>923.60</ele>
	<time>2024-03-25T07:40:59.000Z</time>
</trkpt>
<trkpt lat="45.8579730" lon="9.3034150">
	<ele>923.80</ele>
	<time>2024-03-25T07:41:00.000Z</time>
</trkpt>
<trkpt lat="45.8579770" lon="9.3034190">
	<ele>923.80</ele>
	<time>2024-03-25T07:41:01.000Z</time>
</trkpt>
<trkpt lat="45.8579790" lon="9.3034160">
	<ele>923.80</ele>
	<time>2024-03-25T07:41:02.000Z</time>
</trkpt>
<trkpt lat="45.8579780" lon="9.3034200">
	<ele>924.00</ele>
	<time>2024-03-25T07:41:03.000Z</time>
</trkpt>
<trkpt lat="45.8579750" lon="9.3034320">
	<ele>924.20</ele>
	<time>2024-03-25T07:41:04.000Z</time>
</trkpt>
<trkpt lat="45.8579750" lon="9.3034340">
	<ele>924.40</ele>
	<time>2024-03-25T07:41:05.000Z</time>
</trkpt>
<trkpt lat="45.8579770" lon="9.3034540">
	<ele>924.60</ele>
	<time>2024-03-25T07:41:06.000Z</time>
</trkpt>
<trkpt lat="45.8579790" lon="9.3034560">
	<ele>925.00</ele>
	<time>2024-03-25T07:41:07.000Z</time>
</trkpt>
<trkpt lat="45.8579820" lon="9.3034560">
	<ele>925.20</ele>
	<time>2024-03-25T07:41:08.000Z</time>
</trkpt>
<trkpt lat="45.8579920" lon="9.3034580">
	<ele>925.60</ele>
	<time>2024-03-25T07:41:09.000Z</time>
</trkpt>
<trkpt lat="45.8580030" lon="9.3034620">
	<ele>925.80</ele>
	<time>2024-03-25T07:41:10.000Z</time>
</trkpt>
<trkpt lat="45.8580060" lon="9.3034640">
	<ele>926.20</ele>
	<time>2024-03-25T07:41:11.000Z</time>
</trkpt>
<trkpt lat="45.8580220" lon="9.3034780">
	<ele>926.20</ele>
	<time>2024-03-25T07:41:12.000Z</time>
</trkpt>
<trkpt lat="45.8580330" lon="9.3034860">
	<ele>926.60</ele>
	<time>2024-03-25T07:41:13.000Z</time>
</trkpt>
<trkpt lat="45.8580410" lon="9.3035000">
	<ele>926.80</ele>
	<time>2024-03-25T07:41:14.000Z</time>
</trkpt>
<trkpt lat="45.8580490" lon="9.3035150">
	<ele>926.80</ele>
	<time>2024-03-25T07:41:15.000Z</time>
</trkpt>
<trkpt lat="45.8580540" lon="9.3035220">
	<ele>926.80</ele>
	<time>2024-03-25T07:41:16.000Z</time>
</trkpt>
<trkpt lat="45.8580620" lon="9.3035270">
	<ele>927.00</ele>
	<time>2024-03-25T07:41:17.000Z</time>
</trkpt>
<trkpt lat="45.8580710" lon="9.3035280">
	<ele>927.20</ele>
	<time>2024-03-25T07:41:18.000Z</time>
</trkpt>
<trkpt lat="45.8580800" lon="9.3035260">
	<ele>927.60</ele>
	<time>2024-03-25T07:41:19.000Z</time>
</trkpt>
<trkpt lat="45.8580930" lon="9.3035290">
	<ele>927.80</ele>
	<time>2024-03-25T07:41:20.000Z</time>
</trkpt>
<trkpt lat="45.8581040" lon="9.3035310">
	<ele>928.00</ele>
	<time>2024-03-25T07:41:21.000Z</time>
</trkpt>
<trkpt lat="45.8581060" lon="9.3035260">
	<ele>928.20</ele>
	<time>2024-03-25T07:41:22.000Z</time>
</trkpt>
<trkpt lat="45.8581140" lon="9.3035260">
	<ele>928.20</ele>
	<time>2024-03-25T07:41:23.000Z</time>
</trkpt>
<trkpt lat="45.8581170" lon="9.3035230">
	<ele>928.20</ele>
	<time>2024-03-25T07:41:24.000Z</time>
</trkpt>
<trkpt lat="45.8581210" lon="9.3035210">
	<ele>928.40</ele>
	<time>2024-03-25T07:41:25.000Z</time>
</trkpt>
<trkpt lat="45.8581240" lon="9.3035220">
	<ele>928.40</ele>
	<time>2024-03-25T07:41:26.000Z</time>
</trkpt>
<trkpt lat="45.8581260" lon="9.3035250">
	<ele>928.40</ele>
	<time>2024-03-25T07:41:27.000Z</time>
</trkpt>
<trkpt lat="45.8581340" lon="9.3035320">
	<ele>928.60</ele>
	<time>2024-03-25T07:41:28.000Z</time>
</trkpt>
<trkpt lat="45.8581430" lon="9.3035380">
	<ele>928.80</ele>
	<time>2024-03-25T07:41:29.000Z</time>
</trkpt>
<trkpt lat="45.8581520" lon="9.3035410">
	<ele>929.00</ele>
	<time>2024-03-25T07:41:30.000Z</time>
</trkpt>
<trkpt lat="45.8581530" lon="9.3035370">
	<ele>929.20</ele>
	<time>2024-03-25T07:41:31.000Z</time>
</trkpt>
<trkpt lat="45.8581580" lon="9.3035290">
	<ele>929.40</ele>
	<time>2024-03-25T07:41:32.000Z</time>
</trkpt>
<trkpt lat="45.8581640" lon="9.3035220">
	<ele>929.60</ele>
	<time>2024-03-25T07:41:33.000Z</time>
</trkpt>
<trkpt lat="45.8581710" lon="9.3035210">
	<ele>929.80</ele>
	<time>2024-03-25T07:41:34.000Z</time>
</trkpt>
<trkpt lat="45.8581780" lon="9.3035290">
	<ele>930.00</ele>
	<time>2024-03-25T07:41:35.000Z</time>
</trkpt>
<trkpt lat="45.8581850" lon="9.3035390">
	<ele>930.00</ele>
	<time>2024-03-25T07:41:36.000Z</time>
</trkpt>
<trkpt lat="45.8581930" lon="9.3035450">
	<ele>930.20</ele>
	<time>2024-03-25T07:41:37.000Z</time>
</trkpt>
<trkpt lat="45.8581950" lon="9.3035480">
	<ele>930.40</ele>
	<time>2024-03-25T07:41:38.000Z</time>
</trkpt>
<trkpt lat="45.8582010" lon="9.3035550">
	<ele>930.60</ele>
	<time>2024-03-25T07:41:39.000Z</time>
</trkpt>
<trkpt lat="45.8582060" lon="9.3035610">
	<ele>930.80</ele>
	<time>2024-03-25T07:41:40.000Z</time>
</trkpt>
<trkpt lat="45.8582170" lon="9.3035640">
	<ele>930.80</ele>
	<time>2024-03-25T07:41:41.000Z</time>
</trkpt>
<trkpt lat="45.8582210" lon="9.3035650">
	<ele>931.20</ele>
	<time>2024-03-25T07:41:42.000Z</time>
</trkpt>
<trkpt lat="45.8582260" lon="9.3035620">
	<ele>931.40</ele>
	<time>2024-03-25T07:41:43.000Z</time>
</trkpt>
<trkpt lat="45.8582300" lon="9.3035650">
	<ele>931.60</ele>
	<time>2024-03-25T07:41:44.000Z</time>
</trkpt>
<trkpt lat="45.8582400" lon="9.3035680">
	<ele>932.00</ele>
	<time>2024-03-25T07:41:45.000Z</time>
</trkpt>
<trkpt lat="45.8582440" lon="9.3035710">
	<ele>932.20</ele>
	<time>2024-03-25T07:41:46.000Z</time>
</trkpt>
<trkpt lat="45.8582470" lon="9.3035710">
	<ele>932.20</ele>
	<time>2024-03-25T07:41:47.000Z</time>
</trkpt>
<trkpt lat="45.8582480" lon="9.3035680">
	<ele>932.40</ele>
	<time>2024-03-25T07:41:48.000Z</time>
</trkpt>
<trkpt lat="45.8582480" lon="9.3035670">
	<ele>932.60</ele>
	<time>2024-03-25T07:41:49.000Z</time>
</trkpt>
<trkpt lat="45.8582480" lon="9.3035670">
	<ele>932.60</ele>
	<time>2024-03-25T07:41:50.000Z</time>
</trkpt>
<trkpt lat="45.8582540" lon="9.3035680">
	<ele>932.80</ele>
	<time>2024-03-25T07:41:51.000Z</time>
</trkpt>
<trkpt lat="45.8582610" lon="9.3035730">
	<ele>932.80</ele>
	<time>2024-03-25T07:41:52.000Z</time>
</trkpt>
<trkpt lat="45.8582700" lon="9.3035750">
	<ele>933.00</ele>
	<time>2024-03-25T07:41:53.000Z</time>
</trkpt>
<trkpt lat="45.8582800" lon="9.3035760">
	<ele>933.00</ele>
	<time>2024-03-25T07:41:54.000Z</time>
</trkpt>
<trkpt lat="45.8582920" lon="9.3035780">
	<ele>933.20</ele>
	<time>2024-03-25T07:41:55.000Z</time>
</trkpt>
<trkpt lat="45.8582930" lon="9.3035750">
	<ele>933.40</ele>
	<time>2024-03-25T07:41:56.000Z</time>
</trkpt>
<trkpt lat="45.8582980" lon="9.3035760">
	<ele>933.60</ele>
	<time>2024-03-25T07:41:57.000Z</time>
</trkpt>
<trkpt lat="45.8583040" lon="9.3035760">
	<ele>933.80</ele>
	<time>2024-03-25T07:41:58.000Z</time>
</trkpt>
<trkpt lat="45.8583140" lon="9.3035730">
	<ele>934.00</ele>
	<time>2024-03-25T07:41:59.000Z</time>
</trkpt>
<trkpt lat="45.8583270" lon="9.3035770">
	<ele>934.00</ele>
	<time>2024-03-25T07:42:00.000Z</time>
</trkpt>
<trkpt lat="45.8583310" lon="9.3035720">
	<ele>934.00</ele>
	<time>2024-03-25T07:42:01.000Z</time>
</trkpt>
<trkpt lat="45.8583340" lon="9.3035650">
	<ele>934.20</ele>
	<time>2024-03-25T07:42:02.000Z</time>
</trkpt>
<trkpt lat="45.8583360" lon="9.3035580">
	<ele>934.60</ele>
	<time>2024-03-25T07:42:03.000Z</time>
</trkpt>
<trkpt lat="45.8583370" lon="9.3035530">
	<ele>934.80</ele>
	<time>2024-03-25T07:42:04.000Z</time>
</trkpt>
<trkpt lat="45.8583480" lon="9.3035590">
	<ele>934.80</ele>
	<time>2024-03-25T07:42:05.000Z</time>
</trkpt>
<trkpt lat="45.8583580" lon="9.3035540">
	<ele>935.00</ele>
	<time>2024-03-25T07:42:06.000Z</time>
</trkpt>
<trkpt lat="45.8583680" lon="9.3035470">
	<ele>935.00</ele>
	<time>2024-03-25T07:42:07.000Z</time>
</trkpt>
<trkpt lat="45.8583770" lon="9.3035480">
	<ele>935.20</ele>
	<time>2024-03-25T07:42:08.000Z</time>
</trkpt>
<trkpt lat="45.8583800" lon="9.3035480">
	<ele>935.00</ele>
	<time>2024-03-25T07:42:09.000Z</time>
</trkpt>
<trkpt lat="45.8583850" lon="9.3035500">
	<ele>935.00</ele>
	<time>2024-03-25T07:42:10.000Z</time>
</trkpt>
<trkpt lat="45.8583900" lon="9.3035530">
	<ele>935.00</ele>
	<time>2024-03-25T07:42:11.000Z</time>
</trkpt>
<trkpt lat="45.8583970" lon="9.3035610">
	<ele>935.20</ele>
	<time>2024-03-25T07:42:12.000Z</time>
</trkpt>
<trkpt lat="45.8584060" lon="9.3035680">
	<ele>935.20</ele>
	<time>2024-03-25T07:42:13.000Z</time>
</trkpt>
<trkpt lat="45.8584170" lon="9.3035750">
	<ele>935.40</ele>
	<time>2024-03-25T07:42:14.000Z</time>
</trkpt>
<trkpt lat="45.8584320" lon="9.3035870">
	<ele>935.80</ele>
	<time>2024-03-25T07:42:15.000Z</time>
</trkpt>
<trkpt lat="45.8584340" lon="9.3035850">
	<ele>936.00</ele>
	<time>2024-03-25T07:42:16.000Z</time>
</trkpt>
<trkpt lat="45.8584350" lon="9.3035810">
	<ele>936.20</ele>
	<time>2024-03-25T07:42:17.000Z</time>
</trkpt>
<trkpt lat="45.8584390" lon="9.3035860">
	<ele>936.20</ele>
	<time>2024-03-25T07:42:18.000Z</time>
</trkpt>
<trkpt lat="45.8584460" lon="9.3035960">
	<ele>936.20</ele>
	<time>2024-03-25T07:42:19.000Z</time>
</trkpt>
<trkpt lat="45.8584490" lon="9.3035980">
	<ele>936.20</ele>
	<time>2024-03-25T07:42:20.000Z</time>
</trkpt>
<trkpt lat="45.8584530" lon="9.3035960">
	<ele>936.00</ele>
	<time>2024-03-25T07:42:21.000Z</time>
</trkpt>
<trkpt lat="45.8584540" lon="9.3035950">
	<ele>936.00</ele>
	<time>2024-03-25T07:42:22.000Z</time>
</trkpt>
<trkpt lat="45.8584560" lon="9.3035950">
	<ele>936.00</ele>
	<time>2024-03-25T07:42:23.000Z</time>
</trkpt>
<trkpt lat="45.8584680" lon="9.3036140">
	<ele>936.20</ele>
	<time>2024-03-25T07:42:24.000Z</time>
</trkpt>
<trkpt lat="45.8584760" lon="9.3036230">
	<ele>936.20</ele>
	<time>2024-03-25T07:42:25.000Z</time>
</trkpt>
<trkpt lat="45.8584780" lon="9.3036270">
	<ele>936.40</ele>
	<time>2024-03-25T07:42:26.000Z</time>
</trkpt>
<trkpt lat="45.8584770" lon="9.3036310">
	<ele>936.40</ele>
	<time>2024-03-25T07:42:27.000Z</time>
</trkpt>
<trkpt lat="45.8584770" lon="9.3036310">
	<ele>936.40</ele>
	<time>2024-03-25T07:42:28.000Z</time>
</trkpt>
<trkpt lat="45.8584870" lon="9.3036450">
	<ele>936.40</ele>
	<time>2024-03-25T07:42:29.000Z</time>
</trkpt>
<trkpt lat="45.8584900" lon="9.3036500">
	<ele>936.40</ele>
	<time>2024-03-25T07:42:30.000Z</time>
</trkpt>
<trkpt lat="45.8584910" lon="9.3036520">
	<ele>936.40</ele>
	<time>2024-03-25T07:42:31.000Z</time>
</trkpt>
<trkpt lat="45.8584990" lon="9.3036660">
	<ele>936.40</ele>
	<time>2024-03-25T07:42:32.000Z</time>
</trkpt>
<trkpt lat="45.8585080" lon="9.3036850">
	<ele>936.40</ele>
	<time>2024-03-25T07:42:33.000Z</time>
</trkpt>
<trkpt lat="45.8585170" lon="9.3036950">
	<ele>936.20</ele>
	<time>2024-03-25T07:42:34.000Z</time>
</trkpt>
<trkpt lat="45.8585180" lon="9.3036970">
	<ele>936.20</ele>
	<time>2024-03-25T07:42:35.000Z</time>
</trkpt>
<trkpt lat="45.8585210" lon="9.3037010">
	<ele>936.20</ele>
	<time>2024-03-25T07:42:36.000Z</time>
</trkpt>
<trkpt lat="45.8585270" lon="9.3037070">
	<ele>936.20</ele>
	<time>2024-03-25T07:42:37.000Z</time>
</trkpt>
<trkpt lat="45.8585350" lon="9.3037110">
	<ele>936.20</ele>
	<time>2024-03-25T07:42:38.000Z</time>
</trkpt>
<trkpt lat="45.8585430" lon="9.3037240">
	<ele>936.20</ele>
	<time>2024-03-25T07:42:39.000Z</time>
</trkpt>
<trkpt lat="45.8585510" lon="9.3037340">
	<ele>936.20</ele>
	<time>2024-03-25T07:42:40.000Z</time>
</trkpt>
<trkpt lat="45.8585610" lon="9.3037410">
	<ele>936.40</ele>
	<time>2024-03-25T07:42:41.000Z</time>
</trkpt>
<trkpt lat="45.8585690" lon="9.3037440">
	<ele>936.60</ele>
	<time>2024-03-25T07:42:42.000Z</time>
</trkpt>
<trkpt lat="45.8585700" lon="9.3037420">
	<ele>936.80</ele>
	<time>2024-03-25T07:42:43.000Z</time>
</trkpt>
<trkpt lat="45.8585700" lon="9.3037370">
	<ele>937.00</ele>
	<time>2024-03-25T07:42:44.000Z</time>
</trkpt>
<trkpt lat="45.8585700" lon="9.3037360">
	<ele>937.20</ele>
	<time>2024-03-25T07:42:45.000Z</time>
</trkpt>
<trkpt lat="45.8585750" lon="9.3037350">
	<ele>937.40</ele>
	<time>2024-03-25T07:42:46.000Z</time>
</trkpt>
<trkpt lat="45.8585800" lon="9.3037350">
	<ele>937.60</ele>
	<time>2024-03-25T07:42:47.000Z</time>
</trkpt>
<trkpt lat="45.8585840" lon="9.3037350">
	<ele>937.80</ele>
	<time>2024-03-25T07:42:48.000Z</time>
</trkpt>
<trkpt lat="45.8585860" lon="9.3037310">
	<ele>938.00</ele>
	<time>2024-03-25T07:42:49.000Z</time>
</trkpt>
<trkpt lat="45.8585920" lon="9.3037250">
	<ele>938.20</ele>
	<time>2024-03-25T07:42:50.000Z</time>
</trkpt>
<trkpt lat="45.8585950" lon="9.3037270">
	<ele>938.40</ele>
	<time>2024-03-25T07:42:51.000Z</time>
</trkpt>
<trkpt lat="45.8585980" lon="9.3037320">
	<ele>938.40</ele>
	<time>2024-03-25T07:42:52.000Z</time>
</trkpt>
<trkpt lat="45.8586000" lon="9.3037290">
	<ele>938.60</ele>
	<time>2024-03-25T07:42:53.000Z</time>
</trkpt>
<trkpt lat="45.8586040" lon="9.3037290">
	<ele>938.80</ele>
	<time>2024-03-25T07:42:54.000Z</time>
</trkpt>
<trkpt lat="45.8586060" lon="9.3037340">
	<ele>938.80</ele>
	<time>2024-03-25T07:42:55.000Z</time>
</trkpt>
<trkpt lat="45.8586150" lon="9.3037320">
	<ele>939.00</ele>
	<time>2024-03-25T07:42:56.000Z</time>
</trkpt>
<trkpt lat="45.8586290" lon="9.3037310">
	<ele>939.40</ele>
	<time>2024-03-25T07:42:57.000Z</time>
</trkpt>
<trkpt lat="45.8586360" lon="9.3037200">
	<ele>939.60</ele>
	<time>2024-03-25T07:42:58.000Z</time>
</trkpt>
<trkpt lat="45.8586410" lon="9.3037150">
	<ele>939.80</ele>
	<time>2024-03-25T07:42:59.000Z</time>
</trkpt>
<trkpt lat="45.8586460" lon="9.3037220">
	<ele>939.80</ele>
	<time>2024-03-25T07:43:00.000Z</time>
</trkpt>
<trkpt lat="45.8586520" lon="9.3037310">
	<ele>940.00</ele>
	<time>2024-03-25T07:43:01.000Z</time>
</trkpt>
<trkpt lat="45.8586530" lon="9.3037330">
	<ele>940.00</ele>
	<time>2024-03-25T07:43:02.000Z</time>
</trkpt>
<trkpt lat="45.8586550" lon="9.3037330">
	<ele>940.20</ele>
	<time>2024-03-25T07:43:03.000Z</time>
</trkpt>
<trkpt lat="45.8586640" lon="9.3037400">
	<ele>940.20</ele>
	<time>2024-03-25T07:43:04.000Z</time>
</trkpt>
<trkpt lat="45.8586680" lon="9.3037420">
	<ele>940.40</ele>
	<time>2024-03-25T07:43:05.000Z</time>
</trkpt>
<trkpt lat="45.8586840" lon="9.3037440">
	<ele>940.40</ele>
	<time>2024-03-25T07:43:06.000Z</time>
</trkpt>
<trkpt lat="45.8587030" lon="9.3037490">
	<ele>940.60</ele>
	<time>2024-03-25T07:43:07.000Z</time>
</trkpt>
<trkpt lat="45.8587160" lon="9.3037500">
	<ele>940.80</ele>
	<time>2024-03-25T07:43:08.000Z</time>
</trkpt>
<trkpt lat="45.8587270" lon="9.3037530">
	<ele>940.80</ele>
	<time>2024-03-25T07:43:09.000Z</time>
</trkpt>
<trkpt lat="45.8587300" lon="9.3037500">
	<ele>941.20</ele>
	<time>2024-03-25T07:43:10.000Z</time>
</trkpt>
<trkpt lat="45.8587330" lon="9.3037460">
	<ele>941.20</ele>
	<time>2024-03-25T07:43:11.000Z</time>
</trkpt>
<trkpt lat="45.8587390" lon="9.3037360">
	<ele>941.40</ele>
	<time>2024-03-25T07:43:12.000Z</time>
</trkpt>
<trkpt lat="45.8587460" lon="9.3037240">
	<ele>941.80</ele>
	<time>2024-03-25T07:43:13.000Z</time>
</trkpt>
<trkpt lat="45.8587590" lon="9.3037190">
	<ele>941.80</ele>
	<time>2024-03-25T07:43:14.000Z</time>
</trkpt>
<trkpt lat="45.8587740" lon="9.3037170">
	<ele>942.00</ele>
	<time>2024-03-25T07:43:15.000Z</time>
</trkpt>
<trkpt lat="45.8587830" lon="9.3037140">
	<ele>942.00</ele>
	<time>2024-03-25T07:43:16.000Z</time>
</trkpt>
<trkpt lat="45.8587910" lon="9.3037110">
	<ele>942.00</ele>
	<time>2024-03-25T07:43:17.000Z</time>
</trkpt>
<trkpt lat="45.8588060" lon="9.3037130">
	<ele>942.00</ele>
	<time>2024-03-25T07:43:18.000Z</time>
</trkpt>
<trkpt lat="45.8588170" lon="9.3037090">
	<ele>941.80</ele>
	<time>2024-03-25T07:43:19.000Z</time>
</trkpt>
<trkpt lat="45.8588270" lon="9.3037020">
	<ele>941.60</ele>
	<time>2024-03-25T07:43:20.000Z</time>
</trkpt>
<trkpt lat="45.8588310" lon="9.3036940">
	<ele>941.60</ele>
	<time>2024-03-25T07:43:21.000Z</time>
</trkpt>
<trkpt lat="45.8588400" lon="9.3036810">
	<ele>941.60</ele>
	<time>2024-03-25T07:43:22.000Z</time>
</trkpt>
<trkpt lat="45.8588440" lon="9.3036640">
	<ele>941.40</ele>
	<time>2024-03-25T07:43:23.000Z</time>
</trkpt>
<trkpt lat="45.8588490" lon="9.3036520">
	<ele>941.20</ele>
	<time>2024-03-25T07:43:24.000Z</time>
</trkpt>
<trkpt lat="45.8588570" lon="9.3036500">
	<ele>941.20</ele>
	<time>2024-03-25T07:43:25.000Z</time>
</trkpt>
<trkpt lat="45.8588670" lon="9.3036630">
	<ele>941.40</ele>
	<time>2024-03-25T07:43:26.000Z</time>
</trkpt>
<trkpt lat="45.8588700" lon="9.3036690">
	<ele>941.40</ele>
	<time>2024-03-25T07:43:27.000Z</time>
</trkpt>
<trkpt lat="45.8588740" lon="9.3036730">
	<ele>941.40</ele>
	<time>2024-03-25T07:43:28.000Z</time>
</trkpt>
<trkpt lat="45.8588790" lon="9.3036600">
	<ele>941.40</ele>
	<time>2024-03-25T07:43:29.000Z</time>
</trkpt>
<trkpt lat="45.8588850" lon="9.3036440">
	<ele>941.40</ele>
	<time>2024-03-25T07:43:30.000Z</time>
</trkpt>
<trkpt lat="45.8588970" lon="9.3036310">
	<ele>941.40</ele>
	<time>2024-03-25T07:43:31.000Z</time>
</trkpt>
<trkpt lat="45.8588990" lon="9.3036290">
	<ele>941.40</ele>
	<time>2024-03-25T07:43:32.000Z</time>
</trkpt>
<trkpt lat="45.8589060" lon="9.3036210">
	<ele>941.40</ele>
	<time>2024-03-25T07:43:33.000Z</time>
</trkpt>
<trkpt lat="45.8589100" lon="9.3036140">
	<ele>941.40</ele>
	<time>2024-03-25T07:43:34.000Z</time>
</trkpt>
<trkpt lat="45.8589100" lon="9.3036080">
	<ele>941.40</ele>
	<time>2024-03-25T07:43:35.000Z</time>
</trkpt>
<trkpt lat="45.8589230" lon="9.3036070">
	<ele>941.40</ele>
	<time>2024-03-25T07:43:36.000Z</time>
</trkpt>
<trkpt lat="45.8589340" lon="9.3035980">
	<ele>941.40</ele>
	<time>2024-03-25T07:43:37.000Z</time>
</trkpt>
<trkpt lat="45.8589460" lon="9.3035940">
	<ele>941.40</ele>
	<time>2024-03-25T07:43:38.000Z</time>
</trkpt>
<trkpt lat="45.8589570" lon="9.3035890">
	<ele>941.40</ele>
	<time>2024-03-25T07:43:39.000Z</time>
</trkpt>
<trkpt lat="45.8589680" lon="9.3035780">
	<ele>941.60</ele>
	<time>2024-03-25T07:43:40.000Z</time>
</trkpt>
<trkpt lat="45.8589760" lon="9.3035690">
	<ele>941.60</ele>
	<time>2024-03-25T07:43:41.000Z</time>
</trkpt>
<trkpt lat="45.8589850" lon="9.3035670">
	<ele>941.80</ele>
	<time>2024-03-25T07:43:42.000Z</time>
</trkpt>
<trkpt lat="45.8589920" lon="9.3035650">
	<ele>941.80</ele>
	<time>2024-03-25T07:43:43.000Z</time>
</trkpt>
<trkpt lat="45.8589980" lon="9.3035580">
	<ele>941.80</ele>
	<time>2024-03-25T07:43:44.000Z</time>
</trkpt>
<trkpt lat="45.8590000" lon="9.3035460">
	<ele>941.80</ele>
	<time>2024-03-25T07:43:45.000Z</time>
</trkpt>
<trkpt lat="45.8590100" lon="9.3035330">
	<ele>941.80</ele>
	<time>2024-03-25T07:43:46.000Z</time>
</trkpt>
<trkpt lat="45.8590140" lon="9.3035140">
	<ele>942.00</ele>
	<time>2024-03-25T07:43:47.000Z</time>
</trkpt>
<trkpt lat="45.8590140" lon="9.3035010">
	<ele>942.00</ele>
	<time>2024-03-25T07:43:48.000Z</time>
</trkpt>
<trkpt lat="45.8590160" lon="9.3034840">
	<ele>942.20</ele>
	<time>2024-03-25T07:43:49.000Z</time>
</trkpt>
<trkpt lat="45.8590190" lon="9.3034640">
	<ele>942.20</ele>
	<time>2024-03-25T07:43:50.000Z</time>
</trkpt>
<trkpt lat="45.8590260" lon="9.3034480">
	<ele>942.20</ele>
	<time>2024-03-25T07:43:51.000Z</time>
</trkpt>
<trkpt lat="45.8590400" lon="9.3034420">
	<ele>942.40</ele>
	<time>2024-03-25T07:43:52.000Z</time>
</trkpt>
<trkpt lat="45.8590530" lon="9.3034370">
	<ele>942.40</ele>
	<time>2024-03-25T07:43:53.000Z</time>
</trkpt>
<trkpt lat="45.8590700" lon="9.3034240">
	<ele>942.60</ele>
	<time>2024-03-25T07:43:54.000Z</time>
</trkpt>
<trkpt lat="45.8590750" lon="9.3034110">
	<ele>942.60</ele>
	<time>2024-03-25T07:43:55.000Z</time>
</trkpt>
<trkpt lat="45.8590740" lon="9.3033880">
	<ele>942.80</ele>
	<time>2024-03-25T07:43:56.000Z</time>
</trkpt>
<trkpt lat="45.8590730" lon="9.3033720">
	<ele>943.00</ele>
	<time>2024-03-25T07:43:57.000Z</time>
</trkpt>
<trkpt lat="45.8590740" lon="9.3033640">
	<ele>943.00</ele>
	<time>2024-03-25T07:43:58.000Z</time>
</trkpt>
<trkpt lat="45.8590780" lon="9.3033550">
	<ele>943.20</ele>
	<time>2024-03-25T07:43:59.000Z</time>
</trkpt>
<trkpt lat="45.8590890" lon="9.3033570">
	<ele>943.20</ele>
	<time>2024-03-25T07:44:00.000Z</time>
</trkpt>
<trkpt lat="45.8590930" lon="9.3033570">
	<ele>943.40</ele>
	<time>2024-03-25T07:44:01.000Z</time>
</trkpt>
<trkpt lat="45.8591070" lon="9.3033600">
	<ele>943.40</ele>
	<time>2024-03-25T07:44:02.000Z</time>
</trkpt>
<trkpt lat="45.8591210" lon="9.3033580">
	<ele>943.60</ele>
	<time>2024-03-25T07:44:03.000Z</time>
</trkpt>
<trkpt lat="45.8591290" lon="9.3033570">
	<ele>944.00</ele>
	<time>2024-03-25T07:44:04.000Z</time>
</trkpt>
<trkpt lat="45.8591310" lon="9.3033520">
	<ele>944.20</ele>
	<time>2024-03-25T07:44:05.000Z</time>
</trkpt>
<trkpt lat="45.8591360" lon="9.3033460">
	<ele>944.40</ele>
	<time>2024-03-25T07:44:06.000Z</time>
</trkpt>
<trkpt lat="45.8591440" lon="9.3033410">
	<ele>944.60</ele>
	<time>2024-03-25T07:44:07.000Z</time>
</trkpt>
<trkpt lat="45.8591500" lon="9.3033410">
	<ele>944.80</ele>
	<time>2024-03-25T07:44:08.000Z</time>
</trkpt>
<trkpt lat="45.8591570" lon="9.3033360">
	<ele>945.00</ele>
	<time>2024-03-25T07:44:09.000Z</time>
</trkpt>
<trkpt lat="45.8591670" lon="9.3033260">
	<ele>945.20</ele>
	<time>2024-03-25T07:44:10.000Z</time>
</trkpt>
<trkpt lat="45.8591730" lon="9.3033170">
	<ele>945.40</ele>
	<time>2024-03-25T07:44:11.000Z</time>
</trkpt>
<trkpt lat="45.8591790" lon="9.3033030">
	<ele>945.60</ele>
	<time>2024-03-25T07:44:12.000Z</time>
</trkpt>
<trkpt lat="45.8591810" lon="9.3032910">
	<ele>946.00</ele>
	<time>2024-03-25T07:44:13.000Z</time>
</trkpt>
<trkpt lat="45.8591840" lon="9.3032760">
	<ele>946.20</ele>
	<time>2024-03-25T07:44:14.000Z</time>
</trkpt>
<trkpt lat="45.8591850" lon="9.3032680">
	<ele>946.40</ele>
	<time>2024-03-25T07:44:15.000Z</time>
</trkpt>
<trkpt lat="45.8592000" lon="9.3032560">
	<ele>946.40</ele>
	<time>2024-03-25T07:44:16.000Z</time>
</trkpt>
<trkpt lat="45.8592120" lon="9.3032540">
	<ele>946.60</ele>
	<time>2024-03-25T07:44:17.000Z</time>
</trkpt>
<trkpt lat="45.8592220" lon="9.3032480">
	<ele>946.80</ele>
	<time>2024-03-25T07:44:18.000Z</time>
</trkpt>
<trkpt lat="45.8592220" lon="9.3032440">
	<ele>946.80</ele>
	<time>2024-03-25T07:44:19.000Z</time>
</trkpt>
<trkpt lat="45.8592360" lon="9.3032530">
	<ele>946.80</ele>
	<time>2024-03-25T07:44:20.000Z</time>
</trkpt>
<trkpt lat="45.8592390" lon="9.3032500">
	<ele>947.00</ele>
	<time>2024-03-25T07:44:21.000Z</time>
</trkpt>
<trkpt lat="45.8592420" lon="9.3032480">
	<ele>947.20</ele>
	<time>2024-03-25T07:44:22.000Z</time>
</trkpt>
<trkpt lat="45.8592460" lon="9.3032460">
	<ele>947.40</ele>
	<time>2024-03-25T07:44:23.000Z</time>
</trkpt>
<trkpt lat="45.8592580" lon="9.3032450">
	<ele>947.40</ele>
	<time>2024-03-25T07:44:24.000Z</time>
</trkpt>
<trkpt lat="45.8592600" lon="9.3032450">
	<ele>947.60</ele>
	<time>2024-03-25T07:44:25.000Z</time>
</trkpt>
<trkpt lat="45.8592760" lon="9.3032450">
	<ele>947.60</ele>
	<time>2024-03-25T07:44:26.000Z</time>
</trkpt>
<trkpt lat="45.8592910" lon="9.3032450">
	<ele>947.80</ele>
	<time>2024-03-25T07:44:27.000Z</time>
</trkpt>
<trkpt lat="45.8593050" lon="9.3032420">
	<ele>948.00</ele>
	<time>2024-03-25T07:44:28.000Z</time>
</trkpt>
<trkpt lat="45.8593190" lon="9.3032390">
	<ele>948.20</ele>
	<time>2024-03-25T07:44:29.000Z</time>
</trkpt>
<trkpt lat="45.8593330" lon="9.3032340">
	<ele>948.40</ele>
	<time>2024-03-25T07:44:30.000Z</time>
</trkpt>
<trkpt lat="45.8593480" lon="9.3032280">
	<ele>948.60</ele>
	<time>2024-03-25T07:44:31.000Z</time>
</trkpt>
<trkpt lat="45.8593600" lon="9.3032210">
	<ele>948.80</ele>
	<time>2024-03-25T07:44:32.000Z</time>
</trkpt>
<trkpt lat="45.8593720" lon="9.3032200">
	<ele>949.00</ele>
	<time>2024-03-25T07:44:33.000Z</time>
</trkpt>
<trkpt lat="45.8593850" lon="9.3032140">
	<ele>949.40</ele>
	<time>2024-03-25T07:44:34.000Z</time>
</trkpt>
<trkpt lat="45.8593970" lon="9.3032040">
	<ele>949.60</ele>
	<time>2024-03-25T07:44:35.000Z</time>
</trkpt>
<trkpt lat="45.8594090" lon="9.3031930">
	<ele>949.80</ele>
	<time>2024-03-25T07:44:36.000Z</time>
</trkpt>
<trkpt lat="45.8594180" lon="9.3031800">
	<ele>950.00</ele>
	<time>2024-03-25T07:44:37.000Z</time>
</trkpt>
<trkpt lat="45.8594270" lon="9.3031720">
	<ele>950.00</ele>
	<time>2024-03-25T07:44:38.000Z</time>
</trkpt>
<trkpt lat="45.8594410" lon="9.3031640">
	<ele>950.00</ele>
	<time>2024-03-25T07:44:39.000Z</time>
</trkpt>
<trkpt lat="45.8594570" lon="9.3031560">
	<ele>950.00</ele>
	<time>2024-03-25T07:44:40.000Z</time>
</trkpt>
<trkpt lat="45.8594720" lon="9.3031490">
	<ele>950.20</ele>
	<time>2024-03-25T07:44:41.000Z</time>
</trkpt>
<trkpt lat="45.8594870" lon="9.3031420">
	<ele>950.20</ele>
	<time>2024-03-25T07:44:42.000Z</time>
</trkpt>
<trkpt lat="45.8594980" lon="9.3031340">
	<ele>950.40</ele>
	<time>2024-03-25T07:44:43.000Z</time>
</trkpt>
<trkpt lat="45.8595090" lon="9.3031240">
	<ele>950.60</ele>
	<time>2024-03-25T07:44:44.000Z</time>
</trkpt>
<trkpt lat="45.8595190" lon="9.3031140">
	<ele>950.80</ele>
	<time>2024-03-25T07:44:45.000Z</time>
</trkpt>
<trkpt lat="45.8595270" lon="9.3031080">
	<ele>950.80</ele>
	<time>2024-03-25T07:44:46.000Z</time>
</trkpt>
<trkpt lat="45.8595340" lon="9.3031020">
	<ele>951.00</ele>
	<time>2024-03-25T07:44:47.000Z</time>
</trkpt>
<trkpt lat="45.8595450" lon="9.3031020">
	<ele>951.00</ele>
	<time>2024-03-25T07:44:48.000Z</time>
</trkpt>
<trkpt lat="45.8595470" lon="9.3031040">
	<ele>951.20</ele>
	<time>2024-03-25T07:44:49.000Z</time>
</trkpt>
<trkpt lat="45.8595520" lon="9.3031110">
	<ele>951.20</ele>
	<time>2024-03-25T07:44:50.000Z</time>
</trkpt>
<trkpt lat="45.8595570" lon="9.3031150">
	<ele>951.60</ele>
	<time>2024-03-25T07:44:51.000Z</time>
</trkpt>
<trkpt lat="45.8595610" lon="9.3031160">
	<ele>951.60</ele>
	<time>2024-03-25T07:44:52.000Z</time>
</trkpt>
<trkpt lat="45.8595620" lon="9.3031130">
	<ele>951.80</ele>
	<time>2024-03-25T07:44:53.000Z</time>
</trkpt>
<trkpt lat="45.8595670" lon="9.3031110">
	<ele>951.80</ele>
	<time>2024-03-25T07:44:54.000Z</time>
</trkpt>
<trkpt lat="45.8595700" lon="9.3031120">
	<ele>952.00</ele>
	<time>2024-03-25T07:44:55.000Z</time>
</trkpt>
<trkpt lat="45.8595720" lon="9.3031110">
	<ele>952.20</ele>
	<time>2024-03-25T07:44:56.000Z</time>
</trkpt>
<trkpt lat="45.8595740" lon="9.3031110">
	<ele>952.20</ele>
	<time>2024-03-25T07:44:57.000Z</time>
</trkpt>
<trkpt lat="45.8595790" lon="9.3031130">
	<ele>952.40</ele>
	<time>2024-03-25T07:44:58.000Z</time>
</trkpt>
<trkpt lat="45.8595830" lon="9.3031170">
	<ele>952.40</ele>
	<time>2024-03-25T07:44:59.000Z</time>
</trkpt>
<trkpt lat="45.8595870" lon="9.3031180">
	<ele>952.60</ele>
	<time>2024-03-25T07:45:00.000Z</time>
</trkpt>
<trkpt lat="45.8596000" lon="9.3031190">
	<ele>952.40</ele>
	<time>2024-03-25T07:45:01.000Z</time>
</trkpt>
<trkpt lat="45.8596040" lon="9.3031220">
	<ele>952.20</ele>
	<time>2024-03-25T07:45:02.000Z</time>
</trkpt>
<trkpt lat="45.8596070" lon="9.3031250">
	<ele>952.20</ele>
	<time>2024-03-25T07:45:03.000Z</time>
</trkpt>
<trkpt lat="45.8596100" lon="9.3031290">
	<ele>952.20</ele>
	<time>2024-03-25T07:45:04.000Z</time>
</trkpt>
<trkpt lat="45.8596130" lon="9.3031330">
	<ele>952.20</ele>
	<time>2024-03-25T07:45:05.000Z</time>
</trkpt>
<trkpt lat="45.8596140" lon="9.3031380">
	<ele>952.20</ele>
	<time>2024-03-25T07:45:06.000Z</time>
</trkpt>
<trkpt lat="45.8596140" lon="9.3031430">
	<ele>952.20</ele>
	<time>2024-03-25T07:45:07.000Z</time>
</trkpt>
<trkpt lat="45.8596130" lon="9.3031490">
	<ele>952.20</ele>
	<time>2024-03-25T07:45:08.000Z</time>
</trkpt>
<trkpt lat="45.8596130" lon="9.3031540">
	<ele>952.20</ele>
	<time>2024-03-25T07:45:09.000Z</time>
</trkpt>
<trkpt lat="45.8596130" lon="9.3031560">
	<ele>952.20</ele>
	<time>2024-03-25T07:45:10.000Z</time>
</trkpt>
<trkpt lat="45.8596140" lon="9.3031590">
	<ele>952.40</ele>
	<time>2024-03-25T07:45:11.000Z</time>
</trkpt>
<trkpt lat="45.8596180" lon="9.3031620">
	<ele>952.40</ele>
	<time>2024-03-25T07:45:12.000Z</time>
</trkpt>
<trkpt lat="45.8596260" lon="9.3031680">
	<ele>952.60</ele>
	<time>2024-03-25T07:45:13.000Z</time>
</trkpt>
<trkpt lat="45.8596330" lon="9.3031760">
	<ele>953.00</ele>
	<time>2024-03-25T07:45:14.000Z</time>
</trkpt>
<trkpt lat="45.8596430" lon="9.3031830">
	<ele>953.20</ele>
	<time>2024-03-25T07:45:15.000Z</time>
</trkpt>
<trkpt lat="45.8596450" lon="9.3031900">
	<ele>953.60</ele>
	<time>2024-03-25T07:45:16.000Z</time>
</trkpt>
<trkpt lat="45.8596500" lon="9.3032000">
	<ele>953.80</ele>
	<time>2024-03-25T07:45:17.000Z</time>
</trkpt>
<trkpt lat="45.8596540" lon="9.3032090">
	<ele>953.80</ele>
	<time>2024-03-25T07:45:18.000Z</time>
</trkpt>
<trkpt lat="45.8596600" lon="9.3032190">
	<ele>954.00</ele>
	<time>2024-03-25T07:45:19.000Z</time>
</trkpt>
<trkpt lat="45.8596630" lon="9.3032240">
	<ele>954.00</ele>
	<time>2024-03-25T07:45:20.000Z</time>
</trkpt>
<trkpt lat="45.8596660" lon="9.3032310">
	<ele>954.20</ele>
	<time>2024-03-25T07:45:21.000Z</time>
</trkpt>
<trkpt lat="45.8596690" lon="9.3032400">
	<ele>954.40</ele>
	<time>2024-03-25T07:45:22.000Z</time>
</trkpt>
<trkpt lat="45.8596690" lon="9.3032530">
	<ele>954.40</ele>
	<time>2024-03-25T07:45:23.000Z</time>
</trkpt>
<trkpt lat="45.8596690" lon="9.3032660">
	<ele>954.60</ele>
	<time>2024-03-25T07:45:24.000Z</time>
</trkpt>
<trkpt lat="45.8596720" lon="9.3032810">
	<ele>955.00</ele>
	<time>2024-03-25T07:45:25.000Z</time>
</trkpt>
<trkpt lat="45.8596750" lon="9.3033010">
	<ele>955.20</ele>
	<time>2024-03-25T07:45:26.000Z</time>
</trkpt>
<trkpt lat="45.8596820" lon="9.3033230">
	<ele>955.60</ele>
	<time>2024-03-25T07:45:27.000Z</time>
</trkpt>
<trkpt lat="45.8596930" lon="9.3033400">
	<ele>955.80</ele>
	<time>2024-03-25T07:45:28.000Z</time>
</trkpt>
<trkpt lat="45.8597040" lon="9.3033540">
	<ele>956.00</ele>
	<time>2024-03-25T07:45:29.000Z</time>
</trkpt>
<trkpt lat="45.8597180" lon="9.3033670">
	<ele>956.00</ele>
	<time>2024-03-25T07:45:30.000Z</time>
</trkpt>
<trkpt lat="45.8597300" lon="9.3033720">
	<ele>956.20</ele>
	<time>2024-03-25T07:45:31.000Z</time>
</trkpt>
<trkpt lat="45.8597390" lon="9.3033870">
	<ele>956.20</ele>
	<time>2024-03-25T07:45:32.000Z</time>
</trkpt>
<trkpt lat="45.8597440" lon="9.3033940">
	<ele>956.20</ele>
	<time>2024-03-25T07:45:33.000Z</time>
</trkpt>
<trkpt lat="45.8597450" lon="9.3033990">
	<ele>956.20</ele>
	<time>2024-03-25T07:45:34.000Z</time>
</trkpt>
<trkpt lat="45.8597480" lon="9.3034090">
	<ele>956.20</ele>
	<time>2024-03-25T07:45:35.000Z</time>
</trkpt>
<trkpt lat="45.8597520" lon="9.3034170">
	<ele>956.40</ele>
	<time>2024-03-25T07:45:36.000Z</time>
</trkpt>
<trkpt lat="45.8597600" lon="9.3034320">
	<ele>956.40</ele>
	<time>2024-03-25T07:45:37.000Z</time>
</trkpt>
<trkpt lat="45.8597690" lon="9.3034500">
	<ele>956.40</ele>
	<time>2024-03-25T07:45:38.000Z</time>
</trkpt>
<trkpt lat="45.8597760" lon="9.3034660">
	<ele>956.60</ele>
	<time>2024-03-25T07:45:39.000Z</time>
</trkpt>
<trkpt lat="45.8597830" lon="9.3034810">
	<ele>956.60</ele>
	<time>2024-03-25T07:45:40.000Z</time>
</trkpt>
<trkpt lat="45.8597910" lon="9.3034910">
	<ele>956.60</ele>
	<time>2024-03-25T07:45:41.000Z</time>
</trkpt>
<trkpt lat="45.8597950" lon="9.3035020">
	<ele>956.60</ele>
	<time>2024-03-25T07:45:42.000Z</time>
</trkpt>
<trkpt lat="45.8597950" lon="9.3035070">
	<ele>956.80</ele>
	<time>2024-03-25T07:45:43.000Z</time>
</trkpt>
<trkpt lat="45.8598000" lon="9.3035190">
	<ele>956.80</ele>
	<time>2024-03-25T07:45:44.000Z</time>
</trkpt>
<trkpt lat="45.8598090" lon="9.3035350">
	<ele>957.00</ele>
	<time>2024-03-25T07:45:45.000Z</time>
</trkpt>
<trkpt lat="45.8598170" lon="9.3035500">
	<ele>957.00</ele>
	<time>2024-03-25T07:45:46.000Z</time>
</trkpt>
<trkpt lat="45.8598270" lon="9.3035640">
	<ele>957.00</ele>
	<time>2024-03-25T07:45:47.000Z</time>
</trkpt>
<trkpt lat="45.8598370" lon="9.3035780">
	<ele>957.00</ele>
	<time>2024-03-25T07:45:48.000Z</time>
</trkpt>
<trkpt lat="45.8598480" lon="9.3035920">
	<ele>957.00</ele>
	<time>2024-03-25T07:45:49.000Z</time>
</trkpt>
<trkpt lat="45.8598570" lon="9.3036010">
	<ele>957.00</ele>
	<time>2024-03-25T07:45:50.000Z</time>
</trkpt>
<trkpt lat="45.8598640" lon="9.3036170">
	<ele>957.00</ele>
	<time>2024-03-25T07:45:51.000Z</time>
</trkpt>
<trkpt lat="45.8598730" lon="9.3036330">
	<ele>957.00</ele>
	<time>2024-03-25T07:45:52.000Z</time>
</trkpt>
<trkpt lat="45.8598740" lon="9.3036530">
	<ele>957.00</ele>
	<time>2024-03-25T07:45:53.000Z</time>
</trkpt>
<trkpt lat="45.8598820" lon="9.3036710">
	<ele>957.00</ele>
	<time>2024-03-25T07:45:54.000Z</time>
</trkpt>
<trkpt lat="45.8598900" lon="9.3036860">
	<ele>957.20</ele>
	<time>2024-03-25T07:45:55.000Z</time>
</trkpt>
<trkpt lat="45.8598990" lon="9.3036960">
	<ele>957.20</ele>
	<time>2024-03-25T07:45:56.000Z</time>
</trkpt>
<trkpt lat="45.8599080" lon="9.3037090">
	<ele>957.20</ele>
	<time>2024-03-25T07:45:57.000Z</time>
</trkpt>
<trkpt lat="45.8599170" lon="9.3037260">
	<ele>957.20</ele>
	<time>2024-03-25T07:45:58.000Z</time>
</trkpt>
<trkpt lat="45.8599240" lon="9.3037390">
	<ele>957.20</ele>
	<time>2024-03-25T07:45:59.000Z</time>
</trkpt>
<trkpt lat="45.8599350" lon="9.3037490">
	<ele>957.20</ele>
	<time>2024-03-25T07:46:00.000Z</time>
</trkpt>
<trkpt lat="45.8599410" lon="9.3037660">
	<ele>957.20</ele>
	<time>2024-03-25T07:46:01.000Z</time>
</trkpt>
<trkpt lat="45.8599450" lon="9.3037790">
	<ele>957.40</ele>
	<time>2024-03-25T07:46:02.000Z</time>
</trkpt>
<trkpt lat="45.8599530" lon="9.3037970">
	<ele>957.40</ele>
	<time>2024-03-25T07:46:03.000Z</time>
</trkpt>
<trkpt lat="45.8599650" lon="9.3038140">
	<ele>957.40</ele>
	<time>2024-03-25T07:46:04.000Z</time>
</trkpt>
<trkpt lat="45.8599740" lon="9.3038290">
	<ele>957.60</ele>
	<time>2024-03-25T07:46:05.000Z</time>
</trkpt>
<trkpt lat="45.8599820" lon="9.3038530">
	<ele>958.00</ele>
	<time>2024-03-25T07:46:06.000Z</time>
</trkpt>
<trkpt lat="45.8599900" lon="9.3038660">
	<ele>958.20</ele>
	<time>2024-03-25T07:46:07.000Z</time>
</trkpt>
<trkpt lat="45.8599930" lon="9.3038790">
	<ele>958.20</ele>
	<time>2024-03-25T07:46:08.000Z</time>
</trkpt>
<trkpt lat="45.8599990" lon="9.3038910">
	<ele>958.40</ele>
	<time>2024-03-25T07:46:09.000Z</time>
</trkpt>
<trkpt lat="45.8600050" lon="9.3039060">
	<ele>958.40</ele>
	<time>2024-03-25T07:46:10.000Z</time>
</trkpt>
<trkpt lat="45.8600150" lon="9.3039220">
	<ele>958.60</ele>
	<time>2024-03-25T07:46:11.000Z</time>
</trkpt>
<trkpt lat="45.8600280" lon="9.3039440">
	<ele>958.60</ele>
	<time>2024-03-25T07:46:12.000Z</time>
</trkpt>
<trkpt lat="45.8600360" lon="9.3039570">
	<ele>958.60</ele>
	<time>2024-03-25T07:46:13.000Z</time>
</trkpt>
<trkpt lat="45.8600380" lon="9.3039660">
	<ele>958.60</ele>
	<time>2024-03-25T07:46:14.000Z</time>
</trkpt>
<trkpt lat="45.8600350" lon="9.3039780">
	<ele>958.60</ele>
	<time>2024-03-25T07:46:15.000Z</time>
</trkpt>
<trkpt lat="45.8600380" lon="9.3039890">
	<ele>958.80</ele>
	<time>2024-03-25T07:46:16.000Z</time>
</trkpt>
<trkpt lat="45.8600360" lon="9.3040050">
	<ele>959.00</ele>
	<time>2024-03-25T07:46:17.000Z</time>
</trkpt>
<trkpt lat="45.8600440" lon="9.3040200">
	<ele>959.00</ele>
	<time>2024-03-25T07:46:18.000Z</time>
</trkpt>
<trkpt lat="45.8600530" lon="9.3040330">
	<ele>959.20</ele>
	<time>2024-03-25T07:46:19.000Z</time>
</trkpt>
<trkpt lat="45.8600540" lon="9.3040430">
	<ele>959.40</ele>
	<time>2024-03-25T07:46:20.000Z</time>
</trkpt>
<trkpt lat="45.8600550" lon="9.3040520">
	<ele>959.60</ele>
	<time>2024-03-25T07:46:21.000Z</time>
</trkpt>
<trkpt lat="45.8600570" lon="9.3040550">
	<ele>959.80</ele>
	<time>2024-03-25T07:46:22.000Z</time>
</trkpt>
<trkpt lat="45.8600550" lon="9.3040660">
	<ele>959.80</ele>
	<time>2024-03-25T07:46:23.000Z</time>
</trkpt>
<trkpt lat="45.8600580" lon="9.3040770">
	<ele>960.00</ele>
	<time>2024-03-25T07:46:24.000Z</time>
</trkpt>
<trkpt lat="45.8600640" lon="9.3040900">
	<ele>960.00</ele>
	<time>2024-03-25T07:46:25.000Z</time>
</trkpt>
<trkpt lat="45.8600690" lon="9.3041070">
	<ele>960.20</ele>
	<time>2024-03-25T07:46:26.000Z</time>
</trkpt>
<trkpt lat="45.8600740" lon="9.3041220">
	<ele>960.20</ele>
	<time>2024-03-25T07:46:27.000Z</time>
</trkpt>
<trkpt lat="45.8600840" lon="9.3041490">
	<ele>960.20</ele>
	<time>2024-03-25T07:46:28.000Z</time>
</trkpt>
<trkpt lat="45.8600890" lon="9.3041590">
	<ele>960.40</ele>
	<time>2024-03-25T07:46:29.000Z</time>
</trkpt>
<trkpt lat="45.8600910" lon="9.3041610">
	<ele>960.40</ele>
	<time>2024-03-25T07:46:30.000Z</time>
</trkpt>
<trkpt lat="45.8600990" lon="9.3041720">
	<ele>960.60</ele>
	<time>2024-03-25T07:46:31.000Z</time>
</trkpt>
<trkpt lat="45.8601150" lon="9.3041900">
	<ele>960.60</ele>
	<time>2024-03-25T07:46:32.000Z</time>
</trkpt>
<trkpt lat="45.8601200" lon="9.3042140">
	<ele>960.60</ele>
	<time>2024-03-25T07:46:33.000Z</time>
</trkpt>
<trkpt lat="45.8601220" lon="9.3042360">
	<ele>960.60</ele>
	<time>2024-03-25T07:46:34.000Z</time>
</trkpt>
<trkpt lat="45.8601220" lon="9.3042510">
	<ele>960.60</ele>
	<time>2024-03-25T07:46:35.000Z</time>
</trkpt>
<trkpt lat="45.8601260" lon="9.3042660">
	<ele>960.60</ele>
	<time>2024-03-25T07:46:36.000Z</time>
</trkpt>
<trkpt lat="45.8601280" lon="9.3042850">
	<ele>960.40</ele>
	<time>2024-03-25T07:46:37.000Z</time>
</trkpt>
<trkpt lat="45.8601320" lon="9.3042990">
	<ele>960.40</ele>
	<time>2024-03-25T07:46:38.000Z</time>
</trkpt>
<trkpt lat="45.8601340" lon="9.3043130">
	<ele>960.40</ele>
	<time>2024-03-25T07:46:39.000Z</time>
</trkpt>
<trkpt lat="45.8601360" lon="9.3043240">
	<ele>960.60</ele>
	<time>2024-03-25T07:46:40.000Z</time>
</trkpt>
<trkpt lat="45.8601380" lon="9.3043350">
	<ele>960.60</ele>
	<time>2024-03-25T07:46:41.000Z</time>
</trkpt>
<trkpt lat="45.8601380" lon="9.3043460">
	<ele>960.60</ele>
	<time>2024-03-25T07:46:42.000Z</time>
</trkpt>
<trkpt lat="45.8601380" lon="9.3043620">
	<ele>960.80</ele>
	<time>2024-03-25T07:46:43.000Z</time>
</trkpt>
<trkpt lat="45.8601340" lon="9.3043760">
	<ele>961.40</ele>
	<time>2024-03-25T07:46:44.000Z</time>
</trkpt>
<trkpt lat="45.8601340" lon="9.3043820">
	<ele>961.60</ele>
	<time>2024-03-25T07:46:45.000Z</time>
</trkpt>
<trkpt lat="45.8601360" lon="9.3043840">
	<ele>961.80</ele>
	<time>2024-03-25T07:46:46.000Z</time>
</trkpt>
<trkpt lat="45.8601370" lon="9.3043910">
	<ele>962.00</ele>
	<time>2024-03-25T07:46:47.000Z</time>
</trkpt>
<trkpt lat="45.8601400" lon="9.3043970">
	<ele>962.00</ele>
	<time>2024-03-25T07:46:48.000Z</time>
</trkpt>
<trkpt lat="45.8601440" lon="9.3044020">
	<ele>962.40</ele>
	<time>2024-03-25T07:46:49.000Z</time>
</trkpt>
<trkpt lat="45.8601450" lon="9.3044050">
	<ele>962.60</ele>
	<time>2024-03-25T07:46:50.000Z</time>
</trkpt>
<trkpt lat="45.8601460" lon="9.3044070">
	<ele>962.60</ele>
	<time>2024-03-25T07:46:51.000Z</time>
</trkpt>
<trkpt lat="45.8601460" lon="9.3044020">
	<ele>962.80</ele>
	<time>2024-03-25T07:46:52.000Z</time>
</trkpt>
<trkpt lat="45.8601380" lon="9.3043950">
	<ele>962.80</ele>
	<time>2024-03-25T07:46:53.000Z</time>
</trkpt>
<trkpt lat="45.8601390" lon="9.3043970">
	<ele>962.80</ele>
	<time>2024-03-25T07:46:54.000Z</time>
</trkpt>
<trkpt lat="45.8601470" lon="9.3044100">
	<ele>963.00</ele>
	<time>2024-03-25T07:46:55.000Z</time>
</trkpt>
<trkpt lat="45.8601600" lon="9.3044250">
	<ele>963.00</ele>
	<time>2024-03-25T07:46:56.000Z</time>
</trkpt>
<trkpt lat="45.8601740" lon="9.3044370">
	<ele>963.00</ele>
	<time>2024-03-25T07:46:57.000Z</time>
</trkpt>
<trkpt lat="45.8601870" lon="9.3044500">
	<ele>963.00</ele>
	<time>2024-03-25T07:46:58.000Z</time>
</trkpt>
<trkpt lat="45.8601950" lon="9.3044630">
	<ele>962.80</ele>
	<time>2024-03-25T07:46:59.000Z</time>
</trkpt>
<trkpt lat="45.8602010" lon="9.3044760">
	<ele>962.80</ele>
	<time>2024-03-25T07:47:00.000Z</time>
</trkpt>
<trkpt lat="45.8602030" lon="9.3044840">
	<ele>962.60</ele>
	<time>2024-03-25T07:47:01.000Z</time>
</trkpt>
<trkpt lat="45.8602060" lon="9.3044920">
	<ele>962.60</ele>
	<time>2024-03-25T07:47:02.000Z</time>
</trkpt>
<trkpt lat="45.8602160" lon="9.3045010">
	<ele>962.40</ele>
	<time>2024-03-25T07:47:03.000Z</time>
</trkpt>
<trkpt lat="45.8602180" lon="9.3045090">
	<ele>962.20</ele>
	<time>2024-03-25T07:47:04.000Z</time>
</trkpt>
<trkpt lat="45.8602210" lon="9.3045250">
	<ele>962.20</ele>
	<time>2024-03-25T07:47:05.000Z</time>
</trkpt>
<trkpt lat="45.8602320" lon="9.3045410">
	<ele>961.80</ele>
	<time>2024-03-25T07:47:06.000Z</time>
</trkpt>
<trkpt lat="45.8602400" lon="9.3045510">
	<ele>961.60</ele>
	<time>2024-03-25T07:47:07.000Z</time>
</trkpt>
<trkpt lat="45.8602500" lon="9.3045610">
	<ele>961.60</ele>
	<time>2024-03-25T07:47:08.000Z</time>
</trkpt>
<trkpt lat="45.8602620" lon="9.3045740">
	<ele>961.60</ele>
	<time>2024-03-25T07:47:09.000Z</time>
</trkpt>
<trkpt lat="45.8602700" lon="9.3045950">
	<ele>961.60</ele>
	<time>2024-03-25T07:47:10.000Z</time>
</trkpt>
<trkpt lat="45.8602690" lon="9.3046090">
	<ele>961.60</ele>
	<time>2024-03-25T07:47:11.000Z</time>
</trkpt>
<trkpt lat="45.8602730" lon="9.3046290">
	<ele>961.80</ele>
	<time>2024-03-25T07:47:12.000Z</time>
</trkpt>
<trkpt lat="45.8602810" lon="9.3046450">
	<ele>961.80</ele>
	<time>2024-03-25T07:47:13.000Z</time>
</trkpt>
<trkpt lat="45.8602910" lon="9.3046580">
	<ele>961.80</ele>
	<time>2024-03-25T07:47:14.000Z</time>
</trkpt>
<trkpt lat="45.8602970" lon="9.3046660">
	<ele>962.00</ele>
	<time>2024-03-25T07:47:15.000Z</time>
</trkpt>
<trkpt lat="45.8603110" lon="9.3046720">
	<ele>961.80</ele>
	<time>2024-03-25T07:47:16.000Z</time>
</trkpt>
<trkpt lat="45.8603300" lon="9.3046770">
	<ele>961.80</ele>
	<time>2024-03-25T07:47:17.000Z</time>
</trkpt>
<trkpt lat="45.8603410" lon="9.3046830">
	<ele>961.60</ele>
	<time>2024-03-25T07:47:18.000Z</time>
</trkpt>
<trkpt lat="45.8603470" lon="9.3046850">
	<ele>961.60</ele>
	<time>2024-03-25T07:47:19.000Z</time>
</trkpt>
<trkpt lat="45.8603460" lon="9.3046820">
	<ele>961.40</ele>
	<time>2024-03-25T07:47:20.000Z</time>
</trkpt>
<trkpt lat="45.8603520" lon="9.3046900">
	<ele>961.20</ele>
	<time>2024-03-25T07:47:21.000Z</time>
</trkpt>
<trkpt lat="45.8603530" lon="9.3046890">
	<ele>961.00</ele>
	<time>2024-03-25T07:47:22.000Z</time>
</trkpt>
<trkpt lat="45.8603570" lon="9.3046960">
	<ele>960.80</ele>
	<time>2024-03-25T07:47:23.000Z</time>
</trkpt>
<trkpt lat="45.8603650" lon="9.3047160">
	<ele>960.60</ele>
	<time>2024-03-25T07:47:24.000Z</time>
</trkpt>
<trkpt lat="45.8603800" lon="9.3047380">
	<ele>960.40</ele>
	<time>2024-03-25T07:47:25.000Z</time>
</trkpt>
<trkpt lat="45.8603980" lon="9.3047630">
	<ele>960.40</ele>
	<time>2024-03-25T07:47:26.000Z</time>
</trkpt>
<trkpt lat="45.8604060" lon="9.3047960">
	<ele>960.20</ele>
	<time>2024-03-25T07:47:27.000Z</time>
</trkpt>
<trkpt lat="45.8604120" lon="9.3048210">
	<ele>960.20</ele>
	<time>2024-03-25T07:47:28.000Z</time>
</trkpt>
<trkpt lat="45.8604210" lon="9.3048340">
	<ele>960.20</ele>
	<time>2024-03-25T07:47:29.000Z</time>
</trkpt>
<trkpt lat="45.8604290" lon="9.3048430">
	<ele>960.20</ele>
	<time>2024-03-25T07:47:30.000Z</time>
</trkpt>
<trkpt lat="45.8604370" lon="9.3048590">
	<ele>960.20</ele>
	<time>2024-03-25T07:47:31.000Z</time>
</trkpt>
<trkpt lat="45.8604470" lon="9.3048720">
	<ele>960.20</ele>
	<time>2024-03-25T07:47:32.000Z</time>
</trkpt>
<trkpt lat="45.8604590" lon="9.3048910">
	<ele>960.20</ele>
	<time>2024-03-25T07:47:33.000Z</time>
</trkpt>
<trkpt lat="45.8604660" lon="9.3049030">
	<ele>960.40</ele>
	<time>2024-03-25T07:47:34.000Z</time>
</trkpt>
<trkpt lat="45.8604700" lon="9.3049220">
	<ele>960.60</ele>
	<time>2024-03-25T07:47:35.000Z</time>
</trkpt>
<trkpt lat="45.8604720" lon="9.3049400">
	<ele>960.80</ele>
	<time>2024-03-25T07:47:36.000Z</time>
</trkpt>
<trkpt lat="45.8604720" lon="9.3049450">
	<ele>961.00</ele>
	<time>2024-03-25T07:47:37.000Z</time>
</trkpt>
<trkpt lat="45.8604790" lon="9.3049580">
	<ele>961.20</ele>
	<time>2024-03-25T07:47:38.000Z</time>
</trkpt>
<trkpt lat="45.8604870" lon="9.3049750">
	<ele>961.40</ele>
	<time>2024-03-25T07:47:39.000Z</time>
</trkpt>
<trkpt lat="45.8604930" lon="9.3049850">
	<ele>961.40</ele>
	<time>2024-03-25T07:47:40.000Z</time>
</trkpt>
<trkpt lat="45.8605020" lon="9.3050000">
	<ele>961.40</ele>
	<time>2024-03-25T07:47:41.000Z</time>
</trkpt>
<trkpt lat="45.8605120" lon="9.3050170">
	<ele>961.40</ele>
	<time>2024-03-25T07:47:42.000Z</time>
</trkpt>
<trkpt lat="45.8605210" lon="9.3050350">
	<ele>961.40</ele>
	<time>2024-03-25T07:47:43.000Z</time>
</trkpt>
<trkpt lat="45.8605280" lon="9.3050450">
	<ele>961.40</ele>
	<time>2024-03-25T07:47:44.000Z</time>
</trkpt>
<trkpt lat="45.8605400" lon="9.3050530">
	<ele>961.60</ele>
	<time>2024-03-25T07:47:45.000Z</time>
</trkpt>
<trkpt lat="45.8605510" lon="9.3050640">
	<ele>961.60</ele>
	<time>2024-03-25T07:47:46.000Z</time>
</trkpt>
<trkpt lat="45.8605600" lon="9.3050760">
	<ele>961.80</ele>
	<time>2024-03-25T07:47:47.000Z</time>
</trkpt>
<trkpt lat="45.8605750" lon="9.3050950">
	<ele>961.80</ele>
	<time>2024-03-25T07:47:48.000Z</time>
</trkpt>
<trkpt lat="45.8605870" lon="9.3051100">
	<ele>962.00</ele>
	<time>2024-03-25T07:47:49.000Z</time>
</trkpt>
<trkpt lat="45.8605970" lon="9.3051250">
	<ele>962.00</ele>
	<time>2024-03-25T07:47:50.000Z</time>
</trkpt>
<trkpt lat="45.8606080" lon="9.3051350">
	<ele>962.20</ele>
	<time>2024-03-25T07:47:51.000Z</time>
</trkpt>
<trkpt lat="45.8606210" lon="9.3051430">
	<ele>962.20</ele>
	<time>2024-03-25T07:47:52.000Z</time>
</trkpt>
<trkpt lat="45.8606300" lon="9.3051510">
	<ele>962.40</ele>
	<time>2024-03-25T07:47:53.000Z</time>
</trkpt>
<trkpt lat="45.8606430" lon="9.3051580">
	<ele>962.40</ele>
	<time>2024-03-25T07:47:54.000Z</time>
</trkpt>
<trkpt lat="45.8606510" lon="9.3051630">
	<ele>962.60</ele>
	<time>2024-03-25T07:47:55.000Z</time>
</trkpt>
<trkpt lat="45.8606540" lon="9.3051690">
	<ele>962.60</ele>
	<time>2024-03-25T07:47:56.000Z</time>
</trkpt>
<trkpt lat="45.8606510" lon="9.3051800">
	<ele>962.80</ele>
	<time>2024-03-25T07:47:57.000Z</time>
</trkpt>
<trkpt lat="45.8606540" lon="9.3051920">
	<ele>962.80</ele>
	<time>2024-03-25T07:47:58.000Z</time>
</trkpt>
<trkpt lat="45.8606630" lon="9.3051990">
	<ele>963.00</ele>
	<time>2024-03-25T07:47:59.000Z</time>
</trkpt>
<trkpt lat="45.8606670" lon="9.3052080">
	<ele>963.20</ele>
	<time>2024-03-25T07:48:00.000Z</time>
</trkpt>
<trkpt lat="45.8606670" lon="9.3052230">
	<ele>963.20</ele>
	<time>2024-03-25T07:48:01.000Z</time>
</trkpt>
<trkpt lat="45.8606670" lon="9.3052420">
	<ele>963.60</ele>
	<time>2024-03-25T07:48:02.000Z</time>
</trkpt>
<trkpt lat="45.8606660" lon="9.3052630">
	<ele>963.80</ele>
	<time>2024-03-25T07:48:03.000Z</time>
</trkpt>
<trkpt lat="45.8606660" lon="9.3052710">
	<ele>964.00</ele>
	<time>2024-03-25T07:48:04.000Z</time>
</trkpt>
<trkpt lat="45.8606760" lon="9.3052860">
	<ele>964.40</ele>
	<time>2024-03-25T07:48:05.000Z</time>
</trkpt>
<trkpt lat="45.8606940" lon="9.3053080">
	<ele>964.40</ele>
	<time>2024-03-25T07:48:06.000Z</time>
</trkpt>
<trkpt lat="45.8607050" lon="9.3053190">
	<ele>964.60</ele>
	<time>2024-03-25T07:48:07.000Z</time>
</trkpt>
<trkpt lat="45.8607190" lon="9.3053320">
	<ele>964.60</ele>
	<time>2024-03-25T07:48:08.000Z</time>
</trkpt>
<trkpt lat="45.8607330" lon="9.3053410">
	<ele>964.60</ele>
	<time>2024-03-25T07:48:09.000Z</time>
</trkpt>
<trkpt lat="45.8607430" lon="9.3053490">
	<ele>964.80</ele>
	<time>2024-03-25T07:48:10.000Z</time>
</trkpt>
<trkpt lat="45.8607550" lon="9.3053550">
	<ele>964.80</ele>
	<time>2024-03-25T07:48:11.000Z</time>
</trkpt>
<trkpt lat="45.8607690" lon="9.3053580">
	<ele>965.00</ele>
	<time>2024-03-25T07:48:12.000Z</time>
</trkpt>
<trkpt lat="45.8607890" lon="9.3053640">
	<ele>965.00</ele>
	<time>2024-03-25T07:48:13.000Z</time>
</trkpt>
<trkpt lat="45.8608100" lon="9.3053820">
	<ele>965.20</ele>
	<time>2024-03-25T07:48:14.000Z</time>
</trkpt>
<trkpt lat="45.8608210" lon="9.3054000">
	<ele>965.20</ele>
	<time>2024-03-25T07:48:15.000Z</time>
</trkpt>
<trkpt lat="45.8608260" lon="9.3054160">
	<ele>965.40</ele>
	<time>2024-03-25T07:48:16.000Z</time>
</trkpt>
<trkpt lat="45.8608300" lon="9.3054230">
	<ele>965.40</ele>
	<time>2024-03-25T07:48:17.000Z</time>
</trkpt>
<trkpt lat="45.8608360" lon="9.3054220">
	<ele>965.40</ele>
	<time>2024-03-25T07:48:18.000Z</time>
</trkpt>
<trkpt lat="45.8608460" lon="9.3054290">
	<ele>965.40</ele>
	<time>2024-03-25T07:48:19.000Z</time>
</trkpt>
<trkpt lat="45.8608480" lon="9.3054300">
	<ele>965.60</ele>
	<time>2024-03-25T07:48:20.000Z</time>
</trkpt>
<trkpt lat="45.8608520" lon="9.3054330">
	<ele>965.80</ele>
	<time>2024-03-25T07:48:21.000Z</time>
</trkpt>
<trkpt lat="45.8608600" lon="9.3054400">
	<ele>965.80</ele>
	<time>2024-03-25T07:48:22.000Z</time>
</trkpt>
<trkpt lat="45.8608620" lon="9.3054430">
	<ele>965.80</ele>
	<time>2024-03-25T07:48:23.000Z</time>
</trkpt>
<trkpt lat="45.8608630" lon="9.3054500">
	<ele>965.80</ele>
	<time>2024-03-25T07:48:24.000Z</time>
</trkpt>
<trkpt lat="45.8608660" lon="9.3054620">
	<ele>966.00</ele>
	<time>2024-03-25T07:48:25.000Z</time>
</trkpt>
<trkpt lat="45.8608770" lon="9.3054780">
	<ele>966.20</ele>
	<time>2024-03-25T07:48:26.000Z</time>
</trkpt>
<trkpt lat="45.8608850" lon="9.3054930">
	<ele>966.20</ele>
	<time>2024-03-25T07:48:27.000Z</time>
</trkpt>
<trkpt lat="45.8608890" lon="9.3055000">
	<ele>966.60</ele>
	<time>2024-03-25T07:48:28.000Z</time>
</trkpt>
<trkpt lat="45.8608890" lon="9.3055180">
	<ele>966.80</ele>
	<time>2024-03-25T07:48:29.000Z</time>
</trkpt>
<trkpt lat="45.8608920" lon="9.3055280">
	<ele>967.00</ele>
	<time>2024-03-25T07:48:30.000Z</time>
</trkpt>
<trkpt lat="45.8609030" lon="9.3055400">
	<ele>967.20</ele>
	<time>2024-03-25T07:48:31.000Z</time>
</trkpt>
<trkpt lat="45.8609130" lon="9.3055560">
	<ele>967.40</ele>
	<time>2024-03-25T07:48:32.000Z</time>
</trkpt>
<trkpt lat="45.8609170" lon="9.3055670">
	<ele>967.60</ele>
	<time>2024-03-25T07:48:33.000Z</time>
</trkpt>
<trkpt lat="45.8609210" lon="9.3055850">
	<ele>967.80</ele>
	<time>2024-03-25T07:48:34.000Z</time>
</trkpt>
<trkpt lat="45.8609260" lon="9.3056020">
	<ele>968.00</ele>
	<time>2024-03-25T07:48:35.000Z</time>
</trkpt>
<trkpt lat="45.8609320" lon="9.3056210">
	<ele>968.20</ele>
	<time>2024-03-25T07:48:36.000Z</time>
</trkpt>
<trkpt lat="45.8609320" lon="9.3056270">
	<ele>968.40</ele>
	<time>2024-03-25T07:48:37.000Z</time>
</trkpt>
<trkpt lat="45.8609320" lon="9.3056350">
	<ele>968.80</ele>
	<time>2024-03-25T07:48:38.000Z</time>
</trkpt>
<trkpt lat="45.8609390" lon="9.3056440">
	<ele>969.00</ele>
	<time>2024-03-25T07:48:39.000Z</time>
</trkpt>
<trkpt lat="45.8609440" lon="9.3056580">
	<ele>969.20</ele>
	<time>2024-03-25T07:48:40.000Z</time>
</trkpt>
<trkpt lat="45.8609460" lon="9.3056670">
	<ele>969.60</ele>
	<time>2024-03-25T07:48:41.000Z</time>
</trkpt>
<trkpt lat="45.8609470" lon="9.3056770">
	<ele>969.60</ele>
	<time>2024-03-25T07:48:42.000Z</time>
</trkpt>
<trkpt lat="45.8609500" lon="9.3056870">
	<ele>969.80</ele>
	<time>2024-03-25T07:48:43.000Z</time>
</trkpt>
<trkpt lat="45.8609560" lon="9.3056930">
	<ele>970.00</ele>
	<time>2024-03-25T07:48:44.000Z</time>
</trkpt>
<trkpt lat="45.8609630" lon="9.3056980">
	<ele>970.20</ele>
	<time>2024-03-25T07:48:45.000Z</time>
</trkpt>
<trkpt lat="45.8609690" lon="9.3057090">
	<ele>970.60</ele>
	<time>2024-03-25T07:48:46.000Z</time>
</trkpt>
<trkpt lat="45.8609740" lon="9.3057150">
	<ele>970.80</ele>
	<time>2024-03-25T07:48:47.000Z</time>
</trkpt>
<trkpt lat="45.8609820" lon="9.3057230">
	<ele>970.80</ele>
	<time>2024-03-25T07:48:48.000Z</time>
</trkpt>
<trkpt lat="45.8609950" lon="9.3057370">
	<ele>971.00</ele>
	<time>2024-03-25T07:48:49.000Z</time>
</trkpt>
<trkpt lat="45.8610000" lon="9.3057430">
	<ele>971.20</ele>
	<time>2024-03-25T07:48:50.000Z</time>
</trkpt>
<trkpt lat="45.8610030" lon="9.3057440">
	<ele>971.20</ele>
	<time>2024-03-25T07:48:51.000Z</time>
</trkpt>
<trkpt lat="45.8610140" lon="9.3057580">
	<ele>971.40</ele>
	<time>2024-03-25T07:48:52.000Z</time>
</trkpt>
<trkpt lat="45.8610180" lon="9.3057720">
	<ele>971.40</ele>
	<time>2024-03-25T07:48:53.000Z</time>
</trkpt>
<trkpt lat="45.8610270" lon="9.3057830">
	<ele>971.60</ele>
	<time>2024-03-25T07:48:54.000Z</time>
</trkpt>
<trkpt lat="45.8610310" lon="9.3057880">
	<ele>971.60</ele>
	<time>2024-03-25T07:48:55.000Z</time>
</trkpt>
<trkpt lat="45.8610400" lon="9.3057950">
	<ele>971.80</ele>
	<time>2024-03-25T07:48:56.000Z</time>
</trkpt>
<trkpt lat="45.8610490" lon="9.3058030">
	<ele>971.80</ele>
	<time>2024-03-25T07:48:57.000Z</time>
</trkpt>
<trkpt lat="45.8610510" lon="9.3058160">
	<ele>972.00</ele>
	<time>2024-03-25T07:48:58.000Z</time>
</trkpt>
<trkpt lat="45.8610580" lon="9.3058360">
	<ele>972.20</ele>
	<time>2024-03-25T07:48:59.000Z</time>
</trkpt>
<trkpt lat="45.8610640" lon="9.3058560">
	<ele>972.20</ele>
	<time>2024-03-25T07:49:00.000Z</time>
</trkpt>
<trkpt lat="45.8610760" lon="9.3058800">
	<ele>972.40</ele>
	<time>2024-03-25T07:49:01.000Z</time>
</trkpt>
<trkpt lat="45.8610830" lon="9.3058980">
	<ele>972.40</ele>
	<time>2024-03-25T07:49:02.000Z</time>
</trkpt>
<trkpt lat="45.8610930" lon="9.3059050">
	<ele>972.80</ele>
	<time>2024-03-25T07:49:03.000Z</time>
</trkpt>
<trkpt lat="45.8610960" lon="9.3059060">
	<ele>973.00</ele>
	<time>2024-03-25T07:49:04.000Z</time>
</trkpt>
<trkpt lat="45.8611030" lon="9.3059090">
	<ele>973.40</ele>
	<time>2024-03-25T07:49:05.000Z</time>
</trkpt>
<trkpt lat="45.8611080" lon="9.3059220">
	<ele>973.60</ele>
	<time>2024-03-25T07:49:06.000Z</time>
</trkpt>
<trkpt lat="45.8611160" lon="9.3059310">
	<ele>973.60</ele>
	<time>2024-03-25T07:49:07.000Z</time>
</trkpt>
<trkpt lat="45.8611220" lon="9.3059430">
	<ele>973.80</ele>
	<time>2024-03-25T07:49:08.000Z</time>
</trkpt>
<trkpt lat="45.8611250" lon="9.3059420">
	<ele>974.00</ele>
	<time>2024-03-25T07:49:09.000Z</time>
</trkpt>
<trkpt lat="45.8611320" lon="9.3059530">
	<ele>974.00</ele>
	<time>2024-03-25T07:49:10.000Z</time>
</trkpt>
<trkpt lat="45.8611380" lon="9.3059590">
	<ele>974.00</ele>
	<time>2024-03-25T07:49:11.000Z</time>
</trkpt>
<trkpt lat="45.8611390" lon="9.3059600">
	<ele>974.00</ele>
	<time>2024-03-25T07:49:12.000Z</time>
</trkpt>
<trkpt lat="45.8611400" lon="9.3059740">
	<ele>974.20</ele>
	<time>2024-03-25T07:49:13.000Z</time>
</trkpt>
<trkpt lat="45.8611500" lon="9.3059860">
	<ele>974.20</ele>
	<time>2024-03-25T07:49:14.000Z</time>
</trkpt>
<trkpt lat="45.8611530" lon="9.3059850">
	<ele>974.40</ele>
	<time>2024-03-25T07:49:15.000Z</time>
</trkpt>
<trkpt lat="45.8611540" lon="9.3059800">
	<ele>974.40</ele>
	<time>2024-03-25T07:49:16.000Z</time>
</trkpt>
<trkpt lat="45.8611650" lon="9.3059900">
	<ele>974.60</ele>
	<time>2024-03-25T07:49:17.000Z</time>
</trkpt>
<trkpt lat="45.8611660" lon="9.3059890">
	<ele>974.60</ele>
	<time>2024-03-25T07:49:18.000Z</time>
</trkpt>
<trkpt lat="45.8611710" lon="9.3059960">
	<ele>974.80</ele>
	<time>2024-03-25T07:49:19.000Z</time>
</trkpt>
<trkpt lat="45.8611790" lon="9.3060030">
	<ele>974.80</ele>
	<time>2024-03-25T07:49:20.000Z</time>
</trkpt>
<trkpt lat="45.8611930" lon="9.3060100">
	<ele>974.80</ele>
	<time>2024-03-25T07:49:21.000Z</time>
</trkpt>
<trkpt lat="45.8612010" lon="9.3060160">
	<ele>974.80</ele>
	<time>2024-03-25T07:49:22.000Z</time>
</trkpt>
<trkpt lat="45.8612120" lon="9.3060240">
	<ele>975.00</ele>
	<time>2024-03-25T07:49:23.000Z</time>
</trkpt>
<trkpt lat="45.8612240" lon="9.3060370">
	<ele>975.00</ele>
	<time>2024-03-25T07:49:24.000Z</time>
</trkpt>
<trkpt lat="45.8612390" lon="9.3060540">
	<ele>975.20</ele>
	<time>2024-03-25T07:49:25.000Z</time>
</trkpt>
<trkpt lat="45.8612520" lon="9.3060780">
	<ele>975.20</ele>
	<time>2024-03-25T07:49:26.000Z</time>
</trkpt>
<trkpt lat="45.8612590" lon="9.3060920">
	<ele>975.40</ele>
	<time>2024-03-25T07:49:27.000Z</time>
</trkpt>
<trkpt lat="45.8612640" lon="9.3061060">
	<ele>975.60</ele>
	<time>2024-03-25T07:49:28.000Z</time>
</trkpt>
<trkpt lat="45.8612670" lon="9.3061160">
	<ele>975.80</ele>
	<time>2024-03-25T07:49:29.000Z</time>
</trkpt>
<trkpt lat="45.8612700" lon="9.3061280">
	<ele>976.00</ele>
	<time>2024-03-25T07:49:30.000Z</time>
</trkpt>
<trkpt lat="45.8612750" lon="9.3061370">
	<ele>976.20</ele>
	<time>2024-03-25T07:49:31.000Z</time>
</trkpt>
<trkpt lat="45.8612770" lon="9.3061530">
	<ele>976.40</ele>
	<time>2024-03-25T07:49:32.000Z</time>
</trkpt>
<trkpt lat="45.8612740" lon="9.3061550">
	<ele>976.60</ele>
	<time>2024-03-25T07:49:33.000Z</time>
</trkpt>
<trkpt lat="45.8612760" lon="9.3061610">
	<ele>976.60</ele>
	<time>2024-03-25T07:49:34.000Z</time>
</trkpt>
<trkpt lat="45.8612720" lon="9.3061730">
	<ele>976.80</ele>
	<time>2024-03-25T07:49:35.000Z</time>
</trkpt>
<trkpt lat="45.8612760" lon="9.3061890">
	<ele>977.20</ele>
	<time>2024-03-25T07:49:36.000Z</time>
</trkpt>
<trkpt lat="45.8612840" lon="9.3062140">
	<ele>977.40</ele>
	<time>2024-03-25T07:49:37.000Z</time>
</trkpt>
<trkpt lat="45.8612880" lon="9.3062260">
	<ele>977.60</ele>
	<time>2024-03-25T07:49:38.000Z</time>
</trkpt>
<trkpt lat="45.8612880" lon="9.3062390">
	<ele>977.60</ele>
	<time>2024-03-25T07:49:39.000Z</time>
</trkpt>
<trkpt lat="45.8612880" lon="9.3062430">
	<ele>977.80</ele>
	<time>2024-03-25T07:49:40.000Z</time>
</trkpt>
<trkpt lat="45.8612850" lon="9.3062430">
	<ele>978.00</ele>
	<time>2024-03-25T07:49:41.000Z</time>
</trkpt>
<trkpt lat="45.8612840" lon="9.3062520">
	<ele>978.20</ele>
	<time>2024-03-25T07:49:42.000Z</time>
</trkpt>
<trkpt lat="45.8612830" lon="9.3062600">
	<ele>978.40</ele>
	<time>2024-03-25T07:49:43.000Z</time>
</trkpt>
<trkpt lat="45.8612810" lon="9.3062790">
	<ele>978.60</ele>
	<time>2024-03-25T07:49:44.000Z</time>
</trkpt>
<trkpt lat="45.8612860" lon="9.3062930">
	<ele>979.00</ele>
	<time>2024-03-25T07:49:45.000Z</time>
</trkpt>
<trkpt lat="45.8612910" lon="9.3063040">
	<ele>979.00</ele>
	<time>2024-03-25T07:49:46.000Z</time>
</trkpt>
<trkpt lat="45.8612950" lon="9.3063110">
	<ele>979.40</ele>
	<time>2024-03-25T07:49:47.000Z</time>
</trkpt>
<trkpt lat="45.8612970" lon="9.3063140">
	<ele>979.60</ele>
	<time>2024-03-25T07:49:48.000Z</time>
</trkpt>
<trkpt lat="45.8612960" lon="9.3063230">
	<ele>979.80</ele>
	<time>2024-03-25T07:49:49.000Z</time>
</trkpt>
<trkpt lat="45.8612960" lon="9.3063290">
	<ele>980.00</ele>
	<time>2024-03-25T07:49:50.000Z</time>
</trkpt>
<trkpt lat="45.8613050" lon="9.3063360">
	<ele>980.40</ele>
	<time>2024-03-25T07:49:51.000Z</time>
</trkpt>
<trkpt lat="45.8613150" lon="9.3063450">
	<ele>980.60</ele>
	<time>2024-03-25T07:49:52.000Z</time>
</trkpt>
<trkpt lat="45.8613250" lon="9.3063570">
	<ele>980.80</ele>
	<time>2024-03-25T07:49:53.000Z</time>
</trkpt>
<trkpt lat="45.8613280" lon="9.3063660">
	<ele>981.00</ele>
	<time>2024-03-25T07:49:54.000Z</time>
</trkpt>
<trkpt lat="45.8613330" lon="9.3063700">
	<ele>981.00</ele>
	<time>2024-03-25T07:49:55.000Z</time>
</trkpt>
<trkpt lat="45.8613360" lon="9.3063730">
	<ele>981.40</ele>
	<time>2024-03-25T07:49:56.000Z</time>
</trkpt>
<trkpt lat="45.8613360" lon="9.3063790">
	<ele>981.40</ele>
	<time>2024-03-25T07:49:57.000Z</time>
</trkpt>
<trkpt lat="45.8613350" lon="9.3063850">
	<ele>981.80</ele>
	<time>2024-03-25T07:49:58.000Z</time>
</trkpt>
<trkpt lat="45.8613360" lon="9.3063880">
	<ele>982.20</ele>
	<time>2024-03-25T07:49:59.000Z</time>
</trkpt>
<trkpt lat="45.8613310" lon="9.3063940">
	<ele>982.20</ele>
	<time>2024-03-25T07:50:00.000Z</time>
</trkpt>
<trkpt lat="45.8613280" lon="9.3063950">
	<ele>982.40</ele>
	<time>2024-03-25T07:50:01.000Z</time>
</trkpt>
<trkpt lat="45.8613300" lon="9.3063940">
	<ele>982.80</ele>
	<time>2024-03-25T07:50:02.000Z</time>
</trkpt>
<trkpt lat="45.8613360" lon="9.3064000">
	<ele>983.00</ele>
	<time>2024-03-25T07:50:03.000Z</time>
</trkpt>
<trkpt lat="45.8613380" lon="9.3064050">
	<ele>983.00</ele>
	<time>2024-03-25T07:50:04.000Z</time>
</trkpt>
<trkpt lat="45.8613380" lon="9.3064160">
	<ele>983.20</ele>
	<time>2024-03-25T07:50:05.000Z</time>
</trkpt>
<trkpt lat="45.8613380" lon="9.3064150">
	<ele>983.40</ele>
	<time>2024-03-25T07:50:06.000Z</time>
</trkpt>
<trkpt lat="45.8613430" lon="9.3064200">
	<ele>983.60</ele>
	<time>2024-03-25T07:50:07.000Z</time>
</trkpt>
<trkpt lat="45.8613410" lon="9.3064230">
	<ele>983.60</ele>
	<time>2024-03-25T07:50:08.000Z</time>
</trkpt>
<trkpt lat="45.8613410" lon="9.3064280">
	<ele>983.80</ele>
	<time>2024-03-25T07:50:09.000Z</time>
</trkpt>
<trkpt lat="45.8613400" lon="9.3064340">
	<ele>984.00</ele>
	<time>2024-03-25T07:50:10.000Z</time>
</trkpt>
<trkpt lat="45.8613380" lon="9.3064450">
	<ele>984.20</ele>
	<time>2024-03-25T07:50:11.000Z</time>
</trkpt>
<trkpt lat="45.8613380" lon="9.3064520">
	<ele>984.20</ele>
	<time>2024-03-25T07:50:12.000Z</time>
</trkpt>
<trkpt lat="45.8613380" lon="9.3064570">
	<ele>984.40</ele>
	<time>2024-03-25T07:50:13.000Z</time>
</trkpt>
<trkpt lat="45.8613390" lon="9.3064660">
	<ele>984.40</ele>
	<time>2024-03-25T07:50:14.000Z</time>
</trkpt>
<trkpt lat="45.8613420" lon="9.3064810">
	<ele>984.60</ele>
	<time>2024-03-25T07:50:15.000Z</time>
</trkpt>
<trkpt lat="45.8613440" lon="9.3064940">
	<ele>984.80</ele>
	<time>2024-03-25T07:50:16.000Z</time>
</trkpt>
<trkpt lat="45.8613470" lon="9.3065010">
	<ele>984.80</ele>
	<time>2024-03-25T07:50:17.000Z</time>
</trkpt>
<trkpt lat="45.8613500" lon="9.3065080">
	<ele>985.20</ele>
	<time>2024-03-25T07:50:18.000Z</time>
</trkpt>
<trkpt lat="45.8613560" lon="9.3065150">
	<ele>985.40</ele>
	<time>2024-03-25T07:50:19.000Z</time>
</trkpt>
<trkpt lat="45.8613650" lon="9.3065280">
	<ele>985.60</ele>
	<time>2024-03-25T07:50:20.000Z</time>
</trkpt>
<trkpt lat="45.8613700" lon="9.3065440">
	<ele>985.80</ele>
	<time>2024-03-25T07:50:21.000Z</time>
</trkpt>
<trkpt lat="45.8613730" lon="9.3065450">
	<ele>986.20</ele>
	<time>2024-03-25T07:50:22.000Z</time>
</trkpt>
<trkpt lat="45.8613760" lon="9.3065440">
	<ele>986.40</ele>
	<time>2024-03-25T07:50:23.000Z</time>
</trkpt>
<trkpt lat="45.8613760" lon="9.3065440">
	<ele>986.60</ele>
	<time>2024-03-25T07:50:24.000Z</time>
</trkpt>
<trkpt lat="45.8613760" lon="9.3065440">
	<ele>986.80</ele>
	<time>2024-03-25T07:50:25.000Z</time>
</trkpt>
<trkpt lat="45.8613760" lon="9.3065490">
	<ele>986.80</ele>
	<time>2024-03-25T07:50:26.000Z</time>
</trkpt>
<trkpt lat="45.8613770" lon="9.3065510">
	<ele>987.00</ele>
	<time>2024-03-25T07:50:27.000Z</time>
</trkpt>
<trkpt lat="45.8613780" lon="9.3065520">
	<ele>987.20</ele>
	<time>2024-03-25T07:50:28.000Z</time>
</trkpt>
<trkpt lat="45.8613820" lon="9.3065610">
	<ele>987.20</ele>
	<time>2024-03-25T07:50:29.000Z</time>
</trkpt>
<trkpt lat="45.8613810" lon="9.3065600">
	<ele>987.40</ele>
	<time>2024-03-25T07:50:30.000Z</time>
</trkpt>
<trkpt lat="45.8613800" lon="9.3065640">
	<ele>987.60</ele>
	<time>2024-03-25T07:50:31.000Z</time>
</trkpt>
<trkpt lat="45.8613830" lon="9.3065670">
	<ele>987.80</ele>
	<time>2024-03-25T07:50:32.000Z</time>
</trkpt>
<trkpt lat="45.8613890" lon="9.3065770">
	<ele>988.00</ele>
	<time>2024-03-25T07:50:33.000Z</time>
</trkpt>
<trkpt lat="45.8613960" lon="9.3065860">
	<ele>988.20</ele>
	<time>2024-03-25T07:50:34.000Z</time>
</trkpt>
<trkpt lat="45.8614050" lon="9.3065940">
	<ele>988.40</ele>
	<time>2024-03-25T07:50:35.000Z</time>
</trkpt>
<trkpt lat="45.8614120" lon="9.3066040">
	<ele>988.60</ele>
	<time>2024-03-25T07:50:36.000Z</time>
</trkpt>
<trkpt lat="45.8614120" lon="9.3066070">
	<ele>988.80</ele>
	<time>2024-03-25T07:50:37.000Z</time>
</trkpt>
<trkpt lat="45.8614120" lon="9.3066040">
	<ele>988.80</ele>
	<time>2024-03-25T07:50:38.000Z</time>
</trkpt>
<trkpt lat="45.8614120" lon="9.3066040">
	<ele>989.00</ele>
	<time>2024-03-25T07:50:39.000Z</time>
</trkpt>
<trkpt lat="45.8614120" lon="9.3066040">
	<ele>989.20</ele>
	<time>2024-03-25T07:50:40.000Z</time>
</trkpt>
<trkpt lat="45.8614120" lon="9.3066040">
	<ele>989.20</ele>
	<time>2024-03-25T07:50:41.000Z</time>
</trkpt>
<trkpt lat="45.8614120" lon="9.3066040">
	<ele>989.60</ele>
	<time>2024-03-25T07:50:42.000Z</time>
</trkpt>
<trkpt lat="45.8614120" lon="9.3066040">
	<ele>989.80</ele>
	<time>2024-03-25T07:50:43.000Z</time>
</trkpt>
<trkpt lat="45.8614120" lon="9.3066040">
	<ele>990.00</ele>
	<time>2024-03-25T07:50:44.000Z</time>
</trkpt>
<trkpt lat="45.8614120" lon="9.3066040">
	<ele>990.20</ele>
	<time>2024-03-25T07:50:45.000Z</time>
</trkpt>
<trkpt lat="45.8614120" lon="9.3066040">
	<ele>990.40</ele>
	<time>2024-03-25T07:50:46.000Z</time>
</trkpt>
<trkpt lat="45.8614120" lon="9.3066040">
	<ele>990.40</ele>
	<time>2024-03-25T07:50:47.000Z</time>
</trkpt>
<trkpt lat="45.8614090" lon="9.3066040">
	<ele>990.60</ele>
	<time>2024-03-25T07:50:48.000Z</time>
</trkpt>
<trkpt lat="45.8614070" lon="9.3066040">
	<ele>990.60</ele>
	<time>2024-03-25T07:50:49.000Z</time>
</trkpt>
<trkpt lat="45.8614050" lon="9.3066040">
	<ele>990.80</ele>
	<time>2024-03-25T07:50:50.000Z</time>
</trkpt>
<trkpt lat="45.8614030" lon="9.3066040">
	<ele>990.80</ele>
	<time>2024-03-25T07:50:51.000Z</time>
</trkpt>
<trkpt lat="45.8613990" lon="9.3066040">
	<ele>991.20</ele>
	<time>2024-03-25T07:50:52.000Z</time>
</trkpt>
<trkpt lat="45.8613970" lon="9.3066040">
	<ele>991.40</ele>
	<time>2024-03-25T07:50:53.000Z</time>
</trkpt>
<trkpt lat="45.8613960" lon="9.3066040">
	<ele>991.40</ele>
	<time>2024-03-25T07:50:54.000Z</time>
</trkpt>
<trkpt lat="45.8613930" lon="9.3066070">
	<ele>991.60</ele>
	<time>2024-03-25T07:50:55.000Z</time>
</trkpt>
<trkpt lat="45.8613920" lon="9.3066080">
	<ele>991.80</ele>
	<time>2024-03-25T07:50:56.000Z</time>
</trkpt>
<trkpt lat="45.8613920" lon="9.3066110">
	<ele>991.80</ele>
	<time>2024-03-25T07:50:57.000Z</time>
</trkpt>
<trkpt lat="45.8613910" lon="9.3066210">
	<ele>992.00</ele>
	<time>2024-03-25T07:50:58.000Z</time>
</trkpt>
<trkpt lat="45.8613900" lon="9.3066240">
	<ele>992.00</ele>
	<time>2024-03-25T07:50:59.000Z</time>
</trkpt>
<trkpt lat="45.8613900" lon="9.3066320">
	<ele>992.60</ele>
	<time>2024-03-25T07:51:00.000Z</time>
</trkpt>
<trkpt lat="45.8613900" lon="9.3066380">
	<ele>992.80</ele>
	<time>2024-03-25T07:51:01.000Z</time>
</trkpt>
<trkpt lat="45.8613910" lon="9.3066430">
	<ele>993.00</ele>
	<time>2024-03-25T07:51:02.000Z</time>
</trkpt>
<trkpt lat="45.8613910" lon="9.3066440">
	<ele>993.20</ele>
	<time>2024-03-25T07:51:03.000Z</time>
</trkpt>
<trkpt lat="45.8613910" lon="9.3066460">
	<ele>993.40</ele>
	<time>2024-03-25T07:51:04.000Z</time>
</trkpt>
<trkpt lat="45.8613910" lon="9.3066510">
	<ele>993.60</ele>
	<time>2024-03-25T07:51:05.000Z</time>
</trkpt>
<trkpt lat="45.8613920" lon="9.3066580">
	<ele>993.60</ele>
	<time>2024-03-25T07:51:06.000Z</time>
</trkpt>
<trkpt lat="45.8613900" lon="9.3066790">
	<ele>993.60</ele>
	<time>2024-03-25T07:51:07.000Z</time>
</trkpt>
<trkpt lat="45.8613880" lon="9.3067000">
	<ele>993.80</ele>
	<time>2024-03-25T07:51:08.000Z</time>
</trkpt>
<trkpt lat="45.8613890" lon="9.3067230">
	<ele>993.80</ele>
	<time>2024-03-25T07:51:09.000Z</time>
</trkpt>
<trkpt lat="45.8613910" lon="9.3067300">
	<ele>994.00</ele>
	<time>2024-03-25T07:51:10.000Z</time>
</trkpt>
<trkpt lat="45.8613960" lon="9.3067480">
	<ele>994.20</ele>
	<time>2024-03-25T07:51:11.000Z</time>
</trkpt>
<trkpt lat="45.8614010" lon="9.3067680">
	<ele>994.40</ele>
	<time>2024-03-25T07:51:12.000Z</time>
</trkpt>
<trkpt lat="45.8614070" lon="9.3067820">
	<ele>994.60</ele>
	<time>2024-03-25T07:51:13.000Z</time>
</trkpt>
<trkpt lat="45.8614100" lon="9.3067940">
	<ele>994.80</ele>
	<time>2024-03-25T07:51:14.000Z</time>
</trkpt>
<trkpt lat="45.8614090" lon="9.3067980">
	<ele>995.00</ele>
	<time>2024-03-25T07:51:15.000Z</time>
</trkpt>
<trkpt lat="45.8614080" lon="9.3067980">
	<ele>995.20</ele>
	<time>2024-03-25T07:51:16.000Z</time>
</trkpt>
<trkpt lat="45.8614090" lon="9.3068020">
	<ele>995.40</ele>
	<time>2024-03-25T07:51:17.000Z</time>
</trkpt>
<trkpt lat="45.8614100" lon="9.3067980">
	<ele>995.40</ele>
	<time>2024-03-25T07:51:18.000Z</time>
</trkpt>
<trkpt lat="45.8614120" lon="9.3068000">
	<ele>995.60</ele>
	<time>2024-03-25T07:51:19.000Z</time>
</trkpt>
<trkpt lat="45.8614200" lon="9.3068070">
	<ele>995.80</ele>
	<time>2024-03-25T07:51:20.000Z</time>
</trkpt>
<trkpt lat="45.8614270" lon="9.3068130">
	<ele>996.00</ele>
	<time>2024-03-25T07:51:21.000Z</time>
</trkpt>
<trkpt lat="45.8614350" lon="9.3068240">
	<ele>996.20</ele>
	<time>2024-03-25T07:51:22.000Z</time>
</trkpt>
<trkpt lat="45.8614370" lon="9.3068280">
	<ele>996.20</ele>
	<time>2024-03-25T07:51:23.000Z</time>
</trkpt>
<trkpt lat="45.8614390" lon="9.3068310">
	<ele>996.60</ele>
	<time>2024-03-25T07:51:24.000Z</time>
</trkpt>
<trkpt lat="45.8614430" lon="9.3068370">
	<ele>996.80</ele>
	<time>2024-03-25T07:51:25.000Z</time>
</trkpt>
<trkpt lat="45.8614500" lon="9.3068440">
	<ele>997.00</ele>
	<time>2024-03-25T07:51:26.000Z</time>
</trkpt>
<trkpt lat="45.8614470" lon="9.3068450">
	<ele>997.20</ele>
	<time>2024-03-25T07:51:27.000Z</time>
</trkpt>
<trkpt lat="45.8614520" lon="9.3068510">
	<ele>997.20</ele>
	<time>2024-03-25T07:51:28.000Z</time>
</trkpt>
<trkpt lat="45.8614540" lon="9.3068520">
	<ele>997.40</ele>
	<time>2024-03-25T07:51:29.000Z</time>
</trkpt>
<trkpt lat="45.8614550" lon="9.3068530">
	<ele>997.40</ele>
	<time>2024-03-25T07:51:30.000Z</time>
</trkpt>
<trkpt lat="45.8614520" lon="9.3068530">
	<ele>997.60</ele>
	<time>2024-03-25T07:51:31.000Z</time>
</trkpt>
<trkpt lat="45.8614510" lon="9.3068510">
	<ele>997.80</ele>
	<time>2024-03-25T07:51:32.000Z</time>
</trkpt>
<trkpt lat="45.8614530" lon="9.3068510">
	<ele>998.00</ele>
	<time>2024-03-25T07:51:33.000Z</time>
</trkpt>
<trkpt lat="45.8614550" lon="9.3068570">
	<ele>998.40</ele>
	<time>2024-03-25T07:51:34.000Z</time>
</trkpt>
<trkpt lat="45.8614620" lon="9.3068620">
	<ele>998.80</ele>
	<time>2024-03-25T07:51:35.000Z</time>
</trkpt>
<trkpt lat="45.8614680" lon="9.3068680">
	<ele>999.00</ele>
	<time>2024-03-25T07:51:36.000Z</time>
</trkpt>
<trkpt lat="45.8614700" lon="9.3068720">
	<ele>999.20</ele>
	<time>2024-03-25T07:51:37.000Z</time>
</trkpt>
<trkpt lat="45.8614760" lon="9.3068780">
	<ele>999.20</ele>
	<time>2024-03-25T07:51:38.000Z</time>
</trkpt>
<trkpt lat="45.8614790" lon="9.3068800">
	<ele>999.40</ele>
	<time>2024-03-25T07:51:39.000Z</time>
</trkpt>
<trkpt lat="45.8614840" lon="9.3068770">
	<ele>999.40</ele>
	<time>2024-03-25T07:51:40.000Z</time>
</trkpt>
<trkpt lat="45.8614870" lon="9.3068730">
	<ele>999.60</ele>
	<time>2024-03-25T07:51:41.000Z</time>
</trkpt>
<trkpt lat="45.8614880" lon="9.3068740">
	<ele>999.80</ele>
	<time>2024-03-25T07:51:42.000Z</time>
</trkpt>
<trkpt lat="45.8614930" lon="9.3068790">
	<ele>1000.00</ele>
	<time>2024-03-25T07:51:43.000Z</time>
</trkpt>
<trkpt lat="45.8614990" lon="9.3068970">
	<ele>1000.20</ele>
	<time>2024-03-25T07:51:44.000Z</time>
</trkpt>
<trkpt lat="45.8615040" lon="9.3069010">
	<ele>1000.40</ele>
	<time>2024-03-25T07:51:45.000Z</time>
</trkpt>
<trkpt lat="45.8615090" lon="9.3069110">
	<ele>1000.40</ele>
	<time>2024-03-25T07:51:46.000Z</time>
</trkpt>
<trkpt lat="45.8615120" lon="9.3069200">
	<ele>1000.60</ele>
	<time>2024-03-25T07:51:47.000Z</time>
</trkpt>
<trkpt lat="45.8615090" lon="9.3069340">
	<ele>1000.80</ele>
	<time>2024-03-25T07:51:48.000Z</time>
</trkpt>
<trkpt lat="45.8615060" lon="9.3069490">
	<ele>1001.00</ele>
	<time>2024-03-25T07:51:49.000Z</time>
</trkpt>
<trkpt lat="45.8615040" lon="9.3069520">
	<ele>1001.00</ele>
	<time>2024-03-25T07:51:50.000Z</time>
</trkpt>
<trkpt lat="45.8614940" lon="9.3069540">
	<ele>1001.20</ele>
	<time>2024-03-25T07:51:51.000Z</time>
</trkpt>
<trkpt lat="45.8614780" lon="9.3069490">
	<ele>1001.20</ele>
	<time>2024-03-25T07:51:52.000Z</time>
</trkpt>
<trkpt lat="45.8614760" lon="9.3069530">
	<ele>1001.40</ele>
	<time>2024-03-25T07:51:53.000Z</time>
</trkpt>
<trkpt lat="45.8614870" lon="9.3069650">
	<ele>1001.60</ele>
	<time>2024-03-25T07:51:54.000Z</time>
</trkpt>
<trkpt lat="45.8614990" lon="9.3069730">
	<ele>1001.60</ele>
	<time>2024-03-25T07:51:55.000Z</time>
</trkpt>
<trkpt lat="45.8615130" lon="9.3069810">
	<ele>1001.80</ele>
	<time>2024-03-25T07:51:56.000Z</time>
</trkpt>
<trkpt lat="45.8615210" lon="9.3069850">
	<ele>1002.20</ele>
	<time>2024-03-25T07:51:57.000Z</time>
</trkpt>
<trkpt lat="45.8615240" lon="9.3069900">
	<ele>1002.40</ele>
	<time>2024-03-25T07:51:58.000Z</time>
</trkpt>
<trkpt lat="45.8615290" lon="9.3069940">
	<ele>1002.60</ele>
	<time>2024-03-25T07:51:59.000Z</time>
</trkpt>
<trkpt lat="45.8615330" lon="9.3069960">
	<ele>1002.80</ele>
	<time>2024-03-25T07:52:00.000Z</time>
</trkpt>
<trkpt lat="45.8615400" lon="9.3070040">
	<ele>1002.80</ele>
	<time>2024-03-25T07:52:01.000Z</time>
</trkpt>
<trkpt lat="45.8615440" lon="9.3070150">
	<ele>1002.80</ele>
	<time>2024-03-25T07:52:02.000Z</time>
</trkpt>
<trkpt lat="45.8615500" lon="9.3070130">
	<ele>1003.00</ele>
	<time>2024-03-25T07:52:03.000Z</time>
</trkpt>
<trkpt lat="45.8615570" lon="9.3070170">
	<ele>1003.00</ele>
	<time>2024-03-25T07:52:04.000Z</time>
</trkpt>
<trkpt lat="45.8615690" lon="9.3070250">
	<ele>1003.00</ele>
	<time>2024-03-25T07:52:05.000Z</time>
</trkpt>
<trkpt lat="45.8615790" lon="9.3070330">
	<ele>1003.00</ele>
	<time>2024-03-25T07:52:06.000Z</time>
</trkpt>
<trkpt lat="45.8615850" lon="9.3070410">
	<ele>1003.20</ele>
	<time>2024-03-25T07:52:07.000Z</time>
</trkpt>
<trkpt lat="45.8615930" lon="9.3070440">
	<ele>1003.40</ele>
	<time>2024-03-25T07:52:08.000Z</time>
</trkpt>
<trkpt lat="45.8615970" lon="9.3070450">
	<ele>1003.60</ele>
	<time>2024-03-25T07:52:09.000Z</time>
</trkpt>
<trkpt lat="45.8616060" lon="9.3070560">
	<ele>1003.80</ele>
	<time>2024-03-25T07:52:10.000Z</time>
</trkpt>
<trkpt lat="45.8616190" lon="9.3070660">
	<ele>1003.80</ele>
	<time>2024-03-25T07:52:11.000Z</time>
</trkpt>
<trkpt lat="45.8616360" lon="9.3070790">
	<ele>1003.80</ele>
	<time>2024-03-25T07:52:12.000Z</time>
</trkpt>
<trkpt lat="45.8616580" lon="9.3070920">
	<ele>1004.00</ele>
	<time>2024-03-25T07:52:13.000Z</time>
</trkpt>
<trkpt lat="45.8616620" lon="9.3070970">
	<ele>1003.80</ele>
	<time>2024-03-25T07:52:14.000Z</time>
</trkpt>
<trkpt lat="45.8616630" lon="9.3070970">
	<ele>1003.80</ele>
	<time>2024-03-25T07:52:15.000Z</time>
</trkpt>
<trkpt lat="45.8616630" lon="9.3070950">
	<ele>1003.80</ele>
	<time>2024-03-25T07:52:16.000Z</time>
</trkpt>
<trkpt lat="45.8616700" lon="9.3070980">
	<ele>1003.80</ele>
	<time>2024-03-25T07:52:17.000Z</time>
</trkpt>
<trkpt lat="45.8616700" lon="9.3070980">
	<ele>1003.80</ele>
	<time>2024-03-25T07:52:18.000Z</time>
</trkpt>
<trkpt lat="45.8616700" lon="9.3070970">
	<ele>1003.80</ele>
	<time>2024-03-25T07:52:19.000Z</time>
</trkpt>
<trkpt lat="45.8616710" lon="9.3070970">
	<ele>1003.80</ele>
	<time>2024-03-25T07:52:20.000Z</time>
</trkpt>
<trkpt lat="45.8616730" lon="9.3070980">
	<ele>1003.80</ele>
	<time>2024-03-25T07:52:21.000Z</time>
</trkpt>
<trkpt lat="45.8616740" lon="9.3070980">
	<ele>1003.80</ele>
	<time>2024-03-25T07:52:22.000Z</time>
</trkpt>
<trkpt lat="45.8616740" lon="9.3070980">
	<ele>1004.00</ele>
	<time>2024-03-25T07:52:23.000Z</time>
</trkpt>
<trkpt lat="45.8616790" lon="9.3070920">
	<ele>1004.00</ele>
	<time>2024-03-25T07:52:24.000Z</time>
</trkpt>
<trkpt lat="45.8616760" lon="9.3070920">
	<ele>1004.00</ele>
	<time>2024-03-25T07:52:25.000Z</time>
</trkpt>
<trkpt lat="45.8616740" lon="9.3070930">
	<ele>1004.00</ele>
	<time>2024-03-25T07:52:26.000Z</time>
</trkpt>
<trkpt lat="45.8616810" lon="9.3070930">
	<ele>1004.00</ele>
	<time>2024-03-25T07:52:27.000Z</time>
</trkpt>
<trkpt lat="45.8616830" lon="9.3070960">
	<ele>1004.00</ele>
	<time>2024-03-25T07:52:28.000Z</time>
</trkpt>
<trkpt lat="45.8616880" lon="9.3071020">
	<ele>1004.20</ele>
	<time>2024-03-25T07:52:29.000Z</time>
</trkpt>
<trkpt lat="45.8616970" lon="9.3071090">
	<ele>1004.20</ele>
	<time>2024-03-25T07:52:30.000Z</time>
</trkpt>
<trkpt lat="45.8617090" lon="9.3071190">
	<ele>1004.20</ele>
	<time>2024-03-25T07:52:31.000Z</time>
</trkpt>
<trkpt lat="45.8617160" lon="9.3071210">
	<ele>1004.40</ele>
	<time>2024-03-25T07:52:32.000Z</time>
</trkpt>
<trkpt lat="45.8617280" lon="9.3071240">
	<ele>1004.40</ele>
	<time>2024-03-25T07:52:33.000Z</time>
</trkpt>
<trkpt lat="45.8617390" lon="9.3071280">
	<ele>1004.60</ele>
	<time>2024-03-25T07:52:34.000Z</time>
</trkpt>
<trkpt lat="45.8617460" lon="9.3071370">
	<ele>1004.60</ele>
	<time>2024-03-25T07:52:35.000Z</time>
</trkpt>
<trkpt lat="45.8617590" lon="9.3071360">
	<ele>1004.60</ele>
	<time>2024-03-25T07:52:36.000Z</time>
</trkpt>
<trkpt lat="45.8617620" lon="9.3071290">
	<ele>1004.60</ele>
	<time>2024-03-25T07:52:37.000Z</time>
</trkpt>
<trkpt lat="45.8617610" lon="9.3071150">
	<ele>1004.60</ele>
	<time>2024-03-25T07:52:38.000Z</time>
</trkpt>
<trkpt lat="45.8617600" lon="9.3071050">
	<ele>1004.60</ele>
	<time>2024-03-25T07:52:39.000Z</time>
</trkpt>
<trkpt lat="45.8617640" lon="9.3070970">
	<ele>1004.60</ele>
	<time>2024-03-25T07:52:40.000Z</time>
</trkpt>
<trkpt lat="45.8617650" lon="9.3070730">
	<ele>1004.60</ele>
	<time>2024-03-25T07:52:41.000Z</time>
</trkpt>
<trkpt lat="45.8617660" lon="9.3070810">
	<ele>1004.60</ele>
	<time>2024-03-25T07:52:42.000Z</time>
</trkpt>
<trkpt lat="45.8617690" lon="9.3070840">
	<ele>1004.60</ele>
	<time>2024-03-25T07:52:43.000Z</time>
</trkpt>
<trkpt lat="45.8617790" lon="9.3070760">
	<ele>1004.60</ele>
	<time>2024-03-25T07:52:44.000Z</time>
</trkpt>
<trkpt lat="45.8617810" lon="9.3070800">
	<ele>1004.60</ele>
	<time>2024-03-25T07:52:45.000Z</time>
</trkpt>
<trkpt lat="45.8617830" lon="9.3070820">
	<ele>1004.60</ele>
	<time>2024-03-25T07:52:46.000Z</time>
</trkpt>
<trkpt lat="45.8617880" lon="9.3070900">
	<ele>1004.60</ele>
	<time>2024-03-25T07:52:47.000Z</time>
</trkpt>
<trkpt lat="45.8617890" lon="9.3070910">
	<ele>1004.60</ele>
	<time>2024-03-25T07:52:48.000Z</time>
</trkpt>
<trkpt lat="45.8617870" lon="9.3070890">
	<ele>1004.60</ele>
	<time>2024-03-25T07:52:49.000Z</time>
</trkpt>
<trkpt lat="45.8617870" lon="9.3070860">
	<ele>1004.60</ele>
	<time>2024-03-25T07:52:50.000Z</time>
</trkpt>
<trkpt lat="45.8617800" lon="9.3070800">
	<ele>1004.60</ele>
	<time>2024-03-25T07:52:51.000Z</time>
</trkpt>
<trkpt lat="45.8617810" lon="9.3070780">
	<ele>1004.60</ele>
	<time>2024-03-25T07:52:52.000Z</time>
</trkpt>
<trkpt lat="45.8617810" lon="9.3070760">
	<ele>1004.60</ele>
	<time>2024-03-25T07:52:53.000Z</time>
</trkpt>
<trkpt lat="45.8617510" lon="9.3070360">
	<ele>1004.40</ele>
	<time>2024-03-25T07:52:54.000Z</time>
</trkpt>
<trkpt lat="45.8617480" lon="9.3070350">
	<ele>1004.40</ele>
	<time>2024-03-25T07:52:55.000Z</time>
</trkpt>
<trkpt lat="45.8617480" lon="9.3070320">
	<ele>1004.40</ele>
	<time>2024-03-25T07:52:56.000Z</time>
</trkpt>
<trkpt lat="45.8617460" lon="9.3070340">
	<ele>1004.20</ele>
	<time>2024-03-25T07:52:57.000Z</time>
</trkpt>
<trkpt lat="45.8617450" lon="9.3070310">
	<ele>1004.20</ele>
	<time>2024-03-25T07:52:58.000Z</time>
</trkpt>
<trkpt lat="45.8617470" lon="9.3070330">
	<ele>1004.20</ele>
	<time>2024-03-25T07:52:59.000Z</time>
</trkpt>
<trkpt lat="45.8617490" lon="9.3070340">
	<ele>1004.20</ele>
	<time>2024-03-25T07:53:00.000Z</time>
</trkpt>
<trkpt lat="45.8617470" lon="9.3070310">
	<ele>1004.20</ele>
	<time>2024-03-25T07:53:01.000Z</time>
</trkpt>
<trkpt lat="45.8617350" lon="9.3070190">
	<ele>1004.00</ele>
	<time>2024-03-25T07:53:02.000Z</time>
</trkpt>
<trkpt lat="45.8617210" lon="9.3070070">
	<ele>1004.00</ele>
	<time>2024-03-25T07:53:03.000Z</time>
</trkpt>
<trkpt lat="45.8617150" lon="9.3069990">
	<ele>1004.00</ele>
	<time>2024-03-25T07:53:04.000Z</time>
</trkpt>
<trkpt lat="45.8617250" lon="9.3070080">
	<ele>1004.00</ele>
	<time>2024-03-25T07:53:05.000Z</time>
</trkpt>
<trkpt lat="45.8617290" lon="9.3070130">
	<ele>1004.20</ele>
	<time>2024-03-25T07:53:06.000Z</time>
</trkpt>
<trkpt lat="45.8617290" lon="9.3070110">
	<ele>1004.20</ele>
	<time>2024-03-25T07:53:07.000Z</time>
</trkpt>
<trkpt lat="45.8617350" lon="9.3070180">
	<ele>1004.20</ele>
	<time>2024-03-25T07:53:08.000Z</time>
</trkpt>
<trkpt lat="45.8617370" lon="9.3070200">
	<ele>1004.20</ele>
	<time>2024-03-25T07:53:09.000Z</time>
</trkpt>
<trkpt lat="45.8617400" lon="9.3070230">
	<ele>1004.20</ele>
	<time>2024-03-25T07:53:10.000Z</time>
</trkpt>
<trkpt lat="45.8617420" lon="9.3070290">
	<ele>1004.40</ele>
	<time>2024-03-25T07:53:11.000Z</time>
</trkpt>
<trkpt lat="45.8617440" lon="9.3070350">
	<ele>1004.40</ele>
	<time>2024-03-25T07:53:12.000Z</time>
</trkpt>
<trkpt lat="45.8617450" lon="9.3070400">
	<ele>1004.40</ele>
	<time>2024-03-25T07:53:13.000Z</time>
</trkpt>
<trkpt lat="45.8617480" lon="9.3070430">
	<ele>1004.40</ele>
	<time>2024-03-25T07:53:14.000Z</time>
</trkpt>
<trkpt lat="45.8617530" lon="9.3070500">
	<ele>1004.40</ele>
	<time>2024-03-25T07:53:15.000Z</time>
</trkpt>
<trkpt lat="45.8617590" lon="9.3070590">
	<ele>1004.40</ele>
	<time>2024-03-25T07:53:16.000Z</time>
</trkpt>
<trkpt lat="45.8617660" lon="9.3070700">
	<ele>1004.40</ele>
	<time>2024-03-25T07:53:17.000Z</time>
</trkpt>
<trkpt lat="45.8617770" lon="9.3070850">
	<ele>1004.40</ele>
	<time>2024-03-25T07:53:18.000Z</time>
</trkpt>
<trkpt lat="45.8617930" lon="9.3071010">
	<ele>1004.40</ele>
	<time>2024-03-25T07:53:19.000Z</time>
</trkpt>
<trkpt lat="45.8618110" lon="9.3071250">
	<ele>1004.40</ele>
	<time>2024-03-25T07:53:20.000Z</time>
</trkpt>
<trkpt lat="45.8618390" lon="9.3071390">
	<ele>1004.40</ele>
	<time>2024-03-25T07:53:21.000Z</time>
</trkpt>
<trkpt lat="45.8618150" lon="9.3071200">
	<ele>1004.40</ele>
	<time>2024-03-25T07:53:22.000Z</time>
</trkpt>
<trkpt lat="45.8618350" lon="9.3071430">
	<ele>1004.20</ele>
	<time>2024-03-25T07:53:23.000Z</time>
</trkpt>
<trkpt lat="45.8618370" lon="9.3071420">
	<ele>1004.20</ele>
	<time>2024-03-25T07:53:24.000Z</time>
</trkpt>
<trkpt lat="45.8618140" lon="9.3071160">
	<ele>1004.20</ele>
	<time>2024-03-25T07:53:25.000Z</time>
</trkpt>
<trkpt lat="45.8617910" lon="9.3070890">
	<ele>1004.20</ele>
	<time>2024-03-25T07:53:26.000Z</time>
</trkpt>
<trkpt lat="45.8617770" lon="9.3070840">
	<ele>1004.20</ele>
	<time>2024-03-25T07:53:27.000Z</time>
</trkpt>
<trkpt lat="45.8617770" lon="9.3070810">
	<ele>1004.20</ele>
	<time>2024-03-25T07:53:28.000Z</time>
</trkpt>
<trkpt lat="45.8617690" lon="9.3070870">
	<ele>1004.20</ele>
	<time>2024-03-25T07:53:29.000Z</time>
</trkpt>
<trkpt lat="45.8617590" lon="9.3070920">
	<ele>1004.40</ele>
	<time>2024-03-25T07:53:30.000Z</time>
</trkpt>
<trkpt lat="45.8617590" lon="9.3070870">
	<ele>1004.40</ele>
	<time>2024-03-25T07:53:31.000Z</time>
</trkpt>
<trkpt lat="45.8617570" lon="9.3071040">
	<ele>1004.60</ele>
	<time>2024-03-25T07:53:32.000Z</time>
</trkpt>
<trkpt lat="45.8617580" lon="9.3071230">
	<ele>1004.80</ele>
	<time>2024-03-25T07:53:33.000Z</time>
</trkpt>
<trkpt lat="45.8617710" lon="9.3071400">
	<ele>1005.00</ele>
	<time>2024-03-25T07:53:34.000Z</time>
</trkpt>
<trkpt lat="45.8617810" lon="9.3071580">
	<ele>1005.40</ele>
	<time>2024-03-25T07:53:35.000Z</time>
</trkpt>
<trkpt lat="45.8617870" lon="9.3071710">
	<ele>1005.60</ele>
	<time>2024-03-25T07:53:36.000Z</time>
</trkpt>
<trkpt lat="45.8617980" lon="9.3071860">
	<ele>1005.80</ele>
	<time>2024-03-25T07:53:37.000Z</time>
</trkpt>
<trkpt lat="45.8618010" lon="9.3071880">
	<ele>1005.80</ele>
	<time>2024-03-25T07:53:38.000Z</time>
</trkpt>
<trkpt lat="45.8617960" lon="9.3072010">
	<ele>1006.00</ele>
	<time>2024-03-25T07:53:39.000Z</time>
</trkpt>
<trkpt lat="45.8617810" lon="9.3072110">
	<ele>1006.00</ele>
	<time>2024-03-25T07:53:40.000Z</time>
</trkpt>
<trkpt lat="45.8617710" lon="9.3072210">
	<ele>1006.20</ele>
	<time>2024-03-25T07:53:41.000Z</time>
</trkpt>
<trkpt lat="45.8617660" lon="9.3072310">
	<ele>1006.40</ele>
	<time>2024-03-25T07:53:42.000Z</time>
</trkpt>
<trkpt lat="45.8617610" lon="9.3072370">
	<ele>1006.60</ele>
	<time>2024-03-25T07:53:43.000Z</time>
</trkpt>
<trkpt lat="45.8617620" lon="9.3072440">
	<ele>1006.80</ele>
	<time>2024-03-25T07:53:44.000Z</time>
</trkpt>
<trkpt lat="45.8617640" lon="9.3072500">
	<ele>1006.80</ele>
	<time>2024-03-25T07:53:45.000Z</time>
</trkpt>
<trkpt lat="45.8617650" lon="9.3072570">
	<ele>1007.00</ele>
	<time>2024-03-25T07:53:46.000Z</time>
</trkpt>
<trkpt lat="45.8617660" lon="9.3072620">
	<ele>1007.20</ele>
	<time>2024-03-25T07:53:47.000Z</time>
</trkpt>
<trkpt lat="45.8617650" lon="9.3072660">
	<ele>1007.40</ele>
	<time>2024-03-25T07:53:48.000Z</time>
</trkpt>
<trkpt lat="45.8617600" lon="9.3072750">
	<ele>1007.40</ele>
	<time>2024-03-25T07:53:49.000Z</time>
</trkpt>
<trkpt lat="45.8617580" lon="9.3072770">
	<ele>1007.80</ele>
	<time>2024-03-25T07:53:50.000Z</time>
</trkpt>
<trkpt lat="45.8617520" lon="9.3072760">
	<ele>1008.00</ele>
	<time>2024-03-25T07:53:51.000Z</time>
</trkpt>
<trkpt lat="45.8617490" lon="9.3072850">
	<ele>1008.20</ele>
	<time>2024-03-25T07:53:52.000Z</time>
</trkpt>
<trkpt lat="45.8617480" lon="9.3072960">
	<ele>1008.40</ele>
	<time>2024-03-25T07:53:53.000Z</time>
</trkpt>
<trkpt lat="45.8617520" lon="9.3073050">
	<ele>1008.60</ele>
	<time>2024-03-25T07:53:54.000Z</time>
</trkpt>
<trkpt lat="45.8617520" lon="9.3073100">
	<ele>1008.80</ele>
	<time>2024-03-25T07:53:55.000Z</time>
</trkpt>
<trkpt lat="45.8617550" lon="9.3073200">
	<ele>1009.00</ele>
	<time>2024-03-25T07:53:56.000Z</time>
</trkpt>
<trkpt lat="45.8617550" lon="9.3073330">
	<ele>1009.20</ele>
	<time>2024-03-25T07:53:57.000Z</time>
</trkpt>
<trkpt lat="45.8617600" lon="9.3073450">
	<ele>1009.60</ele>
	<time>2024-03-25T07:53:58.000Z</time>
</trkpt>
<trkpt lat="45.8617660" lon="9.3073590">
	<ele>1010.00</ele>
	<time>2024-03-25T07:53:59.000Z</time>
</trkpt>
<trkpt lat="45.8617730" lon="9.3073670">
	<ele>1010.00</ele>
	<time>2024-03-25T07:54:00.000Z</time>
</trkpt>
<trkpt lat="45.8617800" lon="9.3073690">
	<ele>1010.20</ele>
	<time>2024-03-25T07:54:01.000Z</time>
</trkpt>
<trkpt lat="45.8617800" lon="9.3073740">
	<ele>1010.60</ele>
	<time>2024-03-25T07:54:02.000Z</time>
</trkpt>
<trkpt lat="45.8617800" lon="9.3073810">
	<ele>1010.60</ele>
	<time>2024-03-25T07:54:03.000Z</time>
</trkpt>
<trkpt lat="45.8617740" lon="9.3073930">
	<ele>1010.80</ele>
	<time>2024-03-25T07:54:04.000Z</time>
</trkpt>
<trkpt lat="45.8617740" lon="9.3074010">
	<ele>1011.00</ele>
	<time>2024-03-25T07:54:05.000Z</time>
</trkpt>
<trkpt lat="45.8617670" lon="9.3074060">
	<ele>1011.20</ele>
	<time>2024-03-25T07:54:06.000Z</time>
</trkpt>
<trkpt lat="45.8617630" lon="9.3074080">
	<ele>1011.40</ele>
	<time>2024-03-25T07:54:07.000Z</time>
</trkpt>
<trkpt lat="45.8617570" lon="9.3074090">
	<ele>1011.60</ele>
	<time>2024-03-25T07:54:08.000Z</time>
</trkpt>
<trkpt lat="45.8617550" lon="9.3074140">
	<ele>1011.60</ele>
	<time>2024-03-25T07:54:09.000Z</time>
</trkpt>
<trkpt lat="45.8617510" lon="9.3074150">
	<ele>1012.00</ele>
	<time>2024-03-25T07:54:10.000Z</time>
</trkpt>
<trkpt lat="45.8617490" lon="9.3074150">
	<ele>1012.20</ele>
	<time>2024-03-25T07:54:11.000Z</time>
</trkpt>
<trkpt lat="45.8617450" lon="9.3074190">
	<ele>1012.60</ele>
	<time>2024-03-25T07:54:12.000Z</time>
</trkpt>
<trkpt lat="45.8617380" lon="9.3074230">
	<ele>1012.80</ele>
	<time>2024-03-25T07:54:13.000Z</time>
</trkpt>
<trkpt lat="45.8617310" lon="9.3074310">
	<ele>1013.00</ele>
	<time>2024-03-25T07:54:14.000Z</time>
</trkpt>
<trkpt lat="45.8617220" lon="9.3074350">
	<ele>1013.20</ele>
	<time>2024-03-25T07:54:15.000Z</time>
</trkpt>
<trkpt lat="45.8617210" lon="9.3074360">
	<ele>1013.20</ele>
	<time>2024-03-25T07:54:16.000Z</time>
</trkpt>
<trkpt lat="45.8617160" lon="9.3074290">
	<ele>1013.40</ele>
	<time>2024-03-25T07:54:17.000Z</time>
</trkpt>
<trkpt lat="45.8617170" lon="9.3074300">
	<ele>1013.40</ele>
	<time>2024-03-25T07:54:18.000Z</time>
</trkpt>
<trkpt lat="45.8617180" lon="9.3074320">
	<ele>1014.00</ele>
	<time>2024-03-25T07:54:19.000Z</time>
</trkpt>
<trkpt lat="45.8617180" lon="9.3074320">
	<ele>1014.20</ele>
	<time>2024-03-25T07:54:20.000Z</time>
</trkpt>
<trkpt lat="45.8617330" lon="9.3074440">
	<ele>1014.60</ele>
	<time>2024-03-25T07:54:21.000Z</time>
</trkpt>
<trkpt lat="45.8617470" lon="9.3074570">
	<ele>1014.60</ele>
	<time>2024-03-25T07:54:22.000Z</time>
</trkpt>
<trkpt lat="45.8617510" lon="9.3074680">
	<ele>1014.80</ele>
	<time>2024-03-25T07:54:23.000Z</time>
</trkpt>
<trkpt lat="45.8617540" lon="9.3074730">
	<ele>1014.80</ele>
	<time>2024-03-25T07:54:24.000Z</time>
</trkpt>
<trkpt lat="45.8617550" lon="9.3074740">
	<ele>1014.80</ele>
	<time>2024-03-25T07:54:25.000Z</time>
</trkpt>
<trkpt lat="45.8617490" lon="9.3074730">
	<ele>1015.00</ele>
	<time>2024-03-25T07:54:26.000Z</time>
</trkpt>
<trkpt lat="45.8617520" lon="9.3074810">
	<ele>1015.40</ele>
	<time>2024-03-25T07:54:27.000Z</time>
</trkpt>
<trkpt lat="45.8617580" lon="9.3074910">
	<ele>1015.60</ele>
	<time>2024-03-25T07:54:28.000Z</time>
</trkpt>
<trkpt lat="45.8617650" lon="9.3075020">
	<ele>1015.60</ele>
	<time>2024-03-25T07:54:29.000Z</time>
</trkpt>
<trkpt lat="45.8617670" lon="9.3075090">
	<ele>1016.00</ele>
	<time>2024-03-25T07:54:30.000Z</time>
</trkpt>
<trkpt lat="45.8617680" lon="9.3075160">
	<ele>1016.00</ele>
	<time>2024-03-25T07:54:31.000Z</time>
</trkpt>
<trkpt lat="45.8617690" lon="9.3075190">
	<ele>1016.20</ele>
	<time>2024-03-25T07:54:32.000Z</time>
</trkpt>
<trkpt lat="45.8617700" lon="9.3075250">
	<ele>1016.40</ele>
	<time>2024-03-25T07:54:33.000Z</time>
</trkpt>
<trkpt lat="45.8617680" lon="9.3075220">
	<ele>1016.40</ele>
	<time>2024-03-25T07:54:34.000Z</time>
</trkpt>
<trkpt lat="45.8617710" lon="9.3075390">
	<ele>1016.40</ele>
	<time>2024-03-25T07:54:35.000Z</time>
</trkpt>
<trkpt lat="45.8617690" lon="9.3075400">
	<ele>1016.20</ele>
	<time>2024-03-25T07:54:36.000Z</time>
</trkpt>
<trkpt lat="45.8617680" lon="9.3075420">
	<ele>1016.20</ele>
	<time>2024-03-25T07:54:37.000Z</time>
</trkpt>
<trkpt lat="45.8617710" lon="9.3075560">
	<ele>1016.40</ele>
	<time>2024-03-25T07:54:38.000Z</time>
</trkpt>
<trkpt lat="45.8617750" lon="9.3075610">
	<ele>1016.40</ele>
	<time>2024-03-25T07:54:39.000Z</time>
</trkpt>
<trkpt lat="45.8617810" lon="9.3075640">
	<ele>1016.40</ele>
	<time>2024-03-25T07:54:40.000Z</time>
</trkpt>
<trkpt lat="45.8617840" lon="9.3075680">
	<ele>1016.40</ele>
	<time>2024-03-25T07:54:41.000Z</time>
</trkpt>
<trkpt lat="45.8617830" lon="9.3075700">
	<ele>1016.60</ele>
	<time>2024-03-25T07:54:42.000Z</time>
</trkpt>
<trkpt lat="45.8617820" lon="9.3075700">
	<ele>1016.60</ele>
	<time>2024-03-25T07:54:43.000Z</time>
</trkpt>
<trkpt lat="45.8617830" lon="9.3075720">
	<ele>1016.60</ele>
	<time>2024-03-25T07:54:44.000Z</time>
</trkpt>
<trkpt lat="45.8617830" lon="9.3075800">
	<ele>1016.60</ele>
	<time>2024-03-25T07:54:45.000Z</time>
</trkpt>
<trkpt lat="45.8617830" lon="9.3075850">
	<ele>1016.60</ele>
	<time>2024-03-25T07:54:46.000Z</time>
</trkpt>
<trkpt lat="45.8617830" lon="9.3075970">
	<ele>1016.60</ele>
	<time>2024-03-25T07:54:47.000Z</time>
</trkpt>
<trkpt lat="45.8617870" lon="9.3076100">
	<ele>1016.80</ele>
	<time>2024-03-25T07:54:48.000Z</time>
</trkpt>
<trkpt lat="45.8617860" lon="9.3076230">
	<ele>1016.80</ele>
	<time>2024-03-25T07:54:49.000Z</time>
</trkpt>
<trkpt lat="45.8617850" lon="9.3076280">
	<ele>1017.00</ele>
	<time>2024-03-25T07:54:50.000Z</time>
</trkpt>
<trkpt lat="45.8617900" lon="9.3076350">
	<ele>1017.20</ele>
	<time>2024-03-25T07:54:51.000Z</time>
</trkpt>
<trkpt lat="45.8617950" lon="9.3076470">
	<ele>1017.40</ele>
	<time>2024-03-25T07:54:52.000Z</time>
</trkpt>
<trkpt lat="45.8617980" lon="9.3076580">
	<ele>1017.60</ele>
	<time>2024-03-25T07:54:53.000Z</time>
</trkpt>
<trkpt lat="45.8617960" lon="9.3076680">
	<ele>1017.60</ele>
	<time>2024-03-25T07:54:54.000Z</time>
</trkpt>
<trkpt lat="45.8617960" lon="9.3076710">
	<ele>1018.00</ele>
	<time>2024-03-25T07:54:55.000Z</time>
</trkpt>
<trkpt lat="45.8618010" lon="9.3076820">
	<ele>1018.20</ele>
	<time>2024-03-25T07:54:56.000Z</time>
</trkpt>
<trkpt lat="45.8617980" lon="9.3076920">
	<ele>1018.40</ele>
	<time>2024-03-25T07:54:57.000Z</time>
</trkpt>
<trkpt lat="45.8617970" lon="9.3077020">
	<ele>1018.40</ele>
	<time>2024-03-25T07:54:58.000Z</time>
</trkpt>
<trkpt lat="45.8617990" lon="9.3077150">
	<ele>1018.60</ele>
	<time>2024-03-25T07:54:59.000Z</time>
</trkpt>
<trkpt lat="45.8617970" lon="9.3077170">
	<ele>1018.60</ele>
	<time>2024-03-25T07:55:00.000Z</time>
</trkpt>
<trkpt lat="45.8618000" lon="9.3077250">
	<ele>1018.60</ele>
	<time>2024-03-25T07:55:01.000Z</time>
</trkpt>
<trkpt lat="45.8617950" lon="9.3077310">
	<ele>1018.60</ele>
	<time>2024-03-25T07:55:02.000Z</time>
</trkpt>
<trkpt lat="45.8617910" lon="9.3077410">
	<ele>1018.60</ele>
	<time>2024-03-25T07:55:03.000Z</time>
</trkpt>
<trkpt lat="45.8617890" lon="9.3077520">
	<ele>1018.60</ele>
	<time>2024-03-25T07:55:04.000Z</time>
</trkpt>
<trkpt lat="45.8617950" lon="9.3077720">
	<ele>1018.60</ele>
	<time>2024-03-25T07:55:05.000Z</time>
</trkpt>
<trkpt lat="45.8618000" lon="9.3077900">
	<ele>1018.40</ele>
	<time>2024-03-25T07:55:06.000Z</time>
</trkpt>
<trkpt lat="45.8618050" lon="9.3078010">
	<ele>1018.40</ele>
	<time>2024-03-25T07:55:07.000Z</time>
</trkpt>
<trkpt lat="45.8618070" lon="9.3078180">
	<ele>1018.60</ele>
	<time>2024-03-25T07:55:08.000Z</time>
</trkpt>
<trkpt lat="45.8618090" lon="9.3078380">
	<ele>1018.60</ele>
	<time>2024-03-25T07:55:09.000Z</time>
</trkpt>
<trkpt lat="45.8618110" lon="9.3078550">
	<ele>1018.60</ele>
	<time>2024-03-25T07:55:10.000Z</time>
</trkpt>
<trkpt lat="45.8618150" lon="9.3078700">
	<ele>1018.80</ele>
	<time>2024-03-25T07:55:11.000Z</time>
</trkpt>
<trkpt lat="45.8618220" lon="9.3078820">
	<ele>1019.00</ele>
	<time>2024-03-25T07:55:12.000Z</time>
</trkpt>
<trkpt lat="45.8618270" lon="9.3078900">
	<ele>1019.20</ele>
	<time>2024-03-25T07:55:13.000Z</time>
</trkpt>
<trkpt lat="45.8618320" lon="9.3079020">
	<ele>1019.40</ele>
	<time>2024-03-25T07:55:14.000Z</time>
</trkpt>
<trkpt lat="45.8618290" lon="9.3079130">
	<ele>1019.60</ele>
	<time>2024-03-25T07:55:15.000Z</time>
</trkpt>
<trkpt lat="45.8618310" lon="9.3079270">
	<ele>1019.80</ele>
	<time>2024-03-25T07:55:16.000Z</time>
</trkpt>
<trkpt lat="45.8618310" lon="9.3079400">
	<ele>1019.80</ele>
	<time>2024-03-25T07:55:17.000Z</time>
</trkpt>
<trkpt lat="45.8618330" lon="9.3079510">
	<ele>1020.00</ele>
	<time>2024-03-25T07:55:18.000Z</time>
</trkpt>
<trkpt lat="45.8618390" lon="9.3079640">
	<ele>1020.00</ele>
	<time>2024-03-25T07:55:19.000Z</time>
</trkpt>
<trkpt lat="45.8618460" lon="9.3079800">
	<ele>1020.20</ele>
	<time>2024-03-25T07:55:20.000Z</time>
</trkpt>
<trkpt lat="45.8618500" lon="9.3079910">
	<ele>1020.40</ele>
	<time>2024-03-25T07:55:21.000Z</time>
</trkpt>
<trkpt lat="45.8618490" lon="9.3079970">
	<ele>1020.80</ele>
	<time>2024-03-25T07:55:22.000Z</time>
</trkpt>
<trkpt lat="45.8618590" lon="9.3080160">
	<ele>1021.20</ele>
	<time>2024-03-25T07:55:23.000Z</time>
</trkpt>
<trkpt lat="45.8618680" lon="9.3080280">
	<ele>1021.40</ele>
	<time>2024-03-25T07:55:24.000Z</time>
</trkpt>
<trkpt lat="45.8618750" lon="9.3080420">
	<ele>1021.60</ele>
	<time>2024-03-25T07:55:25.000Z</time>
</trkpt>
<trkpt lat="45.8618790" lon="9.3080550">
	<ele>1021.80</ele>
	<time>2024-03-25T07:55:26.000Z</time>
</trkpt>
<trkpt lat="45.8618830" lon="9.3080640">
	<ele>1021.80</ele>
	<time>2024-03-25T07:55:27.000Z</time>
</trkpt>
<trkpt lat="45.8618910" lon="9.3080790">
	<ele>1022.00</ele>
	<time>2024-03-25T07:55:28.000Z</time>
</trkpt>
<trkpt lat="45.8618960" lon="9.3080910">
	<ele>1022.00</ele>
	<time>2024-03-25T07:55:29.000Z</time>
</trkpt>
<trkpt lat="45.8618970" lon="9.3080990">
	<ele>1022.00</ele>
	<time>2024-03-25T07:55:30.000Z</time>
</trkpt>
<trkpt lat="45.8618980" lon="9.3081140">
	<ele>1022.00</ele>
	<time>2024-03-25T07:55:31.000Z</time>
</trkpt>
<trkpt lat="45.8618960" lon="9.3081300">
	<ele>1022.20</ele>
	<time>2024-03-25T07:55:32.000Z</time>
</trkpt>
<trkpt lat="45.8618970" lon="9.3081460">
	<ele>1022.40</ele>
	<time>2024-03-25T07:55:33.000Z</time>
</trkpt>
<trkpt lat="45.8619010" lon="9.3081590">
	<ele>1022.60</ele>
	<time>2024-03-25T07:55:34.000Z</time>
</trkpt>
<trkpt lat="45.8619020" lon="9.3081680">
	<ele>1022.80</ele>
	<time>2024-03-25T07:55:35.000Z</time>
</trkpt>
<trkpt lat="45.8619040" lon="9.3081780">
	<ele>1022.80</ele>
	<time>2024-03-25T07:55:36.000Z</time>
</trkpt>
<trkpt lat="45.8619000" lon="9.3081860">
	<ele>1023.00</ele>
	<time>2024-03-25T07:55:37.000Z</time>
</trkpt>
<trkpt lat="45.8618970" lon="9.3082000">
	<ele>1023.40</ele>
	<time>2024-03-25T07:55:38.000Z</time>
</trkpt>
<trkpt lat="45.8618950" lon="9.3082120">
	<ele>1023.60</ele>
	<time>2024-03-25T07:55:39.000Z</time>
</trkpt>
<trkpt lat="45.8618960" lon="9.3082220">
	<ele>1023.80</ele>
	<time>2024-03-25T07:55:40.000Z</time>
</trkpt>
<trkpt lat="45.8618960" lon="9.3082350">
	<ele>1024.00</ele>
	<time>2024-03-25T07:55:41.000Z</time>
</trkpt>
<trkpt lat="45.8618930" lon="9.3082480">
	<ele>1024.20</ele>
	<time>2024-03-25T07:55:42.000Z</time>
</trkpt>
<trkpt lat="45.8618920" lon="9.3082600">
	<ele>1024.20</ele>
	<time>2024-03-25T07:55:43.000Z</time>
</trkpt>
<trkpt lat="45.8618910" lon="9.3082620">
	<ele>1024.40</ele>
	<time>2024-03-25T07:55:44.000Z</time>
</trkpt>
<trkpt lat="45.8618940" lon="9.3082640">
	<ele>1024.80</ele>
	<time>2024-03-25T07:55:45.000Z</time>
</trkpt>
<trkpt lat="45.8618970" lon="9.3082690">
	<ele>1025.00</ele>
	<time>2024-03-25T07:55:46.000Z</time>
</trkpt>
<trkpt lat="45.8618920" lon="9.3082730">
	<ele>1025.20</ele>
	<time>2024-03-25T07:55:47.000Z</time>
</trkpt>
<trkpt lat="45.8618890" lon="9.3082770">
	<ele>1025.20</ele>
	<time>2024-03-25T07:55:48.000Z</time>
</trkpt>
<trkpt lat="45.8618880" lon="9.3082850">
	<ele>1025.40</ele>
	<time>2024-03-25T07:55:49.000Z</time>
</trkpt>
<trkpt lat="45.8618980" lon="9.3082960">
	<ele>1025.40</ele>
	<time>2024-03-25T07:55:50.000Z</time>
</trkpt>
<trkpt lat="45.8618980" lon="9.3083020">
	<ele>1025.40</ele>
	<time>2024-03-25T07:55:51.000Z</time>
</trkpt>
<trkpt lat="45.8618960" lon="9.3083050">
	<ele>1025.40</ele>
	<time>2024-03-25T07:55:52.000Z</time>
</trkpt>
<trkpt lat="45.8619030" lon="9.3083190">
	<ele>1025.60</ele>
	<time>2024-03-25T07:55:53.000Z</time>
</trkpt>
<trkpt lat="45.8619150" lon="9.3083320">
	<ele>1025.60</ele>
	<time>2024-03-25T07:55:54.000Z</time>
</trkpt>
<trkpt lat="45.8619250" lon="9.3083430">
	<ele>1025.60</ele>
	<time>2024-03-25T07:55:55.000Z</time>
</trkpt>
<trkpt lat="45.8619300" lon="9.3083550">
	<ele>1025.80</ele>
	<time>2024-03-25T07:55:56.000Z</time>
</trkpt>
<trkpt lat="45.8619400" lon="9.3083710">
	<ele>1025.80</ele>
	<time>2024-03-25T07:55:57.000Z</time>
</trkpt>
<trkpt lat="45.8619470" lon="9.3083880">
	<ele>1025.80</ele>
	<time>2024-03-25T07:55:58.000Z</time>
</trkpt>
<trkpt lat="45.8619490" lon="9.3083950">
	<ele>1025.80</ele>
	<time>2024-03-25T07:55:59.000Z</time>
</trkpt>
<trkpt lat="45.8619550" lon="9.3084130">
	<ele>1025.80</ele>
	<time>2024-03-25T07:56:00.000Z</time>
</trkpt>
<trkpt lat="45.8619650" lon="9.3084320">
	<ele>1026.00</ele>
	<time>2024-03-25T07:56:01.000Z</time>
</trkpt>
<trkpt lat="45.8619720" lon="9.3084480">
	<ele>1026.00</ele>
	<time>2024-03-25T07:56:02.000Z</time>
</trkpt>
<trkpt lat="45.8619770" lon="9.3084660">
	<ele>1026.20</ele>
	<time>2024-03-25T07:56:03.000Z</time>
</trkpt>
<trkpt lat="45.8619840" lon="9.3084840">
	<ele>1026.20</ele>
	<time>2024-03-25T07:56:04.000Z</time>
</trkpt>
<trkpt lat="45.8619900" lon="9.3085010">
	<ele>1026.40</ele>
	<time>2024-03-25T07:56:05.000Z</time>
</trkpt>
<trkpt lat="45.8620050" lon="9.3085170">
	<ele>1026.40</ele>
	<time>2024-03-25T07:56:06.000Z</time>
</trkpt>
<trkpt lat="45.8620200" lon="9.3085310">
	<ele>1026.40</ele>
	<time>2024-03-25T07:56:07.000Z</time>
</trkpt>
<trkpt lat="45.8620370" lon="9.3085530">
	<ele>1026.20</ele>
	<time>2024-03-25T07:56:08.000Z</time>
</trkpt>
<trkpt lat="45.8620450" lon="9.3085740">
	<ele>1026.00</ele>
	<time>2024-03-25T07:56:09.000Z</time>
</trkpt>
<trkpt lat="45.8620490" lon="9.3085890">
	<ele>1026.00</ele>
	<time>2024-03-25T07:56:10.000Z</time>
</trkpt>
<trkpt lat="45.8620590" lon="9.3086030">
	<ele>1026.00</ele>
	<time>2024-03-25T07:56:11.000Z</time>
</trkpt>
<trkpt lat="45.8620680" lon="9.3086150">
	<ele>1025.80</ele>
	<time>2024-03-25T07:56:12.000Z</time>
</trkpt>
<trkpt lat="45.8620700" lon="9.3086290">
	<ele>1025.80</ele>
	<time>2024-03-25T07:56:13.000Z</time>
</trkpt>
<trkpt lat="45.8620670" lon="9.3086390">
	<ele>1025.80</ele>
	<time>2024-03-25T07:56:14.000Z</time>
</trkpt>
<trkpt lat="45.8620700" lon="9.3086510">
	<ele>1025.80</ele>
	<time>2024-03-25T07:56:15.000Z</time>
</trkpt>
<trkpt lat="45.8620750" lon="9.3086610">
	<ele>1025.60</ele>
	<time>2024-03-25T07:56:16.000Z</time>
</trkpt>
<trkpt lat="45.8620810" lon="9.3086740">
	<ele>1025.60</ele>
	<time>2024-03-25T07:56:17.000Z</time>
</trkpt>
<trkpt lat="45.8620940" lon="9.3086960">
	<ele>1025.60</ele>
	<time>2024-03-25T07:56:18.000Z</time>
</trkpt>
<trkpt lat="45.8621060" lon="9.3087090">
	<ele>1025.60</ele>
	<time>2024-03-25T07:56:19.000Z</time>
</trkpt>
<trkpt lat="45.8621190" lon="9.3087240">
	<ele>1025.60</ele>
	<time>2024-03-25T07:56:20.000Z</time>
</trkpt>
<trkpt lat="45.8621270" lon="9.3087370">
	<ele>1025.60</ele>
	<time>2024-03-25T07:56:21.000Z</time>
</trkpt>
<trkpt lat="45.8621340" lon="9.3087520">
	<ele>1025.60</ele>
	<time>2024-03-25T07:56:22.000Z</time>
</trkpt>
<trkpt lat="45.8621420" lon="9.3087700">
	<ele>1025.80</ele>
	<time>2024-03-25T07:56:23.000Z</time>
</trkpt>
<trkpt lat="45.8621480" lon="9.3087890">
	<ele>1025.80</ele>
	<time>2024-03-25T07:56:24.000Z</time>
</trkpt>
<trkpt lat="45.8621610" lon="9.3088080">
	<ele>1025.80</ele>
	<time>2024-03-25T07:56:25.000Z</time>
</trkpt>
<trkpt lat="45.8621750" lon="9.3088250">
	<ele>1025.80</ele>
	<time>2024-03-25T07:56:26.000Z</time>
</trkpt>
<trkpt lat="45.8621850" lon="9.3088420">
	<ele>1026.00</ele>
	<time>2024-03-25T07:56:27.000Z</time>
</trkpt>
<trkpt lat="45.8621970" lon="9.3088650">
	<ele>1026.00</ele>
	<time>2024-03-25T07:56:28.000Z</time>
</trkpt>
<trkpt lat="45.8622020" lon="9.3088830">
	<ele>1026.00</ele>
	<time>2024-03-25T07:56:29.000Z</time>
</trkpt>
<trkpt lat="45.8622110" lon="9.3088980">
	<ele>1026.20</ele>
	<time>2024-03-25T07:56:30.000Z</time>
</trkpt>
<trkpt lat="45.8622200" lon="9.3089180">
	<ele>1026.20</ele>
	<time>2024-03-25T07:56:31.000Z</time>
</trkpt>
<trkpt lat="45.8622280" lon="9.3089320">
	<ele>1026.20</ele>
	<time>2024-03-25T07:56:32.000Z</time>
</trkpt>
<trkpt lat="45.8622310" lon="9.3089480">
	<ele>1026.40</ele>
	<time>2024-03-25T07:56:33.000Z</time>
</trkpt>
<trkpt lat="45.8622360" lon="9.3089700">
	<ele>1026.40</ele>
	<time>2024-03-25T07:56:34.000Z</time>
</trkpt>
<trkpt lat="45.8622410" lon="9.3089860">
	<ele>1026.40</ele>
	<time>2024-03-25T07:56:35.000Z</time>
</trkpt>
<trkpt lat="45.8622460" lon="9.3089990">
	<ele>1026.60</ele>
	<time>2024-03-25T07:56:36.000Z</time>
</trkpt>
<trkpt lat="45.8622550" lon="9.3090170">
	<ele>1026.60</ele>
	<time>2024-03-25T07:56:37.000Z</time>
</trkpt>
<trkpt lat="45.8622620" lon="9.3090300">
	<ele>1026.80</ele>
	<time>2024-03-25T07:56:38.000Z</time>
</trkpt>
<trkpt lat="45.8622700" lon="9.3090460">
	<ele>1027.00</ele>
	<time>2024-03-25T07:56:39.000Z</time>
</trkpt>
<trkpt lat="45.8622800" lon="9.3090620">
	<ele>1027.20</ele>
	<time>2024-03-25T07:56:40.000Z</time>
</trkpt>
<trkpt lat="45.8622830" lon="9.3090730">
	<ele>1027.20</ele>
	<time>2024-03-25T07:56:41.000Z</time>
</trkpt>
<trkpt lat="45.8622810" lon="9.3090840">
	<ele>1027.40</ele>
	<time>2024-03-25T07:56:42.000Z</time>
</trkpt>
<trkpt lat="45.8622790" lon="9.3090940">
	<ele>1027.60</ele>
	<time>2024-03-25T07:56:43.000Z</time>
</trkpt>
<trkpt lat="45.8622800" lon="9.3091080">
	<ele>1027.80</ele>
	<time>2024-03-25T07:56:44.000Z</time>
</trkpt>
<trkpt lat="45.8622780" lon="9.3091200">
	<ele>1028.00</ele>
	<time>2024-03-25T07:56:45.000Z</time>
</trkpt>
<trkpt lat="45.8622740" lon="9.3091300">
	<ele>1028.20</ele>
	<time>2024-03-25T07:56:46.000Z</time>
</trkpt>
<trkpt lat="45.8622750" lon="9.3091430">
	<ele>1028.40</ele>
	<time>2024-03-25T07:56:47.000Z</time>
</trkpt>
<trkpt lat="45.8622810" lon="9.3091580">
	<ele>1028.60</ele>
	<time>2024-03-25T07:56:48.000Z</time>
</trkpt>
<trkpt lat="45.8622780" lon="9.3091630">
	<ele>1028.80</ele>
	<time>2024-03-25T07:56:49.000Z</time>
</trkpt>
<trkpt lat="45.8622740" lon="9.3091700">
	<ele>1029.00</ele>
	<time>2024-03-25T07:56:50.000Z</time>
</trkpt>
<trkpt lat="45.8622740" lon="9.3091810">
	<ele>1029.20</ele>
	<time>2024-03-25T07:56:51.000Z</time>
</trkpt>
<trkpt lat="45.8622760" lon="9.3091950">
	<ele>1029.40</ele>
	<time>2024-03-25T07:56:52.000Z</time>
</trkpt>
<trkpt lat="45.8622770" lon="9.3092010">
	<ele>1029.60</ele>
	<time>2024-03-25T07:56:53.000Z</time>
</trkpt>
<trkpt lat="45.8622810" lon="9.3092130">
	<ele>1029.80</ele>
	<time>2024-03-25T07:56:54.000Z</time>
</trkpt>
<trkpt lat="45.8622840" lon="9.3092220">
	<ele>1030.00</ele>
	<time>2024-03-25T07:56:55.000Z</time>
</trkpt>
<trkpt lat="45.8622880" lon="9.3092280">
	<ele>1030.20</ele>
	<time>2024-03-25T07:56:56.000Z</time>
</trkpt>
<trkpt lat="45.8622920" lon="9.3092370">
	<ele>1030.40</ele>
	<time>2024-03-25T07:56:57.000Z</time>
</trkpt>
<trkpt lat="45.8622900" lon="9.3092440">
	<ele>1030.40</ele>
	<time>2024-03-25T07:56:58.000Z</time>
</trkpt>
<trkpt lat="45.8622820" lon="9.3092430">
	<ele>1030.60</ele>
	<time>2024-03-25T07:56:59.000Z</time>
</trkpt>
<trkpt lat="45.8622760" lon="9.3092500">
	<ele>1030.80</ele>
	<time>2024-03-25T07:57:00.000Z</time>
</trkpt>
<trkpt lat="45.8622720" lon="9.3092500">
	<ele>1031.00</ele>
	<time>2024-03-25T07:57:01.000Z</time>
</trkpt>
<trkpt lat="45.8622710" lon="9.3092560">
	<ele>1031.40</ele>
	<time>2024-03-25T07:57:02.000Z</time>
</trkpt>
<trkpt lat="45.8622750" lon="9.3092690">
	<ele>1031.80</ele>
	<time>2024-03-25T07:57:03.000Z</time>
</trkpt>
<trkpt lat="45.8622760" lon="9.3092820">
	<ele>1032.00</ele>
	<time>2024-03-25T07:57:04.000Z</time>
</trkpt>
<trkpt lat="45.8622730" lon="9.3092880">
	<ele>1032.00</ele>
	<time>2024-03-25T07:57:05.000Z</time>
</trkpt>
<trkpt lat="45.8622720" lon="9.3092950">
	<ele>1032.40</ele>
	<time>2024-03-25T07:57:06.000Z</time>
</trkpt>
<trkpt lat="45.8622730" lon="9.3093010">
	<ele>1032.60</ele>
	<time>2024-03-25T07:57:07.000Z</time>
</trkpt>
<trkpt lat="45.8622750" lon="9.3093090">
	<ele>1032.80</ele>
	<time>2024-03-25T07:57:08.000Z</time>
</trkpt>
<trkpt lat="45.8622750" lon="9.3093130">
	<ele>1032.80</ele>
	<time>2024-03-25T07:57:09.000Z</time>
</trkpt>
<trkpt lat="45.8622760" lon="9.3093190">
	<ele>1033.00</ele>
	<time>2024-03-25T07:57:10.000Z</time>
</trkpt>
<trkpt lat="45.8622740" lon="9.3093160">
	<ele>1033.20</ele>
	<time>2024-03-25T07:57:11.000Z</time>
</trkpt>
<trkpt lat="45.8622710" lon="9.3093120">
	<ele>1033.20</ele>
	<time>2024-03-25T07:57:12.000Z</time>
</trkpt>
<trkpt lat="45.8622640" lon="9.3093000">
	<ele>1033.40</ele>
	<time>2024-03-25T07:57:13.000Z</time>
</trkpt>
<trkpt lat="45.8622550" lon="9.3092920">
	<ele>1033.60</ele>
	<time>2024-03-25T07:57:14.000Z</time>
</trkpt>
<trkpt lat="45.8622510" lon="9.3092900">
	<ele>1033.80</ele>
	<time>2024-03-25T07:57:15.000Z</time>
</trkpt>
<trkpt lat="45.8622470" lon="9.3092980">
	<ele>1034.20</ele>
	<time>2024-03-25T07:57:16.000Z</time>
</trkpt>
<trkpt lat="45.8622430" lon="9.3093070">
	<ele>1034.60</ele>
	<time>2024-03-25T07:57:17.000Z</time>
</trkpt>
<trkpt lat="45.8622440" lon="9.3093160">
	<ele>1034.80</ele>
	<time>2024-03-25T07:57:18.000Z</time>
</trkpt>
<trkpt lat="45.8622430" lon="9.3093360">
	<ele>1035.20</ele>
	<time>2024-03-25T07:57:19.000Z</time>
</trkpt>
<trkpt lat="45.8622460" lon="9.3093500">
	<ele>1035.40</ele>
	<time>2024-03-25T07:57:20.000Z</time>
</trkpt>
<trkpt lat="45.8622440" lon="9.3093670">
	<ele>1035.40</ele>
	<time>2024-03-25T07:57:21.000Z</time>
</trkpt>
<trkpt lat="45.8622440" lon="9.3093810">
	<ele>1035.80</ele>
	<time>2024-03-25T07:57:22.000Z</time>
</trkpt>
<trkpt lat="45.8622450" lon="9.3093940">
	<ele>1036.00</ele>
	<time>2024-03-25T07:57:23.000Z</time>
</trkpt>
<trkpt lat="45.8622490" lon="9.3094040">
	<ele>1036.20</ele>
	<time>2024-03-25T07:57:24.000Z</time>
</trkpt>
<trkpt lat="45.8622510" lon="9.3094080">
	<ele>1036.40</ele>
	<time>2024-03-25T07:57:25.000Z</time>
</trkpt>
<trkpt lat="45.8622540" lon="9.3094120">
	<ele>1036.60</ele>
	<time>2024-03-25T07:57:26.000Z</time>
</trkpt>
<trkpt lat="45.8622520" lon="9.3094170">
	<ele>1036.60</ele>
	<time>2024-03-25T07:57:27.000Z</time>
</trkpt>
<trkpt lat="45.8622500" lon="9.3094230">
	<ele>1036.80</ele>
	<time>2024-03-25T07:57:28.000Z</time>
</trkpt>
<trkpt lat="45.8622490" lon="9.3094290">
	<ele>1037.00</ele>
	<time>2024-03-25T07:57:29.000Z</time>
</trkpt>
<trkpt lat="45.8622470" lon="9.3094440">
	<ele>1037.20</ele>
	<time>2024-03-25T07:57:30.000Z</time>
</trkpt>
<trkpt lat="45.8622470" lon="9.3094490">
	<ele>1037.20</ele>
	<time>2024-03-25T07:57:31.000Z</time>
</trkpt>
<trkpt lat="45.8622490" lon="9.3094500">
	<ele>1037.40</ele>
	<time>2024-03-25T07:57:32.000Z</time>
</trkpt>
<trkpt lat="45.8622570" lon="9.3094580">
	<ele>1037.60</ele>
	<time>2024-03-25T07:57:33.000Z</time>
</trkpt>
<trkpt lat="45.8622590" lon="9.3094620">
	<ele>1037.80</ele>
	<time>2024-03-25T07:57:34.000Z</time>
</trkpt>
<trkpt lat="45.8622560" lon="9.3094580">
	<ele>1037.80</ele>
	<time>2024-03-25T07:57:35.000Z</time>
</trkpt>
<trkpt lat="45.8622550" lon="9.3094600">
	<ele>1038.00</ele>
	<time>2024-03-25T07:57:36.000Z</time>
</trkpt>
<trkpt lat="45.8622540" lon="9.3094620">
	<ele>1038.20</ele>
	<time>2024-03-25T07:57:37.000Z</time>
</trkpt>
<trkpt lat="45.8622490" lon="9.3094650">
	<ele>1038.40</ele>
	<time>2024-03-25T07:57:38.000Z</time>
</trkpt>
<trkpt lat="45.8622420" lon="9.3094610">
	<ele>1038.40</ele>
	<time>2024-03-25T07:57:39.000Z</time>
</trkpt>
<trkpt lat="45.8622400" lon="9.3094590">
	<ele>1038.60</ele>
	<time>2024-03-25T07:57:40.000Z</time>
</trkpt>
<trkpt lat="45.8622370" lon="9.3094520">
	<ele>1038.80</ele>
	<time>2024-03-25T07:57:41.000Z</time>
</trkpt>
<trkpt lat="45.8622330" lon="9.3094540">
	<ele>1038.80</ele>
	<time>2024-03-25T07:57:42.000Z</time>
</trkpt>
<trkpt lat="45.8622300" lon="9.3094580">
	<ele>1039.00</ele>
	<time>2024-03-25T07:57:43.000Z</time>
</trkpt>
<trkpt lat="45.8622270" lon="9.3094610">
	<ele>1039.20</ele>
	<time>2024-03-25T07:57:44.000Z</time>
</trkpt>
<trkpt lat="45.8622260" lon="9.3094700">
	<ele>1039.40</ele>
	<time>2024-03-25T07:57:45.000Z</time>
</trkpt>
<trkpt lat="45.8622260" lon="9.3094770">
	<ele>1039.60</ele>
	<time>2024-03-25T07:57:46.000Z</time>
</trkpt>
<trkpt lat="45.8622270" lon="9.3094840">
	<ele>1039.60</ele>
	<time>2024-03-25T07:57:47.000Z</time>
</trkpt>
<trkpt lat="45.8622240" lon="9.3094890">
	<ele>1039.80</ele>
	<time>2024-03-25T07:57:48.000Z</time>
</trkpt>
<trkpt lat="45.8622210" lon="9.3094960">
	<ele>1040.20</ele>
	<time>2024-03-25T07:57:49.000Z</time>
</trkpt>
<trkpt lat="45.8622230" lon="9.3095020">
	<ele>1040.40</ele>
	<time>2024-03-25T07:57:50.000Z</time>
</trkpt>
<trkpt lat="45.8622220" lon="9.3095060">
	<ele>1040.60</ele>
	<time>2024-03-25T07:57:51.000Z</time>
</trkpt>
<trkpt lat="45.8622230" lon="9.3095100">
	<ele>1040.60</ele>
	<time>2024-03-25T07:57:52.000Z</time>
</trkpt>
<trkpt lat="45.8622220" lon="9.3095190">
	<ele>1040.80</ele>
	<time>2024-03-25T07:57:53.000Z</time>
</trkpt>
<trkpt lat="45.8622210" lon="9.3095250">
	<ele>1040.80</ele>
	<time>2024-03-25T07:57:54.000Z</time>
</trkpt>
<trkpt lat="45.8622220" lon="9.3095310">
	<ele>1040.80</ele>
	<time>2024-03-25T07:57:55.000Z</time>
</trkpt>
<trkpt lat="45.8622260" lon="9.3095360">
	<ele>1041.00</ele>
	<time>2024-03-25T07:57:56.000Z</time>
</trkpt>
<trkpt lat="45.8622350" lon="9.3095510">
	<ele>1041.20</ele>
	<time>2024-03-25T07:57:57.000Z</time>
</trkpt>
<trkpt lat="45.8622390" lon="9.3095650">
	<ele>1041.40</ele>
	<time>2024-03-25T07:57:58.000Z</time>
</trkpt>
<trkpt lat="45.8622420" lon="9.3095700">
	<ele>1041.80</ele>
	<time>2024-03-25T07:57:59.000Z</time>
</trkpt>
<trkpt lat="45.8622460" lon="9.3095740">
	<ele>1042.20</ele>
	<time>2024-03-25T07:58:00.000Z</time>
</trkpt>
<trkpt lat="45.8622440" lon="9.3095790">
	<ele>1042.40</ele>
	<time>2024-03-25T07:58:01.000Z</time>
</trkpt>
<trkpt lat="45.8622440" lon="9.3095830">
	<ele>1042.60</ele>
	<time>2024-03-25T07:58:02.000Z</time>
</trkpt>
<trkpt lat="45.8622450" lon="9.3095860">
	<ele>1042.80</ele>
	<time>2024-03-25T07:58:03.000Z</time>
</trkpt>
<trkpt lat="45.8622470" lon="9.3095840">
	<ele>1043.00</ele>
	<time>2024-03-25T07:58:04.000Z</time>
</trkpt>
<trkpt lat="45.8622420" lon="9.3095790">
	<ele>1043.00</ele>
	<time>2024-03-25T07:58:05.000Z</time>
</trkpt>
<trkpt lat="45.8622370" lon="9.3095800">
	<ele>1043.00</ele>
	<time>2024-03-25T07:58:06.000Z</time>
</trkpt>
<trkpt lat="45.8622360" lon="9.3095820">
	<ele>1043.20</ele>
	<time>2024-03-25T07:58:07.000Z</time>
</trkpt>
<trkpt lat="45.8622420" lon="9.3095790">
	<ele>1043.40</ele>
	<time>2024-03-25T07:58:08.000Z</time>
</trkpt>
<trkpt lat="45.8622440" lon="9.3095800">
	<ele>1043.60</ele>
	<time>2024-03-25T07:58:09.000Z</time>
</trkpt>
<trkpt lat="45.8622410" lon="9.3095790">
	<ele>1043.80</ele>
	<time>2024-03-25T07:58:10.000Z</time>
</trkpt>
<trkpt lat="45.8622400" lon="9.3095860">
	<ele>1044.00</ele>
	<time>2024-03-25T07:58:11.000Z</time>
</trkpt>
<trkpt lat="45.8622400" lon="9.3095910">
	<ele>1044.20</ele>
	<time>2024-03-25T07:58:12.000Z</time>
</trkpt>
<trkpt lat="45.8622350" lon="9.3095930">
	<ele>1044.40</ele>
	<time>2024-03-25T07:58:13.000Z</time>
</trkpt>
<trkpt lat="45.8622260" lon="9.3095960">
	<ele>1044.60</ele>
	<time>2024-03-25T07:58:14.000Z</time>
</trkpt>
<trkpt lat="45.8622190" lon="9.3096010">
	<ele>1044.80</ele>
	<time>2024-03-25T07:58:15.000Z</time>
</trkpt>
<trkpt lat="45.8622160" lon="9.3096030">
	<ele>1045.00</ele>
	<time>2024-03-25T07:58:16.000Z</time>
</trkpt>
<trkpt lat="45.8622130" lon="9.3096060">
	<ele>1045.20</ele>
	<time>2024-03-25T07:58:17.000Z</time>
</trkpt>
<trkpt lat="45.8622110" lon="9.3096070">
	<ele>1045.40</ele>
	<time>2024-03-25T07:58:18.000Z</time>
</trkpt>
<trkpt lat="45.8622110" lon="9.3096120">
	<ele>1045.60</ele>
	<time>2024-03-25T07:58:19.000Z</time>
</trkpt>
<trkpt lat="45.8622160" lon="9.3096130">
	<ele>1045.60</ele>
	<time>2024-03-25T07:58:20.000Z</time>
</trkpt>
<trkpt lat="45.8622170" lon="9.3096150">
	<ele>1045.80</ele>
	<time>2024-03-25T07:58:21.000Z</time>
</trkpt>
<trkpt lat="45.8622190" lon="9.3096210">
	<ele>1046.00</ele>
	<time>2024-03-25T07:58:22.000Z</time>
</trkpt>
<trkpt lat="45.8622210" lon="9.3096320">
	<ele>1046.20</ele>
	<time>2024-03-25T07:58:23.000Z</time>
</trkpt>
<trkpt lat="45.8622210" lon="9.3096420">
	<ele>1046.40</ele>
	<time>2024-03-25T07:58:24.000Z</time>
</trkpt>
<trkpt lat="45.8622220" lon="9.3096480">
	<ele>1046.80</ele>
	<time>2024-03-25T07:58:25.000Z</time>
</trkpt>
<trkpt lat="45.8622240" lon="9.3096510">
	<ele>1047.00</ele>
	<time>2024-03-25T07:58:26.000Z</time>
</trkpt>
<trkpt lat="45.8622280" lon="9.3096660">
	<ele>1047.20</ele>
	<time>2024-03-25T07:58:27.000Z</time>
</trkpt>
<trkpt lat="45.8622300" lon="9.3096710">
	<ele>1047.20</ele>
	<time>2024-03-25T07:58:28.000Z</time>
</trkpt>
<trkpt lat="45.8622340" lon="9.3096710">
	<ele>1047.20</ele>
	<time>2024-03-25T07:58:29.000Z</time>
</trkpt>
<trkpt lat="45.8622350" lon="9.3096730">
	<ele>1047.40</ele>
	<time>2024-03-25T07:58:30.000Z</time>
</trkpt>
<trkpt lat="45.8622310" lon="9.3096730">
	<ele>1047.60</ele>
	<time>2024-03-25T07:58:31.000Z</time>
</trkpt>
<trkpt lat="45.8622300" lon="9.3096780">
	<ele>1047.80</ele>
	<time>2024-03-25T07:58:32.000Z</time>
</trkpt>
<trkpt lat="45.8622270" lon="9.3096870">
	<ele>1048.00</ele>
	<time>2024-03-25T07:58:33.000Z</time>
</trkpt>
<trkpt lat="45.8622260" lon="9.3096940">
	<ele>1048.20</ele>
	<time>2024-03-25T07:58:34.000Z</time>
</trkpt>
<trkpt lat="45.8622180" lon="9.3096920">
	<ele>1048.40</ele>
	<time>2024-03-25T07:58:35.000Z</time>
</trkpt>
<trkpt lat="45.8622180" lon="9.3096940">
	<ele>1048.40</ele>
	<time>2024-03-25T07:58:36.000Z</time>
</trkpt>
<trkpt lat="45.8622170" lon="9.3097010">
	<ele>1048.60</ele>
	<time>2024-03-25T07:58:37.000Z</time>
</trkpt>
<trkpt lat="45.8622220" lon="9.3097040">
	<ele>1048.80</ele>
	<time>2024-03-25T07:58:38.000Z</time>
</trkpt>
<trkpt lat="45.8622180" lon="9.3097130">
	<ele>1049.00</ele>
	<time>2024-03-25T07:58:39.000Z</time>
</trkpt>
<trkpt lat="45.8622140" lon="9.3097220">
	<ele>1049.20</ele>
	<time>2024-03-25T07:58:40.000Z</time>
</trkpt>
<trkpt lat="45.8622120" lon="9.3097350">
	<ele>1049.20</ele>
	<time>2024-03-25T07:58:41.000Z</time>
</trkpt>
<trkpt lat="45.8622130" lon="9.3097450">
	<ele>1049.20</ele>
	<time>2024-03-25T07:58:42.000Z</time>
</trkpt>
<trkpt lat="45.8622140" lon="9.3097480">
	<ele>1049.40</ele>
	<time>2024-03-25T07:58:43.000Z</time>
</trkpt>
<trkpt lat="45.8622160" lon="9.3097530">
	<ele>1049.60</ele>
	<time>2024-03-25T07:58:44.000Z</time>
</trkpt>
<trkpt lat="45.8622150" lon="9.3097670">
	<ele>1049.80</ele>
	<time>2024-03-25T07:58:45.000Z</time>
</trkpt>
<trkpt lat="45.8622170" lon="9.3097820">
	<ele>1050.00</ele>
	<time>2024-03-25T07:58:46.000Z</time>
</trkpt>
<trkpt lat="45.8622140" lon="9.3097920">
	<ele>1050.20</ele>
	<time>2024-03-25T07:58:47.000Z</time>
</trkpt>
<trkpt lat="45.8622100" lon="9.3098020">
	<ele>1050.40</ele>
	<time>2024-03-25T07:58:48.000Z</time>
</trkpt>
<trkpt lat="45.8622040" lon="9.3098160">
	<ele>1050.60</ele>
	<time>2024-03-25T07:58:49.000Z</time>
</trkpt>
<trkpt lat="45.8622060" lon="9.3098200">
	<ele>1050.80</ele>
	<time>2024-03-25T07:58:50.000Z</time>
</trkpt>
<trkpt lat="45.8622090" lon="9.3098190">
	<ele>1051.20</ele>
	<time>2024-03-25T07:58:51.000Z</time>
</trkpt>
<trkpt lat="45.8622100" lon="9.3098190">
	<ele>1051.40</ele>
	<time>2024-03-25T07:58:52.000Z</time>
</trkpt>
<trkpt lat="45.8622110" lon="9.3098220">
	<ele>1051.60</ele>
	<time>2024-03-25T07:58:53.000Z</time>
</trkpt>
<trkpt lat="45.8622030" lon="9.3098240">
	<ele>1051.60</ele>
	<time>2024-03-25T07:58:54.000Z</time>
</trkpt>
<trkpt lat="45.8622000" lon="9.3098240">
	<ele>1051.80</ele>
	<time>2024-03-25T07:58:55.000Z</time>
</trkpt>
<trkpt lat="45.8621980" lon="9.3098290">
	<ele>1052.20</ele>
	<time>2024-03-25T07:58:56.000Z</time>
</trkpt>
<trkpt lat="45.8621990" lon="9.3098310">
	<ele>1052.20</ele>
	<time>2024-03-25T07:58:57.000Z</time>
</trkpt>
<trkpt lat="45.8621960" lon="9.3098290">
	<ele>1052.40</ele>
	<time>2024-03-25T07:58:58.000Z</time>
</trkpt>
<trkpt lat="45.8621980" lon="9.3098280">
	<ele>1052.60</ele>
	<time>2024-03-25T07:58:59.000Z</time>
</trkpt>
<trkpt lat="45.8622000" lon="9.3098300">
	<ele>1052.60</ele>
	<time>2024-03-25T07:59:00.000Z</time>
</trkpt>
<trkpt lat="45.8622030" lon="9.3098320">
	<ele>1053.00</ele>
	<time>2024-03-25T07:59:01.000Z</time>
</trkpt>
<trkpt lat="45.8622020" lon="9.3098320">
	<ele>1053.00</ele>
	<time>2024-03-25T07:59:02.000Z</time>
</trkpt>
<trkpt lat="45.8622030" lon="9.3098420">
	<ele>1053.20</ele>
	<time>2024-03-25T07:59:03.000Z</time>
</trkpt>
<trkpt lat="45.8622090" lon="9.3098540">
	<ele>1053.20</ele>
	<time>2024-03-25T07:59:04.000Z</time>
</trkpt>
<trkpt lat="45.8622120" lon="9.3098670">
	<ele>1053.40</ele>
	<time>2024-03-25T07:59:05.000Z</time>
</trkpt>
<trkpt lat="45.8622140" lon="9.3098730">
	<ele>1053.40</ele>
	<time>2024-03-25T07:59:06.000Z</time>
</trkpt>
<trkpt lat="45.8622140" lon="9.3098820">
	<ele>1053.60</ele>
	<time>2024-03-25T07:59:07.000Z</time>
</trkpt>
<trkpt lat="45.8622160" lon="9.3098910">
	<ele>1053.80</ele>
	<time>2024-03-25T07:59:08.000Z</time>
</trkpt>
<trkpt lat="45.8622150" lon="9.3098940">
	<ele>1054.00</ele>
	<time>2024-03-25T07:59:09.000Z</time>
</trkpt>
<trkpt lat="45.8622190" lon="9.3099040">
	<ele>1054.20</ele>
	<time>2024-03-25T07:59:10.000Z</time>
</trkpt>
<trkpt lat="45.8622210" lon="9.3099070">
	<ele>1054.40</ele>
	<time>2024-03-25T07:59:11.000Z</time>
</trkpt>
<trkpt lat="45.8622170" lon="9.3099070">
	<ele>1054.40</ele>
	<time>2024-03-25T07:59:12.000Z</time>
</trkpt>
<trkpt lat="45.8622170" lon="9.3099130">
	<ele>1054.80</ele>
	<time>2024-03-25T07:59:13.000Z</time>
</trkpt>
<trkpt lat="45.8622310" lon="9.3099200">
	<ele>1055.20</ele>
	<time>2024-03-25T07:59:14.000Z</time>
</trkpt>
<trkpt lat="45.8622430" lon="9.3099290">
	<ele>1055.40</ele>
	<time>2024-03-25T07:59:15.000Z</time>
</trkpt>
<trkpt lat="45.8622450" lon="9.3099350">
	<ele>1055.60</ele>
	<time>2024-03-25T07:59:16.000Z</time>
</trkpt>
<trkpt lat="45.8622440" lon="9.3099370">
	<ele>1055.60</ele>
	<time>2024-03-25T07:59:17.000Z</time>
</trkpt>
<trkpt lat="45.8622320" lon="9.3099390">
	<ele>1055.80</ele>
	<time>2024-03-25T07:59:18.000Z</time>
</trkpt>
<trkpt lat="45.8622230" lon="9.3099440">
	<ele>1056.00</ele>
	<time>2024-03-25T07:59:19.000Z</time>
</trkpt>
<trkpt lat="45.8622230" lon="9.3099510">
	<ele>1056.00</ele>
	<time>2024-03-25T07:59:20.000Z</time>
</trkpt>
<trkpt lat="45.8622310" lon="9.3099610">
	<ele>1056.20</ele>
	<time>2024-03-25T07:59:21.000Z</time>
</trkpt>
<trkpt lat="45.8622340" lon="9.3099610">
	<ele>1056.40</ele>
	<time>2024-03-25T07:59:22.000Z</time>
</trkpt>
<trkpt lat="45.8622310" lon="9.3099600">
	<ele>1056.60</ele>
	<time>2024-03-25T07:59:23.000Z</time>
</trkpt>
<trkpt lat="45.8622250" lon="9.3099600">
	<ele>1056.80</ele>
	<time>2024-03-25T07:59:24.000Z</time>
</trkpt>
<trkpt lat="45.8622240" lon="9.3099580">
	<ele>1057.00</ele>
	<time>2024-03-25T07:59:25.000Z</time>
</trkpt>
<trkpt lat="45.8622270" lon="9.3099630">
	<ele>1057.00</ele>
	<time>2024-03-25T07:59:26.000Z</time>
</trkpt>
<trkpt lat="45.8622330" lon="9.3099700">
	<ele>1057.00</ele>
	<time>2024-03-25T07:59:27.000Z</time>
</trkpt>
<trkpt lat="45.8622450" lon="9.3099770">
	<ele>1057.20</ele>
	<time>2024-03-25T07:59:28.000Z</time>
</trkpt>
<trkpt lat="45.8622590" lon="9.3099870">
	<ele>1057.20</ele>
	<time>2024-03-25T07:59:29.000Z</time>
</trkpt>
<trkpt lat="45.8622670" lon="9.3099950">
	<ele>1057.40</ele>
	<time>2024-03-25T07:59:30.000Z</time>
</trkpt>
<trkpt lat="45.8622730" lon="9.3100030">
	<ele>1057.40</ele>
	<time>2024-03-25T07:59:31.000Z</time>
</trkpt>
<trkpt lat="45.8622720" lon="9.3100000">
	<ele>1057.60</ele>
	<time>2024-03-25T07:59:32.000Z</time>
</trkpt>
<trkpt lat="45.8622660" lon="9.3099960">
	<ele>1057.60</ele>
	<time>2024-03-25T07:59:33.000Z</time>
</trkpt>
<trkpt lat="45.8622550" lon="9.3099940">
	<ele>1057.60</ele>
	<time>2024-03-25T07:59:34.000Z</time>
</trkpt>
<trkpt lat="45.8622470" lon="9.3099940">
	<ele>1057.60</ele>
	<time>2024-03-25T07:59:35.000Z</time>
</trkpt>
<trkpt lat="45.8622460" lon="9.3099970">
	<ele>1057.60</ele>
	<time>2024-03-25T07:59:36.000Z</time>
</trkpt>
<trkpt lat="45.8622510" lon="9.3100160">
	<ele>1057.80</ele>
	<time>2024-03-25T07:59:37.000Z</time>
</trkpt>
<trkpt lat="45.8622580" lon="9.3100290">
	<ele>1058.00</ele>
	<time>2024-03-25T07:59:38.000Z</time>
</trkpt>
<trkpt lat="45.8622650" lon="9.3100440">
	<ele>1058.00</ele>
	<time>2024-03-25T07:59:39.000Z</time>
</trkpt>
<trkpt lat="45.8622740" lon="9.3100440">
	<ele>1058.20</ele>
	<time>2024-03-25T07:59:40.000Z</time>
</trkpt>
<trkpt lat="45.8622740" lon="9.3100430">
	<ele>1058.20</ele>
	<time>2024-03-25T07:59:41.000Z</time>
</trkpt>
<trkpt lat="45.8622830" lon="9.3100520">
	<ele>1058.40</ele>
	<time>2024-03-25T07:59:42.000Z</time>
</trkpt>
<trkpt lat="45.8622940" lon="9.3100680">
	<ele>1058.60</ele>
	<time>2024-03-25T07:59:43.000Z</time>
</trkpt>
<trkpt lat="45.8623050" lon="9.3100910">
	<ele>1058.60</ele>
	<time>2024-03-25T07:59:44.000Z</time>
</trkpt>
<trkpt lat="45.8623150" lon="9.3101130">
	<ele>1058.60</ele>
	<time>2024-03-25T07:59:45.000Z</time>
</trkpt>
<trkpt lat="45.8623290" lon="9.3101340">
	<ele>1058.80</ele>
	<time>2024-03-25T07:59:46.000Z</time>
</trkpt>
<trkpt lat="45.8623200" lon="9.3101450">
	<ele>1058.80</ele>
	<time>2024-03-25T07:59:47.000Z</time>
</trkpt>
<trkpt lat="45.8623200" lon="9.3101440">
	<ele>1059.00</ele>
	<time>2024-03-25T07:59:48.000Z</time>
</trkpt>
<trkpt lat="45.8623280" lon="9.3101570">
	<ele>1059.20</ele>
	<time>2024-03-25T07:59:49.000Z</time>
</trkpt>
<trkpt lat="45.8623350" lon="9.3101760">
	<ele>1059.40</ele>
	<time>2024-03-25T07:59:50.000Z</time>
</trkpt>
<trkpt lat="45.8623510" lon="9.3101990">
	<ele>1059.40</ele>
	<time>2024-03-25T07:59:51.000Z</time>
</trkpt>
<trkpt lat="45.8623620" lon="9.3102170">
	<ele>1059.40</ele>
	<time>2024-03-25T07:59:52.000Z</time>
</trkpt>
<trkpt lat="45.8623660" lon="9.3102270">
	<ele>1059.60</ele>
	<time>2024-03-25T07:59:53.000Z</time>
</trkpt>
<trkpt lat="45.8623680" lon="9.3102380">
	<ele>1059.80</ele>
	<time>2024-03-25T07:59:54.000Z</time>
</trkpt>
<trkpt lat="45.8623730" lon="9.3102450">
	<ele>1060.00</ele>
	<time>2024-03-25T07:59:55.000Z</time>
</trkpt>
<trkpt lat="45.8623770" lon="9.3102480">
	<ele>1060.20</ele>
	<time>2024-03-25T07:59:56.000Z</time>
</trkpt>
<trkpt lat="45.8623850" lon="9.3102640">
	<ele>1060.60</ele>
	<time>2024-03-25T07:59:57.000Z</time>
</trkpt>
<trkpt lat="45.8623940" lon="9.3102790">
	<ele>1060.60</ele>
	<time>2024-03-25T07:59:58.000Z</time>
</trkpt>
<trkpt lat="45.8623980" lon="9.3102910">
	<ele>1060.80</ele>
	<time>2024-03-25T07:59:59.000Z</time>
</trkpt>
<trkpt lat="45.8624010" lon="9.3102920">
	<ele>1061.00</ele>
	<time>2024-03-25T08:00:00.000Z</time>
</trkpt>
<trkpt lat="45.8624110" lon="9.3103060">
	<ele>1061.00</ele>
	<time>2024-03-25T08:00:01.000Z</time>
</trkpt>
<trkpt lat="45.8624160" lon="9.3103170">
	<ele>1061.00</ele>
	<time>2024-03-25T08:00:02.000Z</time>
</trkpt>
<trkpt lat="45.8624200" lon="9.3103280">
	<ele>1061.20</ele>
	<time>2024-03-25T08:00:03.000Z</time>
</trkpt>
<trkpt lat="45.8624290" lon="9.3103430">
	<ele>1061.20</ele>
	<time>2024-03-25T08:00:04.000Z</time>
</trkpt>
<trkpt lat="45.8624300" lon="9.3103540">
	<ele>1061.20</ele>
	<time>2024-03-25T08:00:05.000Z</time>
</trkpt>
<trkpt lat="45.8624320" lon="9.3103580">
	<ele>1061.40</ele>
	<time>2024-03-25T08:00:06.000Z</time>
</trkpt>
<trkpt lat="45.8624260" lon="9.3103640">
	<ele>1061.40</ele>
	<time>2024-03-25T08:00:07.000Z</time>
</trkpt>
<trkpt lat="45.8624260" lon="9.3103670">
	<ele>1061.40</ele>
	<time>2024-03-25T08:00:08.000Z</time>
</trkpt>
<trkpt lat="45.8624270" lon="9.3103690">
	<ele>1061.60</ele>
	<time>2024-03-25T08:00:09.000Z</time>
</trkpt>
<trkpt lat="45.8624290" lon="9.3103710">
	<ele>1061.60</ele>
	<time>2024-03-25T08:00:10.000Z</time>
</trkpt>
<trkpt lat="45.8624320" lon="9.3103760">
	<ele>1061.60</ele>
	<time>2024-03-25T08:00:11.000Z</time>
</trkpt>
<trkpt lat="45.8624330" lon="9.3103770">
	<ele>1061.60</ele>
	<time>2024-03-25T08:00:12.000Z</time>
</trkpt>
<trkpt lat="45.8624360" lon="9.3103760">
	<ele>1061.60</ele>
	<time>2024-03-25T08:00:13.000Z</time>
</trkpt>
<trkpt lat="45.8624400" lon="9.3103770">
	<ele>1061.60</ele>
	<time>2024-03-25T08:00:14.000Z</time>
</trkpt>
<trkpt lat="45.8624460" lon="9.3103790">
	<ele>1061.60</ele>
	<time>2024-03-25T08:00:15.000Z</time>
</trkpt>
<trkpt lat="45.8624550" lon="9.3103890">
	<ele>1061.60</ele>
	<time>2024-03-25T08:00:16.000Z</time>
</trkpt>
<trkpt lat="45.8624580" lon="9.3103930">
	<ele>1061.80</ele>
	<time>2024-03-25T08:00:17.000Z</time>
</trkpt>
<trkpt lat="45.8624600" lon="9.3103970">
	<ele>1061.80</ele>
	<time>2024-03-25T08:00:18.000Z</time>
</trkpt>
<trkpt lat="45.8624620" lon="9.3104030">
	<ele>1061.80</ele>
	<time>2024-03-25T08:00:19.000Z</time>
</trkpt>
<trkpt lat="45.8624700" lon="9.3104130">
	<ele>1062.00</ele>
	<time>2024-03-25T08:00:20.000Z</time>
</trkpt>
<trkpt lat="45.8624840" lon="9.3104250">
	<ele>1062.20</ele>
	<time>2024-03-25T08:00:21.000Z</time>
</trkpt>
<trkpt lat="45.8624870" lon="9.3104250">
	<ele>1062.20</ele>
	<time>2024-03-25T08:00:22.000Z</time>
</trkpt>
<trkpt lat="45.8624890" lon="9.3104280">
	<ele>1062.20</ele>
	<time>2024-03-25T08:00:23.000Z</time>
</trkpt>
<trkpt lat="45.8624880" lon="9.3104330">
	<ele>1062.20</ele>
	<time>2024-03-25T08:00:24.000Z</time>
</trkpt>
<trkpt lat="45.8624960" lon="9.3104490">
	<ele>1062.40</ele>
	<time>2024-03-25T08:00:25.000Z</time>
</trkpt>
<trkpt lat="45.8625070" lon="9.3104620">
	<ele>1062.40</ele>
	<time>2024-03-25T08:00:26.000Z</time>
</trkpt>
<trkpt lat="45.8625170" lon="9.3104770">
	<ele>1062.40</ele>
	<time>2024-03-25T08:00:27.000Z</time>
</trkpt>
<trkpt lat="45.8625210" lon="9.3104890">
	<ele>1062.60</ele>
	<time>2024-03-25T08:00:28.000Z</time>
</trkpt>
<trkpt lat="45.8625240" lon="9.3105060">
	<ele>1062.60</ele>
	<time>2024-03-25T08:00:29.000Z</time>
</trkpt>
<trkpt lat="45.8625230" lon="9.3105170">
	<ele>1062.60</ele>
	<time>2024-03-25T08:00:30.000Z</time>
</trkpt>
<trkpt lat="45.8625260" lon="9.3105280">
	<ele>1062.80</ele>
	<time>2024-03-25T08:00:31.000Z</time>
</trkpt>
<trkpt lat="45.8625360" lon="9.3105400">
	<ele>1062.80</ele>
	<time>2024-03-25T08:00:32.000Z</time>
</trkpt>
<trkpt lat="45.8625400" lon="9.3105450">
	<ele>1062.80</ele>
	<time>2024-03-25T08:00:33.000Z</time>
</trkpt>
<trkpt lat="45.8625410" lon="9.3105490">
	<ele>1063.00</ele>
	<time>2024-03-25T08:00:34.000Z</time>
</trkpt>
<trkpt lat="45.8625370" lon="9.3105500">
	<ele>1063.00</ele>
	<time>2024-03-25T08:00:35.000Z</time>
</trkpt>
<trkpt lat="45.8625340" lon="9.3105510">
	<ele>1063.00</ele>
	<time>2024-03-25T08:00:36.000Z</time>
</trkpt>
<trkpt lat="45.8625240" lon="9.3105560">
	<ele>1063.20</ele>
	<time>2024-03-25T08:00:37.000Z</time>
</trkpt>
<trkpt lat="45.8625200" lon="9.3105650">
	<ele>1063.20</ele>
	<time>2024-03-25T08:00:38.000Z</time>
</trkpt>
<trkpt lat="45.8625130" lon="9.3105620">
	<ele>1063.20</ele>
	<time>2024-03-25T08:00:39.000Z</time>
</trkpt>
<trkpt lat="45.8625110" lon="9.3105700">
	<ele>1063.40</ele>
	<time>2024-03-25T08:00:40.000Z</time>
</trkpt>
<trkpt lat="45.8625100" lon="9.3105800">
	<ele>1063.40</ele>
	<time>2024-03-25T08:00:41.000Z</time>
</trkpt>
<trkpt lat="45.8625020" lon="9.3105870">
	<ele>1063.60</ele>
	<time>2024-03-25T08:00:42.000Z</time>
</trkpt>
<trkpt lat="45.8624990" lon="9.3105930">
	<ele>1063.60</ele>
	<time>2024-03-25T08:00:43.000Z</time>
</trkpt>
<trkpt lat="45.8624800" lon="9.3105880">
	<ele>1063.80</ele>
	<time>2024-03-25T08:00:44.000Z</time>
</trkpt>
<trkpt lat="45.8624800" lon="9.3105920">
	<ele>1063.80</ele>
	<time>2024-03-25T08:00:45.000Z</time>
</trkpt>
<trkpt lat="45.8624740" lon="9.3105890">
	<ele>1063.80</ele>
	<time>2024-03-25T08:00:46.000Z</time>
</trkpt>
<trkpt lat="45.8624710" lon="9.3105880">
	<ele>1063.80</ele>
	<time>2024-03-25T08:00:47.000Z</time>
</trkpt>
<trkpt lat="45.8624680" lon="9.3105910">
	<ele>1064.00</ele>
	<time>2024-03-25T08:00:48.000Z</time>
</trkpt>
<trkpt lat="45.8624650" lon="9.3105960">
	<ele>1064.00</ele>
	<time>2024-03-25T08:00:49.000Z</time>
</trkpt>
<trkpt lat="45.8624650" lon="9.3105990">
	<ele>1064.00</ele>
	<time>2024-03-25T08:00:50.000Z</time>
</trkpt>
<trkpt lat="45.8624620" lon="9.3106020">
	<ele>1064.20</ele>
	<time>2024-03-25T08:00:51.000Z</time>
</trkpt>
<trkpt lat="45.8624510" lon="9.3105980">
	<ele>1064.20</ele>
	<time>2024-03-25T08:00:52.000Z</time>
</trkpt>
<trkpt lat="45.8624410" lon="9.3105990">
	<ele>1064.20</ele>
	<time>2024-03-25T08:00:53.000Z</time>
</trkpt>
<trkpt lat="45.8624430" lon="9.3106080">
	<ele>1064.20</ele>
	<time>2024-03-25T08:00:54.000Z</time>
</trkpt>
<trkpt lat="45.8624480" lon="9.3106170">
	<ele>1064.60</ele>
	<time>2024-03-25T08:00:55.000Z</time>
</trkpt>
<trkpt lat="45.8624610" lon="9.3106330">
	<ele>1064.80</ele>
	<time>2024-03-25T08:00:56.000Z</time>
</trkpt>
<trkpt lat="45.8624710" lon="9.3106530">
	<ele>1064.80</ele>
	<time>2024-03-25T08:00:57.000Z</time>
</trkpt>
<trkpt lat="45.8624740" lon="9.3106720">
	<ele>1065.00</ele>
	<time>2024-03-25T08:00:58.000Z</time>
</trkpt>
<trkpt lat="45.8624780" lon="9.3106940">
	<ele>1065.00</ele>
	<time>2024-03-25T08:00:59.000Z</time>
</trkpt>
<trkpt lat="45.8624890" lon="9.3107160">
	<ele>1065.20</ele>
	<time>2024-03-25T08:01:00.000Z</time>
</trkpt>
<trkpt lat="45.8624990" lon="9.3107330">
	<ele>1065.20</ele>
	<time>2024-03-25T08:01:01.000Z</time>
</trkpt>
<trkpt lat="45.8625070" lon="9.3107470">
	<ele>1065.40</ele>
	<time>2024-03-25T08:01:02.000Z</time>
</trkpt>
<trkpt lat="45.8625190" lon="9.3107720">
	<ele>1065.40</ele>
	<time>2024-03-25T08:01:03.000Z</time>
</trkpt>
<trkpt lat="45.8625320" lon="9.3107920">
	<ele>1065.60</ele>
	<time>2024-03-25T08:01:04.000Z</time>
</trkpt>
<trkpt lat="45.8625460" lon="9.3108150">
	<ele>1065.80</ele>
	<time>2024-03-25T08:01:05.000Z</time>
</trkpt>
<trkpt lat="45.8625620" lon="9.3108320">
	<ele>1065.80</ele>
	<time>2024-03-25T08:01:06.000Z</time>
</trkpt>
<trkpt lat="45.8625750" lon="9.3108470">
	<ele>1066.00</ele>
	<time>2024-03-25T08:01:07.000Z</time>
</trkpt>
<trkpt lat="45.8625780" lon="9.3108520">
	<ele>1066.20</ele>
	<time>2024-03-25T08:01:08.000Z</time>
</trkpt>
<trkpt lat="45.8625800" lon="9.3108660">
	<ele>1066.40</ele>
	<time>2024-03-25T08:01:09.000Z</time>
</trkpt>
<trkpt lat="45.8625810" lon="9.3108790">
	<ele>1066.40</ele>
	<time>2024-03-25T08:01:10.000Z</time>
</trkpt>
<trkpt lat="45.8625810" lon="9.3108880">
	<ele>1066.60</ele>
	<time>2024-03-25T08:01:11.000Z</time>
</trkpt>
<trkpt lat="45.8625800" lon="9.3108990">
	<ele>1066.60</ele>
	<time>2024-03-25T08:01:12.000Z</time>
</trkpt>
<trkpt lat="45.8625820" lon="9.3109130">
	<ele>1066.80</ele>
	<time>2024-03-25T08:01:13.000Z</time>
</trkpt>
<trkpt lat="45.8625870" lon="9.3109300">
	<ele>1067.00</ele>
	<time>2024-03-25T08:01:14.000Z</time>
</trkpt>
<trkpt lat="45.8625930" lon="9.3109510">
	<ele>1067.00</ele>
	<time>2024-03-25T08:01:15.000Z</time>
</trkpt>
<trkpt lat="45.8625970" lon="9.3109710">
	<ele>1067.20</ele>
	<time>2024-03-25T08:01:16.000Z</time>
</trkpt>
<trkpt lat="45.8626000" lon="9.3109850">
	<ele>1067.40</ele>
	<time>2024-03-25T08:01:17.000Z</time>
</trkpt>
<trkpt lat="45.8625900" lon="9.3109940">
	<ele>1067.60</ele>
	<time>2024-03-25T08:01:18.000Z</time>
</trkpt>
<trkpt lat="45.8625810" lon="9.3110060">
	<ele>1067.80</ele>
	<time>2024-03-25T08:01:19.000Z</time>
</trkpt>
<trkpt lat="45.8625760" lon="9.3110180">
	<ele>1068.00</ele>
	<time>2024-03-25T08:01:20.000Z</time>
</trkpt>
<trkpt lat="45.8625780" lon="9.3110300">
	<ele>1068.20</ele>
	<time>2024-03-25T08:01:21.000Z</time>
</trkpt>
<trkpt lat="45.8625850" lon="9.3110460">
	<ele>1068.20</ele>
	<time>2024-03-25T08:01:22.000Z</time>
</trkpt>
<trkpt lat="45.8625860" lon="9.3110540">
	<ele>1068.40</ele>
	<time>2024-03-25T08:01:23.000Z</time>
</trkpt>
<trkpt lat="45.8625930" lon="9.3110690">
	<ele>1068.80</ele>
	<time>2024-03-25T08:01:24.000Z</time>
</trkpt>
<trkpt lat="45.8625960" lon="9.3110690">
	<ele>1069.00</ele>
	<time>2024-03-25T08:01:25.000Z</time>
</trkpt>
<trkpt lat="45.8626160" lon="9.3110850">
	<ele>1069.20</ele>
	<time>2024-03-25T08:01:26.000Z</time>
</trkpt>
<trkpt lat="45.8626190" lon="9.3110870">
	<ele>1069.40</ele>
	<time>2024-03-25T08:01:27.000Z</time>
</trkpt>
<trkpt lat="45.8626210" lon="9.3110880">
	<ele>1069.60</ele>
	<time>2024-03-25T08:01:28.000Z</time>
</trkpt>
<trkpt lat="45.8626280" lon="9.3110960">
	<ele>1070.00</ele>
	<time>2024-03-25T08:01:29.000Z</time>
</trkpt>
<trkpt lat="45.8626400" lon="9.3111080">
	<ele>1070.00</ele>
	<time>2024-03-25T08:01:30.000Z</time>
</trkpt>
<trkpt lat="45.8626410" lon="9.3111070">
	<ele>1070.20</ele>
	<time>2024-03-25T08:01:31.000Z</time>
</trkpt>
<trkpt lat="45.8626410" lon="9.3111070">
	<ele>1070.40</ele>
	<time>2024-03-25T08:01:32.000Z</time>
</trkpt>
<trkpt lat="45.8626490" lon="9.3111090">
	<ele>1070.60</ele>
	<time>2024-03-25T08:01:33.000Z</time>
</trkpt>
<trkpt lat="45.8626570" lon="9.3111140">
	<ele>1070.60</ele>
	<time>2024-03-25T08:01:34.000Z</time>
</trkpt>
<trkpt lat="45.8626660" lon="9.3111250">
	<ele>1070.80</ele>
	<time>2024-03-25T08:01:35.000Z</time>
</trkpt>
<trkpt lat="45.8626820" lon="9.3111390">
	<ele>1071.20</ele>
	<time>2024-03-25T08:01:36.000Z</time>
</trkpt>
<trkpt lat="45.8626880" lon="9.3111470">
	<ele>1071.40</ele>
	<time>2024-03-25T08:01:37.000Z</time>
</trkpt>
<trkpt lat="45.8626970" lon="9.3111570">
	<ele>1071.60</ele>
	<time>2024-03-25T08:01:38.000Z</time>
</trkpt>
<trkpt lat="45.8627050" lon="9.3111620">
	<ele>1071.80</ele>
	<time>2024-03-25T08:01:39.000Z</time>
</trkpt>
<trkpt lat="45.8627110" lon="9.3111720">
	<ele>1072.00</ele>
	<time>2024-03-25T08:01:40.000Z</time>
</trkpt>
<trkpt lat="45.8627160" lon="9.3111810">
	<ele>1072.20</ele>
	<time>2024-03-25T08:01:41.000Z</time>
</trkpt>
<trkpt lat="45.8627190" lon="9.3111900">
	<ele>1072.20</ele>
	<time>2024-03-25T08:01:42.000Z</time>
</trkpt>
<trkpt lat="45.8627210" lon="9.3111900">
	<ele>1072.40</ele>
	<time>2024-03-25T08:01:43.000Z</time>
</trkpt>
<trkpt lat="45.8627300" lon="9.3112050">
	<ele>1072.60</ele>
	<time>2024-03-25T08:01:44.000Z</time>
</trkpt>
<trkpt lat="45.8627380" lon="9.3112200">
	<ele>1072.80</ele>
	<time>2024-03-25T08:01:45.000Z</time>
</trkpt>
<trkpt lat="45.8627410" lon="9.3112250">
	<ele>1072.80</ele>
	<time>2024-03-25T08:01:46.000Z</time>
</trkpt>
<trkpt lat="45.8627550" lon="9.3112480">
	<ele>1073.00</ele>
	<time>2024-03-25T08:01:47.000Z</time>
</trkpt>
<trkpt lat="45.8627720" lon="9.3112640">
	<ele>1073.00</ele>
	<time>2024-03-25T08:01:48.000Z</time>
</trkpt>
<trkpt lat="45.8627790" lon="9.3112730">
	<ele>1073.20</ele>
	<time>2024-03-25T08:01:49.000Z</time>
</trkpt>
<trkpt lat="45.8627800" lon="9.3112810">
	<ele>1073.40</ele>
	<time>2024-03-25T08:01:50.000Z</time>
</trkpt>
<trkpt lat="45.8627910" lon="9.3112960">
	<ele>1073.40</ele>
	<time>2024-03-25T08:01:51.000Z</time>
</trkpt>
<trkpt lat="45.8627940" lon="9.3113010">
	<ele>1073.40</ele>
	<time>2024-03-25T08:01:52.000Z</time>
</trkpt>
<trkpt lat="45.8628030" lon="9.3113210">
	<ele>1073.80</ele>
	<time>2024-03-25T08:01:53.000Z</time>
</trkpt>
<trkpt lat="45.8628040" lon="9.3113230">
	<ele>1074.00</ele>
	<time>2024-03-25T08:01:54.000Z</time>
</trkpt>
<trkpt lat="45.8628110" lon="9.3113330">
	<ele>1074.40</ele>
	<time>2024-03-25T08:01:55.000Z</time>
</trkpt>
<trkpt lat="45.8628200" lon="9.3113410">
	<ele>1074.60</ele>
	<time>2024-03-25T08:01:56.000Z</time>
</trkpt>
<trkpt lat="45.8628210" lon="9.3113450">
	<ele>1074.80</ele>
	<time>2024-03-25T08:01:57.000Z</time>
</trkpt>
<trkpt lat="45.8628240" lon="9.3113500">
	<ele>1074.60</ele>
	<time>2024-03-25T08:01:58.000Z</time>
</trkpt>
<trkpt lat="45.8628260" lon="9.3113610">
	<ele>1074.80</ele>
	<time>2024-03-25T08:01:59.000Z</time>
</trkpt>
<trkpt lat="45.8628290" lon="9.3113740">
	<ele>1074.80</ele>
	<time>2024-03-25T08:02:00.000Z</time>
</trkpt>
<trkpt lat="45.8628330" lon="9.3113920">
	<ele>1074.80</ele>
	<time>2024-03-25T08:02:01.000Z</time>
</trkpt>
<trkpt lat="45.8628340" lon="9.3114080">
	<ele>1075.00</ele>
	<time>2024-03-25T08:02:02.000Z</time>
</trkpt>
<trkpt lat="45.8628410" lon="9.3114280">
	<ele>1075.00</ele>
	<time>2024-03-25T08:02:03.000Z</time>
</trkpt>
<trkpt lat="45.8628450" lon="9.3114450">
	<ele>1075.20</ele>
	<time>2024-03-25T08:02:04.000Z</time>
</trkpt>
<trkpt lat="45.8628430" lon="9.3114550">
	<ele>1075.40</ele>
	<time>2024-03-25T08:02:05.000Z</time>
</trkpt>
<trkpt lat="45.8628460" lon="9.3114670">
	<ele>1075.60</ele>
	<time>2024-03-25T08:02:06.000Z</time>
</trkpt>
<trkpt lat="45.8628520" lon="9.3114820">
	<ele>1075.60</ele>
	<time>2024-03-25T08:02:07.000Z</time>
</trkpt>
<trkpt lat="45.8628520" lon="9.3114920">
	<ele>1076.00</ele>
	<time>2024-03-25T08:02:08.000Z</time>
</trkpt>
<trkpt lat="45.8628500" lon="9.3115010">
	<ele>1076.20</ele>
	<time>2024-03-25T08:02:09.000Z</time>
</trkpt>
<trkpt lat="45.8628490" lon="9.3115100">
	<ele>1076.40</ele>
	<time>2024-03-25T08:02:10.000Z</time>
</trkpt>
<trkpt lat="45.8628470" lon="9.3115200">
	<ele>1076.60</ele>
	<time>2024-03-25T08:02:11.000Z</time>
</trkpt>
<trkpt lat="45.8628460" lon="9.3115250">
	<ele>1076.80</ele>
	<time>2024-03-25T08:02:12.000Z</time>
</trkpt>
<trkpt lat="45.8628450" lon="9.3115300">
	<ele>1077.00</ele>
	<time>2024-03-25T08:02:13.000Z</time>
</trkpt>
<trkpt lat="45.8628390" lon="9.3115370">
	<ele>1077.20</ele>
	<time>2024-03-25T08:02:14.000Z</time>
</trkpt>
<trkpt lat="45.8628390" lon="9.3115410">
	<ele>1077.40</ele>
	<time>2024-03-25T08:02:15.000Z</time>
</trkpt>
<trkpt lat="45.8628370" lon="9.3115420">
	<ele>1077.40</ele>
	<time>2024-03-25T08:02:16.000Z</time>
</trkpt>
<trkpt lat="45.8628400" lon="9.3115410">
	<ele>1077.60</ele>
	<time>2024-03-25T08:02:17.000Z</time>
</trkpt>
<trkpt lat="45.8628410" lon="9.3115430">
	<ele>1077.60</ele>
	<time>2024-03-25T08:02:18.000Z</time>
</trkpt>
<trkpt lat="45.8628450" lon="9.3115550">
	<ele>1077.80</ele>
	<time>2024-03-25T08:02:19.000Z</time>
</trkpt>
<trkpt lat="45.8628530" lon="9.3115730">
	<ele>1077.80</ele>
	<time>2024-03-25T08:02:20.000Z</time>
</trkpt>
<trkpt lat="45.8628590" lon="9.3115920">
	<ele>1078.00</ele>
	<time>2024-03-25T08:02:21.000Z</time>
</trkpt>
<trkpt lat="45.8628660" lon="9.3116120">
	<ele>1078.00</ele>
	<time>2024-03-25T08:02:22.000Z</time>
</trkpt>
<trkpt lat="45.8628730" lon="9.3116360">
	<ele>1078.20</ele>
	<time>2024-03-25T08:02:23.000Z</time>
</trkpt>
<trkpt lat="45.8628870" lon="9.3116580">
	<ele>1078.40</ele>
	<time>2024-03-25T08:02:24.000Z</time>
</trkpt>
<trkpt lat="45.8629000" lon="9.3116770">
	<ele>1078.60</ele>
	<time>2024-03-25T08:02:25.000Z</time>
</trkpt>
<trkpt lat="45.8629100" lon="9.3116920">
	<ele>1078.80</ele>
	<time>2024-03-25T08:02:26.000Z</time>
</trkpt>
<trkpt lat="45.8629140" lon="9.3117010">
	<ele>1078.80</ele>
	<time>2024-03-25T08:02:27.000Z</time>
</trkpt>
<trkpt lat="45.8629170" lon="9.3117160">
	<ele>1078.80</ele>
	<time>2024-03-25T08:02:28.000Z</time>
</trkpt>
<trkpt lat="45.8629260" lon="9.3117360">
	<ele>1079.00</ele>
	<time>2024-03-25T08:02:29.000Z</time>
</trkpt>
<trkpt lat="45.8629370" lon="9.3117610">
	<ele>1078.80</ele>
	<time>2024-03-25T08:02:30.000Z</time>
</trkpt>
<trkpt lat="45.8629460" lon="9.3117820">
	<ele>1078.80</ele>
	<time>2024-03-25T08:02:31.000Z</time>
</trkpt>
<trkpt lat="45.8629520" lon="9.3117980">
	<ele>1078.80</ele>
	<time>2024-03-25T08:02:32.000Z</time>
</trkpt>
<trkpt lat="45.8629590" lon="9.3118110">
	<ele>1078.80</ele>
	<time>2024-03-25T08:02:33.000Z</time>
</trkpt>
<trkpt lat="45.8629680" lon="9.3118330">
	<ele>1078.80</ele>
	<time>2024-03-25T08:02:34.000Z</time>
</trkpt>
<trkpt lat="45.8629740" lon="9.3118470">
	<ele>1078.80</ele>
	<time>2024-03-25T08:02:35.000Z</time>
</trkpt>
<trkpt lat="45.8629770" lon="9.3118610">
	<ele>1078.80</ele>
	<time>2024-03-25T08:02:36.000Z</time>
</trkpt>
<trkpt lat="45.8629730" lon="9.3118770">
	<ele>1078.80</ele>
	<time>2024-03-25T08:02:37.000Z</time>
</trkpt>
<trkpt lat="45.8629700" lon="9.3118940">
	<ele>1078.80</ele>
	<time>2024-03-25T08:02:38.000Z</time>
</trkpt>
<trkpt lat="45.8629650" lon="9.3119100">
	<ele>1078.60</ele>
	<time>2024-03-25T08:02:39.000Z</time>
</trkpt>
<trkpt lat="45.8629630" lon="9.3119240">
	<ele>1078.60</ele>
	<time>2024-03-25T08:02:40.000Z</time>
</trkpt>
<trkpt lat="45.8629590" lon="9.3119400">
	<ele>1078.60</ele>
	<time>2024-03-25T08:02:41.000Z</time>
</trkpt>
<trkpt lat="45.8629640" lon="9.3119570">
	<ele>1078.80</ele>
	<time>2024-03-25T08:02:42.000Z</time>
</trkpt>
<trkpt lat="45.8629750" lon="9.3119770">
	<ele>1078.80</ele>
	<time>2024-03-25T08:02:43.000Z</time>
</trkpt>
<trkpt lat="45.8629780" lon="9.3119930">
	<ele>1078.80</ele>
	<time>2024-03-25T08:02:44.000Z</time>
</trkpt>
<trkpt lat="45.8629930" lon="9.3120200">
	<ele>1079.00</ele>
	<time>2024-03-25T08:02:45.000Z</time>
</trkpt>
<trkpt lat="45.8630160" lon="9.3120460">
	<ele>1079.00</ele>
	<time>2024-03-25T08:02:46.000Z</time>
</trkpt>
<trkpt lat="45.8630270" lon="9.3120610">
	<ele>1079.00</ele>
	<time>2024-03-25T08:02:47.000Z</time>
</trkpt>
<trkpt lat="45.8630340" lon="9.3120770">
	<ele>1079.00</ele>
	<time>2024-03-25T08:02:48.000Z</time>
</trkpt>
<trkpt lat="45.8630430" lon="9.3120940">
	<ele>1079.00</ele>
	<time>2024-03-25T08:02:49.000Z</time>
</trkpt>
<trkpt lat="45.8630510" lon="9.3121040">
	<ele>1079.20</ele>
	<time>2024-03-25T08:02:50.000Z</time>
</trkpt>
<trkpt lat="45.8630590" lon="9.3121130">
	<ele>1079.40</ele>
	<time>2024-03-25T08:02:51.000Z</time>
</trkpt>
<trkpt lat="45.8630660" lon="9.3121240">
	<ele>1079.40</ele>
	<time>2024-03-25T08:02:52.000Z</time>
</trkpt>
<trkpt lat="45.8630710" lon="9.3121280">
	<ele>1079.40</ele>
	<time>2024-03-25T08:02:53.000Z</time>
</trkpt>
<trkpt lat="45.8630830" lon="9.3121410">
	<ele>1079.40</ele>
	<time>2024-03-25T08:02:54.000Z</time>
</trkpt>
<trkpt lat="45.8630940" lon="9.3121550">
	<ele>1079.40</ele>
	<time>2024-03-25T08:02:55.000Z</time>
</trkpt>
<trkpt lat="45.8631020" lon="9.3121670">
	<ele>1079.60</ele>
	<time>2024-03-25T08:02:56.000Z</time>
</trkpt>
<trkpt lat="45.8631140" lon="9.3121840">
	<ele>1079.60</ele>
	<time>2024-03-25T08:02:57.000Z</time>
</trkpt>
<trkpt lat="45.8631240" lon="9.3122050">
	<ele>1079.60</ele>
	<time>2024-03-25T08:02:58.000Z</time>
</trkpt>
<trkpt lat="45.8631280" lon="9.3122190">
	<ele>1079.80</ele>
	<time>2024-03-25T08:02:59.000Z</time>
</trkpt>
<trkpt lat="45.8631320" lon="9.3122280">
	<ele>1080.00</ele>
	<time>2024-03-25T08:03:00.000Z</time>
</trkpt>
<trkpt lat="45.8631320" lon="9.3122410">
	<ele>1080.00</ele>
	<time>2024-03-25T08:03:01.000Z</time>
</trkpt>
<trkpt lat="45.8631330" lon="9.3122560">
	<ele>1080.00</ele>
	<time>2024-03-25T08:03:02.000Z</time>
</trkpt>
<trkpt lat="45.8631350" lon="9.3122670">
	<ele>1080.00</ele>
	<time>2024-03-25T08:03:03.000Z</time>
</trkpt>
<trkpt lat="45.8631420" lon="9.3122820">
	<ele>1080.00</ele>
	<time>2024-03-25T08:03:04.000Z</time>
</trkpt>
<trkpt lat="45.8631440" lon="9.3122960">
	<ele>1080.20</ele>
	<time>2024-03-25T08:03:05.000Z</time>
</trkpt>
<trkpt lat="45.8631440" lon="9.3123120">
	<ele>1080.20</ele>
	<time>2024-03-25T08:03:06.000Z</time>
</trkpt>
<trkpt lat="45.8631430" lon="9.3123250">
	<ele>1080.60</ele>
	<time>2024-03-25T08:03:07.000Z</time>
</trkpt>
<trkpt lat="45.8631370" lon="9.3123350">
	<ele>1080.60</ele>
	<time>2024-03-25T08:03:08.000Z</time>
</trkpt>
<trkpt lat="45.8631350" lon="9.3123480">
	<ele>1080.80</ele>
	<time>2024-03-25T08:03:09.000Z</time>
</trkpt>
<trkpt lat="45.8631350" lon="9.3123650">
	<ele>1080.80</ele>
	<time>2024-03-25T08:03:10.000Z</time>
</trkpt>
<trkpt lat="45.8631340" lon="9.3123780">
	<ele>1081.00</ele>
	<time>2024-03-25T08:03:11.000Z</time>
</trkpt>
<trkpt lat="45.8631350" lon="9.3123910">
	<ele>1081.00</ele>
	<time>2024-03-25T08:03:12.000Z</time>
</trkpt>
<trkpt lat="45.8631360" lon="9.3124080">
	<ele>1081.20</ele>
	<time>2024-03-25T08:03:13.000Z</time>
</trkpt>
<trkpt lat="45.8631390" lon="9.3124260">
	<ele>1081.20</ele>
	<time>2024-03-25T08:03:14.000Z</time>
</trkpt>
<trkpt lat="45.8631390" lon="9.3124410">
	<ele>1081.40</ele>
	<time>2024-03-25T08:03:15.000Z</time>
</trkpt>
<trkpt lat="45.8631410" lon="9.3124640">
	<ele>1081.40</ele>
	<time>2024-03-25T08:03:16.000Z</time>
</trkpt>
<trkpt lat="45.8631390" lon="9.3124810">
	<ele>1081.40</ele>
	<time>2024-03-25T08:03:17.000Z</time>
</trkpt>
<trkpt lat="45.8631320" lon="9.3124980">
	<ele>1081.40</ele>
	<time>2024-03-25T08:03:18.000Z</time>
</trkpt>
<trkpt lat="45.8631260" lon="9.3125150">
	<ele>1081.20</ele>
	<time>2024-03-25T08:03:19.000Z</time>
</trkpt>
<trkpt lat="45.8631250" lon="9.3125280">
	<ele>1081.20</ele>
	<time>2024-03-25T08:03:20.000Z</time>
</trkpt>
<trkpt lat="45.8631240" lon="9.3125400">
	<ele>1081.20</ele>
	<time>2024-03-25T08:03:21.000Z</time>
</trkpt>
<trkpt lat="45.8631230" lon="9.3125560">
	<ele>1081.40</ele>
	<time>2024-03-25T08:03:22.000Z</time>
</trkpt>
<trkpt lat="45.8631190" lon="9.3125690">
	<ele>1081.40</ele>
	<time>2024-03-25T08:03:23.000Z</time>
</trkpt>
<trkpt lat="45.8631170" lon="9.3125840">
	<ele>1081.60</ele>
	<time>2024-03-25T08:03:24.000Z</time>
</trkpt>
<trkpt lat="45.8631170" lon="9.3126010">
	<ele>1081.80</ele>
	<time>2024-03-25T08:03:25.000Z</time>
</trkpt>
<trkpt lat="45.8631240" lon="9.3126220">
	<ele>1081.80</ele>
	<time>2024-03-25T08:03:26.000Z</time>
</trkpt>
<trkpt lat="45.8631290" lon="9.3126360">
	<ele>1082.00</ele>
	<time>2024-03-25T08:03:27.000Z</time>
</trkpt>
<trkpt lat="45.8631320" lon="9.3126500">
	<ele>1082.00</ele>
	<time>2024-03-25T08:03:28.000Z</time>
</trkpt>
<trkpt lat="45.8631290" lon="9.3126630">
	<ele>1082.20</ele>
	<time>2024-03-25T08:03:29.000Z</time>
</trkpt>
<trkpt lat="45.8631270" lon="9.3126770">
	<ele>1082.20</ele>
	<time>2024-03-25T08:03:30.000Z</time>
</trkpt>
<trkpt lat="45.8631230" lon="9.3126900">
	<ele>1082.40</ele>
	<time>2024-03-25T08:03:31.000Z</time>
</trkpt>
<trkpt lat="45.8631230" lon="9.3127020">
	<ele>1082.40</ele>
	<time>2024-03-25T08:03:32.000Z</time>
</trkpt>
<trkpt lat="45.8631200" lon="9.3127210">
	<ele>1082.40</ele>
	<time>2024-03-25T08:03:33.000Z</time>
</trkpt>
<trkpt lat="45.8631130" lon="9.3127280">
	<ele>1082.60</ele>
	<time>2024-03-25T08:03:34.000Z</time>
</trkpt>
<trkpt lat="45.8631160" lon="9.3127460">
	<ele>1082.60</ele>
	<time>2024-03-25T08:03:35.000Z</time>
</trkpt>
<trkpt lat="45.8631170" lon="9.3127580">
	<ele>1082.80</ele>
	<time>2024-03-25T08:03:36.000Z</time>
</trkpt>
<trkpt lat="45.8631260" lon="9.3127810">
	<ele>1083.00</ele>
	<time>2024-03-25T08:03:37.000Z</time>
</trkpt>
<trkpt lat="45.8631380" lon="9.3128070">
	<ele>1083.20</ele>
	<time>2024-03-25T08:03:38.000Z</time>
</trkpt>
<trkpt lat="45.8631400" lon="9.3128230">
	<ele>1083.60</ele>
	<time>2024-03-25T08:03:39.000Z</time>
</trkpt>
<trkpt lat="45.8631430" lon="9.3128340">
	<ele>1083.80</ele>
	<time>2024-03-25T08:03:40.000Z</time>
</trkpt>
<trkpt lat="45.8631480" lon="9.3128460">
	<ele>1084.00</ele>
	<time>2024-03-25T08:03:41.000Z</time>
</trkpt>
<trkpt lat="45.8631500" lon="9.3128580">
	<ele>1084.00</ele>
	<time>2024-03-25T08:03:42.000Z</time>
</trkpt>
<trkpt lat="45.8631500" lon="9.3128630">
	<ele>1084.20</ele>
	<time>2024-03-25T08:03:43.000Z</time>
</trkpt>
<trkpt lat="45.8631500" lon="9.3128660">
	<ele>1084.40</ele>
	<time>2024-03-25T08:03:44.000Z</time>
</trkpt>
<trkpt lat="45.8631570" lon="9.3128790">
	<ele>1084.60</ele>
	<time>2024-03-25T08:03:45.000Z</time>
</trkpt>
<trkpt lat="45.8631640" lon="9.3128910">
	<ele>1084.80</ele>
	<time>2024-03-25T08:03:46.000Z</time>
</trkpt>
<trkpt lat="45.8631670" lon="9.3129020">
	<ele>1085.00</ele>
	<time>2024-03-25T08:03:47.000Z</time>
</trkpt>
<trkpt lat="45.8631710" lon="9.3129170">
	<ele>1085.20</ele>
	<time>2024-03-25T08:03:48.000Z</time>
</trkpt>
<trkpt lat="45.8631800" lon="9.3129350">
	<ele>1085.20</ele>
	<time>2024-03-25T08:03:49.000Z</time>
</trkpt>
<trkpt lat="45.8631870" lon="9.3129530">
	<ele>1085.40</ele>
	<time>2024-03-25T08:03:50.000Z</time>
</trkpt>
<trkpt lat="45.8631880" lon="9.3129680">
	<ele>1085.60</ele>
	<time>2024-03-25T08:03:51.000Z</time>
</trkpt>
<trkpt lat="45.8631840" lon="9.3129780">
	<ele>1085.60</ele>
	<time>2024-03-25T08:03:52.000Z</time>
</trkpt>
<trkpt lat="45.8631800" lon="9.3129900">
	<ele>1085.60</ele>
	<time>2024-03-25T08:03:53.000Z</time>
</trkpt>
<trkpt lat="45.8631740" lon="9.3129970">
	<ele>1085.60</ele>
	<time>2024-03-25T08:03:54.000Z</time>
</trkpt>
<trkpt lat="45.8631720" lon="9.3130100">
	<ele>1085.60</ele>
	<time>2024-03-25T08:03:55.000Z</time>
</trkpt>
<trkpt lat="45.8631650" lon="9.3130250">
	<ele>1085.60</ele>
	<time>2024-03-25T08:03:56.000Z</time>
</trkpt>
<trkpt lat="45.8631590" lon="9.3130420">
	<ele>1085.80</ele>
	<time>2024-03-25T08:03:57.000Z</time>
</trkpt>
<trkpt lat="45.8631590" lon="9.3130540">
	<ele>1086.20</ele>
	<time>2024-03-25T08:03:58.000Z</time>
</trkpt>
<trkpt lat="45.8631610" lon="9.3130650">
	<ele>1086.20</ele>
	<time>2024-03-25T08:03:59.000Z</time>
</trkpt>
<trkpt lat="45.8631610" lon="9.3130710">
	<ele>1086.40</ele>
	<time>2024-03-25T08:04:00.000Z</time>
</trkpt>
<trkpt lat="45.8631600" lon="9.3130760">
	<ele>1086.60</ele>
	<time>2024-03-25T08:04:01.000Z</time>
</trkpt>
<trkpt lat="45.8631610" lon="9.3130830">
	<ele>1086.80</ele>
	<time>2024-03-25T08:04:02.000Z</time>
</trkpt>
<trkpt lat="45.8631630" lon="9.3130860">
	<ele>1087.20</ele>
	<time>2024-03-25T08:04:03.000Z</time>
</trkpt>
<trkpt lat="45.8631650" lon="9.3130980">
	<ele>1087.20</ele>
	<time>2024-03-25T08:04:04.000Z</time>
</trkpt>
<trkpt lat="45.8631750" lon="9.3131200">
	<ele>1087.40</ele>
	<time>2024-03-25T08:04:05.000Z</time>
</trkpt>
<trkpt lat="45.8631790" lon="9.3131340">
	<ele>1087.40</ele>
	<time>2024-03-25T08:04:06.000Z</time>
</trkpt>
<trkpt lat="45.8631820" lon="9.3131370">
	<ele>1087.60</ele>
	<time>2024-03-25T08:04:07.000Z</time>
</trkpt>
<trkpt lat="45.8631860" lon="9.3131490">
	<ele>1087.60</ele>
	<time>2024-03-25T08:04:08.000Z</time>
</trkpt>
<trkpt lat="45.8631900" lon="9.3131570">
	<ele>1087.60</ele>
	<time>2024-03-25T08:04:09.000Z</time>
</trkpt>
<trkpt lat="45.8631920" lon="9.3131620">
	<ele>1087.80</ele>
	<time>2024-03-25T08:04:10.000Z</time>
</trkpt>
<trkpt lat="45.8631930" lon="9.3131650">
	<ele>1088.00</ele>
	<time>2024-03-25T08:04:11.000Z</time>
</trkpt>
<trkpt lat="45.8631940" lon="9.3131700">
	<ele>1088.20</ele>
	<time>2024-03-25T08:04:12.000Z</time>
</trkpt>
<trkpt lat="45.8631950" lon="9.3131730">
	<ele>1088.40</ele>
	<time>2024-03-25T08:04:13.000Z</time>
</trkpt>
<trkpt lat="45.8631870" lon="9.3131800">
	<ele>1088.60</ele>
	<time>2024-03-25T08:04:14.000Z</time>
</trkpt>
<trkpt lat="45.8631860" lon="9.3131820">
	<ele>1088.80</ele>
	<time>2024-03-25T08:04:15.000Z</time>
</trkpt>
<trkpt lat="45.8631860" lon="9.3131830">
	<ele>1088.80</ele>
	<time>2024-03-25T08:04:16.000Z</time>
</trkpt>
<trkpt lat="45.8631930" lon="9.3131850">
	<ele>1088.80</ele>
	<time>2024-03-25T08:04:17.000Z</time>
</trkpt>
<trkpt lat="45.8632020" lon="9.3131950">
	<ele>1088.80</ele>
	<time>2024-03-25T08:04:18.000Z</time>
</trkpt>
<trkpt lat="45.8632060" lon="9.3132080">
	<ele>1088.80</ele>
	<time>2024-03-25T08:04:19.000Z</time>
</trkpt>
<trkpt lat="45.8632050" lon="9.3132220">
	<ele>1088.60</ele>
	<time>2024-03-25T08:04:20.000Z</time>
</trkpt>
<trkpt lat="45.8631990" lon="9.3132350">
	<ele>1088.40</ele>
	<time>2024-03-25T08:04:21.000Z</time>
</trkpt>
<trkpt lat="45.8631980" lon="9.3132500">
	<ele>1088.40</ele>
	<time>2024-03-25T08:04:22.000Z</time>
</trkpt>
<trkpt lat="45.8632020" lon="9.3132600">
	<ele>1088.20</ele>
	<time>2024-03-25T08:04:23.000Z</time>
</trkpt>
<trkpt lat="45.8632040" lon="9.3132740">
	<ele>1088.20</ele>
	<time>2024-03-25T08:04:24.000Z</time>
</trkpt>
<trkpt lat="45.8632090" lon="9.3132970">
	<ele>1088.20</ele>
	<time>2024-03-25T08:04:25.000Z</time>
</trkpt>
<trkpt lat="45.8632080" lon="9.3133130">
	<ele>1088.20</ele>
	<time>2024-03-25T08:04:26.000Z</time>
</trkpt>
<trkpt lat="45.8632050" lon="9.3133270">
	<ele>1088.20</ele>
	<time>2024-03-25T08:04:27.000Z</time>
</trkpt>
<trkpt lat="45.8632030" lon="9.3133360">
	<ele>1088.20</ele>
	<time>2024-03-25T08:04:28.000Z</time>
</trkpt>
<trkpt lat="45.8631960" lon="9.3133450">
	<ele>1088.20</ele>
	<time>2024-03-25T08:04:29.000Z</time>
</trkpt>
<trkpt lat="45.8631910" lon="9.3133580">
	<ele>1088.20</ele>
	<time>2024-03-25T08:04:30.000Z</time>
</trkpt>
<trkpt lat="45.8631860" lon="9.3133720">
	<ele>1088.20</ele>
	<time>2024-03-25T08:04:31.000Z</time>
</trkpt>
<trkpt lat="45.8631800" lon="9.3133860">
	<ele>1088.20</ele>
	<time>2024-03-25T08:04:32.000Z</time>
</trkpt>
<trkpt lat="45.8631760" lon="9.3133990">
	<ele>1088.20</ele>
	<time>2024-03-25T08:04:33.000Z</time>
</trkpt>
<trkpt lat="45.8631720" lon="9.3134190">
	<ele>1088.40</ele>
	<time>2024-03-25T08:04:34.000Z</time>
</trkpt>
<trkpt lat="45.8631740" lon="9.3134360">
	<ele>1088.40</ele>
	<time>2024-03-25T08:04:35.000Z</time>
</trkpt>
<trkpt lat="45.8631760" lon="9.3134400">
	<ele>1088.60</ele>
	<time>2024-03-25T08:04:36.000Z</time>
</trkpt>
<trkpt lat="45.8631770" lon="9.3134450">
	<ele>1088.60</ele>
	<time>2024-03-25T08:04:37.000Z</time>
</trkpt>
<trkpt lat="45.8631720" lon="9.3134590">
	<ele>1088.60</ele>
	<time>2024-03-25T08:04:38.000Z</time>
</trkpt>
<trkpt lat="45.8631670" lon="9.3134780">
	<ele>1088.60</ele>
	<time>2024-03-25T08:04:39.000Z</time>
</trkpt>
<trkpt lat="45.8631630" lon="9.3134970">
	<ele>1088.60</ele>
	<time>2024-03-25T08:04:40.000Z</time>
</trkpt>
<trkpt lat="45.8631710" lon="9.3135210">
	<ele>1088.60</ele>
	<time>2024-03-25T08:04:41.000Z</time>
</trkpt>
<trkpt lat="45.8631790" lon="9.3135420">
	<ele>1088.60</ele>
	<time>2024-03-25T08:04:42.000Z</time>
</trkpt>
<trkpt lat="45.8631830" lon="9.3135650">
	<ele>1088.60</ele>
	<time>2024-03-25T08:04:43.000Z</time>
</trkpt>
<trkpt lat="45.8631810" lon="9.3135860">
	<ele>1088.60</ele>
	<time>2024-03-25T08:04:44.000Z</time>
</trkpt>
<trkpt lat="45.8631790" lon="9.3136070">
	<ele>1088.80</ele>
	<time>2024-03-25T08:04:45.000Z</time>
</trkpt>
<trkpt lat="45.8631770" lon="9.3136260">
	<ele>1088.80</ele>
	<time>2024-03-25T08:04:46.000Z</time>
</trkpt>
<trkpt lat="45.8631780" lon="9.3136460">
	<ele>1088.80</ele>
	<time>2024-03-25T08:04:47.000Z</time>
</trkpt>
<trkpt lat="45.8631800" lon="9.3136590">
	<ele>1089.00</ele>
	<time>2024-03-25T08:04:48.000Z</time>
</trkpt>
<trkpt lat="45.8631800" lon="9.3136690">
	<ele>1089.00</ele>
	<time>2024-03-25T08:04:49.000Z</time>
</trkpt>
<trkpt lat="45.8631780" lon="9.3136740">
	<ele>1089.40</ele>
	<time>2024-03-25T08:04:50.000Z</time>
</trkpt>
<trkpt lat="45.8631720" lon="9.3136820">
	<ele>1089.60</ele>
	<time>2024-03-25T08:04:51.000Z</time>
</trkpt>
<trkpt lat="45.8631640" lon="9.3136960">
	<ele>1089.80</ele>
	<time>2024-03-25T08:04:52.000Z</time>
</trkpt>
<trkpt lat="45.8631630" lon="9.3137120">
	<ele>1089.80</ele>
	<time>2024-03-25T08:04:53.000Z</time>
</trkpt>
<trkpt lat="45.8631600" lon="9.3137360">
	<ele>1089.80</ele>
	<time>2024-03-25T08:04:54.000Z</time>
</trkpt>
<trkpt lat="45.8631520" lon="9.3137530">
	<ele>1090.00</ele>
	<time>2024-03-25T08:04:55.000Z</time>
</trkpt>
<trkpt lat="45.8631430" lon="9.3137680">
	<ele>1090.20</ele>
	<time>2024-03-25T08:04:56.000Z</time>
</trkpt>
<trkpt lat="45.8631390" lon="9.3137870">
	<ele>1090.20</ele>
	<time>2024-03-25T08:04:57.000Z</time>
</trkpt>
<trkpt lat="45.8631340" lon="9.3138030">
	<ele>1090.40</ele>
	<time>2024-03-25T08:04:58.000Z</time>
</trkpt>
<trkpt lat="45.8631280" lon="9.3138170">
	<ele>1090.40</ele>
	<time>2024-03-25T08:04:59.000Z</time>
</trkpt>
<trkpt lat="45.8631200" lon="9.3138330">
	<ele>1090.40</ele>
	<time>2024-03-25T08:05:00.000Z</time>
</trkpt>
<trkpt lat="45.8631090" lon="9.3138430">
	<ele>1090.40</ele>
	<time>2024-03-25T08:05:01.000Z</time>
</trkpt>
<trkpt lat="45.8631070" lon="9.3138520">
	<ele>1090.60</ele>
	<time>2024-03-25T08:05:02.000Z</time>
</trkpt>
<trkpt lat="45.8631010" lon="9.3138590">
	<ele>1090.60</ele>
	<time>2024-03-25T08:05:03.000Z</time>
</trkpt>
<trkpt lat="45.8630950" lon="9.3138640">
	<ele>1090.60</ele>
	<time>2024-03-25T08:05:04.000Z</time>
</trkpt>
<trkpt lat="45.8630780" lon="9.3138620">
	<ele>1090.80</ele>
	<time>2024-03-25T08:05:05.000Z</time>
</trkpt>
<trkpt lat="45.8630680" lon="9.3138740">
	<ele>1091.00</ele>
	<time>2024-03-25T08:05:06.000Z</time>
</trkpt>
<trkpt lat="45.8630550" lon="9.3138890">
	<ele>1091.00</ele>
	<time>2024-03-25T08:05:07.000Z</time>
</trkpt>
<trkpt lat="45.8630520" lon="9.3139080">
	<ele>1091.20</ele>
	<time>2024-03-25T08:05:08.000Z</time>
</trkpt>
<trkpt lat="45.8630470" lon="9.3139320">
	<ele>1091.20</ele>
	<time>2024-03-25T08:05:09.000Z</time>
</trkpt>
<trkpt lat="45.8630470" lon="9.3139490">
	<ele>1091.20</ele>
	<time>2024-03-25T08:05:10.000Z</time>
</trkpt>
<trkpt lat="45.8630470" lon="9.3139670">
	<ele>1091.20</ele>
	<time>2024-03-25T08:05:11.000Z</time>
</trkpt>
<trkpt lat="45.8630450" lon="9.3139850">
	<ele>1091.20</ele>
	<time>2024-03-25T08:05:12.000Z</time>
</trkpt>
<trkpt lat="45.8630420" lon="9.3139980">
	<ele>1091.20</ele>
	<time>2024-03-25T08:05:13.000Z</time>
</trkpt>
<trkpt lat="45.8630400" lon="9.3140150">
	<ele>1091.20</ele>
	<time>2024-03-25T08:05:14.000Z</time>
</trkpt>
<trkpt lat="45.8630380" lon="9.3140320">
	<ele>1091.20</ele>
	<time>2024-03-25T08:05:15.000Z</time>
</trkpt>
<trkpt lat="45.8630350" lon="9.3140460">
	<ele>1091.60</ele>
	<time>2024-03-25T08:05:16.000Z</time>
</trkpt>
<trkpt lat="45.8630340" lon="9.3140650">
	<ele>1091.80</ele>
	<time>2024-03-25T08:05:17.000Z</time>
</trkpt>
<trkpt lat="45.8630370" lon="9.3140790">
	<ele>1092.00</ele>
	<time>2024-03-25T08:05:18.000Z</time>
</trkpt>
<trkpt lat="45.8630420" lon="9.3140960">
	<ele>1092.00</ele>
	<time>2024-03-25T08:05:19.000Z</time>
</trkpt>
<trkpt lat="45.8630450" lon="9.3141200">
	<ele>1092.00</ele>
	<time>2024-03-25T08:05:20.000Z</time>
</trkpt>
<trkpt lat="45.8630470" lon="9.3141380">
	<ele>1092.00</ele>
	<time>2024-03-25T08:05:21.000Z</time>
</trkpt>
<trkpt lat="45.8630440" lon="9.3141500">
	<ele>1092.00</ele>
	<time>2024-03-25T08:05:22.000Z</time>
</trkpt>
<trkpt lat="45.8630400" lon="9.3141670">
	<ele>1092.00</ele>
	<time>2024-03-25T08:05:23.000Z</time>
</trkpt>
<trkpt lat="45.8630420" lon="9.3141800">
	<ele>1092.00</ele>
	<time>2024-03-25T08:05:24.000Z</time>
</trkpt>
<trkpt lat="45.8630400" lon="9.3142040">
	<ele>1092.00</ele>
	<time>2024-03-25T08:05:25.000Z</time>
</trkpt>
<trkpt lat="45.8630390" lon="9.3142220">
	<ele>1092.00</ele>
	<time>2024-03-25T08:05:26.000Z</time>
</trkpt>
<trkpt lat="45.8630350" lon="9.3142400">
	<ele>1092.00</ele>
	<time>2024-03-25T08:05:27.000Z</time>
</trkpt>
<trkpt lat="45.8630300" lon="9.3142610">
	<ele>1092.00</ele>
	<time>2024-03-25T08:05:28.000Z</time>
</trkpt>
<trkpt lat="45.8630310" lon="9.3142820">
	<ele>1092.00</ele>
	<time>2024-03-25T08:05:29.000Z</time>
</trkpt>
<trkpt lat="45.8630360" lon="9.3142960">
	<ele>1092.20</ele>
	<time>2024-03-25T08:05:30.000Z</time>
</trkpt>
<trkpt lat="45.8630360" lon="9.3143000">
	<ele>1092.20</ele>
	<time>2024-03-25T08:05:31.000Z</time>
</trkpt>
<trkpt lat="45.8630330" lon="9.3143110">
	<ele>1092.40</ele>
	<time>2024-03-25T08:05:32.000Z</time>
</trkpt>
<trkpt lat="45.8630300" lon="9.3143240">
	<ele>1092.40</ele>
	<time>2024-03-25T08:05:33.000Z</time>
</trkpt>
<trkpt lat="45.8630240" lon="9.3143350">
	<ele>1092.60</ele>
	<time>2024-03-25T08:05:34.000Z</time>
</trkpt>
<trkpt lat="45.8630180" lon="9.3143480">
	<ele>1092.80</ele>
	<time>2024-03-25T08:05:35.000Z</time>
</trkpt>
<trkpt lat="45.8630150" lon="9.3143580">
	<ele>1093.00</ele>
	<time>2024-03-25T08:05:36.000Z</time>
</trkpt>
<trkpt lat="45.8630120" lon="9.3143600">
	<ele>1093.00</ele>
	<time>2024-03-25T08:05:37.000Z</time>
</trkpt>
<trkpt lat="45.8630020" lon="9.3143630">
	<ele>1093.20</ele>
	<time>2024-03-25T08:05:38.000Z</time>
</trkpt>
<trkpt lat="45.8630010" lon="9.3143630">
	<ele>1093.60</ele>
	<time>2024-03-25T08:05:39.000Z</time>
</trkpt>
<trkpt lat="45.8629980" lon="9.3143650">
	<ele>1094.00</ele>
	<time>2024-03-25T08:05:40.000Z</time>
</trkpt>
<trkpt lat="45.8629900" lon="9.3143790">
	<ele>1094.20</ele>
	<time>2024-03-25T08:05:41.000Z</time>
</trkpt>
<trkpt lat="45.8629870" lon="9.3143900">
	<ele>1094.40</ele>
	<time>2024-03-25T08:05:42.000Z</time>
</trkpt>
<trkpt lat="45.8629850" lon="9.3144010">
	<ele>1094.40</ele>
	<time>2024-03-25T08:05:43.000Z</time>
</trkpt>
<trkpt lat="45.8629920" lon="9.3144220">
	<ele>1094.60</ele>
	<time>2024-03-25T08:05:44.000Z</time>
</trkpt>
<trkpt lat="45.8629940" lon="9.3144420">
	<ele>1094.60</ele>
	<time>2024-03-25T08:05:45.000Z</time>
</trkpt>
<trkpt lat="45.8630020" lon="9.3144670">
	<ele>1094.60</ele>
	<time>2024-03-25T08:05:46.000Z</time>
</trkpt>
<trkpt lat="45.8630080" lon="9.3144840">
	<ele>1094.40</ele>
	<time>2024-03-25T08:05:47.000Z</time>
</trkpt>
<trkpt lat="45.8630150" lon="9.3144990">
	<ele>1094.40</ele>
	<time>2024-03-25T08:05:48.000Z</time>
</trkpt>
<trkpt lat="45.8630230" lon="9.3145160">
	<ele>1094.40</ele>
	<time>2024-03-25T08:05:49.000Z</time>
</trkpt>
<trkpt lat="45.8630310" lon="9.3145310">
	<ele>1094.40</ele>
	<time>2024-03-25T08:05:50.000Z</time>
</trkpt>
<trkpt lat="45.8630390" lon="9.3145530">
	<ele>1094.40</ele>
	<time>2024-03-25T08:05:51.000Z</time>
</trkpt>
<trkpt lat="45.8630400" lon="9.3145690">
	<ele>1094.40</ele>
	<time>2024-03-25T08:05:52.000Z</time>
</trkpt>
<trkpt lat="45.8630400" lon="9.3145900">
	<ele>1094.40</ele>
	<time>2024-03-25T08:05:53.000Z</time>
</trkpt>
<trkpt lat="45.8630400" lon="9.3146140">
	<ele>1094.40</ele>
	<time>2024-03-25T08:05:54.000Z</time>
</trkpt>
<trkpt lat="45.8630450" lon="9.3146450">
	<ele>1094.40</ele>
	<time>2024-03-25T08:05:55.000Z</time>
</trkpt>
<trkpt lat="45.8630560" lon="9.3146770">
	<ele>1094.60</ele>
	<time>2024-03-25T08:05:56.000Z</time>
</trkpt>
<trkpt lat="45.8630560" lon="9.3146950">
	<ele>1094.80</ele>
	<time>2024-03-25T08:05:57.000Z</time>
</trkpt>
<trkpt lat="45.8630530" lon="9.3147080">
	<ele>1094.80</ele>
	<time>2024-03-25T08:05:58.000Z</time>
</trkpt>
<trkpt lat="45.8630510" lon="9.3147200">
	<ele>1094.80</ele>
	<time>2024-03-25T08:05:59.000Z</time>
</trkpt>
<trkpt lat="45.8630560" lon="9.3147390">
	<ele>1094.80</ele>
	<time>2024-03-25T08:06:00.000Z</time>
</trkpt>
<trkpt lat="45.8630560" lon="9.3147490">
	<ele>1095.00</ele>
	<time>2024-03-25T08:06:01.000Z</time>
</trkpt>
<trkpt lat="45.8630640" lon="9.3147650">
	<ele>1095.00</ele>
	<time>2024-03-25T08:06:02.000Z</time>
</trkpt>
<trkpt lat="45.8630770" lon="9.3147830">
	<ele>1095.00</ele>
	<time>2024-03-25T08:06:03.000Z</time>
</trkpt>
<trkpt lat="45.8630820" lon="9.3148000">
	<ele>1095.00</ele>
	<time>2024-03-25T08:06:04.000Z</time>
</trkpt>
<trkpt lat="45.8630880" lon="9.3148140">
	<ele>1095.00</ele>
	<time>2024-03-25T08:06:05.000Z</time>
</trkpt>
<trkpt lat="45.8630920" lon="9.3148300">
	<ele>1095.00</ele>
	<time>2024-03-25T08:06:06.000Z</time>
</trkpt>
<trkpt lat="45.8630910" lon="9.3148400">
	<ele>1095.00</ele>
	<time>2024-03-25T08:06:07.000Z</time>
</trkpt>
<trkpt lat="45.8630870" lon="9.3148550">
	<ele>1095.00</ele>
	<time>2024-03-25T08:06:08.000Z</time>
</trkpt>
<trkpt lat="45.8630860" lon="9.3148720">
	<ele>1095.00</ele>
	<time>2024-03-25T08:06:09.000Z</time>
</trkpt>
<trkpt lat="45.8630860" lon="9.3148900">
	<ele>1095.00</ele>
	<time>2024-03-25T08:06:10.000Z</time>
</trkpt>
<trkpt lat="45.8630850" lon="9.3149090">
	<ele>1095.20</ele>
	<time>2024-03-25T08:06:11.000Z</time>
</trkpt>
<trkpt lat="45.8630870" lon="9.3149300">
	<ele>1095.40</ele>
	<time>2024-03-25T08:06:12.000Z</time>
</trkpt>
<trkpt lat="45.8630900" lon="9.3149490">
	<ele>1095.40</ele>
	<time>2024-03-25T08:06:13.000Z</time>
</trkpt>
<trkpt lat="45.8630880" lon="9.3149680">
	<ele>1095.40</ele>
	<time>2024-03-25T08:06:14.000Z</time>
</trkpt>
<trkpt lat="45.8630870" lon="9.3149860">
	<ele>1095.60</ele>
	<time>2024-03-25T08:06:15.000Z</time>
</trkpt>
<trkpt lat="45.8630850" lon="9.3150020">
	<ele>1095.60</ele>
	<time>2024-03-25T08:06:16.000Z</time>
</trkpt>
<trkpt lat="45.8630880" lon="9.3150220">
	<ele>1095.80</ele>
	<time>2024-03-25T08:06:17.000Z</time>
</trkpt>
<trkpt lat="45.8630930" lon="9.3150390">
	<ele>1095.80</ele>
	<time>2024-03-25T08:06:18.000Z</time>
</trkpt>
<trkpt lat="45.8630960" lon="9.3150550">
	<ele>1096.00</ele>
	<time>2024-03-25T08:06:19.000Z</time>
</trkpt>
<trkpt lat="45.8630980" lon="9.3150730">
	<ele>1096.20</ele>
	<time>2024-03-25T08:06:20.000Z</time>
</trkpt>
<trkpt lat="45.8630980" lon="9.3150880">
	<ele>1096.40</ele>
	<time>2024-03-25T08:06:21.000Z</time>
</trkpt>
<trkpt lat="45.8630950" lon="9.3151020">
	<ele>1096.60</ele>
	<time>2024-03-25T08:06:22.000Z</time>
</trkpt>
<trkpt lat="45.8630880" lon="9.3151160">
	<ele>1096.60</ele>
	<time>2024-03-25T08:06:23.000Z</time>
</trkpt>
<trkpt lat="45.8630860" lon="9.3151280">
	<ele>1096.80</ele>
	<time>2024-03-25T08:06:24.000Z</time>
</trkpt>
<trkpt lat="45.8630850" lon="9.3151380">
	<ele>1097.20</ele>
	<time>2024-03-25T08:06:25.000Z</time>
</trkpt>
<trkpt lat="45.8630840" lon="9.3151420">
	<ele>1097.40</ele>
	<time>2024-03-25T08:06:26.000Z</time>
</trkpt>
<trkpt lat="45.8630890" lon="9.3151530">
	<ele>1097.60</ele>
	<time>2024-03-25T08:06:27.000Z</time>
</trkpt>
<trkpt lat="45.8630980" lon="9.3151710">
	<ele>1098.00</ele>
	<time>2024-03-25T08:06:28.000Z</time>
</trkpt>
<trkpt lat="45.8631060" lon="9.3151780">
	<ele>1098.20</ele>
	<time>2024-03-25T08:06:29.000Z</time>
</trkpt>
<trkpt lat="45.8631110" lon="9.3151890">
	<ele>1098.40</ele>
	<time>2024-03-25T08:06:30.000Z</time>
</trkpt>
<trkpt lat="45.8631170" lon="9.3151980">
	<ele>1098.40</ele>
	<time>2024-03-25T08:06:31.000Z</time>
</trkpt>
<trkpt lat="45.8631140" lon="9.3152070">
	<ele>1098.40</ele>
	<time>2024-03-25T08:06:32.000Z</time>
</trkpt>
<trkpt lat="45.8631040" lon="9.3152210">
	<ele>1098.60</ele>
	<time>2024-03-25T08:06:33.000Z</time>
</trkpt>
<trkpt lat="45.8630960" lon="9.3152310">
	<ele>1098.60</ele>
	<time>2024-03-25T08:06:34.000Z</time>
</trkpt>
<trkpt lat="45.8630930" lon="9.3152450">
	<ele>1098.80</ele>
	<time>2024-03-25T08:06:35.000Z</time>
</trkpt>
<trkpt lat="45.8630920" lon="9.3152570">
	<ele>1098.80</ele>
	<time>2024-03-25T08:06:36.000Z</time>
</trkpt>
<trkpt lat="45.8630900" lon="9.3152720">
	<ele>1099.00</ele>
	<time>2024-03-25T08:06:37.000Z</time>
</trkpt>
<trkpt lat="45.8630880" lon="9.3152830">
	<ele>1099.20</ele>
	<time>2024-03-25T08:06:38.000Z</time>
</trkpt>
<trkpt lat="45.8630890" lon="9.3152930">
	<ele>1099.40</ele>
	<time>2024-03-25T08:06:39.000Z</time>
</trkpt>
<trkpt lat="45.8630910" lon="9.3153060">
	<ele>1099.40</ele>
	<time>2024-03-25T08:06:40.000Z</time>
</trkpt>
<trkpt lat="45.8630920" lon="9.3153220">
	<ele>1099.60</ele>
	<time>2024-03-25T08:06:41.000Z</time>
</trkpt>
<trkpt lat="45.8630930" lon="9.3153340">
	<ele>1099.80</ele>
	<time>2024-03-25T08:06:42.000Z</time>
</trkpt>
<trkpt lat="45.8630990" lon="9.3153500">
	<ele>1099.80</ele>
	<time>2024-03-25T08:06:43.000Z</time>
</trkpt>
<trkpt lat="45.8631000" lon="9.3153540">
	<ele>1100.00</ele>
	<time>2024-03-25T08:06:44.000Z</time>
</trkpt>
<trkpt lat="45.8631010" lon="9.3153590">
	<ele>1100.00</ele>
	<time>2024-03-25T08:06:45.000Z</time>
</trkpt>
<trkpt lat="45.8631010" lon="9.3153700">
	<ele>1100.40</ele>
	<time>2024-03-25T08:06:46.000Z</time>
</trkpt>
<trkpt lat="45.8631030" lon="9.3153820">
	<ele>1100.60</ele>
	<time>2024-03-25T08:06:47.000Z</time>
</trkpt>
<trkpt lat="45.8631040" lon="9.3153970">
	<ele>1100.60</ele>
	<time>2024-03-25T08:06:48.000Z</time>
</trkpt>
<trkpt lat="45.8631070" lon="9.3154130">
	<ele>1101.00</ele>
	<time>2024-03-25T08:06:49.000Z</time>
</trkpt>
<trkpt lat="45.8631040" lon="9.3154250">
	<ele>1101.20</ele>
	<time>2024-03-25T08:06:50.000Z</time>
</trkpt>
<trkpt lat="45.8631040" lon="9.3154330">
	<ele>1101.60</ele>
	<time>2024-03-25T08:06:51.000Z</time>
</trkpt>
<trkpt lat="45.8631010" lon="9.3154460">
	<ele>1101.60</ele>
	<time>2024-03-25T08:06:52.000Z</time>
</trkpt>
<trkpt lat="45.8631000" lon="9.3154620">
	<ele>1101.80</ele>
	<time>2024-03-25T08:06:53.000Z</time>
</trkpt>
<trkpt lat="45.8630970" lon="9.3154740">
	<ele>1101.80</ele>
	<time>2024-03-25T08:06:54.000Z</time>
</trkpt>
<trkpt lat="45.8630950" lon="9.3154860">
	<ele>1102.00</ele>
	<time>2024-03-25T08:06:55.000Z</time>
</trkpt>
<trkpt lat="45.8630970" lon="9.3155010">
	<ele>1102.20</ele>
	<time>2024-03-25T08:06:56.000Z</time>
</trkpt>
<trkpt lat="45.8631020" lon="9.3155140">
	<ele>1102.40</ele>
	<time>2024-03-25T08:06:57.000Z</time>
</trkpt>
<trkpt lat="45.8631030" lon="9.3155280">
	<ele>1102.60</ele>
	<time>2024-03-25T08:06:58.000Z</time>
</trkpt>
<trkpt lat="45.8631050" lon="9.3155420">
	<ele>1102.80</ele>
	<time>2024-03-25T08:06:59.000Z</time>
</trkpt>
<trkpt lat="45.8631040" lon="9.3155530">
	<ele>1103.00</ele>
	<time>2024-03-25T08:07:00.000Z</time>
</trkpt>
<trkpt lat="45.8631060" lon="9.3155610">
	<ele>1103.20</ele>
	<time>2024-03-25T08:07:01.000Z</time>
</trkpt>
<trkpt lat="45.8631060" lon="9.3155660">
	<ele>1103.40</ele>
	<time>2024-03-25T08:07:02.000Z</time>
</trkpt>
<trkpt lat="45.8631070" lon="9.3155760">
	<ele>1103.40</ele>
	<time>2024-03-25T08:07:03.000Z</time>
</trkpt>
<trkpt lat="45.8631070" lon="9.3155850">
	<ele>1103.60</ele>
	<time>2024-03-25T08:07:04.000Z</time>
</trkpt>
<trkpt lat="45.8631080" lon="9.3155940">
	<ele>1103.80</ele>
	<time>2024-03-25T08:07:05.000Z</time>
</trkpt>
<trkpt lat="45.8631090" lon="9.3156030">
	<ele>1103.80</ele>
	<time>2024-03-25T08:07:06.000Z</time>
</trkpt>
<trkpt lat="45.8631090" lon="9.3156090">
	<ele>1104.00</ele>
	<time>2024-03-25T08:07:07.000Z</time>
</trkpt>
<trkpt lat="45.8631110" lon="9.3156240">
	<ele>1104.20</ele>
	<time>2024-03-25T08:07:08.000Z</time>
</trkpt>
<trkpt lat="45.8631190" lon="9.3156400">
	<ele>1104.40</ele>
	<time>2024-03-25T08:07:09.000Z</time>
</trkpt>
<trkpt lat="45.8631230" lon="9.3156580">
	<ele>1104.60</ele>
	<time>2024-03-25T08:07:10.000Z</time>
</trkpt>
<trkpt lat="45.8631230" lon="9.3156720">
	<ele>1104.60</ele>
	<time>2024-03-25T08:07:11.000Z</time>
</trkpt>
<trkpt lat="45.8631250" lon="9.3156900">
	<ele>1104.80</ele>
	<time>2024-03-25T08:07:12.000Z</time>
</trkpt>
<trkpt lat="45.8631280" lon="9.3157020">
	<ele>1104.80</ele>
	<time>2024-03-25T08:07:13.000Z</time>
</trkpt>
<trkpt lat="45.8631300" lon="9.3157100">
	<ele>1105.00</ele>
	<time>2024-03-25T08:07:14.000Z</time>
</trkpt>
<trkpt lat="45.8631290" lon="9.3157180">
	<ele>1105.20</ele>
	<time>2024-03-25T08:07:15.000Z</time>
</trkpt>
<trkpt lat="45.8631290" lon="9.3157250">
	<ele>1105.40</ele>
	<time>2024-03-25T08:07:16.000Z</time>
</trkpt>
<trkpt lat="45.8631280" lon="9.3157270">
	<ele>1105.60</ele>
	<time>2024-03-25T08:07:17.000Z</time>
</trkpt>
<trkpt lat="45.8631350" lon="9.3157380">
	<ele>1106.00</ele>
	<time>2024-03-25T08:07:18.000Z</time>
</trkpt>
<trkpt lat="45.8631410" lon="9.3157580">
	<ele>1106.00</ele>
	<time>2024-03-25T08:07:19.000Z</time>
</trkpt>
<trkpt lat="45.8631430" lon="9.3157650">
	<ele>1106.20</ele>
	<time>2024-03-25T08:07:20.000Z</time>
</trkpt>
<trkpt lat="45.8631430" lon="9.3157710">
	<ele>1106.40</ele>
	<time>2024-03-25T08:07:21.000Z</time>
</trkpt>
<trkpt lat="45.8631370" lon="9.3157840">
	<ele>1106.60</ele>
	<time>2024-03-25T08:07:22.000Z</time>
</trkpt>
<trkpt lat="45.8631380" lon="9.3157950">
	<ele>1106.80</ele>
	<time>2024-03-25T08:07:23.000Z</time>
</trkpt>
<trkpt lat="45.8631460" lon="9.3158080">
	<ele>1107.00</ele>
	<time>2024-03-25T08:07:24.000Z</time>
</trkpt>
<trkpt lat="45.8631490" lon="9.3158180">
	<ele>1107.00</ele>
	<time>2024-03-25T08:07:25.000Z</time>
</trkpt>
<trkpt lat="45.8631570" lon="9.3158250">
	<ele>1107.20</ele>
	<time>2024-03-25T08:07:26.000Z</time>
</trkpt>
<trkpt lat="45.8631700" lon="9.3158320">
	<ele>1107.20</ele>
	<time>2024-03-25T08:07:27.000Z</time>
</trkpt>
<trkpt lat="45.8631810" lon="9.3158400">
	<ele>1107.20</ele>
	<time>2024-03-25T08:07:28.000Z</time>
</trkpt>
<trkpt lat="45.8631820" lon="9.3158420">
	<ele>1107.40</ele>
	<time>2024-03-25T08:07:29.000Z</time>
</trkpt>
<trkpt lat="45.8631900" lon="9.3158460">
	<ele>1107.60</ele>
	<time>2024-03-25T08:07:30.000Z</time>
</trkpt>
<trkpt lat="45.8631930" lon="9.3158560">
	<ele>1107.60</ele>
	<time>2024-03-25T08:07:31.000Z</time>
</trkpt>
<trkpt lat="45.8631980" lon="9.3158690">
	<ele>1107.80</ele>
	<time>2024-03-25T08:07:32.000Z</time>
</trkpt>
<trkpt lat="45.8632020" lon="9.3158820">
	<ele>1107.80</ele>
	<time>2024-03-25T08:07:33.000Z</time>
</trkpt>
<trkpt lat="45.8632040" lon="9.3158950">
	<ele>1108.00</ele>
	<time>2024-03-25T08:07:34.000Z</time>
</trkpt>
<trkpt lat="45.8632080" lon="9.3159060">
	<ele>1108.00</ele>
	<time>2024-03-25T08:07:35.000Z</time>
</trkpt>
<trkpt lat="45.8632120" lon="9.3159200">
	<ele>1108.20</ele>
	<time>2024-03-25T08:07:36.000Z</time>
</trkpt>
<trkpt lat="45.8632160" lon="9.3159340">
	<ele>1108.40</ele>
	<time>2024-03-25T08:07:37.000Z</time>
</trkpt>
<trkpt lat="45.8632180" lon="9.3159450">
	<ele>1108.40</ele>
	<time>2024-03-25T08:07:38.000Z</time>
</trkpt>
<trkpt lat="45.8632220" lon="9.3159570">
	<ele>1108.80</ele>
	<time>2024-03-25T08:07:39.000Z</time>
</trkpt>
<trkpt lat="45.8632240" lon="9.3159640">
	<ele>1109.20</ele>
	<time>2024-03-25T08:07:40.000Z</time>
</trkpt>
<trkpt lat="45.8632210" lon="9.3159760">
	<ele>1109.20</ele>
	<time>2024-03-25T08:07:41.000Z</time>
</trkpt>
<trkpt lat="45.8632170" lon="9.3159860">
	<ele>1109.60</ele>
	<time>2024-03-25T08:07:42.000Z</time>
</trkpt>
<trkpt lat="45.8632140" lon="9.3159990">
	<ele>1109.80</ele>
	<time>2024-03-25T08:07:43.000Z</time>
</trkpt>
<trkpt lat="45.8632220" lon="9.3160170">
	<ele>1110.00</ele>
	<time>2024-03-25T08:07:44.000Z</time>
</trkpt>
<trkpt lat="45.8632320" lon="9.3160290">
	<ele>1110.20</ele>
	<time>2024-03-25T08:07:45.000Z</time>
</trkpt>
<trkpt lat="45.8632350" lon="9.3160360">
	<ele>1110.60</ele>
	<time>2024-03-25T08:07:46.000Z</time>
</trkpt>
<trkpt lat="45.8632380" lon="9.3160420">
	<ele>1110.80</ele>
	<time>2024-03-25T08:07:47.000Z</time>
</trkpt>
<trkpt lat="45.8632390" lon="9.3160480">
	<ele>1111.00</ele>
	<time>2024-03-25T08:07:48.000Z</time>
</trkpt>
<trkpt lat="45.8632400" lon="9.3160550">
	<ele>1111.00</ele>
	<time>2024-03-25T08:07:49.000Z</time>
</trkpt>
<trkpt lat="45.8632420" lon="9.3160660">
	<ele>1111.20</ele>
	<time>2024-03-25T08:07:50.000Z</time>
</trkpt>
<trkpt lat="45.8632460" lon="9.3160700">
	<ele>1111.40</ele>
	<time>2024-03-25T08:07:51.000Z</time>
</trkpt>
<trkpt lat="45.8632550" lon="9.3160820">
	<ele>1111.40</ele>
	<time>2024-03-25T08:07:52.000Z</time>
</trkpt>
<trkpt lat="45.8632560" lon="9.3160900">
	<ele>1111.80</ele>
	<time>2024-03-25T08:07:53.000Z</time>
</trkpt>
<trkpt lat="45.8632630" lon="9.3160980">
	<ele>1112.00</ele>
	<time>2024-03-25T08:07:54.000Z</time>
</trkpt>
<trkpt lat="45.8632750" lon="9.3161160">
	<ele>1112.00</ele>
	<time>2024-03-25T08:07:55.000Z</time>
</trkpt>
<trkpt lat="45.8632840" lon="9.3161350">
	<ele>1112.20</ele>
	<time>2024-03-25T08:07:56.000Z</time>
</trkpt>
<trkpt lat="45.8632900" lon="9.3161500">
	<ele>1112.20</ele>
	<time>2024-03-25T08:07:57.000Z</time>
</trkpt>
<trkpt lat="45.8632910" lon="9.3161550">
	<ele>1112.40</ele>
	<time>2024-03-25T08:07:58.000Z</time>
</trkpt>
<trkpt lat="45.8633030" lon="9.3161620">
	<ele>1112.60</ele>
	<time>2024-03-25T08:07:59.000Z</time>
</trkpt>
<trkpt lat="45.8633190" lon="9.3161680">
	<ele>1112.60</ele>
	<time>2024-03-25T08:08:00.000Z</time>
</trkpt>
<trkpt lat="45.8633270" lon="9.3161780">
	<ele>1112.80</ele>
	<time>2024-03-25T08:08:01.000Z</time>
</trkpt>
<trkpt lat="45.8633280" lon="9.3161790">
	<ele>1112.80</ele>
	<time>2024-03-25T08:08:02.000Z</time>
</trkpt>
<trkpt lat="45.8633290" lon="9.3161850">
	<ele>1112.80</ele>
	<time>2024-03-25T08:08:03.000Z</time>
</trkpt>
<trkpt lat="45.8633330" lon="9.3161980">
	<ele>1113.00</ele>
	<time>2024-03-25T08:08:04.000Z</time>
</trkpt>
<trkpt lat="45.8633410" lon="9.3162030">
	<ele>1113.00</ele>
	<time>2024-03-25T08:08:05.000Z</time>
</trkpt>
<trkpt lat="45.8633490" lon="9.3162090">
	<ele>1113.20</ele>
	<time>2024-03-25T08:08:06.000Z</time>
</trkpt>
<trkpt lat="45.8633570" lon="9.3162120">
	<ele>1113.20</ele>
	<time>2024-03-25T08:08:07.000Z</time>
</trkpt>
<trkpt lat="45.8633640" lon="9.3162160">
	<ele>1113.40</ele>
	<time>2024-03-25T08:08:08.000Z</time>
</trkpt>
<trkpt lat="45.8633660" lon="9.3162260">
	<ele>1113.40</ele>
	<time>2024-03-25T08:08:09.000Z</time>
</trkpt>
<trkpt lat="45.8633720" lon="9.3162390">
	<ele>1113.40</ele>
	<time>2024-03-25T08:08:10.000Z</time>
</trkpt>
<trkpt lat="45.8633830" lon="9.3162510">
	<ele>1113.40</ele>
	<time>2024-03-25T08:08:11.000Z</time>
</trkpt>
<trkpt lat="45.8633940" lon="9.3162630">
	<ele>1113.60</ele>
	<time>2024-03-25T08:08:12.000Z</time>
</trkpt>
<trkpt lat="45.8633990" lon="9.3162760">
	<ele>1113.60</ele>
	<time>2024-03-25T08:08:13.000Z</time>
</trkpt>
<trkpt lat="45.8634040" lon="9.3162830">
	<ele>1113.60</ele>
	<time>2024-03-25T08:08:14.000Z</time>
</trkpt>
<trkpt lat="45.8634140" lon="9.3162900">
	<ele>1113.80</ele>
	<time>2024-03-25T08:08:15.000Z</time>
</trkpt>
<trkpt lat="45.8634190" lon="9.3162940">
	<ele>1113.80</ele>
	<time>2024-03-25T08:08:16.000Z</time>
</trkpt>
<trkpt lat="45.8634230" lon="9.3162970">
	<ele>1113.80</ele>
	<time>2024-03-25T08:08:17.000Z</time>
</trkpt>
<trkpt lat="45.8634260" lon="9.3163000">
	<ele>1114.00</ele>
	<time>2024-03-25T08:08:18.000Z</time>
</trkpt>
<trkpt lat="45.8634330" lon="9.3163020">
	<ele>1114.00</ele>
	<time>2024-03-25T08:08:19.000Z</time>
</trkpt>
<trkpt lat="45.8634390" lon="9.3163090">
	<ele>1114.00</ele>
	<time>2024-03-25T08:08:20.000Z</time>
</trkpt>
<trkpt lat="45.8634430" lon="9.3163170">
	<ele>1114.20</ele>
	<time>2024-03-25T08:08:21.000Z</time>
</trkpt>
<trkpt lat="45.8634550" lon="9.3163280">
	<ele>1114.20</ele>
	<time>2024-03-25T08:08:22.000Z</time>
</trkpt>
<trkpt lat="45.8634680" lon="9.3163420">
	<ele>1114.20</ele>
	<time>2024-03-25T08:08:23.000Z</time>
</trkpt>
<trkpt lat="45.8634800" lon="9.3163500">
	<ele>1114.20</ele>
	<time>2024-03-25T08:08:24.000Z</time>
</trkpt>
<trkpt lat="45.8634940" lon="9.3163610">
	<ele>1114.40</ele>
	<time>2024-03-25T08:08:25.000Z</time>
</trkpt>
<trkpt lat="45.8634970" lon="9.3163640">
	<ele>1114.40</ele>
	<time>2024-03-25T08:08:26.000Z</time>
</trkpt>
<trkpt lat="45.8634970" lon="9.3163680">
	<ele>1114.60</ele>
	<time>2024-03-25T08:08:27.000Z</time>
</trkpt>
<trkpt lat="45.8635020" lon="9.3163740">
	<ele>1114.80</ele>
	<time>2024-03-25T08:08:28.000Z</time>
</trkpt>
<trkpt lat="45.8635140" lon="9.3163880">
	<ele>1115.00</ele>
	<time>2024-03-25T08:08:29.000Z</time>
</trkpt>
<trkpt lat="45.8635180" lon="9.3163910">
	<ele>1115.00</ele>
	<time>2024-03-25T08:08:30.000Z</time>
</trkpt>
<trkpt lat="45.8635190" lon="9.3163920">
	<ele>1115.20</ele>
	<time>2024-03-25T08:08:31.000Z</time>
</trkpt>
<trkpt lat="45.8635260" lon="9.3163970">
	<ele>1115.40</ele>
	<time>2024-03-25T08:08:32.000Z</time>
</trkpt>
<trkpt lat="45.8635380" lon="9.3164060">
	<ele>1115.40</ele>
	<time>2024-03-25T08:08:33.000Z</time>
</trkpt>
<trkpt lat="45.8635430" lon="9.3164150">
	<ele>1115.60</ele>
	<time>2024-03-25T08:08:34.000Z</time>
</trkpt>
<trkpt lat="45.8635490" lon="9.3164240">
	<ele>1115.60</ele>
	<time>2024-03-25T08:08:35.000Z</time>
</trkpt>
<trkpt lat="45.8635530" lon="9.3164320">
	<ele>1115.60</ele>
	<time>2024-03-25T08:08:36.000Z</time>
</trkpt>
<trkpt lat="45.8635590" lon="9.3164340">
	<ele>1115.80</ele>
	<time>2024-03-25T08:08:37.000Z</time>
</trkpt>
<trkpt lat="45.8635610" lon="9.3164310">
	<ele>1115.80</ele>
	<time>2024-03-25T08:08:38.000Z</time>
</trkpt>
<trkpt lat="45.8635630" lon="9.3164350">
	<ele>1116.00</ele>
	<time>2024-03-25T08:08:39.000Z</time>
</trkpt>
<trkpt lat="45.8635710" lon="9.3164470">
	<ele>1116.00</ele>
	<time>2024-03-25T08:08:40.000Z</time>
</trkpt>
<trkpt lat="45.8635760" lon="9.3164620">
	<ele>1116.00</ele>
	<time>2024-03-25T08:08:41.000Z</time>
</trkpt>
<trkpt lat="45.8635860" lon="9.3164700">
	<ele>1116.20</ele>
	<time>2024-03-25T08:08:42.000Z</time>
</trkpt>
<trkpt lat="45.8635970" lon="9.3164770">
	<ele>1116.20</ele>
	<time>2024-03-25T08:08:43.000Z</time>
</trkpt>
<trkpt lat="45.8636110" lon="9.3164830">
	<ele>1116.40</ele>
	<time>2024-03-25T08:08:44.000Z</time>
</trkpt>
<trkpt lat="45.8636190" lon="9.3164870">
	<ele>1116.40</ele>
	<time>2024-03-25T08:08:45.000Z</time>
</trkpt>
<trkpt lat="45.8636220" lon="9.3164880">
	<ele>1116.60</ele>
	<time>2024-03-25T08:08:46.000Z</time>
</trkpt>
<trkpt lat="45.8636260" lon="9.3164890">
	<ele>1116.60</ele>
	<time>2024-03-25T08:08:47.000Z</time>
</trkpt>
<trkpt lat="45.8636250" lon="9.3164890">
	<ele>1116.80</ele>
	<time>2024-03-25T08:08:48.000Z</time>
</trkpt>
<trkpt lat="45.8636250" lon="9.3164890">
	<ele>1116.80</ele>
	<time>2024-03-25T08:08:49.000Z</time>
</trkpt>
<trkpt lat="45.8636290" lon="9.3164950">
	<ele>1117.00</ele>
	<time>2024-03-25T08:08:50.000Z</time>
</trkpt>
<trkpt lat="45.8636390" lon="9.3165070">
	<ele>1117.00</ele>
	<time>2024-03-25T08:08:51.000Z</time>
</trkpt>
<trkpt lat="45.8636480" lon="9.3165200">
	<ele>1117.00</ele>
	<time>2024-03-25T08:08:52.000Z</time>
</trkpt>
<trkpt lat="45.8636650" lon="9.3165330">
	<ele>1117.00</ele>
	<time>2024-03-25T08:08:53.000Z</time>
</trkpt>
<trkpt lat="45.8636740" lon="9.3165420">
	<ele>1117.00</ele>
	<time>2024-03-25T08:08:54.000Z</time>
</trkpt>
<trkpt lat="45.8636850" lon="9.3165510">
	<ele>1117.00</ele>
	<time>2024-03-25T08:08:55.000Z</time>
</trkpt>
<trkpt lat="45.8636930" lon="9.3165610">
	<ele>1117.20</ele>
	<time>2024-03-25T08:08:56.000Z</time>
</trkpt>
<trkpt lat="45.8636960" lon="9.3165680">
	<ele>1117.40</ele>
	<time>2024-03-25T08:08:57.000Z</time>
</trkpt>
<trkpt lat="45.8637020" lon="9.3165830">
	<ele>1117.40</ele>
	<time>2024-03-25T08:08:58.000Z</time>
</trkpt>
<trkpt lat="45.8637120" lon="9.3165990">
	<ele>1117.40</ele>
	<time>2024-03-25T08:08:59.000Z</time>
</trkpt>
<trkpt lat="45.8637270" lon="9.3166200">
	<ele>1117.60</ele>
	<time>2024-03-25T08:09:00.000Z</time>
</trkpt>
<trkpt lat="45.8637440" lon="9.3166440">
	<ele>1117.60</ele>
	<time>2024-03-25T08:09:01.000Z</time>
</trkpt>
<trkpt lat="45.8637550" lon="9.3166570">
	<ele>1117.60</ele>
	<time>2024-03-25T08:09:02.000Z</time>
</trkpt>
<trkpt lat="45.8637650" lon="9.3166730">
	<ele>1117.60</ele>
	<time>2024-03-25T08:09:03.000Z</time>
</trkpt>
<trkpt lat="45.8637720" lon="9.3166890">
	<ele>1117.80</ele>
	<time>2024-03-25T08:09:04.000Z</time>
</trkpt>
<trkpt lat="45.8637790" lon="9.3167050">
	<ele>1117.80</ele>
	<time>2024-03-25T08:09:05.000Z</time>
</trkpt>
<trkpt lat="45.8637900" lon="9.3167170">
	<ele>1118.00</ele>
	<time>2024-03-25T08:09:06.000Z</time>
</trkpt>
<trkpt lat="45.8638020" lon="9.3167260">
	<ele>1118.20</ele>
	<time>2024-03-25T08:09:07.000Z</time>
</trkpt>
<trkpt lat="45.8638140" lon="9.3167310">
	<ele>1118.20</ele>
	<time>2024-03-25T08:09:08.000Z</time>
</trkpt>
<trkpt lat="45.8638200" lon="9.3167460">
	<ele>1118.20</ele>
	<time>2024-03-25T08:09:09.000Z</time>
</trkpt>
<trkpt lat="45.8638290" lon="9.3167650">
	<ele>1118.20</ele>
	<time>2024-03-25T08:09:10.000Z</time>
</trkpt>
<trkpt lat="45.8638290" lon="9.3167750">
	<ele>1118.40</ele>
	<time>2024-03-25T08:09:11.000Z</time>
</trkpt>
<trkpt lat="45.8638330" lon="9.3167870">
	<ele>1118.40</ele>
	<time>2024-03-25T08:09:12.000Z</time>
</trkpt>
<trkpt lat="45.8638380" lon="9.3168040">
	<ele>1118.60</ele>
	<time>2024-03-25T08:09:13.000Z</time>
</trkpt>
<trkpt lat="45.8638420" lon="9.3168160">
	<ele>1118.80</ele>
	<time>2024-03-25T08:09:14.000Z</time>
</trkpt>
<trkpt lat="45.8638490" lon="9.3168290">
	<ele>1118.80</ele>
	<time>2024-03-25T08:09:15.000Z</time>
</trkpt>
<trkpt lat="45.8638550" lon="9.3168420">
	<ele>1119.00</ele>
	<time>2024-03-25T08:09:16.000Z</time>
</trkpt>
<trkpt lat="45.8638510" lon="9.3168480">
	<ele>1119.20</ele>
	<time>2024-03-25T08:09:17.000Z</time>
</trkpt>
<trkpt lat="45.8638550" lon="9.3168630">
	<ele>1119.20</ele>
	<time>2024-03-25T08:09:18.000Z</time>
</trkpt>
<trkpt lat="45.8638660" lon="9.3168790">
	<ele>1119.20</ele>
	<time>2024-03-25T08:09:19.000Z</time>
</trkpt>
<trkpt lat="45.8638730" lon="9.3168890">
	<ele>1119.40</ele>
	<time>2024-03-25T08:09:20.000Z</time>
</trkpt>
<trkpt lat="45.8638830" lon="9.3168930">
	<ele>1119.40</ele>
	<time>2024-03-25T08:09:21.000Z</time>
</trkpt>
<trkpt lat="45.8638920" lon="9.3168920">
	<ele>1119.20</ele>
	<time>2024-03-25T08:09:22.000Z</time>
</trkpt>
<trkpt lat="45.8639010" lon="9.3168910">
	<ele>1119.20</ele>
	<time>2024-03-25T08:09:23.000Z</time>
</trkpt>
<trkpt lat="45.8639070" lon="9.3168960">
	<ele>1119.20</ele>
	<time>2024-03-25T08:09:24.000Z</time>
</trkpt>
<trkpt lat="45.8639090" lon="9.3169020">
	<ele>1119.20</ele>
	<time>2024-03-25T08:09:25.000Z</time>
</trkpt>
<trkpt lat="45.8639020" lon="9.3168970">
	<ele>1119.20</ele>
	<time>2024-03-25T08:09:26.000Z</time>
</trkpt>
<trkpt lat="45.8639120" lon="9.3169000">
	<ele>1119.40</ele>
	<time>2024-03-25T08:09:27.000Z</time>
</trkpt>
<trkpt lat="45.8639120" lon="9.3168990">
	<ele>1119.40</ele>
	<time>2024-03-25T08:09:28.000Z</time>
</trkpt>
<trkpt lat="45.8639100" lon="9.3169020">
	<ele>1119.60</ele>
	<time>2024-03-25T08:09:29.000Z</time>
</trkpt>
<trkpt lat="45.8639140" lon="9.3169110">
	<ele>1119.80</ele>
	<time>2024-03-25T08:09:30.000Z</time>
</trkpt>
<trkpt lat="45.8639220" lon="9.3169280">
	<ele>1119.80</ele>
	<time>2024-03-25T08:09:31.000Z</time>
</trkpt>
<trkpt lat="45.8639270" lon="9.3169470">
	<ele>1120.00</ele>
	<time>2024-03-25T08:09:32.000Z</time>
</trkpt>
<trkpt lat="45.8639320" lon="9.3169620">
	<ele>1120.00</ele>
	<time>2024-03-25T08:09:33.000Z</time>
</trkpt>
<trkpt lat="45.8639340" lon="9.3169690">
	<ele>1120.00</ele>
	<time>2024-03-25T08:09:34.000Z</time>
</trkpt>
<trkpt lat="45.8639380" lon="9.3169790">
	<ele>1120.00</ele>
	<time>2024-03-25T08:09:35.000Z</time>
</trkpt>
<trkpt lat="45.8639480" lon="9.3169950">
	<ele>1120.00</ele>
	<time>2024-03-25T08:09:36.000Z</time>
</trkpt>
<trkpt lat="45.8639500" lon="9.3170050">
	<ele>1120.00</ele>
	<time>2024-03-25T08:09:37.000Z</time>
</trkpt>
<trkpt lat="45.8639510" lon="9.3170160">
	<ele>1119.80</ele>
	<time>2024-03-25T08:09:38.000Z</time>
</trkpt>
<trkpt lat="45.8639590" lon="9.3170320">
	<ele>1119.80</ele>
	<time>2024-03-25T08:09:39.000Z</time>
</trkpt>
<trkpt lat="45.8639650" lon="9.3170530">
	<ele>1119.40</ele>
	<time>2024-03-25T08:09:40.000Z</time>
</trkpt>
<trkpt lat="45.8639720" lon="9.3170740">
	<ele>1119.20</ele>
	<time>2024-03-25T08:09:41.000Z</time>
</trkpt>
<trkpt lat="45.8639820" lon="9.3170900">
	<ele>1119.00</ele>
	<time>2024-03-25T08:09:42.000Z</time>
</trkpt>
<trkpt lat="45.8639930" lon="9.3171000">
	<ele>1119.00</ele>
	<time>2024-03-25T08:09:43.000Z</time>
</trkpt>
<trkpt lat="45.8639980" lon="9.3171080">
	<ele>1118.80</ele>
	<time>2024-03-25T08:09:44.000Z</time>
</trkpt>
<trkpt lat="45.8640150" lon="9.3171230">
	<ele>1118.60</ele>
	<time>2024-03-25T08:09:45.000Z</time>
</trkpt>
<trkpt lat="45.8640280" lon="9.3171420">
	<ele>1118.40</ele>
	<time>2024-03-25T08:09:46.000Z</time>
</trkpt>
<trkpt lat="45.8640380" lon="9.3171630">
	<ele>1118.40</ele>
	<time>2024-03-25T08:09:47.000Z</time>
</trkpt>
<trkpt lat="45.8640380" lon="9.3171850">
	<ele>1118.20</ele>
	<time>2024-03-25T08:09:48.000Z</time>
</trkpt>
<trkpt lat="45.8640360" lon="9.3171940">
	<ele>1118.20</ele>
	<time>2024-03-25T08:09:49.000Z</time>
</trkpt>
<trkpt lat="45.8640390" lon="9.3172060">
	<ele>1118.20</ele>
	<time>2024-03-25T08:09:50.000Z</time>
</trkpt>
<trkpt lat="45.8640460" lon="9.3172170">
	<ele>1118.20</ele>
	<time>2024-03-25T08:09:51.000Z</time>
</trkpt>
<trkpt lat="45.8640510" lon="9.3172300">
	<ele>1118.20</ele>
	<time>2024-03-25T08:09:52.000Z</time>
</trkpt>
<trkpt lat="45.8640600" lon="9.3172450">
	<ele>1118.20</ele>
	<time>2024-03-25T08:09:53.000Z</time>
</trkpt>
<trkpt lat="45.8640690" lon="9.3172620">
	<ele>1118.00</ele>
	<time>2024-03-25T08:09:54.000Z</time>
</trkpt>
<trkpt lat="45.8640750" lon="9.3172860">
	<ele>1117.80</ele>
	<time>2024-03-25T08:09:55.000Z</time>
</trkpt>
<trkpt lat="45.8640770" lon="9.3173070">
	<ele>1117.80</ele>
	<time>2024-03-25T08:09:56.000Z</time>
</trkpt>
<trkpt lat="45.8640810" lon="9.3173280">
	<ele>1117.80</ele>
	<time>2024-03-25T08:09:57.000Z</time>
</trkpt>
<trkpt lat="45.8640920" lon="9.3173600">
	<ele>1117.80</ele>
	<time>2024-03-25T08:09:58.000Z</time>
</trkpt>
<trkpt lat="45.8640990" lon="9.3173870">
	<ele>1117.80</ele>
	<time>2024-03-25T08:09:59.000Z</time>
</trkpt>
<trkpt lat="45.8641040" lon="9.3174050">
	<ele>1117.80</ele>
	<time>2024-03-25T08:10:00.000Z</time>
</trkpt>
<trkpt lat="45.8641140" lon="9.3174230">
	<ele>1117.80</ele>
	<time>2024-03-25T08:10:01.000Z</time>
</trkpt>
<trkpt lat="45.8641240" lon="9.3174390">
	<ele>1117.80</ele>
	<time>2024-03-25T08:10:02.000Z</time>
</trkpt>
<trkpt lat="45.8641320" lon="9.3174580">
	<ele>1118.00</ele>
	<time>2024-03-25T08:10:03.000Z</time>
</trkpt>
<trkpt lat="45.8641350" lon="9.3174710">
	<ele>1118.00</ele>
	<time>2024-03-25T08:10:04.000Z</time>
</trkpt>
<trkpt lat="45.8641470" lon="9.3174920">
	<ele>1117.80</ele>
	<time>2024-03-25T08:10:05.000Z</time>
</trkpt>
<trkpt lat="45.8641600" lon="9.3175110">
	<ele>1117.80</ele>
	<time>2024-03-25T08:10:06.000Z</time>
</trkpt>
<trkpt lat="45.8641690" lon="9.3175280">
	<ele>1117.80</ele>
	<time>2024-03-25T08:10:07.000Z</time>
</trkpt>
<trkpt lat="45.8641730" lon="9.3175440">
	<ele>1117.80</ele>
	<time>2024-03-25T08:10:08.000Z</time>
</trkpt>
<trkpt lat="45.8641780" lon="9.3175600">
	<ele>1117.80</ele>
	<time>2024-03-25T08:10:09.000Z</time>
</trkpt>
<trkpt lat="45.8641860" lon="9.3175810">
	<ele>1117.80</ele>
	<time>2024-03-25T08:10:10.000Z</time>
</trkpt>
<trkpt lat="45.8641900" lon="9.3175960">
	<ele>1118.00</ele>
	<time>2024-03-25T08:10:11.000Z</time>
</trkpt>
<trkpt lat="45.8641920" lon="9.3176060">
	<ele>1118.20</ele>
	<time>2024-03-25T08:10:12.000Z</time>
</trkpt>
<trkpt lat="45.8641920" lon="9.3176150">
	<ele>1118.40</ele>
	<time>2024-03-25T08:10:13.000Z</time>
</trkpt>
<trkpt lat="45.8641870" lon="9.3176230">
	<ele>1118.60</ele>
	<time>2024-03-25T08:10:14.000Z</time>
</trkpt>
<trkpt lat="45.8641890" lon="9.3176380">
	<ele>1118.80</ele>
	<time>2024-03-25T08:10:15.000Z</time>
</trkpt>
<trkpt lat="45.8641880" lon="9.3176530">
	<ele>1118.80</ele>
	<time>2024-03-25T08:10:16.000Z</time>
</trkpt>
<trkpt lat="45.8641860" lon="9.3176620">
	<ele>1119.00</ele>
	<time>2024-03-25T08:10:17.000Z</time>
</trkpt>
<trkpt lat="45.8641850" lon="9.3176680">
	<ele>1119.20</ele>
	<time>2024-03-25T08:10:18.000Z</time>
</trkpt>
<trkpt lat="45.8641860" lon="9.3176740">
	<ele>1119.40</ele>
	<time>2024-03-25T08:10:19.000Z</time>
</trkpt>
<trkpt lat="45.8641890" lon="9.3176760">
	<ele>1119.60</ele>
	<time>2024-03-25T08:10:20.000Z</time>
</trkpt>
<trkpt lat="45.8641970" lon="9.3176840">
	<ele>1119.60</ele>
	<time>2024-03-25T08:10:21.000Z</time>
</trkpt>
<trkpt lat="45.8641980" lon="9.3176910">
	<ele>1119.60</ele>
	<time>2024-03-25T08:10:22.000Z</time>
</trkpt>
<trkpt lat="45.8642040" lon="9.3177020">
	<ele>1119.40</ele>
	<time>2024-03-25T08:10:23.000Z</time>
</trkpt>
<trkpt lat="45.8642010" lon="9.3177070">
	<ele>1119.20</ele>
	<time>2024-03-25T08:10:24.000Z</time>
</trkpt>
<trkpt lat="45.8641950" lon="9.3177150">
	<ele>1119.00</ele>
	<time>2024-03-25T08:10:25.000Z</time>
</trkpt>
<trkpt lat="45.8641980" lon="9.3177290">
	<ele>1118.80</ele>
	<time>2024-03-25T08:10:26.000Z</time>
</trkpt>
<trkpt lat="45.8642080" lon="9.3177420">
	<ele>1118.80</ele>
	<time>2024-03-25T08:10:27.000Z</time>
</trkpt>
<trkpt lat="45.8642200" lon="9.3177640">
	<ele>1118.60</ele>
	<time>2024-03-25T08:10:28.000Z</time>
</trkpt>
<trkpt lat="45.8642210" lon="9.3177850">
	<ele>1118.60</ele>
	<time>2024-03-25T08:10:29.000Z</time>
</trkpt>
<trkpt lat="45.8642200" lon="9.3178060">
	<ele>1118.60</ele>
	<time>2024-03-25T08:10:30.000Z</time>
</trkpt>
<trkpt lat="45.8642240" lon="9.3178170">
	<ele>1118.40</ele>
	<time>2024-03-25T08:10:31.000Z</time>
</trkpt>
<trkpt lat="45.8642300" lon="9.3178240">
	<ele>1118.40</ele>
	<time>2024-03-25T08:10:32.000Z</time>
</trkpt>
<trkpt lat="45.8642360" lon="9.3178320">
	<ele>1118.40</ele>
	<time>2024-03-25T08:10:33.000Z</time>
</trkpt>
<trkpt lat="45.8642430" lon="9.3178450">
	<ele>1118.40</ele>
	<time>2024-03-25T08:10:34.000Z</time>
</trkpt>
<trkpt lat="45.8642460" lon="9.3178600">
	<ele>1118.60</ele>
	<time>2024-03-25T08:10:35.000Z</time>
</trkpt>
<trkpt lat="45.8642470" lon="9.3178660">
	<ele>1118.60</ele>
	<time>2024-03-25T08:10:36.000Z</time>
</trkpt>
<trkpt lat="45.8642460" lon="9.3178710">
	<ele>1118.60</ele>
	<time>2024-03-25T08:10:37.000Z</time>
</trkpt>
<trkpt lat="45.8642480" lon="9.3178860">
	<ele>1118.80</ele>
	<time>2024-03-25T08:10:38.000Z</time>
</trkpt>
<trkpt lat="45.8642440" lon="9.3179000">
	<ele>1119.00</ele>
	<time>2024-03-25T08:10:39.000Z</time>
</trkpt>
<trkpt lat="45.8642480" lon="9.3179170">
	<ele>1119.00</ele>
	<time>2024-03-25T08:10:40.000Z</time>
</trkpt>
<trkpt lat="45.8642520" lon="9.3179320">
	<ele>1119.20</ele>
	<time>2024-03-25T08:10:41.000Z</time>
</trkpt>
<trkpt lat="45.8642540" lon="9.3179480">
	<ele>1119.40</ele>
	<time>2024-03-25T08:10:42.000Z</time>
</trkpt>
<trkpt lat="45.8642570" lon="9.3179630">
	<ele>1119.40</ele>
	<time>2024-03-25T08:10:43.000Z</time>
</trkpt>
<trkpt lat="45.8642600" lon="9.3179770">
	<ele>1119.40</ele>
	<time>2024-03-25T08:10:44.000Z</time>
</trkpt>
<trkpt lat="45.8642680" lon="9.3179960">
	<ele>1119.60</ele>
	<time>2024-03-25T08:10:45.000Z</time>
</trkpt>
<trkpt lat="45.8642790" lon="9.3180080">
	<ele>1119.60</ele>
	<time>2024-03-25T08:10:46.000Z</time>
</trkpt>
<trkpt lat="45.8642840" lon="9.3180120">
	<ele>1119.60</ele>
	<time>2024-03-25T08:10:47.000Z</time>
</trkpt>
<trkpt lat="45.8642850" lon="9.3180170">
	<ele>1119.60</ele>
	<time>2024-03-25T08:10:48.000Z</time>
</trkpt>
<trkpt lat="45.8642870" lon="9.3180210">
	<ele>1119.80</ele>
	<time>2024-03-25T08:10:49.000Z</time>
</trkpt>
<trkpt lat="45.8642880" lon="9.3180280">
	<ele>1120.00</ele>
	<time>2024-03-25T08:10:50.000Z</time>
</trkpt>
<trkpt lat="45.8642940" lon="9.3180430">
	<ele>1120.00</ele>
	<time>2024-03-25T08:10:51.000Z</time>
</trkpt>
<trkpt lat="45.8642980" lon="9.3180580">
	<ele>1120.00</ele>
	<time>2024-03-25T08:10:52.000Z</time>
</trkpt>
<trkpt lat="45.8643010" lon="9.3180720">
	<ele>1120.20</ele>
	<time>2024-03-25T08:10:53.000Z</time>
</trkpt>
<trkpt lat="45.8643020" lon="9.3180770">
	<ele>1120.20</ele>
	<time>2024-03-25T08:10:54.000Z</time>
</trkpt>
<trkpt lat="45.8642940" lon="9.3180990">
	<ele>1120.20</ele>
	<time>2024-03-25T08:10:55.000Z</time>
</trkpt>
<trkpt lat="45.8642890" lon="9.3181210">
	<ele>1120.40</ele>
	<time>2024-03-25T08:10:56.000Z</time>
</trkpt>
<trkpt lat="45.8642900" lon="9.3181400">
	<ele>1120.60</ele>
	<time>2024-03-25T08:10:57.000Z</time>
</trkpt>
<trkpt lat="45.8642910" lon="9.3181560">
	<ele>1120.60</ele>
	<time>2024-03-25T08:10:58.000Z</time>
</trkpt>
<trkpt lat="45.8642940" lon="9.3181740">
	<ele>1120.80</ele>
	<time>2024-03-25T08:10:59.000Z</time>
</trkpt>
<trkpt lat="45.8643000" lon="9.3181900">
	<ele>1120.80</ele>
	<time>2024-03-25T08:11:00.000Z</time>
</trkpt>
<trkpt lat="45.8643030" lon="9.3182050">
	<ele>1121.00</ele>
	<time>2024-03-25T08:11:01.000Z</time>
</trkpt>
<trkpt lat="45.8643090" lon="9.3182220">
	<ele>1121.00</ele>
	<time>2024-03-25T08:11:02.000Z</time>
</trkpt>
<trkpt lat="45.8643140" lon="9.3182360">
	<ele>1121.20</ele>
	<time>2024-03-25T08:11:03.000Z</time>
</trkpt>
<trkpt lat="45.8643120" lon="9.3182400">
	<ele>1121.40</ele>
	<time>2024-03-25T08:11:04.000Z</time>
</trkpt>
<trkpt lat="45.8643070" lon="9.3182530">
	<ele>1121.80</ele>
	<time>2024-03-25T08:11:05.000Z</time>
</trkpt>
<trkpt lat="45.8643100" lon="9.3182680">
	<ele>1122.00</ele>
	<time>2024-03-25T08:11:06.000Z</time>
</trkpt>
<trkpt lat="45.8643160" lon="9.3182860">
	<ele>1122.20</ele>
	<time>2024-03-25T08:11:07.000Z</time>
</trkpt>
<trkpt lat="45.8643140" lon="9.3183040">
	<ele>1122.20</ele>
	<time>2024-03-25T08:11:08.000Z</time>
</trkpt>
<trkpt lat="45.8643110" lon="9.3183130">
	<ele>1122.20</ele>
	<time>2024-03-25T08:11:09.000Z</time>
</trkpt>
<trkpt lat="45.8643150" lon="9.3183200">
	<ele>1122.40</ele>
	<time>2024-03-25T08:11:10.000Z</time>
</trkpt>
<trkpt lat="45.8643260" lon="9.3183280">
	<ele>1122.60</ele>
	<time>2024-03-25T08:11:11.000Z</time>
</trkpt>
<trkpt lat="45.8643320" lon="9.3183370">
	<ele>1122.80</ele>
	<time>2024-03-25T08:11:12.000Z</time>
</trkpt>
<trkpt lat="45.8643370" lon="9.3183420">
	<ele>1123.00</ele>
	<time>2024-03-25T08:11:13.000Z</time>
</trkpt>
<trkpt lat="45.8643430" lon="9.3183570">
	<ele>1123.00</ele>
	<time>2024-03-25T08:11:14.000Z</time>
</trkpt>
<trkpt lat="45.8643480" lon="9.3183770">
	<ele>1123.00</ele>
	<time>2024-03-25T08:11:15.000Z</time>
</trkpt>
<trkpt lat="45.8643490" lon="9.3183850">
	<ele>1123.20</ele>
	<time>2024-03-25T08:11:16.000Z</time>
</trkpt>
<trkpt lat="45.8643470" lon="9.3183920">
	<ele>1123.40</ele>
	<time>2024-03-25T08:11:17.000Z</time>
</trkpt>
<trkpt lat="45.8643470" lon="9.3183970">
	<ele>1123.60</ele>
	<time>2024-03-25T08:11:18.000Z</time>
</trkpt>
<trkpt lat="45.8643470" lon="9.3184070">
	<ele>1123.60</ele>
	<time>2024-03-25T08:11:19.000Z</time>
</trkpt>
<trkpt lat="45.8643470" lon="9.3184130">
	<ele>1124.00</ele>
	<time>2024-03-25T08:11:20.000Z</time>
</trkpt>
<trkpt lat="45.8643560" lon="9.3184240">
	<ele>1124.00</ele>
	<time>2024-03-25T08:11:21.000Z</time>
</trkpt>
<trkpt lat="45.8643630" lon="9.3184320">
	<ele>1124.20</ele>
	<time>2024-03-25T08:11:22.000Z</time>
</trkpt>
<trkpt lat="45.8643710" lon="9.3184420">
	<ele>1124.20</ele>
	<time>2024-03-25T08:11:23.000Z</time>
</trkpt>
<trkpt lat="45.8643790" lon="9.3184540">
	<ele>1124.40</ele>
	<time>2024-03-25T08:11:24.000Z</time>
</trkpt>
<trkpt lat="45.8643820" lon="9.3184620">
	<ele>1124.40</ele>
	<time>2024-03-25T08:11:25.000Z</time>
</trkpt>
<trkpt lat="45.8643830" lon="9.3184730">
	<ele>1124.60</ele>
	<time>2024-03-25T08:11:26.000Z</time>
</trkpt>
<trkpt lat="45.8643900" lon="9.3184930">
	<ele>1124.80</ele>
	<time>2024-03-25T08:11:27.000Z</time>
</trkpt>
<trkpt lat="45.8643970" lon="9.3185100">
	<ele>1124.80</ele>
	<time>2024-03-25T08:11:28.000Z</time>
</trkpt>
<trkpt lat="45.8644030" lon="9.3185210">
	<ele>1125.00</ele>
	<time>2024-03-25T08:11:29.000Z</time>
</trkpt>
<trkpt lat="45.8644080" lon="9.3185370">
	<ele>1125.00</ele>
	<time>2024-03-25T08:11:30.000Z</time>
</trkpt>
<trkpt lat="45.8644130" lon="9.3185500">
	<ele>1125.20</ele>
	<time>2024-03-25T08:11:31.000Z</time>
</trkpt>
<trkpt lat="45.8644240" lon="9.3185660">
	<ele>1125.20</ele>
	<time>2024-03-25T08:11:32.000Z</time>
</trkpt>
<trkpt lat="45.8644330" lon="9.3185810">
	<ele>1125.40</ele>
	<time>2024-03-25T08:11:33.000Z</time>
</trkpt>
<trkpt lat="45.8644480" lon="9.3185950">
	<ele>1125.40</ele>
	<time>2024-03-25T08:11:34.000Z</time>
</trkpt>
<trkpt lat="45.8644580" lon="9.3186060">
	<ele>1125.60</ele>
	<time>2024-03-25T08:11:35.000Z</time>
</trkpt>
<trkpt lat="45.8644720" lon="9.3186190">
	<ele>1125.80</ele>
	<time>2024-03-25T08:11:36.000Z</time>
</trkpt>
<trkpt lat="45.8644870" lon="9.3186310">
	<ele>1125.80</ele>
	<time>2024-03-25T08:11:37.000Z</time>
</trkpt>
<trkpt lat="45.8645070" lon="9.3186480">
	<ele>1126.00</ele>
	<time>2024-03-25T08:11:38.000Z</time>
</trkpt>
<trkpt lat="45.8645210" lon="9.3186620">
	<ele>1126.00</ele>
	<time>2024-03-25T08:11:39.000Z</time>
</trkpt>
<trkpt lat="45.8645430" lon="9.3186830">
	<ele>1126.20</ele>
	<time>2024-03-25T08:11:40.000Z</time>
</trkpt>
<trkpt lat="45.8645480" lon="9.3186990">
	<ele>1126.20</ele>
	<time>2024-03-25T08:11:41.000Z</time>
</trkpt>
<trkpt lat="45.8645490" lon="9.3187160">
	<ele>1126.20</ele>
	<time>2024-03-25T08:11:42.000Z</time>
</trkpt>
<trkpt lat="45.8645500" lon="9.3187260">
	<ele>1126.40</ele>
	<time>2024-03-25T08:11:43.000Z</time>
</trkpt>
<trkpt lat="45.8645570" lon="9.3187360">
	<ele>1126.40</ele>
	<time>2024-03-25T08:11:44.000Z</time>
</trkpt>
<trkpt lat="45.8645630" lon="9.3187450">
	<ele>1126.60</ele>
	<time>2024-03-25T08:11:45.000Z</time>
</trkpt>
<trkpt lat="45.8645660" lon="9.3187480">
	<ele>1126.80</ele>
	<time>2024-03-25T08:11:46.000Z</time>
</trkpt>
<trkpt lat="45.8645710" lon="9.3187520">
	<ele>1127.00</ele>
	<time>2024-03-25T08:11:47.000Z</time>
</trkpt>
<trkpt lat="45.8645710" lon="9.3187530">
	<ele>1127.20</ele>
	<time>2024-03-25T08:11:48.000Z</time>
</trkpt>
<trkpt lat="45.8645670" lon="9.3187530">
	<ele>1127.40</ele>
	<time>2024-03-25T08:11:49.000Z</time>
</trkpt>
<trkpt lat="45.8645640" lon="9.3187540">
	<ele>1127.60</ele>
	<time>2024-03-25T08:11:50.000Z</time>
</trkpt>
<trkpt lat="45.8645630" lon="9.3187590">
	<ele>1127.60</ele>
	<time>2024-03-25T08:11:51.000Z</time>
</trkpt>
<trkpt lat="45.8645660" lon="9.3187700">
	<ele>1127.80</ele>
	<time>2024-03-25T08:11:52.000Z</time>
</trkpt>
<trkpt lat="45.8645720" lon="9.3187810">
	<ele>1128.00</ele>
	<time>2024-03-25T08:11:53.000Z</time>
</trkpt>
<trkpt lat="45.8645770" lon="9.3187920">
	<ele>1128.20</ele>
	<time>2024-03-25T08:11:54.000Z</time>
</trkpt>
<trkpt lat="45.8645780" lon="9.3188040">
	<ele>1128.20</ele>
	<time>2024-03-25T08:11:55.000Z</time>
</trkpt>
<trkpt lat="45.8645790" lon="9.3188150">
	<ele>1128.40</ele>
	<time>2024-03-25T08:11:56.000Z</time>
</trkpt>
<trkpt lat="45.8645830" lon="9.3188280">
	<ele>1128.60</ele>
	<time>2024-03-25T08:11:57.000Z</time>
</trkpt>
<trkpt lat="45.8645800" lon="9.3188400">
	<ele>1128.80</ele>
	<time>2024-03-25T08:11:58.000Z</time>
</trkpt>
<trkpt lat="45.8645830" lon="9.3188510">
	<ele>1129.00</ele>
	<time>2024-03-25T08:11:59.000Z</time>
</trkpt>
<trkpt lat="45.8645890" lon="9.3188650">
	<ele>1129.40</ele>
	<time>2024-03-25T08:12:00.000Z</time>
</trkpt>
<trkpt lat="45.8645950" lon="9.3188760">
	<ele>1129.60</ele>
	<time>2024-03-25T08:12:01.000Z</time>
</trkpt>
<trkpt lat="45.8646010" lon="9.3188920">
	<ele>1130.00</ele>
	<time>2024-03-25T08:12:02.000Z</time>
</trkpt>
<trkpt lat="45.8646020" lon="9.3189020">
	<ele>1130.20</ele>
	<time>2024-03-25T08:12:03.000Z</time>
</trkpt>
<trkpt lat="45.8646010" lon="9.3189110">
	<ele>1130.20</ele>
	<time>2024-03-25T08:12:04.000Z</time>
</trkpt>
<trkpt lat="45.8646000" lon="9.3189200">
	<ele>1130.40</ele>
	<time>2024-03-25T08:12:05.000Z</time>
</trkpt>
<trkpt lat="45.8646020" lon="9.3189270">
	<ele>1130.60</ele>
	<time>2024-03-25T08:12:06.000Z</time>
</trkpt>
<trkpt lat="45.8646050" lon="9.3189330">
	<ele>1130.80</ele>
	<time>2024-03-25T08:12:07.000Z</time>
</trkpt>
<trkpt lat="45.8646120" lon="9.3189410">
	<ele>1131.00</ele>
	<time>2024-03-25T08:12:08.000Z</time>
</trkpt>
<trkpt lat="45.8646170" lon="9.3189470">
	<ele>1131.20</ele>
	<time>2024-03-25T08:12:09.000Z</time>
</trkpt>
<trkpt lat="45.8646230" lon="9.3189530">
	<ele>1131.40</ele>
	<time>2024-03-25T08:12:10.000Z</time>
</trkpt>
<trkpt lat="45.8646260" lon="9.3189590">
	<ele>1131.60</ele>
	<time>2024-03-25T08:12:11.000Z</time>
</trkpt>
<trkpt lat="45.8646260" lon="9.3189680">
	<ele>1131.80</ele>
	<time>2024-03-25T08:12:12.000Z</time>
</trkpt>
<trkpt lat="45.8646290" lon="9.3189730">
	<ele>1132.00</ele>
	<time>2024-03-25T08:12:13.000Z</time>
</trkpt>
<trkpt lat="45.8646340" lon="9.3189850">
	<ele>1132.20</ele>
	<time>2024-03-25T08:12:14.000Z</time>
</trkpt>
<trkpt lat="45.8646450" lon="9.3190000">
	<ele>1132.40</ele>
	<time>2024-03-25T08:12:15.000Z</time>
</trkpt>
<trkpt lat="45.8646520" lon="9.3190140">
	<ele>1132.40</ele>
	<time>2024-03-25T08:12:16.000Z</time>
</trkpt>
<trkpt lat="45.8646590" lon="9.3190300">
	<ele>1132.60</ele>
	<time>2024-03-25T08:12:17.000Z</time>
</trkpt>
<trkpt lat="45.8646620" lon="9.3190430">
	<ele>1132.80</ele>
	<time>2024-03-25T08:12:18.000Z</time>
</trkpt>
<trkpt lat="45.8646700" lon="9.3190580">
	<ele>1133.00</ele>
	<time>2024-03-25T08:12:19.000Z</time>
</trkpt>
<trkpt lat="45.8646770" lon="9.3190740">
	<ele>1133.00</ele>
	<time>2024-03-25T08:12:20.000Z</time>
</trkpt>
<trkpt lat="45.8646840" lon="9.3190820">
	<ele>1133.40</ele>
	<time>2024-03-25T08:12:21.000Z</time>
</trkpt>
<trkpt lat="45.8646820" lon="9.3190910">
	<ele>1133.60</ele>
	<time>2024-03-25T08:12:22.000Z</time>
</trkpt>
<trkpt lat="45.8646800" lon="9.3190910">
	<ele>1133.60</ele>
	<time>2024-03-25T08:12:23.000Z</time>
</trkpt>
<trkpt lat="45.8646810" lon="9.3190890">
	<ele>1133.80</ele>
	<time>2024-03-25T08:12:24.000Z</time>
</trkpt>
<trkpt lat="45.8646830" lon="9.3190960">
	<ele>1133.80</ele>
	<time>2024-03-25T08:12:25.000Z</time>
</trkpt>
<trkpt lat="45.8646840" lon="9.3190990">
	<ele>1133.80</ele>
	<time>2024-03-25T08:12:26.000Z</time>
</trkpt>
<trkpt lat="45.8646900" lon="9.3191140">
	<ele>1134.00</ele>
	<time>2024-03-25T08:12:27.000Z</time>
</trkpt>
<trkpt lat="45.8646930" lon="9.3191200">
	<ele>1134.00</ele>
	<time>2024-03-25T08:12:28.000Z</time>
</trkpt>
<trkpt lat="45.8646950" lon="9.3191210">
	<ele>1134.00</ele>
	<time>2024-03-25T08:12:29.000Z</time>
</trkpt>
<trkpt lat="45.8646970" lon="9.3191220">
	<ele>1134.20</ele>
	<time>2024-03-25T08:12:30.000Z</time>
</trkpt>
<trkpt lat="45.8646990" lon="9.3191240">
	<ele>1134.00</ele>
	<time>2024-03-25T08:12:31.000Z</time>
</trkpt>
<trkpt lat="45.8647000" lon="9.3191250">
	<ele>1133.80</ele>
	<time>2024-03-25T08:12:32.000Z</time>
</trkpt>
<trkpt lat="45.8647040" lon="9.3191310">
	<ele>1133.80</ele>
	<time>2024-03-25T08:12:33.000Z</time>
</trkpt>
<trkpt lat="45.8647070" lon="9.3191340">
	<ele>1133.80</ele>
	<time>2024-03-25T08:12:34.000Z</time>
</trkpt>
<trkpt lat="45.8647040" lon="9.3191350">
	<ele>1133.80</ele>
	<time>2024-03-25T08:12:35.000Z</time>
</trkpt>
<trkpt lat="45.8647030" lon="9.3191330">
	<ele>1133.60</ele>
	<time>2024-03-25T08:12:36.000Z</time>
</trkpt>
<trkpt lat="45.8646940" lon="9.3191260">
	<ele>1133.60</ele>
	<time>2024-03-25T08:12:37.000Z</time>
</trkpt>
<trkpt lat="45.8646940" lon="9.3191270">
	<ele>1133.60</ele>
	<time>2024-03-25T08:12:38.000Z</time>
</trkpt>
<trkpt lat="45.8646940" lon="9.3191300">
	<ele>1133.60</ele>
	<time>2024-03-25T08:12:39.000Z</time>
</trkpt>
<trkpt lat="45.8647030" lon="9.3191460">
	<ele>1133.60</ele>
	<time>2024-03-25T08:12:40.000Z</time>
</trkpt>
<trkpt lat="45.8647050" lon="9.3191470">
	<ele>1133.60</ele>
	<time>2024-03-25T08:12:41.000Z</time>
</trkpt>
<trkpt lat="45.8647080" lon="9.3191470">
	<ele>1133.60</ele>
	<time>2024-03-25T08:12:42.000Z</time>
</trkpt>
<trkpt lat="45.8647080" lon="9.3191490">
	<ele>1133.60</ele>
	<time>2024-03-25T08:12:43.000Z</time>
</trkpt>
<trkpt lat="45.8647110" lon="9.3191510">
	<ele>1133.60</ele>
	<time>2024-03-25T08:12:44.000Z</time>
</trkpt>
<trkpt lat="45.8647130" lon="9.3191550">
	<ele>1133.60</ele>
	<time>2024-03-25T08:12:45.000Z</time>
</trkpt>
<trkpt lat="45.8647160" lon="9.3191580">
	<ele>1133.60</ele>
	<time>2024-03-25T08:12:46.000Z</time>
</trkpt>
<trkpt lat="45.8647180" lon="9.3191630">
	<ele>1133.60</ele>
	<time>2024-03-25T08:12:47.000Z</time>
</trkpt>
<trkpt lat="45.8647180" lon="9.3191640">
	<ele>1133.60</ele>
	<time>2024-03-25T08:12:48.000Z</time>
</trkpt>
<trkpt lat="45.8647180" lon="9.3191650">
	<ele>1133.60</ele>
	<time>2024-03-25T08:12:49.000Z</time>
</trkpt>
<trkpt lat="45.8647250" lon="9.3191740">
	<ele>1133.60</ele>
	<time>2024-03-25T08:12:50.000Z</time>
</trkpt>
<trkpt lat="45.8647280" lon="9.3191760">
	<ele>1133.60</ele>
	<time>2024-03-25T08:12:51.000Z</time>
</trkpt>
<trkpt lat="45.8647300" lon="9.3191740">
	<ele>1133.60</ele>
	<time>2024-03-25T08:12:52.000Z</time>
</trkpt>
<trkpt lat="45.8647390" lon="9.3191790">
	<ele>1133.60</ele>
	<time>2024-03-25T08:12:53.000Z</time>
</trkpt>
<trkpt lat="45.8647440" lon="9.3191810">
	<ele>1133.60</ele>
	<time>2024-03-25T08:12:54.000Z</time>
</trkpt>
<trkpt lat="45.8647430" lon="9.3191800">
	<ele>1133.60</ele>
	<time>2024-03-25T08:12:55.000Z</time>
</trkpt>
<trkpt lat="45.8647410" lon="9.3191790">
	<ele>1133.60</ele>
	<time>2024-03-25T08:12:56.000Z</time>
</trkpt>
<trkpt lat="45.8647400" lon="9.3191770">
	<ele>1133.60</ele>
	<time>2024-03-25T08:12:57.000Z</time>
</trkpt>
<trkpt lat="45.8647400" lon="9.3191780">
	<ele>1133.60</ele>
	<time>2024-03-25T08:12:58.000Z</time>
</trkpt>
<trkpt lat="45.8647390" lon="9.3191790">
	<ele>1133.60</ele>
	<time>2024-03-25T08:12:59.000Z</time>
</trkpt>
<trkpt lat="45.8647440" lon="9.3191840">
	<ele>1133.60</ele>
	<time>2024-03-25T08:13:00.000Z</time>
</trkpt>
<trkpt lat="45.8647460" lon="9.3191860">
	<ele>1133.60</ele>
	<time>2024-03-25T08:13:01.000Z</time>
</trkpt>
<trkpt lat="45.8647530" lon="9.3191990">
	<ele>1133.80</ele>
	<time>2024-03-25T08:13:02.000Z</time>
</trkpt>
<trkpt lat="45.8647540" lon="9.3192020">
	<ele>1133.80</ele>
	<time>2024-03-25T08:13:03.000Z</time>
</trkpt>
<trkpt lat="45.8647550" lon="9.3192030">
	<ele>1133.80</ele>
	<time>2024-03-25T08:13:04.000Z</time>
</trkpt>
<trkpt lat="45.8647570" lon="9.3192040">
	<ele>1133.80</ele>
	<time>2024-03-25T08:13:05.000Z</time>
</trkpt>
<trkpt lat="45.8647620" lon="9.3192060">
	<ele>1133.80</ele>
	<time>2024-03-25T08:13:06.000Z</time>
</trkpt>
<trkpt lat="45.8647720" lon="9.3192160">
	<ele>1133.80</ele>
	<time>2024-03-25T08:13:07.000Z</time>
</trkpt>
<trkpt lat="45.8647760" lon="9.3192200">
	<ele>1133.80</ele>
	<time>2024-03-25T08:13:08.000Z</time>
</trkpt>
<trkpt lat="45.8647760" lon="9.3192210">
	<ele>1133.80</ele>
	<time>2024-03-25T08:13:09.000Z</time>
</trkpt>
<trkpt lat="45.8647740" lon="9.3192210">
	<ele>1133.80</ele>
	<time>2024-03-25T08:13:10.000Z</time>
</trkpt>
<trkpt lat="45.8647710" lon="9.3192200">
	<ele>1133.80</ele>
	<time>2024-03-25T08:13:11.000Z</time>
</trkpt>
<trkpt lat="45.8647700" lon="9.3192290">
	<ele>1134.00</ele>
	<time>2024-03-25T08:13:12.000Z</time>
</trkpt>
<trkpt lat="45.8647750" lon="9.3192380">
	<ele>1134.00</ele>
	<time>2024-03-25T08:13:13.000Z</time>
</trkpt>
<trkpt lat="45.8647870" lon="9.3192500">
	<ele>1134.20</ele>
	<time>2024-03-25T08:13:14.000Z</time>
</trkpt>
<trkpt lat="45.8647890" lon="9.3192510">
	<ele>1134.40</ele>
	<time>2024-03-25T08:13:15.000Z</time>
</trkpt>
<trkpt lat="45.8647910" lon="9.3192530">
	<ele>1134.60</ele>
	<time>2024-03-25T08:13:16.000Z</time>
</trkpt>
<trkpt lat="45.8647870" lon="9.3192510">
	<ele>1134.60</ele>
	<time>2024-03-25T08:13:17.000Z</time>
</trkpt>
<trkpt lat="45.8647780" lon="9.3192520">
	<ele>1134.80</ele>
	<time>2024-03-25T08:13:18.000Z</time>
</trkpt>
<trkpt lat="45.8647680" lon="9.3192560">
	<ele>1134.80</ele>
	<time>2024-03-25T08:13:19.000Z</time>
</trkpt>
<trkpt lat="45.8647630" lon="9.3192660">
	<ele>1135.00</ele>
	<time>2024-03-25T08:13:20.000Z</time>
</trkpt>
<trkpt lat="45.8647680" lon="9.3192810">
	<ele>1135.20</ele>
	<time>2024-03-25T08:13:21.000Z</time>
</trkpt>
<trkpt lat="45.8647650" lon="9.3192830">
	<ele>1135.40</ele>
	<time>2024-03-25T08:13:22.000Z</time>
</trkpt>
<trkpt lat="45.8647640" lon="9.3192880">
	<ele>1135.40</ele>
	<time>2024-03-25T08:13:23.000Z</time>
</trkpt>
<trkpt lat="45.8647600" lon="9.3192930">
	<ele>1135.60</ele>
	<time>2024-03-25T08:13:24.000Z</time>
</trkpt>
<trkpt lat="45.8647590" lon="9.3193010">
	<ele>1135.60</ele>
	<time>2024-03-25T08:13:25.000Z</time>
</trkpt>
<trkpt lat="45.8647580" lon="9.3193040">
	<ele>1135.80</ele>
	<time>2024-03-25T08:13:26.000Z</time>
</trkpt>
<trkpt lat="45.8647650" lon="9.3193190">
	<ele>1135.80</ele>
	<time>2024-03-25T08:13:27.000Z</time>
</trkpt>
<trkpt lat="45.8647730" lon="9.3193350">
	<ele>1135.80</ele>
	<time>2024-03-25T08:13:28.000Z</time>
</trkpt>
<trkpt lat="45.8647810" lon="9.3193510">
	<ele>1136.00</ele>
	<time>2024-03-25T08:13:29.000Z</time>
</trkpt>
<trkpt lat="45.8647860" lon="9.3193650">
	<ele>1136.00</ele>
	<time>2024-03-25T08:13:30.000Z</time>
</trkpt>
<trkpt lat="45.8647880" lon="9.3193810">
	<ele>1136.00</ele>
	<time>2024-03-25T08:13:31.000Z</time>
</trkpt>
<trkpt lat="45.8647910" lon="9.3193950">
	<ele>1136.00</ele>
	<time>2024-03-25T08:13:32.000Z</time>
</trkpt>
<trkpt lat="45.8647980" lon="9.3194140">
	<ele>1136.20</ele>
	<time>2024-03-25T08:13:33.000Z</time>
</trkpt>
<trkpt lat="45.8647990" lon="9.3194290">
	<ele>1136.20</ele>
	<time>2024-03-25T08:13:34.000Z</time>
</trkpt>
<trkpt lat="45.8648010" lon="9.3194420">
	<ele>1136.20</ele>
	<time>2024-03-25T08:13:35.000Z</time>
</trkpt>
<trkpt lat="45.8648190" lon="9.3194610">
	<ele>1136.20</ele>
	<time>2024-03-25T08:13:36.000Z</time>
</trkpt>
<trkpt lat="45.8648250" lon="9.3194860">
	<ele>1136.20</ele>
	<time>2024-03-25T08:13:37.000Z</time>
</trkpt>
<trkpt lat="45.8648350" lon="9.3195010">
	<ele>1136.40</ele>
	<time>2024-03-25T08:13:38.000Z</time>
</trkpt>
<trkpt lat="45.8648390" lon="9.3195070">
	<ele>1136.40</ele>
	<time>2024-03-25T08:13:39.000Z</time>
</trkpt>
<trkpt lat="45.8648430" lon="9.3195190">
	<ele>1136.60</ele>
	<time>2024-03-25T08:13:40.000Z</time>
</trkpt>
<trkpt lat="45.8648500" lon="9.3195290">
	<ele>1136.80</ele>
	<time>2024-03-25T08:13:41.000Z</time>
</trkpt>
<trkpt lat="45.8648530" lon="9.3195310">
	<ele>1136.80</ele>
	<time>2024-03-25T08:13:42.000Z</time>
</trkpt>
<trkpt lat="45.8648610" lon="9.3195410">
	<ele>1137.00</ele>
	<time>2024-03-25T08:13:43.000Z</time>
</trkpt>
<trkpt lat="45.8648630" lon="9.3195470">
	<ele>1137.20</ele>
	<time>2024-03-25T08:13:44.000Z</time>
</trkpt>
<trkpt lat="45.8648710" lon="9.3195550">
	<ele>1137.40</ele>
	<time>2024-03-25T08:13:45.000Z</time>
</trkpt>
<trkpt lat="45.8648710" lon="9.3195590">
	<ele>1137.60</ele>
	<time>2024-03-25T08:13:46.000Z</time>
</trkpt>
<trkpt lat="45.8648700" lon="9.3195620">
	<ele>1137.80</ele>
	<time>2024-03-25T08:13:47.000Z</time>
</trkpt>
<trkpt lat="45.8648780" lon="9.3195750">
	<ele>1138.00</ele>
	<time>2024-03-25T08:13:48.000Z</time>
</trkpt>
<trkpt lat="45.8648860" lon="9.3195860">
	<ele>1138.40</ele>
	<time>2024-03-25T08:13:49.000Z</time>
</trkpt>
<trkpt lat="45.8648870" lon="9.3195940">
	<ele>1138.60</ele>
	<time>2024-03-25T08:13:50.000Z</time>
</trkpt>
<trkpt lat="45.8648930" lon="9.3196060">
	<ele>1138.60</ele>
	<time>2024-03-25T08:13:51.000Z</time>
</trkpt>
<trkpt lat="45.8648920" lon="9.3196120">
	<ele>1138.80</ele>
	<time>2024-03-25T08:13:52.000Z</time>
</trkpt>
<trkpt lat="45.8648770" lon="9.3196080">
	<ele>1139.20</ele>
	<time>2024-03-25T08:13:53.000Z</time>
</trkpt>
<trkpt lat="45.8648750" lon="9.3196100">
	<ele>1139.40</ele>
	<time>2024-03-25T08:13:54.000Z</time>
</trkpt>
<trkpt lat="45.8648790" lon="9.3196200">
	<ele>1139.60</ele>
	<time>2024-03-25T08:13:55.000Z</time>
</trkpt>
<trkpt lat="45.8648790" lon="9.3196280">
	<ele>1140.00</ele>
	<time>2024-03-25T08:13:56.000Z</time>
</trkpt>
<trkpt lat="45.8648820" lon="9.3196390">
	<ele>1140.00</ele>
	<time>2024-03-25T08:13:57.000Z</time>
</trkpt>
<trkpt lat="45.8648820" lon="9.3196410">
	<ele>1140.40</ele>
	<time>2024-03-25T08:13:58.000Z</time>
</trkpt>
<trkpt lat="45.8648890" lon="9.3196500">
	<ele>1140.60</ele>
	<time>2024-03-25T08:13:59.000Z</time>
</trkpt>
<trkpt lat="45.8648890" lon="9.3196630">
	<ele>1140.80</ele>
	<time>2024-03-25T08:14:00.000Z</time>
</trkpt>
<trkpt lat="45.8648860" lon="9.3196680">
	<ele>1141.00</ele>
	<time>2024-03-25T08:14:01.000Z</time>
</trkpt>
<trkpt lat="45.8648880" lon="9.3196760">
	<ele>1141.20</ele>
	<time>2024-03-25T08:14:02.000Z</time>
</trkpt>
<trkpt lat="45.8648880" lon="9.3196790">
	<ele>1141.40</ele>
	<time>2024-03-25T08:14:03.000Z</time>
</trkpt>
<trkpt lat="45.8649020" lon="9.3196780">
	<ele>1141.60</ele>
	<time>2024-03-25T08:14:04.000Z</time>
</trkpt>
<trkpt lat="45.8649080" lon="9.3196810">
	<ele>1141.80</ele>
	<time>2024-03-25T08:14:05.000Z</time>
</trkpt>
<trkpt lat="45.8649170" lon="9.3196860">
	<ele>1142.20</ele>
	<time>2024-03-25T08:14:06.000Z</time>
</trkpt>
<trkpt lat="45.8649200" lon="9.3196900">
	<ele>1142.60</ele>
	<time>2024-03-25T08:14:07.000Z</time>
</trkpt>
<trkpt lat="45.8649230" lon="9.3196970">
	<ele>1142.80</ele>
	<time>2024-03-25T08:14:08.000Z</time>
</trkpt>
<trkpt lat="45.8649260" lon="9.3197020">
	<ele>1142.80</ele>
	<time>2024-03-25T08:14:09.000Z</time>
</trkpt>
<trkpt lat="45.8649350" lon="9.3197210">
	<ele>1143.00</ele>
	<time>2024-03-25T08:14:10.000Z</time>
</trkpt>
<trkpt lat="45.8649380" lon="9.3197240">
	<ele>1143.20</ele>
	<time>2024-03-25T08:14:11.000Z</time>
</trkpt>
<trkpt lat="45.8649480" lon="9.3197350">
	<ele>1143.40</ele>
	<time>2024-03-25T08:14:12.000Z</time>
</trkpt>
<trkpt lat="45.8649540" lon="9.3197460">
	<ele>1143.60</ele>
	<time>2024-03-25T08:14:13.000Z</time>
</trkpt>
<trkpt lat="45.8649620" lon="9.3197610">
	<ele>1143.80</ele>
	<time>2024-03-25T08:14:14.000Z</time>
</trkpt>
<trkpt lat="45.8649680" lon="9.3197690">
	<ele>1144.00</ele>
	<time>2024-03-25T08:14:15.000Z</time>
</trkpt>
<trkpt lat="45.8649690" lon="9.3197720">
	<ele>1144.40</ele>
	<time>2024-03-25T08:14:16.000Z</time>
</trkpt>
<trkpt lat="45.8649700" lon="9.3197760">
	<ele>1144.60</ele>
	<time>2024-03-25T08:14:17.000Z</time>
</trkpt>
<trkpt lat="45.8649660" lon="9.3197780">
	<ele>1144.80</ele>
	<time>2024-03-25T08:14:18.000Z</time>
</trkpt>
<trkpt lat="45.8649660" lon="9.3197840">
	<ele>1145.00</ele>
	<time>2024-03-25T08:14:19.000Z</time>
</trkpt>
<trkpt lat="45.8649670" lon="9.3197920">
	<ele>1145.20</ele>
	<time>2024-03-25T08:14:20.000Z</time>
</trkpt>
<trkpt lat="45.8649750" lon="9.3198010">
	<ele>1145.40</ele>
	<time>2024-03-25T08:14:21.000Z</time>
</trkpt>
<trkpt lat="45.8649770" lon="9.3198060">
	<ele>1145.60</ele>
	<time>2024-03-25T08:14:22.000Z</time>
</trkpt>
<trkpt lat="45.8649750" lon="9.3198080">
	<ele>1145.60</ele>
	<time>2024-03-25T08:14:23.000Z</time>
</trkpt>
<trkpt lat="45.8649730" lon="9.3198110">
	<ele>1145.80</ele>
	<time>2024-03-25T08:14:24.000Z</time>
</trkpt>
<trkpt lat="45.8649750" lon="9.3198210">
	<ele>1145.80</ele>
	<time>2024-03-25T08:14:25.000Z</time>
</trkpt>
<trkpt lat="45.8649730" lon="9.3198370">
	<ele>1146.00</ele>
	<time>2024-03-25T08:14:26.000Z</time>
</trkpt>
<trkpt lat="45.8649760" lon="9.3198570">
	<ele>1146.20</ele>
	<time>2024-03-25T08:14:27.000Z</time>
</trkpt>
<trkpt lat="45.8649790" lon="9.3198650">
	<ele>1146.40</ele>
	<time>2024-03-25T08:14:28.000Z</time>
</trkpt>
<trkpt lat="45.8649770" lon="9.3198750">
	<ele>1146.60</ele>
	<time>2024-03-25T08:14:29.000Z</time>
</trkpt>
<trkpt lat="45.8649800" lon="9.3198840">
	<ele>1146.80</ele>
	<time>2024-03-25T08:14:30.000Z</time>
</trkpt>
<trkpt lat="45.8649810" lon="9.3198900">
	<ele>1147.00</ele>
	<time>2024-03-25T08:14:31.000Z</time>
</trkpt>
<trkpt lat="45.8649810" lon="9.3198920">
	<ele>1147.20</ele>
	<time>2024-03-25T08:14:32.000Z</time>
</trkpt>
<trkpt lat="45.8649810" lon="9.3198970">
	<ele>1147.40</ele>
	<time>2024-03-25T08:14:33.000Z</time>
</trkpt>
<trkpt lat="45.8649860" lon="9.3199140">
	<ele>1147.60</ele>
	<time>2024-03-25T08:14:34.000Z</time>
</trkpt>
<trkpt lat="45.8649850" lon="9.3199190">
	<ele>1147.80</ele>
	<time>2024-03-25T08:14:35.000Z</time>
</trkpt>
<trkpt lat="45.8649930" lon="9.3199350">
	<ele>1148.00</ele>
	<time>2024-03-25T08:14:36.000Z</time>
</trkpt>
<trkpt lat="45.8650060" lon="9.3199570">
	<ele>1148.00</ele>
	<time>2024-03-25T08:14:37.000Z</time>
</trkpt>
<trkpt lat="45.8650190" lon="9.3199740">
	<ele>1148.20</ele>
	<time>2024-03-25T08:14:38.000Z</time>
</trkpt>
<trkpt lat="45.8650310" lon="9.3199840">
	<ele>1148.20</ele>
	<time>2024-03-25T08:14:39.000Z</time>
</trkpt>
<trkpt lat="45.8650340" lon="9.3199980">
	<ele>1148.40</ele>
	<time>2024-03-25T08:14:40.000Z</time>
</trkpt>
<trkpt lat="45.8650390" lon="9.3200130">
	<ele>1148.60</ele>
	<time>2024-03-25T08:14:41.000Z</time>
</trkpt>
<trkpt lat="45.8650410" lon="9.3200220">
	<ele>1148.60</ele>
	<time>2024-03-25T08:14:42.000Z</time>
</trkpt>
<trkpt lat="45.8650420" lon="9.3200330">
	<ele>1148.80</ele>
	<time>2024-03-25T08:14:43.000Z</time>
</trkpt>
<trkpt lat="45.8650410" lon="9.3200400">
	<ele>1148.80</ele>
	<time>2024-03-25T08:14:44.000Z</time>
</trkpt>
<trkpt lat="45.8650460" lon="9.3200500">
	<ele>1149.00</ele>
	<time>2024-03-25T08:14:45.000Z</time>
</trkpt>
<trkpt lat="45.8650520" lon="9.3200630">
	<ele>1149.20</ele>
	<time>2024-03-25T08:14:46.000Z</time>
</trkpt>
<trkpt lat="45.8650560" lon="9.3200700">
	<ele>1149.40</ele>
	<time>2024-03-25T08:14:47.000Z</time>
</trkpt>
<trkpt lat="45.8650620" lon="9.3200760">
	<ele>1149.60</ele>
	<time>2024-03-25T08:14:48.000Z</time>
</trkpt>
<trkpt lat="45.8650640" lon="9.3200840">
	<ele>1149.60</ele>
	<time>2024-03-25T08:14:49.000Z</time>
</trkpt>
<trkpt lat="45.8650640" lon="9.3200940">
	<ele>1149.80</ele>
	<time>2024-03-25T08:14:50.000Z</time>
</trkpt>
<trkpt lat="45.8650660" lon="9.3201000">
	<ele>1150.00</ele>
	<time>2024-03-25T08:14:51.000Z</time>
</trkpt>
<trkpt lat="45.8650710" lon="9.3201080">
	<ele>1150.00</ele>
	<time>2024-03-25T08:14:52.000Z</time>
</trkpt>
<trkpt lat="45.8650750" lon="9.3201180">
	<ele>1150.20</ele>
	<time>2024-03-25T08:14:53.000Z</time>
</trkpt>
<trkpt lat="45.8650730" lon="9.3201250">
	<ele>1150.40</ele>
	<time>2024-03-25T08:14:54.000Z</time>
</trkpt>
<trkpt lat="45.8650690" lon="9.3201300">
	<ele>1150.60</ele>
	<time>2024-03-25T08:14:55.000Z</time>
</trkpt>
<trkpt lat="45.8650620" lon="9.3201360">
	<ele>1150.80</ele>
	<time>2024-03-25T08:14:56.000Z</time>
</trkpt>
<trkpt lat="45.8650570" lon="9.3201490">
	<ele>1150.80</ele>
	<time>2024-03-25T08:14:57.000Z</time>
</trkpt>
<trkpt lat="45.8650510" lon="9.3201530">
	<ele>1151.00</ele>
	<time>2024-03-25T08:14:58.000Z</time>
</trkpt>
<trkpt lat="45.8650470" lon="9.3201580">
	<ele>1151.20</ele>
	<time>2024-03-25T08:14:59.000Z</time>
</trkpt>
<trkpt lat="45.8650480" lon="9.3201610">
	<ele>1151.40</ele>
	<time>2024-03-25T08:15:00.000Z</time>
</trkpt>
<trkpt lat="45.8650530" lon="9.3201680">
	<ele>1151.60</ele>
	<time>2024-03-25T08:15:01.000Z</time>
</trkpt>
<trkpt lat="45.8650560" lon="9.3201730">
	<ele>1151.80</ele>
	<time>2024-03-25T08:15:02.000Z</time>
</trkpt>
<trkpt lat="45.8650590" lon="9.3201790">
	<ele>1152.00</ele>
	<time>2024-03-25T08:15:03.000Z</time>
</trkpt>
<trkpt lat="45.8650610" lon="9.3201830">
	<ele>1152.20</ele>
	<time>2024-03-25T08:15:04.000Z</time>
</trkpt>
<trkpt lat="45.8650570" lon="9.3201990">
	<ele>1152.40</ele>
	<time>2024-03-25T08:15:05.000Z</time>
</trkpt>
<trkpt lat="45.8650570" lon="9.3202220">
	<ele>1152.60</ele>
	<time>2024-03-25T08:15:06.000Z</time>
</trkpt>
<trkpt lat="45.8650550" lon="9.3202300">
	<ele>1153.00</ele>
	<time>2024-03-25T08:15:07.000Z</time>
</trkpt>
<trkpt lat="45.8650570" lon="9.3202390">
	<ele>1153.00</ele>
	<time>2024-03-25T08:15:08.000Z</time>
</trkpt>
<trkpt lat="45.8650590" lon="9.3202510">
	<ele>1153.40</ele>
	<time>2024-03-25T08:15:09.000Z</time>
</trkpt>
<trkpt lat="45.8650600" lon="9.3202650">
	<ele>1153.40</ele>
	<time>2024-03-25T08:15:10.000Z</time>
</trkpt>
<trkpt lat="45.8650570" lon="9.3202800">
	<ele>1153.60</ele>
	<time>2024-03-25T08:15:11.000Z</time>
</trkpt>
<trkpt lat="45.8650550" lon="9.3202910">
	<ele>1153.80</ele>
	<time>2024-03-25T08:15:12.000Z</time>
</trkpt>
<trkpt lat="45.8650570" lon="9.3203030">
	<ele>1154.00</ele>
	<time>2024-03-25T08:15:13.000Z</time>
</trkpt>
<trkpt lat="45.8650560" lon="9.3203020">
	<ele>1154.20</ele>
	<time>2024-03-25T08:15:14.000Z</time>
</trkpt>
<trkpt lat="45.8650600" lon="9.3203050">
	<ele>1154.20</ele>
	<time>2024-03-25T08:15:15.000Z</time>
</trkpt>
<trkpt lat="45.8650610" lon="9.3203050">
	<ele>1154.20</ele>
	<time>2024-03-25T08:15:16.000Z</time>
</trkpt>
<trkpt lat="45.8650630" lon="9.3203180">
	<ele>1154.40</ele>
	<time>2024-03-25T08:15:17.000Z</time>
</trkpt>
<trkpt lat="45.8650640" lon="9.3203250">
	<ele>1154.40</ele>
	<time>2024-03-25T08:15:18.000Z</time>
</trkpt>
<trkpt lat="45.8650670" lon="9.3203390">
	<ele>1154.80</ele>
	<time>2024-03-25T08:15:19.000Z</time>
</trkpt>
<trkpt lat="45.8650680" lon="9.3203520">
	<ele>1155.00</ele>
	<time>2024-03-25T08:15:20.000Z</time>
</trkpt>
<trkpt lat="45.8650670" lon="9.3203540">
	<ele>1155.20</ele>
	<time>2024-03-25T08:15:21.000Z</time>
</trkpt>
<trkpt lat="45.8650700" lon="9.3203590">
	<ele>1155.40</ele>
	<time>2024-03-25T08:15:22.000Z</time>
</trkpt>
<trkpt lat="45.8650760" lon="9.3203660">
	<ele>1155.60</ele>
	<time>2024-03-25T08:15:23.000Z</time>
</trkpt>
<trkpt lat="45.8650760" lon="9.3203730">
	<ele>1155.80</ele>
	<time>2024-03-25T08:15:24.000Z</time>
</trkpt>
<trkpt lat="45.8650780" lon="9.3203810">
	<ele>1156.00</ele>
	<time>2024-03-25T08:15:25.000Z</time>
</trkpt>
<trkpt lat="45.8650880" lon="9.3203890">
	<ele>1156.00</ele>
	<time>2024-03-25T08:15:26.000Z</time>
</trkpt>
<trkpt lat="45.8650900" lon="9.3203950">
	<ele>1156.20</ele>
	<time>2024-03-25T08:15:27.000Z</time>
</trkpt>
<trkpt lat="45.8650830" lon="9.3203920">
	<ele>1156.40</ele>
	<time>2024-03-25T08:15:28.000Z</time>
</trkpt>
<trkpt lat="45.8650800" lon="9.3203990">
	<ele>1156.60</ele>
	<time>2024-03-25T08:15:29.000Z</time>
</trkpt>
<trkpt lat="45.8650760" lon="9.3204010">
	<ele>1156.60</ele>
	<time>2024-03-25T08:15:30.000Z</time>
</trkpt>
<trkpt lat="45.8650740" lon="9.3204070">
	<ele>1156.80</ele>
	<time>2024-03-25T08:15:31.000Z</time>
</trkpt>
<trkpt lat="45.8650820" lon="9.3204220">
	<ele>1157.00</ele>
	<time>2024-03-25T08:15:32.000Z</time>
</trkpt>
<trkpt lat="45.8650880" lon="9.3204340">
	<ele>1157.00</ele>
	<time>2024-03-25T08:15:33.000Z</time>
</trkpt>
<trkpt lat="45.8650920" lon="9.3204430">
	<ele>1157.20</ele>
	<time>2024-03-25T08:15:34.000Z</time>
</trkpt>
<trkpt lat="45.8650950" lon="9.3204510">
	<ele>1157.40</ele>
	<time>2024-03-25T08:15:35.000Z</time>
</trkpt>
<trkpt lat="45.8651010" lon="9.3204610">
	<ele>1157.60</ele>
	<time>2024-03-25T08:15:36.000Z</time>
</trkpt>
<trkpt lat="45.8651030" lon="9.3204660">
	<ele>1157.80</ele>
	<time>2024-03-25T08:15:37.000Z</time>
</trkpt>
<trkpt lat="45.8651040" lon="9.3204690">
	<ele>1158.00</ele>
	<time>2024-03-25T08:15:38.000Z</time>
</trkpt>
<trkpt lat="45.8651030" lon="9.3204660">
	<ele>1158.00</ele>
	<time>2024-03-25T08:15:39.000Z</time>
</trkpt>
<trkpt lat="45.8651030" lon="9.3204720">
	<ele>1158.20</ele>
	<time>2024-03-25T08:15:40.000Z</time>
</trkpt>
<trkpt lat="45.8651050" lon="9.3204830">
	<ele>1158.20</ele>
	<time>2024-03-25T08:15:41.000Z</time>
</trkpt>
<trkpt lat="45.8651040" lon="9.3204870">
	<ele>1158.20</ele>
	<time>2024-03-25T08:15:42.000Z</time>
</trkpt>
<trkpt lat="45.8651050" lon="9.3204990">
	<ele>1158.40</ele>
	<time>2024-03-25T08:15:43.000Z</time>
</trkpt>
<trkpt lat="45.8651110" lon="9.3205030">
	<ele>1158.40</ele>
	<time>2024-03-25T08:15:44.000Z</time>
</trkpt>
<trkpt lat="45.8651180" lon="9.3205070">
	<ele>1158.60</ele>
	<time>2024-03-25T08:15:45.000Z</time>
</trkpt>
<trkpt lat="45.8651190" lon="9.3205080">
	<ele>1158.80</ele>
	<time>2024-03-25T08:15:46.000Z</time>
</trkpt>
<trkpt lat="45.8651210" lon="9.3205110">
	<ele>1159.00</ele>
	<time>2024-03-25T08:15:47.000Z</time>
</trkpt>
<trkpt lat="45.8651230" lon="9.3205130">
	<ele>1159.00</ele>
	<time>2024-03-25T08:15:48.000Z</time>
</trkpt>
<trkpt lat="45.8651250" lon="9.3205170">
	<ele>1159.20</ele>
	<time>2024-03-25T08:15:49.000Z</time>
</trkpt>
<trkpt lat="45.8651280" lon="9.3205190">
	<ele>1159.20</ele>
	<time>2024-03-25T08:15:50.000Z</time>
</trkpt>
<trkpt lat="45.8651300" lon="9.3205210">
	<ele>1159.20</ele>
	<time>2024-03-25T08:15:51.000Z</time>
</trkpt>
<trkpt lat="45.8651290" lon="9.3205220">
	<ele>1159.40</ele>
	<time>2024-03-25T08:15:52.000Z</time>
</trkpt>
<trkpt lat="45.8651250" lon="9.3205230">
	<ele>1159.40</ele>
	<time>2024-03-25T08:15:53.000Z</time>
</trkpt>
<trkpt lat="45.8651270" lon="9.3205240">
	<ele>1159.40</ele>
	<time>2024-03-25T08:15:54.000Z</time>
</trkpt>
<trkpt lat="45.8651290" lon="9.3205260">
	<ele>1159.40</ele>
	<time>2024-03-25T08:15:55.000Z</time>
</trkpt>
<trkpt lat="45.8651300" lon="9.3205250">
	<ele>1159.40</ele>
	<time>2024-03-25T08:15:56.000Z</time>
</trkpt>
<trkpt lat="45.8651330" lon="9.3205260">
	<ele>1159.40</ele>
	<time>2024-03-25T08:15:57.000Z</time>
</trkpt>
<trkpt lat="45.8651350" lon="9.3205260">
	<ele>1159.40</ele>
	<time>2024-03-25T08:15:58.000Z</time>
</trkpt>
<trkpt lat="45.8651340" lon="9.3205310">
	<ele>1159.40</ele>
	<time>2024-03-25T08:15:59.000Z</time>
</trkpt>
<trkpt lat="45.8651350" lon="9.3205380">
	<ele>1159.40</ele>
	<time>2024-03-25T08:16:00.000Z</time>
</trkpt>
<trkpt lat="45.8651360" lon="9.3205400">
	<ele>1159.40</ele>
	<time>2024-03-25T08:16:01.000Z</time>
</trkpt>
<trkpt lat="45.8651410" lon="9.3205410">
	<ele>1159.40</ele>
	<time>2024-03-25T08:16:02.000Z</time>
</trkpt>
<trkpt lat="45.8651430" lon="9.3205430">
	<ele>1159.80</ele>
	<time>2024-03-25T08:16:03.000Z</time>
</trkpt>
<trkpt lat="45.8651490" lon="9.3205360">
	<ele>1159.80</ele>
	<time>2024-03-25T08:16:04.000Z</time>
</trkpt>
<trkpt lat="45.8651530" lon="9.3205330">
	<ele>1160.00</ele>
	<time>2024-03-25T08:16:05.000Z</time>
</trkpt>
<trkpt lat="45.8651580" lon="9.3205310">
	<ele>1160.00</ele>
	<time>2024-03-25T08:16:06.000Z</time>
</trkpt>
<trkpt lat="45.8651560" lon="9.3205360">
	<ele>1160.00</ele>
	<time>2024-03-25T08:16:07.000Z</time>
</trkpt>
<trkpt lat="45.8651510" lon="9.3205250">
	<ele>1160.20</ele>
	<time>2024-03-25T08:16:08.000Z</time>
</trkpt>
<trkpt lat="45.8651590" lon="9.3205320">
	<ele>1160.20</ele>
	<time>2024-03-25T08:16:09.000Z</time>
</trkpt>
<trkpt lat="45.8651590" lon="9.3205360">
	<ele>1160.20</ele>
	<time>2024-03-25T08:16:10.000Z</time>
</trkpt>
<trkpt lat="45.8651610" lon="9.3205470">
	<ele>1160.40</ele>
	<time>2024-03-25T08:16:11.000Z</time>
</trkpt>
<trkpt lat="45.8651710" lon="9.3205510">
	<ele>1160.40</ele>
	<time>2024-03-25T08:16:12.000Z</time>
</trkpt>
<trkpt lat="45.8651830" lon="9.3205570">
	<ele>1160.40</ele>
	<time>2024-03-25T08:16:13.000Z</time>
</trkpt>
<trkpt lat="45.8651880" lon="9.3205530">
	<ele>1160.60</ele>
	<time>2024-03-25T08:16:14.000Z</time>
</trkpt>
<trkpt lat="45.8651790" lon="9.3205450">
	<ele>1160.60</ele>
	<time>2024-03-25T08:16:15.000Z</time>
</trkpt>
<trkpt lat="45.8651670" lon="9.3205440">
	<ele>1160.60</ele>
	<time>2024-03-25T08:16:16.000Z</time>
</trkpt>
<trkpt lat="45.8651610" lon="9.3205540">
	<ele>1160.80</ele>
	<time>2024-03-25T08:16:17.000Z</time>
</trkpt>
<trkpt lat="45.8651600" lon="9.3205680">
	<ele>1161.00</ele>
	<time>2024-03-25T08:16:18.000Z</time>
</trkpt>
<trkpt lat="45.8651620" lon="9.3205780">
	<ele>1161.40</ele>
	<time>2024-03-25T08:16:19.000Z</time>
</trkpt>
<trkpt lat="45.8651650" lon="9.3205850">
	<ele>1161.80</ele>
	<time>2024-03-25T08:16:20.000Z</time>
</trkpt>
<trkpt lat="45.8651650" lon="9.3205880">
	<ele>1162.00</ele>
	<time>2024-03-25T08:16:21.000Z</time>
</trkpt>
<trkpt lat="45.8651710" lon="9.3205950">
	<ele>1162.00</ele>
	<time>2024-03-25T08:16:22.000Z</time>
</trkpt>
<trkpt lat="45.8651820" lon="9.3206040">
	<ele>1162.20</ele>
	<time>2024-03-25T08:16:23.000Z</time>
</trkpt>
<trkpt lat="45.8651900" lon="9.3206110">
	<ele>1162.40</ele>
	<time>2024-03-25T08:16:24.000Z</time>
</trkpt>
<trkpt lat="45.8651950" lon="9.3206180">
	<ele>1162.60</ele>
	<time>2024-03-25T08:16:25.000Z</time>
</trkpt>
<trkpt lat="45.8652000" lon="9.3206210">
	<ele>1162.80</ele>
	<time>2024-03-25T08:16:26.000Z</time>
</trkpt>
<trkpt lat="45.8652070" lon="9.3206310">
	<ele>1163.00</ele>
	<time>2024-03-25T08:16:27.000Z</time>
</trkpt>
<trkpt lat="45.8652120" lon="9.3206370">
	<ele>1163.20</ele>
	<time>2024-03-25T08:16:28.000Z</time>
</trkpt>
<trkpt lat="45.8652160" lon="9.3206450">
	<ele>1163.40</ele>
	<time>2024-03-25T08:16:29.000Z</time>
</trkpt>
<trkpt lat="45.8652200" lon="9.3206520">
	<ele>1163.40</ele>
	<time>2024-03-25T08:16:30.000Z</time>
</trkpt>
<trkpt lat="45.8652250" lon="9.3206590">
	<ele>1163.40</ele>
	<time>2024-03-25T08:16:31.000Z</time>
</trkpt>
<trkpt lat="45.8652220" lon="9.3206690">
	<ele>1163.60</ele>
	<time>2024-03-25T08:16:32.000Z</time>
</trkpt>
<trkpt lat="45.8652200" lon="9.3206810">
	<ele>1163.80</ele>
	<time>2024-03-25T08:16:33.000Z</time>
</trkpt>
<trkpt lat="45.8652220" lon="9.3206860">
	<ele>1164.20</ele>
	<time>2024-03-25T08:16:34.000Z</time>
</trkpt>
<trkpt lat="45.8652250" lon="9.3206970">
	<ele>1164.40</ele>
	<time>2024-03-25T08:16:35.000Z</time>
</trkpt>
<trkpt lat="45.8652250" lon="9.3207030">
	<ele>1164.60</ele>
	<time>2024-03-25T08:16:36.000Z</time>
</trkpt>
<trkpt lat="45.8652260" lon="9.3207140">
	<ele>1164.60</ele>
	<time>2024-03-25T08:16:37.000Z</time>
</trkpt>
<trkpt lat="45.8652300" lon="9.3207230">
	<ele>1164.60</ele>
	<time>2024-03-25T08:16:38.000Z</time>
</trkpt>
<trkpt lat="45.8652300" lon="9.3207470">
	<ele>1164.80</ele>
	<time>2024-03-25T08:16:39.000Z</time>
</trkpt>
<trkpt lat="45.8652300" lon="9.3207670">
	<ele>1165.00</ele>
	<time>2024-03-25T08:16:40.000Z</time>
</trkpt>
<trkpt lat="45.8652350" lon="9.3207710">
	<ele>1165.20</ele>
	<time>2024-03-25T08:16:41.000Z</time>
</trkpt>
<trkpt lat="45.8652330" lon="9.3207650">
	<ele>1165.40</ele>
	<time>2024-03-25T08:16:42.000Z</time>
</trkpt>
<trkpt lat="45.8652430" lon="9.3207710">
	<ele>1165.40</ele>
	<time>2024-03-25T08:16:43.000Z</time>
</trkpt>
<trkpt lat="45.8652530" lon="9.3207770">
	<ele>1165.60</ele>
	<time>2024-03-25T08:16:44.000Z</time>
</trkpt>
<trkpt lat="45.8652520" lon="9.3207830">
	<ele>1166.00</ele>
	<time>2024-03-25T08:16:45.000Z</time>
</trkpt>
<trkpt lat="45.8652460" lon="9.3207890">
	<ele>1166.20</ele>
	<time>2024-03-25T08:16:46.000Z</time>
</trkpt>
<trkpt lat="45.8652490" lon="9.3207970">
	<ele>1166.40</ele>
	<time>2024-03-25T08:16:47.000Z</time>
</trkpt>
<trkpt lat="45.8652450" lon="9.3208080">
	<ele>1166.80</ele>
	<time>2024-03-25T08:16:48.000Z</time>
</trkpt>
<trkpt lat="45.8652340" lon="9.3208150">
	<ele>1167.00</ele>
	<time>2024-03-25T08:16:49.000Z</time>
</trkpt>
<trkpt lat="45.8652240" lon="9.3208170">
	<ele>1167.20</ele>
	<time>2024-03-25T08:16:50.000Z</time>
</trkpt>
<trkpt lat="45.8652110" lon="9.3208120">
	<ele>1167.40</ele>
	<time>2024-03-25T08:16:51.000Z</time>
</trkpt>
<trkpt lat="45.8652110" lon="9.3208220">
	<ele>1167.60</ele>
	<time>2024-03-25T08:16:52.000Z</time>
</trkpt>
<trkpt lat="45.8652190" lon="9.3208370">
	<ele>1167.80</ele>
	<time>2024-03-25T08:16:53.000Z</time>
</trkpt>
<trkpt lat="45.8652290" lon="9.3208510">
	<ele>1168.20</ele>
	<time>2024-03-25T08:16:54.000Z</time>
</trkpt>
<trkpt lat="45.8652330" lon="9.3208570">
	<ele>1168.40</ele>
	<time>2024-03-25T08:16:55.000Z</time>
</trkpt>
<trkpt lat="45.8652310" lon="9.3208590">
	<ele>1168.60</ele>
	<time>2024-03-25T08:16:56.000Z</time>
</trkpt>
<trkpt lat="45.8652310" lon="9.3208590">
	<ele>1168.80</ele>
	<time>2024-03-25T08:16:57.000Z</time>
</trkpt>
<trkpt lat="45.8652340" lon="9.3208650">
	<ele>1169.00</ele>
	<time>2024-03-25T08:16:58.000Z</time>
</trkpt>
<trkpt lat="45.8652320" lon="9.3208740">
	<ele>1169.20</ele>
	<time>2024-03-25T08:16:59.000Z</time>
</trkpt>
<trkpt lat="45.8652310" lon="9.3208780">
	<ele>1169.20</ele>
	<time>2024-03-25T08:17:00.000Z</time>
</trkpt>
<trkpt lat="45.8652290" lon="9.3208880">
	<ele>1169.40</ele>
	<time>2024-03-25T08:17:01.000Z</time>
</trkpt>
<trkpt lat="45.8652180" lon="9.3208910">
	<ele>1169.40</ele>
	<time>2024-03-25T08:17:02.000Z</time>
</trkpt>
<trkpt lat="45.8652240" lon="9.3209050">
	<ele>1169.60</ele>
	<time>2024-03-25T08:17:03.000Z</time>
</trkpt>
<trkpt lat="45.8652350" lon="9.3209190">
	<ele>1169.80</ele>
	<time>2024-03-25T08:17:04.000Z</time>
</trkpt>
<trkpt lat="45.8652420" lon="9.3209290">
	<ele>1170.00</ele>
	<time>2024-03-25T08:17:05.000Z</time>
</trkpt>
<trkpt lat="45.8652390" lon="9.3209370">
	<ele>1170.20</ele>
	<time>2024-03-25T08:17:06.000Z</time>
</trkpt>
<trkpt lat="45.8652410" lon="9.3209420">
	<ele>1170.20</ele>
	<time>2024-03-25T08:17:07.000Z</time>
</trkpt>
<trkpt lat="45.8652400" lon="9.3209430">
	<ele>1170.40</ele>
	<time>2024-03-25T08:17:08.000Z</time>
</trkpt>
<trkpt lat="45.8652310" lon="9.3209400">
	<ele>1170.60</ele>
	<time>2024-03-25T08:17:09.000Z</time>
</trkpt>
<trkpt lat="45.8652270" lon="9.3209530">
	<ele>1170.60</ele>
	<time>2024-03-25T08:17:10.000Z</time>
</trkpt>
<trkpt lat="45.8652230" lon="9.3209710">
	<ele>1171.00</ele>
	<time>2024-03-25T08:17:11.000Z</time>
</trkpt>
<trkpt lat="45.8652180" lon="9.3209810">
	<ele>1171.20</ele>
	<time>2024-03-25T08:17:12.000Z</time>
</trkpt>
<trkpt lat="45.8652110" lon="9.3209830">
	<ele>1171.20</ele>
	<time>2024-03-25T08:17:13.000Z</time>
</trkpt>
<trkpt lat="45.8652060" lon="9.3209860">
	<ele>1171.20</ele>
	<time>2024-03-25T08:17:14.000Z</time>
</trkpt>
<trkpt lat="45.8652030" lon="9.3209900">
	<ele>1171.40</ele>
	<time>2024-03-25T08:17:15.000Z</time>
</trkpt>
<trkpt lat="45.8652020" lon="9.3209900">
	<ele>1171.40</ele>
	<time>2024-03-25T08:17:16.000Z</time>
</trkpt>
<trkpt lat="45.8652020" lon="9.3209890">
	<ele>1171.60</ele>
	<time>2024-03-25T08:17:17.000Z</time>
</trkpt>
<trkpt lat="45.8652030" lon="9.3209920">
	<ele>1171.60</ele>
	<time>2024-03-25T08:17:18.000Z</time>
</trkpt>
<trkpt lat="45.8652040" lon="9.3209940">
	<ele>1171.80</ele>
	<time>2024-03-25T08:17:19.000Z</time>
</trkpt>
<trkpt lat="45.8652070" lon="9.3209930">
	<ele>1171.80</ele>
	<time>2024-03-25T08:17:20.000Z</time>
</trkpt>
<trkpt lat="45.8652050" lon="9.3209910">
	<ele>1171.80</ele>
	<time>2024-03-25T08:17:21.000Z</time>
</trkpt>
<trkpt lat="45.8652100" lon="9.3209950">
	<ele>1171.80</ele>
	<time>2024-03-25T08:17:22.000Z</time>
</trkpt>
<trkpt lat="45.8652130" lon="9.3209990">
	<ele>1171.80</ele>
	<time>2024-03-25T08:17:23.000Z</time>
</trkpt>
<trkpt lat="45.8652160" lon="9.3210030">
	<ele>1171.80</ele>
	<time>2024-03-25T08:17:24.000Z</time>
</trkpt>
<trkpt lat="45.8652160" lon="9.3210040">
	<ele>1171.80</ele>
	<time>2024-03-25T08:17:25.000Z</time>
</trkpt>
<trkpt lat="45.8652140" lon="9.3210080">
	<ele>1171.80</ele>
	<time>2024-03-25T08:17:26.000Z</time>
</trkpt>
<trkpt lat="45.8652110" lon="9.3210150">
	<ele>1171.80</ele>
	<time>2024-03-25T08:17:27.000Z</time>
</trkpt>
<trkpt lat="45.8652090" lon="9.3210310">
	<ele>1171.80</ele>
	<time>2024-03-25T08:17:28.000Z</time>
</trkpt>
<trkpt lat="45.8652170" lon="9.3210450">
	<ele>1172.20</ele>
	<time>2024-03-25T08:17:29.000Z</time>
</trkpt>
<trkpt lat="45.8652200" lon="9.3210520">
	<ele>1172.40</ele>
	<time>2024-03-25T08:17:30.000Z</time>
</trkpt>
<trkpt lat="45.8652190" lon="9.3210540">
	<ele>1172.60</ele>
	<time>2024-03-25T08:17:31.000Z</time>
</trkpt>
<trkpt lat="45.8652200" lon="9.3210570">
	<ele>1172.80</ele>
	<time>2024-03-25T08:17:32.000Z</time>
</trkpt>
<trkpt lat="45.8652230" lon="9.3210570">
	<ele>1172.80</ele>
	<time>2024-03-25T08:17:33.000Z</time>
</trkpt>
<trkpt lat="45.8652200" lon="9.3210590">
	<ele>1173.00</ele>
	<time>2024-03-25T08:17:34.000Z</time>
</trkpt>
<trkpt lat="45.8652180" lon="9.3210630">
	<ele>1173.00</ele>
	<time>2024-03-25T08:17:35.000Z</time>
</trkpt>
<trkpt lat="45.8652150" lon="9.3210630">
	<ele>1173.20</ele>
	<time>2024-03-25T08:17:36.000Z</time>
</trkpt>
<trkpt lat="45.8652190" lon="9.3210730">
	<ele>1173.40</ele>
	<time>2024-03-25T08:17:37.000Z</time>
</trkpt>
<trkpt lat="45.8652230" lon="9.3210830">
	<ele>1173.60</ele>
	<time>2024-03-25T08:17:38.000Z</time>
</trkpt>
<trkpt lat="45.8652240" lon="9.3210950">
	<ele>1174.00</ele>
	<time>2024-03-25T08:17:39.000Z</time>
</trkpt>
<trkpt lat="45.8652160" lon="9.3211040">
	<ele>1174.20</ele>
	<time>2024-03-25T08:17:40.000Z</time>
</trkpt>
<trkpt lat="45.8652150" lon="9.3211080">
	<ele>1174.40</ele>
	<time>2024-03-25T08:17:41.000Z</time>
</trkpt>
<trkpt lat="45.8652140" lon="9.3211140">
	<ele>1174.80</ele>
	<time>2024-03-25T08:17:42.000Z</time>
</trkpt>
<trkpt lat="45.8652120" lon="9.3211200">
	<ele>1175.00</ele>
	<time>2024-03-25T08:17:43.000Z</time>
</trkpt>
<trkpt lat="45.8652110" lon="9.3211260">
	<ele>1175.20</ele>
	<time>2024-03-25T08:17:44.000Z</time>
</trkpt>
<trkpt lat="45.8652140" lon="9.3211330">
	<ele>1175.40</ele>
	<time>2024-03-25T08:17:45.000Z</time>
</trkpt>
<trkpt lat="45.8652090" lon="9.3211360">
	<ele>1175.60</ele>
	<time>2024-03-25T08:17:46.000Z</time>
</trkpt>
<trkpt lat="45.8652090" lon="9.3211400">
	<ele>1175.80</ele>
	<time>2024-03-25T08:17:47.000Z</time>
</trkpt>
<trkpt lat="45.8652120" lon="9.3211520">
	<ele>1176.00</ele>
	<time>2024-03-25T08:17:48.000Z</time>
</trkpt>
<trkpt lat="45.8652160" lon="9.3211590">
	<ele>1176.00</ele>
	<time>2024-03-25T08:17:49.000Z</time>
</trkpt>
<trkpt lat="45.8652170" lon="9.3211650">
	<ele>1176.20</ele>
	<time>2024-03-25T08:17:50.000Z</time>
</trkpt>
<trkpt lat="45.8652190" lon="9.3211690">
	<ele>1176.20</ele>
	<time>2024-03-25T08:17:51.000Z</time>
</trkpt>
<trkpt lat="45.8652210" lon="9.3211710">
	<ele>1176.40</ele>
	<time>2024-03-25T08:17:52.000Z</time>
</trkpt>
<trkpt lat="45.8652240" lon="9.3211750">
	<ele>1176.60</ele>
	<time>2024-03-25T08:17:53.000Z</time>
</trkpt>
<trkpt lat="45.8652150" lon="9.3211760">
	<ele>1176.60</ele>
	<time>2024-03-25T08:17:54.000Z</time>
</trkpt>
<trkpt lat="45.8652110" lon="9.3211800">
	<ele>1176.80</ele>
	<time>2024-03-25T08:17:55.000Z</time>
</trkpt>
<trkpt lat="45.8652080" lon="9.3211900">
	<ele>1177.00</ele>
	<time>2024-03-25T08:17:56.000Z</time>
</trkpt>
<trkpt lat="45.8652050" lon="9.3212030">
	<ele>1177.20</ele>
	<time>2024-03-25T08:17:57.000Z</time>
</trkpt>
<trkpt lat="45.8651990" lon="9.3212110">
	<ele>1177.40</ele>
	<time>2024-03-25T08:17:58.000Z</time>
</trkpt>
<trkpt lat="45.8652070" lon="9.3212200">
	<ele>1177.60</ele>
	<time>2024-03-25T08:17:59.000Z</time>
</trkpt>
<trkpt lat="45.8652080" lon="9.3212280">
	<ele>1177.60</ele>
	<time>2024-03-25T08:18:00.000Z</time>
</trkpt>
<trkpt lat="45.8652140" lon="9.3212370">
	<ele>1177.80</ele>
	<time>2024-03-25T08:18:01.000Z</time>
</trkpt>
<trkpt lat="45.8652180" lon="9.3212460">
	<ele>1178.00</ele>
	<time>2024-03-25T08:18:02.000Z</time>
</trkpt>
<trkpt lat="45.8652200" lon="9.3212540">
	<ele>1178.20</ele>
	<time>2024-03-25T08:18:03.000Z</time>
</trkpt>
<trkpt lat="45.8652160" lon="9.3212580">
	<ele>1178.20</ele>
	<time>2024-03-25T08:18:04.000Z</time>
</trkpt>
<trkpt lat="45.8652140" lon="9.3212600">
	<ele>1178.40</ele>
	<time>2024-03-25T08:18:05.000Z</time>
</trkpt>
<trkpt lat="45.8652110" lon="9.3212630">
	<ele>1178.60</ele>
	<time>2024-03-25T08:18:06.000Z</time>
</trkpt>
<trkpt lat="45.8652060" lon="9.3212640">
	<ele>1178.80</ele>
	<time>2024-03-25T08:18:07.000Z</time>
</trkpt>
<trkpt lat="45.8652090" lon="9.3212710">
	<ele>1179.00</ele>
	<time>2024-03-25T08:18:08.000Z</time>
</trkpt>
<trkpt lat="45.8652080" lon="9.3212730">
	<ele>1179.00</ele>
	<time>2024-03-25T08:18:09.000Z</time>
</trkpt>
<trkpt lat="45.8652100" lon="9.3212820">
	<ele>1179.40</ele>
	<time>2024-03-25T08:18:10.000Z</time>
</trkpt>
<trkpt lat="45.8652100" lon="9.3212880">
	<ele>1179.60</ele>
	<time>2024-03-25T08:18:11.000Z</time>
</trkpt>
<trkpt lat="45.8652100" lon="9.3212930">
	<ele>1179.60</ele>
	<time>2024-03-25T08:18:12.000Z</time>
</trkpt>
<trkpt lat="45.8652130" lon="9.3212970">
	<ele>1179.80</ele>
	<time>2024-03-25T08:18:13.000Z</time>
</trkpt>
<trkpt lat="45.8652140" lon="9.3212970">
	<ele>1180.00</ele>
	<time>2024-03-25T08:18:14.000Z</time>
</trkpt>
<trkpt lat="45.8652140" lon="9.3212940">
	<ele>1180.00</ele>
	<time>2024-03-25T08:18:15.000Z</time>
</trkpt>
<trkpt lat="45.8652120" lon="9.3212980">
	<ele>1180.20</ele>
	<time>2024-03-25T08:18:16.000Z</time>
</trkpt>
<trkpt lat="45.8652080" lon="9.3212940">
	<ele>1180.20</ele>
	<time>2024-03-25T08:18:17.000Z</time>
</trkpt>
<trkpt lat="45.8652060" lon="9.3212920">
	<ele>1180.40</ele>
	<time>2024-03-25T08:18:18.000Z</time>
</trkpt>
<trkpt lat="45.8652090" lon="9.3212950">
	<ele>1180.60</ele>
	<time>2024-03-25T08:18:19.000Z</time>
</trkpt>
<trkpt lat="45.8652080" lon="9.3212980">
	<ele>1180.80</ele>
	<time>2024-03-25T08:18:20.000Z</time>
</trkpt>
<trkpt lat="45.8652090" lon="9.3213060">
	<ele>1181.00</ele>
	<time>2024-03-25T08:18:21.000Z</time>
</trkpt>
<trkpt lat="45.8652140" lon="9.3213150">
	<ele>1181.20</ele>
	<time>2024-03-25T08:18:22.000Z</time>
</trkpt>
<trkpt lat="45.8652160" lon="9.3213220">
	<ele>1181.40</ele>
	<time>2024-03-25T08:18:23.000Z</time>
</trkpt>
<trkpt lat="45.8652110" lon="9.3213280">
	<ele>1181.60</ele>
	<time>2024-03-25T08:18:24.000Z</time>
</trkpt>
<trkpt lat="45.8652010" lon="9.3213310">
	<ele>1181.80</ele>
	<time>2024-03-25T08:18:25.000Z</time>
</trkpt>
<trkpt lat="45.8652050" lon="9.3213440">
	<ele>1181.80</ele>
	<time>2024-03-25T08:18:26.000Z</time>
</trkpt>
<trkpt lat="45.8652080" lon="9.3213460">
	<ele>1182.20</ele>
	<time>2024-03-25T08:18:27.000Z</time>
</trkpt>
<trkpt lat="45.8652170" lon="9.3213620">
	<ele>1182.20</ele>
	<time>2024-03-25T08:18:28.000Z</time>
</trkpt>
<trkpt lat="45.8652280" lon="9.3213710">
	<ele>1182.40</ele>
	<time>2024-03-25T08:18:29.000Z</time>
</trkpt>
<trkpt lat="45.8652320" lon="9.3213710">
	<ele>1182.40</ele>
	<time>2024-03-25T08:18:30.000Z</time>
</trkpt>
<trkpt lat="45.8652270" lon="9.3213820">
	<ele>1182.40</ele>
	<time>2024-03-25T08:18:31.000Z</time>
</trkpt>
<trkpt lat="45.8652170" lon="9.3214030">
	<ele>1182.40</ele>
	<time>2024-03-25T08:18:32.000Z</time>
</trkpt>
<trkpt lat="45.8652020" lon="9.3214110">
	<ele>1182.40</ele>
	<time>2024-03-25T08:18:33.000Z</time>
</trkpt>
<trkpt lat="45.8651850" lon="9.3214160">
	<ele>1182.40</ele>
	<time>2024-03-25T08:18:34.000Z</time>
</trkpt>
<trkpt lat="45.8651690" lon="9.3214260">
	<ele>1182.60</ele>
	<time>2024-03-25T08:18:35.000Z</time>
</trkpt>
<trkpt lat="45.8651570" lon="9.3214330">
	<ele>1182.60</ele>
	<time>2024-03-25T08:18:36.000Z</time>
</trkpt>
<trkpt lat="45.8651570" lon="9.3214470">
	<ele>1182.80</ele>
	<time>2024-03-25T08:18:37.000Z</time>
</trkpt>
<trkpt lat="45.8651620" lon="9.3214590">
	<ele>1182.80</ele>
	<time>2024-03-25T08:18:38.000Z</time>
</trkpt>
<trkpt lat="45.8651720" lon="9.3214710">
	<ele>1182.80</ele>
	<time>2024-03-25T08:18:39.000Z</time>
</trkpt>
<trkpt lat="45.8651690" lon="9.3214810">
	<ele>1183.00</ele>
	<time>2024-03-25T08:18:40.000Z</time>
</trkpt>
<trkpt lat="45.8651650" lon="9.3214960">
	<ele>1183.00</ele>
	<time>2024-03-25T08:18:41.000Z</time>
</trkpt>
<trkpt lat="45.8651630" lon="9.3215060">
	<ele>1183.20</ele>
	<time>2024-03-25T08:18:42.000Z</time>
</trkpt>
<trkpt lat="45.8651570" lon="9.3215120">
	<ele>1183.60</ele>
	<time>2024-03-25T08:18:43.000Z</time>
</trkpt>
<trkpt lat="45.8651510" lon="9.3215170">
	<ele>1183.80</ele>
	<time>2024-03-25T08:18:44.000Z</time>
</trkpt>
<trkpt lat="45.8651490" lon="9.3215220">
	<ele>1184.00</ele>
	<time>2024-03-25T08:18:45.000Z</time>
</trkpt>
<trkpt lat="45.8651410" lon="9.3215290">
	<ele>1184.20</ele>
	<time>2024-03-25T08:18:46.000Z</time>
</trkpt>
<trkpt lat="45.8651400" lon="9.3215410">
	<ele>1184.40</ele>
	<time>2024-03-25T08:18:47.000Z</time>
</trkpt>
<trkpt lat="45.8651420" lon="9.3215470">
	<ele>1184.60</ele>
	<time>2024-03-25T08:18:48.000Z</time>
</trkpt>
<trkpt lat="45.8651400" lon="9.3215580">
	<ele>1184.80</ele>
	<time>2024-03-25T08:18:49.000Z</time>
</trkpt>
<trkpt lat="45.8651450" lon="9.3215670">
	<ele>1185.20</ele>
	<time>2024-03-25T08:18:50.000Z</time>
</trkpt>
<trkpt lat="45.8651500" lon="9.3215670">
	<ele>1185.40</ele>
	<time>2024-03-25T08:18:51.000Z</time>
</trkpt>
<trkpt lat="45.8651550" lon="9.3215760">
	<ele>1185.60</ele>
	<time>2024-03-25T08:18:52.000Z</time>
</trkpt>
<trkpt lat="45.8651520" lon="9.3215870">
	<ele>1185.60</ele>
	<time>2024-03-25T08:18:53.000Z</time>
</trkpt>
<trkpt lat="45.8651500" lon="9.3215920">
	<ele>1185.80</ele>
	<time>2024-03-25T08:18:54.000Z</time>
</trkpt>
<trkpt lat="45.8651620" lon="9.3215970">
	<ele>1186.00</ele>
	<time>2024-03-25T08:18:55.000Z</time>
</trkpt>
<trkpt lat="45.8651750" lon="9.3216030">
	<ele>1186.00</ele>
	<time>2024-03-25T08:18:56.000Z</time>
</trkpt>
<trkpt lat="45.8651820" lon="9.3216030">
	<ele>1186.20</ele>
	<time>2024-03-25T08:18:57.000Z</time>
</trkpt>
<trkpt lat="45.8651860" lon="9.3216090">
	<ele>1186.20</ele>
	<time>2024-03-25T08:18:58.000Z</time>
</trkpt>
<trkpt lat="45.8651910" lon="9.3216150">
	<ele>1186.40</ele>
	<time>2024-03-25T08:18:59.000Z</time>
</trkpt>
<trkpt lat="45.8651920" lon="9.3216210">
	<ele>1186.60</ele>
	<time>2024-03-25T08:19:00.000Z</time>
</trkpt>
<trkpt lat="45.8651860" lon="9.3216250">
	<ele>1186.80</ele>
	<time>2024-03-25T08:19:01.000Z</time>
</trkpt>
<trkpt lat="45.8651830" lon="9.3216260">
	<ele>1187.00</ele>
	<time>2024-03-25T08:19:02.000Z</time>
</trkpt>
<trkpt lat="45.8651920" lon="9.3216520">
	<ele>1187.20</ele>
	<time>2024-03-25T08:19:03.000Z</time>
</trkpt>
<trkpt lat="45.8651910" lon="9.3216590">
	<ele>1187.20</ele>
	<time>2024-03-25T08:19:04.000Z</time>
</trkpt>
<trkpt lat="45.8651830" lon="9.3216680">
	<ele>1187.40</ele>
	<time>2024-03-25T08:19:05.000Z</time>
</trkpt>
<trkpt lat="45.8651820" lon="9.3216710">
	<ele>1187.40</ele>
	<time>2024-03-25T08:19:06.000Z</time>
</trkpt>
<trkpt lat="45.8651800" lon="9.3216820">
	<ele>1187.60</ele>
	<time>2024-03-25T08:19:07.000Z</time>
</trkpt>
<trkpt lat="45.8651810" lon="9.3216840">
	<ele>1188.00</ele>
	<time>2024-03-25T08:19:08.000Z</time>
</trkpt>
<trkpt lat="45.8651730" lon="9.3216820">
	<ele>1188.00</ele>
	<time>2024-03-25T08:19:09.000Z</time>
</trkpt>
<trkpt lat="45.8651670" lon="9.3216850">
	<ele>1188.20</ele>
	<time>2024-03-25T08:19:10.000Z</time>
</trkpt>
<trkpt lat="45.8651640" lon="9.3216850">
	<ele>1188.20</ele>
	<time>2024-03-25T08:19:11.000Z</time>
</trkpt>
<trkpt lat="45.8651640" lon="9.3216840">
	<ele>1188.40</ele>
	<time>2024-03-25T08:19:12.000Z</time>
</trkpt>
<trkpt lat="45.8651690" lon="9.3216870">
	<ele>1188.60</ele>
	<time>2024-03-25T08:19:13.000Z</time>
</trkpt>
<trkpt lat="45.8651780" lon="9.3216970">
	<ele>1189.20</ele>
	<time>2024-03-25T08:19:14.000Z</time>
</trkpt>
<trkpt lat="45.8651840" lon="9.3217100">
	<ele>1189.40</ele>
	<time>2024-03-25T08:19:15.000Z</time>
</trkpt>
<trkpt lat="45.8651770" lon="9.3217170">
	<ele>1189.60</ele>
	<time>2024-03-25T08:19:16.000Z</time>
</trkpt>
<trkpt lat="45.8651750" lon="9.3217200">
	<ele>1189.60</ele>
	<time>2024-03-25T08:19:17.000Z</time>
</trkpt>
<trkpt lat="45.8651740" lon="9.3217260">
	<ele>1189.60</ele>
	<time>2024-03-25T08:19:18.000Z</time>
</trkpt>
<trkpt lat="45.8651740" lon="9.3217300">
	<ele>1189.80</ele>
	<time>2024-03-25T08:19:19.000Z</time>
</trkpt>
<trkpt lat="45.8651720" lon="9.3217320">
	<ele>1190.00</ele>
	<time>2024-03-25T08:19:20.000Z</time>
</trkpt>
<trkpt lat="45.8651730" lon="9.3217400">
	<ele>1190.20</ele>
	<time>2024-03-25T08:19:21.000Z</time>
</trkpt>
<trkpt lat="45.8651810" lon="9.3217450">
	<ele>1190.60</ele>
	<time>2024-03-25T08:19:22.000Z</time>
</trkpt>
<trkpt lat="45.8651790" lon="9.3217520">
	<ele>1190.60</ele>
	<time>2024-03-25T08:19:23.000Z</time>
</trkpt>
<trkpt lat="45.8651710" lon="9.3217540">
	<ele>1190.80</ele>
	<time>2024-03-25T08:19:24.000Z</time>
</trkpt>
<trkpt lat="45.8651660" lon="9.3217550">
	<ele>1191.00</ele>
	<time>2024-03-25T08:19:25.000Z</time>
</trkpt>
<trkpt lat="45.8651670" lon="9.3217640">
	<ele>1191.40</ele>
	<time>2024-03-25T08:19:26.000Z</time>
</trkpt>
<trkpt lat="45.8651710" lon="9.3217790">
	<ele>1191.40</ele>
	<time>2024-03-25T08:19:27.000Z</time>
</trkpt>
<trkpt lat="45.8651730" lon="9.3217830">
	<ele>1191.80</ele>
	<time>2024-03-25T08:19:28.000Z</time>
</trkpt>
<trkpt lat="45.8651710" lon="9.3217930">
	<ele>1192.00</ele>
	<time>2024-03-25T08:19:29.000Z</time>
</trkpt>
<trkpt lat="45.8651710" lon="9.3218060">
	<ele>1192.00</ele>
	<time>2024-03-25T08:19:30.000Z</time>
</trkpt>
<trkpt lat="45.8651800" lon="9.3218220">
	<ele>1192.20</ele>
	<time>2024-03-25T08:19:31.000Z</time>
</trkpt>
<trkpt lat="45.8651900" lon="9.3218340">
	<ele>1192.20</ele>
	<time>2024-03-25T08:19:32.000Z</time>
</trkpt>
<trkpt lat="45.8652010" lon="9.3218440">
	<ele>1192.40</ele>
	<time>2024-03-25T08:19:33.000Z</time>
</trkpt>
<trkpt lat="45.8652060" lon="9.3218560">
	<ele>1192.60</ele>
	<time>2024-03-25T08:19:34.000Z</time>
</trkpt>
<trkpt lat="45.8652090" lon="9.3218590">
	<ele>1192.60</ele>
	<time>2024-03-25T08:19:35.000Z</time>
</trkpt>
<trkpt lat="45.8652110" lon="9.3218760">
	<ele>1192.80</ele>
	<time>2024-03-25T08:19:36.000Z</time>
</trkpt>
<trkpt lat="45.8652160" lon="9.3218910">
	<ele>1193.00</ele>
	<time>2024-03-25T08:19:37.000Z</time>
</trkpt>
<trkpt lat="45.8652230" lon="9.3219030">
	<ele>1193.00</ele>
	<time>2024-03-25T08:19:38.000Z</time>
</trkpt>
<trkpt lat="45.8652260" lon="9.3219180">
	<ele>1193.20</ele>
	<time>2024-03-25T08:19:39.000Z</time>
</trkpt>
<trkpt lat="45.8652270" lon="9.3219270">
	<ele>1193.40</ele>
	<time>2024-03-25T08:19:40.000Z</time>
</trkpt>
<trkpt lat="45.8652310" lon="9.3219320">
	<ele>1193.40</ele>
	<time>2024-03-25T08:19:41.000Z</time>
</trkpt>
<trkpt lat="45.8652350" lon="9.3219450">
	<ele>1193.60</ele>
	<time>2024-03-25T08:19:42.000Z</time>
</trkpt>
<trkpt lat="45.8652400" lon="9.3219610">
	<ele>1193.80</ele>
	<time>2024-03-25T08:19:43.000Z</time>
</trkpt>
<trkpt lat="45.8652350" lon="9.3219690">
	<ele>1193.80</ele>
	<time>2024-03-25T08:19:44.000Z</time>
</trkpt>
<trkpt lat="45.8652330" lon="9.3219780">
	<ele>1194.20</ele>
	<time>2024-03-25T08:19:45.000Z</time>
</trkpt>
<trkpt lat="45.8652220" lon="9.3219840">
	<ele>1194.20</ele>
	<time>2024-03-25T08:19:46.000Z</time>
</trkpt>
<trkpt lat="45.8652160" lon="9.3219930">
	<ele>1194.40</ele>
	<time>2024-03-25T08:19:47.000Z</time>
</trkpt>
<trkpt lat="45.8652130" lon="9.3220010">
	<ele>1194.40</ele>
	<time>2024-03-25T08:19:48.000Z</time>
</trkpt>
<trkpt lat="45.8652040" lon="9.3220040">
	<ele>1194.60</ele>
	<time>2024-03-25T08:19:49.000Z</time>
</trkpt>
<trkpt lat="45.8651970" lon="9.3220080">
	<ele>1194.80</ele>
	<time>2024-03-25T08:19:50.000Z</time>
</trkpt>
<trkpt lat="45.8651960" lon="9.3220100">
	<ele>1195.00</ele>
	<time>2024-03-25T08:19:51.000Z</time>
</trkpt>
<trkpt lat="45.8651980" lon="9.3220120">
	<ele>1195.20</ele>
	<time>2024-03-25T08:19:52.000Z</time>
</trkpt>
<trkpt lat="45.8651950" lon="9.3220120">
	<ele>1195.20</ele>
	<time>2024-03-25T08:19:53.000Z</time>
</trkpt>
<trkpt lat="45.8651940" lon="9.3220140">
	<ele>1195.40</ele>
	<time>2024-03-25T08:19:54.000Z</time>
</trkpt>
<trkpt lat="45.8651960" lon="9.3220170">
	<ele>1195.40</ele>
	<time>2024-03-25T08:19:55.000Z</time>
</trkpt>
<trkpt lat="45.8652020" lon="9.3220250">
	<ele>1195.60</ele>
	<time>2024-03-25T08:19:56.000Z</time>
</trkpt>
<trkpt lat="45.8652090" lon="9.3220410">
	<ele>1195.80</ele>
	<time>2024-03-25T08:19:57.000Z</time>
</trkpt>
<trkpt lat="45.8652140" lon="9.3220550">
	<ele>1195.80</ele>
	<time>2024-03-25T08:19:58.000Z</time>
</trkpt>
<trkpt lat="45.8652220" lon="9.3220750">
	<ele>1196.00</ele>
	<time>2024-03-25T08:19:59.000Z</time>
</trkpt>
<trkpt lat="45.8652350" lon="9.3220940">
	<ele>1196.20</ele>
	<time>2024-03-25T08:20:00.000Z</time>
</trkpt>
<trkpt lat="45.8652380" lon="9.3220990">
	<ele>1196.20</ele>
	<time>2024-03-25T08:20:01.000Z</time>
</trkpt>
<trkpt lat="45.8652410" lon="9.3220980">
	<ele>1196.40</ele>
	<time>2024-03-25T08:20:02.000Z</time>
</trkpt>
<trkpt lat="45.8652430" lon="9.3221040">
	<ele>1196.60</ele>
	<time>2024-03-25T08:20:03.000Z</time>
</trkpt>
<trkpt lat="45.8652470" lon="9.3221050">
	<ele>1196.80</ele>
	<time>2024-03-25T08:20:04.000Z</time>
</trkpt>
<trkpt lat="45.8652510" lon="9.3221220">
	<ele>1197.00</ele>
	<time>2024-03-25T08:20:05.000Z</time>
</trkpt>
<trkpt lat="45.8652540" lon="9.3221250">
	<ele>1197.20</ele>
	<time>2024-03-25T08:20:06.000Z</time>
</trkpt>
<trkpt lat="45.8652550" lon="9.3221240">
	<ele>1197.40</ele>
	<time>2024-03-25T08:20:07.000Z</time>
</trkpt>
<trkpt lat="45.8652620" lon="9.3221330">
	<ele>1197.40</ele>
	<time>2024-03-25T08:20:08.000Z</time>
</trkpt>
<trkpt lat="45.8652820" lon="9.3221490">
	<ele>1197.60</ele>
	<time>2024-03-25T08:20:09.000Z</time>
</trkpt>
<trkpt lat="45.8652940" lon="9.3221630">
	<ele>1197.80</ele>
	<time>2024-03-25T08:20:10.000Z</time>
</trkpt>
<trkpt lat="45.8652980" lon="9.3221650">
	<ele>1198.00</ele>
	<time>2024-03-25T08:20:11.000Z</time>
</trkpt>
<trkpt lat="45.8652990" lon="9.3221650">
	<ele>1198.00</ele>
	<time>2024-03-25T08:20:12.000Z</time>
</trkpt>
<trkpt lat="45.8653040" lon="9.3221790">
	<ele>1198.40</ele>
	<time>2024-03-25T08:20:13.000Z</time>
</trkpt>
<trkpt lat="45.8653010" lon="9.3221940">
	<ele>1198.60</ele>
	<time>2024-03-25T08:20:14.000Z</time>
</trkpt>
<trkpt lat="45.8652930" lon="9.3222070">
	<ele>1198.60</ele>
	<time>2024-03-25T08:20:15.000Z</time>
</trkpt>
<trkpt lat="45.8652840" lon="9.3222100">
	<ele>1198.80</ele>
	<time>2024-03-25T08:20:16.000Z</time>
</trkpt>
<trkpt lat="45.8652780" lon="9.3222180">
	<ele>1198.80</ele>
	<time>2024-03-25T08:20:17.000Z</time>
</trkpt>
<trkpt lat="45.8652730" lon="9.3222270">
	<ele>1199.00</ele>
	<time>2024-03-25T08:20:18.000Z</time>
</trkpt>
<trkpt lat="45.8652730" lon="9.3222380">
	<ele>1199.00</ele>
	<time>2024-03-25T08:20:19.000Z</time>
</trkpt>
<trkpt lat="45.8652750" lon="9.3222470">
	<ele>1199.20</ele>
	<time>2024-03-25T08:20:20.000Z</time>
</trkpt>
<trkpt lat="45.8652760" lon="9.3222470">
	<ele>1199.40</ele>
	<time>2024-03-25T08:20:21.000Z</time>
</trkpt>
<trkpt lat="45.8652760" lon="9.3222480">
	<ele>1199.40</ele>
	<time>2024-03-25T08:20:22.000Z</time>
</trkpt>
<trkpt lat="45.8652780" lon="9.3222490">
	<ele>1199.60</ele>
	<time>2024-03-25T08:20:23.000Z</time>
</trkpt>
<trkpt lat="45.8652760" lon="9.3222490">
	<ele>1199.60</ele>
	<time>2024-03-25T08:20:24.000Z</time>
</trkpt>
<trkpt lat="45.8652750" lon="9.3222490">
	<ele>1199.80</ele>
	<time>2024-03-25T08:20:25.000Z</time>
</trkpt>
<trkpt lat="45.8652780" lon="9.3222520">
	<ele>1200.20</ele>
	<time>2024-03-25T08:20:26.000Z</time>
</trkpt>
<trkpt lat="45.8652760" lon="9.3222540">
	<ele>1200.40</ele>
	<time>2024-03-25T08:20:27.000Z</time>
</trkpt>
<trkpt lat="45.8652670" lon="9.3222680">
	<ele>1200.40</ele>
	<time>2024-03-25T08:20:28.000Z</time>
</trkpt>
<trkpt lat="45.8652550" lon="9.3222700">
	<ele>1200.60</ele>
	<time>2024-03-25T08:20:29.000Z</time>
</trkpt>
<trkpt lat="45.8652430" lon="9.3222660">
	<ele>1200.60</ele>
	<time>2024-03-25T08:20:30.000Z</time>
</trkpt>
<trkpt lat="45.8652390" lon="9.3222670">
	<ele>1200.60</ele>
	<time>2024-03-25T08:20:31.000Z</time>
</trkpt>
<trkpt lat="45.8652350" lon="9.3222690">
	<ele>1200.60</ele>
	<time>2024-03-25T08:20:32.000Z</time>
</trkpt>
<trkpt lat="45.8652300" lon="9.3222720">
	<ele>1200.80</ele>
	<time>2024-03-25T08:20:33.000Z</time>
</trkpt>
<trkpt lat="45.8652250" lon="9.3222730">
	<ele>1200.80</ele>
	<time>2024-03-25T08:20:34.000Z</time>
</trkpt>
<trkpt lat="45.8652270" lon="9.3222710">
	<ele>1200.80</ele>
	<time>2024-03-25T08:20:35.000Z</time>
</trkpt>
<trkpt lat="45.8652280" lon="9.3222690">
	<ele>1200.80</ele>
	<time>2024-03-25T08:20:36.000Z</time>
</trkpt>
<trkpt lat="45.8652290" lon="9.3222650">
	<ele>1200.80</ele>
	<time>2024-03-25T08:20:37.000Z</time>
</trkpt>
<trkpt lat="45.8652260" lon="9.3222630">
	<ele>1200.80</ele>
	<time>2024-03-25T08:20:38.000Z</time>
</trkpt>
<trkpt lat="45.8652170" lon="9.3222580">
	<ele>1200.60</ele>
	<time>2024-03-25T08:20:39.000Z</time>
</trkpt>
<trkpt lat="45.8652130" lon="9.3222590">
	<ele>1200.60</ele>
	<time>2024-03-25T08:20:40.000Z</time>
</trkpt>
<trkpt lat="45.8652160" lon="9.3222670">
	<ele>1200.60</ele>
	<time>2024-03-25T08:20:41.000Z</time>
</trkpt>
<trkpt lat="45.8652120" lon="9.3222720">
	<ele>1200.60</ele>
	<time>2024-03-25T08:20:42.000Z</time>
</trkpt>
<trkpt lat="45.8652110" lon="9.3222760">
	<ele>1200.60</ele>
	<time>2024-03-25T08:20:43.000Z</time>
</trkpt>
<trkpt lat="45.8652100" lon="9.3222780">
	<ele>1200.60</ele>
	<time>2024-03-25T08:20:44.000Z</time>
</trkpt>
<trkpt lat="45.8652100" lon="9.3222800">
	<ele>1200.60</ele>
	<time>2024-03-25T08:20:45.000Z</time>
</trkpt>
<trkpt lat="45.8652140" lon="9.3222890">
	<ele>1200.80</ele>
	<time>2024-03-25T08:20:46.000Z</time>
</trkpt>
<trkpt lat="45.8652180" lon="9.3223030">
	<ele>1200.80</ele>
	<time>2024-03-25T08:20:47.000Z</time>
</trkpt>
<trkpt lat="45.8652190" lon="9.3223100">
	<ele>1200.80</ele>
	<time>2024-03-25T08:20:48.000Z</time>
</trkpt>
<trkpt lat="45.8652160" lon="9.3223210">
	<ele>1201.00</ele>
	<time>2024-03-25T08:20:49.000Z</time>
</trkpt>
<trkpt lat="45.8652210" lon="9.3223370">
	<ele>1201.20</ele>
	<time>2024-03-25T08:20:50.000Z</time>
</trkpt>
<trkpt lat="45.8652230" lon="9.3223500">
	<ele>1201.40</ele>
	<time>2024-03-25T08:20:51.000Z</time>
</trkpt>
<trkpt lat="45.8652220" lon="9.3223590">
	<ele>1201.60</ele>
	<time>2024-03-25T08:20:52.000Z</time>
</trkpt>
<trkpt lat="45.8652210" lon="9.3223650">
	<ele>1201.60</ele>
	<time>2024-03-25T08:20:53.000Z</time>
</trkpt>
<trkpt lat="45.8652190" lon="9.3223710">
	<ele>1201.80</ele>
	<time>2024-03-25T08:20:54.000Z</time>
</trkpt>
<trkpt lat="45.8652160" lon="9.3223750">
	<ele>1201.80</ele>
	<time>2024-03-25T08:20:55.000Z</time>
</trkpt>
<trkpt lat="45.8652140" lon="9.3223820">
	<ele>1202.00</ele>
	<time>2024-03-25T08:20:56.000Z</time>
</trkpt>
<trkpt lat="45.8652090" lon="9.3223870">
	<ele>1202.20</ele>
	<time>2024-03-25T08:20:57.000Z</time>
</trkpt>
<trkpt lat="45.8652040" lon="9.3223890">
	<ele>1202.40</ele>
	<time>2024-03-25T08:20:58.000Z</time>
</trkpt>
<trkpt lat="45.8652040" lon="9.3223950">
	<ele>1202.60</ele>
	<time>2024-03-25T08:20:59.000Z</time>
</trkpt>
<trkpt lat="45.8652040" lon="9.3224040">
	<ele>1202.80</ele>
	<time>2024-03-25T08:21:00.000Z</time>
</trkpt>
<trkpt lat="45.8652030" lon="9.3224080">
	<ele>1202.80</ele>
	<time>2024-03-25T08:21:01.000Z</time>
</trkpt>
<trkpt lat="45.8652040" lon="9.3224130">
	<ele>1203.00</ele>
	<time>2024-03-25T08:21:02.000Z</time>
</trkpt>
<trkpt lat="45.8652040" lon="9.3224180">
	<ele>1203.00</ele>
	<time>2024-03-25T08:21:03.000Z</time>
</trkpt>
<trkpt lat="45.8652040" lon="9.3224250">
	<ele>1203.20</ele>
	<time>2024-03-25T08:21:04.000Z</time>
</trkpt>
<trkpt lat="45.8652040" lon="9.3224340">
	<ele>1203.40</ele>
	<time>2024-03-25T08:21:05.000Z</time>
</trkpt>
<trkpt lat="45.8652030" lon="9.3224440">
	<ele>1203.60</ele>
	<time>2024-03-25T08:21:06.000Z</time>
</trkpt>
<trkpt lat="45.8651940" lon="9.3224500">
	<ele>1203.80</ele>
	<time>2024-03-25T08:21:07.000Z</time>
</trkpt>
<trkpt lat="45.8651840" lon="9.3224500">
	<ele>1203.80</ele>
	<time>2024-03-25T08:21:08.000Z</time>
</trkpt>
<trkpt lat="45.8651830" lon="9.3224570">
	<ele>1204.00</ele>
	<time>2024-03-25T08:21:09.000Z</time>
</trkpt>
<trkpt lat="45.8651770" lon="9.3224640">
	<ele>1204.20</ele>
	<time>2024-03-25T08:21:10.000Z</time>
</trkpt>
<trkpt lat="45.8651700" lon="9.3224810">
	<ele>1204.40</ele>
	<time>2024-03-25T08:21:11.000Z</time>
</trkpt>
<trkpt lat="45.8651690" lon="9.3224950">
	<ele>1204.60</ele>
	<time>2024-03-25T08:21:12.000Z</time>
</trkpt>
<trkpt lat="45.8651750" lon="9.3225100">
	<ele>1204.80</ele>
	<time>2024-03-25T08:21:13.000Z</time>
</trkpt>
<trkpt lat="45.8651720" lon="9.3225200">
	<ele>1205.00</ele>
	<time>2024-03-25T08:21:14.000Z</time>
</trkpt>
<trkpt lat="45.8651630" lon="9.3225240">
	<ele>1205.20</ele>
	<time>2024-03-25T08:21:15.000Z</time>
</trkpt>
<trkpt lat="45.8651670" lon="9.3225370">
	<ele>1205.40</ele>
	<time>2024-03-25T08:21:16.000Z</time>
</trkpt>
<trkpt lat="45.8651720" lon="9.3225540">
	<ele>1205.60</ele>
	<time>2024-03-25T08:21:17.000Z</time>
</trkpt>
<trkpt lat="45.8651840" lon="9.3225730">
	<ele>1205.80</ele>
	<time>2024-03-25T08:21:18.000Z</time>
</trkpt>
<trkpt lat="45.8651830" lon="9.3225760">
	<ele>1206.00</ele>
	<time>2024-03-25T08:21:19.000Z</time>
</trkpt>
<trkpt lat="45.8651810" lon="9.3225810">
	<ele>1206.20</ele>
	<time>2024-03-25T08:21:20.000Z</time>
</trkpt>
<trkpt lat="45.8651800" lon="9.3225810">
	<ele>1206.40</ele>
	<time>2024-03-25T08:21:21.000Z</time>
</trkpt>
<trkpt lat="45.8651770" lon="9.3225810">
	<ele>1206.40</ele>
	<time>2024-03-25T08:21:22.000Z</time>
</trkpt>
<trkpt lat="45.8651740" lon="9.3225920">
	<ele>1206.60</ele>
	<time>2024-03-25T08:21:23.000Z</time>
</trkpt>
<trkpt lat="45.8651760" lon="9.3226020">
	<ele>1207.00</ele>
	<time>2024-03-25T08:21:24.000Z</time>
</trkpt>
<trkpt lat="45.8651770" lon="9.3226140">
	<ele>1207.20</ele>
	<time>2024-03-25T08:21:25.000Z</time>
</trkpt>
<trkpt lat="45.8651790" lon="9.3226250">
	<ele>1207.40</ele>
	<time>2024-03-25T08:21:26.000Z</time>
</trkpt>
<trkpt lat="45.8651880" lon="9.3226340">
	<ele>1207.60</ele>
	<time>2024-03-25T08:21:27.000Z</time>
</trkpt>
<trkpt lat="45.8651950" lon="9.3226450">
	<ele>1208.00</ele>
	<time>2024-03-25T08:21:28.000Z</time>
</trkpt>
<trkpt lat="45.8651950" lon="9.3226550">
	<ele>1208.20</ele>
	<time>2024-03-25T08:21:29.000Z</time>
</trkpt>
<trkpt lat="45.8652020" lon="9.3226630">
	<ele>1208.40</ele>
	<time>2024-03-25T08:21:30.000Z</time>
</trkpt>
<trkpt lat="45.8652110" lon="9.3226650">
	<ele>1208.60</ele>
	<time>2024-03-25T08:21:31.000Z</time>
</trkpt>
<trkpt lat="45.8652150" lon="9.3226710">
	<ele>1208.60</ele>
	<time>2024-03-25T08:21:32.000Z</time>
</trkpt>
<trkpt lat="45.8652170" lon="9.3226780">
	<ele>1208.80</ele>
	<time>2024-03-25T08:21:33.000Z</time>
</trkpt>
<trkpt lat="45.8652200" lon="9.3226850">
	<ele>1209.00</ele>
	<time>2024-03-25T08:21:34.000Z</time>
</trkpt>
<trkpt lat="45.8652180" lon="9.3226920">
	<ele>1209.20</ele>
	<time>2024-03-25T08:21:35.000Z</time>
</trkpt>
<trkpt lat="45.8652150" lon="9.3226920">
	<ele>1209.40</ele>
	<time>2024-03-25T08:21:36.000Z</time>
</trkpt>
<trkpt lat="45.8652090" lon="9.3226920">
	<ele>1209.40</ele>
	<time>2024-03-25T08:21:37.000Z</time>
</trkpt>
<trkpt lat="45.8652100" lon="9.3226990">
	<ele>1209.60</ele>
	<time>2024-03-25T08:21:38.000Z</time>
</trkpt>
<trkpt lat="45.8652150" lon="9.3227160">
	<ele>1209.80</ele>
	<time>2024-03-25T08:21:39.000Z</time>
</trkpt>
<trkpt lat="45.8652130" lon="9.3227270">
	<ele>1209.80</ele>
	<time>2024-03-25T08:21:40.000Z</time>
</trkpt>
<trkpt lat="45.8652080" lon="9.3227400">
	<ele>1210.00</ele>
	<time>2024-03-25T08:21:41.000Z</time>
</trkpt>
<trkpt lat="45.8652020" lon="9.3227480">
	<ele>1210.00</ele>
	<time>2024-03-25T08:21:42.000Z</time>
</trkpt>
<trkpt lat="45.8651970" lon="9.3227610">
	<ele>1210.20</ele>
	<time>2024-03-25T08:21:43.000Z</time>
</trkpt>
<trkpt lat="45.8651920" lon="9.3227690">
	<ele>1210.40</ele>
	<time>2024-03-25T08:21:44.000Z</time>
</trkpt>
<trkpt lat="45.8651960" lon="9.3227810">
	<ele>1210.60</ele>
	<time>2024-03-25T08:21:45.000Z</time>
</trkpt>
<trkpt lat="45.8651970" lon="9.3227970">
	<ele>1210.80</ele>
	<time>2024-03-25T08:21:46.000Z</time>
</trkpt>
<trkpt lat="45.8651910" lon="9.3228090">
	<ele>1211.00</ele>
	<time>2024-03-25T08:21:47.000Z</time>
</trkpt>
<trkpt lat="45.8651850" lon="9.3228220">
	<ele>1211.00</ele>
	<time>2024-03-25T08:21:48.000Z</time>
</trkpt>
<trkpt lat="45.8651860" lon="9.3228310">
	<ele>1211.20</ele>
	<time>2024-03-25T08:21:49.000Z</time>
</trkpt>
<trkpt lat="45.8651920" lon="9.3228500">
	<ele>1211.40</ele>
	<time>2024-03-25T08:21:50.000Z</time>
</trkpt>
<trkpt lat="45.8651990" lon="9.3228640">
	<ele>1211.60</ele>
	<time>2024-03-25T08:21:51.000Z</time>
</trkpt>
<trkpt lat="45.8652100" lon="9.3228790">
	<ele>1211.60</ele>
	<time>2024-03-25T08:21:52.000Z</time>
</trkpt>
<trkpt lat="45.8652150" lon="9.3228820">
	<ele>1211.80</ele>
	<time>2024-03-25T08:21:53.000Z</time>
</trkpt>
<trkpt lat="45.8652160" lon="9.3228910">
	<ele>1211.80</ele>
	<time>2024-03-25T08:21:54.000Z</time>
</trkpt>
<trkpt lat="45.8652160" lon="9.3228900">
	<ele>1212.20</ele>
	<time>2024-03-25T08:21:55.000Z</time>
</trkpt>
<trkpt lat="45.8652100" lon="9.3228820">
	<ele>1212.20</ele>
	<time>2024-03-25T08:21:56.000Z</time>
</trkpt>
<trkpt lat="45.8652120" lon="9.3228860">
	<ele>1212.40</ele>
	<time>2024-03-25T08:21:57.000Z</time>
</trkpt>
<trkpt lat="45.8652150" lon="9.3228870">
	<ele>1212.40</ele>
	<time>2024-03-25T08:21:58.000Z</time>
</trkpt>
<trkpt lat="45.8652110" lon="9.3228780">
	<ele>1212.20</ele>
	<time>2024-03-25T08:21:59.000Z</time>
</trkpt>
<trkpt lat="45.8652110" lon="9.3228750">
	<ele>1212.20</ele>
	<time>2024-03-25T08:22:00.000Z</time>
</trkpt>
<trkpt lat="45.8652100" lon="9.3228740">
	<ele>1212.20</ele>
	<time>2024-03-25T08:22:01.000Z</time>
</trkpt>
<trkpt lat="45.8652080" lon="9.3228770">
	<ele>1212.20</ele>
	<time>2024-03-25T08:22:02.000Z</time>
</trkpt>
<trkpt lat="45.8652070" lon="9.3228790">
	<ele>1212.20</ele>
	<time>2024-03-25T08:22:03.000Z</time>
</trkpt>
<trkpt lat="45.8652110" lon="9.3228820">
	<ele>1212.00</ele>
	<time>2024-03-25T08:22:04.000Z</time>
</trkpt>
<trkpt lat="45.8652150" lon="9.3228820">
	<ele>1212.00</ele>
	<time>2024-03-25T08:22:05.000Z</time>
</trkpt>
<trkpt lat="45.8652140" lon="9.3228810">
	<ele>1212.00</ele>
	<time>2024-03-25T08:22:06.000Z</time>
</trkpt>
<trkpt lat="45.8652120" lon="9.3228800">
	<ele>1212.00</ele>
	<time>2024-03-25T08:22:07.000Z</time>
</trkpt>
<trkpt lat="45.8652200" lon="9.3228860">
	<ele>1212.00</ele>
	<time>2024-03-25T08:22:08.000Z</time>
</trkpt>
<trkpt lat="45.8652210" lon="9.3228890">
	<ele>1212.00</ele>
	<time>2024-03-25T08:22:09.000Z</time>
</trkpt>
<trkpt lat="45.8652190" lon="9.3228870">
	<ele>1212.00</ele>
	<time>2024-03-25T08:22:10.000Z</time>
</trkpt>
<trkpt lat="45.8652190" lon="9.3228850">
	<ele>1212.00</ele>
	<time>2024-03-25T08:22:11.000Z</time>
</trkpt>
<trkpt lat="45.8652180" lon="9.3228840">
	<ele>1212.00</ele>
	<time>2024-03-25T08:22:12.000Z</time>
</trkpt>
<trkpt lat="45.8652190" lon="9.3228870">
	<ele>1212.00</ele>
	<time>2024-03-25T08:22:13.000Z</time>
</trkpt>
<trkpt lat="45.8652180" lon="9.3228860">
	<ele>1212.00</ele>
	<time>2024-03-25T08:22:14.000Z</time>
</trkpt>
<trkpt lat="45.8652160" lon="9.3228840">
	<ele>1212.00</ele>
	<time>2024-03-25T08:22:15.000Z</time>
</trkpt>
<trkpt lat="45.8652170" lon="9.3228850">
	<ele>1212.00</ele>
	<time>2024-03-25T08:22:16.000Z</time>
</trkpt>
<trkpt lat="45.8652210" lon="9.3228840">
	<ele>1212.00</ele>
	<time>2024-03-25T08:22:17.000Z</time>
</trkpt>
<trkpt lat="45.8652240" lon="9.3228870">
	<ele>1212.00</ele>
	<time>2024-03-25T08:22:18.000Z</time>
</trkpt>
<trkpt lat="45.8652270" lon="9.3228890">
	<ele>1212.00</ele>
	<time>2024-03-25T08:22:19.000Z</time>
</trkpt>
<trkpt lat="45.8652320" lon="9.3228920">
	<ele>1212.00</ele>
	<time>2024-03-25T08:22:20.000Z</time>
</trkpt>
<trkpt lat="45.8652340" lon="9.3228950">
	<ele>1212.00</ele>
	<time>2024-03-25T08:22:21.000Z</time>
</trkpt>
<trkpt lat="45.8652370" lon="9.3228930">
	<ele>1212.00</ele>
	<time>2024-03-25T08:22:22.000Z</time>
</trkpt>
<trkpt lat="45.8652400" lon="9.3228930">
	<ele>1212.00</ele>
	<time>2024-03-25T08:22:23.000Z</time>
</trkpt>
<trkpt lat="45.8652410" lon="9.3228970">
	<ele>1212.00</ele>
	<time>2024-03-25T08:22:24.000Z</time>
</trkpt>
<trkpt lat="45.8652430" lon="9.3228980">
	<ele>1212.00</ele>
	<time>2024-03-25T08:22:25.000Z</time>
</trkpt>
<trkpt lat="45.8652440" lon="9.3228980">
	<ele>1212.00</ele>
	<time>2024-03-25T08:22:26.000Z</time>
</trkpt>
<trkpt lat="45.8652460" lon="9.3228980">
	<ele>1212.00</ele>
	<time>2024-03-25T08:22:27.000Z</time>
</trkpt>
<trkpt lat="45.8652490" lon="9.3228970">
	<ele>1212.00</ele>
	<time>2024-03-25T08:22:28.000Z</time>
</trkpt>
<trkpt lat="45.8652500" lon="9.3228960">
	<ele>1212.00</ele>
	<time>2024-03-25T08:22:29.000Z</time>
</trkpt>
<trkpt lat="45.8652480" lon="9.3228950">
	<ele>1212.00</ele>
	<time>2024-03-25T08:22:30.000Z</time>
</trkpt>
<trkpt lat="45.8652470" lon="9.3228950">
	<ele>1212.00</ele>
	<time>2024-03-25T08:22:31.000Z</time>
</trkpt>
<trkpt lat="45.8652470" lon="9.3228950">
	<ele>1212.00</ele>
	<time>2024-03-25T08:22:32.000Z</time>
</trkpt>
<trkpt lat="45.8652470" lon="9.3228950">
	<ele>1212.00</ele>
	<time>2024-03-25T08:22:33.000Z</time>
</trkpt>
<trkpt lat="45.8652470" lon="9.3228950">
	<ele>1212.00</ele>
	<time>2024-03-25T08:22:34.000Z</time>
</trkpt>
<trkpt lat="45.8652470" lon="9.3228950">
	<ele>1212.20</ele>
	<time>2024-03-25T08:22:35.000Z</time>
</trkpt>
<trkpt lat="45.8652470" lon="9.3228950">
	<ele>1212.00</ele>
	<time>2024-03-25T08:22:36.000Z</time>
</trkpt>
<trkpt lat="45.8652470" lon="9.3228950">
	<ele>1212.00</ele>
	<time>2024-03-25T08:22:37.000Z</time>
</trkpt>
<trkpt lat="45.8652470" lon="9.3228950">
	<ele>1212.00</ele>
	<time>2024-03-25T08:22:38.000Z</time>
</trkpt>
<trkpt lat="45.8652470" lon="9.3228950">
	<ele>1212.00</ele>
	<time>2024-03-25T08:22:39.000Z</time>
</trkpt>
<trkpt lat="45.8652470" lon="9.3228950">
	<ele>1212.00</ele>
	<time>2024-03-25T08:22:40.000Z</time>
</trkpt>
<trkpt lat="45.8652470" lon="9.3228950">
	<ele>1212.00</ele>
	<time>2024-03-25T08:22:41.000Z</time>
</trkpt>
<trkpt lat="45.8652470" lon="9.3228950">
	<ele>1212.00</ele>
	<time>2024-03-25T08:22:42.000Z</time>
</trkpt>
<trkpt lat="45.8652470" lon="9.3228950">
	<ele>1212.00</ele>
	<time>2024-03-25T08:22:43.000Z</time>
</trkpt>
<trkpt lat="45.8652470" lon="9.3228950">
	<ele>1212.00</ele>
	<time>2024-03-25T08:22:44.000Z</time>
</trkpt>
<trkpt lat="45.8652470" lon="9.3228950">
	<ele>1212.00</ele>
	<time>2024-03-25T08:22:45.000Z</time>
</trkpt>
<trkpt lat="45.8652470" lon="9.3228950">
	<ele>1212.00</ele>
	<time>2024-03-25T08:22:46.000Z</time>
</trkpt>
<trkpt lat="45.8652470" lon="9.3228950">
	<ele>1212.20</ele>
	<time>2024-03-25T08:22:47.000Z</time>
</trkpt>
<trkpt lat="45.8652460" lon="9.3228950">
	<ele>1212.20</ele>
	<time>2024-03-25T08:22:48.000Z</time>
</trkpt>
<trkpt lat="45.8652430" lon="9.3228980">
	<ele>1212.20</ele>
	<time>2024-03-25T08:22:49.000Z</time>
</trkpt>
<trkpt lat="45.8652290" lon="9.3229040">
	<ele>1212.40</ele>
	<time>2024-03-25T08:22:50.000Z</time>
</trkpt>
<trkpt lat="45.8652100" lon="9.3229050">
	<ele>1212.60</ele>
	<time>2024-03-25T08:22:51.000Z</time>
</trkpt>
<trkpt lat="45.8652010" lon="9.3229170">
	<ele>1212.80</ele>
	<time>2024-03-25T08:22:52.000Z</time>
</trkpt>
<trkpt lat="45.8651960" lon="9.3229350">
	<ele>1213.00</ele>
	<time>2024-03-25T08:22:53.000Z</time>
</trkpt>
<trkpt lat="45.8651960" lon="9.3229480">
	<ele>1213.00</ele>
	<time>2024-03-25T08:22:54.000Z</time>
</trkpt>
<trkpt lat="45.8651940" lon="9.3229570">
	<ele>1213.20</ele>
	<time>2024-03-25T08:22:55.000Z</time>
</trkpt>
<trkpt lat="45.8651890" lon="9.3229690">
	<ele>1213.40</ele>
	<time>2024-03-25T08:22:56.000Z</time>
</trkpt>
<trkpt lat="45.8651740" lon="9.3229780">
	<ele>1213.60</ele>
	<time>2024-03-25T08:22:57.000Z</time>
</trkpt>
<trkpt lat="45.8651640" lon="9.3229940">
	<ele>1213.80</ele>
	<time>2024-03-25T08:22:58.000Z</time>
</trkpt>
<trkpt lat="45.8651660" lon="9.3230130">
	<ele>1214.00</ele>
	<time>2024-03-25T08:22:59.000Z</time>
</trkpt>
<trkpt lat="45.8651690" lon="9.3230250">
	<ele>1214.20</ele>
	<time>2024-03-25T08:23:00.000Z</time>
</trkpt>
<trkpt lat="45.8651680" lon="9.3230410">
	<ele>1214.40</ele>
	<time>2024-03-25T08:23:01.000Z</time>
</trkpt>
<trkpt lat="45.8651650" lon="9.3230560">
	<ele>1214.60</ele>
	<time>2024-03-25T08:23:02.000Z</time>
</trkpt>
<trkpt lat="45.8651650" lon="9.3230710">
	<ele>1214.80</ele>
	<time>2024-03-25T08:23:03.000Z</time>
</trkpt>
<trkpt lat="45.8651600" lon="9.3230830">
	<ele>1215.00</ele>
	<time>2024-03-25T08:23:04.000Z</time>
</trkpt>
<trkpt lat="45.8651580" lon="9.3231020">
	<ele>1215.00</ele>
	<time>2024-03-25T08:23:05.000Z</time>
</trkpt>
<trkpt lat="45.8651530" lon="9.3231200">
	<ele>1215.20</ele>
	<time>2024-03-25T08:23:06.000Z</time>
</trkpt>
<trkpt lat="45.8651500" lon="9.3231320">
	<ele>1215.40</ele>
	<time>2024-03-25T08:23:07.000Z</time>
</trkpt>
<trkpt lat="45.8651490" lon="9.3231460">
	<ele>1215.40</ele>
	<time>2024-03-25T08:23:08.000Z</time>
</trkpt>
<trkpt lat="45.8651420" lon="9.3231540">
	<ele>1215.60</ele>
	<time>2024-03-25T08:23:09.000Z</time>
</trkpt>
<trkpt lat="45.8651360" lon="9.3231630">
	<ele>1215.80</ele>
	<time>2024-03-25T08:23:10.000Z</time>
</trkpt>
<trkpt lat="45.8651250" lon="9.3231670">
	<ele>1215.80</ele>
	<time>2024-03-25T08:23:11.000Z</time>
</trkpt>
<trkpt lat="45.8651130" lon="9.3231680">
	<ele>1216.00</ele>
	<time>2024-03-25T08:23:12.000Z</time>
</trkpt>
<trkpt lat="45.8651050" lon="9.3231750">
	<ele>1216.00</ele>
	<time>2024-03-25T08:23:13.000Z</time>
</trkpt>
<trkpt lat="45.8650930" lon="9.3231810">
	<ele>1216.20</ele>
	<time>2024-03-25T08:23:14.000Z</time>
</trkpt>
<trkpt lat="45.8650800" lon="9.3231890">
	<ele>1216.20</ele>
	<time>2024-03-25T08:23:15.000Z</time>
</trkpt>
<trkpt lat="45.8650730" lon="9.3231950">
	<ele>1216.40</ele>
	<time>2024-03-25T08:23:16.000Z</time>
</trkpt>
<trkpt lat="45.8650650" lon="9.3232050">
	<ele>1216.60</ele>
	<time>2024-03-25T08:23:17.000Z</time>
</trkpt>
<trkpt lat="45.8650530" lon="9.3232150">
	<ele>1216.60</ele>
	<time>2024-03-25T08:23:18.000Z</time>
</trkpt>
<trkpt lat="45.8650480" lon="9.3232250">
	<ele>1216.80</ele>
	<time>2024-03-25T08:23:19.000Z</time>
</trkpt>
<trkpt lat="45.8650360" lon="9.3232280">
	<ele>1216.80</ele>
	<time>2024-03-25T08:23:20.000Z</time>
</trkpt>
<trkpt lat="45.8650270" lon="9.3232350">
	<ele>1217.00</ele>
	<time>2024-03-25T08:23:21.000Z</time>
</trkpt>
<trkpt lat="45.8650190" lon="9.3232430">
	<ele>1217.20</ele>
	<time>2024-03-25T08:23:22.000Z</time>
</trkpt>
<trkpt lat="45.8650060" lon="9.3232480">
	<ele>1217.20</ele>
	<time>2024-03-25T08:23:23.000Z</time>
</trkpt>
<trkpt lat="45.8649950" lon="9.3232630">
	<ele>1217.40</ele>
	<time>2024-03-25T08:23:24.000Z</time>
</trkpt>
<trkpt lat="45.8649870" lon="9.3232730">
	<ele>1217.40</ele>
	<time>2024-03-25T08:23:25.000Z</time>
</trkpt>
<trkpt lat="45.8649810" lon="9.3232880">
	<ele>1217.40</ele>
	<time>2024-03-25T08:23:26.000Z</time>
</trkpt>
<trkpt lat="45.8649760" lon="9.3233000">
	<ele>1217.60</ele>
	<time>2024-03-25T08:23:27.000Z</time>
</trkpt>
<trkpt lat="45.8649720" lon="9.3233140">
	<ele>1217.80</ele>
	<time>2024-03-25T08:23:28.000Z</time>
</trkpt>
<trkpt lat="45.8649660" lon="9.3233260">
	<ele>1217.80</ele>
	<time>2024-03-25T08:23:29.000Z</time>
</trkpt>
<trkpt lat="45.8649590" lon="9.3233350">
	<ele>1218.00</ele>
	<time>2024-03-25T08:23:30.000Z</time>
</trkpt>
<trkpt lat="45.8649520" lon="9.3233480">
	<ele>1218.00</ele>
	<time>2024-03-25T08:23:31.000Z</time>
</trkpt>
<trkpt lat="45.8649460" lon="9.3233590">
	<ele>1218.20</ele>
	<time>2024-03-25T08:23:32.000Z</time>
</trkpt>
<trkpt lat="45.8649420" lon="9.3233700">
	<ele>1218.20</ele>
	<time>2024-03-25T08:23:33.000Z</time>
</trkpt>
<trkpt lat="45.8649400" lon="9.3233830">
	<ele>1218.40</ele>
	<time>2024-03-25T08:23:34.000Z</time>
</trkpt>
<trkpt lat="45.8649380" lon="9.3233920">
	<ele>1218.40</ele>
	<time>2024-03-25T08:23:35.000Z</time>
</trkpt>
<trkpt lat="45.8649390" lon="9.3234070">
	<ele>1218.60</ele>
	<time>2024-03-25T08:23:36.000Z</time>
</trkpt>
<trkpt lat="45.8649370" lon="9.3234190">
	<ele>1218.80</ele>
	<time>2024-03-25T08:23:37.000Z</time>
</trkpt>
<trkpt lat="45.8649310" lon="9.3234300">
	<ele>1219.00</ele>
	<time>2024-03-25T08:23:38.000Z</time>
</trkpt>
<trkpt lat="45.8649290" lon="9.3234440">
	<ele>1219.00</ele>
	<time>2024-03-25T08:23:39.000Z</time>
</trkpt>
<trkpt lat="45.8649140" lon="9.3234490">
	<ele>1219.20</ele>
	<time>2024-03-25T08:23:40.000Z</time>
</trkpt>
<trkpt lat="45.8649070" lon="9.3234600">
	<ele>1219.20</ele>
	<time>2024-03-25T08:23:41.000Z</time>
</trkpt>
<trkpt lat="45.8648930" lon="9.3234650">
	<ele>1219.20</ele>
	<time>2024-03-25T08:23:42.000Z</time>
</trkpt>
<trkpt lat="45.8648830" lon="9.3234750">
	<ele>1219.20</ele>
	<time>2024-03-25T08:23:43.000Z</time>
</trkpt>
<trkpt lat="45.8648740" lon="9.3234820">
	<ele>1219.20</ele>
	<time>2024-03-25T08:23:44.000Z</time>
</trkpt>
<trkpt lat="45.8648680" lon="9.3234960">
	<ele>1219.40</ele>
	<time>2024-03-25T08:23:45.000Z</time>
</trkpt>
<trkpt lat="45.8648570" lon="9.3235040">
	<ele>1219.40</ele>
	<time>2024-03-25T08:23:46.000Z</time>
</trkpt>
<trkpt lat="45.8648490" lon="9.3235190">
	<ele>1219.40</ele>
	<time>2024-03-25T08:23:47.000Z</time>
</trkpt>
<trkpt lat="45.8648380" lon="9.3235270">
	<ele>1219.40</ele>
	<time>2024-03-25T08:23:48.000Z</time>
</trkpt>
<trkpt lat="45.8648300" lon="9.3235380">
	<ele>1219.60</ele>
	<time>2024-03-25T08:23:49.000Z</time>
</trkpt>
<trkpt lat="45.8648230" lon="9.3235510">
	<ele>1219.80</ele>
	<time>2024-03-25T08:23:50.000Z</time>
</trkpt>
<trkpt lat="45.8648210" lon="9.3235700">
	<ele>1219.80</ele>
	<time>2024-03-25T08:23:51.000Z</time>
</trkpt>
<trkpt lat="45.8648170" lon="9.3235820">
	<ele>1219.80</ele>
	<time>2024-03-25T08:23:52.000Z</time>
</trkpt>
<trkpt lat="45.8648030" lon="9.3235890">
	<ele>1220.00</ele>
	<time>2024-03-25T08:23:53.000Z</time>
</trkpt>
<trkpt lat="45.8647940" lon="9.3235940">
	<ele>1220.20</ele>
	<time>2024-03-25T08:23:54.000Z</time>
</trkpt>
<trkpt lat="45.8647860" lon="9.3235980">
	<ele>1220.40</ele>
	<time>2024-03-25T08:23:55.000Z</time>
</trkpt>
<trkpt lat="45.8647750" lon="9.3235990">
	<ele>1220.40</ele>
	<time>2024-03-25T08:23:56.000Z</time>
</trkpt>
<trkpt lat="45.8647680" lon="9.3236010">
	<ele>1220.80</ele>
	<time>2024-03-25T08:23:57.000Z</time>
</trkpt>
<trkpt lat="45.8647600" lon="9.3236000">
	<ele>1221.00</ele>
	<time>2024-03-25T08:23:58.000Z</time>
</trkpt>
<trkpt lat="45.8647560" lon="9.3235980">
	<ele>1221.00</ele>
	<time>2024-03-25T08:23:59.000Z</time>
</trkpt>
<trkpt lat="45.8647580" lon="9.3236070">
	<ele>1221.20</ele>
	<time>2024-03-25T08:24:00.000Z</time>
</trkpt>
<trkpt lat="45.8647580" lon="9.3236080">
	<ele>1221.20</ele>
	<time>2024-03-25T08:24:01.000Z</time>
</trkpt>
<trkpt lat="45.8647570" lon="9.3236090">
	<ele>1221.20</ele>
	<time>2024-03-25T08:24:02.000Z</time>
</trkpt>
<trkpt lat="45.8647570" lon="9.3236150">
	<ele>1221.20</ele>
	<time>2024-03-25T08:24:03.000Z</time>
</trkpt>
<trkpt lat="45.8647540" lon="9.3236150">
	<ele>1221.20</ele>
	<time>2024-03-25T08:24:04.000Z</time>
</trkpt>
<trkpt lat="45.8647500" lon="9.3236140">
	<ele>1221.20</ele>
	<time>2024-03-25T08:24:05.000Z</time>
</trkpt>
<trkpt lat="45.8647480" lon="9.3236150">
	<ele>1221.40</ele>
	<time>2024-03-25T08:24:06.000Z</time>
</trkpt>
<trkpt lat="45.8647500" lon="9.3236170">
	<ele>1221.40</ele>
	<time>2024-03-25T08:24:07.000Z</time>
</trkpt>
<trkpt lat="45.8647530" lon="9.3236190">
	<ele>1221.40</ele>
	<time>2024-03-25T08:24:08.000Z</time>
</trkpt>
<trkpt lat="45.8647560" lon="9.3236230">
	<ele>1221.60</ele>
	<time>2024-03-25T08:24:09.000Z</time>
</trkpt>
<trkpt lat="45.8647540" lon="9.3236300">
	<ele>1221.60</ele>
	<time>2024-03-25T08:24:10.000Z</time>
</trkpt>
<trkpt lat="45.8647530" lon="9.3236350">
	<ele>1221.60</ele>
	<time>2024-03-25T08:24:11.000Z</time>
</trkpt>
<trkpt lat="45.8647480" lon="9.3236320">
	<ele>1221.60</ele>
	<time>2024-03-25T08:24:12.000Z</time>
</trkpt>
<trkpt lat="45.8647440" lon="9.3236290">
	<ele>1221.60</ele>
	<time>2024-03-25T08:24:13.000Z</time>
</trkpt>
<trkpt lat="45.8647420" lon="9.3236320">
	<ele>1221.80</ele>
	<time>2024-03-25T08:24:14.000Z</time>
</trkpt>
<trkpt lat="45.8647330" lon="9.3236320">
	<ele>1222.00</ele>
	<time>2024-03-25T08:24:15.000Z</time>
</trkpt>
<trkpt lat="45.8647280" lon="9.3236360">
	<ele>1222.00</ele>
	<time>2024-03-25T08:24:16.000Z</time>
</trkpt>
<trkpt lat="45.8647260" lon="9.3236370">
	<ele>1222.40</ele>
	<time>2024-03-25T08:24:17.000Z</time>
</trkpt>
<trkpt lat="45.8647260" lon="9.3236410">
	<ele>1222.60</ele>
	<time>2024-03-25T08:24:18.000Z</time>
</trkpt>
<trkpt lat="45.8647240" lon="9.3236420">
	<ele>1222.80</ele>
	<time>2024-03-25T08:24:19.000Z</time>
</trkpt>
<trkpt lat="45.8647220" lon="9.3236460">
	<ele>1223.00</ele>
	<time>2024-03-25T08:24:20.000Z</time>
</trkpt>
<trkpt lat="45.8647200" lon="9.3236560">
	<ele>1223.20</ele>
	<time>2024-03-25T08:24:21.000Z</time>
</trkpt>
<trkpt lat="45.8647180" lon="9.3236640">
	<ele>1223.20</ele>
	<time>2024-03-25T08:24:22.000Z</time>
</trkpt>
<trkpt lat="45.8647150" lon="9.3236750">
	<ele>1223.40</ele>
	<time>2024-03-25T08:24:23.000Z</time>
</trkpt>
<trkpt lat="45.8647170" lon="9.3236840">
	<ele>1223.60</ele>
	<time>2024-03-25T08:24:24.000Z</time>
</trkpt>
<trkpt lat="45.8647060" lon="9.3236840">
	<ele>1224.00</ele>
	<time>2024-03-25T08:24:25.000Z</time>
</trkpt>
<trkpt lat="45.8647020" lon="9.3236880">
	<ele>1224.00</ele>
	<time>2024-03-25T08:24:26.000Z</time>
</trkpt>
<trkpt lat="45.8647000" lon="9.3236920">
	<ele>1224.20</ele>
	<time>2024-03-25T08:24:27.000Z</time>
</trkpt>
<trkpt lat="45.8646960" lon="9.3236980">
	<ele>1224.40</ele>
	<time>2024-03-25T08:24:28.000Z</time>
</trkpt>
<trkpt lat="45.8646960" lon="9.3237090">
	<ele>1224.40</ele>
	<time>2024-03-25T08:24:29.000Z</time>
</trkpt>
<trkpt lat="45.8647020" lon="9.3237210">
	<ele>1224.60</ele>
	<time>2024-03-25T08:24:30.000Z</time>
</trkpt>
<trkpt lat="45.8646970" lon="9.3237280">
	<ele>1224.80</ele>
	<time>2024-03-25T08:24:31.000Z</time>
</trkpt>
<trkpt lat="45.8646870" lon="9.3237320">
	<ele>1225.00</ele>
	<time>2024-03-25T08:24:32.000Z</time>
</trkpt>
<trkpt lat="45.8646770" lon="9.3237360">
	<ele>1225.20</ele>
	<time>2024-03-25T08:24:33.000Z</time>
</trkpt>
<trkpt lat="45.8646660" lon="9.3237320">
	<ele>1225.20</ele>
	<time>2024-03-25T08:24:34.000Z</time>
</trkpt>
<trkpt lat="45.8646610" lon="9.3237310">
	<ele>1225.60</ele>
	<time>2024-03-25T08:24:35.000Z</time>
</trkpt>
<trkpt lat="45.8646510" lon="9.3237310">
	<ele>1225.80</ele>
	<time>2024-03-25T08:24:36.000Z</time>
</trkpt>
<trkpt lat="45.8646460" lon="9.3237330">
	<ele>1226.00</ele>
	<time>2024-03-25T08:24:37.000Z</time>
</trkpt>
<trkpt lat="45.8646440" lon="9.3237390">
	<ele>1226.20</ele>
	<time>2024-03-25T08:24:38.000Z</time>
</trkpt>
<trkpt lat="45.8646330" lon="9.3237430">
	<ele>1226.60</ele>
	<time>2024-03-25T08:24:39.000Z</time>
</trkpt>
<trkpt lat="45.8646310" lon="9.3237540">
	<ele>1226.60</ele>
	<time>2024-03-25T08:24:40.000Z</time>
</trkpt>
<trkpt lat="45.8646310" lon="9.3237660">
	<ele>1226.80</ele>
	<time>2024-03-25T08:24:41.000Z</time>
</trkpt>
<trkpt lat="45.8646290" lon="9.3237750">
	<ele>1226.80</ele>
	<time>2024-03-25T08:24:42.000Z</time>
</trkpt>
<trkpt lat="45.8646260" lon="9.3237830">
	<ele>1227.00</ele>
	<time>2024-03-25T08:24:43.000Z</time>
</trkpt>
<trkpt lat="45.8646250" lon="9.3237920">
	<ele>1227.00</ele>
	<time>2024-03-25T08:24:44.000Z</time>
</trkpt>
<trkpt lat="45.8646210" lon="9.3238000">
	<ele>1227.20</ele>
	<time>2024-03-25T08:24:45.000Z</time>
</trkpt>
<trkpt lat="45.8646210" lon="9.3238080">
	<ele>1227.60</ele>
	<time>2024-03-25T08:24:46.000Z</time>
</trkpt>
<trkpt lat="45.8646220" lon="9.3238160">
	<ele>1227.80</ele>
	<time>2024-03-25T08:24:47.000Z</time>
</trkpt>
<trkpt lat="45.8646210" lon="9.3238220">
	<ele>1228.00</ele>
	<time>2024-03-25T08:24:48.000Z</time>
</trkpt>
<trkpt lat="45.8646170" lon="9.3238330">
	<ele>1228.40</ele>
	<time>2024-03-25T08:24:49.000Z</time>
</trkpt>
<trkpt lat="45.8646150" lon="9.3238450">
	<ele>1228.60</ele>
	<time>2024-03-25T08:24:50.000Z</time>
</trkpt>
<trkpt lat="45.8646080" lon="9.3238530">
	<ele>1228.80</ele>
	<time>2024-03-25T08:24:51.000Z</time>
</trkpt>
<trkpt lat="45.8646040" lon="9.3238610">
	<ele>1229.20</ele>
	<time>2024-03-25T08:24:52.000Z</time>
</trkpt>
<trkpt lat="45.8646060" lon="9.3238690">
	<ele>1229.40</ele>
	<time>2024-03-25T08:24:53.000Z</time>
</trkpt>
<trkpt lat="45.8646050" lon="9.3238740">
	<ele>1229.60</ele>
	<time>2024-03-25T08:24:54.000Z</time>
</trkpt>
<trkpt lat="45.8646040" lon="9.3238760">
	<ele>1229.80</ele>
	<time>2024-03-25T08:24:55.000Z</time>
</trkpt>
<trkpt lat="45.8645940" lon="9.3238760">
	<ele>1230.00</ele>
	<time>2024-03-25T08:24:56.000Z</time>
</trkpt>
<trkpt lat="45.8645840" lon="9.3238810">
	<ele>1230.20</ele>
	<time>2024-03-25T08:24:57.000Z</time>
</trkpt>
<trkpt lat="45.8645730" lon="9.3238870">
	<ele>1230.20</ele>
	<time>2024-03-25T08:24:58.000Z</time>
</trkpt>
<trkpt lat="45.8645680" lon="9.3238940">
	<ele>1230.40</ele>
	<time>2024-03-25T08:24:59.000Z</time>
</trkpt>
<trkpt lat="45.8645680" lon="9.3239040">
	<ele>1230.60</ele>
	<time>2024-03-25T08:25:00.000Z</time>
</trkpt>
<trkpt lat="45.8645670" lon="9.3239040">
	<ele>1230.60</ele>
	<time>2024-03-25T08:25:01.000Z</time>
</trkpt>
<trkpt lat="45.8645660" lon="9.3239050">
	<ele>1230.80</ele>
	<time>2024-03-25T08:25:02.000Z</time>
</trkpt>
<trkpt lat="45.8645640" lon="9.3239050">
	<ele>1230.80</ele>
	<time>2024-03-25T08:25:03.000Z</time>
</trkpt>
<trkpt lat="45.8645620" lon="9.3239050">
	<ele>1231.00</ele>
	<time>2024-03-25T08:25:04.000Z</time>
</trkpt>
<trkpt lat="45.8645620" lon="9.3239050">
	<ele>1231.20</ele>
	<time>2024-03-25T08:25:05.000Z</time>
</trkpt>
<trkpt lat="45.8645630" lon="9.3239080">
	<ele>1231.20</ele>
	<time>2024-03-25T08:25:06.000Z</time>
</trkpt>
<trkpt lat="45.8645650" lon="9.3239090">
	<ele>1231.40</ele>
	<time>2024-03-25T08:25:07.000Z</time>
</trkpt>
<trkpt lat="45.8645670" lon="9.3239100">
	<ele>1231.40</ele>
	<time>2024-03-25T08:25:08.000Z</time>
</trkpt>
<trkpt lat="45.8645670" lon="9.3239100">
	<ele>1231.40</ele>
	<time>2024-03-25T08:25:09.000Z</time>
</trkpt>
<trkpt lat="45.8645650" lon="9.3239090">
	<ele>1231.40</ele>
	<time>2024-03-25T08:25:10.000Z</time>
</trkpt>
<trkpt lat="45.8645630" lon="9.3239080">
	<ele>1231.60</ele>
	<time>2024-03-25T08:25:11.000Z</time>
</trkpt>
<trkpt lat="45.8645610" lon="9.3239060">
	<ele>1231.60</ele>
	<time>2024-03-25T08:25:12.000Z</time>
</trkpt>
<trkpt lat="45.8645600" lon="9.3239050">
	<ele>1231.60</ele>
	<time>2024-03-25T08:25:13.000Z</time>
</trkpt>
<trkpt lat="45.8645600" lon="9.3239050">
	<ele>1231.60</ele>
	<time>2024-03-25T08:25:14.000Z</time>
</trkpt>
<trkpt lat="45.8645600" lon="9.3239050">
	<ele>1231.80</ele>
	<time>2024-03-25T08:25:15.000Z</time>
</trkpt>
<trkpt lat="45.8645600" lon="9.3239050">
	<ele>1231.60</ele>
	<time>2024-03-25T08:25:16.000Z</time>
</trkpt>
<trkpt lat="45.8645600" lon="9.3239050">
	<ele>1231.40</ele>
	<time>2024-03-25T08:25:17.000Z</time>
</trkpt>
<trkpt lat="45.8645600" lon="9.3239050">
	<ele>1231.40</ele>
	<time>2024-03-25T08:25:18.000Z</time>
</trkpt>
<trkpt lat="45.8645600" lon="9.3239050">
	<ele>1231.40</ele>
	<time>2024-03-25T08:25:19.000Z</time>
</trkpt>
<trkpt lat="45.8645600" lon="9.3239050">
	<ele>1231.40</ele>
	<time>2024-03-25T08:25:20.000Z</time>
</trkpt>
<trkpt lat="45.8645610" lon="9.3239050">
	<ele>1231.40</ele>
	<time>2024-03-25T08:25:21.000Z</time>
</trkpt>
<trkpt lat="45.8645610" lon="9.3239050">
	<ele>1231.40</ele>
	<time>2024-03-25T08:25:22.000Z</time>
</trkpt>
<trkpt lat="45.8645610" lon="9.3239050">
	<ele>1231.40</ele>
	<time>2024-03-25T08:25:23.000Z</time>
</trkpt>
<trkpt lat="45.8645620" lon="9.3239050">
	<ele>1231.40</ele>
	<time>2024-03-25T08:25:24.000Z</time>
</trkpt>
<trkpt lat="45.8645630" lon="9.3239050">
	<ele>1231.60</ele>
	<time>2024-03-25T08:25:25.000Z</time>
</trkpt>
<trkpt lat="45.8645630" lon="9.3239050">
	<ele>1231.60</ele>
	<time>2024-03-25T08:25:26.000Z</time>
</trkpt>
<trkpt lat="45.8645630" lon="9.3239050">
	<ele>1231.60</ele>
	<time>2024-03-25T08:25:27.000Z</time>
</trkpt>
<trkpt lat="45.8645630" lon="9.3239050">
	<ele>1231.60</ele>
	<time>2024-03-25T08:25:28.000Z</time>
</trkpt>
<trkpt lat="45.8645650" lon="9.3239050">
	<ele>1231.40</ele>
	<time>2024-03-25T08:25:29.000Z</time>
</trkpt>
<trkpt lat="45.8645650" lon="9.3239050">
	<ele>1231.60</ele>
	<time>2024-03-25T08:25:30.000Z</time>
</trkpt>
<trkpt lat="45.8645660" lon="9.3239060">
	<ele>1231.60</ele>
	<time>2024-03-25T08:25:31.000Z</time>
</trkpt>
<trkpt lat="45.8645660" lon="9.3239060">
	<ele>1231.60</ele>
	<time>2024-03-25T08:25:32.000Z</time>
</trkpt>
<trkpt lat="45.8645660" lon="9.3239060">
	<ele>1231.60</ele>
	<time>2024-03-25T08:25:33.000Z</time>
</trkpt>
<trkpt lat="45.8645660" lon="9.3239060">
	<ele>1231.60</ele>
	<time>2024-03-25T08:25:34.000Z</time>
</trkpt>
<trkpt lat="45.8645670" lon="9.3239060">
	<ele>1231.60</ele>
	<time>2024-03-25T08:25:35.000Z</time>
</trkpt>
<trkpt lat="45.8645670" lon="9.3239060">
	<ele>1231.60</ele>
	<time>2024-03-25T08:25:36.000Z</time>
</trkpt>
<trkpt lat="45.8645670" lon="9.3239060">
	<ele>1231.80</ele>
	<time>2024-03-25T08:25:37.000Z</time>
</trkpt>
<trkpt lat="45.8645680" lon="9.3239060">
	<ele>1231.80</ele>
	<time>2024-03-25T08:25:38.000Z</time>
</trkpt>
<trkpt lat="45.8645680" lon="9.3239060">
	<ele>1231.80</ele>
	<time>2024-03-25T08:25:39.000Z</time>
</trkpt>
<trkpt lat="45.8645690" lon="9.3239060">
	<ele>1231.80</ele>
	<time>2024-03-25T08:25:40.000Z</time>
</trkpt>
<trkpt lat="45.8645690" lon="9.3239060">
	<ele>1231.80</ele>
	<time>2024-03-25T08:25:41.000Z</time>
</trkpt>
<trkpt lat="45.8645700" lon="9.3239070">
	<ele>1231.80</ele>
	<time>2024-03-25T08:25:42.000Z</time>
</trkpt>
<trkpt lat="45.8645720" lon="9.3239070">
	<ele>1231.80</ele>
	<time>2024-03-25T08:25:43.000Z</time>
</trkpt>
<trkpt lat="45.8645720" lon="9.3239080">
	<ele>1231.80</ele>
	<time>2024-03-25T08:25:44.000Z</time>
</trkpt>
<trkpt lat="45.8645720" lon="9.3239110">
	<ele>1231.60</ele>
	<time>2024-03-25T08:25:45.000Z</time>
</trkpt>
<trkpt lat="45.8645720" lon="9.3239160">
	<ele>1231.60</ele>
	<time>2024-03-25T08:25:46.000Z</time>
</trkpt>
<trkpt lat="45.8645720" lon="9.3239200">
	<ele>1231.60</ele>
	<time>2024-03-25T08:25:47.000Z</time>
</trkpt>
<trkpt lat="45.8645720" lon="9.3239220">
	<ele>1231.60</ele>
	<time>2024-03-25T08:25:48.000Z</time>
</trkpt>
<trkpt lat="45.8645720" lon="9.3239250">
	<ele>1231.80</ele>
	<time>2024-03-25T08:25:49.000Z</time>
</trkpt>
<trkpt lat="45.8645680" lon="9.3239320">
	<ele>1232.00</ele>
	<time>2024-03-25T08:25:50.000Z</time>
</trkpt>
<trkpt lat="45.8645610" lon="9.3239520">
	<ele>1232.00</ele>
	<time>2024-03-25T08:25:51.000Z</time>
</trkpt>
<trkpt lat="45.8645460" lon="9.3239750">
	<ele>1232.00</ele>
	<time>2024-03-25T08:25:52.000Z</time>
</trkpt>
<trkpt lat="45.8645310" lon="9.3239940">
	<ele>1232.00</ele>
	<time>2024-03-25T08:25:53.000Z</time>
</trkpt>
<trkpt lat="45.8645200" lon="9.3240200">
	<ele>1232.00</ele>
	<time>2024-03-25T08:25:54.000Z</time>
</trkpt>
<trkpt lat="45.8645080" lon="9.3240460">
	<ele>1232.00</ele>
	<time>2024-03-25T08:25:55.000Z</time>
</trkpt>
<trkpt lat="45.8644920" lon="9.3240660">
	<ele>1232.00</ele>
	<time>2024-03-25T08:25:56.000Z</time>
</trkpt>
<trkpt lat="45.8644840" lon="9.3240910">
	<ele>1232.00</ele>
	<time>2024-03-25T08:25:57.000Z</time>
</trkpt>
<trkpt lat="45.8644730" lon="9.3241100">
	<ele>1232.00</ele>
	<time>2024-03-25T08:25:58.000Z</time>
</trkpt>
<trkpt lat="45.8644610" lon="9.3241230">
	<ele>1232.00</ele>
	<time>2024-03-25T08:25:59.000Z</time>
</trkpt>
<trkpt lat="45.8644590" lon="9.3241320">
	<ele>1232.00</ele>
	<time>2024-03-25T08:26:00.000Z</time>
</trkpt>
<trkpt lat="45.8644570" lon="9.3241420">
	<ele>1232.00</ele>
	<time>2024-03-25T08:26:01.000Z</time>
</trkpt>
<trkpt lat="45.8644510" lon="9.3241520">
	<ele>1231.80</ele>
	<time>2024-03-25T08:26:02.000Z</time>
</trkpt>
<trkpt lat="45.8644350" lon="9.3241600">
	<ele>1231.60</ele>
	<time>2024-03-25T08:26:03.000Z</time>
</trkpt>
<trkpt lat="45.8644210" lon="9.3241700">
	<ele>1231.60</ele>
	<time>2024-03-25T08:26:04.000Z</time>
</trkpt>
<trkpt lat="45.8644170" lon="9.3241850">
	<ele>1231.20</ele>
	<time>2024-03-25T08:26:05.000Z</time>
</trkpt>
<trkpt lat="45.8644080" lon="9.3241950">
	<ele>1230.80</ele>
	<time>2024-03-25T08:26:06.000Z</time>
</trkpt>
<trkpt lat="45.8643970" lon="9.3242100">
	<ele>1230.60</ele>
	<time>2024-03-25T08:26:07.000Z</time>
</trkpt>
<trkpt lat="45.8643860" lon="9.3242210">
	<ele>1230.40</ele>
	<time>2024-03-25T08:26:08.000Z</time>
</trkpt>
<trkpt lat="45.8643860" lon="9.3242360">
	<ele>1230.20</ele>
	<time>2024-03-25T08:26:09.000Z</time>
</trkpt>
<trkpt lat="45.8643890" lon="9.3242550">
	<ele>1230.00</ele>
	<time>2024-03-25T08:26:10.000Z</time>
</trkpt>
<trkpt lat="45.8643880" lon="9.3242690">
	<ele>1229.80</ele>
	<time>2024-03-25T08:26:11.000Z</time>
</trkpt>
<trkpt lat="45.8643850" lon="9.3242820">
	<ele>1229.60</ele>
	<time>2024-03-25T08:26:12.000Z</time>
</trkpt>
<trkpt lat="45.8643800" lon="9.3242990">
	<ele>1229.20</ele>
	<time>2024-03-25T08:26:13.000Z</time>
</trkpt>
<trkpt lat="45.8643720" lon="9.3243180">
	<ele>1229.00</ele>
	<time>2024-03-25T08:26:14.000Z</time>
</trkpt>
<trkpt lat="45.8643660" lon="9.3243340">
	<ele>1228.60</ele>
	<time>2024-03-25T08:26:15.000Z</time>
</trkpt>
<trkpt lat="45.8643600" lon="9.3243610">
	<ele>1228.60</ele>
	<time>2024-03-25T08:26:16.000Z</time>
</trkpt>
<trkpt lat="45.8643500" lon="9.3243780">
	<ele>1228.40</ele>
	<time>2024-03-25T08:26:17.000Z</time>
</trkpt>
<trkpt lat="45.8643390" lon="9.3243910">
	<ele>1228.40</ele>
	<time>2024-03-25T08:26:18.000Z</time>
</trkpt>
<trkpt lat="45.8643280" lon="9.3244030">
	<ele>1228.20</ele>
	<time>2024-03-25T08:26:19.000Z</time>
</trkpt>
<trkpt lat="45.8643120" lon="9.3244120">
	<ele>1228.00</ele>
	<time>2024-03-25T08:26:20.000Z</time>
</trkpt>
<trkpt lat="45.8642990" lon="9.3244290">
	<ele>1228.00</ele>
	<time>2024-03-25T08:26:21.000Z</time>
</trkpt>
<trkpt lat="45.8642900" lon="9.3244500">
	<ele>1228.00</ele>
	<time>2024-03-25T08:26:22.000Z</time>
</trkpt>
<trkpt lat="45.8642810" lon="9.3244700">
	<ele>1227.80</ele>
	<time>2024-03-25T08:26:23.000Z</time>
</trkpt>
<trkpt lat="45.8642760" lon="9.3244880">
	<ele>1227.80</ele>
	<time>2024-03-25T08:26:24.000Z</time>
</trkpt>
<trkpt lat="45.8642700" lon="9.3245100">
	<ele>1227.80</ele>
	<time>2024-03-25T08:26:25.000Z</time>
</trkpt>
<trkpt lat="45.8642630" lon="9.3245330">
	<ele>1227.80</ele>
	<time>2024-03-25T08:26:26.000Z</time>
</trkpt>
<trkpt lat="45.8642640" lon="9.3245600">
	<ele>1227.60</ele>
	<time>2024-03-25T08:26:27.000Z</time>
</trkpt>
<trkpt lat="45.8642620" lon="9.3245760">
	<ele>1227.60</ele>
	<time>2024-03-25T08:26:28.000Z</time>
</trkpt>
<trkpt lat="45.8642600" lon="9.3245910">
	<ele>1227.60</ele>
	<time>2024-03-25T08:26:29.000Z</time>
</trkpt>
<trkpt lat="45.8642550" lon="9.3246020">
	<ele>1227.60</ele>
	<time>2024-03-25T08:26:30.000Z</time>
</trkpt>
<trkpt lat="45.8642540" lon="9.3246080">
	<ele>1227.40</ele>
	<time>2024-03-25T08:26:31.000Z</time>
</trkpt>
<trkpt lat="45.8642530" lon="9.3246170">
	<ele>1227.40</ele>
	<time>2024-03-25T08:26:32.000Z</time>
</trkpt>
<trkpt lat="45.8642530" lon="9.3246310">
	<ele>1227.40</ele>
	<time>2024-03-25T08:26:33.000Z</time>
</trkpt>
<trkpt lat="45.8642610" lon="9.3246420">
	<ele>1227.40</ele>
	<time>2024-03-25T08:26:34.000Z</time>
</trkpt>
<trkpt lat="45.8642740" lon="9.3246550">
	<ele>1227.40</ele>
	<time>2024-03-25T08:26:35.000Z</time>
</trkpt>
<trkpt lat="45.8642840" lon="9.3246820">
	<ele>1227.40</ele>
	<time>2024-03-25T08:26:36.000Z</time>
</trkpt>
<trkpt lat="45.8642850" lon="9.3247090">
	<ele>1227.40</ele>
	<time>2024-03-25T08:26:37.000Z</time>
</trkpt>
<trkpt lat="45.8642870" lon="9.3247300">
	<ele>1227.40</ele>
	<time>2024-03-25T08:26:38.000Z</time>
</trkpt>
<trkpt lat="45.8642930" lon="9.3247390">
	<ele>1227.40</ele>
	<time>2024-03-25T08:26:39.000Z</time>
</trkpt>
<trkpt lat="45.8642980" lon="9.3247520">
	<ele>1227.40</ele>
	<time>2024-03-25T08:26:40.000Z</time>
</trkpt>
<trkpt lat="45.8643000" lon="9.3247660">
	<ele>1227.40</ele>
	<time>2024-03-25T08:26:41.000Z</time>
</trkpt>
<trkpt lat="45.8643000" lon="9.3247780">
	<ele>1227.40</ele>
	<time>2024-03-25T08:26:42.000Z</time>
</trkpt>
<trkpt lat="45.8642990" lon="9.3247840">
	<ele>1227.40</ele>
	<time>2024-03-25T08:26:43.000Z</time>
</trkpt>
<trkpt lat="45.8643040" lon="9.3247860">
	<ele>1227.40</ele>
	<time>2024-03-25T08:26:44.000Z</time>
</trkpt>
<trkpt lat="45.8643060" lon="9.3247870">
	<ele>1227.20</ele>
	<time>2024-03-25T08:26:45.000Z</time>
</trkpt>
<trkpt lat="45.8643080" lon="9.3247890">
	<ele>1227.20</ele>
	<time>2024-03-25T08:26:46.000Z</time>
</trkpt>
<trkpt lat="45.8643160" lon="9.3248030">
	<ele>1227.20</ele>
	<time>2024-03-25T08:26:47.000Z</time>
</trkpt>
<trkpt lat="45.8643180" lon="9.3248180">
	<ele>1227.20</ele>
	<time>2024-03-25T08:26:48.000Z</time>
</trkpt>
<trkpt lat="45.8643170" lon="9.3248260">
	<ele>1227.20</ele>
	<time>2024-03-25T08:26:49.000Z</time>
</trkpt>
<trkpt lat="45.8643170" lon="9.3248350">
	<ele>1227.00</ele>
	<time>2024-03-25T08:26:50.000Z</time>
</trkpt>
<trkpt lat="45.8643150" lon="9.3248460">
	<ele>1227.00</ele>
	<time>2024-03-25T08:26:51.000Z</time>
</trkpt>
<trkpt lat="45.8643200" lon="9.3248660">
	<ele>1227.00</ele>
	<time>2024-03-25T08:26:52.000Z</time>
</trkpt>
<trkpt lat="45.8643240" lon="9.3248830">
	<ele>1226.80</ele>
	<time>2024-03-25T08:26:53.000Z</time>
</trkpt>
<trkpt lat="45.8643220" lon="9.3249000">
	<ele>1226.60</ele>
	<time>2024-03-25T08:26:54.000Z</time>
</trkpt>
<trkpt lat="45.8643120" lon="9.3249120">
	<ele>1226.60</ele>
	<time>2024-03-25T08:26:55.000Z</time>
</trkpt>
<trkpt lat="45.8643090" lon="9.3249260">
	<ele>1226.40</ele>
	<time>2024-03-25T08:26:56.000Z</time>
</trkpt>
<trkpt lat="45.8643040" lon="9.3249460">
	<ele>1226.40</ele>
	<time>2024-03-25T08:26:57.000Z</time>
</trkpt>
<trkpt lat="45.8643050" lon="9.3249660">
	<ele>1226.60</ele>
	<time>2024-03-25T08:26:58.000Z</time>
</trkpt>
<trkpt lat="45.8643090" lon="9.3249870">
	<ele>1226.60</ele>
	<time>2024-03-25T08:26:59.000Z</time>
</trkpt>
<trkpt lat="45.8643030" lon="9.3250030">
	<ele>1226.80</ele>
	<time>2024-03-25T08:27:00.000Z</time>
</trkpt>
<trkpt lat="45.8642940" lon="9.3250180">
	<ele>1227.00</ele>
	<time>2024-03-25T08:27:01.000Z</time>
</trkpt>
<trkpt lat="45.8642880" lon="9.3250370">
	<ele>1227.00</ele>
	<time>2024-03-25T08:27:02.000Z</time>
</trkpt>
<trkpt lat="45.8642850" lon="9.3250540">
	<ele>1227.20</ele>
	<time>2024-03-25T08:27:03.000Z</time>
</trkpt>
<trkpt lat="45.8642800" lon="9.3250710">
	<ele>1227.20</ele>
	<time>2024-03-25T08:27:04.000Z</time>
</trkpt>
<trkpt lat="45.8642800" lon="9.3250870">
	<ele>1227.40</ele>
	<time>2024-03-25T08:27:05.000Z</time>
</trkpt>
<trkpt lat="45.8642880" lon="9.3251110">
	<ele>1227.60</ele>
	<time>2024-03-25T08:27:06.000Z</time>
</trkpt>
<trkpt lat="45.8642880" lon="9.3251250">
	<ele>1227.80</ele>
	<time>2024-03-25T08:27:07.000Z</time>
</trkpt>
<trkpt lat="45.8642930" lon="9.3251430">
	<ele>1228.00</ele>
	<time>2024-03-25T08:27:08.000Z</time>
</trkpt>
<trkpt lat="45.8643050" lon="9.3251620">
	<ele>1228.20</ele>
	<time>2024-03-25T08:27:09.000Z</time>
</trkpt>
<trkpt lat="45.8643080" lon="9.3251810">
	<ele>1228.40</ele>
	<time>2024-03-25T08:27:10.000Z</time>
</trkpt>
<trkpt lat="45.8643060" lon="9.3251980">
	<ele>1228.60</ele>
	<time>2024-03-25T08:27:11.000Z</time>
</trkpt>
<trkpt lat="45.8643030" lon="9.3252180">
	<ele>1229.00</ele>
	<time>2024-03-25T08:27:12.000Z</time>
</trkpt>
<trkpt lat="45.8643040" lon="9.3252350">
	<ele>1229.20</ele>
	<time>2024-03-25T08:27:13.000Z</time>
</trkpt>
<trkpt lat="45.8643030" lon="9.3252520">
	<ele>1229.60</ele>
	<time>2024-03-25T08:27:14.000Z</time>
</trkpt>
<trkpt lat="45.8643040" lon="9.3252680">
	<ele>1229.80</ele>
	<time>2024-03-25T08:27:15.000Z</time>
</trkpt>
<trkpt lat="45.8642980" lon="9.3252820">
	<ele>1230.00</ele>
	<time>2024-03-25T08:27:16.000Z</time>
</trkpt>
<trkpt lat="45.8642880" lon="9.3252990">
	<ele>1230.00</ele>
	<time>2024-03-25T08:27:17.000Z</time>
</trkpt>
<trkpt lat="45.8642830" lon="9.3253210">
	<ele>1230.40</ele>
	<time>2024-03-25T08:27:18.000Z</time>
</trkpt>
<trkpt lat="45.8642790" lon="9.3253370">
	<ele>1230.60</ele>
	<time>2024-03-25T08:27:19.000Z</time>
</trkpt>
<trkpt lat="45.8642760" lon="9.3253510">
	<ele>1231.00</ele>
	<time>2024-03-25T08:27:20.000Z</time>
</trkpt>
<trkpt lat="45.8642740" lon="9.3253620">
	<ele>1231.00</ele>
	<time>2024-03-25T08:27:21.000Z</time>
</trkpt>
<trkpt lat="45.8642730" lon="9.3253710">
	<ele>1231.20</ele>
	<time>2024-03-25T08:27:22.000Z</time>
</trkpt>
<trkpt lat="45.8642730" lon="9.3253830">
	<ele>1231.40</ele>
	<time>2024-03-25T08:27:23.000Z</time>
</trkpt>
<trkpt lat="45.8642700" lon="9.3253970">
	<ele>1231.60</ele>
	<time>2024-03-25T08:27:24.000Z</time>
</trkpt>
<trkpt lat="45.8642680" lon="9.3254090">
	<ele>1231.80</ele>
	<time>2024-03-25T08:27:25.000Z</time>
</trkpt>
<trkpt lat="45.8642670" lon="9.3254230">
	<ele>1232.00</ele>
	<time>2024-03-25T08:27:26.000Z</time>
</trkpt>
<trkpt lat="45.8642640" lon="9.3254390">
	<ele>1232.20</ele>
	<time>2024-03-25T08:27:27.000Z</time>
</trkpt>
<trkpt lat="45.8642630" lon="9.3254520">
	<ele>1232.40</ele>
	<time>2024-03-25T08:27:28.000Z</time>
</trkpt>
<trkpt lat="45.8642650" lon="9.3254690">
	<ele>1232.60</ele>
	<time>2024-03-25T08:27:29.000Z</time>
</trkpt>
<trkpt lat="45.8642680" lon="9.3254900">
	<ele>1232.60</ele>
	<time>2024-03-25T08:27:30.000Z</time>
</trkpt>
<trkpt lat="45.8642690" lon="9.3255020">
	<ele>1233.00</ele>
	<time>2024-03-25T08:27:31.000Z</time>
</trkpt>
<trkpt lat="45.8642730" lon="9.3255150">
	<ele>1233.20</ele>
	<time>2024-03-25T08:27:32.000Z</time>
</trkpt>
<trkpt lat="45.8642760" lon="9.3255300">
	<ele>1233.20</ele>
	<time>2024-03-25T08:27:33.000Z</time>
</trkpt>
<trkpt lat="45.8642810" lon="9.3255460">
	<ele>1233.40</ele>
	<time>2024-03-25T08:27:34.000Z</time>
</trkpt>
<trkpt lat="45.8642900" lon="9.3255670">
	<ele>1233.60</ele>
	<time>2024-03-25T08:27:35.000Z</time>
</trkpt>
<trkpt lat="45.8642930" lon="9.3255840">
	<ele>1233.60</ele>
	<time>2024-03-25T08:27:36.000Z</time>
</trkpt>
<trkpt lat="45.8642970" lon="9.3255990">
	<ele>1233.80</ele>
	<time>2024-03-25T08:27:37.000Z</time>
</trkpt>
<trkpt lat="45.8643000" lon="9.3256160">
	<ele>1233.80</ele>
	<time>2024-03-25T08:27:38.000Z</time>
</trkpt>
<trkpt lat="45.8643020" lon="9.3256310">
	<ele>1233.80</ele>
	<time>2024-03-25T08:27:39.000Z</time>
</trkpt>
<trkpt lat="45.8643070" lon="9.3256460">
	<ele>1234.00</ele>
	<time>2024-03-25T08:27:40.000Z</time>
</trkpt>
<trkpt lat="45.8643070" lon="9.3256620">
	<ele>1234.20</ele>
	<time>2024-03-25T08:27:41.000Z</time>
</trkpt>
<trkpt lat="45.8643100" lon="9.3256780">
	<ele>1234.20</ele>
	<time>2024-03-25T08:27:42.000Z</time>
</trkpt>
<trkpt lat="45.8643110" lon="9.3256930">
	<ele>1234.20</ele>
	<time>2024-03-25T08:27:43.000Z</time>
</trkpt>
<trkpt lat="45.8643080" lon="9.3257080">
	<ele>1234.40</ele>
	<time>2024-03-25T08:27:44.000Z</time>
</trkpt>
<trkpt lat="45.8643050" lon="9.3257200">
	<ele>1234.40</ele>
	<time>2024-03-25T08:27:45.000Z</time>
</trkpt>
<trkpt lat="45.8643030" lon="9.3257410">
	<ele>1234.60</ele>
	<time>2024-03-25T08:27:46.000Z</time>
</trkpt>
<trkpt lat="45.8643060" lon="9.3257590">
	<ele>1234.60</ele>
	<time>2024-03-25T08:27:47.000Z</time>
</trkpt>
<trkpt lat="45.8643080" lon="9.3257790">
	<ele>1234.80</ele>
	<time>2024-03-25T08:27:48.000Z</time>
</trkpt>
<trkpt lat="45.8643110" lon="9.3257990">
	<ele>1235.00</ele>
	<time>2024-03-25T08:27:49.000Z</time>
</trkpt>
<trkpt lat="45.8643170" lon="9.3258180">
	<ele>1235.00</ele>
	<time>2024-03-25T08:27:50.000Z</time>
</trkpt>
<trkpt lat="45.8643200" lon="9.3258280">
	<ele>1235.20</ele>
	<time>2024-03-25T08:27:51.000Z</time>
</trkpt>
<trkpt lat="45.8643220" lon="9.3258420">
	<ele>1235.20</ele>
	<time>2024-03-25T08:27:52.000Z</time>
</trkpt>
<trkpt lat="45.8643190" lon="9.3258590">
	<ele>1235.20</ele>
	<time>2024-03-25T08:27:53.000Z</time>
</trkpt>
<trkpt lat="45.8643170" lon="9.3258760">
	<ele>1235.40</ele>
	<time>2024-03-25T08:27:54.000Z</time>
</trkpt>
<trkpt lat="45.8643150" lon="9.3258920">
	<ele>1235.60</ele>
	<time>2024-03-25T08:27:55.000Z</time>
</trkpt>
<trkpt lat="45.8643150" lon="9.3259040">
	<ele>1235.60</ele>
	<time>2024-03-25T08:27:56.000Z</time>
</trkpt>
<trkpt lat="45.8643120" lon="9.3259120">
	<ele>1235.60</ele>
	<time>2024-03-25T08:27:57.000Z</time>
</trkpt>
<trkpt lat="45.8643100" lon="9.3259240">
	<ele>1235.80</ele>
	<time>2024-03-25T08:27:58.000Z</time>
</trkpt>
<trkpt lat="45.8643110" lon="9.3259440">
	<ele>1236.00</ele>
	<time>2024-03-25T08:27:59.000Z</time>
</trkpt>
<trkpt lat="45.8643140" lon="9.3259630">
	<ele>1236.00</ele>
	<time>2024-03-25T08:28:00.000Z</time>
</trkpt>
<trkpt lat="45.8643190" lon="9.3259800">
	<ele>1236.20</ele>
	<time>2024-03-25T08:28:01.000Z</time>
</trkpt>
<trkpt lat="45.8643240" lon="9.3259960">
	<ele>1236.20</ele>
	<time>2024-03-25T08:28:02.000Z</time>
</trkpt>
<trkpt lat="45.8643290" lon="9.3260150">
	<ele>1236.20</ele>
	<time>2024-03-25T08:28:03.000Z</time>
</trkpt>
<trkpt lat="45.8643300" lon="9.3260330">
	<ele>1236.20</ele>
	<time>2024-03-25T08:28:04.000Z</time>
</trkpt>
<trkpt lat="45.8643300" lon="9.3260500">
	<ele>1236.40</ele>
	<time>2024-03-25T08:28:05.000Z</time>
</trkpt>
<trkpt lat="45.8643290" lon="9.3260630">
	<ele>1236.40</ele>
	<time>2024-03-25T08:28:06.000Z</time>
</trkpt>
<trkpt lat="45.8643290" lon="9.3260780">
	<ele>1236.40</ele>
	<time>2024-03-25T08:28:07.000Z</time>
</trkpt>
<trkpt lat="45.8643330" lon="9.3260940">
	<ele>1236.40</ele>
	<time>2024-03-25T08:28:08.000Z</time>
</trkpt>
<trkpt lat="45.8643390" lon="9.3261110">
	<ele>1236.40</ele>
	<time>2024-03-25T08:28:09.000Z</time>
</trkpt>
<trkpt lat="45.8643450" lon="9.3261270">
	<ele>1236.40</ele>
	<time>2024-03-25T08:28:10.000Z</time>
</trkpt>
<trkpt lat="45.8643490" lon="9.3261390">
	<ele>1236.40</ele>
	<time>2024-03-25T08:28:11.000Z</time>
</trkpt>
<trkpt lat="45.8643520" lon="9.3261500">
	<ele>1236.40</ele>
	<time>2024-03-25T08:28:12.000Z</time>
</trkpt>
<trkpt lat="45.8643560" lon="9.3261610">
	<ele>1236.40</ele>
	<time>2024-03-25T08:28:13.000Z</time>
</trkpt>
<trkpt lat="45.8643610" lon="9.3261730">
	<ele>1236.40</ele>
	<time>2024-03-25T08:28:14.000Z</time>
</trkpt>
<trkpt lat="45.8643640" lon="9.3261850">
	<ele>1236.60</ele>
	<time>2024-03-25T08:28:15.000Z</time>
</trkpt>
<trkpt lat="45.8643670" lon="9.3261960">
	<ele>1236.60</ele>
	<time>2024-03-25T08:28:16.000Z</time>
</trkpt>
<trkpt lat="45.8643720" lon="9.3262080">
	<ele>1236.60</ele>
	<time>2024-03-25T08:28:17.000Z</time>
</trkpt>
<trkpt lat="45.8643740" lon="9.3262150">
	<ele>1236.60</ele>
	<time>2024-03-25T08:28:18.000Z</time>
</trkpt>
<trkpt lat="45.8643760" lon="9.3262190">
	<ele>1236.80</ele>
	<time>2024-03-25T08:28:19.000Z</time>
</trkpt>
<trkpt lat="45.8643770" lon="9.3262180">
	<ele>1236.80</ele>
	<time>2024-03-25T08:28:20.000Z</time>
</trkpt>
<trkpt lat="45.8643780" lon="9.3262160">
	<ele>1237.00</ele>
	<time>2024-03-25T08:28:21.000Z</time>
</trkpt>
<trkpt lat="45.8643770" lon="9.3262140">
	<ele>1237.00</ele>
	<time>2024-03-25T08:28:22.000Z</time>
</trkpt>
<trkpt lat="45.8643780" lon="9.3262140">
	<ele>1237.20</ele>
	<time>2024-03-25T08:28:23.000Z</time>
</trkpt>
<trkpt lat="45.8643800" lon="9.3262130">
	<ele>1237.20</ele>
	<time>2024-03-25T08:28:24.000Z</time>
</trkpt>
<trkpt lat="45.8643790" lon="9.3262110">
	<ele>1237.20</ele>
	<time>2024-03-25T08:28:25.000Z</time>
</trkpt>
<trkpt lat="45.8643800" lon="9.3262110">
	<ele>1237.20</ele>
	<time>2024-03-25T08:28:26.000Z</time>
</trkpt>
<trkpt lat="45.8643820" lon="9.3262110">
	<ele>1237.20</ele>
	<time>2024-03-25T08:28:27.000Z</time>
</trkpt>
<trkpt lat="45.8643820" lon="9.3262110">
	<ele>1237.20</ele>
	<time>2024-03-25T08:28:28.000Z</time>
</trkpt>
<trkpt lat="45.8643820" lon="9.3262110">
	<ele>1237.20</ele>
	<time>2024-03-25T08:28:29.000Z</time>
</trkpt>
<trkpt lat="45.8643820" lon="9.3262110">
	<ele>1237.20</ele>
	<time>2024-03-25T08:28:30.000Z</time>
</trkpt>
<trkpt lat="45.8643820" lon="9.3262110">
	<ele>1237.20</ele>
	<time>2024-03-25T08:28:31.000Z</time>
</trkpt>
<trkpt lat="45.8643820" lon="9.3262110">
	<ele>1237.00</ele>
	<time>2024-03-25T08:28:32.000Z</time>
</trkpt>
<trkpt lat="45.8643820" lon="9.3262110">
	<ele>1237.00</ele>
	<time>2024-03-25T08:28:33.000Z</time>
</trkpt>
<trkpt lat="45.8643820" lon="9.3262110">
	<ele>1237.00</ele>
	<time>2024-03-25T08:28:34.000Z</time>
</trkpt>
<trkpt lat="45.8643820" lon="9.3262110">
	<ele>1237.00</ele>
	<time>2024-03-25T08:28:35.000Z</time>
</trkpt>
<trkpt lat="45.8643820" lon="9.3262110">
	<ele>1237.00</ele>
	<time>2024-03-25T08:28:36.000Z</time>
</trkpt>
<trkpt lat="45.8643840" lon="9.3262150">
	<ele>1236.80</ele>
	<time>2024-03-25T08:28:37.000Z</time>
</trkpt>
<trkpt lat="45.8643910" lon="9.3262330">
	<ele>1236.80</ele>
	<time>2024-03-25T08:28:38.000Z</time>
</trkpt>
<trkpt lat="45.8643970" lon="9.3262550">
	<ele>1236.80</ele>
	<time>2024-03-25T08:28:39.000Z</time>
</trkpt>
<trkpt lat="45.8644120" lon="9.3262820">
	<ele>1236.80</ele>
	<time>2024-03-25T08:28:40.000Z</time>
</trkpt>
<trkpt lat="45.8644220" lon="9.3263070">
	<ele>1236.80</ele>
	<time>2024-03-25T08:28:41.000Z</time>
</trkpt>
<trkpt lat="45.8644340" lon="9.3263250">
	<ele>1236.60</ele>
	<time>2024-03-25T08:28:42.000Z</time>
</trkpt>
<trkpt lat="45.8644440" lon="9.3263500">
	<ele>1236.60</ele>
	<time>2024-03-25T08:28:43.000Z</time>
</trkpt>
<trkpt lat="45.8644460" lon="9.3263770">
	<ele>1236.40</ele>
	<time>2024-03-25T08:28:44.000Z</time>
</trkpt>
<trkpt lat="45.8644500" lon="9.3264010">
	<ele>1236.40</ele>
	<time>2024-03-25T08:28:45.000Z</time>
</trkpt>
<trkpt lat="45.8644520" lon="9.3264240">
	<ele>1236.40</ele>
	<time>2024-03-25T08:28:46.000Z</time>
</trkpt>
<trkpt lat="45.8644520" lon="9.3264410">
	<ele>1236.40</ele>
	<time>2024-03-25T08:28:47.000Z</time>
</trkpt>
<trkpt lat="45.8644480" lon="9.3264550">
	<ele>1236.20</ele>
	<time>2024-03-25T08:28:48.000Z</time>
</trkpt>
<trkpt lat="45.8644470" lon="9.3264720">
	<ele>1236.20</ele>
	<time>2024-03-25T08:28:49.000Z</time>
</trkpt>
<trkpt lat="45.8644460" lon="9.3264910">
	<ele>1236.20</ele>
	<time>2024-03-25T08:28:50.000Z</time>
</trkpt>
<trkpt lat="45.8644470" lon="9.3265110">
	<ele>1236.00</ele>
	<time>2024-03-25T08:28:51.000Z</time>
</trkpt>
<trkpt lat="45.8644510" lon="9.3265310">
	<ele>1236.00</ele>
	<time>2024-03-25T08:28:52.000Z</time>
</trkpt>
<trkpt lat="45.8644600" lon="9.3265420">
	<ele>1236.00</ele>
	<time>2024-03-25T08:28:53.000Z</time>
</trkpt>
<trkpt lat="45.8644670" lon="9.3265490">
	<ele>1236.00</ele>
	<time>2024-03-25T08:28:54.000Z</time>
</trkpt>
<trkpt lat="45.8644700" lon="9.3265690">
	<ele>1236.00</ele>
	<time>2024-03-25T08:28:55.000Z</time>
</trkpt>
<trkpt lat="45.8644680" lon="9.3265860">
	<ele>1236.20</ele>
	<time>2024-03-25T08:28:56.000Z</time>
</trkpt>
<trkpt lat="45.8644660" lon="9.3265990">
	<ele>1236.20</ele>
	<time>2024-03-25T08:28:57.000Z</time>
</trkpt>
<trkpt lat="45.8644670" lon="9.3266160">
	<ele>1236.20</ele>
	<time>2024-03-25T08:28:58.000Z</time>
</trkpt>
<trkpt lat="45.8644680" lon="9.3266380">
	<ele>1236.40</ele>
	<time>2024-03-25T08:28:59.000Z</time>
</trkpt>
<trkpt lat="45.8644700" lon="9.3266560">
	<ele>1236.40</ele>
	<time>2024-03-25T08:29:00.000Z</time>
</trkpt>
<trkpt lat="45.8644620" lon="9.3266760">
	<ele>1236.60</ele>
	<time>2024-03-25T08:29:01.000Z</time>
</trkpt>
<trkpt lat="45.8644560" lon="9.3266970">
	<ele>1236.60</ele>
	<time>2024-03-25T08:29:02.000Z</time>
</trkpt>
<trkpt lat="45.8644550" lon="9.3267150">
	<ele>1236.80</ele>
	<time>2024-03-25T08:29:03.000Z</time>
</trkpt>
<trkpt lat="45.8644550" lon="9.3267330">
	<ele>1236.80</ele>
	<time>2024-03-25T08:29:04.000Z</time>
</trkpt>
<trkpt lat="45.8644530" lon="9.3267490">
	<ele>1236.80</ele>
	<time>2024-03-25T08:29:05.000Z</time>
</trkpt>
<trkpt lat="45.8644510" lon="9.3267650">
	<ele>1237.00</ele>
	<time>2024-03-25T08:29:06.000Z</time>
</trkpt>
<trkpt lat="45.8644480" lon="9.3267770">
	<ele>1237.00</ele>
	<time>2024-03-25T08:29:07.000Z</time>
</trkpt>
<trkpt lat="45.8644420" lon="9.3267920">
	<ele>1237.20</ele>
	<time>2024-03-25T08:29:08.000Z</time>
</trkpt>
<trkpt lat="45.8644420" lon="9.3268100">
	<ele>1237.40</ele>
	<time>2024-03-25T08:29:09.000Z</time>
</trkpt>
<trkpt lat="45.8644490" lon="9.3268280">
	<ele>1237.40</ele>
	<time>2024-03-25T08:29:10.000Z</time>
</trkpt>
<trkpt lat="45.8644520" lon="9.3268450">
	<ele>1237.40</ele>
	<time>2024-03-25T08:29:11.000Z</time>
</trkpt>
<trkpt lat="45.8644580" lon="9.3268600">
	<ele>1237.60</ele>
	<time>2024-03-25T08:29:12.000Z</time>
</trkpt>
<trkpt lat="45.8644640" lon="9.3268740">
	<ele>1237.80</ele>
	<time>2024-03-25T08:29:13.000Z</time>
</trkpt>
<trkpt lat="45.8644640" lon="9.3268950">
	<ele>1237.80</ele>
	<time>2024-03-25T08:29:14.000Z</time>
</trkpt>
<trkpt lat="45.8644580" lon="9.3269140">
	<ele>1238.00</ele>
	<time>2024-03-25T08:29:15.000Z</time>
</trkpt>
<trkpt lat="45.8644520" lon="9.3269290">
	<ele>1238.20</ele>
	<time>2024-03-25T08:29:16.000Z</time>
</trkpt>
<trkpt lat="45.8644460" lon="9.3269430">
	<ele>1238.40</ele>
	<time>2024-03-25T08:29:17.000Z</time>
</trkpt>
<trkpt lat="45.8644360" lon="9.3269580">
	<ele>1238.60</ele>
	<time>2024-03-25T08:29:18.000Z</time>
</trkpt>
<trkpt lat="45.8644320" lon="9.3269730">
	<ele>1238.80</ele>
	<time>2024-03-25T08:29:19.000Z</time>
</trkpt>
<trkpt lat="45.8644290" lon="9.3269840">
	<ele>1238.80</ele>
	<time>2024-03-25T08:29:20.000Z</time>
</trkpt>
<trkpt lat="45.8644260" lon="9.3269870">
	<ele>1239.20</ele>
	<time>2024-03-25T08:29:21.000Z</time>
</trkpt>
<trkpt lat="45.8644230" lon="9.3269860">
	<ele>1239.40</ele>
	<time>2024-03-25T08:29:22.000Z</time>
</trkpt>
<trkpt lat="45.8644210" lon="9.3269870">
	<ele>1239.40</ele>
	<time>2024-03-25T08:29:23.000Z</time>
</trkpt>
<trkpt lat="45.8644220" lon="9.3269870">
	<ele>1239.60</ele>
	<time>2024-03-25T08:29:24.000Z</time>
</trkpt>
<trkpt lat="45.8644230" lon="9.3269870">
	<ele>1239.80</ele>
	<time>2024-03-25T08:29:25.000Z</time>
</trkpt>
<trkpt lat="45.8644240" lon="9.3269870">
	<ele>1240.00</ele>
	<time>2024-03-25T08:29:26.000Z</time>
</trkpt>
<trkpt lat="45.8644220" lon="9.3269900">
	<ele>1240.00</ele>
	<time>2024-03-25T08:29:27.000Z</time>
</trkpt>
<trkpt lat="45.8644220" lon="9.3270000">
	<ele>1240.00</ele>
	<time>2024-03-25T08:29:28.000Z</time>
</trkpt>
<trkpt lat="45.8644160" lon="9.3270090">
	<ele>1240.00</ele>
	<time>2024-03-25T08:29:29.000Z</time>
</trkpt>
<trkpt lat="45.8644070" lon="9.3270230">
	<ele>1240.00</ele>
	<time>2024-03-25T08:29:30.000Z</time>
</trkpt>
<trkpt lat="45.8644040" lon="9.3270380">
	<ele>1240.00</ele>
	<time>2024-03-25T08:29:31.000Z</time>
</trkpt>
<trkpt lat="45.8644030" lon="9.3270540">
	<ele>1240.00</ele>
	<time>2024-03-25T08:29:32.000Z</time>
</trkpt>
<trkpt lat="45.8643980" lon="9.3270720">
	<ele>1240.40</ele>
	<time>2024-03-25T08:29:33.000Z</time>
</trkpt>
<trkpt lat="45.8643970" lon="9.3270820">
	<ele>1240.40</ele>
	<time>2024-03-25T08:29:34.000Z</time>
</trkpt>
<trkpt lat="45.8643980" lon="9.3270890">
	<ele>1240.80</ele>
	<time>2024-03-25T08:29:35.000Z</time>
</trkpt>
<trkpt lat="45.8643990" lon="9.3271000">
	<ele>1241.00</ele>
	<time>2024-03-25T08:29:36.000Z</time>
</trkpt>
<trkpt lat="45.8644010" lon="9.3271120">
	<ele>1241.20</ele>
	<time>2024-03-25T08:29:37.000Z</time>
</trkpt>
<trkpt lat="45.8644090" lon="9.3271260">
	<ele>1241.40</ele>
	<time>2024-03-25T08:29:38.000Z</time>
</trkpt>
<trkpt lat="45.8644210" lon="9.3271340">
	<ele>1241.60</ele>
	<time>2024-03-25T08:29:39.000Z</time>
</trkpt>
<trkpt lat="45.8644350" lon="9.3271420">
	<ele>1241.60</ele>
	<time>2024-03-25T08:29:40.000Z</time>
</trkpt>
<trkpt lat="45.8644420" lon="9.3271470">
	<ele>1241.80</ele>
	<time>2024-03-25T08:29:41.000Z</time>
</trkpt>
<trkpt lat="45.8644490" lon="9.3271550">
	<ele>1242.00</ele>
	<time>2024-03-25T08:29:42.000Z</time>
</trkpt>
<trkpt lat="45.8644580" lon="9.3271620">
	<ele>1242.40</ele>
	<time>2024-03-25T08:29:43.000Z</time>
</trkpt>
<trkpt lat="45.8644680" lon="9.3271730">
	<ele>1242.60</ele>
	<time>2024-03-25T08:29:44.000Z</time>
</trkpt>
<trkpt lat="45.8644770" lon="9.3271820">
	<ele>1242.80</ele>
	<time>2024-03-25T08:29:45.000Z</time>
</trkpt>
<trkpt lat="45.8644870" lon="9.3271910">
	<ele>1243.00</ele>
	<time>2024-03-25T08:29:46.000Z</time>
</trkpt>
<trkpt lat="45.8644860" lon="9.3271980">
	<ele>1243.20</ele>
	<time>2024-03-25T08:29:47.000Z</time>
</trkpt>
<trkpt lat="45.8644810" lon="9.3272060">
	<ele>1243.40</ele>
	<time>2024-03-25T08:29:48.000Z</time>
</trkpt>
<trkpt lat="45.8644830" lon="9.3272170">
	<ele>1243.60</ele>
	<time>2024-03-25T08:29:49.000Z</time>
</trkpt>
<trkpt lat="45.8644970" lon="9.3272250">
	<ele>1243.80</ele>
	<time>2024-03-25T08:29:50.000Z</time>
</trkpt>
<trkpt lat="45.8645040" lon="9.3272320">
	<ele>1244.00</ele>
	<time>2024-03-25T08:29:51.000Z</time>
</trkpt>
<trkpt lat="45.8645050" lon="9.3272380">
	<ele>1244.20</ele>
	<time>2024-03-25T08:29:52.000Z</time>
</trkpt>
<trkpt lat="45.8645060" lon="9.3272420">
	<ele>1244.20</ele>
	<time>2024-03-25T08:29:53.000Z</time>
</trkpt>
<trkpt lat="45.8644990" lon="9.3272570">
	<ele>1244.60</ele>
	<time>2024-03-25T08:29:54.000Z</time>
</trkpt>
<trkpt lat="45.8644990" lon="9.3272650">
	<ele>1244.80</ele>
	<time>2024-03-25T08:29:55.000Z</time>
</trkpt>
<trkpt lat="45.8645060" lon="9.3272690">
	<ele>1244.80</ele>
	<time>2024-03-25T08:29:56.000Z</time>
</trkpt>
<trkpt lat="45.8645170" lon="9.3272750">
	<ele>1244.80</ele>
	<time>2024-03-25T08:29:57.000Z</time>
</trkpt>
<trkpt lat="45.8645370" lon="9.3272790">
	<ele>1245.00</ele>
	<time>2024-03-25T08:29:58.000Z</time>
</trkpt>
<trkpt lat="45.8645550" lon="9.3272840">
	<ele>1245.00</ele>
	<time>2024-03-25T08:29:59.000Z</time>
</trkpt>
<trkpt lat="45.8645700" lon="9.3272870">
	<ele>1245.20</ele>
	<time>2024-03-25T08:30:00.000Z</time>
</trkpt>
<trkpt lat="45.8645770" lon="9.3272880">
	<ele>1245.40</ele>
	<time>2024-03-25T08:30:01.000Z</time>
</trkpt>
<trkpt lat="45.8645820" lon="9.3272910">
	<ele>1245.60</ele>
	<time>2024-03-25T08:30:02.000Z</time>
</trkpt>
<trkpt lat="45.8645850" lon="9.3272930">
	<ele>1245.60</ele>
	<time>2024-03-25T08:30:03.000Z</time>
</trkpt>
<trkpt lat="45.8645900" lon="9.3272920">
	<ele>1245.80</ele>
	<time>2024-03-25T08:30:04.000Z</time>
</trkpt>
<trkpt lat="45.8646140" lon="9.3272960">
	<ele>1245.80</ele>
	<time>2024-03-25T08:30:05.000Z</time>
</trkpt>
<trkpt lat="45.8646250" lon="9.3273040">
	<ele>1245.80</ele>
	<time>2024-03-25T08:30:06.000Z</time>
</trkpt>
<trkpt lat="45.8646380" lon="9.3273150">
	<ele>1245.80</ele>
	<time>2024-03-25T08:30:07.000Z</time>
</trkpt>
<trkpt lat="45.8646490" lon="9.3273250">
	<ele>1245.80</ele>
	<time>2024-03-25T08:30:08.000Z</time>
</trkpt>
<trkpt lat="45.8646660" lon="9.3273380">
	<ele>1245.80</ele>
	<time>2024-03-25T08:30:09.000Z</time>
</trkpt>
<trkpt lat="45.8646910" lon="9.3273510">
	<ele>1245.80</ele>
	<time>2024-03-25T08:30:10.000Z</time>
</trkpt>
<trkpt lat="45.8647030" lon="9.3273640">
	<ele>1245.80</ele>
	<time>2024-03-25T08:30:11.000Z</time>
</trkpt>
<trkpt lat="45.8647020" lon="9.3273780">
	<ele>1246.00</ele>
	<time>2024-03-25T08:30:12.000Z</time>
</trkpt>
<trkpt lat="45.8646990" lon="9.3273930">
	<ele>1246.00</ele>
	<time>2024-03-25T08:30:13.000Z</time>
</trkpt>
<trkpt lat="45.8646940" lon="9.3274120">
	<ele>1246.00</ele>
	<time>2024-03-25T08:30:14.000Z</time>
</trkpt>
<trkpt lat="45.8646790" lon="9.3274350">
	<ele>1246.00</ele>
	<time>2024-03-25T08:30:15.000Z</time>
</trkpt>
<trkpt lat="45.8646600" lon="9.3274590">
	<ele>1246.20</ele>
	<time>2024-03-25T08:30:16.000Z</time>
</trkpt>
<trkpt lat="45.8646450" lon="9.3274780">
	<ele>1246.40</ele>
	<time>2024-03-25T08:30:17.000Z</time>
</trkpt>
<trkpt lat="45.8646440" lon="9.3274930">
	<ele>1246.60</ele>
	<time>2024-03-25T08:30:18.000Z</time>
</trkpt>
<trkpt lat="45.8646320" lon="9.3275060">
	<ele>1246.60</ele>
	<time>2024-03-25T08:30:19.000Z</time>
</trkpt>
<trkpt lat="45.8646200" lon="9.3275210">
	<ele>1246.80</ele>
	<time>2024-03-25T08:30:20.000Z</time>
</trkpt>
<trkpt lat="45.8646110" lon="9.3275370">
	<ele>1246.80</ele>
	<time>2024-03-25T08:30:21.000Z</time>
</trkpt>
<trkpt lat="45.8646010" lon="9.3275470">
	<ele>1246.80</ele>
	<time>2024-03-25T08:30:22.000Z</time>
</trkpt>
<trkpt lat="45.8645820" lon="9.3275450">
	<ele>1247.00</ele>
	<time>2024-03-25T08:30:23.000Z</time>
</trkpt>
<trkpt lat="45.8645620" lon="9.3275480">
	<ele>1247.20</ele>
	<time>2024-03-25T08:30:24.000Z</time>
</trkpt>
<trkpt lat="45.8645450" lon="9.3275520">
	<ele>1247.40</ele>
	<time>2024-03-25T08:30:25.000Z</time>
</trkpt>
<trkpt lat="45.8645310" lon="9.3275590">
	<ele>1247.40</ele>
	<time>2024-03-25T08:30:26.000Z</time>
</trkpt>
<trkpt lat="45.8645280" lon="9.3275630">
	<ele>1247.60</ele>
	<time>2024-03-25T08:30:27.000Z</time>
</trkpt>
<trkpt lat="45.8645270" lon="9.3275650">
	<ele>1247.80</ele>
	<time>2024-03-25T08:30:28.000Z</time>
</trkpt>
<trkpt lat="45.8645280" lon="9.3275650">
	<ele>1248.00</ele>
	<time>2024-03-25T08:30:29.000Z</time>
</trkpt>
<trkpt lat="45.8645270" lon="9.3275660">
	<ele>1248.00</ele>
	<time>2024-03-25T08:30:30.000Z</time>
</trkpt>
<trkpt lat="45.8645250" lon="9.3275650">
	<ele>1248.00</ele>
	<time>2024-03-25T08:30:31.000Z</time>
</trkpt>
<trkpt lat="45.8645240" lon="9.3275650">
	<ele>1248.00</ele>
	<time>2024-03-25T08:30:32.000Z</time>
</trkpt>
<trkpt lat="45.8645230" lon="9.3275640">
	<ele>1248.00</ele>
	<time>2024-03-25T08:30:33.000Z</time>
</trkpt>
<trkpt lat="45.8645230" lon="9.3275630">
	<ele>1248.00</ele>
	<time>2024-03-25T08:30:34.000Z</time>
</trkpt>
<trkpt lat="45.8645240" lon="9.3275620">
	<ele>1248.00</ele>
	<time>2024-03-25T08:30:35.000Z</time>
</trkpt>
<trkpt lat="45.8645230" lon="9.3275620">
	<ele>1248.00</ele>
	<time>2024-03-25T08:30:36.000Z</time>
</trkpt>
<trkpt lat="45.8645220" lon="9.3275620">
	<ele>1248.00</ele>
	<time>2024-03-25T08:30:37.000Z</time>
</trkpt>
<trkpt lat="45.8645220" lon="9.3275620">
	<ele>1248.00</ele>
	<time>2024-03-25T08:30:38.000Z</time>
</trkpt>
<trkpt lat="45.8645210" lon="9.3275620">
	<ele>1248.00</ele>
	<time>2024-03-25T08:30:39.000Z</time>
</trkpt>
<trkpt lat="45.8645190" lon="9.3275640">
	<ele>1248.00</ele>
	<time>2024-03-25T08:30:40.000Z</time>
</trkpt>
<trkpt lat="45.8645060" lon="9.3275700">
	<ele>1248.00</ele>
	<time>2024-03-25T08:30:41.000Z</time>
</trkpt>
<trkpt lat="45.8645030" lon="9.3275710">
	<ele>1248.00</ele>
	<time>2024-03-25T08:30:42.000Z</time>
</trkpt>
<trkpt lat="45.8645000" lon="9.3275720">
	<ele>1248.00</ele>
	<time>2024-03-25T08:30:43.000Z</time>
</trkpt>
<trkpt lat="45.8644970" lon="9.3275720">
	<ele>1248.00</ele>
	<time>2024-03-25T08:30:44.000Z</time>
</trkpt>
<trkpt lat="45.8644960" lon="9.3275740">
	<ele>1248.00</ele>
	<time>2024-03-25T08:30:45.000Z</time>
</trkpt>
<trkpt lat="45.8644970" lon="9.3275760">
	<ele>1248.00</ele>
	<time>2024-03-25T08:30:46.000Z</time>
</trkpt>
<trkpt lat="45.8644950" lon="9.3275810">
	<ele>1247.80</ele>
	<time>2024-03-25T08:30:47.000Z</time>
</trkpt>
<trkpt lat="45.8644950" lon="9.3275820">
	<ele>1248.00</ele>
	<time>2024-03-25T08:30:48.000Z</time>
</trkpt>
<trkpt lat="45.8644960" lon="9.3275830">
	<ele>1248.00</ele>
	<time>2024-03-25T08:30:49.000Z</time>
</trkpt>
<trkpt lat="45.8644960" lon="9.3275830">
	<ele>1247.80</ele>
	<time>2024-03-25T08:30:50.000Z</time>
</trkpt>
<trkpt lat="45.8644960" lon="9.3275830">
	<ele>1247.80</ele>
	<time>2024-03-25T08:30:51.000Z</time>
</trkpt>
<trkpt lat="45.8644960" lon="9.3275830">
	<ele>1247.80</ele>
	<time>2024-03-25T08:30:52.000Z</time>
</trkpt>
<trkpt lat="45.8644960" lon="9.3275830">
	<ele>1247.80</ele>
	<time>2024-03-25T08:30:53.000Z</time>
</trkpt>
<trkpt lat="45.8644960" lon="9.3275830">
	<ele>1247.80</ele>
	<time>2024-03-25T08:30:54.000Z</time>
</trkpt>
<trkpt lat="45.8644960" lon="9.3275830">
	<ele>1247.80</ele>
	<time>2024-03-25T08:30:55.000Z</time>
</trkpt>
<trkpt lat="45.8644960" lon="9.3275830">
	<ele>1247.80</ele>
	<time>2024-03-25T08:30:56.000Z</time>
</trkpt>
<trkpt lat="45.8644960" lon="9.3275830">
	<ele>1247.80</ele>
	<time>2024-03-25T08:30:57.000Z</time>
</trkpt>
<trkpt lat="45.8644910" lon="9.3275880">
	<ele>1247.80</ele>
	<time>2024-03-25T08:30:58.000Z</time>
</trkpt>
<trkpt lat="45.8644860" lon="9.3275970">
	<ele>1247.80</ele>
	<time>2024-03-25T08:30:59.000Z</time>
</trkpt>
<trkpt lat="45.8644770" lon="9.3276100">
	<ele>1248.00</ele>
	<time>2024-03-25T08:31:00.000Z</time>
</trkpt>
<trkpt lat="45.8644720" lon="9.3276160">
	<ele>1248.00</ele>
	<time>2024-03-25T08:31:01.000Z</time>
</trkpt>
<trkpt lat="45.8644670" lon="9.3276220">
	<ele>1248.00</ele>
	<time>2024-03-25T08:31:02.000Z</time>
</trkpt>
<trkpt lat="45.8644610" lon="9.3276270">
	<ele>1248.00</ele>
	<time>2024-03-25T08:31:03.000Z</time>
</trkpt>
<trkpt lat="45.8644550" lon="9.3276320">
	<ele>1248.00</ele>
	<time>2024-03-25T08:31:04.000Z</time>
</trkpt>
<trkpt lat="45.8644510" lon="9.3276370">
	<ele>1248.00</ele>
	<time>2024-03-25T08:31:05.000Z</time>
</trkpt>
<trkpt lat="45.8644460" lon="9.3276420">
	<ele>1248.00</ele>
	<time>2024-03-25T08:31:06.000Z</time>
</trkpt>
<trkpt lat="45.8644430" lon="9.3276470">
	<ele>1248.00</ele>
	<time>2024-03-25T08:31:07.000Z</time>
</trkpt>
<trkpt lat="45.8644420" lon="9.3276460">
	<ele>1248.00</ele>
	<time>2024-03-25T08:31:08.000Z</time>
</trkpt>
<trkpt lat="45.8644400" lon="9.3276450">
	<ele>1248.00</ele>
	<time>2024-03-25T08:31:09.000Z</time>
</trkpt>
<trkpt lat="45.8644400" lon="9.3276440">
	<ele>1248.00</ele>
	<time>2024-03-25T08:31:10.000Z</time>
</trkpt>
<trkpt lat="45.8644390" lon="9.3276430">
	<ele>1248.00</ele>
	<time>2024-03-25T08:31:11.000Z</time>
</trkpt>
<trkpt lat="45.8644390" lon="9.3276430">
	<ele>1248.00</ele>
	<time>2024-03-25T08:31:12.000Z</time>
</trkpt>
<trkpt lat="45.8644390" lon="9.3276430">
	<ele>1248.00</ele>
	<time>2024-03-25T08:31:13.000Z</time>
</trkpt>
<trkpt lat="45.8644390" lon="9.3276430">
	<ele>1248.00</ele>
	<time>2024-03-25T08:31:14.000Z</time>
</trkpt>
<trkpt lat="45.8644390" lon="9.3276430">
	<ele>1248.00</ele>
	<time>2024-03-25T08:31:15.000Z</time>
</trkpt>
<trkpt lat="45.8644390" lon="9.3276430">
	<ele>1248.00</ele>
	<time>2024-03-25T08:31:16.000Z</time>
</trkpt>
<trkpt lat="45.8644390" lon="9.3276430">
	<ele>1248.00</ele>
	<time>2024-03-25T08:31:17.000Z</time>
</trkpt>
<trkpt lat="45.8644390" lon="9.3276430">
	<ele>1248.00</ele>
	<time>2024-03-25T08:31:18.000Z</time>
</trkpt>
<trkpt lat="45.8644400" lon="9.3276440">
	<ele>1248.00</ele>
	<time>2024-03-25T08:31:19.000Z</time>
</trkpt>
<trkpt lat="45.8644400" lon="9.3276440">
	<ele>1247.80</ele>
	<time>2024-03-25T08:31:20.000Z</time>
</trkpt>
<trkpt lat="45.8644400" lon="9.3276440">
	<ele>1247.60</ele>
	<time>2024-03-25T08:31:21.000Z</time>
</trkpt>
<trkpt lat="45.8644410" lon="9.3276440">
	<ele>1247.60</ele>
	<time>2024-03-25T08:31:22.000Z</time>
</trkpt>
<trkpt lat="45.8644410" lon="9.3276440">
	<ele>1247.40</ele>
	<time>2024-03-25T08:31:23.000Z</time>
</trkpt>
<trkpt lat="45.8644420" lon="9.3276440">
	<ele>1247.40</ele>
	<time>2024-03-25T08:31:24.000Z</time>
</trkpt>
<trkpt lat="45.8644420" lon="9.3276440">
	<ele>1247.40</ele>
	<time>2024-03-25T08:31:25.000Z</time>
</trkpt>
<trkpt lat="45.8644420" lon="9.3276440">
	<ele>1247.60</ele>
	<time>2024-03-25T08:31:26.000Z</time>
</trkpt>
<trkpt lat="45.8644420" lon="9.3276440">
	<ele>1247.60</ele>
	<time>2024-03-25T08:31:27.000Z</time>
</trkpt>
<trkpt lat="45.8644420" lon="9.3276440">
	<ele>1247.80</ele>
	<time>2024-03-25T08:31:28.000Z</time>
</trkpt>
<trkpt lat="45.8644430" lon="9.3276440">
	<ele>1247.80</ele>
	<time>2024-03-25T08:31:29.000Z</time>
</trkpt>
<trkpt lat="45.8644430" lon="9.3276440">
	<ele>1247.80</ele>
	<time>2024-03-25T08:31:30.000Z</time>
</trkpt>
<trkpt lat="45.8644440" lon="9.3276440">
	<ele>1247.80</ele>
	<time>2024-03-25T08:31:31.000Z</time>
</trkpt>
<trkpt lat="45.8644440" lon="9.3276440">
	<ele>1247.60</ele>
	<time>2024-03-25T08:31:32.000Z</time>
</trkpt>
<trkpt lat="45.8644460" lon="9.3276430">
	<ele>1247.60</ele>
	<time>2024-03-25T08:31:33.000Z</time>
</trkpt>
<trkpt lat="45.8644470" lon="9.3276420">
	<ele>1247.40</ele>
	<time>2024-03-25T08:31:34.000Z</time>
</trkpt>
<trkpt lat="45.8644500" lon="9.3276400">
	<ele>1247.40</ele>
	<time>2024-03-25T08:31:35.000Z</time>
</trkpt>
<trkpt lat="45.8644520" lon="9.3276400">
	<ele>1247.40</ele>
	<time>2024-03-25T08:31:36.000Z</time>
</trkpt>
<trkpt lat="45.8644520" lon="9.3276380">
	<ele>1247.60</ele>
	<time>2024-03-25T08:31:37.000Z</time>
</trkpt>
<trkpt lat="45.8644520" lon="9.3276360">
	<ele>1247.60</ele>
	<time>2024-03-25T08:31:38.000Z</time>
</trkpt>
<trkpt lat="45.8644520" lon="9.3276360">
	<ele>1247.60</ele>
	<time>2024-03-25T08:31:39.000Z</time>
</trkpt>
<trkpt lat="45.8644520" lon="9.3276360">
	<ele>1247.60</ele>
	<time>2024-03-25T08:31:40.000Z</time>
</trkpt>
<trkpt lat="45.8644520" lon="9.3276340">
	<ele>1247.60</ele>
	<time>2024-03-25T08:31:41.000Z</time>
</trkpt>
<trkpt lat="45.8644520" lon="9.3276330">
	<ele>1247.60</ele>
	<time>2024-03-25T08:31:42.000Z</time>
</trkpt>
<trkpt lat="45.8644520" lon="9.3276330">
	<ele>1247.60</ele>
	<time>2024-03-25T08:31:43.000Z</time>
</trkpt>
<trkpt lat="45.8644520" lon="9.3276310">
	<ele>1247.80</ele>
	<time>2024-03-25T08:31:44.000Z</time>
</trkpt>
<trkpt lat="45.8644520" lon="9.3276300">
	<ele>1247.80</ele>
	<time>2024-03-25T08:31:45.000Z</time>
</trkpt>
<trkpt lat="45.8644520" lon="9.3276290">
	<ele>1247.80</ele>
	<time>2024-03-25T08:31:46.000Z</time>
</trkpt>
<trkpt lat="45.8644520" lon="9.3276280">
	<ele>1247.80</ele>
	<time>2024-03-25T08:31:47.000Z</time>
</trkpt>
<trkpt lat="45.8644520" lon="9.3276280">
	<ele>1247.80</ele>
	<time>2024-03-25T08:31:48.000Z</time>
</trkpt>
<trkpt lat="45.8644530" lon="9.3276270">
	<ele>1247.60</ele>
	<time>2024-03-25T08:31:49.000Z</time>
</trkpt>
<trkpt lat="45.8644530" lon="9.3276270">
	<ele>1247.60</ele>
	<time>2024-03-25T08:31:50.000Z</time>
</trkpt>
<trkpt lat="45.8644520" lon="9.3276270">
	<ele>1247.60</ele>
	<time>2024-03-25T08:31:51.000Z</time>
</trkpt>
<trkpt lat="45.8644520" lon="9.3276270">
	<ele>1247.60</ele>
	<time>2024-03-25T08:31:52.000Z</time>
</trkpt>
<trkpt lat="45.8644520" lon="9.3276270">
	<ele>1247.40</ele>
	<time>2024-03-25T08:31:53.000Z</time>
</trkpt>
<trkpt lat="45.8644520" lon="9.3276270">
	<ele>1247.40</ele>
	<time>2024-03-25T08:31:54.000Z</time>
</trkpt>
<trkpt lat="45.8644520" lon="9.3276270">
	<ele>1247.40</ele>
	<time>2024-03-25T08:31:55.000Z</time>
</trkpt>
<trkpt lat="45.8644510" lon="9.3276270">
	<ele>1247.40</ele>
	<time>2024-03-25T08:31:56.000Z</time>
</trkpt>
<trkpt lat="45.8644510" lon="9.3276260">
	<ele>1247.40</ele>
	<time>2024-03-25T08:31:57.000Z</time>
</trkpt>
<trkpt lat="45.8644510" lon="9.3276260">
	<ele>1247.60</ele>
	<time>2024-03-25T08:31:58.000Z</time>
</trkpt>
<trkpt lat="45.8644510" lon="9.3276260">
	<ele>1247.60</ele>
	<time>2024-03-25T08:31:59.000Z</time>
</trkpt>
<trkpt lat="45.8644510" lon="9.3276260">
	<ele>1247.60</ele>
	<time>2024-03-25T08:32:00.000Z</time>
</trkpt>
<trkpt lat="45.8644510" lon="9.3276260">
	<ele>1247.60</ele>
	<time>2024-03-25T08:32:01.000Z</time>
</trkpt>
<trkpt lat="45.8644500" lon="9.3276250">
	<ele>1247.80</ele>
	<time>2024-03-25T08:32:02.000Z</time>
</trkpt>
<trkpt lat="45.8644500" lon="9.3276250">
	<ele>1247.80</ele>
	<time>2024-03-25T08:32:03.000Z</time>
</trkpt>
<trkpt lat="45.8644490" lon="9.3276250">
	<ele>1247.80</ele>
	<time>2024-03-25T08:32:04.000Z</time>
</trkpt>
<trkpt lat="45.8644470" lon="9.3276230">
	<ele>1247.80</ele>
	<time>2024-03-25T08:32:05.000Z</time>
</trkpt>
<trkpt lat="45.8644470" lon="9.3276220">
	<ele>1247.80</ele>
	<time>2024-03-25T08:32:06.000Z</time>
</trkpt>
<trkpt lat="45.8644460" lon="9.3276220">
	<ele>1247.80</ele>
	<time>2024-03-25T08:32:07.000Z</time>
</trkpt>
<trkpt lat="45.8644450" lon="9.3276220">
	<ele>1247.60</ele>
	<time>2024-03-25T08:32:08.000Z</time>
</trkpt>
<trkpt lat="45.8644440" lon="9.3276220">
	<ele>1247.60</ele>
	<time>2024-03-25T08:32:09.000Z</time>
</trkpt>
<trkpt lat="45.8644430" lon="9.3276220">
	<ele>1247.60</ele>
	<time>2024-03-25T08:32:10.000Z</time>
</trkpt>
<trkpt lat="45.8644360" lon="9.3276220">
	<ele>1247.60</ele>
	<time>2024-03-25T08:32:11.000Z</time>
</trkpt>
<trkpt lat="45.8644270" lon="9.3276220">
	<ele>1247.60</ele>
	<time>2024-03-25T08:32:12.000Z</time>
</trkpt>
<trkpt lat="45.8644230" lon="9.3276220">
	<ele>1247.60</ele>
	<time>2024-03-25T08:32:13.000Z</time>
</trkpt>
<trkpt lat="45.8644220" lon="9.3276220">
	<ele>1247.60</ele>
	<time>2024-03-25T08:32:14.000Z</time>
</trkpt>
<trkpt lat="45.8644210" lon="9.3276220">
	<ele>1247.60</ele>
	<time>2024-03-25T08:32:15.000Z</time>
</trkpt>
<trkpt lat="45.8644210" lon="9.3276220">
	<ele>1247.60</ele>
	<time>2024-03-25T08:32:16.000Z</time>
</trkpt>
<trkpt lat="45.8644210" lon="9.3276220">
	<ele>1247.80</ele>
	<time>2024-03-25T08:32:17.000Z</time>
</trkpt>
<trkpt lat="45.8644170" lon="9.3276220">
	<ele>1247.60</ele>
	<time>2024-03-25T08:32:18.000Z</time>
</trkpt>
<trkpt lat="45.8644070" lon="9.3276260">
	<ele>1247.60</ele>
	<time>2024-03-25T08:32:19.000Z</time>
</trkpt>
<trkpt lat="45.8644010" lon="9.3276270">
	<ele>1247.60</ele>
	<time>2024-03-25T08:32:20.000Z</time>
</trkpt>
<trkpt lat="45.8643950" lon="9.3276270">
	<ele>1247.60</ele>
	<time>2024-03-25T08:32:21.000Z</time>
</trkpt>
<trkpt lat="45.8643910" lon="9.3276270">
	<ele>1247.60</ele>
	<time>2024-03-25T08:32:22.000Z</time>
</trkpt>
<trkpt lat="45.8643860" lon="9.3276280">
	<ele>1247.60</ele>
	<time>2024-03-25T08:32:23.000Z</time>
</trkpt>
<trkpt lat="45.8643810" lon="9.3276280">
	<ele>1247.60</ele>
	<time>2024-03-25T08:32:24.000Z</time>
</trkpt>
<trkpt lat="45.8643770" lon="9.3276290">
	<ele>1247.60</ele>
	<time>2024-03-25T08:32:25.000Z</time>
</trkpt>
<trkpt lat="45.8643740" lon="9.3276300">
	<ele>1247.60</ele>
	<time>2024-03-25T08:32:26.000Z</time>
</trkpt>
<trkpt lat="45.8643700" lon="9.3276300">
	<ele>1247.60</ele>
	<time>2024-03-25T08:32:27.000Z</time>
</trkpt>
<trkpt lat="45.8643700" lon="9.3276300">
	<ele>1247.60</ele>
	<time>2024-03-25T08:32:28.000Z</time>
</trkpt>
<trkpt lat="45.8643690" lon="9.3276300">
	<ele>1247.60</ele>
	<time>2024-03-25T08:32:29.000Z</time>
</trkpt>
<trkpt lat="45.8643680" lon="9.3276290">
	<ele>1247.60</ele>
	<time>2024-03-25T08:32:30.000Z</time>
</trkpt>
<trkpt lat="45.8643660" lon="9.3276300">
	<ele>1247.60</ele>
	<time>2024-03-25T08:32:31.000Z</time>
</trkpt>
<trkpt lat="45.8643660" lon="9.3276300">
	<ele>1247.60</ele>
	<time>2024-03-25T08:32:32.000Z</time>
</trkpt>
<trkpt lat="45.8643660" lon="9.3276300">
	<ele>1247.60</ele>
	<time>2024-03-25T08:32:33.000Z</time>
</trkpt>
<trkpt lat="45.8643660" lon="9.3276300">
	<ele>1247.60</ele>
	<time>2024-03-25T08:32:34.000Z</time>
</trkpt>
<trkpt lat="45.8643660" lon="9.3276300">
	<ele>1247.60</ele>
	<time>2024-03-25T08:32:35.000Z</time>
</trkpt>
<trkpt lat="45.8643660" lon="9.3276300">
	<ele>1247.80</ele>
	<time>2024-03-25T08:32:36.000Z</time>
</trkpt>
<trkpt lat="45.8643660" lon="9.3276300">
	<ele>1247.80</ele>
	<time>2024-03-25T08:32:37.000Z</time>
</trkpt>
<trkpt lat="45.8643660" lon="9.3276300">
	<ele>1247.80</ele>
	<time>2024-03-25T08:32:38.000Z</time>
</trkpt>
<trkpt lat="45.8643660" lon="9.3276300">
	<ele>1247.80</ele>
	<time>2024-03-25T08:32:39.000Z</time>
</trkpt>
<trkpt lat="45.8643660" lon="9.3276300">
	<ele>1247.80</ele>
	<time>2024-03-25T08:32:40.000Z</time>
</trkpt>
<trkpt lat="45.8643660" lon="9.3276300">
	<ele>1247.80</ele>
	<time>2024-03-25T08:32:41.000Z</time>
</trkpt>
<trkpt lat="45.8643660" lon="9.3276300">
	<ele>1247.80</ele>
	<time>2024-03-25T08:32:42.000Z</time>
</trkpt>
<trkpt lat="45.8643660" lon="9.3276300">
	<ele>1247.80</ele>
	<time>2024-03-25T08:32:43.000Z</time>
</trkpt>
<trkpt lat="45.8643660" lon="9.3276300">
	<ele>1247.80</ele>
	<time>2024-03-25T08:32:44.000Z</time>
</trkpt>
<trkpt lat="45.8643660" lon="9.3276300">
	<ele>1247.80</ele>
	<time>2024-03-25T08:32:45.000Z</time>
</trkpt>
<trkpt lat="45.8643660" lon="9.3276300">
	<ele>1247.80</ele>
	<time>2024-03-25T08:32:46.000Z</time>
</trkpt>
<trkpt lat="45.8643660" lon="9.3276300">
	<ele>1247.80</ele>
	<time>2024-03-25T08:32:47.000Z</time>
</trkpt>
<trkpt lat="45.8643660" lon="9.3276300">
	<ele>1247.80</ele>
	<time>2024-03-25T08:32:48.000Z</time>
</trkpt>
<trkpt lat="45.8643650" lon="9.3276310">
	<ele>1247.80</ele>
	<time>2024-03-25T08:32:49.000Z</time>
</trkpt>
<trkpt lat="45.8643650" lon="9.3276310">
	<ele>1247.80</ele>
	<time>2024-03-25T08:32:50.000Z</time>
</trkpt>
<trkpt lat="45.8643640" lon="9.3276310">
	<ele>1247.80</ele>
	<time>2024-03-25T08:32:51.000Z</time>
</trkpt>
<trkpt lat="45.8643640" lon="9.3276310">
	<ele>1247.80</ele>
	<time>2024-03-25T08:32:52.000Z</time>
</trkpt>
<trkpt lat="45.8643630" lon="9.3276320">
	<ele>1247.80</ele>
	<time>2024-03-25T08:32:53.000Z</time>
</trkpt>
<trkpt lat="45.8643630" lon="9.3276320">
	<ele>1247.80</ele>
	<time>2024-03-25T08:32:54.000Z</time>
</trkpt>
<trkpt lat="45.8643600" lon="9.3276330">
	<ele>1247.80</ele>
	<time>2024-03-25T08:32:55.000Z</time>
</trkpt>
<trkpt lat="45.8643540" lon="9.3276340">
	<ele>1247.80</ele>
	<time>2024-03-25T08:32:56.000Z</time>
</trkpt>
<trkpt lat="45.8643440" lon="9.3276340">
	<ele>1247.80</ele>
	<time>2024-03-25T08:32:57.000Z</time>
</trkpt>
<trkpt lat="45.8643420" lon="9.3276350">
	<ele>1247.80</ele>
	<time>2024-03-25T08:32:58.000Z</time>
</trkpt>
<trkpt lat="45.8643340" lon="9.3276360">
	<ele>1247.80</ele>
	<time>2024-03-25T08:32:59.000Z</time>
</trkpt>
<trkpt lat="45.8643290" lon="9.3276360">
	<ele>1247.80</ele>
	<time>2024-03-25T08:33:00.000Z</time>
</trkpt>
<trkpt lat="45.8643260" lon="9.3276430">
	<ele>1247.80</ele>
	<time>2024-03-25T08:33:01.000Z</time>
</trkpt>
<trkpt lat="45.8643260" lon="9.3276450">
	<ele>1247.80</ele>
	<time>2024-03-25T08:33:02.000Z</time>
</trkpt>
<trkpt lat="45.8643260" lon="9.3276450">
	<ele>1247.80</ele>
	<time>2024-03-25T08:33:03.000Z</time>
</trkpt>
<trkpt lat="45.8643250" lon="9.3276460">
	<ele>1247.80</ele>
	<time>2024-03-25T08:33:04.000Z</time>
</trkpt>
<trkpt lat="45.8643240" lon="9.3276460">
	<ele>1247.80</ele>
	<time>2024-03-25T08:33:05.000Z</time>
</trkpt>
<trkpt lat="45.8643240" lon="9.3276460">
	<ele>1247.80</ele>
	<time>2024-03-25T08:33:06.000Z</time>
</trkpt>
<trkpt lat="45.8643240" lon="9.3276460">
	<ele>1247.80</ele>
	<time>2024-03-25T08:33:07.000Z</time>
</trkpt>
<trkpt lat="45.8643230" lon="9.3276460">
	<ele>1247.80</ele>
	<time>2024-03-25T08:33:08.000Z</time>
</trkpt>
<trkpt lat="45.8643220" lon="9.3276480">
	<ele>1247.80</ele>
	<time>2024-03-25T08:33:09.000Z</time>
</trkpt>
<trkpt lat="45.8643220" lon="9.3276490">
	<ele>1247.80</ele>
	<time>2024-03-25T08:33:10.000Z</time>
</trkpt>
<trkpt lat="45.8643220" lon="9.3276500">
	<ele>1247.80</ele>
	<time>2024-03-25T08:33:11.000Z</time>
</trkpt>
<trkpt lat="45.8643220" lon="9.3276510">
	<ele>1247.80</ele>
	<time>2024-03-25T08:33:12.000Z</time>
</trkpt>
<trkpt lat="45.8643220" lon="9.3276520">
	<ele>1248.00</ele>
	<time>2024-03-25T08:33:13.000Z</time>
</trkpt>
<trkpt lat="45.8643210" lon="9.3276520">
	<ele>1248.00</ele>
	<time>2024-03-25T08:33:14.000Z</time>
</trkpt>
<trkpt lat="45.8643210" lon="9.3276520">
	<ele>1248.00</ele>
	<time>2024-03-25T08:33:15.000Z</time>
</trkpt>
<trkpt lat="45.8643210" lon="9.3276520">
	<ele>1248.00</ele>
	<time>2024-03-25T08:33:16.000Z</time>
</trkpt>
<trkpt lat="45.8643210" lon="9.3276520">
	<ele>1248.00</ele>
	<time>2024-03-25T08:33:17.000Z</time>
</trkpt>
<trkpt lat="45.8643210" lon="9.3276530">
	<ele>1248.20</ele>
	<time>2024-03-25T08:33:18.000Z</time>
</trkpt>
<trkpt lat="45.8643210" lon="9.3276530">
	<ele>1248.20</ele>
	<time>2024-03-25T08:33:19.000Z</time>
</trkpt>
<trkpt lat="45.8643200" lon="9.3276530">
	<ele>1248.20</ele>
	<time>2024-03-25T08:33:20.000Z</time>
</trkpt>
<trkpt lat="45.8643200" lon="9.3276530">
	<ele>1248.20</ele>
	<time>2024-03-25T08:33:21.000Z</time>
</trkpt>
<trkpt lat="45.8643200" lon="9.3276530">
	<ele>1248.20</ele>
	<time>2024-03-25T08:33:22.000Z</time>
</trkpt>
<trkpt lat="45.8643190" lon="9.3276530">
	<ele>1248.20</ele>
	<time>2024-03-25T08:33:23.000Z</time>
</trkpt>
<trkpt lat="45.8643190" lon="9.3276530">
	<ele>1248.20</ele>
	<time>2024-03-25T08:33:24.000Z</time>
</trkpt>
<trkpt lat="45.8643190" lon="9.3276530">
	<ele>1248.20</ele>
	<time>2024-03-25T08:33:25.000Z</time>
</trkpt>
<trkpt lat="45.8643190" lon="9.3276530">
	<ele>1248.20</ele>
	<time>2024-03-25T08:33:26.000Z</time>
</trkpt>
<trkpt lat="45.8643190" lon="9.3276530">
	<ele>1248.20</ele>
	<time>2024-03-25T08:33:27.000Z</time>
</trkpt>
<trkpt lat="45.8643190" lon="9.3276530">
	<ele>1248.20</ele>
	<time>2024-03-25T08:33:28.000Z</time>
</trkpt>
<trkpt lat="45.8643190" lon="9.3276530">
	<ele>1248.20</ele>
	<time>2024-03-25T08:33:29.000Z</time>
</trkpt>
<trkpt lat="45.8643190" lon="9.3276530">
	<ele>1248.20</ele>
	<time>2024-03-25T08:33:30.000Z</time>
</trkpt>
<trkpt lat="45.8643190" lon="9.3276530">
	<ele>1248.20</ele>
	<time>2024-03-25T08:33:31.000Z</time>
</trkpt>
<trkpt lat="45.8643190" lon="9.3276530">
	<ele>1248.20</ele>
	<time>2024-03-25T08:33:32.000Z</time>
</trkpt>
<trkpt lat="45.8643190" lon="9.3276530">
	<ele>1248.20</ele>
	<time>2024-03-25T08:33:33.000Z</time>
</trkpt>
<trkpt lat="45.8643190" lon="9.3276530">
	<ele>1248.20</ele>
	<time>2024-03-25T08:33:34.000Z</time>
</trkpt>
<trkpt lat="45.8643180" lon="9.3276530">
	<ele>1248.20</ele>
	<time>2024-03-25T08:33:35.000Z</time>
</trkpt>
<trkpt lat="45.8643180" lon="9.3276530">
	<ele>1248.20</ele>
	<time>2024-03-25T08:33:36.000Z</time>
</trkpt>
<trkpt lat="45.8643180" lon="9.3276530">
	<ele>1248.20</ele>
	<time>2024-03-25T08:33:37.000Z</time>
</trkpt>
<trkpt lat="45.8643180" lon="9.3276530">
	<ele>1248.20</ele>
	<time>2024-03-25T08:33:38.000Z</time>
</trkpt>
<trkpt lat="45.8643170" lon="9.3276530">
	<ele>1248.20</ele>
	<time>2024-03-25T08:33:39.000Z</time>
</trkpt>
<trkpt lat="45.8643170" lon="9.3276530">
	<ele>1248.20</ele>
	<time>2024-03-25T08:33:40.000Z</time>
</trkpt>
<trkpt lat="45.8643170" lon="9.3276530">
	<ele>1248.20</ele>
	<time>2024-03-25T08:33:41.000Z</time>
</trkpt>
<trkpt lat="45.8643170" lon="9.3276530">
	<ele>1248.20</ele>
	<time>2024-03-25T08:33:42.000Z</time>
</trkpt>
<trkpt lat="45.8643170" lon="9.3276530">
	<ele>1248.20</ele>
	<time>2024-03-25T08:33:43.000Z</time>
</trkpt>
<trkpt lat="45.8643170" lon="9.3276530">
	<ele>1248.20</ele>
	<time>2024-03-25T08:33:44.000Z</time>
</trkpt>
<trkpt lat="45.8643170" lon="9.3276530">
	<ele>1248.20</ele>
	<time>2024-03-25T08:33:45.000Z</time>
</trkpt>
<trkpt lat="45.8643170" lon="9.3276530">
	<ele>1248.20</ele>
	<time>2024-03-25T08:33:46.000Z</time>
</trkpt>
<trkpt lat="45.8643170" lon="9.3276530">
	<ele>1248.20</ele>
	<time>2024-03-25T08:33:47.000Z</time>
</trkpt>
<trkpt lat="45.8643170" lon="9.3276530">
	<ele>1248.20</ele>
	<time>2024-03-25T08:33:48.000Z</time>
</trkpt>
<trkpt lat="45.8643170" lon="9.3276530">
	<ele>1248.20</ele>
	<time>2024-03-25T08:33:49.000Z</time>
</trkpt>
<trkpt lat="45.8643170" lon="9.3276530">
	<ele>1248.20</ele>
	<time>2024-03-25T08:33:50.000Z</time>
</trkpt>
<trkpt lat="45.8643170" lon="9.3276540">
	<ele>1248.20</ele>
	<time>2024-03-25T08:33:51.000Z</time>
</trkpt>
<trkpt lat="45.8643170" lon="9.3276540">
	<ele>1248.20</ele>
	<time>2024-03-25T08:33:52.000Z</time>
</trkpt>
<trkpt lat="45.8643170" lon="9.3276540">
	<ele>1248.20</ele>
	<time>2024-03-25T08:33:53.000Z</time>
</trkpt>
<trkpt lat="45.8643180" lon="9.3276550">
	<ele>1248.20</ele>
	<time>2024-03-25T08:33:54.000Z</time>
</trkpt>
<trkpt lat="45.8643180" lon="9.3276550">
	<ele>1248.20</ele>
	<time>2024-03-25T08:33:55.000Z</time>
</trkpt>
<trkpt lat="45.8643190" lon="9.3276550">
	<ele>1248.20</ele>
	<time>2024-03-25T08:33:56.000Z</time>
</trkpt>
<trkpt lat="45.8643190" lon="9.3276560">
	<ele>1248.20</ele>
	<time>2024-03-25T08:33:57.000Z</time>
</trkpt>
<trkpt lat="45.8643200" lon="9.3276560">
	<ele>1248.20</ele>
	<time>2024-03-25T08:33:58.000Z</time>
</trkpt>
<trkpt lat="45.8643200" lon="9.3276560">
	<ele>1248.20</ele>
	<time>2024-03-25T08:33:59.000Z</time>
</trkpt>
<trkpt lat="45.8643200" lon="9.3276560">
	<ele>1248.20</ele>
	<time>2024-03-25T08:34:00.000Z</time>
</trkpt>
<trkpt lat="45.8643210" lon="9.3276560">
	<ele>1248.20</ele>
	<time>2024-03-25T08:34:01.000Z</time>
</trkpt>
<trkpt lat="45.8643220" lon="9.3276560">
	<ele>1248.20</ele>
	<time>2024-03-25T08:34:02.000Z</time>
</trkpt>
<trkpt lat="45.8643240" lon="9.3276580">
	<ele>1248.20</ele>
	<time>2024-03-25T08:34:03.000Z</time>
</trkpt>
<trkpt lat="45.8643250" lon="9.3276590">
	<ele>1248.20</ele>
	<time>2024-03-25T08:34:04.000Z</time>
</trkpt>
<trkpt lat="45.8643260" lon="9.3276600">
	<ele>1248.20</ele>
	<time>2024-03-25T08:34:05.000Z</time>
</trkpt>
<trkpt lat="45.8643270" lon="9.3276610">
	<ele>1248.20</ele>
	<time>2024-03-25T08:34:06.000Z</time>
</trkpt>
<trkpt lat="45.8643270" lon="9.3276620">
	<ele>1248.20</ele>
	<time>2024-03-25T08:34:07.000Z</time>
</trkpt>
<trkpt lat="45.8643280" lon="9.3276630">
	<ele>1248.20</ele>
	<time>2024-03-25T08:34:08.000Z</time>
</trkpt>
<trkpt lat="45.8643280" lon="9.3276630">
	<ele>1248.20</ele>
	<time>2024-03-25T08:34:09.000Z</time>
</trkpt>
<trkpt lat="45.8643280" lon="9.3276640">
	<ele>1248.20</ele>
	<time>2024-03-25T08:34:10.000Z</time>
</trkpt>
<trkpt lat="45.8643280" lon="9.3276640">
	<ele>1248.20</ele>
	<time>2024-03-25T08:34:11.000Z</time>
</trkpt>
<trkpt lat="45.8643290" lon="9.3276640">
	<ele>1248.20</ele>
	<time>2024-03-25T08:34:12.000Z</time>
</trkpt>
<trkpt lat="45.8643290" lon="9.3276640">
	<ele>1248.20</ele>
	<time>2024-03-25T08:34:13.000Z</time>
</trkpt>
<trkpt lat="45.8643290" lon="9.3276640">
	<ele>1248.20</ele>
	<time>2024-03-25T08:34:14.000Z</time>
</trkpt>
<trkpt lat="45.8643290" lon="9.3276640">
	<ele>1248.20</ele>
	<time>2024-03-25T08:34:15.000Z</time>
</trkpt>
<trkpt lat="45.8643300" lon="9.3276640">
	<ele>1248.20</ele>
	<time>2024-03-25T08:34:16.000Z</time>
</trkpt>
<trkpt lat="45.8643300" lon="9.3276640">
	<ele>1248.20</ele>
	<time>2024-03-25T08:34:17.000Z</time>
</trkpt>
<trkpt lat="45.8643300" lon="9.3276640">
	<ele>1248.20</ele>
	<time>2024-03-25T08:34:18.000Z</time>
</trkpt>
<trkpt lat="45.8643300" lon="9.3276640">
	<ele>1248.20</ele>
	<time>2024-03-25T08:34:19.000Z</time>
</trkpt>
<trkpt lat="45.8643300" lon="9.3276640">
	<ele>1248.20</ele>
	<time>2024-03-25T08:34:20.000Z</time>
</trkpt>
<trkpt lat="45.8643310" lon="9.3276640">
	<ele>1248.20</ele>
	<time>2024-03-25T08:34:21.000Z</time>
</trkpt>
<trkpt lat="45.8643310" lon="9.3276640">
	<ele>1248.20</ele>
	<time>2024-03-25T08:34:22.000Z</time>
</trkpt>
<trkpt lat="45.8643310" lon="9.3276640">
	<ele>1248.20</ele>
	<time>2024-03-25T08:34:23.000Z</time>
</trkpt>
<trkpt lat="45.8643310" lon="9.3276640">
	<ele>1248.20</ele>
	<time>2024-03-25T08:34:24.000Z</time>
</trkpt>
<trkpt lat="45.8643310" lon="9.3276640">
	<ele>1248.20</ele>
	<time>2024-03-25T08:34:25.000Z</time>
</trkpt>
<trkpt lat="45.8643310" lon="9.3276640">
	<ele>1248.20</ele>
	<time>2024-03-25T08:34:26.000Z</time>
</trkpt>
<trkpt lat="45.8643310" lon="9.3276640">
	<ele>1248.20</ele>
	<time>2024-03-25T08:34:27.000Z</time>
</trkpt>
<trkpt lat="45.8643310" lon="9.3276640">
	<ele>1248.20</ele>
	<time>2024-03-25T08:34:28.000Z</time>
</trkpt>
<trkpt lat="45.8643310" lon="9.3276640">
	<ele>1248.20</ele>
	<time>2024-03-25T08:34:29.000Z</time>
</trkpt>
<trkpt lat="45.8643320" lon="9.3276640">
	<ele>1248.20</ele>
	<time>2024-03-25T08:34:30.000Z</time>
</trkpt>
<trkpt lat="45.8643320" lon="9.3276640">
	<ele>1248.20</ele>
	<time>2024-03-25T08:34:31.000Z</time>
</trkpt>
<trkpt lat="45.8643330" lon="9.3276640">
	<ele>1248.20</ele>
	<time>2024-03-25T08:34:32.000Z</time>
</trkpt>
<trkpt lat="45.8643330" lon="9.3276640">
	<ele>1248.20</ele>
	<time>2024-03-25T08:34:33.000Z</time>
</trkpt>
<trkpt lat="45.8643330" lon="9.3276630">
	<ele>1248.20</ele>
	<time>2024-03-25T08:34:34.000Z</time>
</trkpt>
<trkpt lat="45.8643330" lon="9.3276630">
	<ele>1248.20</ele>
	<time>2024-03-25T08:34:35.000Z</time>
</trkpt>
<trkpt lat="45.8643330" lon="9.3276630">
	<ele>1248.20</ele>
	<time>2024-03-25T08:34:36.000Z</time>
</trkpt>
<trkpt lat="45.8643330" lon="9.3276630">
	<ele>1248.20</ele>
	<time>2024-03-25T08:34:37.000Z</time>
</trkpt>
<trkpt lat="45.8643330" lon="9.3276630">
	<ele>1248.20</ele>
	<time>2024-03-25T08:34:38.000Z</time>
</trkpt>
<trkpt lat="45.8643330" lon="9.3276620">
	<ele>1248.20</ele>
	<time>2024-03-25T08:34:39.000Z</time>
</trkpt>
<trkpt lat="45.8643330" lon="9.3276620">
	<ele>1248.20</ele>
	<time>2024-03-25T08:34:40.000Z</time>
</trkpt>
<trkpt lat="45.8643330" lon="9.3276620">
	<ele>1248.20</ele>
	<time>2024-03-25T08:34:41.000Z</time>
</trkpt>
<trkpt lat="45.8643320" lon="9.3276610">
	<ele>1248.20</ele>
	<time>2024-03-25T08:34:42.000Z</time>
</trkpt>
<trkpt lat="45.8643320" lon="9.3276600">
	<ele>1248.20</ele>
	<time>2024-03-25T08:34:43.000Z</time>
</trkpt>
<trkpt lat="45.8643320" lon="9.3276600">
	<ele>1248.20</ele>
	<time>2024-03-25T08:34:44.000Z</time>
</trkpt>
<trkpt lat="45.8643310" lon="9.3276590">
	<ele>1248.20</ele>
	<time>2024-03-25T08:34:45.000Z</time>
</trkpt>
<trkpt lat="45.8643310" lon="9.3276590">
	<ele>1248.20</ele>
	<time>2024-03-25T08:34:46.000Z</time>
</trkpt>
<trkpt lat="45.8643310" lon="9.3276580">
	<ele>1248.20</ele>
	<time>2024-03-25T08:34:47.000Z</time>
</trkpt>
<trkpt lat="45.8643310" lon="9.3276580">
	<ele>1248.20</ele>
	<time>2024-03-25T08:34:48.000Z</time>
</trkpt>
<trkpt lat="45.8643300" lon="9.3276560">
	<ele>1248.20</ele>
	<time>2024-03-25T08:34:49.000Z</time>
</trkpt>
<trkpt lat="45.8643300" lon="9.3276550">
	<ele>1248.20</ele>
	<time>2024-03-25T08:34:50.000Z</time>
</trkpt>
<trkpt lat="45.8643300" lon="9.3276540">
	<ele>1248.20</ele>
	<time>2024-03-25T08:34:51.000Z</time>
</trkpt>
<trkpt lat="45.8643300" lon="9.3276540">
	<ele>1248.20</ele>
	<time>2024-03-25T08:34:52.000Z</time>
</trkpt>
<trkpt lat="45.8643300" lon="9.3276530">
	<ele>1248.20</ele>
	<time>2024-03-25T08:34:53.000Z</time>
</trkpt>
<trkpt lat="45.8643300" lon="9.3276530">
	<ele>1248.20</ele>
	<time>2024-03-25T08:34:54.000Z</time>
</trkpt>
<trkpt lat="45.8643300" lon="9.3276530">
	<ele>1248.20</ele>
	<time>2024-03-25T08:34:55.000Z</time>
</trkpt>
<trkpt lat="45.8643300" lon="9.3276530">
	<ele>1248.20</ele>
	<time>2024-03-25T08:34:56.000Z</time>
</trkpt>
<trkpt lat="45.8643300" lon="9.3276530">
	<ele>1248.20</ele>
	<time>2024-03-25T08:34:57.000Z</time>
</trkpt>
<trkpt lat="45.8643300" lon="9.3276530">
	<ele>1248.20</ele>
	<time>2024-03-25T08:34:58.000Z</time>
</trkpt>
<trkpt lat="45.8643300" lon="9.3276530">
	<ele>1248.20</ele>
	<time>2024-03-25T08:34:59.000Z</time>
</trkpt>
<trkpt lat="45.8643300" lon="9.3276530">
	<ele>1248.20</ele>
	<time>2024-03-25T08:35:00.000Z</time>
</trkpt>
<trkpt lat="45.8643300" lon="9.3276530">
	<ele>1248.20</ele>
	<time>2024-03-25T08:35:01.000Z</time>
</trkpt>
<trkpt lat="45.8643300" lon="9.3276530">
	<ele>1248.20</ele>
	<time>2024-03-25T08:35:02.000Z</time>
</trkpt>
<trkpt lat="45.8643300" lon="9.3276520">
	<ele>1248.20</ele>
	<time>2024-03-25T08:35:03.000Z</time>
</trkpt>
<trkpt lat="45.8643300" lon="9.3276530">
	<ele>1248.20</ele>
	<time>2024-03-25T08:35:04.000Z</time>
</trkpt>
<trkpt lat="45.8643300" lon="9.3276530">
	<ele>1248.20</ele>
	<time>2024-03-25T08:35:05.000Z</time>
</trkpt>
<trkpt lat="45.8643300" lon="9.3276530">
	<ele>1248.20</ele>
	<time>2024-03-25T08:35:06.000Z</time>
</trkpt>
<trkpt lat="45.8643300" lon="9.3276530">
	<ele>1248.20</ele>
	<time>2024-03-25T08:35:07.000Z</time>
</trkpt>
<trkpt lat="45.8643300" lon="9.3276530">
	<ele>1248.20</ele>
	<time>2024-03-25T08:35:08.000Z</time>
</trkpt>
<trkpt lat="45.8643300" lon="9.3276540">
	<ele>1248.20</ele>
	<time>2024-03-25T08:35:09.000Z</time>
</trkpt>
<trkpt lat="45.8643300" lon="9.3276540">
	<ele>1248.20</ele>
	<time>2024-03-25T08:35:10.000Z</time>
</trkpt>
<trkpt lat="45.8643300" lon="9.3276540">
	<ele>1248.20</ele>
	<time>2024-03-25T08:35:11.000Z</time>
</trkpt>
<trkpt lat="45.8643300" lon="9.3276550">
	<ele>1248.20</ele>
	<time>2024-03-25T08:35:12.000Z</time>
</trkpt>
<trkpt lat="45.8643310" lon="9.3276560">
	<ele>1248.20</ele>
	<time>2024-03-25T08:35:13.000Z</time>
</trkpt>
<trkpt lat="45.8643320" lon="9.3276560">
	<ele>1248.20</ele>
	<time>2024-03-25T08:35:14.000Z</time>
</trkpt>
<trkpt lat="45.8643320" lon="9.3276570">
	<ele>1248.20</ele>
	<time>2024-03-25T08:35:15.000Z</time>
</trkpt>
<trkpt lat="45.8643330" lon="9.3276570">
	<ele>1248.20</ele>
	<time>2024-03-25T08:35:16.000Z</time>
</trkpt>
<trkpt lat="45.8643330" lon="9.3276570">
	<ele>1248.20</ele>
	<time>2024-03-25T08:35:17.000Z</time>
</trkpt>
<trkpt lat="45.8643340" lon="9.3276570">
	<ele>1248.20</ele>
	<time>2024-03-25T08:35:18.000Z</time>
</trkpt>
<trkpt lat="45.8643340" lon="9.3276570">
	<ele>1248.20</ele>
	<time>2024-03-25T08:35:19.000Z</time>
</trkpt>
<trkpt lat="45.8643340" lon="9.3276580">
	<ele>1248.20</ele>
	<time>2024-03-25T08:35:20.000Z</time>
</trkpt>
<trkpt lat="45.8643340" lon="9.3276580">
	<ele>1248.20</ele>
	<time>2024-03-25T08:35:21.000Z</time>
</trkpt>
<trkpt lat="45.8643350" lon="9.3276580">
	<ele>1248.20</ele>
	<time>2024-03-25T08:35:22.000Z</time>
</trkpt>
<trkpt lat="45.8643350" lon="9.3276580">
	<ele>1248.20</ele>
	<time>2024-03-25T08:35:23.000Z</time>
</trkpt>
<trkpt lat="45.8643350" lon="9.3276580">
	<ele>1248.20</ele>
	<time>2024-03-25T08:35:24.000Z</time>
</trkpt>
<trkpt lat="45.8643350" lon="9.3276580">
	<ele>1248.20</ele>
	<time>2024-03-25T08:35:25.000Z</time>
</trkpt>
<trkpt lat="45.8643350" lon="9.3276590">
	<ele>1248.20</ele>
	<time>2024-03-25T08:35:26.000Z</time>
</trkpt>
<trkpt lat="45.8643350" lon="9.3276590">
	<ele>1248.20</ele>
	<time>2024-03-25T08:35:27.000Z</time>
</trkpt>
<trkpt lat="45.8643350" lon="9.3276590">
	<ele>1248.20</ele>
	<time>2024-03-25T08:35:28.000Z</time>
</trkpt>
<trkpt lat="45.8643350" lon="9.3276600">
	<ele>1248.20</ele>
	<time>2024-03-25T08:35:29.000Z</time>
</trkpt>
<trkpt lat="45.8643350" lon="9.3276610">
	<ele>1248.20</ele>
	<time>2024-03-25T08:35:30.000Z</time>
</trkpt>
<trkpt lat="45.8643350" lon="9.3276610">
	<ele>1248.20</ele>
	<time>2024-03-25T08:35:31.000Z</time>
</trkpt>
<trkpt lat="45.8643350" lon="9.3276620">
	<ele>1248.20</ele>
	<time>2024-03-25T08:35:32.000Z</time>
</trkpt>
<trkpt lat="45.8643340" lon="9.3276620">
	<ele>1248.20</ele>
	<time>2024-03-25T08:35:33.000Z</time>
</trkpt>
<trkpt lat="45.8643340" lon="9.3276620">
	<ele>1248.20</ele>
	<time>2024-03-25T08:35:34.000Z</time>
</trkpt>
<trkpt lat="45.8643330" lon="9.3276630">
	<ele>1248.20</ele>
	<time>2024-03-25T08:35:35.000Z</time>
</trkpt>
<trkpt lat="45.8643330" lon="9.3276630">
	<ele>1248.20</ele>
	<time>2024-03-25T08:35:36.000Z</time>
</trkpt>
<trkpt lat="45.8643320" lon="9.3276630">
	<ele>1248.20</ele>
	<time>2024-03-25T08:35:37.000Z</time>
</trkpt>
<trkpt lat="45.8643320" lon="9.3276630">
	<ele>1248.20</ele>
	<time>2024-03-25T08:35:38.000Z</time>
</trkpt>
<trkpt lat="45.8643320" lon="9.3276640">
	<ele>1248.20</ele>
	<time>2024-03-25T08:35:39.000Z</time>
</trkpt>
<trkpt lat="45.8643310" lon="9.3276640">
	<ele>1248.20</ele>
	<time>2024-03-25T08:35:40.000Z</time>
</trkpt>
<trkpt lat="45.8643310" lon="9.3276640">
	<ele>1248.20</ele>
	<time>2024-03-25T08:35:41.000Z</time>
</trkpt>
<trkpt lat="45.8643300" lon="9.3276640">
	<ele>1248.20</ele>
	<time>2024-03-25T08:35:42.000Z</time>
</trkpt>
<trkpt lat="45.8643300" lon="9.3276640">
	<ele>1248.20</ele>
	<time>2024-03-25T08:35:43.000Z</time>
</trkpt>
<trkpt lat="45.8643300" lon="9.3276640">
	<ele>1248.20</ele>
	<time>2024-03-25T08:35:44.000Z</time>
</trkpt>
<trkpt lat="45.8643290" lon="9.3276640">
	<ele>1248.20</ele>
	<time>2024-03-25T08:35:45.000Z</time>
</trkpt>
<trkpt lat="45.8643290" lon="9.3276640">
	<ele>1248.20</ele>
	<time>2024-03-25T08:35:46.000Z</time>
</trkpt>
<trkpt lat="45.8643290" lon="9.3276640">
	<ele>1248.20</ele>
	<time>2024-03-25T08:35:47.000Z</time>
</trkpt>
<trkpt lat="45.8643290" lon="9.3276640">
	<ele>1248.20</ele>
	<time>2024-03-25T08:35:48.000Z</time>
</trkpt>
<trkpt lat="45.8643290" lon="9.3276640">
	<ele>1248.20</ele>
	<time>2024-03-25T08:35:49.000Z</time>
</trkpt>
<trkpt lat="45.8643280" lon="9.3276640">
	<ele>1248.20</ele>
	<time>2024-03-25T08:35:50.000Z</time>
</trkpt>
<trkpt lat="45.8643280" lon="9.3276640">
	<ele>1248.20</ele>
	<time>2024-03-25T08:35:51.000Z</time>
</trkpt>
<trkpt lat="45.8643280" lon="9.3276640">
	<ele>1248.20</ele>
	<time>2024-03-25T08:35:52.000Z</time>
</trkpt>
<trkpt lat="45.8643280" lon="9.3276640">
	<ele>1248.20</ele>
	<time>2024-03-25T08:35:53.000Z</time>
</trkpt>
<trkpt lat="45.8643280" lon="9.3276640">
	<ele>1248.20</ele>
	<time>2024-03-25T08:35:54.000Z</time>
</trkpt>
<trkpt lat="45.8643280" lon="9.3276640">
	<ele>1248.20</ele>
	<time>2024-03-25T08:35:55.000Z</time>
</trkpt>
<trkpt lat="45.8643280" lon="9.3276640">
	<ele>1248.20</ele>
	<time>2024-03-25T08:35:56.000Z</time>
</trkpt>
<trkpt lat="45.8643280" lon="9.3276640">
	<ele>1248.20</ele>
	<time>2024-03-25T08:35:57.000Z</time>
</trkpt>
<trkpt lat="45.8643280" lon="9.3276640">
	<ele>1248.20</ele>
	<time>2024-03-25T08:35:58.000Z</time>
</trkpt>
<trkpt lat="45.8643280" lon="9.3276640">
	<ele>1248.20</ele>
	<time>2024-03-25T08:35:59.000Z</time>
</trkpt>
<trkpt lat="45.8643280" lon="9.3276640">
	<ele>1248.20</ele>
	<time>2024-03-25T08:36:00.000Z</time>
</trkpt>
<trkpt lat="45.8643280" lon="9.3276640">
	<ele>1248.20</ele>
	<time>2024-03-25T08:36:01.000Z</time>
</trkpt>
<trkpt lat="45.8643290" lon="9.3276640">
	<ele>1248.20</ele>
	<time>2024-03-25T08:36:02.000Z</time>
</trkpt>
<trkpt lat="45.8643290" lon="9.3276640">
	<ele>1248.20</ele>
	<time>2024-03-25T08:36:03.000Z</time>
</trkpt>
<trkpt lat="45.8643290" lon="9.3276640">
	<ele>1248.20</ele>
	<time>2024-03-25T08:36:04.000Z</time>
</trkpt>
<trkpt lat="45.8643290" lon="9.3276640">
	<ele>1248.20</ele>
	<time>2024-03-25T08:36:05.000Z</time>
</trkpt>
<trkpt lat="45.8643290" lon="9.3276640">
	<ele>1248.20</ele>
	<time>2024-03-25T08:36:06.000Z</time>
</trkpt>
<trkpt lat="45.8643290" lon="9.3276640">
	<ele>1248.20</ele>
	<time>2024-03-25T08:36:07.000Z</time>
</trkpt>
<trkpt lat="45.8643290" lon="9.3276640">
	<ele>1248.20</ele>
	<time>2024-03-25T08:36:08.000Z</time>
</trkpt>
<trkpt lat="45.8643300" lon="9.3276640">
	<ele>1248.20</ele>
	<time>2024-03-25T08:36:09.000Z</time>
</trkpt>
<trkpt lat="45.8643300" lon="9.3276640">
	<ele>1248.20</ele>
	<time>2024-03-25T08:36:10.000Z</time>
</trkpt>
<trkpt lat="45.8643300" lon="9.3276640">
	<ele>1248.20</ele>
	<time>2024-03-25T08:36:11.000Z</time>
</trkpt>
<trkpt lat="45.8643300" lon="9.3276640">
	<ele>1248.20</ele>
	<time>2024-03-25T08:36:12.000Z</time>
</trkpt>
<trkpt lat="45.8643290" lon="9.3276640">
	<ele>1248.20</ele>
	<time>2024-03-25T08:36:13.000Z</time>
</trkpt>
<trkpt lat="45.8643290" lon="9.3276640">
	<ele>1248.20</ele>
	<time>2024-03-25T08:36:14.000Z</time>
</trkpt>
<trkpt lat="45.8643300" lon="9.3276640">
	<ele>1248.20</ele>
	<time>2024-03-25T08:36:15.000Z</time>
</trkpt>
<trkpt lat="45.8643300" lon="9.3276640">
	<ele>1248.20</ele>
	<time>2024-03-25T08:36:16.000Z</time>
</trkpt>
<trkpt lat="45.8643300" lon="9.3276640">
	<ele>1248.20</ele>
	<time>2024-03-25T08:36:17.000Z</time>
</trkpt>
<trkpt lat="45.8643300" lon="9.3276640">
	<ele>1248.20</ele>
	<time>2024-03-25T08:36:18.000Z</time>
</trkpt>
<trkpt lat="45.8643300" lon="9.3276640">
	<ele>1248.20</ele>
	<time>2024-03-25T08:36:19.000Z</time>
</trkpt>
<trkpt lat="45.8643300" lon="9.3276640">
	<ele>1248.20</ele>
	<time>2024-03-25T08:36:20.000Z</time>
</trkpt>
<trkpt lat="45.8643300" lon="9.3276640">
	<ele>1248.20</ele>
	<time>2024-03-25T08:36:21.000Z</time>
</trkpt>
<trkpt lat="45.8643300" lon="9.3276640">
	<ele>1248.20</ele>
	<time>2024-03-25T08:36:22.000Z</time>
</trkpt>
<trkpt lat="45.8643300" lon="9.3276640">
	<ele>1248.20</ele>
	<time>2024-03-25T08:36:23.000Z</time>
</trkpt>
<trkpt lat="45.8643300" lon="9.3276640">
	<ele>1248.20</ele>
	<time>2024-03-25T08:36:24.000Z</time>
</trkpt>
<trkpt lat="45.8643300" lon="9.3276640">
	<ele>1248.20</ele>
	<time>2024-03-25T08:36:25.000Z</time>
</trkpt>
<trkpt lat="45.8643300" lon="9.3276640">
	<ele>1248.20</ele>
	<time>2024-03-25T08:36:26.000Z</time>
</trkpt>
<trkpt lat="45.8643310" lon="9.3276640">
	<ele>1248.20</ele>
	<time>2024-03-25T08:36:27.000Z</time>
</trkpt>
<trkpt lat="45.8643310" lon="9.3276640">
	<ele>1248.20</ele>
	<time>2024-03-25T08:36:28.000Z</time>
</trkpt>
<trkpt lat="45.8643310" lon="9.3276640">
	<ele>1248.20</ele>
	<time>2024-03-25T08:36:29.000Z</time>
</trkpt>
<trkpt lat="45.8643310" lon="9.3276640">
	<ele>1248.20</ele>
	<time>2024-03-25T08:36:30.000Z</time>
</trkpt>
<trkpt lat="45.8643310" lon="9.3276650">
	<ele>1248.20</ele>
	<time>2024-03-25T08:36:31.000Z</time>
</trkpt>
<trkpt lat="45.8643310" lon="9.3276650">
	<ele>1248.20</ele>
	<time>2024-03-25T08:36:32.000Z</time>
</trkpt>
<trkpt lat="45.8643310" lon="9.3276650">
	<ele>1248.20</ele>
	<time>2024-03-25T08:36:33.000Z</time>
</trkpt>
<trkpt lat="45.8643310" lon="9.3276650">
	<ele>1248.20</ele>
	<time>2024-03-25T08:36:34.000Z</time>
</trkpt>
<trkpt lat="45.8643310" lon="9.3276650">
	<ele>1248.20</ele>
	<time>2024-03-25T08:36:35.000Z</time>
</trkpt>
<trkpt lat="45.8643320" lon="9.3276650">
	<ele>1248.20</ele>
	<time>2024-03-25T08:36:36.000Z</time>
</trkpt>
<trkpt lat="45.8643320" lon="9.3276650">
	<ele>1248.20</ele>
	<time>2024-03-25T08:36:37.000Z</time>
</trkpt>
<trkpt lat="45.8643320" lon="9.3276650">
	<ele>1248.20</ele>
	<time>2024-03-25T08:36:38.000Z</time>
</trkpt>
<trkpt lat="45.8643320" lon="9.3276650">
	<ele>1248.20</ele>
	<time>2024-03-25T08:36:39.000Z</time>
</trkpt>
<trkpt lat="45.8643330" lon="9.3276650">
	<ele>1248.20</ele>
	<time>2024-03-25T08:36:40.000Z</time>
</trkpt>
<trkpt lat="45.8643330" lon="9.3276650">
	<ele>1248.20</ele>
	<time>2024-03-25T08:36:41.000Z</time>
</trkpt>
<trkpt lat="45.8643330" lon="9.3276650">
	<ele>1248.20</ele>
	<time>2024-03-25T08:36:42.000Z</time>
</trkpt>
<trkpt lat="45.8643330" lon="9.3276650">
	<ele>1248.20</ele>
	<time>2024-03-25T08:36:43.000Z</time>
</trkpt>
<trkpt lat="45.8643320" lon="9.3276650">
	<ele>1248.20</ele>
	<time>2024-03-25T08:36:44.000Z</time>
</trkpt>
<trkpt lat="45.8643320" lon="9.3276650">
	<ele>1248.20</ele>
	<time>2024-03-25T08:36:45.000Z</time>
</trkpt>
<trkpt lat="45.8643320" lon="9.3276650">
	<ele>1248.20</ele>
	<time>2024-03-25T08:36:46.000Z</time>
</trkpt>
<trkpt lat="45.8643320" lon="9.3276650">
	<ele>1248.20</ele>
	<time>2024-03-25T08:36:47.000Z</time>
</trkpt>
<trkpt lat="45.8643320" lon="9.3276650">
	<ele>1248.20</ele>
	<time>2024-03-25T08:36:48.000Z</time>
</trkpt>
<trkpt lat="45.8643320" lon="9.3276650">
	<ele>1248.20</ele>
	<time>2024-03-25T08:36:49.000Z</time>
</trkpt>
<trkpt lat="45.8643320" lon="9.3276650">
	<ele>1248.20</ele>
	<time>2024-03-25T08:36:50.000Z</time>
</trkpt>
<trkpt lat="45.8643320" lon="9.3276650">
	<ele>1248.20</ele>
	<time>2024-03-25T08:36:51.000Z</time>
</trkpt>
<trkpt lat="45.8643320" lon="9.3276650">
	<ele>1248.20</ele>
	<time>2024-03-25T08:36:52.000Z</time>
</trkpt>
<trkpt lat="45.8643330" lon="9.3276650">
	<ele>1248.20</ele>
	<time>2024-03-25T08:36:53.000Z</time>
</trkpt>
<trkpt lat="45.8643330" lon="9.3276650">
	<ele>1248.20</ele>
	<time>2024-03-25T08:36:54.000Z</time>
</trkpt>
<trkpt lat="45.8643330" lon="9.3276650">
	<ele>1248.20</ele>
	<time>2024-03-25T08:36:55.000Z</time>
</trkpt>
<trkpt lat="45.8643330" lon="9.3276650">
	<ele>1248.20</ele>
	<time>2024-03-25T08:36:56.000Z</time>
</trkpt>
<trkpt lat="45.8643330" lon="9.3276650">
	<ele>1248.20</ele>
	<time>2024-03-25T08:36:57.000Z</time>
</trkpt>
<trkpt lat="45.8643330" lon="9.3276650">
	<ele>1248.20</ele>
	<time>2024-03-25T08:36:58.000Z</time>
</trkpt>
<trkpt lat="45.8643330" lon="9.3276650">
	<ele>1248.20</ele>
	<time>2024-03-25T08:36:59.000Z</time>
</trkpt>
<trkpt lat="45.8643330" lon="9.3276650">
	<ele>1248.20</ele>
	<time>2024-03-25T08:37:00.000Z</time>
</trkpt>
<trkpt lat="45.8643330" lon="9.3276650">
	<ele>1248.20</ele>
	<time>2024-03-25T08:37:01.000Z</time>
</trkpt>
<trkpt lat="45.8643340" lon="9.3276650">
	<ele>1248.20</ele>
	<time>2024-03-25T08:37:02.000Z</time>
</trkpt>
<trkpt lat="45.8643340" lon="9.3276650">
	<ele>1248.20</ele>
	<time>2024-03-25T08:37:03.000Z</time>
</trkpt>
<trkpt lat="45.8643340" lon="9.3276650">
	<ele>1248.20</ele>
	<time>2024-03-25T08:37:04.000Z</time>
</trkpt>
<trkpt lat="45.8643340" lon="9.3276650">
	<ele>1248.20</ele>
	<time>2024-03-25T08:37:05.000Z</time>
</trkpt>
<trkpt lat="45.8643340" lon="9.3276650">
	<ele>1248.20</ele>
	<time>2024-03-25T08:37:06.000Z</time>
</trkpt>
<trkpt lat="45.8643340" lon="9.3276650">
	<ele>1248.20</ele>
	<time>2024-03-25T08:37:07.000Z</time>
</trkpt>
<trkpt lat="45.8643340" lon="9.3276650">
	<ele>1248.20</ele>
	<time>2024-03-25T08:37:08.000Z</time>
</trkpt>
<trkpt lat="45.8643340" lon="9.3276650">
	<ele>1248.20</ele>
	<time>2024-03-25T08:37:09.000Z</time>
</trkpt>
<trkpt lat="45.8643340" lon="9.3276650">
	<ele>1248.20</ele>
	<time>2024-03-25T08:37:10.000Z</time>
</trkpt>
<trkpt lat="45.8643340" lon="9.3276650">
	<ele>1248.20</ele>
	<time>2024-03-25T08:37:11.000Z</time>
</trkpt>
<trkpt lat="45.8643350" lon="9.3276650">
	<ele>1248.20</ele>
	<time>2024-03-25T08:37:12.000Z</time>
</trkpt>
<trkpt lat="45.8643350" lon="9.3276650">
	<ele>1248.20</ele>
	<time>2024-03-25T08:37:13.000Z</time>
</trkpt>
<trkpt lat="45.8643350" lon="9.3276650">
	<ele>1248.20</ele>
	<time>2024-03-25T08:37:14.000Z</time>
</trkpt>
<trkpt lat="45.8643350" lon="9.3276650">
	<ele>1248.20</ele>
	<time>2024-03-25T08:37:15.000Z</time>
</trkpt>
<trkpt lat="45.8643350" lon="9.3276650">
	<ele>1248.20</ele>
	<time>2024-03-25T08:37:16.000Z</time>
</trkpt>
<trkpt lat="45.8643350" lon="9.3276650">
	<ele>1248.20</ele>
	<time>2024-03-25T08:37:17.000Z</time>
</trkpt>
<trkpt lat="45.8643350" lon="9.3276650">
	<ele>1248.20</ele>
	<time>2024-03-25T08:37:18.000Z</time>
</trkpt>
<trkpt lat="45.8643350" lon="9.3276650">
	<ele>1248.20</ele>
	<time>2024-03-25T08:37:19.000Z</time>
</trkpt>
<trkpt lat="45.8643350" lon="9.3276650">
	<ele>1248.20</ele>
	<time>2024-03-25T08:37:20.000Z</time>
</trkpt>
<trkpt lat="45.8643350" lon="9.3276650">
	<ele>1248.20</ele>
	<time>2024-03-25T08:37:21.000Z</time>
</trkpt>
<trkpt lat="45.8643360" lon="9.3276650">
	<ele>1248.20</ele>
	<time>2024-03-25T08:37:22.000Z</time>
</trkpt>
<trkpt lat="45.8643360" lon="9.3276650">
	<ele>1248.20</ele>
	<time>2024-03-25T08:37:23.000Z</time>
</trkpt>
<trkpt lat="45.8643360" lon="9.3276650">
	<ele>1248.20</ele>
	<time>2024-03-25T08:37:24.000Z</time>
</trkpt>
<trkpt lat="45.8643360" lon="9.3276650">
	<ele>1248.20</ele>
	<time>2024-03-25T08:37:25.000Z</time>
</trkpt>
<trkpt lat="45.8643360" lon="9.3276650">
	<ele>1248.20</ele>
	<time>2024-03-25T08:37:26.000Z</time>
</trkpt>
<trkpt lat="45.8643360" lon="9.3276650">
	<ele>1248.20</ele>
	<time>2024-03-25T08:37:27.000Z</time>
</trkpt>
<trkpt lat="45.8643360" lon="9.3276650">
	<ele>1248.20</ele>
	<time>2024-03-25T08:37:28.000Z</time>
</trkpt>
<trkpt lat="45.8643360" lon="9.3276650">
	<ele>1248.20</ele>
	<time>2024-03-25T08:37:29.000Z</time>
</trkpt>
<trkpt lat="45.8643360" lon="9.3276650">
	<ele>1248.20</ele>
	<time>2024-03-25T08:37:30.000Z</time>
</trkpt>
<trkpt lat="45.8643360" lon="9.3276640">
	<ele>1248.20</ele>
	<time>2024-03-25T08:37:31.000Z</time>
</trkpt>
<trkpt lat="45.8643360" lon="9.3276640">
	<ele>1248.20</ele>
	<time>2024-03-25T08:37:32.000Z</time>
</trkpt>
<trkpt lat="45.8643360" lon="9.3276640">
	<ele>1248.20</ele>
	<time>2024-03-25T08:37:33.000Z</time>
</trkpt>
<trkpt lat="45.8643360" lon="9.3276640">
	<ele>1248.20</ele>
	<time>2024-03-25T08:37:34.000Z</time>
</trkpt>
<trkpt lat="45.8643370" lon="9.3276650">
	<ele>1248.20</ele>
	<time>2024-03-25T08:37:35.000Z</time>
</trkpt>
<trkpt lat="45.8643370" lon="9.3276650">
	<ele>1248.20</ele>
	<time>2024-03-25T08:37:36.000Z</time>
</trkpt>
<trkpt lat="45.8643370" lon="9.3276650">
	<ele>1248.20</ele>
	<time>2024-03-25T08:37:37.000Z</time>
</trkpt>
<trkpt lat="45.8643370" lon="9.3276650">
	<ele>1248.20</ele>
	<time>2024-03-25T08:37:38.000Z</time>
</trkpt>
<trkpt lat="45.8643370" lon="9.3276650">
	<ele>1248.20</ele>
	<time>2024-03-25T08:37:39.000Z</time>
</trkpt>
<trkpt lat="45.8643370" lon="9.3276650">
	<ele>1248.20</ele>
	<time>2024-03-25T08:37:40.000Z</time>
</trkpt>
<trkpt lat="45.8643370" lon="9.3276650">
	<ele>1248.20</ele>
	<time>2024-03-25T08:37:41.000Z</time>
</trkpt>
<trkpt lat="45.8643370" lon="9.3276650">
	<ele>1248.20</ele>
	<time>2024-03-25T08:37:42.000Z</time>
</trkpt>
<trkpt lat="45.8643370" lon="9.3276650">
	<ele>1248.20</ele>
	<time>2024-03-25T08:37:43.000Z</time>
</trkpt>
<trkpt lat="45.8643370" lon="9.3276650">
	<ele>1248.20</ele>
	<time>2024-03-25T08:37:44.000Z</time>
</trkpt>
<trkpt lat="45.8643370" lon="9.3276650">
	<ele>1248.20</ele>
	<time>2024-03-25T08:37:45.000Z</time>
</trkpt>
<trkpt lat="45.8643370" lon="9.3276650">
	<ele>1248.20</ele>
	<time>2024-03-25T08:37:46.000Z</time>
</trkpt>
<trkpt lat="45.8643370" lon="9.3276650">
	<ele>1248.20</ele>
	<time>2024-03-25T08:37:47.000Z</time>
</trkpt>
<trkpt lat="45.8643370" lon="9.3276650">
	<ele>1248.20</ele>
	<time>2024-03-25T08:37:48.000Z</time>
</trkpt>
<trkpt lat="45.8643370" lon="9.3276650">
	<ele>1248.20</ele>
	<time>2024-03-25T08:37:49.000Z</time>
</trkpt>
<trkpt lat="45.8643370" lon="9.3276650">
	<ele>1248.20</ele>
	<time>2024-03-25T08:37:50.000Z</time>
</trkpt>
<trkpt lat="45.8643370" lon="9.3276650">
	<ele>1248.20</ele>
	<time>2024-03-25T08:37:51.000Z</time>
</trkpt>
<trkpt lat="45.8643370" lon="9.3276650">
	<ele>1248.20</ele>
	<time>2024-03-25T08:37:52.000Z</time>
</trkpt>
<trkpt lat="45.8643370" lon="9.3276650">
	<ele>1248.20</ele>
	<time>2024-03-25T08:37:53.000Z</time>
</trkpt>
<trkpt lat="45.8643360" lon="9.3276650">
	<ele>1248.20</ele>
	<time>2024-03-25T08:37:54.000Z</time>
</trkpt>
<trkpt lat="45.8643360" lon="9.3276650">
	<ele>1248.20</ele>
	<time>2024-03-25T08:37:55.000Z</time>
</trkpt>
<trkpt lat="45.8643360" lon="9.3276650">
	<ele>1248.20</ele>
	<time>2024-03-25T08:37:56.000Z</time>
</trkpt>
<trkpt lat="45.8643360" lon="9.3276650">
	<ele>1248.20</ele>
	<time>2024-03-25T08:37:57.000Z</time>
</trkpt>
<trkpt lat="45.8643360" lon="9.3276650">
	<ele>1248.20</ele>
	<time>2024-03-25T08:37:58.000Z</time>
</trkpt>
<trkpt lat="45.8643360" lon="9.3276650">
	<ele>1248.20</ele>
	<time>2024-03-25T08:37:59.000Z</time>
</trkpt>
<trkpt lat="45.8643370" lon="9.3276650">
	<ele>1248.20</ele>
	<time>2024-03-25T08:38:00.000Z</time>
</trkpt>
<trkpt lat="45.8643360" lon="9.3276650">
	<ele>1248.20</ele>
	<time>2024-03-25T08:38:01.000Z</time>
</trkpt>
<trkpt lat="45.8643360" lon="9.3276640">
	<ele>1248.20</ele>
	<time>2024-03-25T08:38:02.000Z</time>
</trkpt>
<trkpt lat="45.8643360" lon="9.3276640">
	<ele>1248.20</ele>
	<time>2024-03-25T08:38:03.000Z</time>
</trkpt>
<trkpt lat="45.8643370" lon="9.3276640">
	<ele>1248.20</ele>
	<time>2024-03-25T08:38:04.000Z</time>
</trkpt>
<trkpt lat="45.8643370" lon="9.3276640">
	<ele>1248.20</ele>
	<time>2024-03-25T08:38:05.000Z</time>
</trkpt>
<trkpt lat="45.8643370" lon="9.3276640">
	<ele>1248.20</ele>
	<time>2024-03-25T08:38:06.000Z</time>
</trkpt>
<trkpt lat="45.8643370" lon="9.3276640">
	<ele>1248.20</ele>
	<time>2024-03-25T08:38:07.000Z</time>
</trkpt>
<trkpt lat="45.8643370" lon="9.3276640">
	<ele>1248.20</ele>
	<time>2024-03-25T08:38:08.000Z</time>
</trkpt>
<trkpt lat="45.8643370" lon="9.3276640">
	<ele>1248.20</ele>
	<time>2024-03-25T08:38:09.000Z</time>
</trkpt>
<trkpt lat="45.8643370" lon="9.3276640">
	<ele>1248.20</ele>
	<time>2024-03-25T08:38:10.000Z</time>
</trkpt>
<trkpt lat="45.8643370" lon="9.3276640">
	<ele>1248.20</ele>
	<time>2024-03-25T08:38:11.000Z</time>
</trkpt>
<trkpt lat="45.8643370" lon="9.3276640">
	<ele>1248.20</ele>
	<time>2024-03-25T08:38:12.000Z</time>
</trkpt>
<trkpt lat="45.8643370" lon="9.3276640">
	<ele>1248.20</ele>
	<time>2024-03-25T08:38:13.000Z</time>
</trkpt>
<trkpt lat="45.8643370" lon="9.3276640">
	<ele>1248.20</ele>
	<time>2024-03-25T08:38:14.000Z</time>
</trkpt>
<trkpt lat="45.8643370" lon="9.3276640">
	<ele>1248.20</ele>
	<time>2024-03-25T08:38:15.000Z</time>
</trkpt>
<trkpt lat="45.8643370" lon="9.3276640">
	<ele>1248.20</ele>
	<time>2024-03-25T08:38:16.000Z</time>
</trkpt>
<trkpt lat="45.8643370" lon="9.3276640">
	<ele>1248.20</ele>
	<time>2024-03-25T08:38:17.000Z</time>
</trkpt>
<trkpt lat="45.8643370" lon="9.3276640">
	<ele>1248.20</ele>
	<time>2024-03-25T08:38:18.000Z</time>
</trkpt>
<trkpt lat="45.8643370" lon="9.3276640">
	<ele>1248.20</ele>
	<time>2024-03-25T08:38:19.000Z</time>
</trkpt>
<trkpt lat="45.8643380" lon="9.3276640">
	<ele>1248.20</ele>
	<time>2024-03-25T08:38:20.000Z</time>
</trkpt>
<trkpt lat="45.8643380" lon="9.3276640">
	<ele>1248.20</ele>
	<time>2024-03-25T08:38:21.000Z</time>
</trkpt>
<trkpt lat="45.8643380" lon="9.3276640">
	<ele>1248.20</ele>
	<time>2024-03-25T08:38:22.000Z</time>
</trkpt>
<trkpt lat="45.8643380" lon="9.3276640">
	<ele>1248.20</ele>
	<time>2024-03-25T08:38:23.000Z</time>
</trkpt>
<trkpt lat="45.8643380" lon="9.3276640">
	<ele>1248.20</ele>
	<time>2024-03-25T08:38:24.000Z</time>
</trkpt>
<trkpt lat="45.8643380" lon="9.3276640">
	<ele>1248.20</ele>
	<time>2024-03-25T08:38:25.000Z</time>
</trkpt>
<trkpt lat="45.8643380" lon="9.3276640">
	<ele>1248.20</ele>
	<time>2024-03-25T08:38:26.000Z</time>
</trkpt>
<trkpt lat="45.8643380" lon="9.3276640">
	<ele>1248.20</ele>
	<time>2024-03-25T08:38:27.000Z</time>
</trkpt>
<trkpt lat="45.8643380" lon="9.3276640">
	<ele>1248.20</ele>
	<time>2024-03-25T08:38:28.000Z</time>
</trkpt>
<trkpt lat="45.8643390" lon="9.3276640">
	<ele>1248.20</ele>
	<time>2024-03-25T08:38:29.000Z</time>
</trkpt>
<trkpt lat="45.8643390" lon="9.3276640">
	<ele>1248.20</ele>
	<time>2024-03-25T08:38:30.000Z</time>
</trkpt>
<trkpt lat="45.8643390" lon="9.3276640">
	<ele>1248.20</ele>
	<time>2024-03-25T08:38:31.000Z</time>
</trkpt>
<trkpt lat="45.8643390" lon="9.3276640">
	<ele>1248.20</ele>
	<time>2024-03-25T08:38:32.000Z</time>
</trkpt>
<trkpt lat="45.8643390" lon="9.3276640">
	<ele>1248.20</ele>
	<time>2024-03-25T08:38:33.000Z</time>
</trkpt>
<trkpt lat="45.8643390" lon="9.3276640">
	<ele>1248.20</ele>
	<time>2024-03-25T08:38:34.000Z</time>
</trkpt>
<trkpt lat="45.8643390" lon="9.3276640">
	<ele>1248.20</ele>
	<time>2024-03-25T08:38:35.000Z</time>
</trkpt>
<trkpt lat="45.8643390" lon="9.3276640">
	<ele>1248.20</ele>
	<time>2024-03-25T08:38:36.000Z</time>
</trkpt>
<trkpt lat="45.8643390" lon="9.3276640">
	<ele>1248.20</ele>
	<time>2024-03-25T08:38:37.000Z</time>
</trkpt>
<trkpt lat="45.8643390" lon="9.3276640">
	<ele>1248.20</ele>
	<time>2024-03-25T08:38:38.000Z</time>
</trkpt>
<trkpt lat="45.8643390" lon="9.3276640">
	<ele>1248.20</ele>
	<time>2024-03-25T08:38:39.000Z</time>
</trkpt>
<trkpt lat="45.8643390" lon="9.3276640">
	<ele>1248.20</ele>
	<time>2024-03-25T08:38:40.000Z</time>
</trkpt>
<trkpt lat="45.8643390" lon="9.3276640">
	<ele>1248.20</ele>
	<time>2024-03-25T08:38:41.000Z</time>
</trkpt>
<trkpt lat="45.8643390" lon="9.3276640">
	<ele>1248.20</ele>
	<time>2024-03-25T08:38:42.000Z</time>
</trkpt>
<trkpt lat="45.8643390" lon="9.3276640">
	<ele>1248.20</ele>
	<time>2024-03-25T08:38:43.000Z</time>
</trkpt>
<trkpt lat="45.8643400" lon="9.3276640">
	<ele>1248.20</ele>
	<time>2024-03-25T08:38:44.000Z</time>
</trkpt>
<trkpt lat="45.8643400" lon="9.3276640">
	<ele>1248.20</ele>
	<time>2024-03-25T08:38:45.000Z</time>
</trkpt>
<trkpt lat="45.8643400" lon="9.3276640">
	<ele>1248.20</ele>
	<time>2024-03-25T08:38:46.000Z</time>
</trkpt>
<trkpt lat="45.8643400" lon="9.3276640">
	<ele>1248.20</ele>
	<time>2024-03-25T08:38:47.000Z</time>
</trkpt>
<trkpt lat="45.8643400" lon="9.3276640">
	<ele>1248.20</ele>
	<time>2024-03-25T08:38:48.000Z</time>
</trkpt>
<trkpt lat="45.8643400" lon="9.3276640">
	<ele>1248.20</ele>
	<time>2024-03-25T08:38:49.000Z</time>
</trkpt>
<trkpt lat="45.8643400" lon="9.3276640">
	<ele>1248.20</ele>
	<time>2024-03-25T08:38:50.000Z</time>
</trkpt>
<trkpt lat="45.8643400" lon="9.3276640">
	<ele>1248.20</ele>
	<time>2024-03-25T08:38:51.000Z</time>
</trkpt>
<trkpt lat="45.8643400" lon="9.3276640">
	<ele>1248.20</ele>
	<time>2024-03-25T08:38:52.000Z</time>
</trkpt>
<trkpt lat="45.8643400" lon="9.3276640">
	<ele>1248.20</ele>
	<time>2024-03-25T08:38:53.000Z</time>
</trkpt>
<trkpt lat="45.8643410" lon="9.3276640">
	<ele>1248.20</ele>
	<time>2024-03-25T08:38:54.000Z</time>
</trkpt>
<trkpt lat="45.8643410" lon="9.3276640">
	<ele>1248.20</ele>
	<time>2024-03-25T08:38:55.000Z</time>
</trkpt>
<trkpt lat="45.8643410" lon="9.3276640">
	<ele>1248.20</ele>
	<time>2024-03-25T08:38:56.000Z</time>
</trkpt>
<trkpt lat="45.8643410" lon="9.3276640">
	<ele>1248.20</ele>
	<time>2024-03-25T08:38:57.000Z</time>
</trkpt>
<trkpt lat="45.8643410" lon="9.3276640">
	<ele>1248.20</ele>
	<time>2024-03-25T08:38:58.000Z</time>
</trkpt>
<trkpt lat="45.8643410" lon="9.3276640">
	<ele>1248.20</ele>
	<time>2024-03-25T08:38:59.000Z</time>
</trkpt>
<trkpt lat="45.8643410" lon="9.3276640">
	<ele>1248.20</ele>
	<time>2024-03-25T08:39:00.000Z</time>
</trkpt>
<trkpt lat="45.8643410" lon="9.3276640">
	<ele>1248.20</ele>
	<time>2024-03-25T08:39:01.000Z</time>
</trkpt>
<trkpt lat="45.8643410" lon="9.3276640">
	<ele>1248.20</ele>
	<time>2024-03-25T08:39:02.000Z</time>
</trkpt>
<trkpt lat="45.8643410" lon="9.3276640">
	<ele>1248.20</ele>
	<time>2024-03-25T08:39:03.000Z</time>
</trkpt>
<trkpt lat="45.8643410" lon="9.3276640">
	<ele>1248.20</ele>
	<time>2024-03-25T08:39:04.000Z</time>
</trkpt>
<trkpt lat="45.8643420" lon="9.3276640">
	<ele>1248.20</ele>
	<time>2024-03-25T08:39:05.000Z</time>
</trkpt>
<trkpt lat="45.8643420" lon="9.3276640">
	<ele>1248.20</ele>
	<time>2024-03-25T08:39:06.000Z</time>
</trkpt>
<trkpt lat="45.8643420" lon="9.3276640">
	<ele>1248.20</ele>
	<time>2024-03-25T08:39:07.000Z</time>
</trkpt>
<trkpt lat="45.8643420" lon="9.3276640">
	<ele>1248.20</ele>
	<time>2024-03-25T08:39:08.000Z</time>
</trkpt>
<trkpt lat="45.8643420" lon="9.3276640">
	<ele>1248.20</ele>
	<time>2024-03-25T08:39:09.000Z</time>
</trkpt>
<trkpt lat="45.8643420" lon="9.3276640">
	<ele>1248.20</ele>
	<time>2024-03-25T08:39:10.000Z</time>
</trkpt>
<trkpt lat="45.8643420" lon="9.3276640">
	<ele>1248.20</ele>
	<time>2024-03-25T08:39:11.000Z</time>
</trkpt>
<trkpt lat="45.8643420" lon="9.3276640">
	<ele>1248.20</ele>
	<time>2024-03-25T08:39:12.000Z</time>
</trkpt>
<trkpt lat="45.8643420" lon="9.3276640">
	<ele>1248.20</ele>
	<time>2024-03-25T08:39:13.000Z</time>
</trkpt>
<trkpt lat="45.8643420" lon="9.3276640">
	<ele>1248.20</ele>
	<time>2024-03-25T08:39:14.000Z</time>
</trkpt>
<trkpt lat="45.8643420" lon="9.3276640">
	<ele>1248.20</ele>
	<time>2024-03-25T08:39:15.000Z</time>
</trkpt>
<trkpt lat="45.8643420" lon="9.3276640">
	<ele>1248.20</ele>
	<time>2024-03-25T08:39:16.000Z</time>
</trkpt>
<trkpt lat="45.8643420" lon="9.3276640">
	<ele>1248.20</ele>
	<time>2024-03-25T08:39:17.000Z</time>
</trkpt>
<trkpt lat="45.8643420" lon="9.3276640">
	<ele>1248.20</ele>
	<time>2024-03-25T08:39:18.000Z</time>
</trkpt>
<trkpt lat="45.8643420" lon="9.3276640">
	<ele>1248.20</ele>
	<time>2024-03-25T08:39:19.000Z</time>
</trkpt>
<trkpt lat="45.8643420" lon="9.3276650">
	<ele>1248.20</ele>
	<time>2024-03-25T08:39:20.000Z</time>
</trkpt>
<trkpt lat="45.8643420" lon="9.3276650">
	<ele>1248.20</ele>
	<time>2024-03-25T08:39:21.000Z</time>
</trkpt>
<trkpt lat="45.8643420" lon="9.3276650">
	<ele>1248.20</ele>
	<time>2024-03-25T08:39:22.000Z</time>
</trkpt>
<trkpt lat="45.8643420" lon="9.3276650">
	<ele>1248.20</ele>
	<time>2024-03-25T08:39:23.000Z</time>
</trkpt>
<trkpt lat="45.8643420" lon="9.3276650">
	<ele>1248.20</ele>
	<time>2024-03-25T08:39:24.000Z</time>
</trkpt>
<trkpt lat="45.8643420" lon="9.3276650">
	<ele>1248.20</ele>
	<time>2024-03-25T08:39:25.000Z</time>
</trkpt>
<trkpt lat="45.8643420" lon="9.3276650">
	<ele>1248.20</ele>
	<time>2024-03-25T08:39:26.000Z</time>
</trkpt>
<trkpt lat="45.8643420" lon="9.3276650">
	<ele>1248.20</ele>
	<time>2024-03-25T08:39:27.000Z</time>
</trkpt>
<trkpt lat="45.8643420" lon="9.3276650">
	<ele>1248.20</ele>
	<time>2024-03-25T08:39:28.000Z</time>
</trkpt>
<trkpt lat="45.8643420" lon="9.3276650">
	<ele>1248.20</ele>
	<time>2024-03-25T08:39:29.000Z</time>
</trkpt>
<trkpt lat="45.8643420" lon="9.3276650">
	<ele>1248.20</ele>
	<time>2024-03-25T08:39:30.000Z</time>
</trkpt>
<trkpt lat="45.8643330" lon="9.3276630">
	<ele>1248.20</ele>
	<time>2024-03-25T08:39:31.000Z</time>
</trkpt>
<trkpt lat="45.8643180" lon="9.3276620">
	<ele>1248.20</ele>
	<time>2024-03-25T08:39:32.000Z</time>
</trkpt>
<trkpt lat="45.8643040" lon="9.3276600">
	<ele>1248.20</ele>
	<time>2024-03-25T08:39:33.000Z</time>
</trkpt>
<trkpt lat="45.8642910" lon="9.3276600">
	<ele>1248.20</ele>
	<time>2024-03-25T08:39:34.000Z</time>
</trkpt>
<trkpt lat="45.8642800" lon="9.3276600">
	<ele>1248.20</ele>
	<time>2024-03-25T08:39:35.000Z</time>
</trkpt>
<trkpt lat="45.8642700" lon="9.3276600">
	<ele>1248.20</ele>
	<time>2024-03-25T08:39:36.000Z</time>
</trkpt>
<trkpt lat="45.8642610" lon="9.3276590">
	<ele>1248.20</ele>
	<time>2024-03-25T08:39:37.000Z</time>
</trkpt>
<trkpt lat="45.8642610" lon="9.3276590">
	<ele>1248.20</ele>
	<time>2024-03-25T08:39:38.000Z</time>
</trkpt>
<trkpt lat="45.8642610" lon="9.3276590">
	<ele>1248.20</ele>
	<time>2024-03-25T08:39:39.000Z</time>
</trkpt>
<trkpt lat="45.8642610" lon="9.3276590">
	<ele>1248.20</ele>
	<time>2024-03-25T08:39:40.000Z</time>
</trkpt>
<trkpt lat="45.8642610" lon="9.3276590">
	<ele>1248.20</ele>
	<time>2024-03-25T08:39:41.000Z</time>
</trkpt>
<trkpt lat="45.8642610" lon="9.3276590">
	<ele>1248.20</ele>
	<time>2024-03-25T08:39:42.000Z</time>
</trkpt>
<trkpt lat="45.8642610" lon="9.3276590">
	<ele>1248.20</ele>
	<time>2024-03-25T08:39:43.000Z</time>
</trkpt>
<trkpt lat="45.8642590" lon="9.3276590">
	<ele>1248.20</ele>
	<time>2024-03-25T08:39:44.000Z</time>
</trkpt>
<trkpt lat="45.8642570" lon="9.3276550">
	<ele>1248.20</ele>
	<time>2024-03-25T08:39:45.000Z</time>
</trkpt>
<trkpt lat="45.8642570" lon="9.3276540">
	<ele>1248.20</ele>
	<time>2024-03-25T08:39:46.000Z</time>
</trkpt>
<trkpt lat="45.8642570" lon="9.3276540">
	<ele>1248.20</ele>
	<time>2024-03-25T08:39:47.000Z</time>
</trkpt>
<trkpt lat="45.8642570" lon="9.3276540">
	<ele>1248.20</ele>
	<time>2024-03-25T08:39:48.000Z</time>
</trkpt>
<trkpt lat="45.8642570" lon="9.3276540">
	<ele>1248.20</ele>
	<time>2024-03-25T08:39:49.000Z</time>
</trkpt>
<trkpt lat="45.8642570" lon="9.3276540">
	<ele>1248.20</ele>
	<time>2024-03-25T08:39:50.000Z</time>
</trkpt>
<trkpt lat="45.8642570" lon="9.3276540">
	<ele>1248.20</ele>
	<time>2024-03-25T08:39:51.000Z</time>
</trkpt>
<trkpt lat="45.8642570" lon="9.3276540">
	<ele>1248.20</ele>
	<time>2024-03-25T08:39:52.000Z</time>
</trkpt>
<trkpt lat="45.8642570" lon="9.3276540">
	<ele>1248.20</ele>
	<time>2024-03-25T08:39:53.000Z</time>
</trkpt>
<trkpt lat="45.8642570" lon="9.3276540">
	<ele>1248.20</ele>
	<time>2024-03-25T08:39:54.000Z</time>
</trkpt>
<trkpt lat="45.8642570" lon="9.3276540">
	<ele>1248.20</ele>
	<time>2024-03-25T08:39:55.000Z</time>
</trkpt>
<trkpt lat="45.8642570" lon="9.3276540">
	<ele>1248.20</ele>
	<time>2024-03-25T08:39:56.000Z</time>
</trkpt>
<trkpt lat="45.8642570" lon="9.3276540">
	<ele>1248.20</ele>
	<time>2024-03-25T08:39:57.000Z</time>
</trkpt>
<trkpt lat="45.8642570" lon="9.3276540">
	<ele>1248.20</ele>
	<time>2024-03-25T08:39:58.000Z</time>
</trkpt>
<trkpt lat="45.8642570" lon="9.3276540">
	<ele>1248.20</ele>
	<time>2024-03-25T08:39:59.000Z</time>
</trkpt>
<trkpt lat="45.8642580" lon="9.3276540">
	<ele>1248.20</ele>
	<time>2024-03-25T08:40:00.000Z</time>
</trkpt>
<trkpt lat="45.8642580" lon="9.3276550">
	<ele>1248.20</ele>
	<time>2024-03-25T08:40:01.000Z</time>
</trkpt>
<trkpt lat="45.8642640" lon="9.3276550">
	<ele>1248.20</ele>
	<time>2024-03-25T08:40:02.000Z</time>
</trkpt>
<trkpt lat="45.8642650" lon="9.3276570">
	<ele>1248.20</ele>
	<time>2024-03-25T08:40:03.000Z</time>
</trkpt>
<trkpt lat="45.8642700" lon="9.3276580">
	<ele>1248.20</ele>
	<time>2024-03-25T08:40:04.000Z</time>
</trkpt>
<trkpt lat="45.8642730" lon="9.3276580">
	<ele>1248.20</ele>
	<time>2024-03-25T08:40:05.000Z</time>
</trkpt>
<trkpt lat="45.8642740" lon="9.3276600">
	<ele>1248.20</ele>
	<time>2024-03-25T08:40:06.000Z</time>
</trkpt>
<trkpt lat="45.8642760" lon="9.3276640">
	<ele>1248.20</ele>
	<time>2024-03-25T08:40:07.000Z</time>
</trkpt>
<trkpt lat="45.8642770" lon="9.3276660">
	<ele>1248.20</ele>
	<time>2024-03-25T08:40:08.000Z</time>
</trkpt>
<trkpt lat="45.8642780" lon="9.3276680">
	<ele>1248.20</ele>
	<time>2024-03-25T08:40:09.000Z</time>
</trkpt>
<trkpt lat="45.8642800" lon="9.3276690">
	<ele>1248.20</ele>
	<time>2024-03-25T08:40:10.000Z</time>
</trkpt>
<trkpt lat="45.8642810" lon="9.3276690">
	<ele>1248.20</ele>
	<time>2024-03-25T08:40:11.000Z</time>
</trkpt>
<trkpt lat="45.8642820" lon="9.3276690">
	<ele>1248.20</ele>
	<time>2024-03-25T08:40:12.000Z</time>
</trkpt>
<trkpt lat="45.8642820" lon="9.3276690">
	<ele>1248.20</ele>
	<time>2024-03-25T08:40:13.000Z</time>
</trkpt>
<trkpt lat="45.8642840" lon="9.3276690">
	<ele>1248.20</ele>
	<time>2024-03-25T08:40:14.000Z</time>
</trkpt>
<trkpt lat="45.8642850" lon="9.3276690">
	<ele>1248.20</ele>
	<time>2024-03-25T08:40:15.000Z</time>
</trkpt>
<trkpt lat="45.8642860" lon="9.3276690">
	<ele>1248.20</ele>
	<time>2024-03-25T08:40:16.000Z</time>
</trkpt>
<trkpt lat="45.8642860" lon="9.3276690">
	<ele>1248.20</ele>
	<time>2024-03-25T08:40:17.000Z</time>
</trkpt>
<trkpt lat="45.8642900" lon="9.3276630">
	<ele>1248.20</ele>
	<time>2024-03-25T08:40:18.000Z</time>
</trkpt>
<trkpt lat="45.8643010" lon="9.3276440">
	<ele>1248.20</ele>
	<time>2024-03-25T08:40:19.000Z</time>
</trkpt>
<trkpt lat="45.8643090" lon="9.3276240">
	<ele>1248.20</ele>
	<time>2024-03-25T08:40:20.000Z</time>
</trkpt>
<trkpt lat="45.8643160" lon="9.3276000">
	<ele>1248.20</ele>
	<time>2024-03-25T08:40:21.000Z</time>
</trkpt>
<trkpt lat="45.8643260" lon="9.3275780">
	<ele>1248.20</ele>
	<time>2024-03-25T08:40:22.000Z</time>
</trkpt>
<trkpt lat="45.8643350" lon="9.3275520">
	<ele>1248.20</ele>
	<time>2024-03-25T08:40:23.000Z</time>
</trkpt>
<trkpt lat="45.8643440" lon="9.3275260">
	<ele>1248.20</ele>
	<time>2024-03-25T08:40:24.000Z</time>
</trkpt>
<trkpt lat="45.8643550" lon="9.3274980">
	<ele>1248.20</ele>
	<time>2024-03-25T08:40:25.000Z</time>
</trkpt>
<trkpt lat="45.8643590" lon="9.3274700">
	<ele>1248.20</ele>
	<time>2024-03-25T08:40:26.000Z</time>
</trkpt>
<trkpt lat="45.8643630" lon="9.3274420">
	<ele>1248.20</ele>
	<time>2024-03-25T08:40:27.000Z</time>
</trkpt>
<trkpt lat="45.8643620" lon="9.3274210">
	<ele>1248.20</ele>
	<time>2024-03-25T08:40:28.000Z</time>
</trkpt>
<trkpt lat="45.8643570" lon="9.3274010">
	<ele>1248.40</ele>
	<time>2024-03-25T08:40:29.000Z</time>
</trkpt>
<trkpt lat="45.8643500" lon="9.3273850">
	<ele>1248.60</ele>
	<time>2024-03-25T08:40:30.000Z</time>
</trkpt>
<trkpt lat="45.8643470" lon="9.3273700">
	<ele>1248.60</ele>
	<time>2024-03-25T08:40:31.000Z</time>
</trkpt>
<trkpt lat="45.8643460" lon="9.3273580">
	<ele>1248.80</ele>
	<time>2024-03-25T08:40:32.000Z</time>
</trkpt>
<trkpt lat="45.8643440" lon="9.3273460">
	<ele>1248.60</ele>
	<time>2024-03-25T08:40:33.000Z</time>
</trkpt>
<trkpt lat="45.8643440" lon="9.3273320">
	<ele>1248.40</ele>
	<time>2024-03-25T08:40:34.000Z</time>
</trkpt>
<trkpt lat="45.8643430" lon="9.3273200">
	<ele>1248.00</ele>
	<time>2024-03-25T08:40:35.000Z</time>
</trkpt>
<trkpt lat="45.8643420" lon="9.3273090">
	<ele>1247.80</ele>
	<time>2024-03-25T08:40:36.000Z</time>
</trkpt>
<trkpt lat="45.8643430" lon="9.3272950">
	<ele>1247.40</ele>
	<time>2024-03-25T08:40:37.000Z</time>
</trkpt>
<trkpt lat="45.8643430" lon="9.3272810">
	<ele>1247.20</ele>
	<time>2024-03-25T08:40:38.000Z</time>
</trkpt>
<trkpt lat="45.8643450" lon="9.3272670">
	<ele>1246.80</ele>
	<time>2024-03-25T08:40:39.000Z</time>
</trkpt>
<trkpt lat="45.8643490" lon="9.3272520">
	<ele>1246.80</ele>
	<time>2024-03-25T08:40:40.000Z</time>
</trkpt>
<trkpt lat="45.8643470" lon="9.3272390">
	<ele>1246.40</ele>
	<time>2024-03-25T08:40:41.000Z</time>
</trkpt>
<trkpt lat="45.8643340" lon="9.3272270">
	<ele>1246.20</ele>
	<time>2024-03-25T08:40:42.000Z</time>
</trkpt>
<trkpt lat="45.8643350" lon="9.3272130">
	<ele>1245.80</ele>
	<time>2024-03-25T08:40:43.000Z</time>
</trkpt>
<trkpt lat="45.8643370" lon="9.3272020">
	<ele>1245.60</ele>
	<time>2024-03-25T08:40:44.000Z</time>
</trkpt>
<trkpt lat="45.8643400" lon="9.3271940">
	<ele>1245.40</ele>
	<time>2024-03-25T08:40:45.000Z</time>
</trkpt>
<trkpt lat="45.8643450" lon="9.3271870">
	<ele>1245.40</ele>
	<time>2024-03-25T08:40:46.000Z</time>
</trkpt>
<trkpt lat="45.8643480" lon="9.3271820">
	<ele>1245.40</ele>
	<time>2024-03-25T08:40:47.000Z</time>
</trkpt>
<trkpt lat="45.8643520" lon="9.3271800">
	<ele>1245.40</ele>
	<time>2024-03-25T08:40:48.000Z</time>
</trkpt>
<trkpt lat="45.8643550" lon="9.3271810">
	<ele>1245.40</ele>
	<time>2024-03-25T08:40:49.000Z</time>
</trkpt>
<trkpt lat="45.8643470" lon="9.3271890">
	<ele>1245.40</ele>
	<time>2024-03-25T08:40:50.000Z</time>
</trkpt>
<trkpt lat="45.8643410" lon="9.3271880">
	<ele>1245.40</ele>
	<time>2024-03-25T08:40:51.000Z</time>
</trkpt>
<trkpt lat="45.8643370" lon="9.3271880">
	<ele>1245.40</ele>
	<time>2024-03-25T08:40:52.000Z</time>
</trkpt>
<trkpt lat="45.8643340" lon="9.3271870">
	<ele>1245.40</ele>
	<time>2024-03-25T08:40:53.000Z</time>
</trkpt>
<trkpt lat="45.8643320" lon="9.3271850">
	<ele>1245.40</ele>
	<time>2024-03-25T08:40:54.000Z</time>
</trkpt>
<trkpt lat="45.8643330" lon="9.3271850">
	<ele>1245.40</ele>
	<time>2024-03-25T08:40:55.000Z</time>
</trkpt>
<trkpt lat="45.8643310" lon="9.3271860">
	<ele>1245.40</ele>
	<time>2024-03-25T08:40:56.000Z</time>
</trkpt>
<trkpt lat="45.8643290" lon="9.3271850">
	<ele>1245.40</ele>
	<time>2024-03-25T08:40:57.000Z</time>
</trkpt>
<trkpt lat="45.8643260" lon="9.3271860">
	<ele>1245.20</ele>
	<time>2024-03-25T08:40:58.000Z</time>
</trkpt>
<trkpt lat="45.8643250" lon="9.3271860">
	<ele>1245.00</ele>
	<time>2024-03-25T08:40:59.000Z</time>
</trkpt>
<trkpt lat="45.8643250" lon="9.3271860">
	<ele>1245.00</ele>
	<time>2024-03-25T08:41:00.000Z</time>
</trkpt>
<trkpt lat="45.8643250" lon="9.3271860">
	<ele>1245.00</ele>
	<time>2024-03-25T08:41:01.000Z</time>
</trkpt>
<trkpt lat="45.8643250" lon="9.3271860">
	<ele>1245.00</ele>
	<time>2024-03-25T08:41:02.000Z</time>
</trkpt>
<trkpt lat="45.8643250" lon="9.3271860">
	<ele>1245.00</ele>
	<time>2024-03-25T08:41:03.000Z</time>
</trkpt>
<trkpt lat="45.8643250" lon="9.3271860">
	<ele>1245.00</ele>
	<time>2024-03-25T08:41:04.000Z</time>
</trkpt>
<trkpt lat="45.8643250" lon="9.3271860">
	<ele>1245.20</ele>
	<time>2024-03-25T08:41:05.000Z</time>
</trkpt>
<trkpt lat="45.8643250" lon="9.3271860">
	<ele>1245.20</ele>
	<time>2024-03-25T08:41:06.000Z</time>
</trkpt>
<trkpt lat="45.8643260" lon="9.3271860">
	<ele>1245.20</ele>
	<time>2024-03-25T08:41:07.000Z</time>
</trkpt>
<trkpt lat="45.8643270" lon="9.3271860">
	<ele>1245.20</ele>
	<time>2024-03-25T08:41:08.000Z</time>
</trkpt>
<trkpt lat="45.8643270" lon="9.3271860">
	<ele>1245.20</ele>
	<time>2024-03-25T08:41:09.000Z</time>
</trkpt>
<trkpt lat="45.8643280" lon="9.3271860">
	<ele>1245.20</ele>
	<time>2024-03-25T08:41:10.000Z</time>
</trkpt>
<trkpt lat="45.8643290" lon="9.3271860">
	<ele>1245.20</ele>
	<time>2024-03-25T08:41:11.000Z</time>
</trkpt>
<trkpt lat="45.8643290" lon="9.3271860">
	<ele>1244.80</ele>
	<time>2024-03-25T08:41:12.000Z</time>
</trkpt>
<trkpt lat="45.8643290" lon="9.3271860">
	<ele>1244.60</ele>
	<time>2024-03-25T08:41:13.000Z</time>
</trkpt>
<trkpt lat="45.8643300" lon="9.3271860">
	<ele>1244.60</ele>
	<time>2024-03-25T08:41:14.000Z</time>
</trkpt>
<trkpt lat="45.8643310" lon="9.3271860">
	<ele>1244.40</ele>
	<time>2024-03-25T08:41:15.000Z</time>
</trkpt>
<trkpt lat="45.8643320" lon="9.3271860">
	<ele>1244.20</ele>
	<time>2024-03-25T08:41:16.000Z</time>
</trkpt>
<trkpt lat="45.8643330" lon="9.3271860">
	<ele>1244.00</ele>
	<time>2024-03-25T08:41:17.000Z</time>
</trkpt>
<trkpt lat="45.8643330" lon="9.3271860">
	<ele>1244.00</ele>
	<time>2024-03-25T08:41:18.000Z</time>
</trkpt>
<trkpt lat="45.8643330" lon="9.3271860">
	<ele>1243.80</ele>
	<time>2024-03-25T08:41:19.000Z</time>
</trkpt>
<trkpt lat="45.8643350" lon="9.3271860">
	<ele>1243.40</ele>
	<time>2024-03-25T08:41:20.000Z</time>
</trkpt>
<trkpt lat="45.8643430" lon="9.3271930">
	<ele>1243.20</ele>
	<time>2024-03-25T08:41:21.000Z</time>
</trkpt>
<trkpt lat="45.8643560" lon="9.3272150">
	<ele>1242.80</ele>
	<time>2024-03-25T08:41:22.000Z</time>
</trkpt>
<trkpt lat="45.8643690" lon="9.3272360">
	<ele>1242.40</ele>
	<time>2024-03-25T08:41:23.000Z</time>
</trkpt>
<trkpt lat="45.8643820" lon="9.3272520">
	<ele>1242.20</ele>
	<time>2024-03-25T08:41:24.000Z</time>
</trkpt>
<trkpt lat="45.8643980" lon="9.3272640">
	<ele>1242.00</ele>
	<time>2024-03-25T08:41:25.000Z</time>
</trkpt>
<trkpt lat="45.8644230" lon="9.3272800">
	<ele>1241.80</ele>
	<time>2024-03-25T08:41:26.000Z</time>
</trkpt>
<trkpt lat="45.8644430" lon="9.3272940">
	<ele>1241.60</ele>
	<time>2024-03-25T08:41:27.000Z</time>
</trkpt>
<trkpt lat="45.8644560" lon="9.3273100">
	<ele>1241.40</ele>
	<time>2024-03-25T08:41:28.000Z</time>
</trkpt>
<trkpt lat="45.8644740" lon="9.3273240">
	<ele>1241.00</ele>
	<time>2024-03-25T08:41:29.000Z</time>
</trkpt>
<trkpt lat="45.8644910" lon="9.3273380">
	<ele>1240.80</ele>
	<time>2024-03-25T08:41:30.000Z</time>
</trkpt>
<trkpt lat="45.8644940" lon="9.3273490">
	<ele>1240.80</ele>
	<time>2024-03-25T08:41:31.000Z</time>
</trkpt>
<trkpt lat="45.8645020" lon="9.3273570">
	<ele>1240.60</ele>
	<time>2024-03-25T08:41:32.000Z</time>
</trkpt>
<trkpt lat="45.8645060" lon="9.3273620">
	<ele>1240.40</ele>
	<time>2024-03-25T08:41:33.000Z</time>
</trkpt>
<trkpt lat="45.8645100" lon="9.3273660">
	<ele>1240.20</ele>
	<time>2024-03-25T08:41:34.000Z</time>
</trkpt>
<trkpt lat="45.8645230" lon="9.3273760">
	<ele>1239.80</ele>
	<time>2024-03-25T08:41:35.000Z</time>
</trkpt>
<trkpt lat="45.8645340" lon="9.3273820">
	<ele>1239.40</ele>
	<time>2024-03-25T08:41:36.000Z</time>
</trkpt>
<trkpt lat="45.8645370" lon="9.3273890">
	<ele>1239.20</ele>
	<time>2024-03-25T08:41:37.000Z</time>
</trkpt>
<trkpt lat="45.8645430" lon="9.3273950">
	<ele>1239.20</ele>
	<time>2024-03-25T08:41:38.000Z</time>
</trkpt>
<trkpt lat="45.8645490" lon="9.3274040">
	<ele>1239.00</ele>
	<time>2024-03-25T08:41:39.000Z</time>
</trkpt>
<trkpt lat="45.8645560" lon="9.3274160">
	<ele>1238.80</ele>
	<time>2024-03-25T08:41:40.000Z</time>
</trkpt>
<trkpt lat="45.8645630" lon="9.3274250">
	<ele>1238.60</ele>
	<time>2024-03-25T08:41:41.000Z</time>
</trkpt>
<trkpt lat="45.8645710" lon="9.3274340">
	<ele>1238.40</ele>
	<time>2024-03-25T08:41:42.000Z</time>
</trkpt>
<trkpt lat="45.8645760" lon="9.3274480">
	<ele>1238.20</ele>
	<time>2024-03-25T08:41:43.000Z</time>
</trkpt>
<trkpt lat="45.8645810" lon="9.3274620">
	<ele>1238.00</ele>
	<time>2024-03-25T08:41:44.000Z</time>
</trkpt>
<trkpt lat="45.8645850" lon="9.3274770">
	<ele>1237.80</ele>
	<time>2024-03-25T08:41:45.000Z</time>
</trkpt>
<trkpt lat="45.8645890" lon="9.3274940">
	<ele>1237.60</ele>
	<time>2024-03-25T08:41:46.000Z</time>
</trkpt>
<trkpt lat="45.8645960" lon="9.3275110">
	<ele>1237.60</ele>
	<time>2024-03-25T08:41:47.000Z</time>
</trkpt>
<trkpt lat="45.8646040" lon="9.3275260">
	<ele>1237.40</ele>
	<time>2024-03-25T08:41:48.000Z</time>
</trkpt>
<trkpt lat="45.8646140" lon="9.3275430">
	<ele>1237.40</ele>
	<time>2024-03-25T08:41:49.000Z</time>
</trkpt>
<trkpt lat="45.8646240" lon="9.3275600">
	<ele>1237.20</ele>
	<time>2024-03-25T08:41:50.000Z</time>
</trkpt>
<trkpt lat="45.8646350" lon="9.3275750">
	<ele>1237.20</ele>
	<time>2024-03-25T08:41:51.000Z</time>
</trkpt>
<trkpt lat="45.8646420" lon="9.3275930">
	<ele>1237.00</ele>
	<time>2024-03-25T08:41:52.000Z</time>
</trkpt>
<trkpt lat="45.8646490" lon="9.3276100">
	<ele>1237.00</ele>
	<time>2024-03-25T08:41:53.000Z</time>
</trkpt>
<trkpt lat="45.8646530" lon="9.3276250">
	<ele>1237.00</ele>
	<time>2024-03-25T08:41:54.000Z</time>
</trkpt>
<trkpt lat="45.8646570" lon="9.3276400">
	<ele>1237.00</ele>
	<time>2024-03-25T08:41:55.000Z</time>
</trkpt>
<trkpt lat="45.8646650" lon="9.3276580">
	<ele>1237.00</ele>
	<time>2024-03-25T08:41:56.000Z</time>
</trkpt>
<trkpt lat="45.8646710" lon="9.3276760">
	<ele>1237.00</ele>
	<time>2024-03-25T08:41:57.000Z</time>
</trkpt>
<trkpt lat="45.8646760" lon="9.3276890">
	<ele>1237.00</ele>
	<time>2024-03-25T08:41:58.000Z</time>
</trkpt>
<trkpt lat="45.8646770" lon="9.3277030">
	<ele>1237.00</ele>
	<time>2024-03-25T08:41:59.000Z</time>
</trkpt>
<trkpt lat="45.8646760" lon="9.3277200">
	<ele>1237.00</ele>
	<time>2024-03-25T08:42:00.000Z</time>
</trkpt>
<trkpt lat="45.8646700" lon="9.3277370">
	<ele>1237.00</ele>
	<time>2024-03-25T08:42:01.000Z</time>
</trkpt>
<trkpt lat="45.8646610" lon="9.3277490">
	<ele>1237.00</ele>
	<time>2024-03-25T08:42:02.000Z</time>
</trkpt>
<trkpt lat="45.8646540" lon="9.3277630">
	<ele>1237.00</ele>
	<time>2024-03-25T08:42:03.000Z</time>
</trkpt>
<trkpt lat="45.8646450" lon="9.3277720">
	<ele>1237.00</ele>
	<time>2024-03-25T08:42:04.000Z</time>
</trkpt>
<trkpt lat="45.8646360" lon="9.3277840">
	<ele>1236.80</ele>
	<time>2024-03-25T08:42:05.000Z</time>
</trkpt>
<trkpt lat="45.8646290" lon="9.3277990">
	<ele>1236.60</ele>
	<time>2024-03-25T08:42:06.000Z</time>
</trkpt>
<trkpt lat="45.8646250" lon="9.3278110">
	<ele>1236.40</ele>
	<time>2024-03-25T08:42:07.000Z</time>
</trkpt>
<trkpt lat="45.8646230" lon="9.3278240">
	<ele>1236.40</ele>
	<time>2024-03-25T08:42:08.000Z</time>
</trkpt>
<trkpt lat="45.8646210" lon="9.3278360">
	<ele>1236.20</ele>
	<time>2024-03-25T08:42:09.000Z</time>
</trkpt>
<trkpt lat="45.8646160" lon="9.3278490">
	<ele>1236.00</ele>
	<time>2024-03-25T08:42:10.000Z</time>
</trkpt>
<trkpt lat="45.8646100" lon="9.3278620">
	<ele>1235.80</ele>
	<time>2024-03-25T08:42:11.000Z</time>
</trkpt>
<trkpt lat="45.8646060" lon="9.3278730">
	<ele>1235.60</ele>
	<time>2024-03-25T08:42:12.000Z</time>
</trkpt>
<trkpt lat="45.8646030" lon="9.3278810">
	<ele>1235.60</ele>
	<time>2024-03-25T08:42:13.000Z</time>
</trkpt>
<trkpt lat="45.8646030" lon="9.3278840">
	<ele>1235.60</ele>
	<time>2024-03-25T08:42:14.000Z</time>
</trkpt>
<trkpt lat="45.8646020" lon="9.3278850">
	<ele>1235.60</ele>
	<time>2024-03-25T08:42:15.000Z</time>
</trkpt>
<trkpt lat="45.8646040" lon="9.3278880">
	<ele>1235.60</ele>
	<time>2024-03-25T08:42:16.000Z</time>
</trkpt>
<trkpt lat="45.8646050" lon="9.3278900">
	<ele>1235.60</ele>
	<time>2024-03-25T08:42:17.000Z</time>
</trkpt>
<trkpt lat="45.8646080" lon="9.3278920">
	<ele>1235.60</ele>
	<time>2024-03-25T08:42:18.000Z</time>
</trkpt>
<trkpt lat="45.8646100" lon="9.3278930">
	<ele>1235.60</ele>
	<time>2024-03-25T08:42:19.000Z</time>
</trkpt>
<trkpt lat="45.8646110" lon="9.3278930">
	<ele>1235.60</ele>
	<time>2024-03-25T08:42:20.000Z</time>
</trkpt>
<trkpt lat="45.8646120" lon="9.3278930">
	<ele>1235.60</ele>
	<time>2024-03-25T08:42:21.000Z</time>
</trkpt>
<trkpt lat="45.8646120" lon="9.3278940">
	<ele>1235.60</ele>
	<time>2024-03-25T08:42:22.000Z</time>
</trkpt>
<trkpt lat="45.8646130" lon="9.3278930">
	<ele>1235.60</ele>
	<time>2024-03-25T08:42:23.000Z</time>
</trkpt>
<trkpt lat="45.8646130" lon="9.3278930">
	<ele>1235.60</ele>
	<time>2024-03-25T08:42:24.000Z</time>
</trkpt>
<trkpt lat="45.8646130" lon="9.3278930">
	<ele>1235.60</ele>
	<time>2024-03-25T08:42:25.000Z</time>
</trkpt>
<trkpt lat="45.8646130" lon="9.3278930">
	<ele>1235.60</ele>
	<time>2024-03-25T08:42:26.000Z</time>
</trkpt>
<trkpt lat="45.8646130" lon="9.3278930">
	<ele>1235.60</ele>
	<time>2024-03-25T08:42:27.000Z</time>
</trkpt>
<trkpt lat="45.8646130" lon="9.3278930">
	<ele>1235.80</ele>
	<time>2024-03-25T08:42:28.000Z</time>
</trkpt>
<trkpt lat="45.8646130" lon="9.3278930">
	<ele>1235.80</ele>
	<time>2024-03-25T08:42:29.000Z</time>
</trkpt>
<trkpt lat="45.8646130" lon="9.3278930">
	<ele>1235.80</ele>
	<time>2024-03-25T08:42:30.000Z</time>
</trkpt>
<trkpt lat="45.8646130" lon="9.3278930">
	<ele>1235.80</ele>
	<time>2024-03-25T08:42:31.000Z</time>
</trkpt>
<trkpt lat="45.8646130" lon="9.3278930">
	<ele>1235.80</ele>
	<time>2024-03-25T08:42:32.000Z</time>
</trkpt>
<trkpt lat="45.8646130" lon="9.3278930">
	<ele>1235.80</ele>
	<time>2024-03-25T08:42:33.000Z</time>
</trkpt>
<trkpt lat="45.8646130" lon="9.3278930">
	<ele>1235.80</ele>
	<time>2024-03-25T08:42:34.000Z</time>
</trkpt>
<trkpt lat="45.8646130" lon="9.3278930">
	<ele>1235.80</ele>
	<time>2024-03-25T08:42:35.000Z</time>
</trkpt>
<trkpt lat="45.8646130" lon="9.3278930">
	<ele>1235.80</ele>
	<time>2024-03-25T08:42:36.000Z</time>
</trkpt>
<trkpt lat="45.8646130" lon="9.3278930">
	<ele>1235.80</ele>
	<time>2024-03-25T08:42:37.000Z</time>
</trkpt>
<trkpt lat="45.8646130" lon="9.3278930">
	<ele>1235.80</ele>
	<time>2024-03-25T08:42:38.000Z</time>
</trkpt>
<trkpt lat="45.8646130" lon="9.3278930">
	<ele>1235.80</ele>
	<time>2024-03-25T08:42:39.000Z</time>
</trkpt>
<trkpt lat="45.8646120" lon="9.3278940">
	<ele>1235.80</ele>
	<time>2024-03-25T08:42:40.000Z</time>
</trkpt>
<trkpt lat="45.8646120" lon="9.3278940">
	<ele>1235.80</ele>
	<time>2024-03-25T08:42:41.000Z</time>
</trkpt>
<trkpt lat="45.8646120" lon="9.3278950">
	<ele>1235.80</ele>
	<time>2024-03-25T08:42:42.000Z</time>
</trkpt>
<trkpt lat="45.8646120" lon="9.3278960">
	<ele>1235.60</ele>
	<time>2024-03-25T08:42:43.000Z</time>
</trkpt>
<trkpt lat="45.8646120" lon="9.3279000">
	<ele>1235.60</ele>
	<time>2024-03-25T08:42:44.000Z</time>
</trkpt>
<trkpt lat="45.8646120" lon="9.3279040">
	<ele>1235.60</ele>
	<time>2024-03-25T08:42:45.000Z</time>
</trkpt>
<trkpt lat="45.8646130" lon="9.3279070">
	<ele>1235.60</ele>
	<time>2024-03-25T08:42:46.000Z</time>
</trkpt>
<trkpt lat="45.8646130" lon="9.3279080">
	<ele>1235.60</ele>
	<time>2024-03-25T08:42:47.000Z</time>
</trkpt>
<trkpt lat="45.8646130" lon="9.3279080">
	<ele>1235.60</ele>
	<time>2024-03-25T08:42:48.000Z</time>
</trkpt>
<trkpt lat="45.8646130" lon="9.3279080">
	<ele>1235.60</ele>
	<time>2024-03-25T08:42:49.000Z</time>
</trkpt>
<trkpt lat="45.8646130" lon="9.3279080">
	<ele>1235.60</ele>
	<time>2024-03-25T08:42:50.000Z</time>
</trkpt>
<trkpt lat="45.8646130" lon="9.3279080">
	<ele>1235.60</ele>
	<time>2024-03-25T08:42:51.000Z</time>
</trkpt>
<trkpt lat="45.8646130" lon="9.3279080">
	<ele>1235.60</ele>
	<time>2024-03-25T08:42:52.000Z</time>
</trkpt>
<trkpt lat="45.8646130" lon="9.3279080">
	<ele>1235.60</ele>
	<time>2024-03-25T08:42:53.000Z</time>
</trkpt>
<trkpt lat="45.8646130" lon="9.3279080">
	<ele>1235.60</ele>
	<time>2024-03-25T08:42:54.000Z</time>
</trkpt>
<trkpt lat="45.8646130" lon="9.3279080">
	<ele>1235.60</ele>
	<time>2024-03-25T08:42:55.000Z</time>
</trkpt>
<trkpt lat="45.8646130" lon="9.3279090">
	<ele>1235.40</ele>
	<time>2024-03-25T08:42:56.000Z</time>
</trkpt>
<trkpt lat="45.8646130" lon="9.3279090">
	<ele>1235.40</ele>
	<time>2024-03-25T08:42:57.000Z</time>
</trkpt>
<trkpt lat="45.8646130" lon="9.3279090">
	<ele>1235.40</ele>
	<time>2024-03-25T08:42:58.000Z</time>
</trkpt>
<trkpt lat="45.8646130" lon="9.3279090">
	<ele>1235.60</ele>
	<time>2024-03-25T08:42:59.000Z</time>
</trkpt>
<trkpt lat="45.8646120" lon="9.3279100">
	<ele>1235.80</ele>
	<time>2024-03-25T08:43:00.000Z</time>
</trkpt>
<trkpt lat="45.8646120" lon="9.3279100">
	<ele>1235.80</ele>
	<time>2024-03-25T08:43:01.000Z</time>
</trkpt>
<trkpt lat="45.8646120" lon="9.3279100">
	<ele>1236.00</ele>
	<time>2024-03-25T08:43:02.000Z</time>
</trkpt>
<trkpt lat="45.8646040" lon="9.3279100">
	<ele>1236.00</ele>
	<time>2024-03-25T08:43:03.000Z</time>
</trkpt>
<trkpt lat="45.8645830" lon="9.3279090">
	<ele>1236.00</ele>
	<time>2024-03-25T08:43:04.000Z</time>
</trkpt>
<trkpt lat="45.8645650" lon="9.3279100">
	<ele>1236.00</ele>
	<time>2024-03-25T08:43:05.000Z</time>
</trkpt>
<trkpt lat="45.8645440" lon="9.3279010">
	<ele>1236.00</ele>
	<time>2024-03-25T08:43:06.000Z</time>
</trkpt>
<trkpt lat="45.8645270" lon="9.3278930">
	<ele>1236.20</ele>
	<time>2024-03-25T08:43:07.000Z</time>
</trkpt>
<trkpt lat="45.8645090" lon="9.3278820">
	<ele>1236.20</ele>
	<time>2024-03-25T08:43:08.000Z</time>
</trkpt>
<trkpt lat="45.8644950" lon="9.3278880">
	<ele>1236.20</ele>
	<time>2024-03-25T08:43:09.000Z</time>
</trkpt>
<trkpt lat="45.8644850" lon="9.3278910">
	<ele>1236.20</ele>
	<time>2024-03-25T08:43:10.000Z</time>
</trkpt>
<trkpt lat="45.8644710" lon="9.3278900">
	<ele>1236.40</ele>
	<time>2024-03-25T08:43:11.000Z</time>
</trkpt>
<trkpt lat="45.8644540" lon="9.3278930">
	<ele>1236.40</ele>
	<time>2024-03-25T08:43:12.000Z</time>
</trkpt>
<trkpt lat="45.8644510" lon="9.3278930">
	<ele>1236.60</ele>
	<time>2024-03-25T08:43:13.000Z</time>
</trkpt>
<trkpt lat="45.8644490" lon="9.3278940">
	<ele>1236.60</ele>
	<time>2024-03-25T08:43:14.000Z</time>
</trkpt>
<trkpt lat="45.8644470" lon="9.3278960">
	<ele>1236.40</ele>
	<time>2024-03-25T08:43:15.000Z</time>
</trkpt>
<trkpt lat="45.8644430" lon="9.3279040">
	<ele>1236.20</ele>
	<time>2024-03-25T08:43:16.000Z</time>
</trkpt>
<trkpt lat="45.8644350" lon="9.3279090">
	<ele>1236.00</ele>
	<time>2024-03-25T08:43:17.000Z</time>
</trkpt>
<trkpt lat="45.8644320" lon="9.3279090">
	<ele>1235.80</ele>
	<time>2024-03-25T08:43:18.000Z</time>
</trkpt>
<trkpt lat="45.8644300" lon="9.3279090">
	<ele>1235.80</ele>
	<time>2024-03-25T08:43:19.000Z</time>
</trkpt>
<trkpt lat="45.8644240" lon="9.3279110">
	<ele>1235.60</ele>
	<time>2024-03-25T08:43:20.000Z</time>
</trkpt>
<trkpt lat="45.8644150" lon="9.3279150">
	<ele>1235.60</ele>
	<time>2024-03-25T08:43:21.000Z</time>
</trkpt>
<trkpt lat="45.8644030" lon="9.3279170">
	<ele>1235.40</ele>
	<time>2024-03-25T08:43:22.000Z</time>
</trkpt>
<trkpt lat="45.8643910" lon="9.3279200">
	<ele>1235.40</ele>
	<time>2024-03-25T08:43:23.000Z</time>
</trkpt>
<trkpt lat="45.8643790" lon="9.3279290">
	<ele>1235.20</ele>
	<time>2024-03-25T08:43:24.000Z</time>
</trkpt>
<trkpt lat="45.8643700" lon="9.3279360">
	<ele>1235.00</ele>
	<time>2024-03-25T08:43:25.000Z</time>
</trkpt>
<trkpt lat="45.8643660" lon="9.3279420">
	<ele>1234.80</ele>
	<time>2024-03-25T08:43:26.000Z</time>
</trkpt>
<trkpt lat="45.8643560" lon="9.3279430">
	<ele>1234.60</ele>
	<time>2024-03-25T08:43:27.000Z</time>
</trkpt>
<trkpt lat="45.8643470" lon="9.3279430">
	<ele>1234.60</ele>
	<time>2024-03-25T08:43:28.000Z</time>
</trkpt>
<trkpt lat="45.8643390" lon="9.3279350">
	<ele>1234.40</ele>
	<time>2024-03-25T08:43:29.000Z</time>
</trkpt>
<trkpt lat="45.8643270" lon="9.3279300">
	<ele>1234.00</ele>
	<time>2024-03-25T08:43:30.000Z</time>
</trkpt>
<trkpt lat="45.8643150" lon="9.3279210">
	<ele>1234.00</ele>
	<time>2024-03-25T08:43:31.000Z</time>
</trkpt>
<trkpt lat="45.8643030" lon="9.3279150">
	<ele>1233.60</ele>
	<time>2024-03-25T08:43:32.000Z</time>
</trkpt>
<trkpt lat="45.8642920" lon="9.3279070">
	<ele>1233.40</ele>
	<time>2024-03-25T08:43:33.000Z</time>
</trkpt>
<trkpt lat="45.8642820" lon="9.3279060">
	<ele>1233.40</ele>
	<time>2024-03-25T08:43:34.000Z</time>
</trkpt>
<trkpt lat="45.8642740" lon="9.3279070">
	<ele>1233.20</ele>
	<time>2024-03-25T08:43:35.000Z</time>
</trkpt>
<trkpt lat="45.8642700" lon="9.3279120">
	<ele>1233.20</ele>
	<time>2024-03-25T08:43:36.000Z</time>
</trkpt>
<trkpt lat="45.8642660" lon="9.3279140">
	<ele>1233.20</ele>
	<time>2024-03-25T08:43:37.000Z</time>
</trkpt>
<trkpt lat="45.8642650" lon="9.3279130">
	<ele>1233.40</ele>
	<time>2024-03-25T08:43:38.000Z</time>
</trkpt>
<trkpt lat="45.8642650" lon="9.3279100">
	<ele>1233.60</ele>
	<time>2024-03-25T08:43:39.000Z</time>
</trkpt>
<trkpt lat="45.8642560" lon="9.3278960">
	<ele>1233.80</ele>
	<time>2024-03-25T08:43:40.000Z</time>
</trkpt>
<trkpt lat="45.8642450" lon="9.3278850">
	<ele>1233.80</ele>
	<time>2024-03-25T08:43:41.000Z</time>
</trkpt>
<trkpt lat="45.8642400" lon="9.3278820">
	<ele>1233.80</ele>
	<time>2024-03-25T08:43:42.000Z</time>
</trkpt>
<trkpt lat="45.8642410" lon="9.3278840">
	<ele>1234.00</ele>
	<time>2024-03-25T08:43:43.000Z</time>
</trkpt>
<trkpt lat="45.8642340" lon="9.3278850">
	<ele>1233.80</ele>
	<time>2024-03-25T08:43:44.000Z</time>
</trkpt>
<trkpt lat="45.8642300" lon="9.3278900">
	<ele>1233.60</ele>
	<time>2024-03-25T08:43:45.000Z</time>
</trkpt>
<trkpt lat="45.8642220" lon="9.3278970">
	<ele>1233.40</ele>
	<time>2024-03-25T08:43:46.000Z</time>
</trkpt>
<trkpt lat="45.8642120" lon="9.3279000">
	<ele>1233.20</ele>
	<time>2024-03-25T08:43:47.000Z</time>
</trkpt>
<trkpt lat="45.8642010" lon="9.3279030">
	<ele>1233.00</ele>
	<time>2024-03-25T08:43:48.000Z</time>
</trkpt>
<trkpt lat="45.8641890" lon="9.3279060">
	<ele>1232.80</ele>
	<time>2024-03-25T08:43:49.000Z</time>
</trkpt>
<trkpt lat="45.8641780" lon="9.3279050">
	<ele>1232.60</ele>
	<time>2024-03-25T08:43:50.000Z</time>
</trkpt>
<trkpt lat="45.8641630" lon="9.3279100">
	<ele>1232.20</ele>
	<time>2024-03-25T08:43:51.000Z</time>
</trkpt>
<trkpt lat="45.8641460" lon="9.3279180">
	<ele>1232.00</ele>
	<time>2024-03-25T08:43:52.000Z</time>
</trkpt>
<trkpt lat="45.8641300" lon="9.3279250">
	<ele>1231.80</ele>
	<time>2024-03-25T08:43:53.000Z</time>
</trkpt>
<trkpt lat="45.8641140" lon="9.3279350">
	<ele>1231.60</ele>
	<time>2024-03-25T08:43:54.000Z</time>
</trkpt>
<trkpt lat="45.8640900" lon="9.3279430">
	<ele>1231.40</ele>
	<time>2024-03-25T08:43:55.000Z</time>
</trkpt>
<trkpt lat="45.8640710" lon="9.3279430">
	<ele>1231.40</ele>
	<time>2024-03-25T08:43:56.000Z</time>
</trkpt>
<trkpt lat="45.8640560" lon="9.3279510">
	<ele>1231.20</ele>
	<time>2024-03-25T08:43:57.000Z</time>
</trkpt>
<trkpt lat="45.8640430" lon="9.3279560">
	<ele>1231.20</ele>
	<time>2024-03-25T08:43:58.000Z</time>
</trkpt>
<trkpt lat="45.8640310" lon="9.3279570">
	<ele>1231.00</ele>
	<time>2024-03-25T08:43:59.000Z</time>
</trkpt>
<trkpt lat="45.8640240" lon="9.3279590">
	<ele>1231.00</ele>
	<time>2024-03-25T08:44:00.000Z</time>
</trkpt>
<trkpt lat="45.8640230" lon="9.3279530">
	<ele>1231.00</ele>
	<time>2024-03-25T08:44:01.000Z</time>
</trkpt>
<trkpt lat="45.8640230" lon="9.3279510">
	<ele>1231.00</ele>
	<time>2024-03-25T08:44:02.000Z</time>
</trkpt>
<trkpt lat="45.8640210" lon="9.3279460">
	<ele>1231.00</ele>
	<time>2024-03-25T08:44:03.000Z</time>
</trkpt>
<trkpt lat="45.8640130" lon="9.3279470">
	<ele>1231.00</ele>
	<time>2024-03-25T08:44:04.000Z</time>
</trkpt>
<trkpt lat="45.8640070" lon="9.3279500">
	<ele>1231.00</ele>
	<time>2024-03-25T08:44:05.000Z</time>
</trkpt>
<trkpt lat="45.8640000" lon="9.3279580">
	<ele>1231.20</ele>
	<time>2024-03-25T08:44:06.000Z</time>
</trkpt>
<trkpt lat="45.8639820" lon="9.3279630">
	<ele>1231.20</ele>
	<time>2024-03-25T08:44:07.000Z</time>
</trkpt>
<trkpt lat="45.8639650" lon="9.3279770">
	<ele>1231.20</ele>
	<time>2024-03-25T08:44:08.000Z</time>
</trkpt>
<trkpt lat="45.8639470" lon="9.3279790">
	<ele>1231.40</ele>
	<time>2024-03-25T08:44:09.000Z</time>
</trkpt>
<trkpt lat="45.8639420" lon="9.3279820">
	<ele>1231.40</ele>
	<time>2024-03-25T08:44:10.000Z</time>
</trkpt>
<trkpt lat="45.8639240" lon="9.3279830">
	<ele>1231.20</ele>
	<time>2024-03-25T08:44:11.000Z</time>
</trkpt>
<trkpt lat="45.8639120" lon="9.3279930">
	<ele>1231.20</ele>
	<time>2024-03-25T08:44:12.000Z</time>
</trkpt>
<trkpt lat="45.8639050" lon="9.3279970">
	<ele>1231.20</ele>
	<time>2024-03-25T08:44:13.000Z</time>
</trkpt>
<trkpt lat="45.8638990" lon="9.3280060">
	<ele>1231.00</ele>
	<time>2024-03-25T08:44:14.000Z</time>
</trkpt>
<trkpt lat="45.8638950" lon="9.3280140">
	<ele>1231.00</ele>
	<time>2024-03-25T08:44:15.000Z</time>
</trkpt>
<trkpt lat="45.8638890" lon="9.3280180">
	<ele>1231.00</ele>
	<time>2024-03-25T08:44:16.000Z</time>
</trkpt>
<trkpt lat="45.8638870" lon="9.3280230">
	<ele>1230.80</ele>
	<time>2024-03-25T08:44:17.000Z</time>
</trkpt>
<trkpt lat="45.8638840" lon="9.3280260">
	<ele>1230.80</ele>
	<time>2024-03-25T08:44:18.000Z</time>
</trkpt>
<trkpt lat="45.8638750" lon="9.3280300">
	<ele>1230.80</ele>
	<time>2024-03-25T08:44:19.000Z</time>
</trkpt>
<trkpt lat="45.8638620" lon="9.3280320">
	<ele>1230.60</ele>
	<time>2024-03-25T08:44:20.000Z</time>
</trkpt>
<trkpt lat="45.8638480" lon="9.3280340">
	<ele>1230.40</ele>
	<time>2024-03-25T08:44:21.000Z</time>
</trkpt>
<trkpt lat="45.8638360" lon="9.3280410">
	<ele>1230.40</ele>
	<time>2024-03-25T08:44:22.000Z</time>
</trkpt>
<trkpt lat="45.8638260" lon="9.3280470">
	<ele>1230.20</ele>
	<time>2024-03-25T08:44:23.000Z</time>
</trkpt>
<trkpt lat="45.8638140" lon="9.3280490">
	<ele>1230.00</ele>
	<time>2024-03-25T08:44:24.000Z</time>
</trkpt>
<trkpt lat="45.8638090" lon="9.3280490">
	<ele>1230.00</ele>
	<time>2024-03-25T08:44:25.000Z</time>
</trkpt>
<trkpt lat="45.8637920" lon="9.3280440">
	<ele>1229.80</ele>
	<time>2024-03-25T08:44:26.000Z</time>
</trkpt>
<trkpt lat="45.8637830" lon="9.3280420">
	<ele>1229.80</ele>
	<time>2024-03-25T08:44:27.000Z</time>
</trkpt>
<trkpt lat="45.8637720" lon="9.3280410">
	<ele>1229.80</ele>
	<time>2024-03-25T08:44:28.000Z</time>
</trkpt>
<trkpt lat="45.8637640" lon="9.3280420">
	<ele>1229.80</ele>
	<time>2024-03-25T08:44:29.000Z</time>
</trkpt>
<trkpt lat="45.8637550" lon="9.3280480">
	<ele>1229.80</ele>
	<time>2024-03-25T08:44:30.000Z</time>
</trkpt>
<trkpt lat="45.8637470" lon="9.3280600">
	<ele>1229.80</ele>
	<time>2024-03-25T08:44:31.000Z</time>
</trkpt>
<trkpt lat="45.8637370" lon="9.3280660">
	<ele>1229.80</ele>
	<time>2024-03-25T08:44:32.000Z</time>
</trkpt>
<trkpt lat="45.8637190" lon="9.3280700">
	<ele>1229.80</ele>
	<time>2024-03-25T08:44:33.000Z</time>
</trkpt>
<trkpt lat="45.8637080" lon="9.3280730">
	<ele>1229.60</ele>
	<time>2024-03-25T08:44:34.000Z</time>
</trkpt>
<trkpt lat="45.8636990" lon="9.3280760">
	<ele>1229.60</ele>
	<time>2024-03-25T08:44:35.000Z</time>
</trkpt>
<trkpt lat="45.8636900" lon="9.3280770">
	<ele>1229.60</ele>
	<time>2024-03-25T08:44:36.000Z</time>
</trkpt>
<trkpt lat="45.8636840" lon="9.3280790">
	<ele>1229.60</ele>
	<time>2024-03-25T08:44:37.000Z</time>
</trkpt>
<trkpt lat="45.8636760" lon="9.3280860">
	<ele>1229.80</ele>
	<time>2024-03-25T08:44:38.000Z</time>
</trkpt>
<trkpt lat="45.8636690" lon="9.3280960">
	<ele>1229.80</ele>
	<time>2024-03-25T08:44:39.000Z</time>
</trkpt>
<trkpt lat="45.8636670" lon="9.3281010">
	<ele>1230.00</ele>
	<time>2024-03-25T08:44:40.000Z</time>
</trkpt>
<trkpt lat="45.8636670" lon="9.3281050">
	<ele>1230.20</ele>
	<time>2024-03-25T08:44:41.000Z</time>
</trkpt>
<trkpt lat="45.8636680" lon="9.3281070">
	<ele>1230.20</ele>
	<time>2024-03-25T08:44:42.000Z</time>
</trkpt>
<trkpt lat="45.8636690" lon="9.3281110">
	<ele>1230.40</ele>
	<time>2024-03-25T08:44:43.000Z</time>
</trkpt>
<trkpt lat="45.8636690" lon="9.3281130">
	<ele>1230.40</ele>
	<time>2024-03-25T08:44:44.000Z</time>
</trkpt>
<trkpt lat="45.8636630" lon="9.3281150">
	<ele>1230.60</ele>
	<time>2024-03-25T08:44:45.000Z</time>
</trkpt>
<trkpt lat="45.8636500" lon="9.3281130">
	<ele>1230.80</ele>
	<time>2024-03-25T08:44:46.000Z</time>
</trkpt>
<trkpt lat="45.8636430" lon="9.3281170">
	<ele>1230.80</ele>
	<time>2024-03-25T08:44:47.000Z</time>
</trkpt>
<trkpt lat="45.8636370" lon="9.3281260">
	<ele>1231.00</ele>
	<time>2024-03-25T08:44:48.000Z</time>
</trkpt>
<trkpt lat="45.8636270" lon="9.3281310">
	<ele>1231.00</ele>
	<time>2024-03-25T08:44:49.000Z</time>
</trkpt>
<trkpt lat="45.8636170" lon="9.3281350">
	<ele>1231.00</ele>
	<time>2024-03-25T08:44:50.000Z</time>
</trkpt>
<trkpt lat="45.8636050" lon="9.3281410">
	<ele>1231.20</ele>
	<time>2024-03-25T08:44:51.000Z</time>
</trkpt>
<trkpt lat="45.8635940" lon="9.3281500">
	<ele>1231.40</ele>
	<time>2024-03-25T08:44:52.000Z</time>
</trkpt>
<trkpt lat="45.8635850" lon="9.3281670">
	<ele>1231.40</ele>
	<time>2024-03-25T08:44:53.000Z</time>
</trkpt>
<trkpt lat="45.8635690" lon="9.3281830">
	<ele>1231.60</ele>
	<time>2024-03-25T08:44:54.000Z</time>
</trkpt>
<trkpt lat="45.8635600" lon="9.3281870">
	<ele>1231.60</ele>
	<time>2024-03-25T08:44:55.000Z</time>
</trkpt>
<trkpt lat="45.8635460" lon="9.3281980">
	<ele>1231.80</ele>
	<time>2024-03-25T08:44:56.000Z</time>
</trkpt>
<trkpt lat="45.8635380" lon="9.3282080">
	<ele>1231.80</ele>
	<time>2024-03-25T08:44:57.000Z</time>
</trkpt>
<trkpt lat="45.8635270" lon="9.3282180">
	<ele>1232.00</ele>
	<time>2024-03-25T08:44:58.000Z</time>
</trkpt>
<trkpt lat="45.8635260" lon="9.3282240">
	<ele>1232.00</ele>
	<time>2024-03-25T08:44:59.000Z</time>
</trkpt>
<trkpt lat="45.8635140" lon="9.3282340">
	<ele>1232.20</ele>
	<time>2024-03-25T08:45:00.000Z</time>
</trkpt>
<trkpt lat="45.8635030" lon="9.3282520">
	<ele>1232.20</ele>
	<time>2024-03-25T08:45:01.000Z</time>
</trkpt>
<trkpt lat="45.8634950" lon="9.3282670">
	<ele>1232.20</ele>
	<time>2024-03-25T08:45:02.000Z</time>
</trkpt>
<trkpt lat="45.8634810" lon="9.3282720">
	<ele>1232.40</ele>
	<time>2024-03-25T08:45:03.000Z</time>
</trkpt>
<trkpt lat="45.8634780" lon="9.3282740">
	<ele>1232.40</ele>
	<time>2024-03-25T08:45:04.000Z</time>
</trkpt>
<trkpt lat="45.8634730" lon="9.3282840">
	<ele>1232.40</ele>
	<time>2024-03-25T08:45:05.000Z</time>
</trkpt>
<trkpt lat="45.8634680" lon="9.3282990">
	<ele>1232.40</ele>
	<time>2024-03-25T08:45:06.000Z</time>
</trkpt>
<trkpt lat="45.8634660" lon="9.3283140">
	<ele>1232.40</ele>
	<time>2024-03-25T08:45:07.000Z</time>
</trkpt>
<trkpt lat="45.8634620" lon="9.3283230">
	<ele>1232.40</ele>
	<time>2024-03-25T08:45:08.000Z</time>
</trkpt>
<trkpt lat="45.8634660" lon="9.3283360">
	<ele>1232.40</ele>
	<time>2024-03-25T08:45:09.000Z</time>
</trkpt>
<trkpt lat="45.8634680" lon="9.3283450">
	<ele>1232.40</ele>
	<time>2024-03-25T08:45:10.000Z</time>
</trkpt>
<trkpt lat="45.8634620" lon="9.3283570">
	<ele>1232.20</ele>
	<time>2024-03-25T08:45:11.000Z</time>
</trkpt>
<trkpt lat="45.8634540" lon="9.3283710">
	<ele>1232.20</ele>
	<time>2024-03-25T08:45:12.000Z</time>
</trkpt>
<trkpt lat="45.8634380" lon="9.3283780">
	<ele>1232.00</ele>
	<time>2024-03-25T08:45:13.000Z</time>
</trkpt>
<trkpt lat="45.8634270" lon="9.3283860">
	<ele>1232.00</ele>
	<time>2024-03-25T08:45:14.000Z</time>
</trkpt>
<trkpt lat="45.8634120" lon="9.3283940">
	<ele>1231.80</ele>
	<time>2024-03-25T08:45:15.000Z</time>
</trkpt>
<trkpt lat="45.8633940" lon="9.3284090">
	<ele>1231.60</ele>
	<time>2024-03-25T08:45:16.000Z</time>
</trkpt>
<trkpt lat="45.8633810" lon="9.3284220">
	<ele>1231.60</ele>
	<time>2024-03-25T08:45:17.000Z</time>
</trkpt>
<trkpt lat="45.8633720" lon="9.3284290">
	<ele>1231.40</ele>
	<time>2024-03-25T08:45:18.000Z</time>
</trkpt>
<trkpt lat="45.8633720" lon="9.3284430">
	<ele>1231.40</ele>
	<time>2024-03-25T08:45:19.000Z</time>
</trkpt>
<trkpt lat="45.8633640" lon="9.3284570">
	<ele>1231.40</ele>
	<time>2024-03-25T08:45:20.000Z</time>
</trkpt>
<trkpt lat="45.8633540" lon="9.3284690">
	<ele>1231.40</ele>
	<time>2024-03-25T08:45:21.000Z</time>
</trkpt>
<trkpt lat="45.8633440" lon="9.3284790">
	<ele>1231.40</ele>
	<time>2024-03-25T08:45:22.000Z</time>
</trkpt>
<trkpt lat="45.8633310" lon="9.3284910">
	<ele>1231.40</ele>
	<time>2024-03-25T08:45:23.000Z</time>
</trkpt>
<trkpt lat="45.8633260" lon="9.3285000">
	<ele>1231.40</ele>
	<time>2024-03-25T08:45:24.000Z</time>
</trkpt>
<trkpt lat="45.8633170" lon="9.3285070">
	<ele>1231.60</ele>
	<time>2024-03-25T08:45:25.000Z</time>
</trkpt>
<trkpt lat="45.8633070" lon="9.3285140">
	<ele>1231.80</ele>
	<time>2024-03-25T08:45:26.000Z</time>
</trkpt>
<trkpt lat="45.8633020" lon="9.3285240">
	<ele>1232.00</ele>
	<time>2024-03-25T08:45:27.000Z</time>
</trkpt>
<trkpt lat="45.8632950" lon="9.3285300">
	<ele>1232.20</ele>
	<time>2024-03-25T08:45:28.000Z</time>
</trkpt>
<trkpt lat="45.8632890" lon="9.3285360">
	<ele>1232.40</ele>
	<time>2024-03-25T08:45:29.000Z</time>
</trkpt>
<trkpt lat="45.8632860" lon="9.3285390">
	<ele>1232.60</ele>
	<time>2024-03-25T08:45:30.000Z</time>
</trkpt>
<trkpt lat="45.8632780" lon="9.3285440">
	<ele>1232.80</ele>
	<time>2024-03-25T08:45:31.000Z</time>
</trkpt>
<trkpt lat="45.8632690" lon="9.3285460">
	<ele>1233.00</ele>
	<time>2024-03-25T08:45:32.000Z</time>
</trkpt>
<trkpt lat="45.8632570" lon="9.3285450">
	<ele>1233.20</ele>
	<time>2024-03-25T08:45:33.000Z</time>
</trkpt>
<trkpt lat="45.8632480" lon="9.3285530">
	<ele>1233.40</ele>
	<time>2024-03-25T08:45:34.000Z</time>
</trkpt>
<trkpt lat="45.8632410" lon="9.3285470">
	<ele>1233.60</ele>
	<time>2024-03-25T08:45:35.000Z</time>
</trkpt>
<trkpt lat="45.8632350" lon="9.3285470">
	<ele>1233.80</ele>
	<time>2024-03-25T08:45:36.000Z</time>
</trkpt>
<trkpt lat="45.8632300" lon="9.3285530">
	<ele>1234.00</ele>
	<time>2024-03-25T08:45:37.000Z</time>
</trkpt>
<trkpt lat="45.8632230" lon="9.3285630">
	<ele>1234.20</ele>
	<time>2024-03-25T08:45:38.000Z</time>
</trkpt>
<trkpt lat="45.8632140" lon="9.3285680">
	<ele>1234.40</ele>
	<time>2024-03-25T08:45:39.000Z</time>
</trkpt>
<trkpt lat="45.8632080" lon="9.3285700">
	<ele>1234.60</ele>
	<time>2024-03-25T08:45:40.000Z</time>
</trkpt>
<trkpt lat="45.8632040" lon="9.3285740">
	<ele>1234.80</ele>
	<time>2024-03-25T08:45:41.000Z</time>
</trkpt>
<trkpt lat="45.8631990" lon="9.3285730">
	<ele>1235.00</ele>
	<time>2024-03-25T08:45:42.000Z</time>
</trkpt>
<trkpt lat="45.8631980" lon="9.3285770">
	<ele>1235.40</ele>
	<time>2024-03-25T08:45:43.000Z</time>
</trkpt>
<trkpt lat="45.8631960" lon="9.3285790">
	<ele>1235.40</ele>
	<time>2024-03-25T08:45:44.000Z</time>
</trkpt>
<trkpt lat="45.8631970" lon="9.3285830">
	<ele>1235.60</ele>
	<time>2024-03-25T08:45:45.000Z</time>
</trkpt>
<trkpt lat="45.8631930" lon="9.3285920">
	<ele>1235.80</ele>
	<time>2024-03-25T08:45:46.000Z</time>
</trkpt>
<trkpt lat="45.8631860" lon="9.3286040">
	<ele>1236.20</ele>
	<time>2024-03-25T08:45:47.000Z</time>
</trkpt>
<trkpt lat="45.8631860" lon="9.3286150">
	<ele>1236.40</ele>
	<time>2024-03-25T08:45:48.000Z</time>
</trkpt>
<trkpt lat="45.8631780" lon="9.3286230">
	<ele>1236.60</ele>
	<time>2024-03-25T08:45:49.000Z</time>
</trkpt>
<trkpt lat="45.8631730" lon="9.3286300">
	<ele>1237.00</ele>
	<time>2024-03-25T08:45:50.000Z</time>
</trkpt>
<trkpt lat="45.8631720" lon="9.3286360">
	<ele>1237.20</ele>
	<time>2024-03-25T08:45:51.000Z</time>
</trkpt>
<trkpt lat="45.8631710" lon="9.3286450">
	<ele>1237.20</ele>
	<time>2024-03-25T08:45:52.000Z</time>
</trkpt>
<trkpt lat="45.8631690" lon="9.3286490">
	<ele>1237.40</ele>
	<time>2024-03-25T08:45:53.000Z</time>
</trkpt>
<trkpt lat="45.8631680" lon="9.3286520">
	<ele>1237.40</ele>
	<time>2024-03-25T08:45:54.000Z</time>
</trkpt>
<trkpt lat="45.8631680" lon="9.3286540">
	<ele>1237.40</ele>
	<time>2024-03-25T08:45:55.000Z</time>
</trkpt>
<trkpt lat="45.8631680" lon="9.3286560">
	<ele>1237.40</ele>
	<time>2024-03-25T08:45:56.000Z</time>
</trkpt>
<trkpt lat="45.8631670" lon="9.3286550">
	<ele>1237.40</ele>
	<time>2024-03-25T08:45:57.000Z</time>
</trkpt>
<trkpt lat="45.8631670" lon="9.3286540">
	<ele>1237.40</ele>
	<time>2024-03-25T08:45:58.000Z</time>
</trkpt>
<trkpt lat="45.8631680" lon="9.3286540">
	<ele>1237.40</ele>
	<time>2024-03-25T08:45:59.000Z</time>
</trkpt>
<trkpt lat="45.8631690" lon="9.3286550">
	<ele>1237.40</ele>
	<time>2024-03-25T08:46:00.000Z</time>
</trkpt>
<trkpt lat="45.8631710" lon="9.3286570">
	<ele>1237.40</ele>
	<time>2024-03-25T08:46:01.000Z</time>
</trkpt>
<trkpt lat="45.8631800" lon="9.3286570">
	<ele>1237.40</ele>
	<time>2024-03-25T08:46:02.000Z</time>
</trkpt>
<trkpt lat="45.8631800" lon="9.3286570">
	<ele>1237.40</ele>
	<time>2024-03-25T08:46:03.000Z</time>
</trkpt>
<trkpt lat="45.8631800" lon="9.3286570">
	<ele>1237.60</ele>
	<time>2024-03-25T08:46:04.000Z</time>
</trkpt>
<trkpt lat="45.8631800" lon="9.3286570">
	<ele>1237.80</ele>
	<time>2024-03-25T08:46:05.000Z</time>
</trkpt>
<trkpt lat="45.8631800" lon="9.3286570">
	<ele>1237.80</ele>
	<time>2024-03-25T08:46:06.000Z</time>
</trkpt>
<trkpt lat="45.8631800" lon="9.3286570">
	<ele>1237.80</ele>
	<time>2024-03-25T08:46:07.000Z</time>
</trkpt>
<trkpt lat="45.8631800" lon="9.3286570">
	<ele>1238.00</ele>
	<time>2024-03-25T08:46:08.000Z</time>
</trkpt>
<trkpt lat="45.8631800" lon="9.3286570">
	<ele>1238.00</ele>
	<time>2024-03-25T08:46:09.000Z</time>
</trkpt>
<trkpt lat="45.8631800" lon="9.3286570">
	<ele>1237.80</ele>
	<time>2024-03-25T08:46:10.000Z</time>
</trkpt>
<trkpt lat="45.8631800" lon="9.3286570">
	<ele>1237.80</ele>
	<time>2024-03-25T08:46:11.000Z</time>
</trkpt>
<trkpt lat="45.8631800" lon="9.3286570">
	<ele>1237.80</ele>
	<time>2024-03-25T08:46:12.000Z</time>
</trkpt>
<trkpt lat="45.8631800" lon="9.3286570">
	<ele>1237.80</ele>
	<time>2024-03-25T08:46:13.000Z</time>
</trkpt>
<trkpt lat="45.8631800" lon="9.3286570">
	<ele>1237.80</ele>
	<time>2024-03-25T08:46:14.000Z</time>
</trkpt>
<trkpt lat="45.8631800" lon="9.3286570">
	<ele>1238.00</ele>
	<time>2024-03-25T08:46:15.000Z</time>
</trkpt>
<trkpt lat="45.8631800" lon="9.3286570">
	<ele>1238.00</ele>
	<time>2024-03-25T08:46:16.000Z</time>
</trkpt>
<trkpt lat="45.8631800" lon="9.3286570">
	<ele>1238.00</ele>
	<time>2024-03-25T08:46:17.000Z</time>
</trkpt>
<trkpt lat="45.8631770" lon="9.3286570">
	<ele>1238.00</ele>
	<time>2024-03-25T08:46:18.000Z</time>
</trkpt>
<trkpt lat="45.8631710" lon="9.3286570">
	<ele>1238.00</ele>
	<time>2024-03-25T08:46:19.000Z</time>
</trkpt>
<trkpt lat="45.8631690" lon="9.3286570">
	<ele>1238.00</ele>
	<time>2024-03-25T08:46:20.000Z</time>
</trkpt>
<trkpt lat="45.8631690" lon="9.3286570">
	<ele>1238.00</ele>
	<time>2024-03-25T08:46:21.000Z</time>
</trkpt>
<trkpt lat="45.8631680" lon="9.3286590">
	<ele>1238.00</ele>
	<time>2024-03-25T08:46:22.000Z</time>
</trkpt>
<trkpt lat="45.8631680" lon="9.3286600">
	<ele>1238.00</ele>
	<time>2024-03-25T08:46:23.000Z</time>
</trkpt>
<trkpt lat="45.8631680" lon="9.3286620">
	<ele>1238.00</ele>
	<time>2024-03-25T08:46:24.000Z</time>
</trkpt>
<trkpt lat="45.8631670" lon="9.3286650">
	<ele>1238.00</ele>
	<time>2024-03-25T08:46:25.000Z</time>
</trkpt>
<trkpt lat="45.8631670" lon="9.3286660">
	<ele>1238.00</ele>
	<time>2024-03-25T08:46:26.000Z</time>
</trkpt>
<trkpt lat="45.8631630" lon="9.3286710">
	<ele>1238.00</ele>
	<time>2024-03-25T08:46:27.000Z</time>
</trkpt>
<trkpt lat="45.8631600" lon="9.3286760">
	<ele>1238.00</ele>
	<time>2024-03-25T08:46:28.000Z</time>
</trkpt>
<trkpt lat="45.8631590" lon="9.3286790">
	<ele>1238.00</ele>
	<time>2024-03-25T08:46:29.000Z</time>
</trkpt>
<trkpt lat="45.8631580" lon="9.3286790">
	<ele>1238.00</ele>
	<time>2024-03-25T08:46:30.000Z</time>
</trkpt>
<trkpt lat="45.8631580" lon="9.3286800">
	<ele>1238.00</ele>
	<time>2024-03-25T08:46:31.000Z</time>
</trkpt>
<trkpt lat="45.8631570" lon="9.3286800">
	<ele>1238.00</ele>
	<time>2024-03-25T08:46:32.000Z</time>
</trkpt>
<trkpt lat="45.8631570" lon="9.3286800">
	<ele>1238.00</ele>
	<time>2024-03-25T08:46:33.000Z</time>
</trkpt>
<trkpt lat="45.8631570" lon="9.3286800">
	<ele>1238.00</ele>
	<time>2024-03-25T08:46:34.000Z</time>
</trkpt>
<trkpt lat="45.8631570" lon="9.3286810">
	<ele>1238.00</ele>
	<time>2024-03-25T08:46:35.000Z</time>
</trkpt>
<trkpt lat="45.8631560" lon="9.3286810">
	<ele>1238.00</ele>
	<time>2024-03-25T08:46:36.000Z</time>
</trkpt>
<trkpt lat="45.8631560" lon="9.3286820">
	<ele>1238.00</ele>
	<time>2024-03-25T08:46:37.000Z</time>
</trkpt>
<trkpt lat="45.8631560" lon="9.3286820">
	<ele>1238.00</ele>
	<time>2024-03-25T08:46:38.000Z</time>
</trkpt>
<trkpt lat="45.8631550" lon="9.3286820">
	<ele>1238.00</ele>
	<time>2024-03-25T08:46:39.000Z</time>
</trkpt>
<trkpt lat="45.8631550" lon="9.3286820">
	<ele>1238.20</ele>
	<time>2024-03-25T08:46:40.000Z</time>
</trkpt>
<trkpt lat="45.8631550" lon="9.3286820">
	<ele>1238.20</ele>
	<time>2024-03-25T08:46:41.000Z</time>
</trkpt>
<trkpt lat="45.8631550" lon="9.3286820">
	<ele>1238.20</ele>
	<time>2024-03-25T08:46:42.000Z</time>
</trkpt>
<trkpt lat="45.8631550" lon="9.3286820">
	<ele>1238.20</ele>
	<time>2024-03-25T08:46:43.000Z</time>
</trkpt>
<trkpt lat="45.8631550" lon="9.3286820">
	<ele>1238.20</ele>
	<time>2024-03-25T08:46:44.000Z</time>
</trkpt>
<trkpt lat="45.8631550" lon="9.3286820">
	<ele>1238.20</ele>
	<time>2024-03-25T08:46:45.000Z</time>
</trkpt>
<trkpt lat="45.8631550" lon="9.3286820">
	<ele>1238.40</ele>
	<time>2024-03-25T08:46:46.000Z</time>
</trkpt>
<trkpt lat="45.8631550" lon="9.3286830">
	<ele>1238.40</ele>
	<time>2024-03-25T08:46:47.000Z</time>
</trkpt>
<trkpt lat="45.8631550" lon="9.3286830">
	<ele>1238.40</ele>
	<time>2024-03-25T08:46:48.000Z</time>
</trkpt>
<trkpt lat="45.8631550" lon="9.3286830">
	<ele>1238.40</ele>
	<time>2024-03-25T08:46:49.000Z</time>
</trkpt>
<trkpt lat="45.8631550" lon="9.3286830">
	<ele>1238.20</ele>
	<time>2024-03-25T08:46:50.000Z</time>
</trkpt>
<trkpt lat="45.8631550" lon="9.3286840">
	<ele>1238.20</ele>
	<time>2024-03-25T08:46:51.000Z</time>
</trkpt>
<trkpt lat="45.8631560" lon="9.3286840">
	<ele>1238.20</ele>
	<time>2024-03-25T08:46:52.000Z</time>
</trkpt>
<trkpt lat="45.8631550" lon="9.3286840">
	<ele>1238.20</ele>
	<time>2024-03-25T08:46:53.000Z</time>
</trkpt>
<trkpt lat="45.8631550" lon="9.3286830">
	<ele>1238.20</ele>
	<time>2024-03-25T08:46:54.000Z</time>
</trkpt>
<trkpt lat="45.8631550" lon="9.3286830">
	<ele>1238.20</ele>
	<time>2024-03-25T08:46:55.000Z</time>
</trkpt>
<trkpt lat="45.8631550" lon="9.3286830">
	<ele>1238.00</ele>
	<time>2024-03-25T08:46:56.000Z</time>
</trkpt>
<trkpt lat="45.8631550" lon="9.3286830">
	<ele>1238.00</ele>
	<time>2024-03-25T08:46:57.000Z</time>
</trkpt>
<trkpt lat="45.8631550" lon="9.3286830">
	<ele>1238.00</ele>
	<time>2024-03-25T08:46:58.000Z</time>
</trkpt>
<trkpt lat="45.8631550" lon="9.3286830">
	<ele>1238.00</ele>
	<time>2024-03-25T08:46:59.000Z</time>
</trkpt>
<trkpt lat="45.8631540" lon="9.3286830">
	<ele>1238.00</ele>
	<time>2024-03-25T08:47:00.000Z</time>
</trkpt>
<trkpt lat="45.8631550" lon="9.3286830">
	<ele>1238.00</ele>
	<time>2024-03-25T08:47:01.000Z</time>
</trkpt>
<trkpt lat="45.8631550" lon="9.3286830">
	<ele>1238.00</ele>
	<time>2024-03-25T08:47:02.000Z</time>
</trkpt>
<trkpt lat="45.8631550" lon="9.3286830">
	<ele>1238.00</ele>
	<time>2024-03-25T08:47:03.000Z</time>
</trkpt>
<trkpt lat="45.8631550" lon="9.3286830">
	<ele>1238.00</ele>
	<time>2024-03-25T08:47:04.000Z</time>
</trkpt>
<trkpt lat="45.8631550" lon="9.3286830">
	<ele>1238.00</ele>
	<time>2024-03-25T08:47:05.000Z</time>
</trkpt>
<trkpt lat="45.8631560" lon="9.3286830">
	<ele>1238.00</ele>
	<time>2024-03-25T08:47:06.000Z</time>
</trkpt>
<trkpt lat="45.8631560" lon="9.3286830">
	<ele>1237.80</ele>
	<time>2024-03-25T08:47:07.000Z</time>
</trkpt>
<trkpt lat="45.8631560" lon="9.3286820">
	<ele>1238.00</ele>
	<time>2024-03-25T08:47:08.000Z</time>
</trkpt>
<trkpt lat="45.8631570" lon="9.3286800">
	<ele>1237.80</ele>
	<time>2024-03-25T08:47:09.000Z</time>
</trkpt>
<trkpt lat="45.8631570" lon="9.3286790">
	<ele>1237.80</ele>
	<time>2024-03-25T08:47:10.000Z</time>
</trkpt>
<trkpt lat="45.8631570" lon="9.3286770">
	<ele>1237.80</ele>
	<time>2024-03-25T08:47:11.000Z</time>
</trkpt>
<trkpt lat="45.8631570" lon="9.3286750">
	<ele>1237.80</ele>
	<time>2024-03-25T08:47:12.000Z</time>
</trkpt>
<trkpt lat="45.8631570" lon="9.3286740">
	<ele>1237.80</ele>
	<time>2024-03-25T08:47:13.000Z</time>
</trkpt>
<trkpt lat="45.8631570" lon="9.3286730">
	<ele>1237.80</ele>
	<time>2024-03-25T08:47:14.000Z</time>
</trkpt>
<trkpt lat="45.8631560" lon="9.3286720">
	<ele>1237.80</ele>
	<time>2024-03-25T08:47:15.000Z</time>
</trkpt>
<trkpt lat="45.8631560" lon="9.3286720">
	<ele>1237.80</ele>
	<time>2024-03-25T08:47:16.000Z</time>
</trkpt>
<trkpt lat="45.8631550" lon="9.3286710">
	<ele>1237.80</ele>
	<time>2024-03-25T08:47:17.000Z</time>
</trkpt>
<trkpt lat="45.8631550" lon="9.3286710">
	<ele>1237.80</ele>
	<time>2024-03-25T08:47:18.000Z</time>
</trkpt>
<trkpt lat="45.8631550" lon="9.3286710">
	<ele>1237.80</ele>
	<time>2024-03-25T08:47:19.000Z</time>
</trkpt>
<trkpt lat="45.8631550" lon="9.3286710">
	<ele>1237.80</ele>
	<time>2024-03-25T08:47:20.000Z</time>
</trkpt>
<trkpt lat="45.8631540" lon="9.3286710">
	<ele>1237.80</ele>
	<time>2024-03-25T08:47:21.000Z</time>
</trkpt>
<trkpt lat="45.8631500" lon="9.3286730">
	<ele>1237.80</ele>
	<time>2024-03-25T08:47:22.000Z</time>
</trkpt>
<trkpt lat="45.8631360" lon="9.3286870">
	<ele>1237.80</ele>
	<time>2024-03-25T08:47:23.000Z</time>
</trkpt>
<trkpt lat="45.8631270" lon="9.3287010">
	<ele>1237.80</ele>
	<time>2024-03-25T08:47:24.000Z</time>
</trkpt>
<trkpt lat="45.8631200" lon="9.3287110">
	<ele>1237.80</ele>
	<time>2024-03-25T08:47:25.000Z</time>
</trkpt>
<trkpt lat="45.8631080" lon="9.3287150">
	<ele>1237.80</ele>
	<time>2024-03-25T08:47:26.000Z</time>
</trkpt>
<trkpt lat="45.8630950" lon="9.3287190">
	<ele>1237.80</ele>
	<time>2024-03-25T08:47:27.000Z</time>
</trkpt>
<trkpt lat="45.8630840" lon="9.3287250">
	<ele>1237.80</ele>
	<time>2024-03-25T08:47:28.000Z</time>
</trkpt>
<trkpt lat="45.8630700" lon="9.3287290">
	<ele>1237.80</ele>
	<time>2024-03-25T08:47:29.000Z</time>
</trkpt>
<trkpt lat="45.8630570" lon="9.3287350">
	<ele>1237.80</ele>
	<time>2024-03-25T08:47:30.000Z</time>
</trkpt>
<trkpt lat="45.8630460" lon="9.3287420">
	<ele>1237.80</ele>
	<time>2024-03-25T08:47:31.000Z</time>
</trkpt>
<trkpt lat="45.8630370" lon="9.3287460">
	<ele>1238.60</ele>
	<time>2024-03-25T08:47:32.000Z</time>
</trkpt>
<trkpt lat="45.8630270" lon="9.3287530">
	<ele>1239.20</ele>
	<time>2024-03-25T08:47:33.000Z</time>
</trkpt>
<trkpt lat="45.8630180" lon="9.3287600">
	<ele>1239.80</ele>
	<time>2024-03-25T08:47:34.000Z</time>
</trkpt>
<trkpt lat="45.8630100" lon="9.3287710">
	<ele>1240.00</ele>
	<time>2024-03-25T08:47:35.000Z</time>
</trkpt>
<trkpt lat="45.8630030" lon="9.3287790">
	<ele>1240.20</ele>
	<time>2024-03-25T08:47:36.000Z</time>
</trkpt>
<trkpt lat="45.8629970" lon="9.3287900">
	<ele>1240.40</ele>
	<time>2024-03-25T08:47:37.000Z</time>
</trkpt>
<trkpt lat="45.8629890" lon="9.3287990">
	<ele>1240.40</ele>
	<time>2024-03-25T08:47:38.000Z</time>
</trkpt>
<trkpt lat="45.8629770" lon="9.3288070">
	<ele>1240.40</ele>
	<time>2024-03-25T08:47:39.000Z</time>
</trkpt>
<trkpt lat="45.8629650" lon="9.3288160">
	<ele>1240.60</ele>
	<time>2024-03-25T08:47:40.000Z</time>
</trkpt>
<trkpt lat="45.8629620" lon="9.3288320">
	<ele>1240.60</ele>
	<time>2024-03-25T08:47:41.000Z</time>
</trkpt>
<trkpt lat="45.8629550" lon="9.3288470">
	<ele>1240.80</ele>
	<time>2024-03-25T08:47:42.000Z</time>
</trkpt>
<trkpt lat="45.8629480" lon="9.3288610">
	<ele>1240.80</ele>
	<time>2024-03-25T08:47:43.000Z</time>
</trkpt>
<trkpt lat="45.8629410" lon="9.3288740">
	<ele>1240.80</ele>
	<time>2024-03-25T08:47:44.000Z</time>
</trkpt>
<trkpt lat="45.8629310" lon="9.3288850">
	<ele>1241.00</ele>
	<time>2024-03-25T08:47:45.000Z</time>
</trkpt>
<trkpt lat="45.8629200" lon="9.3288950">
	<ele>1241.20</ele>
	<time>2024-03-25T08:47:46.000Z</time>
</trkpt>
<trkpt lat="45.8629100" lon="9.3289040">
	<ele>1241.20</ele>
	<time>2024-03-25T08:47:47.000Z</time>
</trkpt>
<trkpt lat="45.8629060" lon="9.3289130">
	<ele>1241.40</ele>
	<time>2024-03-25T08:47:48.000Z</time>
</trkpt>
<trkpt lat="45.8629000" lon="9.3289190">
	<ele>1241.40</ele>
	<time>2024-03-25T08:47:49.000Z</time>
</trkpt>
<trkpt lat="45.8628890" lon="9.3289270">
	<ele>1241.60</ele>
	<time>2024-03-25T08:47:50.000Z</time>
</trkpt>
<trkpt lat="45.8628800" lon="9.3289370">
	<ele>1241.60</ele>
	<time>2024-03-25T08:47:51.000Z</time>
</trkpt>
<trkpt lat="45.8628710" lon="9.3289480">
	<ele>1241.60</ele>
	<time>2024-03-25T08:47:52.000Z</time>
</trkpt>
<trkpt lat="45.8628630" lon="9.3289610">
	<ele>1241.60</ele>
	<time>2024-03-25T08:47:53.000Z</time>
</trkpt>
<trkpt lat="45.8628590" lon="9.3289680">
	<ele>1241.80</ele>
	<time>2024-03-25T08:47:54.000Z</time>
</trkpt>
<trkpt lat="45.8628550" lon="9.3289720">
	<ele>1241.80</ele>
	<time>2024-03-25T08:47:55.000Z</time>
</trkpt>
<trkpt lat="45.8628510" lon="9.3289780">
	<ele>1241.80</ele>
	<time>2024-03-25T08:47:56.000Z</time>
</trkpt>
<trkpt lat="45.8628510" lon="9.3289800">
	<ele>1241.80</ele>
	<time>2024-03-25T08:47:57.000Z</time>
</trkpt>
<trkpt lat="45.8628510" lon="9.3289800">
	<ele>1241.80</ele>
	<time>2024-03-25T08:47:58.000Z</time>
</trkpt>
<trkpt lat="45.8628490" lon="9.3289780">
	<ele>1241.80</ele>
	<time>2024-03-25T08:47:59.000Z</time>
</trkpt>
<trkpt lat="45.8628450" lon="9.3289760">
	<ele>1241.80</ele>
	<time>2024-03-25T08:48:00.000Z</time>
</trkpt>
<trkpt lat="45.8628360" lon="9.3289740">
	<ele>1241.80</ele>
	<time>2024-03-25T08:48:01.000Z</time>
</trkpt>
<trkpt lat="45.8628280" lon="9.3289720">
	<ele>1242.00</ele>
	<time>2024-03-25T08:48:02.000Z</time>
</trkpt>
<trkpt lat="45.8628220" lon="9.3289710">
	<ele>1242.20</ele>
	<time>2024-03-25T08:48:03.000Z</time>
</trkpt>
<trkpt lat="45.8628200" lon="9.3289720">
	<ele>1242.40</ele>
	<time>2024-03-25T08:48:04.000Z</time>
</trkpt>
<trkpt lat="45.8628180" lon="9.3289730">
	<ele>1242.40</ele>
	<time>2024-03-25T08:48:05.000Z</time>
</trkpt>
<trkpt lat="45.8628170" lon="9.3289750">
	<ele>1242.60</ele>
	<time>2024-03-25T08:48:06.000Z</time>
</trkpt>
<trkpt lat="45.8628170" lon="9.3289750">
	<ele>1242.80</ele>
	<time>2024-03-25T08:48:07.000Z</time>
</trkpt>
<trkpt lat="45.8628180" lon="9.3289750">
	<ele>1243.00</ele>
	<time>2024-03-25T08:48:08.000Z</time>
</trkpt>
<trkpt lat="45.8628180" lon="9.3289770">
	<ele>1243.00</ele>
	<time>2024-03-25T08:48:09.000Z</time>
</trkpt>
<trkpt lat="45.8628190" lon="9.3289790">
	<ele>1243.00</ele>
	<time>2024-03-25T08:48:10.000Z</time>
</trkpt>
<trkpt lat="45.8628200" lon="9.3289800">
	<ele>1243.00</ele>
	<time>2024-03-25T08:48:11.000Z</time>
</trkpt>
<trkpt lat="45.8628210" lon="9.3289800">
	<ele>1242.80</ele>
	<time>2024-03-25T08:48:12.000Z</time>
</trkpt>
<trkpt lat="45.8628220" lon="9.3289810">
	<ele>1242.80</ele>
	<time>2024-03-25T08:48:13.000Z</time>
</trkpt>
<trkpt lat="45.8628210" lon="9.3289790">
	<ele>1242.80</ele>
	<time>2024-03-25T08:48:14.000Z</time>
</trkpt>
<trkpt lat="45.8628210" lon="9.3289790">
	<ele>1242.80</ele>
	<time>2024-03-25T08:48:15.000Z</time>
</trkpt>
<trkpt lat="45.8628210" lon="9.3289790">
	<ele>1242.80</ele>
	<time>2024-03-25T08:48:16.000Z</time>
</trkpt>
<trkpt lat="45.8628210" lon="9.3289790">
	<ele>1242.60</ele>
	<time>2024-03-25T08:48:17.000Z</time>
</trkpt>
<trkpt lat="45.8628210" lon="9.3289790">
	<ele>1242.80</ele>
	<time>2024-03-25T08:48:18.000Z</time>
</trkpt>
<trkpt lat="45.8628210" lon="9.3289790">
	<ele>1242.80</ele>
	<time>2024-03-25T08:48:19.000Z</time>
</trkpt>
<trkpt lat="45.8628210" lon="9.3289790">
	<ele>1242.80</ele>
	<time>2024-03-25T08:48:20.000Z</time>
</trkpt>
<trkpt lat="45.8628210" lon="9.3289790">
	<ele>1242.80</ele>
	<time>2024-03-25T08:48:21.000Z</time>
</trkpt>
<trkpt lat="45.8628210" lon="9.3289790">
	<ele>1242.60</ele>
	<time>2024-03-25T08:48:22.000Z</time>
</trkpt>
<trkpt lat="45.8628210" lon="9.3289790">
	<ele>1242.60</ele>
	<time>2024-03-25T08:48:23.000Z</time>
</trkpt>
<trkpt lat="45.8628200" lon="9.3289790">
	<ele>1242.80</ele>
	<time>2024-03-25T08:48:24.000Z</time>
</trkpt>
<trkpt lat="45.8628200" lon="9.3289790">
	<ele>1242.80</ele>
	<time>2024-03-25T08:48:25.000Z</time>
</trkpt>
<trkpt lat="45.8628200" lon="9.3289790">
	<ele>1242.80</ele>
	<time>2024-03-25T08:48:26.000Z</time>
</trkpt>
<trkpt lat="45.8628200" lon="9.3289800">
	<ele>1242.80</ele>
	<time>2024-03-25T08:48:27.000Z</time>
</trkpt>
<trkpt lat="45.8628200" lon="9.3289800">
	<ele>1242.80</ele>
	<time>2024-03-25T08:48:28.000Z</time>
</trkpt>
<trkpt lat="45.8628200" lon="9.3289810">
	<ele>1242.80</ele>
	<time>2024-03-25T08:48:29.000Z</time>
</trkpt>
<trkpt lat="45.8628200" lon="9.3289820">
	<ele>1242.80</ele>
	<time>2024-03-25T08:48:30.000Z</time>
</trkpt>
<trkpt lat="45.8628200" lon="9.3289820">
	<ele>1242.80</ele>
	<time>2024-03-25T08:48:31.000Z</time>
</trkpt>
<trkpt lat="45.8628200" lon="9.3289830">
	<ele>1242.80</ele>
	<time>2024-03-25T08:48:32.000Z</time>
</trkpt>
<trkpt lat="45.8628200" lon="9.3289830">
	<ele>1242.80</ele>
	<time>2024-03-25T08:48:33.000Z</time>
</trkpt>
<trkpt lat="45.8628200" lon="9.3289830">
	<ele>1242.80</ele>
	<time>2024-03-25T08:48:34.000Z</time>
</trkpt>
<trkpt lat="45.8628200" lon="9.3289830">
	<ele>1242.80</ele>
	<time>2024-03-25T08:48:35.000Z</time>
</trkpt>
<trkpt lat="45.8628200" lon="9.3289830">
	<ele>1242.80</ele>
	<time>2024-03-25T08:48:36.000Z</time>
</trkpt>
<trkpt lat="45.8628200" lon="9.3289830">
	<ele>1243.00</ele>
	<time>2024-03-25T08:48:37.000Z</time>
</trkpt>
<trkpt lat="45.8628210" lon="9.3289830">
	<ele>1243.00</ele>
	<time>2024-03-25T08:48:38.000Z</time>
</trkpt>
<trkpt lat="45.8628210" lon="9.3289830">
	<ele>1243.00</ele>
	<time>2024-03-25T08:48:39.000Z</time>
</trkpt>
<trkpt lat="45.8628210" lon="9.3289830">
	<ele>1243.00</ele>
	<time>2024-03-25T08:48:40.000Z</time>
</trkpt>
<trkpt lat="45.8628210" lon="9.3289830">
	<ele>1243.00</ele>
	<time>2024-03-25T08:48:41.000Z</time>
</trkpt>
<trkpt lat="45.8628210" lon="9.3289840">
	<ele>1243.00</ele>
	<time>2024-03-25T08:48:42.000Z</time>
</trkpt>
<trkpt lat="45.8628200" lon="9.3289840">
	<ele>1243.20</ele>
	<time>2024-03-25T08:48:43.000Z</time>
</trkpt>
<trkpt lat="45.8628160" lon="9.3289850">
	<ele>1243.40</ele>
	<time>2024-03-25T08:48:44.000Z</time>
</trkpt>
<trkpt lat="45.8628080" lon="9.3289860">
	<ele>1243.60</ele>
	<time>2024-03-25T08:48:45.000Z</time>
</trkpt>
<trkpt lat="45.8628000" lon="9.3289860">
	<ele>1243.60</ele>
	<time>2024-03-25T08:48:46.000Z</time>
</trkpt>
<trkpt lat="45.8627920" lon="9.3289860">
	<ele>1243.80</ele>
	<time>2024-03-25T08:48:47.000Z</time>
</trkpt>
<trkpt lat="45.8627860" lon="9.3289890">
	<ele>1243.80</ele>
	<time>2024-03-25T08:48:48.000Z</time>
</trkpt>
<trkpt lat="45.8627820" lon="9.3289920">
	<ele>1244.00</ele>
	<time>2024-03-25T08:48:49.000Z</time>
</trkpt>
<trkpt lat="45.8627800" lon="9.3290020">
	<ele>1244.00</ele>
	<time>2024-03-25T08:48:50.000Z</time>
</trkpt>
<trkpt lat="45.8627770" lon="9.3290070">
	<ele>1244.00</ele>
	<time>2024-03-25T08:48:51.000Z</time>
</trkpt>
<trkpt lat="45.8627750" lon="9.3290070">
	<ele>1244.00</ele>
	<time>2024-03-25T08:48:52.000Z</time>
</trkpt>
<trkpt lat="45.8627630" lon="9.3290110">
	<ele>1244.00</ele>
	<time>2024-03-25T08:48:53.000Z</time>
</trkpt>
<trkpt lat="45.8627650" lon="9.3290080">
	<ele>1244.00</ele>
	<time>2024-03-25T08:48:54.000Z</time>
</trkpt>
<trkpt lat="45.8627650" lon="9.3290070">
	<ele>1244.20</ele>
	<time>2024-03-25T08:48:55.000Z</time>
</trkpt>
<trkpt lat="45.8627660" lon="9.3290060">
	<ele>1244.20</ele>
	<time>2024-03-25T08:48:56.000Z</time>
</trkpt>
<trkpt lat="45.8627660" lon="9.3290050">
	<ele>1244.00</ele>
	<time>2024-03-25T08:48:57.000Z</time>
</trkpt>
<trkpt lat="45.8627660" lon="9.3290030">
	<ele>1244.00</ele>
	<time>2024-03-25T08:48:58.000Z</time>
</trkpt>
<trkpt lat="45.8627640" lon="9.3290030">
	<ele>1244.00</ele>
	<time>2024-03-25T08:48:59.000Z</time>
</trkpt>
<trkpt lat="45.8627630" lon="9.3290050">
	<ele>1244.00</ele>
	<time>2024-03-25T08:49:00.000Z</time>
</trkpt>
<trkpt lat="45.8627620" lon="9.3290060">
	<ele>1244.00</ele>
	<time>2024-03-25T08:49:01.000Z</time>
</trkpt>
<trkpt lat="45.8627630" lon="9.3290070">
	<ele>1244.00</ele>
	<time>2024-03-25T08:49:02.000Z</time>
</trkpt>
<trkpt lat="45.8627640" lon="9.3290090">
	<ele>1244.00</ele>
	<time>2024-03-25T08:49:03.000Z</time>
</trkpt>
<trkpt lat="45.8627650" lon="9.3290130">
	<ele>1243.80</ele>
	<time>2024-03-25T08:49:04.000Z</time>
</trkpt>
<trkpt lat="45.8627650" lon="9.3290140">
	<ele>1243.80</ele>
	<time>2024-03-25T08:49:05.000Z</time>
</trkpt>
<trkpt lat="45.8627650" lon="9.3290140">
	<ele>1244.00</ele>
	<time>2024-03-25T08:49:06.000Z</time>
</trkpt>
<trkpt lat="45.8627650" lon="9.3290140">
	<ele>1243.80</ele>
	<time>2024-03-25T08:49:07.000Z</time>
</trkpt>
<trkpt lat="45.8627650" lon="9.3290140">
	<ele>1243.80</ele>
	<time>2024-03-25T08:49:08.000Z</time>
</trkpt>
<trkpt lat="45.8627650" lon="9.3290140">
	<ele>1243.80</ele>
	<time>2024-03-25T08:49:09.000Z</time>
</trkpt>
<trkpt lat="45.8627650" lon="9.3290140">
	<ele>1243.80</ele>
	<time>2024-03-25T08:49:10.000Z</time>
</trkpt>
<trkpt lat="45.8627650" lon="9.3290140">
	<ele>1243.60</ele>
	<time>2024-03-25T08:49:11.000Z</time>
</trkpt>
<trkpt lat="45.8627650" lon="9.3290140">
	<ele>1243.60</ele>
	<time>2024-03-25T08:49:12.000Z</time>
</trkpt>
<trkpt lat="45.8627650" lon="9.3290140">
	<ele>1243.60</ele>
	<time>2024-03-25T08:49:13.000Z</time>
</trkpt>
<trkpt lat="45.8627650" lon="9.3290140">
	<ele>1243.60</ele>
	<time>2024-03-25T08:49:14.000Z</time>
</trkpt>
<trkpt lat="45.8627650" lon="9.3290140">
	<ele>1243.60</ele>
	<time>2024-03-25T08:49:15.000Z</time>
</trkpt>
<trkpt lat="45.8627600" lon="9.3290170">
	<ele>1243.60</ele>
	<time>2024-03-25T08:49:16.000Z</time>
</trkpt>
<trkpt lat="45.8627460" lon="9.3290240">
	<ele>1243.60</ele>
	<time>2024-03-25T08:49:17.000Z</time>
</trkpt>
<trkpt lat="45.8627340" lon="9.3290320">
	<ele>1243.60</ele>
	<time>2024-03-25T08:49:18.000Z</time>
</trkpt>
<trkpt lat="45.8627210" lon="9.3290370">
	<ele>1243.60</ele>
	<time>2024-03-25T08:49:19.000Z</time>
</trkpt>
<trkpt lat="45.8627080" lon="9.3290420">
	<ele>1243.80</ele>
	<time>2024-03-25T08:49:20.000Z</time>
</trkpt>
<trkpt lat="45.8626980" lon="9.3290410">
	<ele>1244.00</ele>
	<time>2024-03-25T08:49:21.000Z</time>
</trkpt>
<trkpt lat="45.8626810" lon="9.3290460">
	<ele>1244.00</ele>
	<time>2024-03-25T08:49:22.000Z</time>
</trkpt>
<trkpt lat="45.8626710" lon="9.3290490">
	<ele>1244.20</ele>
	<time>2024-03-25T08:49:23.000Z</time>
</trkpt>
<trkpt lat="45.8626630" lon="9.3290580">
	<ele>1244.40</ele>
	<time>2024-03-25T08:49:24.000Z</time>
</trkpt>
<trkpt lat="45.8626510" lon="9.3290700">
	<ele>1244.60</ele>
	<time>2024-03-25T08:49:25.000Z</time>
</trkpt>
<trkpt lat="45.8626430" lon="9.3290670">
	<ele>1244.80</ele>
	<time>2024-03-25T08:49:26.000Z</time>
</trkpt>
<trkpt lat="45.8626340" lon="9.3290660">
	<ele>1245.00</ele>
	<time>2024-03-25T08:49:27.000Z</time>
</trkpt>
<trkpt lat="45.8626280" lon="9.3290690">
	<ele>1245.20</ele>
	<time>2024-03-25T08:49:28.000Z</time>
</trkpt>
<trkpt lat="45.8626220" lon="9.3290750">
	<ele>1245.40</ele>
	<time>2024-03-25T08:49:29.000Z</time>
</trkpt>
<trkpt lat="45.8626090" lon="9.3290840">
	<ele>1245.80</ele>
	<time>2024-03-25T08:49:30.000Z</time>
</trkpt>
<trkpt lat="45.8625960" lon="9.3290920">
	<ele>1245.80</ele>
	<time>2024-03-25T08:49:31.000Z</time>
</trkpt>
<trkpt lat="45.8625790" lon="9.3291010">
	<ele>1246.00</ele>
	<time>2024-03-25T08:49:32.000Z</time>
</trkpt>
<trkpt lat="45.8625650" lon="9.3291110">
	<ele>1246.20</ele>
	<time>2024-03-25T08:49:33.000Z</time>
</trkpt>
<trkpt lat="45.8625540" lon="9.3291110">
	<ele>1246.60</ele>
	<time>2024-03-25T08:49:34.000Z</time>
</trkpt>
<trkpt lat="45.8625460" lon="9.3291220">
	<ele>1246.60</ele>
	<time>2024-03-25T08:49:35.000Z</time>
</trkpt>
<trkpt lat="45.8625390" lon="9.3291380">
	<ele>1246.80</ele>
	<time>2024-03-25T08:49:36.000Z</time>
</trkpt>
<trkpt lat="45.8625300" lon="9.3291460">
	<ele>1246.80</ele>
	<time>2024-03-25T08:49:37.000Z</time>
</trkpt>
<trkpt lat="45.8625190" lon="9.3291500">
	<ele>1246.80</ele>
	<time>2024-03-25T08:49:38.000Z</time>
</trkpt>
<trkpt lat="45.8625160" lon="9.3291570">
	<ele>1246.80</ele>
	<time>2024-03-25T08:49:39.000Z</time>
</trkpt>
<trkpt lat="45.8625150" lon="9.3291610">
	<ele>1246.40</ele>
	<time>2024-03-25T08:49:40.000Z</time>
</trkpt>
<trkpt lat="45.8625110" lon="9.3291660">
	<ele>1246.20</ele>
	<time>2024-03-25T08:49:41.000Z</time>
</trkpt>
<trkpt lat="45.8625040" lon="9.3291730">
	<ele>1246.00</ele>
	<time>2024-03-25T08:49:42.000Z</time>
</trkpt>
<trkpt lat="45.8624970" lon="9.3291770">
	<ele>1245.60</ele>
	<time>2024-03-25T08:49:43.000Z</time>
</trkpt>
<trkpt lat="45.8624940" lon="9.3291840">
	<ele>1245.40</ele>
	<time>2024-03-25T08:49:44.000Z</time>
</trkpt>
<trkpt lat="45.8624900" lon="9.3291930">
	<ele>1245.40</ele>
	<time>2024-03-25T08:49:45.000Z</time>
</trkpt>
<trkpt lat="45.8624850" lon="9.3291990">
	<ele>1245.00</ele>
	<time>2024-03-25T08:49:46.000Z</time>
</trkpt>
<trkpt lat="45.8624830" lon="9.3292080">
	<ele>1245.00</ele>
	<time>2024-03-25T08:49:47.000Z</time>
</trkpt>
<trkpt lat="45.8624760" lon="9.3292120">
	<ele>1244.60</ele>
	<time>2024-03-25T08:49:48.000Z</time>
</trkpt>
<trkpt lat="45.8624660" lon="9.3292110">
	<ele>1244.40</ele>
	<time>2024-03-25T08:49:49.000Z</time>
</trkpt>
<trkpt lat="45.8624560" lon="9.3292110">
	<ele>1244.20</ele>
	<time>2024-03-25T08:49:50.000Z</time>
</trkpt>
<trkpt lat="45.8624470" lon="9.3292120">
	<ele>1244.20</ele>
	<time>2024-03-25T08:49:51.000Z</time>
</trkpt>
<trkpt lat="45.8624460" lon="9.3292130">
	<ele>1244.00</ele>
	<time>2024-03-25T08:49:52.000Z</time>
</trkpt>
<trkpt lat="45.8624380" lon="9.3292160">
	<ele>1243.80</ele>
	<time>2024-03-25T08:49:53.000Z</time>
</trkpt>
<trkpt lat="45.8624340" lon="9.3292240">
	<ele>1243.60</ele>
	<time>2024-03-25T08:49:54.000Z</time>
</trkpt>
<trkpt lat="45.8624310" lon="9.3292350">
	<ele>1243.40</ele>
	<time>2024-03-25T08:49:55.000Z</time>
</trkpt>
<trkpt lat="45.8624310" lon="9.3292380">
	<ele>1243.20</ele>
	<time>2024-03-25T08:49:56.000Z</time>
</trkpt>
<trkpt lat="45.8624320" lon="9.3292440">
	<ele>1243.00</ele>
	<time>2024-03-25T08:49:57.000Z</time>
</trkpt>
<trkpt lat="45.8624310" lon="9.3292460">
	<ele>1242.80</ele>
	<time>2024-03-25T08:49:58.000Z</time>
</trkpt>
<trkpt lat="45.8624310" lon="9.3292510">
	<ele>1242.80</ele>
	<time>2024-03-25T08:49:59.000Z</time>
</trkpt>
<trkpt lat="45.8624290" lon="9.3292590">
	<ele>1242.60</ele>
	<time>2024-03-25T08:50:00.000Z</time>
</trkpt>
<trkpt lat="45.8624210" lon="9.3292680">
	<ele>1242.60</ele>
	<time>2024-03-25T08:50:01.000Z</time>
</trkpt>
<trkpt lat="45.8624140" lon="9.3292780">
	<ele>1242.40</ele>
	<time>2024-03-25T08:50:02.000Z</time>
</trkpt>
<trkpt lat="45.8624110" lon="9.3292810">
	<ele>1242.40</ele>
	<time>2024-03-25T08:50:03.000Z</time>
</trkpt>
<trkpt lat="45.8624050" lon="9.3292830">
	<ele>1242.00</ele>
	<time>2024-03-25T08:50:04.000Z</time>
</trkpt>
<trkpt lat="45.8624100" lon="9.3292890">
	<ele>1241.80</ele>
	<time>2024-03-25T08:50:05.000Z</time>
</trkpt>
<trkpt lat="45.8624120" lon="9.3292980">
	<ele>1241.80</ele>
	<time>2024-03-25T08:50:06.000Z</time>
</trkpt>
<trkpt lat="45.8624110" lon="9.3293080">
	<ele>1241.40</ele>
	<time>2024-03-25T08:50:07.000Z</time>
</trkpt>
<trkpt lat="45.8624100" lon="9.3293130">
	<ele>1241.20</ele>
	<time>2024-03-25T08:50:08.000Z</time>
</trkpt>
<trkpt lat="45.8624080" lon="9.3293220">
	<ele>1240.80</ele>
	<time>2024-03-25T08:50:09.000Z</time>
</trkpt>
<trkpt lat="45.8624020" lon="9.3293320">
	<ele>1240.60</ele>
	<time>2024-03-25T08:50:10.000Z</time>
</trkpt>
<trkpt lat="45.8623950" lon="9.3293360">
	<ele>1240.40</ele>
	<time>2024-03-25T08:50:11.000Z</time>
</trkpt>
<trkpt lat="45.8623930" lon="9.3293410">
	<ele>1240.20</ele>
	<time>2024-03-25T08:50:12.000Z</time>
</trkpt>
<trkpt lat="45.8623920" lon="9.3293490">
	<ele>1240.00</ele>
	<time>2024-03-25T08:50:13.000Z</time>
</trkpt>
<trkpt lat="45.8623820" lon="9.3293550">
	<ele>1239.80</ele>
	<time>2024-03-25T08:50:14.000Z</time>
</trkpt>
<trkpt lat="45.8623780" lon="9.3293640">
	<ele>1239.60</ele>
	<time>2024-03-25T08:50:15.000Z</time>
</trkpt>
<trkpt lat="45.8623740" lon="9.3293730">
	<ele>1239.40</ele>
	<time>2024-03-25T08:50:16.000Z</time>
</trkpt>
<trkpt lat="45.8623690" lon="9.3293860">
	<ele>1239.00</ele>
	<time>2024-03-25T08:50:17.000Z</time>
</trkpt>
<trkpt lat="45.8623670" lon="9.3293990">
	<ele>1238.80</ele>
	<time>2024-03-25T08:50:18.000Z</time>
</trkpt>
<trkpt lat="45.8623640" lon="9.3294080">
	<ele>1238.60</ele>
	<time>2024-03-25T08:50:19.000Z</time>
</trkpt>
<trkpt lat="45.8623570" lon="9.3294130">
	<ele>1238.40</ele>
	<time>2024-03-25T08:50:20.000Z</time>
</trkpt>
<trkpt lat="45.8623550" lon="9.3294160">
	<ele>1238.20</ele>
	<time>2024-03-25T08:50:21.000Z</time>
</trkpt>
<trkpt lat="45.8623460" lon="9.3294180">
	<ele>1238.20</ele>
	<time>2024-03-25T08:50:22.000Z</time>
</trkpt>
<trkpt lat="45.8623400" lon="9.3294200">
	<ele>1237.80</ele>
	<time>2024-03-25T08:50:23.000Z</time>
</trkpt>
<trkpt lat="45.8623320" lon="9.3294310">
	<ele>1237.60</ele>
	<time>2024-03-25T08:50:24.000Z</time>
</trkpt>
<trkpt lat="45.8623300" lon="9.3294390">
	<ele>1237.60</ele>
	<time>2024-03-25T08:50:25.000Z</time>
</trkpt>
<trkpt lat="45.8623330" lon="9.3294370">
	<ele>1237.40</ele>
	<time>2024-03-25T08:50:26.000Z</time>
</trkpt>
<trkpt lat="45.8623320" lon="9.3294400">
	<ele>1237.40</ele>
	<time>2024-03-25T08:50:27.000Z</time>
</trkpt>
<trkpt lat="45.8623350" lon="9.3294500">
	<ele>1237.20</ele>
	<time>2024-03-25T08:50:28.000Z</time>
</trkpt>
<trkpt lat="45.8623340" lon="9.3294610">
	<ele>1237.00</ele>
	<time>2024-03-25T08:50:29.000Z</time>
</trkpt>
<trkpt lat="45.8623340" lon="9.3294680">
	<ele>1236.80</ele>
	<time>2024-03-25T08:50:30.000Z</time>
</trkpt>
<trkpt lat="45.8623350" lon="9.3294720">
	<ele>1236.80</ele>
	<time>2024-03-25T08:50:31.000Z</time>
</trkpt>
<trkpt lat="45.8623330" lon="9.3294730">
	<ele>1236.60</ele>
	<time>2024-03-25T08:50:32.000Z</time>
</trkpt>
<trkpt lat="45.8623370" lon="9.3294770">
	<ele>1236.40</ele>
	<time>2024-03-25T08:50:33.000Z</time>
</trkpt>
<trkpt lat="45.8623360" lon="9.3294810">
	<ele>1236.20</ele>
	<time>2024-03-25T08:50:34.000Z</time>
</trkpt>
<trkpt lat="45.8623330" lon="9.3294920">
	<ele>1236.00</ele>
	<time>2024-03-25T08:50:35.000Z</time>
</trkpt>
<trkpt lat="45.8623300" lon="9.3295010">
	<ele>1235.80</ele>
	<time>2024-03-25T08:50:36.000Z</time>
</trkpt>
<trkpt lat="45.8623240" lon="9.3295130">
	<ele>1235.60</ele>
	<time>2024-03-25T08:50:37.000Z</time>
</trkpt>
<trkpt lat="45.8623160" lon="9.3295170">
	<ele>1235.40</ele>
	<time>2024-03-25T08:50:38.000Z</time>
</trkpt>
<trkpt lat="45.8623100" lon="9.3295210">
	<ele>1235.00</ele>
	<time>2024-03-25T08:50:39.000Z</time>
</trkpt>
<trkpt lat="45.8623010" lon="9.3295340">
	<ele>1234.80</ele>
	<time>2024-03-25T08:50:40.000Z</time>
</trkpt>
<trkpt lat="45.8622930" lon="9.3295490">
	<ele>1234.60</ele>
	<time>2024-03-25T08:50:41.000Z</time>
</trkpt>
<trkpt lat="45.8622820" lon="9.3295630">
	<ele>1234.60</ele>
	<time>2024-03-25T08:50:42.000Z</time>
</trkpt>
<trkpt lat="45.8622740" lon="9.3295760">
	<ele>1234.20</ele>
	<time>2024-03-25T08:50:43.000Z</time>
</trkpt>
<trkpt lat="45.8622660" lon="9.3295920">
	<ele>1234.00</ele>
	<time>2024-03-25T08:50:44.000Z</time>
</trkpt>
<trkpt lat="45.8622580" lon="9.3296040">
	<ele>1234.00</ele>
	<time>2024-03-25T08:50:45.000Z</time>
</trkpt>
<trkpt lat="45.8622490" lon="9.3296160">
	<ele>1233.60</ele>
	<time>2024-03-25T08:50:46.000Z</time>
</trkpt>
<trkpt lat="45.8622450" lon="9.3296220">
	<ele>1233.40</ele>
	<time>2024-03-25T08:50:47.000Z</time>
</trkpt>
<trkpt lat="45.8622390" lon="9.3296300">
	<ele>1233.20</ele>
	<time>2024-03-25T08:50:48.000Z</time>
</trkpt>
<trkpt lat="45.8622350" lon="9.3296360">
	<ele>1233.20</ele>
	<time>2024-03-25T08:50:49.000Z</time>
</trkpt>
<trkpt lat="45.8622360" lon="9.3296420">
	<ele>1233.20</ele>
	<time>2024-03-25T08:50:50.000Z</time>
</trkpt>
<trkpt lat="45.8622360" lon="9.3296440">
	<ele>1233.20</ele>
	<time>2024-03-25T08:50:51.000Z</time>
</trkpt>
<trkpt lat="45.8622290" lon="9.3296520">
	<ele>1233.20</ele>
	<time>2024-03-25T08:50:52.000Z</time>
</trkpt>
<trkpt lat="45.8622200" lon="9.3296630">
	<ele>1233.20</ele>
	<time>2024-03-25T08:50:53.000Z</time>
</trkpt>
<trkpt lat="45.8622090" lon="9.3296680">
	<ele>1233.40</ele>
	<time>2024-03-25T08:50:54.000Z</time>
</trkpt>
<trkpt lat="45.8622070" lon="9.3296740">
	<ele>1233.40</ele>
	<time>2024-03-25T08:50:55.000Z</time>
</trkpt>
<trkpt lat="45.8622040" lon="9.3296780">
	<ele>1233.60</ele>
	<time>2024-03-25T08:50:56.000Z</time>
</trkpt>
<trkpt lat="45.8622010" lon="9.3296820">
	<ele>1233.80</ele>
	<time>2024-03-25T08:50:57.000Z</time>
</trkpt>
<trkpt lat="45.8622000" lon="9.3296860">
	<ele>1234.00</ele>
	<time>2024-03-25T08:50:58.000Z</time>
</trkpt>
<trkpt lat="45.8621960" lon="9.3296870">
	<ele>1234.20</ele>
	<time>2024-03-25T08:50:59.000Z</time>
</trkpt>
<trkpt lat="45.8621840" lon="9.3296810">
	<ele>1234.40</ele>
	<time>2024-03-25T08:51:00.000Z</time>
</trkpt>
<trkpt lat="45.8621750" lon="9.3296810">
	<ele>1234.60</ele>
	<time>2024-03-25T08:51:01.000Z</time>
</trkpt>
<trkpt lat="45.8621730" lon="9.3296810">
	<ele>1234.60</ele>
	<time>2024-03-25T08:51:02.000Z</time>
</trkpt>
<trkpt lat="45.8621670" lon="9.3296960">
	<ele>1234.60</ele>
	<time>2024-03-25T08:51:03.000Z</time>
</trkpt>
<trkpt lat="45.8621580" lon="9.3297110">
	<ele>1234.60</ele>
	<time>2024-03-25T08:51:04.000Z</time>
</trkpt>
<trkpt lat="45.8621550" lon="9.3297200">
	<ele>1234.60</ele>
	<time>2024-03-25T08:51:05.000Z</time>
</trkpt>
<trkpt lat="45.8621530" lon="9.3297220">
	<ele>1234.40</ele>
	<time>2024-03-25T08:51:06.000Z</time>
</trkpt>
<trkpt lat="45.8621540" lon="9.3297260">
	<ele>1234.00</ele>
	<time>2024-03-25T08:51:07.000Z</time>
</trkpt>
<trkpt lat="45.8621560" lon="9.3297380">
	<ele>1234.00</ele>
	<time>2024-03-25T08:51:08.000Z</time>
</trkpt>
<trkpt lat="45.8621530" lon="9.3297500">
	<ele>1233.80</ele>
	<time>2024-03-25T08:51:09.000Z</time>
</trkpt>
<trkpt lat="45.8621460" lon="9.3297570">
	<ele>1233.80</ele>
	<time>2024-03-25T08:51:10.000Z</time>
</trkpt>
<trkpt lat="45.8621340" lon="9.3297620">
	<ele>1233.60</ele>
	<time>2024-03-25T08:51:11.000Z</time>
</trkpt>
<trkpt lat="45.8621220" lon="9.3297580">
	<ele>1233.20</ele>
	<time>2024-03-25T08:51:12.000Z</time>
</trkpt>
<trkpt lat="45.8621170" lon="9.3297640">
	<ele>1233.00</ele>
	<time>2024-03-25T08:51:13.000Z</time>
</trkpt>
<trkpt lat="45.8621070" lon="9.3297790">
	<ele>1232.80</ele>
	<time>2024-03-25T08:51:14.000Z</time>
</trkpt>
<trkpt lat="45.8621020" lon="9.3297950">
	<ele>1232.60</ele>
	<time>2024-03-25T08:51:15.000Z</time>
</trkpt>
<trkpt lat="45.8621040" lon="9.3298040">
	<ele>1232.40</ele>
	<time>2024-03-25T08:51:16.000Z</time>
</trkpt>
<trkpt lat="45.8621030" lon="9.3298120">
	<ele>1232.40</ele>
	<time>2024-03-25T08:51:17.000Z</time>
</trkpt>
<trkpt lat="45.8620960" lon="9.3298250">
	<ele>1232.20</ele>
	<time>2024-03-25T08:51:18.000Z</time>
</trkpt>
<trkpt lat="45.8620920" lon="9.3298420">
	<ele>1231.80</ele>
	<time>2024-03-25T08:51:19.000Z</time>
</trkpt>
<trkpt lat="45.8620830" lon="9.3298580">
	<ele>1231.60</ele>
	<time>2024-03-25T08:51:20.000Z</time>
</trkpt>
<trkpt lat="45.8620810" lon="9.3298750">
	<ele>1231.40</ele>
	<time>2024-03-25T08:51:21.000Z</time>
</trkpt>
<trkpt lat="45.8620790" lon="9.3298880">
	<ele>1231.20</ele>
	<time>2024-03-25T08:51:22.000Z</time>
</trkpt>
<trkpt lat="45.8620760" lon="9.3298940">
	<ele>1231.20</ele>
	<time>2024-03-25T08:51:23.000Z</time>
</trkpt>
<trkpt lat="45.8620700" lon="9.3299040">
	<ele>1231.20</ele>
	<time>2024-03-25T08:51:24.000Z</time>
</trkpt>
<trkpt lat="45.8620610" lon="9.3299140">
	<ele>1231.00</ele>
	<time>2024-03-25T08:51:25.000Z</time>
</trkpt>
<trkpt lat="45.8620550" lon="9.3299240">
	<ele>1231.00</ele>
	<time>2024-03-25T08:51:26.000Z</time>
</trkpt>
<trkpt lat="45.8620540" lon="9.3299390">
	<ele>1230.40</ele>
	<time>2024-03-25T08:51:27.000Z</time>
</trkpt>
<trkpt lat="45.8620530" lon="9.3299500">
	<ele>1230.20</ele>
	<time>2024-03-25T08:51:28.000Z</time>
</trkpt>
<trkpt lat="45.8620460" lon="9.3299610">
	<ele>1230.00</ele>
	<time>2024-03-25T08:51:29.000Z</time>
</trkpt>
<trkpt lat="45.8620380" lon="9.3299720">
	<ele>1230.00</ele>
	<time>2024-03-25T08:51:30.000Z</time>
</trkpt>
<trkpt lat="45.8620210" lon="9.3299730">
	<ele>1229.80</ele>
	<time>2024-03-25T08:51:31.000Z</time>
</trkpt>
<trkpt lat="45.8620050" lon="9.3299760">
	<ele>1229.80</ele>
	<time>2024-03-25T08:51:32.000Z</time>
</trkpt>
<trkpt lat="45.8619980" lon="9.3299780">
	<ele>1229.80</ele>
	<time>2024-03-25T08:51:33.000Z</time>
</trkpt>
<trkpt lat="45.8619830" lon="9.3299890">
	<ele>1229.80</ele>
	<time>2024-03-25T08:51:34.000Z</time>
</trkpt>
<trkpt lat="45.8619730" lon="9.3300020">
	<ele>1229.80</ele>
	<time>2024-03-25T08:51:35.000Z</time>
</trkpt>
<trkpt lat="45.8619630" lon="9.3300110">
	<ele>1229.80</ele>
	<time>2024-03-25T08:51:36.000Z</time>
</trkpt>
<trkpt lat="45.8619530" lon="9.3300140">
	<ele>1229.80</ele>
	<time>2024-03-25T08:51:37.000Z</time>
</trkpt>
<trkpt lat="45.8619510" lon="9.3300230">
	<ele>1229.80</ele>
	<time>2024-03-25T08:51:38.000Z</time>
</trkpt>
<trkpt lat="45.8619470" lon="9.3300280">
	<ele>1229.60</ele>
	<time>2024-03-25T08:51:39.000Z</time>
</trkpt>
<trkpt lat="45.8619400" lon="9.3300340">
	<ele>1229.40</ele>
	<time>2024-03-25T08:51:40.000Z</time>
</trkpt>
<trkpt lat="45.8619310" lon="9.3300460">
	<ele>1229.40</ele>
	<time>2024-03-25T08:51:41.000Z</time>
</trkpt>
<trkpt lat="45.8619230" lon="9.3300570">
	<ele>1229.20</ele>
	<time>2024-03-25T08:51:42.000Z</time>
</trkpt>
<trkpt lat="45.8619180" lon="9.3300670">
	<ele>1229.00</ele>
	<time>2024-03-25T08:51:43.000Z</time>
</trkpt>
<trkpt lat="45.8619150" lon="9.3300710">
	<ele>1228.80</ele>
	<time>2024-03-25T08:51:44.000Z</time>
</trkpt>
<trkpt lat="45.8619060" lon="9.3300760">
	<ele>1228.60</ele>
	<time>2024-03-25T08:51:45.000Z</time>
</trkpt>
<trkpt lat="45.8618940" lon="9.3300780">
	<ele>1228.40</ele>
	<time>2024-03-25T08:51:46.000Z</time>
</trkpt>
<trkpt lat="45.8618800" lon="9.3300770">
	<ele>1228.20</ele>
	<time>2024-03-25T08:51:47.000Z</time>
</trkpt>
<trkpt lat="45.8618660" lon="9.3300760">
	<ele>1228.20</ele>
	<time>2024-03-25T08:51:48.000Z</time>
</trkpt>
<trkpt lat="45.8618610" lon="9.3300900">
	<ele>1228.00</ele>
	<time>2024-03-25T08:51:49.000Z</time>
</trkpt>
<trkpt lat="45.8618500" lon="9.3301030">
	<ele>1228.00</ele>
	<time>2024-03-25T08:51:50.000Z</time>
</trkpt>
<trkpt lat="45.8618440" lon="9.3301160">
	<ele>1228.00</ele>
	<time>2024-03-25T08:51:51.000Z</time>
</trkpt>
<trkpt lat="45.8618370" lon="9.3301330">
	<ele>1228.00</ele>
	<time>2024-03-25T08:51:52.000Z</time>
</trkpt>
<trkpt lat="45.8618300" lon="9.3301460">
	<ele>1228.00</ele>
	<time>2024-03-25T08:51:53.000Z</time>
</trkpt>
<trkpt lat="45.8618240" lon="9.3301580">
	<ele>1228.00</ele>
	<time>2024-03-25T08:51:54.000Z</time>
</trkpt>
<trkpt lat="45.8618220" lon="9.3301660">
	<ele>1228.00</ele>
	<time>2024-03-25T08:51:55.000Z</time>
</trkpt>
<trkpt lat="45.8618190" lon="9.3301710">
	<ele>1228.00</ele>
	<time>2024-03-25T08:51:56.000Z</time>
</trkpt>
<trkpt lat="45.8618180" lon="9.3301730">
	<ele>1228.00</ele>
	<time>2024-03-25T08:51:57.000Z</time>
</trkpt>
<trkpt lat="45.8618170" lon="9.3301770">
	<ele>1228.00</ele>
	<time>2024-03-25T08:51:58.000Z</time>
</trkpt>
<trkpt lat="45.8618170" lon="9.3301830">
	<ele>1228.20</ele>
	<time>2024-03-25T08:51:59.000Z</time>
</trkpt>
<trkpt lat="45.8618170" lon="9.3301860">
	<ele>1228.20</ele>
	<time>2024-03-25T08:52:00.000Z</time>
</trkpt>
<trkpt lat="45.8618070" lon="9.3301950">
	<ele>1228.40</ele>
	<time>2024-03-25T08:52:01.000Z</time>
</trkpt>
<trkpt lat="45.8618040" lon="9.3301970">
	<ele>1228.60</ele>
	<time>2024-03-25T08:52:02.000Z</time>
</trkpt>
<trkpt lat="45.8617950" lon="9.3301930">
	<ele>1228.60</ele>
	<time>2024-03-25T08:52:03.000Z</time>
</trkpt>
<trkpt lat="45.8617860" lon="9.3301840">
	<ele>1229.00</ele>
	<time>2024-03-25T08:52:04.000Z</time>
</trkpt>
<trkpt lat="45.8617880" lon="9.3301870">
	<ele>1229.20</ele>
	<time>2024-03-25T08:52:05.000Z</time>
</trkpt>
<trkpt lat="45.8617890" lon="9.3301910">
	<ele>1229.40</ele>
	<time>2024-03-25T08:52:06.000Z</time>
</trkpt>
<trkpt lat="45.8617810" lon="9.3301940">
	<ele>1229.60</ele>
	<time>2024-03-25T08:52:07.000Z</time>
</trkpt>
<trkpt lat="45.8617740" lon="9.3301970">
	<ele>1229.80</ele>
	<time>2024-03-25T08:52:08.000Z</time>
</trkpt>
<trkpt lat="45.8617660" lon="9.3302060">
	<ele>1230.00</ele>
	<time>2024-03-25T08:52:09.000Z</time>
</trkpt>
<trkpt lat="45.8617570" lon="9.3302110">
	<ele>1230.00</ele>
	<time>2024-03-25T08:52:10.000Z</time>
</trkpt>
<trkpt lat="45.8617460" lon="9.3302160">
	<ele>1230.00</ele>
	<time>2024-03-25T08:52:11.000Z</time>
</trkpt>
<trkpt lat="45.8617330" lon="9.3302280">
	<ele>1230.00</ele>
	<time>2024-03-25T08:52:12.000Z</time>
</trkpt>
<trkpt lat="45.8617190" lon="9.3302440">
	<ele>1229.80</ele>
	<time>2024-03-25T08:52:13.000Z</time>
</trkpt>
<trkpt lat="45.8617080" lon="9.3302580">
	<ele>1229.60</ele>
	<time>2024-03-25T08:52:14.000Z</time>
</trkpt>
<trkpt lat="45.8616990" lon="9.3302700">
	<ele>1229.60</ele>
	<time>2024-03-25T08:52:15.000Z</time>
</trkpt>
<trkpt lat="45.8616930" lon="9.3302780">
	<ele>1229.40</ele>
	<time>2024-03-25T08:52:16.000Z</time>
</trkpt>
<trkpt lat="45.8616880" lon="9.3302870">
	<ele>1229.40</ele>
	<time>2024-03-25T08:52:17.000Z</time>
</trkpt>
<trkpt lat="45.8616860" lon="9.3303000">
	<ele>1229.40</ele>
	<time>2024-03-25T08:52:18.000Z</time>
</trkpt>
<trkpt lat="45.8616830" lon="9.3303030">
	<ele>1229.40</ele>
	<time>2024-03-25T08:52:19.000Z</time>
</trkpt>
<trkpt lat="45.8616790" lon="9.3303090">
	<ele>1229.40</ele>
	<time>2024-03-25T08:52:20.000Z</time>
</trkpt>
<trkpt lat="45.8616760" lon="9.3303140">
	<ele>1229.20</ele>
	<time>2024-03-25T08:52:21.000Z</time>
</trkpt>
<trkpt lat="45.8616760" lon="9.3303210">
	<ele>1229.00</ele>
	<time>2024-03-25T08:52:22.000Z</time>
</trkpt>
<trkpt lat="45.8616680" lon="9.3303290">
	<ele>1229.00</ele>
	<time>2024-03-25T08:52:23.000Z</time>
</trkpt>
<trkpt lat="45.8616600" lon="9.3303390">
	<ele>1228.80</ele>
	<time>2024-03-25T08:52:24.000Z</time>
</trkpt>
<trkpt lat="45.8616510" lon="9.3303420">
	<ele>1228.80</ele>
	<time>2024-03-25T08:52:25.000Z</time>
</trkpt>
<trkpt lat="45.8616440" lon="9.3303440">
	<ele>1228.60</ele>
	<time>2024-03-25T08:52:26.000Z</time>
</trkpt>
<trkpt lat="45.8616330" lon="9.3303530">
	<ele>1228.60</ele>
	<time>2024-03-25T08:52:27.000Z</time>
</trkpt>
<trkpt lat="45.8616270" lon="9.3303700">
	<ele>1228.60</ele>
	<time>2024-03-25T08:52:28.000Z</time>
</trkpt>
<trkpt lat="45.8616260" lon="9.3303840">
	<ele>1228.60</ele>
	<time>2024-03-25T08:52:29.000Z</time>
</trkpt>
<trkpt lat="45.8616220" lon="9.3303970">
	<ele>1228.80</ele>
	<time>2024-03-25T08:52:30.000Z</time>
</trkpt>
<trkpt lat="45.8616210" lon="9.3304070">
	<ele>1228.80</ele>
	<time>2024-03-25T08:52:31.000Z</time>
</trkpt>
<trkpt lat="45.8616130" lon="9.3304380">
	<ele>1228.80</ele>
	<time>2024-03-25T08:52:32.000Z</time>
</trkpt>
<trkpt lat="45.8616050" lon="9.3304580">
	<ele>1228.80</ele>
	<time>2024-03-25T08:52:33.000Z</time>
</trkpt>
<trkpt lat="45.8615920" lon="9.3304880">
	<ele>1228.60</ele>
	<time>2024-03-25T08:52:34.000Z</time>
</trkpt>
<trkpt lat="45.8615820" lon="9.3305080">
	<ele>1228.40</ele>
	<time>2024-03-25T08:52:35.000Z</time>
</trkpt>
<trkpt lat="45.8615750" lon="9.3305190">
	<ele>1228.40</ele>
	<time>2024-03-25T08:52:36.000Z</time>
</trkpt>
<trkpt lat="45.8615700" lon="9.3305320">
	<ele>1228.20</ele>
	<time>2024-03-25T08:52:37.000Z</time>
</trkpt>
<trkpt lat="45.8615640" lon="9.3305390">
	<ele>1227.80</ele>
	<time>2024-03-25T08:52:38.000Z</time>
</trkpt>
<trkpt lat="45.8615520" lon="9.3305570">
	<ele>1227.80</ele>
	<time>2024-03-25T08:52:39.000Z</time>
</trkpt>
<trkpt lat="45.8615390" lon="9.3305730">
	<ele>1227.60</ele>
	<time>2024-03-25T08:52:40.000Z</time>
</trkpt>
<trkpt lat="45.8615290" lon="9.3305920">
	<ele>1227.60</ele>
	<time>2024-03-25T08:52:41.000Z</time>
</trkpt>
<trkpt lat="45.8615160" lon="9.3306120">
	<ele>1227.40</ele>
	<time>2024-03-25T08:52:42.000Z</time>
</trkpt>
<trkpt lat="45.8615090" lon="9.3306290">
	<ele>1227.20</ele>
	<time>2024-03-25T08:52:43.000Z</time>
</trkpt>
<trkpt lat="45.8615020" lon="9.3306410">
	<ele>1227.00</ele>
	<time>2024-03-25T08:52:44.000Z</time>
</trkpt>
<trkpt lat="45.8614950" lon="9.3306540">
	<ele>1226.80</ele>
	<time>2024-03-25T08:52:45.000Z</time>
</trkpt>
<trkpt lat="45.8614870" lon="9.3306610">
	<ele>1226.80</ele>
	<time>2024-03-25T08:52:46.000Z</time>
</trkpt>
<trkpt lat="45.8614870" lon="9.3306690">
	<ele>1226.60</ele>
	<time>2024-03-25T08:52:47.000Z</time>
</trkpt>
<trkpt lat="45.8614900" lon="9.3306820">
	<ele>1226.40</ele>
	<time>2024-03-25T08:52:48.000Z</time>
</trkpt>
<trkpt lat="45.8614920" lon="9.3306910">
	<ele>1226.20</ele>
	<time>2024-03-25T08:52:49.000Z</time>
</trkpt>
<trkpt lat="45.8614910" lon="9.3307050">
	<ele>1225.80</ele>
	<time>2024-03-25T08:52:50.000Z</time>
</trkpt>
<trkpt lat="45.8614790" lon="9.3307220">
	<ele>1225.80</ele>
	<time>2024-03-25T08:52:51.000Z</time>
</trkpt>
<trkpt lat="45.8614690" lon="9.3307310">
	<ele>1225.60</ele>
	<time>2024-03-25T08:52:52.000Z</time>
</trkpt>
<trkpt lat="45.8614600" lon="9.3307420">
	<ele>1225.40</ele>
	<time>2024-03-25T08:52:53.000Z</time>
</trkpt>
<trkpt lat="45.8614560" lon="9.3307570">
	<ele>1225.20</ele>
	<time>2024-03-25T08:52:54.000Z</time>
</trkpt>
<trkpt lat="45.8614550" lon="9.3307710">
	<ele>1225.00</ele>
	<time>2024-03-25T08:52:55.000Z</time>
</trkpt>
<trkpt lat="45.8614540" lon="9.3307840">
	<ele>1224.60</ele>
	<time>2024-03-25T08:52:56.000Z</time>
</trkpt>
<trkpt lat="45.8614540" lon="9.3307970">
	<ele>1224.60</ele>
	<time>2024-03-25T08:52:57.000Z</time>
</trkpt>
<trkpt lat="45.8614510" lon="9.3308150">
	<ele>1224.40</ele>
	<time>2024-03-25T08:52:58.000Z</time>
</trkpt>
<trkpt lat="45.8614480" lon="9.3308300">
	<ele>1224.20</ele>
	<time>2024-03-25T08:52:59.000Z</time>
</trkpt>
<trkpt lat="45.8614490" lon="9.3308440">
	<ele>1224.20</ele>
	<time>2024-03-25T08:53:00.000Z</time>
</trkpt>
<trkpt lat="45.8614500" lon="9.3308580">
	<ele>1223.80</ele>
	<time>2024-03-25T08:53:01.000Z</time>
</trkpt>
<trkpt lat="45.8614450" lon="9.3308730">
	<ele>1223.60</ele>
	<time>2024-03-25T08:53:02.000Z</time>
</trkpt>
<trkpt lat="45.8614440" lon="9.3308790">
	<ele>1223.40</ele>
	<time>2024-03-25T08:53:03.000Z</time>
</trkpt>
<trkpt lat="45.8614400" lon="9.3308930">
	<ele>1223.20</ele>
	<time>2024-03-25T08:53:04.000Z</time>
</trkpt>
<trkpt lat="45.8614340" lon="9.3309110">
	<ele>1223.00</ele>
	<time>2024-03-25T08:53:05.000Z</time>
</trkpt>
<trkpt lat="45.8614320" lon="9.3309310">
	<ele>1222.80</ele>
	<time>2024-03-25T08:53:06.000Z</time>
</trkpt>
<trkpt lat="45.8614290" lon="9.3309440">
	<ele>1222.60</ele>
	<time>2024-03-25T08:53:07.000Z</time>
</trkpt>
<trkpt lat="45.8614240" lon="9.3309600">
	<ele>1222.40</ele>
	<time>2024-03-25T08:53:08.000Z</time>
</trkpt>
<trkpt lat="45.8614190" lon="9.3309800">
	<ele>1222.20</ele>
	<time>2024-03-25T08:53:09.000Z</time>
</trkpt>
<trkpt lat="45.8614140" lon="9.3310000">
	<ele>1222.00</ele>
	<time>2024-03-25T08:53:10.000Z</time>
</trkpt>
<trkpt lat="45.8614090" lon="9.3310220">
	<ele>1221.80</ele>
	<time>2024-03-25T08:53:11.000Z</time>
</trkpt>
<trkpt lat="45.8614070" lon="9.3310270">
	<ele>1221.80</ele>
	<time>2024-03-25T08:53:12.000Z</time>
</trkpt>
<trkpt lat="45.8614020" lon="9.3310360">
	<ele>1221.60</ele>
	<time>2024-03-25T08:53:13.000Z</time>
</trkpt>
<trkpt lat="45.8613960" lon="9.3310470">
	<ele>1221.40</ele>
	<time>2024-03-25T08:53:14.000Z</time>
</trkpt>
<trkpt lat="45.8613930" lon="9.3310580">
	<ele>1221.00</ele>
	<time>2024-03-25T08:53:15.000Z</time>
</trkpt>
<trkpt lat="45.8613890" lon="9.3310700">
	<ele>1220.80</ele>
	<time>2024-03-25T08:53:16.000Z</time>
</trkpt>
<trkpt lat="45.8613830" lon="9.3310920">
	<ele>1220.60</ele>
	<time>2024-03-25T08:53:17.000Z</time>
</trkpt>
<trkpt lat="45.8613800" lon="9.3311070">
	<ele>1220.60</ele>
	<time>2024-03-25T08:53:18.000Z</time>
</trkpt>
<trkpt lat="45.8613690" lon="9.3311060">
	<ele>1220.60</ele>
	<time>2024-03-25T08:53:19.000Z</time>
</trkpt>
<trkpt lat="45.8613580" lon="9.3311040">
	<ele>1220.40</ele>
	<time>2024-03-25T08:53:20.000Z</time>
</trkpt>
<trkpt lat="45.8613550" lon="9.3311070">
	<ele>1220.40</ele>
	<time>2024-03-25T08:53:21.000Z</time>
</trkpt>
<trkpt lat="45.8613480" lon="9.3311150">
	<ele>1220.40</ele>
	<time>2024-03-25T08:53:22.000Z</time>
</trkpt>
<trkpt lat="45.8613400" lon="9.3311250">
	<ele>1220.40</ele>
	<time>2024-03-25T08:53:23.000Z</time>
</trkpt>
<trkpt lat="45.8613340" lon="9.3311360">
	<ele>1220.20</ele>
	<time>2024-03-25T08:53:24.000Z</time>
</trkpt>
<trkpt lat="45.8613290" lon="9.3311420">
	<ele>1220.00</ele>
	<time>2024-03-25T08:53:25.000Z</time>
</trkpt>
<trkpt lat="45.8613240" lon="9.3311480">
	<ele>1219.80</ele>
	<time>2024-03-25T08:53:26.000Z</time>
</trkpt>
<trkpt lat="45.8613140" lon="9.3311450">
	<ele>1219.80</ele>
	<time>2024-03-25T08:53:27.000Z</time>
</trkpt>
<trkpt lat="45.8613070" lon="9.3311430">
	<ele>1219.60</ele>
	<time>2024-03-25T08:53:28.000Z</time>
</trkpt>
<trkpt lat="45.8612940" lon="9.3311380">
	<ele>1219.40</ele>
	<time>2024-03-25T08:53:29.000Z</time>
</trkpt>
<trkpt lat="45.8612860" lon="9.3311340">
	<ele>1219.20</ele>
	<time>2024-03-25T08:53:30.000Z</time>
</trkpt>
<trkpt lat="45.8612840" lon="9.3311360">
	<ele>1219.00</ele>
	<time>2024-03-25T08:53:31.000Z</time>
</trkpt>
<trkpt lat="45.8612840" lon="9.3311370">
	<ele>1219.00</ele>
	<time>2024-03-25T08:53:32.000Z</time>
</trkpt>
<trkpt lat="45.8612850" lon="9.3311370">
	<ele>1219.00</ele>
	<time>2024-03-25T08:53:33.000Z</time>
</trkpt>
<trkpt lat="45.8612860" lon="9.3311340">
	<ele>1219.00</ele>
	<time>2024-03-25T08:53:34.000Z</time>
</trkpt>
<trkpt lat="45.8612860" lon="9.3311340">
	<ele>1219.00</ele>
	<time>2024-03-25T08:53:35.000Z</time>
</trkpt>
<trkpt lat="45.8612860" lon="9.3311310">
	<ele>1219.00</ele>
	<time>2024-03-25T08:53:36.000Z</time>
</trkpt>
<trkpt lat="45.8612850" lon="9.3311300">
	<ele>1219.00</ele>
	<time>2024-03-25T08:53:37.000Z</time>
</trkpt>
<trkpt lat="45.8612830" lon="9.3311320">
	<ele>1219.00</ele>
	<time>2024-03-25T08:53:38.000Z</time>
</trkpt>
<trkpt lat="45.8612810" lon="9.3311340">
	<ele>1218.80</ele>
	<time>2024-03-25T08:53:39.000Z</time>
</trkpt>
<trkpt lat="45.8612760" lon="9.3311320">
	<ele>1218.80</ele>
	<time>2024-03-25T08:53:40.000Z</time>
</trkpt>
<trkpt lat="45.8612710" lon="9.3311240">
	<ele>1218.80</ele>
	<time>2024-03-25T08:53:41.000Z</time>
</trkpt>
<trkpt lat="45.8612670" lon="9.3311190">
	<ele>1218.80</ele>
	<time>2024-03-25T08:53:42.000Z</time>
</trkpt>
<trkpt lat="45.8612650" lon="9.3311160">
	<ele>1218.80</ele>
	<time>2024-03-25T08:53:43.000Z</time>
</trkpt>
<trkpt lat="45.8612650" lon="9.3311130">
	<ele>1218.80</ele>
	<time>2024-03-25T08:53:44.000Z</time>
</trkpt>
<trkpt lat="45.8612670" lon="9.3311110">
	<ele>1218.80</ele>
	<time>2024-03-25T08:53:45.000Z</time>
</trkpt>
<trkpt lat="45.8612630" lon="9.3311020">
	<ele>1218.80</ele>
	<time>2024-03-25T08:53:46.000Z</time>
</trkpt>
<trkpt lat="45.8612600" lon="9.3311020">
	<ele>1218.80</ele>
	<time>2024-03-25T08:53:47.000Z</time>
</trkpt>
<trkpt lat="45.8612580" lon="9.3311010">
	<ele>1218.80</ele>
	<time>2024-03-25T08:53:48.000Z</time>
</trkpt>
<trkpt lat="45.8612550" lon="9.3310990">
	<ele>1218.80</ele>
	<time>2024-03-25T08:53:49.000Z</time>
</trkpt>
<trkpt lat="45.8612560" lon="9.3310980">
	<ele>1218.80</ele>
	<time>2024-03-25T08:53:50.000Z</time>
</trkpt>
<trkpt lat="45.8612590" lon="9.3311000">
	<ele>1218.80</ele>
	<time>2024-03-25T08:53:51.000Z</time>
</trkpt>
<trkpt lat="45.8612630" lon="9.3311000">
	<ele>1218.60</ele>
	<time>2024-03-25T08:53:52.000Z</time>
</trkpt>
<trkpt lat="45.8612630" lon="9.3310990">
	<ele>1218.60</ele>
	<time>2024-03-25T08:53:53.000Z</time>
</trkpt>
<trkpt lat="45.8612640" lon="9.3311090">
	<ele>1218.80</ele>
	<time>2024-03-25T08:53:54.000Z</time>
</trkpt>
<trkpt lat="45.8612650" lon="9.3311120">
	<ele>1218.80</ele>
	<time>2024-03-25T08:53:55.000Z</time>
</trkpt>
<trkpt lat="45.8612660" lon="9.3311140">
	<ele>1218.80</ele>
	<time>2024-03-25T08:53:56.000Z</time>
</trkpt>
<trkpt lat="45.8612660" lon="9.3311150">
	<ele>1218.80</ele>
	<time>2024-03-25T08:53:57.000Z</time>
</trkpt>
<trkpt lat="45.8612660" lon="9.3311150">
	<ele>1218.80</ele>
	<time>2024-03-25T08:53:58.000Z</time>
</trkpt>
<trkpt lat="45.8612660" lon="9.3311150">
	<ele>1218.80</ele>
	<time>2024-03-25T08:53:59.000Z</time>
</trkpt>
<trkpt lat="45.8612660" lon="9.3311150">
	<ele>1218.80</ele>
	<time>2024-03-25T08:54:00.000Z</time>
</trkpt>
<trkpt lat="45.8612660" lon="9.3311150">
	<ele>1218.80</ele>
	<time>2024-03-25T08:54:01.000Z</time>
</trkpt>
<trkpt lat="45.8612660" lon="9.3311150">
	<ele>1218.80</ele>
	<time>2024-03-25T08:54:02.000Z</time>
</trkpt>
<trkpt lat="45.8612660" lon="9.3311150">
	<ele>1218.80</ele>
	<time>2024-03-25T08:54:03.000Z</time>
</trkpt>
<trkpt lat="45.8612660" lon="9.3311150">
	<ele>1218.80</ele>
	<time>2024-03-25T08:54:04.000Z</time>
</trkpt>
<trkpt lat="45.8612660" lon="9.3311150">
	<ele>1218.80</ele>
	<time>2024-03-25T08:54:05.000Z</time>
</trkpt>
<trkpt lat="45.8612660" lon="9.3311150">
	<ele>1219.00</ele>
	<time>2024-03-25T08:54:06.000Z</time>
</trkpt>
<trkpt lat="45.8612660" lon="9.3311150">
	<ele>1219.20</ele>
	<time>2024-03-25T08:54:07.000Z</time>
</trkpt>
<trkpt lat="45.8612660" lon="9.3311150">
	<ele>1219.20</ele>
	<time>2024-03-25T08:54:08.000Z</time>
</trkpt>
<trkpt lat="45.8612660" lon="9.3311220">
	<ele>1219.40</ele>
	<time>2024-03-25T08:54:09.000Z</time>
</trkpt>
<trkpt lat="45.8612740" lon="9.3311510">
	<ele>1219.40</ele>
	<time>2024-03-25T08:54:10.000Z</time>
</trkpt>
<trkpt lat="45.8612790" lon="9.3311830">
	<ele>1219.40</ele>
	<time>2024-03-25T08:54:11.000Z</time>
</trkpt>
<trkpt lat="45.8612780" lon="9.3312070">
	<ele>1219.40</ele>
	<time>2024-03-25T08:54:12.000Z</time>
</trkpt>
<trkpt lat="45.8612770" lon="9.3312260">
	<ele>1219.40</ele>
	<time>2024-03-25T08:54:13.000Z</time>
</trkpt>
<trkpt lat="45.8612770" lon="9.3312470">
	<ele>1219.40</ele>
	<time>2024-03-25T08:54:14.000Z</time>
</trkpt>
<trkpt lat="45.8612740" lon="9.3312720">
	<ele>1219.40</ele>
	<time>2024-03-25T08:54:15.000Z</time>
</trkpt>
<trkpt lat="45.8612670" lon="9.3312990">
	<ele>1219.40</ele>
	<time>2024-03-25T08:54:16.000Z</time>
</trkpt>
<trkpt lat="45.8612580" lon="9.3313270">
	<ele>1219.40</ele>
	<time>2024-03-25T08:54:17.000Z</time>
</trkpt>
<trkpt lat="45.8612510" lon="9.3313520">
	<ele>1219.60</ele>
	<time>2024-03-25T08:54:18.000Z</time>
</trkpt>
<trkpt lat="45.8612440" lon="9.3313690">
	<ele>1219.60</ele>
	<time>2024-03-25T08:54:19.000Z</time>
</trkpt>
<trkpt lat="45.8612360" lon="9.3313840">
	<ele>1219.80</ele>
	<time>2024-03-25T08:54:20.000Z</time>
</trkpt>
<trkpt lat="45.8612320" lon="9.3313970">
	<ele>1220.00</ele>
	<time>2024-03-25T08:54:21.000Z</time>
</trkpt>
<trkpt lat="45.8612340" lon="9.3314090">
	<ele>1220.20</ele>
	<time>2024-03-25T08:54:22.000Z</time>
</trkpt>
<trkpt lat="45.8612380" lon="9.3314220">
	<ele>1220.40</ele>
	<time>2024-03-25T08:54:23.000Z</time>
</trkpt>
<trkpt lat="45.8612350" lon="9.3314310">
	<ele>1220.80</ele>
	<time>2024-03-25T08:54:24.000Z</time>
</trkpt>
<trkpt lat="45.8612330" lon="9.3314390">
	<ele>1220.80</ele>
	<time>2024-03-25T08:54:25.000Z</time>
</trkpt>
<trkpt lat="45.8612280" lon="9.3314470">
	<ele>1221.00</ele>
	<time>2024-03-25T08:54:26.000Z</time>
</trkpt>
<trkpt lat="45.8612270" lon="9.3314540">
	<ele>1221.20</ele>
	<time>2024-03-25T08:54:27.000Z</time>
</trkpt>
<trkpt lat="45.8612270" lon="9.3314600">
	<ele>1221.40</ele>
	<time>2024-03-25T08:54:28.000Z</time>
</trkpt>
<trkpt lat="45.8612300" lon="9.3314700">
	<ele>1221.60</ele>
	<time>2024-03-25T08:54:29.000Z</time>
</trkpt>
<trkpt lat="45.8612330" lon="9.3314780">
	<ele>1221.80</ele>
	<time>2024-03-25T08:54:30.000Z</time>
</trkpt>
<trkpt lat="45.8612350" lon="9.3314840">
	<ele>1222.20</ele>
	<time>2024-03-25T08:54:31.000Z</time>
</trkpt>
<trkpt lat="45.8612360" lon="9.3314880">
	<ele>1222.40</ele>
	<time>2024-03-25T08:54:32.000Z</time>
</trkpt>
<trkpt lat="45.8612320" lon="9.3314950">
	<ele>1222.80</ele>
	<time>2024-03-25T08:54:33.000Z</time>
</trkpt>
<trkpt lat="45.8612230" lon="9.3315010">
	<ele>1222.80</ele>
	<time>2024-03-25T08:54:34.000Z</time>
</trkpt>
<trkpt lat="45.8612130" lon="9.3315130">
	<ele>1222.80</ele>
	<time>2024-03-25T08:54:35.000Z</time>
</trkpt>
<trkpt lat="45.8612080" lon="9.3315260">
	<ele>1222.80</ele>
	<time>2024-03-25T08:54:36.000Z</time>
</trkpt>
<trkpt lat="45.8612070" lon="9.3315390">
	<ele>1223.00</ele>
	<time>2024-03-25T08:54:37.000Z</time>
</trkpt>
<trkpt lat="45.8612030" lon="9.3315520">
	<ele>1223.00</ele>
	<time>2024-03-25T08:54:38.000Z</time>
</trkpt>
<trkpt lat="45.8611950" lon="9.3315580">
	<ele>1223.20</ele>
	<time>2024-03-25T08:54:39.000Z</time>
</trkpt>
<trkpt lat="45.8611910" lon="9.3315650">
	<ele>1223.40</ele>
	<time>2024-03-25T08:54:40.000Z</time>
</trkpt>
<trkpt lat="45.8611910" lon="9.3315750">
	<ele>1223.60</ele>
	<time>2024-03-25T08:54:41.000Z</time>
</trkpt>
<trkpt lat="45.8611920" lon="9.3315870">
	<ele>1223.80</ele>
	<time>2024-03-25T08:54:42.000Z</time>
</trkpt>
<trkpt lat="45.8611980" lon="9.3316000">
	<ele>1224.00</ele>
	<time>2024-03-25T08:54:43.000Z</time>
</trkpt>
<trkpt lat="45.8612030" lon="9.3316050">
	<ele>1224.40</ele>
	<time>2024-03-25T08:54:44.000Z</time>
</trkpt>
<trkpt lat="45.8612050" lon="9.3316050">
	<ele>1224.80</ele>
	<time>2024-03-25T08:54:45.000Z</time>
</trkpt>
<trkpt lat="45.8612040" lon="9.3316110">
	<ele>1225.00</ele>
	<time>2024-03-25T08:54:46.000Z</time>
</trkpt>
<trkpt lat="45.8612060" lon="9.3316140">
	<ele>1225.00</ele>
	<time>2024-03-25T08:54:47.000Z</time>
</trkpt>
<trkpt lat="45.8611960" lon="9.3316200">
	<ele>1225.20</ele>
	<time>2024-03-25T08:54:48.000Z</time>
</trkpt>
<trkpt lat="45.8611960" lon="9.3316260">
	<ele>1225.20</ele>
	<time>2024-03-25T08:54:49.000Z</time>
</trkpt>
<trkpt lat="45.8611890" lon="9.3316360">
	<ele>1225.40</ele>
	<time>2024-03-25T08:54:50.000Z</time>
</trkpt>
<trkpt lat="45.8611890" lon="9.3316450">
	<ele>1225.60</ele>
	<time>2024-03-25T08:54:51.000Z</time>
</trkpt>
<trkpt lat="45.8611920" lon="9.3316500">
	<ele>1225.80</ele>
	<time>2024-03-25T08:54:52.000Z</time>
</trkpt>
<trkpt lat="45.8611890" lon="9.3316590">
	<ele>1226.00</ele>
	<time>2024-03-25T08:54:53.000Z</time>
</trkpt>
<trkpt lat="45.8611790" lon="9.3316590">
	<ele>1226.20</ele>
	<time>2024-03-25T08:54:54.000Z</time>
</trkpt>
<trkpt lat="45.8611790" lon="9.3316600">
	<ele>1226.40</ele>
	<time>2024-03-25T08:54:55.000Z</time>
</trkpt>
<trkpt lat="45.8611860" lon="9.3316710">
	<ele>1226.40</ele>
	<time>2024-03-25T08:54:56.000Z</time>
</trkpt>
<trkpt lat="45.8611910" lon="9.3316750">
	<ele>1226.40</ele>
	<time>2024-03-25T08:54:57.000Z</time>
</trkpt>
<trkpt lat="45.8611910" lon="9.3316780">
	<ele>1226.60</ele>
	<time>2024-03-25T08:54:58.000Z</time>
</trkpt>
<trkpt lat="45.8611910" lon="9.3316790">
	<ele>1227.00</ele>
	<time>2024-03-25T08:54:59.000Z</time>
</trkpt>
<trkpt lat="45.8611900" lon="9.3316810">
	<ele>1227.20</ele>
	<time>2024-03-25T08:55:00.000Z</time>
</trkpt>
<trkpt lat="45.8611900" lon="9.3316850">
	<ele>1227.40</ele>
	<time>2024-03-25T08:55:01.000Z</time>
</trkpt>
<trkpt lat="45.8611860" lon="9.3316920">
	<ele>1227.60</ele>
	<time>2024-03-25T08:55:02.000Z</time>
</trkpt>
<trkpt lat="45.8611790" lon="9.3317030">
	<ele>1227.60</ele>
	<time>2024-03-25T08:55:03.000Z</time>
</trkpt>
<trkpt lat="45.8611730" lon="9.3317070">
	<ele>1227.60</ele>
	<time>2024-03-25T08:55:04.000Z</time>
</trkpt>
<trkpt lat="45.8611640" lon="9.3317080">
	<ele>1227.80</ele>
	<time>2024-03-25T08:55:05.000Z</time>
</trkpt>
<trkpt lat="45.8611550" lon="9.3317130">
	<ele>1228.00</ele>
	<time>2024-03-25T08:55:06.000Z</time>
</trkpt>
<trkpt lat="45.8611510" lon="9.3317240">
	<ele>1228.20</ele>
	<time>2024-03-25T08:55:07.000Z</time>
</trkpt>
<trkpt lat="45.8611510" lon="9.3317380">
	<ele>1228.40</ele>
	<time>2024-03-25T08:55:08.000Z</time>
</trkpt>
<trkpt lat="45.8611530" lon="9.3317470">
	<ele>1228.40</ele>
	<time>2024-03-25T08:55:09.000Z</time>
</trkpt>
<trkpt lat="45.8611520" lon="9.3317540">
	<ele>1228.60</ele>
	<time>2024-03-25T08:55:10.000Z</time>
</trkpt>
<trkpt lat="45.8611540" lon="9.3317630">
	<ele>1228.80</ele>
	<time>2024-03-25T08:55:11.000Z</time>
</trkpt>
<trkpt lat="45.8611530" lon="9.3317690">
	<ele>1229.00</ele>
	<time>2024-03-25T08:55:12.000Z</time>
</trkpt>
<trkpt lat="45.8611530" lon="9.3317730">
	<ele>1229.40</ele>
	<time>2024-03-25T08:55:13.000Z</time>
</trkpt>
<trkpt lat="45.8611530" lon="9.3317770">
	<ele>1229.60</ele>
	<time>2024-03-25T08:55:14.000Z</time>
</trkpt>
<trkpt lat="45.8611550" lon="9.3317870">
	<ele>1229.80</ele>
	<time>2024-03-25T08:55:15.000Z</time>
</trkpt>
<trkpt lat="45.8611560" lon="9.3317910">
	<ele>1230.00</ele>
	<time>2024-03-25T08:55:16.000Z</time>
</trkpt>
<trkpt lat="45.8611560" lon="9.3317950">
	<ele>1230.20</ele>
	<time>2024-03-25T08:55:17.000Z</time>
</trkpt>
<trkpt lat="45.8611560" lon="9.3318010">
	<ele>1230.40</ele>
	<time>2024-03-25T08:55:18.000Z</time>
</trkpt>
<trkpt lat="45.8611570" lon="9.3318070">
	<ele>1230.40</ele>
	<time>2024-03-25T08:55:19.000Z</time>
</trkpt>
<trkpt lat="45.8611580" lon="9.3318130">
	<ele>1230.60</ele>
	<time>2024-03-25T08:55:20.000Z</time>
</trkpt>
<trkpt lat="45.8611590" lon="9.3318190">
	<ele>1230.80</ele>
	<time>2024-03-25T08:55:21.000Z</time>
</trkpt>
<trkpt lat="45.8611610" lon="9.3318250">
	<ele>1230.80</ele>
	<time>2024-03-25T08:55:22.000Z</time>
</trkpt>
<trkpt lat="45.8611640" lon="9.3318340">
	<ele>1231.00</ele>
	<time>2024-03-25T08:55:23.000Z</time>
</trkpt>
<trkpt lat="45.8611640" lon="9.3318430">
	<ele>1231.20</ele>
	<time>2024-03-25T08:55:24.000Z</time>
</trkpt>
<trkpt lat="45.8611660" lon="9.3318510">
	<ele>1231.40</ele>
	<time>2024-03-25T08:55:25.000Z</time>
</trkpt>
<trkpt lat="45.8611680" lon="9.3318570">
	<ele>1231.60</ele>
	<time>2024-03-25T08:55:26.000Z</time>
</trkpt>
<trkpt lat="45.8611680" lon="9.3318650">
	<ele>1231.80</ele>
	<time>2024-03-25T08:55:27.000Z</time>
</trkpt>
<trkpt lat="45.8611680" lon="9.3318710">
	<ele>1231.80</ele>
	<time>2024-03-25T08:55:28.000Z</time>
</trkpt>
<trkpt lat="45.8611690" lon="9.3318760">
	<ele>1232.40</ele>
	<time>2024-03-25T08:55:29.000Z</time>
</trkpt>
<trkpt lat="45.8611700" lon="9.3318830">
	<ele>1232.60</ele>
	<time>2024-03-25T08:55:30.000Z</time>
</trkpt>
<trkpt lat="45.8611720" lon="9.3318920">
	<ele>1232.80</ele>
	<time>2024-03-25T08:55:31.000Z</time>
</trkpt>
<trkpt lat="45.8611730" lon="9.3319010">
	<ele>1233.00</ele>
	<time>2024-03-25T08:55:32.000Z</time>
</trkpt>
<trkpt lat="45.8611730" lon="9.3319080">
	<ele>1233.40</ele>
	<time>2024-03-25T08:55:33.000Z</time>
</trkpt>
<trkpt lat="45.8611720" lon="9.3319170">
	<ele>1233.60</ele>
	<time>2024-03-25T08:55:34.000Z</time>
</trkpt>
<trkpt lat="45.8611700" lon="9.3319250">
	<ele>1233.80</ele>
	<time>2024-03-25T08:55:35.000Z</time>
</trkpt>
<trkpt lat="45.8611670" lon="9.3319280">
	<ele>1234.00</ele>
	<time>2024-03-25T08:55:36.000Z</time>
</trkpt>
<trkpt lat="45.8611660" lon="9.3319270">
	<ele>1234.00</ele>
	<time>2024-03-25T08:55:37.000Z</time>
</trkpt>
<trkpt lat="45.8611650" lon="9.3319290">
	<ele>1234.20</ele>
	<time>2024-03-25T08:55:38.000Z</time>
</trkpt>
<trkpt lat="45.8611640" lon="9.3319310">
	<ele>1234.40</ele>
	<time>2024-03-25T08:55:39.000Z</time>
</trkpt>
<trkpt lat="45.8611610" lon="9.3319310">
	<ele>1234.60</ele>
	<time>2024-03-25T08:55:40.000Z</time>
</trkpt>
<trkpt lat="45.8611600" lon="9.3319330">
	<ele>1234.60</ele>
	<time>2024-03-25T08:55:41.000Z</time>
</trkpt>
<trkpt lat="45.8611590" lon="9.3319350">
	<ele>1234.80</ele>
	<time>2024-03-25T08:55:42.000Z</time>
</trkpt>
<trkpt lat="45.8611560" lon="9.3319390">
	<ele>1234.80</ele>
	<time>2024-03-25T08:55:43.000Z</time>
</trkpt>
<trkpt lat="45.8611530" lon="9.3319450">
	<ele>1235.00</ele>
	<time>2024-03-25T08:55:44.000Z</time>
</trkpt>
<trkpt lat="45.8611500" lon="9.3319520">
	<ele>1235.00</ele>
	<time>2024-03-25T08:55:45.000Z</time>
</trkpt>
<trkpt lat="45.8611470" lon="9.3319560">
	<ele>1235.40</ele>
	<time>2024-03-25T08:55:46.000Z</time>
</trkpt>
<trkpt lat="45.8611450" lon="9.3319610">
	<ele>1235.40</ele>
	<time>2024-03-25T08:55:47.000Z</time>
</trkpt>
<trkpt lat="45.8611450" lon="9.3319700">
	<ele>1235.60</ele>
	<time>2024-03-25T08:55:48.000Z</time>
</trkpt>
<trkpt lat="45.8611460" lon="9.3319780">
	<ele>1235.60</ele>
	<time>2024-03-25T08:55:49.000Z</time>
</trkpt>
<trkpt lat="45.8611480" lon="9.3319880">
	<ele>1235.80</ele>
	<time>2024-03-25T08:55:50.000Z</time>
</trkpt>
<trkpt lat="45.8611520" lon="9.3319970">
	<ele>1236.00</ele>
	<time>2024-03-25T08:55:51.000Z</time>
</trkpt>
<trkpt lat="45.8611530" lon="9.3320020">
	<ele>1236.40</ele>
	<time>2024-03-25T08:55:52.000Z</time>
</trkpt>
<trkpt lat="45.8611540" lon="9.3320080">
	<ele>1236.60</ele>
	<time>2024-03-25T08:55:53.000Z</time>
</trkpt>
<trkpt lat="45.8611520" lon="9.3320130">
	<ele>1236.80</ele>
	<time>2024-03-25T08:55:54.000Z</time>
</trkpt>
<trkpt lat="45.8611490" lon="9.3320170">
	<ele>1236.80</ele>
	<time>2024-03-25T08:55:55.000Z</time>
</trkpt>
<trkpt lat="45.8611450" lon="9.3320230">
	<ele>1237.00</ele>
	<time>2024-03-25T08:55:56.000Z</time>
</trkpt>
<trkpt lat="45.8611380" lon="9.3320320">
	<ele>1237.00</ele>
	<time>2024-03-25T08:55:57.000Z</time>
</trkpt>
<trkpt lat="45.8611330" lon="9.3320410">
	<ele>1237.20</ele>
	<time>2024-03-25T08:55:58.000Z</time>
</trkpt>
<trkpt lat="45.8611320" lon="9.3320500">
	<ele>1237.40</ele>
	<time>2024-03-25T08:55:59.000Z</time>
</trkpt>
<trkpt lat="45.8611310" lon="9.3320610">
	<ele>1237.60</ele>
	<time>2024-03-25T08:56:00.000Z</time>
</trkpt>
<trkpt lat="45.8611330" lon="9.3320730">
	<ele>1237.80</ele>
	<time>2024-03-25T08:56:01.000Z</time>
</trkpt>
<trkpt lat="45.8611350" lon="9.3320800">
	<ele>1238.00</ele>
	<time>2024-03-25T08:56:02.000Z</time>
</trkpt>
<trkpt lat="45.8611390" lon="9.3320860">
	<ele>1238.40</ele>
	<time>2024-03-25T08:56:03.000Z</time>
</trkpt>
<trkpt lat="45.8611470" lon="9.3320930">
	<ele>1238.60</ele>
	<time>2024-03-25T08:56:04.000Z</time>
</trkpt>
<trkpt lat="45.8611540" lon="9.3320970">
	<ele>1238.80</ele>
	<time>2024-03-25T08:56:05.000Z</time>
</trkpt>
<trkpt lat="45.8611610" lon="9.3320980">
	<ele>1239.20</ele>
	<time>2024-03-25T08:56:06.000Z</time>
</trkpt>
<trkpt lat="45.8611640" lon="9.3320970">
	<ele>1239.40</ele>
	<time>2024-03-25T08:56:07.000Z</time>
</trkpt>
<trkpt lat="45.8611660" lon="9.3320960">
	<ele>1239.60</ele>
	<time>2024-03-25T08:56:08.000Z</time>
</trkpt>
<trkpt lat="45.8611670" lon="9.3321000">
	<ele>1239.80</ele>
	<time>2024-03-25T08:56:09.000Z</time>
</trkpt>
<trkpt lat="45.8611680" lon="9.3321060">
	<ele>1240.00</ele>
	<time>2024-03-25T08:56:10.000Z</time>
</trkpt>
<trkpt lat="45.8611670" lon="9.3321110">
	<ele>1240.00</ele>
	<time>2024-03-25T08:56:11.000Z</time>
</trkpt>
<trkpt lat="45.8611630" lon="9.3321150">
	<ele>1240.00</ele>
	<time>2024-03-25T08:56:12.000Z</time>
</trkpt>
<trkpt lat="45.8611610" lon="9.3321200">
	<ele>1240.00</ele>
	<time>2024-03-25T08:56:13.000Z</time>
</trkpt>
<trkpt lat="45.8611580" lon="9.3321260">
	<ele>1240.20</ele>
	<time>2024-03-25T08:56:14.000Z</time>
</trkpt>
<trkpt lat="45.8611560" lon="9.3321310">
	<ele>1240.20</ele>
	<time>2024-03-25T08:56:15.000Z</time>
</trkpt>
<trkpt lat="45.8611560" lon="9.3321400">
	<ele>1240.20</ele>
	<time>2024-03-25T08:56:16.000Z</time>
</trkpt>
<trkpt lat="45.8611550" lon="9.3321470">
	<ele>1240.40</ele>
	<time>2024-03-25T08:56:17.000Z</time>
</trkpt>
<trkpt lat="45.8611550" lon="9.3321570">
	<ele>1240.60</ele>
	<time>2024-03-25T08:56:18.000Z</time>
</trkpt>
<trkpt lat="45.8611560" lon="9.3321670">
	<ele>1240.80</ele>
	<time>2024-03-25T08:56:19.000Z</time>
</trkpt>
<trkpt lat="45.8611550" lon="9.3321760">
	<ele>1241.00</ele>
	<time>2024-03-25T08:56:20.000Z</time>
</trkpt>
<trkpt lat="45.8611550" lon="9.3321840">
	<ele>1241.20</ele>
	<time>2024-03-25T08:56:21.000Z</time>
</trkpt>
<trkpt lat="45.8611550" lon="9.3321910">
	<ele>1241.40</ele>
	<time>2024-03-25T08:56:22.000Z</time>
</trkpt>
<trkpt lat="45.8611540" lon="9.3321930">
	<ele>1241.80</ele>
	<time>2024-03-25T08:56:23.000Z</time>
</trkpt>
<trkpt lat="45.8611540" lon="9.3321950">
	<ele>1242.00</ele>
	<time>2024-03-25T08:56:24.000Z</time>
</trkpt>
<trkpt lat="45.8611520" lon="9.3322020">
	<ele>1242.20</ele>
	<time>2024-03-25T08:56:25.000Z</time>
</trkpt>
<trkpt lat="45.8611520" lon="9.3322080">
	<ele>1242.40</ele>
	<time>2024-03-25T08:56:26.000Z</time>
</trkpt>
<trkpt lat="45.8611510" lon="9.3322120">
	<ele>1242.60</ele>
	<time>2024-03-25T08:56:27.000Z</time>
</trkpt>
<trkpt lat="45.8611490" lon="9.3322160">
	<ele>1242.60</ele>
	<time>2024-03-25T08:56:28.000Z</time>
</trkpt>
<trkpt lat="45.8611460" lon="9.3322190">
	<ele>1242.80</ele>
	<time>2024-03-25T08:56:29.000Z</time>
</trkpt>
<trkpt lat="45.8611450" lon="9.3322200">
	<ele>1242.80</ele>
	<time>2024-03-25T08:56:30.000Z</time>
</trkpt>
<trkpt lat="45.8611420" lon="9.3322190">
	<ele>1243.00</ele>
	<time>2024-03-25T08:56:31.000Z</time>
</trkpt>
<trkpt lat="45.8611390" lon="9.3322180">
	<ele>1243.20</ele>
	<time>2024-03-25T08:56:32.000Z</time>
</trkpt>
<trkpt lat="45.8611320" lon="9.3322160">
	<ele>1243.20</ele>
	<time>2024-03-25T08:56:33.000Z</time>
</trkpt>
<trkpt lat="45.8611260" lon="9.3322200">
	<ele>1243.40</ele>
	<time>2024-03-25T08:56:34.000Z</time>
</trkpt>
<trkpt lat="45.8611200" lon="9.3322300">
	<ele>1243.40</ele>
	<time>2024-03-25T08:56:35.000Z</time>
</trkpt>
<trkpt lat="45.8611180" lon="9.3322380">
	<ele>1243.60</ele>
	<time>2024-03-25T08:56:36.000Z</time>
</trkpt>
<trkpt lat="45.8611160" lon="9.3322470">
	<ele>1243.60</ele>
	<time>2024-03-25T08:56:37.000Z</time>
</trkpt>
<trkpt lat="45.8611150" lon="9.3322550">
	<ele>1243.80</ele>
	<time>2024-03-25T08:56:38.000Z</time>
</trkpt>
<trkpt lat="45.8611130" lon="9.3322600">
	<ele>1244.00</ele>
	<time>2024-03-25T08:56:39.000Z</time>
</trkpt>
<trkpt lat="45.8611120" lon="9.3322650">
	<ele>1244.00</ele>
	<time>2024-03-25T08:56:40.000Z</time>
</trkpt>
<trkpt lat="45.8611110" lon="9.3322700">
	<ele>1244.00</ele>
	<time>2024-03-25T08:56:41.000Z</time>
</trkpt>
<trkpt lat="45.8611110" lon="9.3322750">
	<ele>1244.20</ele>
	<time>2024-03-25T08:56:42.000Z</time>
</trkpt>
<trkpt lat="45.8611120" lon="9.3322830">
	<ele>1244.40</ele>
	<time>2024-03-25T08:56:43.000Z</time>
</trkpt>
<trkpt lat="45.8611120" lon="9.3322900">
	<ele>1244.40</ele>
	<time>2024-03-25T08:56:44.000Z</time>
</trkpt>
<trkpt lat="45.8611100" lon="9.3322960">
	<ele>1244.60</ele>
	<time>2024-03-25T08:56:45.000Z</time>
</trkpt>
<trkpt lat="45.8611100" lon="9.3322950">
	<ele>1244.60</ele>
	<time>2024-03-25T08:56:46.000Z</time>
</trkpt>
<trkpt lat="45.8611100" lon="9.3322920">
	<ele>1244.80</ele>
	<time>2024-03-25T08:56:47.000Z</time>
</trkpt>
<trkpt lat="45.8611070" lon="9.3322910">
	<ele>1245.20</ele>
	<time>2024-03-25T08:56:48.000Z</time>
</trkpt>
<trkpt lat="45.8611050" lon="9.3322930">
	<ele>1245.40</ele>
	<time>2024-03-25T08:56:49.000Z</time>
</trkpt>
<trkpt lat="45.8611050" lon="9.3322940">
	<ele>1245.40</ele>
	<time>2024-03-25T08:56:50.000Z</time>
</trkpt>
<trkpt lat="45.8611050" lon="9.3322940">
	<ele>1245.60</ele>
	<time>2024-03-25T08:56:51.000Z</time>
</trkpt>
<trkpt lat="45.8611050" lon="9.3322940">
	<ele>1245.60</ele>
	<time>2024-03-25T08:56:52.000Z</time>
</trkpt>
<trkpt lat="45.8611050" lon="9.3322940">
	<ele>1245.80</ele>
	<time>2024-03-25T08:56:53.000Z</time>
</trkpt>
<trkpt lat="45.8611050" lon="9.3322940">
	<ele>1245.80</ele>
	<time>2024-03-25T08:56:54.000Z</time>
</trkpt>
<trkpt lat="45.8611050" lon="9.3322940">
	<ele>1245.80</ele>
	<time>2024-03-25T08:56:55.000Z</time>
</trkpt>
<trkpt lat="45.8611050" lon="9.3322940">
	<ele>1245.80</ele>
	<time>2024-03-25T08:56:56.000Z</time>
</trkpt>
<trkpt lat="45.8611050" lon="9.3322940">
	<ele>1245.80</ele>
	<time>2024-03-25T08:56:57.000Z</time>
</trkpt>
<trkpt lat="45.8611050" lon="9.3322940">
	<ele>1245.80</ele>
	<time>2024-03-25T08:56:58.000Z</time>
</trkpt>
<trkpt lat="45.8611050" lon="9.3322940">
	<ele>1245.60</ele>
	<time>2024-03-25T08:56:59.000Z</time>
</trkpt>
<trkpt lat="45.8611050" lon="9.3322940">
	<ele>1245.60</ele>
	<time>2024-03-25T08:57:00.000Z</time>
</trkpt>
<trkpt lat="45.8611070" lon="9.3322940">
	<ele>1245.60</ele>
	<time>2024-03-25T08:57:01.000Z</time>
</trkpt>
<trkpt lat="45.8611070" lon="9.3322940">
	<ele>1245.60</ele>
	<time>2024-03-25T08:57:02.000Z</time>
</trkpt>
<trkpt lat="45.8611090" lon="9.3322940">
	<ele>1245.60</ele>
	<time>2024-03-25T08:57:03.000Z</time>
</trkpt>
<trkpt lat="45.8611100" lon="9.3322940">
	<ele>1245.60</ele>
	<time>2024-03-25T08:57:04.000Z</time>
</trkpt>
<trkpt lat="45.8611100" lon="9.3322930">
	<ele>1245.60</ele>
	<time>2024-03-25T08:57:05.000Z</time>
</trkpt>
<trkpt lat="45.8611120" lon="9.3322930">
	<ele>1245.40</ele>
	<time>2024-03-25T08:57:06.000Z</time>
</trkpt>
<trkpt lat="45.8611120" lon="9.3322920">
	<ele>1245.40</ele>
	<time>2024-03-25T08:57:07.000Z</time>
</trkpt>
<trkpt lat="45.8611120" lon="9.3322920">
	<ele>1245.40</ele>
	<time>2024-03-25T08:57:08.000Z</time>
</trkpt>
<trkpt lat="45.8611120" lon="9.3322920">
	<ele>1245.40</ele>
	<time>2024-03-25T08:57:09.000Z</time>
</trkpt>
<trkpt lat="45.8611120" lon="9.3322920">
	<ele>1245.40</ele>
	<time>2024-03-25T08:57:10.000Z</time>
</trkpt>
<trkpt lat="45.8611120" lon="9.3322920">
	<ele>1245.40</ele>
	<time>2024-03-25T08:57:11.000Z</time>
</trkpt>
<trkpt lat="45.8611120" lon="9.3322920">
	<ele>1245.40</ele>
	<time>2024-03-25T08:57:12.000Z</time>
</trkpt>
<trkpt lat="45.8611120" lon="9.3322920">
	<ele>1245.60</ele>
	<time>2024-03-25T08:57:13.000Z</time>
</trkpt>
<trkpt lat="45.8611110" lon="9.3322930">
	<ele>1245.60</ele>
	<time>2024-03-25T08:57:14.000Z</time>
</trkpt>
<trkpt lat="45.8611110" lon="9.3322930">
	<ele>1245.40</ele>
	<time>2024-03-25T08:57:15.000Z</time>
</trkpt>
<trkpt lat="45.8611110" lon="9.3322930">
	<ele>1245.40</ele>
	<time>2024-03-25T08:57:16.000Z</time>
</trkpt>
<trkpt lat="45.8611110" lon="9.3322930">
	<ele>1245.40</ele>
	<time>2024-03-25T08:57:17.000Z</time>
</trkpt>
<trkpt lat="45.8611110" lon="9.3322940">
	<ele>1245.40</ele>
	<time>2024-03-25T08:57:18.000Z</time>
</trkpt>
<trkpt lat="45.8611110" lon="9.3322940">
	<ele>1245.60</ele>
	<time>2024-03-25T08:57:19.000Z</time>
</trkpt>
<trkpt lat="45.8611120" lon="9.3322940">
	<ele>1245.80</ele>
	<time>2024-03-25T08:57:20.000Z</time>
</trkpt>
<trkpt lat="45.8611120" lon="9.3322940">
	<ele>1246.00</ele>
	<time>2024-03-25T08:57:21.000Z</time>
</trkpt>
<trkpt lat="45.8611120" lon="9.3322960">
	<ele>1246.20</ele>
	<time>2024-03-25T08:57:22.000Z</time>
</trkpt>
<trkpt lat="45.8611120" lon="9.3323010">
	<ele>1246.40</ele>
	<time>2024-03-25T08:57:23.000Z</time>
</trkpt>
<trkpt lat="45.8611120" lon="9.3323030">
	<ele>1246.80</ele>
	<time>2024-03-25T08:57:24.000Z</time>
</trkpt>
<trkpt lat="45.8611120" lon="9.3323030">
	<ele>1247.00</ele>
	<time>2024-03-25T08:57:25.000Z</time>
</trkpt>
<trkpt lat="45.8611120" lon="9.3323030">
	<ele>1247.20</ele>
	<time>2024-03-25T08:57:26.000Z</time>
</trkpt>
<trkpt lat="45.8611120" lon="9.3323040">
	<ele>1247.60</ele>
	<time>2024-03-25T08:57:27.000Z</time>
</trkpt>
<trkpt lat="45.8611120" lon="9.3323040">
	<ele>1247.80</ele>
	<time>2024-03-25T08:57:28.000Z</time>
</trkpt>
<trkpt lat="45.8611120" lon="9.3323050">
	<ele>1248.00</ele>
	<time>2024-03-25T08:57:29.000Z</time>
</trkpt>
<trkpt lat="45.8611120" lon="9.3323070">
	<ele>1248.20</ele>
	<time>2024-03-25T08:57:30.000Z</time>
</trkpt>
<trkpt lat="45.8611120" lon="9.3323160">
	<ele>1248.40</ele>
	<time>2024-03-25T08:57:31.000Z</time>
</trkpt>
<trkpt lat="45.8611190" lon="9.3323260">
	<ele>1248.40</ele>
	<time>2024-03-25T08:57:32.000Z</time>
</trkpt>
<trkpt lat="45.8611310" lon="9.3323360">
	<ele>1248.60</ele>
	<time>2024-03-25T08:57:33.000Z</time>
</trkpt>
<trkpt lat="45.8611420" lon="9.3323450">
	<ele>1248.80</ele>
	<time>2024-03-25T08:57:34.000Z</time>
</trkpt>
<trkpt lat="45.8611530" lon="9.3323530">
	<ele>1248.80</ele>
	<time>2024-03-25T08:57:35.000Z</time>
</trkpt>
<trkpt lat="45.8611660" lon="9.3323640">
	<ele>1248.80</ele>
	<time>2024-03-25T08:57:36.000Z</time>
</trkpt>
<trkpt lat="45.8611780" lon="9.3323790">
	<ele>1249.00</ele>
	<time>2024-03-25T08:57:37.000Z</time>
</trkpt>
<trkpt lat="45.8611880" lon="9.3323940">
	<ele>1249.00</ele>
	<time>2024-03-25T08:57:38.000Z</time>
</trkpt>
<trkpt lat="45.8611990" lon="9.3324070">
	<ele>1249.00</ele>
	<time>2024-03-25T08:57:39.000Z</time>
</trkpt>
<trkpt lat="45.8612080" lon="9.3324180">
	<ele>1249.00</ele>
	<time>2024-03-25T08:57:40.000Z</time>
</trkpt>
<trkpt lat="45.8612150" lon="9.3324270">
	<ele>1249.00</ele>
	<time>2024-03-25T08:57:41.000Z</time>
</trkpt>
<trkpt lat="45.8612150" lon="9.3324270">
	<ele>1249.20</ele>
	<time>2024-03-25T08:57:42.000Z</time>
</trkpt>
<trkpt lat="45.8612150" lon="9.3324270">
	<ele>1249.20</ele>
	<time>2024-03-25T08:57:43.000Z</time>
</trkpt>
<trkpt lat="45.8612170" lon="9.3324240">
	<ele>1249.20</ele>
	<time>2024-03-25T08:57:44.000Z</time>
</trkpt>
<trkpt lat="45.8612180" lon="9.3324250">
	<ele>1249.20</ele>
	<time>2024-03-25T08:57:45.000Z</time>
</trkpt>
<trkpt lat="45.8612200" lon="9.3324260">
	<ele>1249.40</ele>
	<time>2024-03-25T08:57:46.000Z</time>
</trkpt>
<trkpt lat="45.8612200" lon="9.3324280">
	<ele>1249.20</ele>
	<time>2024-03-25T08:57:47.000Z</time>
</trkpt>
<trkpt lat="45.8612210" lon="9.3324310">
	<ele>1249.20</ele>
	<time>2024-03-25T08:57:48.000Z</time>
</trkpt>
<trkpt lat="45.8612210" lon="9.3324340">
	<ele>1249.40</ele>
	<time>2024-03-25T08:57:49.000Z</time>
</trkpt>
<trkpt lat="45.8612200" lon="9.3324350">
	<ele>1249.40</ele>
	<time>2024-03-25T08:57:50.000Z</time>
</trkpt>
<trkpt lat="45.8612210" lon="9.3324350">
	<ele>1249.40</ele>
	<time>2024-03-25T08:57:51.000Z</time>
</trkpt>
<trkpt lat="45.8612210" lon="9.3324350">
	<ele>1249.40</ele>
	<time>2024-03-25T08:57:52.000Z</time>
</trkpt>
<trkpt lat="45.8612210" lon="9.3324350">
	<ele>1249.40</ele>
	<time>2024-03-25T08:57:53.000Z</time>
</trkpt>
<trkpt lat="45.8612210" lon="9.3324350">
	<ele>1249.60</ele>
	<time>2024-03-25T08:57:54.000Z</time>
</trkpt>
<trkpt lat="45.8612210" lon="9.3324350">
	<ele>1249.40</ele>
	<time>2024-03-25T08:57:55.000Z</time>
</trkpt>
<trkpt lat="45.8612210" lon="9.3324350">
	<ele>1249.40</ele>
	<time>2024-03-25T08:57:56.000Z</time>
</trkpt>
<trkpt lat="45.8612210" lon="9.3324350">
	<ele>1249.40</ele>
	<time>2024-03-25T08:57:57.000Z</time>
</trkpt>
<trkpt lat="45.8612210" lon="9.3324350">
	<ele>1249.40</ele>
	<time>2024-03-25T08:57:58.000Z</time>
</trkpt>
<trkpt lat="45.8612210" lon="9.3324350">
	<ele>1249.40</ele>
	<time>2024-03-25T08:57:59.000Z</time>
</trkpt>
<trkpt lat="45.8612210" lon="9.3324350">
	<ele>1249.40</ele>
	<time>2024-03-25T08:58:00.000Z</time>
</trkpt>
<trkpt lat="45.8612210" lon="9.3324350">
	<ele>1249.40</ele>
	<time>2024-03-25T08:58:01.000Z</time>
</trkpt>
<trkpt lat="45.8612210" lon="9.3324350">
	<ele>1249.40</ele>
	<time>2024-03-25T08:58:02.000Z</time>
</trkpt>
<trkpt lat="45.8612210" lon="9.3324350">
	<ele>1249.40</ele>
	<time>2024-03-25T08:58:03.000Z</time>
</trkpt>
<trkpt lat="45.8612210" lon="9.3324350">
	<ele>1249.20</ele>
	<time>2024-03-25T08:58:04.000Z</time>
</trkpt>
<trkpt lat="45.8612210" lon="9.3324350">
	<ele>1249.20</ele>
	<time>2024-03-25T08:58:05.000Z</time>
</trkpt>
<trkpt lat="45.8612210" lon="9.3324350">
	<ele>1249.20</ele>
	<time>2024-03-25T08:58:06.000Z</time>
</trkpt>
<trkpt lat="45.8612210" lon="9.3324350">
	<ele>1249.00</ele>
	<time>2024-03-25T08:58:07.000Z</time>
</trkpt>
<trkpt lat="45.8612210" lon="9.3324340">
	<ele>1249.00</ele>
	<time>2024-03-25T08:58:08.000Z</time>
</trkpt>
<trkpt lat="45.8612200" lon="9.3324340">
	<ele>1249.00</ele>
	<time>2024-03-25T08:58:09.000Z</time>
</trkpt>
<trkpt lat="45.8612200" lon="9.3324320">
	<ele>1248.80</ele>
	<time>2024-03-25T08:58:10.000Z</time>
</trkpt>
<trkpt lat="45.8612200" lon="9.3324310">
	<ele>1248.80</ele>
	<time>2024-03-25T08:58:11.000Z</time>
</trkpt>
<trkpt lat="45.8612200" lon="9.3324310">
	<ele>1248.80</ele>
	<time>2024-03-25T08:58:12.000Z</time>
</trkpt>
<trkpt lat="45.8612200" lon="9.3324300">
	<ele>1248.80</ele>
	<time>2024-03-25T08:58:13.000Z</time>
</trkpt>
<trkpt lat="45.8612200" lon="9.3324310">
	<ele>1248.80</ele>
	<time>2024-03-25T08:58:14.000Z</time>
</trkpt>
<trkpt lat="45.8612200" lon="9.3324310">
	<ele>1248.60</ele>
	<time>2024-03-25T08:58:15.000Z</time>
</trkpt>
<trkpt lat="45.8612190" lon="9.3324320">
	<ele>1248.60</ele>
	<time>2024-03-25T08:58:16.000Z</time>
</trkpt>
<trkpt lat="45.8612170" lon="9.3324330">
	<ele>1248.60</ele>
	<time>2024-03-25T08:58:17.000Z</time>
</trkpt>
<trkpt lat="45.8612160" lon="9.3324340">
	<ele>1248.60</ele>
	<time>2024-03-25T08:58:18.000Z</time>
</trkpt>
<trkpt lat="45.8612150" lon="9.3324350">
	<ele>1248.60</ele>
	<time>2024-03-25T08:58:19.000Z</time>
</trkpt>
<trkpt lat="45.8612150" lon="9.3324350">
	<ele>1248.60</ele>
	<time>2024-03-25T08:58:20.000Z</time>
</trkpt>
<trkpt lat="45.8612130" lon="9.3324350">
	<ele>1248.60</ele>
	<time>2024-03-25T08:58:21.000Z</time>
</trkpt>
<trkpt lat="45.8612110" lon="9.3324360">
	<ele>1248.60</ele>
	<time>2024-03-25T08:58:22.000Z</time>
</trkpt>
<trkpt lat="45.8612050" lon="9.3324360">
	<ele>1248.60</ele>
	<time>2024-03-25T08:58:23.000Z</time>
</trkpt>
<trkpt lat="45.8611960" lon="9.3324360">
	<ele>1248.60</ele>
	<time>2024-03-25T08:58:24.000Z</time>
</trkpt>
<trkpt lat="45.8611890" lon="9.3324360">
	<ele>1248.60</ele>
	<time>2024-03-25T08:58:25.000Z</time>
</trkpt>
<trkpt lat="45.8611830" lon="9.3324360">
	<ele>1248.60</ele>
	<time>2024-03-25T08:58:26.000Z</time>
</trkpt>
<trkpt lat="45.8611790" lon="9.3324360">
	<ele>1248.40</ele>
	<time>2024-03-25T08:58:27.000Z</time>
</trkpt>
<trkpt lat="45.8611730" lon="9.3324380">
	<ele>1248.40</ele>
	<time>2024-03-25T08:58:28.000Z</time>
</trkpt>
<trkpt lat="45.8611680" lon="9.3324480">
	<ele>1248.40</ele>
	<time>2024-03-25T08:58:29.000Z</time>
</trkpt>
<trkpt lat="45.8611670" lon="9.3324570">
	<ele>1248.60</ele>
	<time>2024-03-25T08:58:30.000Z</time>
</trkpt>
<trkpt lat="45.8611670" lon="9.3324610">
	<ele>1248.60</ele>
	<time>2024-03-25T08:58:31.000Z</time>
</trkpt>
<trkpt lat="45.8611670" lon="9.3324630">
	<ele>1248.60</ele>
	<time>2024-03-25T08:58:32.000Z</time>
</trkpt>
<trkpt lat="45.8611670" lon="9.3324630">
	<ele>1248.60</ele>
	<time>2024-03-25T08:58:33.000Z</time>
</trkpt>
<trkpt lat="45.8611670" lon="9.3324630">
	<ele>1248.80</ele>
	<time>2024-03-25T08:58:34.000Z</time>
</trkpt>
<trkpt lat="45.8611670" lon="9.3324630">
	<ele>1249.00</ele>
	<time>2024-03-25T08:58:35.000Z</time>
</trkpt>
<trkpt lat="45.8611670" lon="9.3324630">
	<ele>1249.00</ele>
	<time>2024-03-25T08:58:36.000Z</time>
</trkpt>
<trkpt lat="45.8611670" lon="9.3324630">
	<ele>1249.00</ele>
	<time>2024-03-25T08:58:37.000Z</time>
</trkpt>
<trkpt lat="45.8611670" lon="9.3324630">
	<ele>1249.00</ele>
	<time>2024-03-25T08:58:38.000Z</time>
</trkpt>
<trkpt lat="45.8611670" lon="9.3324630">
	<ele>1248.80</ele>
	<time>2024-03-25T08:58:39.000Z</time>
</trkpt>
<trkpt lat="45.8611670" lon="9.3324630">
	<ele>1248.80</ele>
	<time>2024-03-25T08:58:40.000Z</time>
</trkpt>
<trkpt lat="45.8611670" lon="9.3324640">
	<ele>1248.80</ele>
	<time>2024-03-25T08:58:41.000Z</time>
</trkpt>
<trkpt lat="45.8611670" lon="9.3324640">
	<ele>1248.80</ele>
	<time>2024-03-25T08:58:42.000Z</time>
</trkpt>
<trkpt lat="45.8611670" lon="9.3324640">
	<ele>1248.80</ele>
	<time>2024-03-25T08:58:43.000Z</time>
</trkpt>
<trkpt lat="45.8611710" lon="9.3324650">
	<ele>1248.80</ele>
	<time>2024-03-25T08:58:44.000Z</time>
</trkpt>
<trkpt lat="45.8611730" lon="9.3324650">
	<ele>1248.80</ele>
	<time>2024-03-25T08:58:45.000Z</time>
</trkpt>
<trkpt lat="45.8611730" lon="9.3324650">
	<ele>1248.80</ele>
	<time>2024-03-25T08:58:46.000Z</time>
</trkpt>
<trkpt lat="45.8611740" lon="9.3324650">
	<ele>1248.80</ele>
	<time>2024-03-25T08:58:47.000Z</time>
</trkpt>
<trkpt lat="45.8611740" lon="9.3324650">
	<ele>1248.60</ele>
	<time>2024-03-25T08:58:48.000Z</time>
</trkpt>
<trkpt lat="45.8611740" lon="9.3324650">
	<ele>1248.60</ele>
	<time>2024-03-25T08:58:49.000Z</time>
</trkpt>
<trkpt lat="45.8611740" lon="9.3324650">
	<ele>1248.60</ele>
	<time>2024-03-25T08:58:50.000Z</time>
</trkpt>
<trkpt lat="45.8611740" lon="9.3324650">
	<ele>1248.60</ele>
	<time>2024-03-25T08:58:51.000Z</time>
</trkpt>
<trkpt lat="45.8611740" lon="9.3324650">
	<ele>1248.60</ele>
	<time>2024-03-25T08:58:52.000Z</time>
</trkpt>
<trkpt lat="45.8611740" lon="9.3324650">
	<ele>1248.60</ele>
	<time>2024-03-25T08:58:53.000Z</time>
</trkpt>
<trkpt lat="45.8611740" lon="9.3324650">
	<ele>1248.60</ele>
	<time>2024-03-25T08:58:54.000Z</time>
</trkpt>
<trkpt lat="45.8611740" lon="9.3324650">
	<ele>1248.60</ele>
	<time>2024-03-25T08:58:55.000Z</time>
</trkpt>
<trkpt lat="45.8611740" lon="9.3324650">
	<ele>1248.60</ele>
	<time>2024-03-25T08:58:56.000Z</time>
</trkpt>
<trkpt lat="45.8611740" lon="9.3324650">
	<ele>1248.60</ele>
	<time>2024-03-25T08:58:57.000Z</time>
</trkpt>
<trkpt lat="45.8611740" lon="9.3324650">
	<ele>1248.60</ele>
	<time>2024-03-25T08:58:58.000Z</time>
</trkpt>
<trkpt lat="45.8611740" lon="9.3324660">
	<ele>1248.60</ele>
	<time>2024-03-25T08:58:59.000Z</time>
</trkpt>
<trkpt lat="45.8611700" lon="9.3324660">
	<ele>1248.40</ele>
	<time>2024-03-25T08:59:00.000Z</time>
</trkpt>
<trkpt lat="45.8611640" lon="9.3324660">
	<ele>1248.40</ele>
	<time>2024-03-25T08:59:01.000Z</time>
</trkpt>
<trkpt lat="45.8611580" lon="9.3324660">
	<ele>1248.40</ele>
	<time>2024-03-25T08:59:02.000Z</time>
</trkpt>
<trkpt lat="45.8611520" lon="9.3324660">
	<ele>1248.40</ele>
	<time>2024-03-25T08:59:03.000Z</time>
</trkpt>
<trkpt lat="45.8611480" lon="9.3324660">
	<ele>1248.20</ele>
	<time>2024-03-25T08:59:04.000Z</time>
</trkpt>
<trkpt lat="45.8611450" lon="9.3324660">
	<ele>1248.20</ele>
	<time>2024-03-25T08:59:05.000Z</time>
</trkpt>
<trkpt lat="45.8611420" lon="9.3324660">
	<ele>1248.20</ele>
	<time>2024-03-25T08:59:06.000Z</time>
</trkpt>
<trkpt lat="45.8611410" lon="9.3324660">
	<ele>1248.20</ele>
	<time>2024-03-25T08:59:07.000Z</time>
</trkpt>
<trkpt lat="45.8611400" lon="9.3324660">
	<ele>1248.20</ele>
	<time>2024-03-25T08:59:08.000Z</time>
</trkpt>
<trkpt lat="45.8611390" lon="9.3324660">
	<ele>1248.20</ele>
	<time>2024-03-25T08:59:09.000Z</time>
</trkpt>
<trkpt lat="45.8611390" lon="9.3324660">
	<ele>1248.20</ele>
	<time>2024-03-25T08:59:10.000Z</time>
</trkpt>
<trkpt lat="45.8611390" lon="9.3324660">
	<ele>1248.20</ele>
	<time>2024-03-25T08:59:11.000Z</time>
</trkpt>
<trkpt lat="45.8611380" lon="9.3324660">
	<ele>1248.20</ele>
	<time>2024-03-25T08:59:12.000Z</time>
</trkpt>
<trkpt lat="45.8611380" lon="9.3324660">
	<ele>1248.20</ele>
	<time>2024-03-25T08:59:13.000Z</time>
</trkpt>
<trkpt lat="45.8611350" lon="9.3324660">
	<ele>1248.40</ele>
	<time>2024-03-25T08:59:14.000Z</time>
</trkpt>
<trkpt lat="45.8611340" lon="9.3324660">
	<ele>1248.40</ele>
	<time>2024-03-25T08:59:15.000Z</time>
</trkpt>
<trkpt lat="45.8611340" lon="9.3324660">
	<ele>1248.40</ele>
	<time>2024-03-25T08:59:16.000Z</time>
</trkpt>
<trkpt lat="45.8611330" lon="9.3324660">
	<ele>1248.40</ele>
	<time>2024-03-25T08:59:17.000Z</time>
</trkpt>
<trkpt lat="45.8611330" lon="9.3324660">
	<ele>1248.20</ele>
	<time>2024-03-25T08:59:18.000Z</time>
</trkpt>
<trkpt lat="45.8611320" lon="9.3324660">
	<ele>1248.20</ele>
	<time>2024-03-25T08:59:19.000Z</time>
</trkpt>
<trkpt lat="45.8611320" lon="9.3324660">
	<ele>1248.00</ele>
	<time>2024-03-25T08:59:20.000Z</time>
</trkpt>
<trkpt lat="45.8611320" lon="9.3324660">
	<ele>1248.00</ele>
	<time>2024-03-25T08:59:21.000Z</time>
</trkpt>
<trkpt lat="45.8611320" lon="9.3324660">
	<ele>1247.80</ele>
	<time>2024-03-25T08:59:22.000Z</time>
</trkpt>
<trkpt lat="45.8611350" lon="9.3324550">
	<ele>1247.60</ele>
	<time>2024-03-25T08:59:23.000Z</time>
</trkpt>
<trkpt lat="45.8611420" lon="9.3324360">
	<ele>1247.40</ele>
	<time>2024-03-25T08:59:24.000Z</time>
</trkpt>
<trkpt lat="45.8611480" lon="9.3324130">
	<ele>1247.20</ele>
	<time>2024-03-25T08:59:25.000Z</time>
</trkpt>
<trkpt lat="45.8611540" lon="9.3323920">
	<ele>1247.20</ele>
	<time>2024-03-25T08:59:26.000Z</time>
</trkpt>
<trkpt lat="45.8611640" lon="9.3323730">
	<ele>1247.20</ele>
	<time>2024-03-25T08:59:27.000Z</time>
</trkpt>
<trkpt lat="45.8611750" lon="9.3323530">
	<ele>1247.00</ele>
	<time>2024-03-25T08:59:28.000Z</time>
</trkpt>
<trkpt lat="45.8611830" lon="9.3323340">
	<ele>1246.80</ele>
	<time>2024-03-25T08:59:29.000Z</time>
</trkpt>
<trkpt lat="45.8611910" lon="9.3323160">
	<ele>1246.60</ele>
	<time>2024-03-25T08:59:30.000Z</time>
</trkpt>
<trkpt lat="45.8611990" lon="9.3322970">
	<ele>1246.20</ele>
	<time>2024-03-25T08:59:31.000Z</time>
</trkpt>
<trkpt lat="45.8612040" lon="9.3322780">
	<ele>1245.80</ele>
	<time>2024-03-25T08:59:32.000Z</time>
</trkpt>
<trkpt lat="45.8612080" lon="9.3322670">
	<ele>1245.60</ele>
	<time>2024-03-25T08:59:33.000Z</time>
</trkpt>
<trkpt lat="45.8612060" lon="9.3322580">
	<ele>1245.20</ele>
	<time>2024-03-25T08:59:34.000Z</time>
</trkpt>
<trkpt lat="45.8612030" lon="9.3322490">
	<ele>1245.00</ele>
	<time>2024-03-25T08:59:35.000Z</time>
</trkpt>
<trkpt lat="45.8611990" lon="9.3322390">
	<ele>1244.60</ele>
	<time>2024-03-25T08:59:36.000Z</time>
</trkpt>
<trkpt lat="45.8611950" lon="9.3322290">
	<ele>1244.40</ele>
	<time>2024-03-25T08:59:37.000Z</time>
</trkpt>
<trkpt lat="45.8611940" lon="9.3322230">
	<ele>1244.20</ele>
	<time>2024-03-25T08:59:38.000Z</time>
</trkpt>
<trkpt lat="45.8611970" lon="9.3322160">
	<ele>1244.20</ele>
	<time>2024-03-25T08:59:39.000Z</time>
</trkpt>
<trkpt lat="45.8612020" lon="9.3322070">
	<ele>1244.00</ele>
	<time>2024-03-25T08:59:40.000Z</time>
</trkpt>
<trkpt lat="45.8612100" lon="9.3322010">
	<ele>1243.80</ele>
	<time>2024-03-25T08:59:41.000Z</time>
</trkpt>
<trkpt lat="45.8612160" lon="9.3321910">
	<ele>1243.80</ele>
	<time>2024-03-25T08:59:42.000Z</time>
</trkpt>
<trkpt lat="45.8612190" lon="9.3321780">
	<ele>1243.60</ele>
	<time>2024-03-25T08:59:43.000Z</time>
</trkpt>
<trkpt lat="45.8612190" lon="9.3321710">
	<ele>1243.40</ele>
	<time>2024-03-25T08:59:44.000Z</time>
</trkpt>
<trkpt lat="45.8612190" lon="9.3321680">
	<ele>1243.20</ele>
	<time>2024-03-25T08:59:45.000Z</time>
</trkpt>
<trkpt lat="45.8612180" lon="9.3321650">
	<ele>1242.80</ele>
	<time>2024-03-25T08:59:46.000Z</time>
</trkpt>
<trkpt lat="45.8612200" lon="9.3321640">
	<ele>1242.60</ele>
	<time>2024-03-25T08:59:47.000Z</time>
</trkpt>
<trkpt lat="45.8612210" lon="9.3321630">
	<ele>1242.60</ele>
	<time>2024-03-25T08:59:48.000Z</time>
</trkpt>
<trkpt lat="45.8612220" lon="9.3321570">
	<ele>1242.40</ele>
	<time>2024-03-25T08:59:49.000Z</time>
</trkpt>
<trkpt lat="45.8612210" lon="9.3321540">
	<ele>1242.40</ele>
	<time>2024-03-25T08:59:50.000Z</time>
</trkpt>
<trkpt lat="45.8612210" lon="9.3321530">
	<ele>1242.40</ele>
	<time>2024-03-25T08:59:51.000Z</time>
</trkpt>
<trkpt lat="45.8612210" lon="9.3321540">
	<ele>1242.40</ele>
	<time>2024-03-25T08:59:52.000Z</time>
</trkpt>
<trkpt lat="45.8612210" lon="9.3321560">
	<ele>1242.40</ele>
	<time>2024-03-25T08:59:53.000Z</time>
</trkpt>
<trkpt lat="45.8612210" lon="9.3321590">
	<ele>1242.40</ele>
	<time>2024-03-25T08:59:54.000Z</time>
</trkpt>
<trkpt lat="45.8612220" lon="9.3321610">
	<ele>1242.40</ele>
	<time>2024-03-25T08:59:55.000Z</time>
</trkpt>
<trkpt lat="45.8612230" lon="9.3321620">
	<ele>1242.40</ele>
	<time>2024-03-25T08:59:56.000Z</time>
</trkpt>
<trkpt lat="45.8612230" lon="9.3321620">
	<ele>1242.40</ele>
	<time>2024-03-25T08:59:57.000Z</time>
</trkpt>
<trkpt lat="45.8612230" lon="9.3321620">
	<ele>1242.40</ele>
	<time>2024-03-25T08:59:58.000Z</time>
</trkpt>
<trkpt lat="45.8612230" lon="9.3321620">
	<ele>1242.40</ele>
	<time>2024-03-25T08:59:59.000Z</time>
</trkpt>
<trkpt lat="45.8612230" lon="9.3321620">
	<ele>1242.60</ele>
	<time>2024-03-25T09:00:00.000Z</time>
</trkpt>
<trkpt lat="45.8612230" lon="9.3321620">
	<ele>1242.60</ele>
	<time>2024-03-25T09:00:01.000Z</time>
</trkpt>
<trkpt lat="45.8612230" lon="9.3321620">
	<ele>1242.60</ele>
	<time>2024-03-25T09:00:02.000Z</time>
</trkpt>
<trkpt lat="45.8612230" lon="9.3321620">
	<ele>1242.60</ele>
	<time>2024-03-25T09:00:03.000Z</time>
</trkpt>
<trkpt lat="45.8612220" lon="9.3321620">
	<ele>1242.60</ele>
	<time>2024-03-25T09:00:04.000Z</time>
</trkpt>
<trkpt lat="45.8612220" lon="9.3321610">
	<ele>1242.60</ele>
	<time>2024-03-25T09:00:05.000Z</time>
</trkpt>
<trkpt lat="45.8612220" lon="9.3321590">
	<ele>1242.60</ele>
	<time>2024-03-25T09:00:06.000Z</time>
</trkpt>
<trkpt lat="45.8612210" lon="9.3321590">
	<ele>1242.60</ele>
	<time>2024-03-25T09:00:07.000Z</time>
</trkpt>
<trkpt lat="45.8612210" lon="9.3321570">
	<ele>1242.60</ele>
	<time>2024-03-25T09:00:08.000Z</time>
</trkpt>
<trkpt lat="45.8612210" lon="9.3321570">
	<ele>1242.40</ele>
	<time>2024-03-25T09:00:09.000Z</time>
</trkpt>
<trkpt lat="45.8612210" lon="9.3321570">
	<ele>1242.20</ele>
	<time>2024-03-25T09:00:10.000Z</time>
</trkpt>
<trkpt lat="45.8612210" lon="9.3321570">
	<ele>1242.00</ele>
	<time>2024-03-25T09:00:11.000Z</time>
</trkpt>
<trkpt lat="45.8612210" lon="9.3321570">
	<ele>1241.80</ele>
	<time>2024-03-25T09:00:12.000Z</time>
</trkpt>
<trkpt lat="45.8612200" lon="9.3321560">
	<ele>1241.60</ele>
	<time>2024-03-25T09:00:13.000Z</time>
</trkpt>
<trkpt lat="45.8612180" lon="9.3321560">
	<ele>1241.40</ele>
	<time>2024-03-25T09:00:14.000Z</time>
</trkpt>
<trkpt lat="45.8612170" lon="9.3321550">
	<ele>1241.40</ele>
	<time>2024-03-25T09:00:15.000Z</time>
</trkpt>
<trkpt lat="45.8612160" lon="9.3321540">
	<ele>1241.20</ele>
	<time>2024-03-25T09:00:16.000Z</time>
</trkpt>
<trkpt lat="45.8612150" lon="9.3321540">
	<ele>1241.00</ele>
	<time>2024-03-25T09:00:17.000Z</time>
</trkpt>
<trkpt lat="45.8612140" lon="9.3321540">
	<ele>1241.00</ele>
	<time>2024-03-25T09:00:18.000Z</time>
</trkpt>
<trkpt lat="45.8612140" lon="9.3321530">
	<ele>1240.80</ele>
	<time>2024-03-25T09:00:19.000Z</time>
</trkpt>
<trkpt lat="45.8612140" lon="9.3321500">
	<ele>1240.40</ele>
	<time>2024-03-25T09:00:20.000Z</time>
</trkpt>
<trkpt lat="45.8612140" lon="9.3321440">
	<ele>1240.20</ele>
	<time>2024-03-25T09:00:21.000Z</time>
</trkpt>
<trkpt lat="45.8612120" lon="9.3321390">
	<ele>1240.20</ele>
	<time>2024-03-25T09:00:22.000Z</time>
</trkpt>
<trkpt lat="45.8612080" lon="9.3321330">
	<ele>1240.00</ele>
	<time>2024-03-25T09:00:23.000Z</time>
</trkpt>
<trkpt lat="45.8612040" lon="9.3321290">
	<ele>1240.00</ele>
	<time>2024-03-25T09:00:24.000Z</time>
</trkpt>
<trkpt lat="45.8611990" lon="9.3321260">
	<ele>1239.60</ele>
	<time>2024-03-25T09:00:25.000Z</time>
</trkpt>
<trkpt lat="45.8611960" lon="9.3321210">
	<ele>1239.40</ele>
	<time>2024-03-25T09:00:26.000Z</time>
</trkpt>
<trkpt lat="45.8611940" lon="9.3321180">
	<ele>1239.20</ele>
	<time>2024-03-25T09:00:27.000Z</time>
</trkpt>
<trkpt lat="45.8611930" lon="9.3321140">
	<ele>1239.00</ele>
	<time>2024-03-25T09:00:28.000Z</time>
</trkpt>
<trkpt lat="45.8611930" lon="9.3321110">
	<ele>1239.00</ele>
	<time>2024-03-25T09:00:29.000Z</time>
</trkpt>
<trkpt lat="45.8611920" lon="9.3321060">
	<ele>1239.00</ele>
	<time>2024-03-25T09:00:30.000Z</time>
</trkpt>
<trkpt lat="45.8611920" lon="9.3321020">
	<ele>1238.80</ele>
	<time>2024-03-25T09:00:31.000Z</time>
</trkpt>
<trkpt lat="45.8611910" lon="9.3320970">
	<ele>1238.80</ele>
	<time>2024-03-25T09:00:32.000Z</time>
</trkpt>
<trkpt lat="45.8611910" lon="9.3320920">
	<ele>1238.60</ele>
	<time>2024-03-25T09:00:33.000Z</time>
</trkpt>
<trkpt lat="45.8611890" lon="9.3320880">
	<ele>1238.60</ele>
	<time>2024-03-25T09:00:34.000Z</time>
</trkpt>
<trkpt lat="45.8611850" lon="9.3320840">
	<ele>1238.60</ele>
	<time>2024-03-25T09:00:35.000Z</time>
</trkpt>
<trkpt lat="45.8611830" lon="9.3320800">
	<ele>1238.60</ele>
	<time>2024-03-25T09:00:36.000Z</time>
</trkpt>
<trkpt lat="45.8611810" lon="9.3320760">
	<ele>1238.60</ele>
	<time>2024-03-25T09:00:37.000Z</time>
</trkpt>
<trkpt lat="45.8611810" lon="9.3320690">
	<ele>1238.40</ele>
	<time>2024-03-25T09:00:38.000Z</time>
</trkpt>
<trkpt lat="45.8611800" lon="9.3320630">
	<ele>1238.40</ele>
	<time>2024-03-25T09:00:39.000Z</time>
</trkpt>
<trkpt lat="45.8611790" lon="9.3320580">
	<ele>1238.20</ele>
	<time>2024-03-25T09:00:40.000Z</time>
</trkpt>
<trkpt lat="45.8611780" lon="9.3320550">
	<ele>1237.80</ele>
	<time>2024-03-25T09:00:41.000Z</time>
</trkpt>
<trkpt lat="45.8611780" lon="9.3320520">
	<ele>1237.60</ele>
	<time>2024-03-25T09:00:42.000Z</time>
</trkpt>
<trkpt lat="45.8611780" lon="9.3320490">
	<ele>1237.60</ele>
	<time>2024-03-25T09:00:43.000Z</time>
</trkpt>
<trkpt lat="45.8611780" lon="9.3320470">
	<ele>1237.20</ele>
	<time>2024-03-25T09:00:44.000Z</time>
</trkpt>
<trkpt lat="45.8611770" lon="9.3320460">
	<ele>1237.00</ele>
	<time>2024-03-25T09:00:45.000Z</time>
</trkpt>
<trkpt lat="45.8611770" lon="9.3320460">
	<ele>1236.80</ele>
	<time>2024-03-25T09:00:46.000Z</time>
</trkpt>
<trkpt lat="45.8611770" lon="9.3320450">
	<ele>1236.60</ele>
	<time>2024-03-25T09:00:47.000Z</time>
</trkpt>
<trkpt lat="45.8611770" lon="9.3320430">
	<ele>1236.40</ele>
	<time>2024-03-25T09:00:48.000Z</time>
</trkpt>
<trkpt lat="45.8611770" lon="9.3320400">
	<ele>1236.00</ele>
	<time>2024-03-25T09:00:49.000Z</time>
</trkpt>
<trkpt lat="45.8611770" lon="9.3320350">
	<ele>1235.80</ele>
	<time>2024-03-25T09:00:50.000Z</time>
</trkpt>
<trkpt lat="45.8611770" lon="9.3320310">
	<ele>1235.60</ele>
	<time>2024-03-25T09:00:51.000Z</time>
</trkpt>
<trkpt lat="45.8611770" lon="9.3320270">
	<ele>1235.20</ele>
	<time>2024-03-25T09:00:52.000Z</time>
</trkpt>
<trkpt lat="45.8611770" lon="9.3320200">
	<ele>1235.00</ele>
	<time>2024-03-25T09:00:53.000Z</time>
</trkpt>
<trkpt lat="45.8611770" lon="9.3320120">
	<ele>1235.00</ele>
	<time>2024-03-25T09:00:54.000Z</time>
</trkpt>
<trkpt lat="45.8611770" lon="9.3320050">
	<ele>1235.00</ele>
	<time>2024-03-25T09:00:55.000Z</time>
</trkpt>
<trkpt lat="45.8611760" lon="9.3319980">
	<ele>1235.00</ele>
	<time>2024-03-25T09:00:56.000Z</time>
</trkpt>
<trkpt lat="45.8611760" lon="9.3319940">
	<ele>1235.00</ele>
	<time>2024-03-25T09:00:57.000Z</time>
</trkpt>
<trkpt lat="45.8611760" lon="9.3319900">
	<ele>1235.00</ele>
	<time>2024-03-25T09:00:58.000Z</time>
</trkpt>
<trkpt lat="45.8611750" lon="9.3319870">
	<ele>1235.00</ele>
	<time>2024-03-25T09:00:59.000Z</time>
</trkpt>
<trkpt lat="45.8611750" lon="9.3319840">
	<ele>1235.00</ele>
	<time>2024-03-25T09:01:00.000Z</time>
</trkpt>
<trkpt lat="45.8611750" lon="9.3319780">
	<ele>1235.00</ele>
	<time>2024-03-25T09:01:01.000Z</time>
</trkpt>
<trkpt lat="45.8611750" lon="9.3319710">
	<ele>1235.20</ele>
	<time>2024-03-25T09:01:02.000Z</time>
</trkpt>
<trkpt lat="45.8611750" lon="9.3319630">
	<ele>1235.20</ele>
	<time>2024-03-25T09:01:03.000Z</time>
</trkpt>
<trkpt lat="45.8611750" lon="9.3319550">
	<ele>1235.00</ele>
	<time>2024-03-25T09:01:04.000Z</time>
</trkpt>
<trkpt lat="45.8611750" lon="9.3319480">
	<ele>1234.80</ele>
	<time>2024-03-25T09:01:05.000Z</time>
</trkpt>
<trkpt lat="45.8611740" lon="9.3319440">
	<ele>1234.80</ele>
	<time>2024-03-25T09:01:06.000Z</time>
</trkpt>
<trkpt lat="45.8611740" lon="9.3319420">
	<ele>1234.80</ele>
	<time>2024-03-25T09:01:07.000Z</time>
</trkpt>
<trkpt lat="45.8611740" lon="9.3319420">
	<ele>1234.60</ele>
	<time>2024-03-25T09:01:08.000Z</time>
</trkpt>
<trkpt lat="45.8611730" lon="9.3319410">
	<ele>1234.60</ele>
	<time>2024-03-25T09:01:09.000Z</time>
</trkpt>
<trkpt lat="45.8611730" lon="9.3319410">
	<ele>1234.20</ele>
	<time>2024-03-25T09:01:10.000Z</time>
</trkpt>
<trkpt lat="45.8611730" lon="9.3319410">
	<ele>1234.00</ele>
	<time>2024-03-25T09:01:11.000Z</time>
</trkpt>
<trkpt lat="45.8611730" lon="9.3319410">
	<ele>1233.60</ele>
	<time>2024-03-25T09:01:12.000Z</time>
</trkpt>
<trkpt lat="45.8611730" lon="9.3319410">
	<ele>1233.40</ele>
	<time>2024-03-25T09:01:13.000Z</time>
</trkpt>
<trkpt lat="45.8611730" lon="9.3319410">
	<ele>1233.20</ele>
	<time>2024-03-25T09:01:14.000Z</time>
</trkpt>
<trkpt lat="45.8611720" lon="9.3319400">
	<ele>1233.00</ele>
	<time>2024-03-25T09:01:15.000Z</time>
</trkpt>
<trkpt lat="45.8611720" lon="9.3319400">
	<ele>1233.00</ele>
	<time>2024-03-25T09:01:16.000Z</time>
</trkpt>
<trkpt lat="45.8611720" lon="9.3319400">
	<ele>1232.80</ele>
	<time>2024-03-25T09:01:17.000Z</time>
</trkpt>
<trkpt lat="45.8611720" lon="9.3319380">
	<ele>1232.60</ele>
	<time>2024-03-25T09:01:18.000Z</time>
</trkpt>
<trkpt lat="45.8611720" lon="9.3319320">
	<ele>1232.20</ele>
	<time>2024-03-25T09:01:19.000Z</time>
</trkpt>
<trkpt lat="45.8611720" lon="9.3319250">
	<ele>1231.80</ele>
	<time>2024-03-25T09:01:20.000Z</time>
</trkpt>
<trkpt lat="45.8611720" lon="9.3319180">
	<ele>1231.40</ele>
	<time>2024-03-25T09:01:21.000Z</time>
</trkpt>
<trkpt lat="45.8611710" lon="9.3319140">
	<ele>1231.40</ele>
	<time>2024-03-25T09:01:22.000Z</time>
</trkpt>
<trkpt lat="45.8611710" lon="9.3319090">
	<ele>1231.20</ele>
	<time>2024-03-25T09:01:23.000Z</time>
</trkpt>
<trkpt lat="45.8611720" lon="9.3318980">
	<ele>1230.80</ele>
	<time>2024-03-25T09:01:24.000Z</time>
</trkpt>
<trkpt lat="45.8611740" lon="9.3318790">
	<ele>1230.60</ele>
	<time>2024-03-25T09:01:25.000Z</time>
</trkpt>
<trkpt lat="45.8611760" lon="9.3318590">
	<ele>1230.40</ele>
	<time>2024-03-25T09:01:26.000Z</time>
</trkpt>
<trkpt lat="45.8611770" lon="9.3318420">
	<ele>1230.20</ele>
	<time>2024-03-25T09:01:27.000Z</time>
</trkpt>
<trkpt lat="45.8611780" lon="9.3318230">
	<ele>1230.00</ele>
	<time>2024-03-25T09:01:28.000Z</time>
</trkpt>
<trkpt lat="45.8611770" lon="9.3318060">
	<ele>1229.60</ele>
	<time>2024-03-25T09:01:29.000Z</time>
</trkpt>
<trkpt lat="45.8611750" lon="9.3317910">
	<ele>1229.60</ele>
	<time>2024-03-25T09:01:30.000Z</time>
</trkpt>
<trkpt lat="45.8611740" lon="9.3317720">
	<ele>1229.40</ele>
	<time>2024-03-25T09:01:31.000Z</time>
</trkpt>
<trkpt lat="45.8611720" lon="9.3317550">
	<ele>1229.40</ele>
	<time>2024-03-25T09:01:32.000Z</time>
</trkpt>
<trkpt lat="45.8611700" lon="9.3317390">
	<ele>1229.20</ele>
	<time>2024-03-25T09:01:33.000Z</time>
</trkpt>
<trkpt lat="45.8611700" lon="9.3317330">
	<ele>1229.00</ele>
	<time>2024-03-25T09:01:34.000Z</time>
</trkpt>
<trkpt lat="45.8611700" lon="9.3317280">
	<ele>1228.80</ele>
	<time>2024-03-25T09:01:35.000Z</time>
</trkpt>
<trkpt lat="45.8611710" lon="9.3317230">
	<ele>1228.60</ele>
	<time>2024-03-25T09:01:36.000Z</time>
</trkpt>
<trkpt lat="45.8611730" lon="9.3317140">
	<ele>1228.40</ele>
	<time>2024-03-25T09:01:37.000Z</time>
</trkpt>
<trkpt lat="45.8611760" lon="9.3317040">
	<ele>1228.40</ele>
	<time>2024-03-25T09:01:38.000Z</time>
</trkpt>
<trkpt lat="45.8611780" lon="9.3316980">
	<ele>1228.20</ele>
	<time>2024-03-25T09:01:39.000Z</time>
</trkpt>
<trkpt lat="45.8611790" lon="9.3316940">
	<ele>1228.00</ele>
	<time>2024-03-25T09:01:40.000Z</time>
</trkpt>
<trkpt lat="45.8611800" lon="9.3316890">
	<ele>1228.00</ele>
	<time>2024-03-25T09:01:41.000Z</time>
</trkpt>
<trkpt lat="45.8611770" lon="9.3316880">
	<ele>1227.80</ele>
	<time>2024-03-25T09:01:42.000Z</time>
</trkpt>
<trkpt lat="45.8611760" lon="9.3316850">
	<ele>1227.60</ele>
	<time>2024-03-25T09:01:43.000Z</time>
</trkpt>
<trkpt lat="45.8611740" lon="9.3316830">
	<ele>1227.20</ele>
	<time>2024-03-25T09:01:44.000Z</time>
</trkpt>
<trkpt lat="45.8611740" lon="9.3316740">
	<ele>1227.00</ele>
	<time>2024-03-25T09:01:45.000Z</time>
</trkpt>
<trkpt lat="45.8611740" lon="9.3316690">
	<ele>1226.80</ele>
	<time>2024-03-25T09:01:46.000Z</time>
</trkpt>
<trkpt lat="45.8611750" lon="9.3316640">
	<ele>1226.40</ele>
	<time>2024-03-25T09:01:47.000Z</time>
</trkpt>
<trkpt lat="45.8611750" lon="9.3316570">
	<ele>1226.20</ele>
	<time>2024-03-25T09:01:48.000Z</time>
</trkpt>
<trkpt lat="45.8611750" lon="9.3316500">
	<ele>1225.80</ele>
	<time>2024-03-25T09:01:49.000Z</time>
</trkpt>
<trkpt lat="45.8611760" lon="9.3316380">
	<ele>1225.60</ele>
	<time>2024-03-25T09:01:50.000Z</time>
</trkpt>
<trkpt lat="45.8611760" lon="9.3316290">
	<ele>1225.40</ele>
	<time>2024-03-25T09:01:51.000Z</time>
</trkpt>
<trkpt lat="45.8611750" lon="9.3316190">
	<ele>1225.20</ele>
	<time>2024-03-25T09:01:52.000Z</time>
</trkpt>
<trkpt lat="45.8611760" lon="9.3316060">
	<ele>1225.00</ele>
	<time>2024-03-25T09:01:53.000Z</time>
</trkpt>
<trkpt lat="45.8611790" lon="9.3315960">
	<ele>1224.80</ele>
	<time>2024-03-25T09:01:54.000Z</time>
</trkpt>
<trkpt lat="45.8611810" lon="9.3315890">
	<ele>1224.60</ele>
	<time>2024-03-25T09:01:55.000Z</time>
</trkpt>
<trkpt lat="45.8611860" lon="9.3315790">
	<ele>1224.40</ele>
	<time>2024-03-25T09:01:56.000Z</time>
</trkpt>
<trkpt lat="45.8611900" lon="9.3315720">
	<ele>1224.20</ele>
	<time>2024-03-25T09:01:57.000Z</time>
</trkpt>
<trkpt lat="45.8611920" lon="9.3315700">
	<ele>1224.20</ele>
	<time>2024-03-25T09:01:58.000Z</time>
</trkpt>
<trkpt lat="45.8611950" lon="9.3315640">
	<ele>1224.20</ele>
	<time>2024-03-25T09:01:59.000Z</time>
</trkpt>
<trkpt lat="45.8611980" lon="9.3315530">
	<ele>1224.00</ele>
	<time>2024-03-25T09:02:00.000Z</time>
</trkpt>
<trkpt lat="45.8611990" lon="9.3315420">
	<ele>1224.00</ele>
	<time>2024-03-25T09:02:01.000Z</time>
</trkpt>
<trkpt lat="45.8612000" lon="9.3315280">
	<ele>1223.80</ele>
	<time>2024-03-25T09:02:02.000Z</time>
</trkpt>
<trkpt lat="45.8612010" lon="9.3315190">
	<ele>1223.60</ele>
	<time>2024-03-25T09:02:03.000Z</time>
</trkpt>
<trkpt lat="45.8611990" lon="9.3315120">
	<ele>1223.60</ele>
	<time>2024-03-25T09:02:04.000Z</time>
</trkpt>
<trkpt lat="45.8611970" lon="9.3314990">
	<ele>1223.20</ele>
	<time>2024-03-25T09:02:05.000Z</time>
</trkpt>
<trkpt lat="45.8611970" lon="9.3314860">
	<ele>1223.00</ele>
	<time>2024-03-25T09:02:06.000Z</time>
</trkpt>
<trkpt lat="45.8611960" lon="9.3314790">
	<ele>1222.80</ele>
	<time>2024-03-25T09:02:07.000Z</time>
</trkpt>
<trkpt lat="45.8611960" lon="9.3314760">
	<ele>1222.80</ele>
	<time>2024-03-25T09:02:08.000Z</time>
</trkpt>
<trkpt lat="45.8611960" lon="9.3314730">
	<ele>1222.60</ele>
	<time>2024-03-25T09:02:09.000Z</time>
</trkpt>
<trkpt lat="45.8611960" lon="9.3314640">
	<ele>1222.20</ele>
	<time>2024-03-25T09:02:10.000Z</time>
</trkpt>
<trkpt lat="45.8612010" lon="9.3314560">
	<ele>1222.00</ele>
	<time>2024-03-25T09:02:11.000Z</time>
</trkpt>
<trkpt lat="45.8612050" lon="9.3314420">
	<ele>1221.60</ele>
	<time>2024-03-25T09:02:12.000Z</time>
</trkpt>
<trkpt lat="45.8612120" lon="9.3314310">
	<ele>1221.40</ele>
	<time>2024-03-25T09:02:13.000Z</time>
</trkpt>
<trkpt lat="45.8612160" lon="9.3314180">
	<ele>1221.20</ele>
	<time>2024-03-25T09:02:14.000Z</time>
</trkpt>
<trkpt lat="45.8612200" lon="9.3314010">
	<ele>1221.00</ele>
	<time>2024-03-25T09:02:15.000Z</time>
</trkpt>
<trkpt lat="45.8612290" lon="9.3313880">
	<ele>1220.80</ele>
	<time>2024-03-25T09:02:16.000Z</time>
</trkpt>
<trkpt lat="45.8612390" lon="9.3313740">
	<ele>1220.60</ele>
	<time>2024-03-25T09:02:17.000Z</time>
</trkpt>
<trkpt lat="45.8612470" lon="9.3313580">
	<ele>1220.60</ele>
	<time>2024-03-25T09:02:18.000Z</time>
</trkpt>
<trkpt lat="45.8612550" lon="9.3313390">
	<ele>1220.40</ele>
	<time>2024-03-25T09:02:19.000Z</time>
</trkpt>
<trkpt lat="45.8612610" lon="9.3313210">
	<ele>1220.40</ele>
	<time>2024-03-25T09:02:20.000Z</time>
</trkpt>
<trkpt lat="45.8612680" lon="9.3313040">
	<ele>1220.40</ele>
	<time>2024-03-25T09:02:21.000Z</time>
</trkpt>
<trkpt lat="45.8612750" lon="9.3312870">
	<ele>1220.20</ele>
	<time>2024-03-25T09:02:22.000Z</time>
</trkpt>
<trkpt lat="45.8612810" lon="9.3312710">
	<ele>1220.20</ele>
	<time>2024-03-25T09:02:23.000Z</time>
</trkpt>
<trkpt lat="45.8612810" lon="9.3312570">
	<ele>1220.00</ele>
	<time>2024-03-25T09:02:24.000Z</time>
</trkpt>
<trkpt lat="45.8612840" lon="9.3312420">
	<ele>1220.00</ele>
	<time>2024-03-25T09:02:25.000Z</time>
</trkpt>
<trkpt lat="45.8612830" lon="9.3312350">
	<ele>1220.00</ele>
	<time>2024-03-25T09:02:26.000Z</time>
</trkpt>
<trkpt lat="45.8612820" lon="9.3312320">
	<ele>1220.00</ele>
	<time>2024-03-25T09:02:27.000Z</time>
</trkpt>
<trkpt lat="45.8612820" lon="9.3312310">
	<ele>1219.80</ele>
	<time>2024-03-25T09:02:28.000Z</time>
</trkpt>
<trkpt lat="45.8612810" lon="9.3312270">
	<ele>1219.80</ele>
	<time>2024-03-25T09:02:29.000Z</time>
</trkpt>
<trkpt lat="45.8612830" lon="9.3312250">
	<ele>1219.80</ele>
	<time>2024-03-25T09:02:30.000Z</time>
</trkpt>
<trkpt lat="45.8612850" lon="9.3312230">
	<ele>1219.80</ele>
	<time>2024-03-25T09:02:31.000Z</time>
</trkpt>
<trkpt lat="45.8612860" lon="9.3312240">
	<ele>1220.00</ele>
	<time>2024-03-25T09:02:32.000Z</time>
</trkpt>
<trkpt lat="45.8612860" lon="9.3312250">
	<ele>1220.00</ele>
	<time>2024-03-25T09:02:33.000Z</time>
</trkpt>
<trkpt lat="45.8612870" lon="9.3312100">
	<ele>1220.00</ele>
	<time>2024-03-25T09:02:34.000Z</time>
</trkpt>
<trkpt lat="45.8612870" lon="9.3312040">
	<ele>1219.80</ele>
	<time>2024-03-25T09:02:35.000Z</time>
</trkpt>
<trkpt lat="45.8612860" lon="9.3311990">
	<ele>1219.80</ele>
	<time>2024-03-25T09:02:36.000Z</time>
</trkpt>
<trkpt lat="45.8612800" lon="9.3311880">
	<ele>1219.80</ele>
	<time>2024-03-25T09:02:37.000Z</time>
</trkpt>
<trkpt lat="45.8612690" lon="9.3311760">
	<ele>1219.80</ele>
	<time>2024-03-25T09:02:38.000Z</time>
</trkpt>
<trkpt lat="45.8612620" lon="9.3311670">
	<ele>1219.60</ele>
	<time>2024-03-25T09:02:39.000Z</time>
</trkpt>
<trkpt lat="45.8612560" lon="9.3311590">
	<ele>1219.60</ele>
	<time>2024-03-25T09:02:40.000Z</time>
</trkpt>
<trkpt lat="45.8612500" lon="9.3311470">
	<ele>1219.40</ele>
	<time>2024-03-25T09:02:41.000Z</time>
</trkpt>
<trkpt lat="45.8612420" lon="9.3311370">
	<ele>1219.20</ele>
	<time>2024-03-25T09:02:42.000Z</time>
</trkpt>
<trkpt lat="45.8612350" lon="9.3311280">
	<ele>1219.00</ele>
	<time>2024-03-25T09:02:43.000Z</time>
</trkpt>
<trkpt lat="45.8612300" lon="9.3311260">
	<ele>1218.80</ele>
	<time>2024-03-25T09:02:44.000Z</time>
</trkpt>
<trkpt lat="45.8612210" lon="9.3311150">
	<ele>1218.60</ele>
	<time>2024-03-25T09:02:45.000Z</time>
</trkpt>
<trkpt lat="45.8612140" lon="9.3311030">
	<ele>1218.20</ele>
	<time>2024-03-25T09:02:46.000Z</time>
</trkpt>
<trkpt lat="45.8612080" lon="9.3310990">
	<ele>1218.00</ele>
	<time>2024-03-25T09:02:47.000Z</time>
</trkpt>
<trkpt lat="45.8611990" lon="9.3310890">
	<ele>1217.80</ele>
	<time>2024-03-25T09:02:48.000Z</time>
</trkpt>
<trkpt lat="45.8611920" lon="9.3310770">
	<ele>1217.60</ele>
	<time>2024-03-25T09:02:49.000Z</time>
</trkpt>
<trkpt lat="45.8611850" lon="9.3310670">
	<ele>1217.20</ele>
	<time>2024-03-25T09:02:50.000Z</time>
</trkpt>
<trkpt lat="45.8611810" lon="9.3310550">
	<ele>1217.00</ele>
	<time>2024-03-25T09:02:51.000Z</time>
</trkpt>
<trkpt lat="45.8611780" lon="9.3310430">
	<ele>1216.60</ele>
	<time>2024-03-25T09:02:52.000Z</time>
</trkpt>
<trkpt lat="45.8611730" lon="9.3310310">
	<ele>1216.40</ele>
	<time>2024-03-25T09:02:53.000Z</time>
</trkpt>
<trkpt lat="45.8611680" lon="9.3310170">
	<ele>1216.00</ele>
	<time>2024-03-25T09:02:54.000Z</time>
</trkpt>
<trkpt lat="45.8611620" lon="9.3310050">
	<ele>1215.80</ele>
	<time>2024-03-25T09:02:55.000Z</time>
</trkpt>
<trkpt lat="45.8611560" lon="9.3309940">
	<ele>1215.60</ele>
	<time>2024-03-25T09:02:56.000Z</time>
</trkpt>
<trkpt lat="45.8611550" lon="9.3309790">
	<ele>1215.40</ele>
	<time>2024-03-25T09:02:57.000Z</time>
</trkpt>
<trkpt lat="45.8611570" lon="9.3309650">
	<ele>1215.20</ele>
	<time>2024-03-25T09:02:58.000Z</time>
</trkpt>
<trkpt lat="45.8611550" lon="9.3309520">
	<ele>1215.00</ele>
	<time>2024-03-25T09:02:59.000Z</time>
</trkpt>
<trkpt lat="45.8611530" lon="9.3309400">
	<ele>1214.80</ele>
	<time>2024-03-25T09:03:00.000Z</time>
</trkpt>
<trkpt lat="45.8611530" lon="9.3309280">
	<ele>1214.80</ele>
	<time>2024-03-25T09:03:01.000Z</time>
</trkpt>
<trkpt lat="45.8611500" lon="9.3309230">
	<ele>1214.80</ele>
	<time>2024-03-25T09:03:02.000Z</time>
</trkpt>
<trkpt lat="45.8611500" lon="9.3309200">
	<ele>1214.40</ele>
	<time>2024-03-25T09:03:03.000Z</time>
</trkpt>
<trkpt lat="45.8611490" lon="9.3309120">
	<ele>1214.20</ele>
	<time>2024-03-25T09:03:04.000Z</time>
</trkpt>
<trkpt lat="45.8611450" lon="9.3309020">
	<ele>1214.00</ele>
	<time>2024-03-25T09:03:05.000Z</time>
</trkpt>
<trkpt lat="45.8611450" lon="9.3308900">
	<ele>1213.80</ele>
	<time>2024-03-25T09:03:06.000Z</time>
</trkpt>
<trkpt lat="45.8611430" lon="9.3308800">
	<ele>1213.40</ele>
	<time>2024-03-25T09:03:07.000Z</time>
</trkpt>
<trkpt lat="45.8611380" lon="9.3308720">
	<ele>1213.20</ele>
	<time>2024-03-25T09:03:08.000Z</time>
</trkpt>
<trkpt lat="45.8611300" lon="9.3308630">
	<ele>1212.80</ele>
	<time>2024-03-25T09:03:09.000Z</time>
</trkpt>
<trkpt lat="45.8611240" lon="9.3308550">
	<ele>1212.60</ele>
	<time>2024-03-25T09:03:10.000Z</time>
</trkpt>
<trkpt lat="45.8611190" lon="9.3308470">
	<ele>1212.40</ele>
	<time>2024-03-25T09:03:11.000Z</time>
</trkpt>
<trkpt lat="45.8611160" lon="9.3308370">
	<ele>1212.20</ele>
	<time>2024-03-25T09:03:12.000Z</time>
</trkpt>
<trkpt lat="45.8611170" lon="9.3308340">
	<ele>1212.00</ele>
	<time>2024-03-25T09:03:13.000Z</time>
</trkpt>
<trkpt lat="45.8611120" lon="9.3308290">
	<ele>1211.80</ele>
	<time>2024-03-25T09:03:14.000Z</time>
</trkpt>
<trkpt lat="45.8611060" lon="9.3308200">
	<ele>1211.60</ele>
	<time>2024-03-25T09:03:15.000Z</time>
</trkpt>
<trkpt lat="45.8611040" lon="9.3308060">
	<ele>1211.20</ele>
	<time>2024-03-25T09:03:16.000Z</time>
</trkpt>
<trkpt lat="45.8611030" lon="9.3307920">
	<ele>1211.00</ele>
	<time>2024-03-25T09:03:17.000Z</time>
</trkpt>
<trkpt lat="45.8611040" lon="9.3307830">
	<ele>1210.80</ele>
	<time>2024-03-25T09:03:18.000Z</time>
</trkpt>
<trkpt lat="45.8610970" lon="9.3307790">
	<ele>1210.60</ele>
	<time>2024-03-25T09:03:19.000Z</time>
</trkpt>
<trkpt lat="45.8610910" lon="9.3307720">
	<ele>1210.60</ele>
	<time>2024-03-25T09:03:20.000Z</time>
</trkpt>
<trkpt lat="45.8610830" lon="9.3307650">
	<ele>1210.40</ele>
	<time>2024-03-25T09:03:21.000Z</time>
</trkpt>
<trkpt lat="45.8610790" lon="9.3307580">
	<ele>1210.20</ele>
	<time>2024-03-25T09:03:22.000Z</time>
</trkpt>
<trkpt lat="45.8610790" lon="9.3307490">
	<ele>1210.20</ele>
	<time>2024-03-25T09:03:23.000Z</time>
</trkpt>
<trkpt lat="45.8610770" lon="9.3307410">
	<ele>1209.60</ele>
	<time>2024-03-25T09:03:24.000Z</time>
</trkpt>
<trkpt lat="45.8610680" lon="9.3307330">
	<ele>1209.40</ele>
	<time>2024-03-25T09:03:25.000Z</time>
</trkpt>
<trkpt lat="45.8610610" lon="9.3307240">
	<ele>1209.00</ele>
	<time>2024-03-25T09:03:26.000Z</time>
</trkpt>
<trkpt lat="45.8610580" lon="9.3307220">
	<ele>1208.80</ele>
	<time>2024-03-25T09:03:27.000Z</time>
</trkpt>
<trkpt lat="45.8610500" lon="9.3307220">
	<ele>1208.60</ele>
	<time>2024-03-25T09:03:28.000Z</time>
</trkpt>
<trkpt lat="45.8610460" lon="9.3307210">
	<ele>1208.40</ele>
	<time>2024-03-25T09:03:29.000Z</time>
</trkpt>
<trkpt lat="45.8610410" lon="9.3307140">
	<ele>1208.20</ele>
	<time>2024-03-25T09:03:30.000Z</time>
</trkpt>
<trkpt lat="45.8610380" lon="9.3307040">
	<ele>1208.00</ele>
	<time>2024-03-25T09:03:31.000Z</time>
</trkpt>
<trkpt lat="45.8610340" lon="9.3306900">
	<ele>1207.80</ele>
	<time>2024-03-25T09:03:32.000Z</time>
</trkpt>
<trkpt lat="45.8610300" lon="9.3306800">
	<ele>1207.60</ele>
	<time>2024-03-25T09:03:33.000Z</time>
</trkpt>
<trkpt lat="45.8610300" lon="9.3306730">
	<ele>1207.40</ele>
	<time>2024-03-25T09:03:34.000Z</time>
</trkpt>
<trkpt lat="45.8610270" lon="9.3306630">
	<ele>1207.20</ele>
	<time>2024-03-25T09:03:35.000Z</time>
</trkpt>
<trkpt lat="45.8610170" lon="9.3306530">
	<ele>1207.00</ele>
	<time>2024-03-25T09:03:36.000Z</time>
</trkpt>
<trkpt lat="45.8610160" lon="9.3306490">
	<ele>1206.80</ele>
	<time>2024-03-25T09:03:37.000Z</time>
</trkpt>
<trkpt lat="45.8610100" lon="9.3306430">
	<ele>1206.60</ele>
	<time>2024-03-25T09:03:38.000Z</time>
</trkpt>
<trkpt lat="45.8610080" lon="9.3306360">
	<ele>1206.40</ele>
	<time>2024-03-25T09:03:39.000Z</time>
</trkpt>
<trkpt lat="45.8610010" lon="9.3306330">
	<ele>1206.40</ele>
	<time>2024-03-25T09:03:40.000Z</time>
</trkpt>
<trkpt lat="45.8609940" lon="9.3306360">
	<ele>1206.00</ele>
	<time>2024-03-25T09:03:41.000Z</time>
</trkpt>
<trkpt lat="45.8609880" lon="9.3306300">
	<ele>1205.80</ele>
	<time>2024-03-25T09:03:42.000Z</time>
</trkpt>
<trkpt lat="45.8609830" lon="9.3306230">
	<ele>1205.40</ele>
	<time>2024-03-25T09:03:43.000Z</time>
</trkpt>
<trkpt lat="45.8609740" lon="9.3306180">
	<ele>1205.00</ele>
	<time>2024-03-25T09:03:44.000Z</time>
</trkpt>
<trkpt lat="45.8609680" lon="9.3306160">
	<ele>1204.60</ele>
	<time>2024-03-25T09:03:45.000Z</time>
</trkpt>
<trkpt lat="45.8609610" lon="9.3306170">
	<ele>1204.40</ele>
	<time>2024-03-25T09:03:46.000Z</time>
</trkpt>
<trkpt lat="45.8609530" lon="9.3306160">
	<ele>1204.20</ele>
	<time>2024-03-25T09:03:47.000Z</time>
</trkpt>
<trkpt lat="45.8609460" lon="9.3306090">
	<ele>1203.80</ele>
	<time>2024-03-25T09:03:48.000Z</time>
</trkpt>
<trkpt lat="45.8609370" lon="9.3306020">
	<ele>1203.40</ele>
	<time>2024-03-25T09:03:49.000Z</time>
</trkpt>
<trkpt lat="45.8609270" lon="9.3305930">
	<ele>1203.20</ele>
	<time>2024-03-25T09:03:50.000Z</time>
</trkpt>
<trkpt lat="45.8609150" lon="9.3305810">
	<ele>1202.80</ele>
	<time>2024-03-25T09:03:51.000Z</time>
</trkpt>
<trkpt lat="45.8609030" lon="9.3305690">
	<ele>1202.40</ele>
	<time>2024-03-25T09:03:52.000Z</time>
</trkpt>
<trkpt lat="45.8608910" lon="9.3305560">
	<ele>1202.20</ele>
	<time>2024-03-25T09:03:53.000Z</time>
</trkpt>
<trkpt lat="45.8608810" lon="9.3305420">
	<ele>1202.00</ele>
	<time>2024-03-25T09:03:54.000Z</time>
</trkpt>
<trkpt lat="45.8608700" lon="9.3305290">
	<ele>1201.80</ele>
	<time>2024-03-25T09:03:55.000Z</time>
</trkpt>
<trkpt lat="45.8608530" lon="9.3305230">
	<ele>1201.60</ele>
	<time>2024-03-25T09:03:56.000Z</time>
</trkpt>
<trkpt lat="45.8608410" lon="9.3305170">
	<ele>1201.60</ele>
	<time>2024-03-25T09:03:57.000Z</time>
</trkpt>
<trkpt lat="45.8608310" lon="9.3305080">
	<ele>1201.40</ele>
	<time>2024-03-25T09:03:58.000Z</time>
</trkpt>
<trkpt lat="45.8608230" lon="9.3304970">
	<ele>1201.20</ele>
	<time>2024-03-25T09:03:59.000Z</time>
</trkpt>
<trkpt lat="45.8608140" lon="9.3304810">
	<ele>1201.20</ele>
	<time>2024-03-25T09:04:00.000Z</time>
</trkpt>
<trkpt lat="45.8608070" lon="9.3304670">
	<ele>1201.20</ele>
	<time>2024-03-25T09:04:01.000Z</time>
</trkpt>
<trkpt lat="45.8607980" lon="9.3304510">
	<ele>1201.20</ele>
	<time>2024-03-25T09:04:02.000Z</time>
</trkpt>
<trkpt lat="45.8607910" lon="9.3304370">
	<ele>1201.20</ele>
	<time>2024-03-25T09:04:03.000Z</time>
</trkpt>
<trkpt lat="45.8607880" lon="9.3304290">
	<ele>1201.20</ele>
	<time>2024-03-25T09:04:04.000Z</time>
</trkpt>
<trkpt lat="45.8607900" lon="9.3304230">
	<ele>1201.00</ele>
	<time>2024-03-25T09:04:05.000Z</time>
</trkpt>
<trkpt lat="45.8607930" lon="9.3304210">
	<ele>1200.80</ele>
	<time>2024-03-25T09:04:06.000Z</time>
</trkpt>
<trkpt lat="45.8607940" lon="9.3304220">
	<ele>1200.80</ele>
	<time>2024-03-25T09:04:07.000Z</time>
</trkpt>
<trkpt lat="45.8607940" lon="9.3304230">
	<ele>1200.60</ele>
	<time>2024-03-25T09:04:08.000Z</time>
</trkpt>
<trkpt lat="45.8607960" lon="9.3304260">
	<ele>1200.60</ele>
	<time>2024-03-25T09:04:09.000Z</time>
</trkpt>
<trkpt lat="45.8607980" lon="9.3304280">
	<ele>1200.60</ele>
	<time>2024-03-25T09:04:10.000Z</time>
</trkpt>
<trkpt lat="45.8607980" lon="9.3304230">
	<ele>1200.60</ele>
	<time>2024-03-25T09:04:11.000Z</time>
</trkpt>
<trkpt lat="45.8608020" lon="9.3304250">
	<ele>1200.60</ele>
	<time>2024-03-25T09:04:12.000Z</time>
</trkpt>
<trkpt lat="45.8608030" lon="9.3304260">
	<ele>1200.60</ele>
	<time>2024-03-25T09:04:13.000Z</time>
</trkpt>
<trkpt lat="45.8608040" lon="9.3304270">
	<ele>1200.60</ele>
	<time>2024-03-25T09:04:14.000Z</time>
</trkpt>
<trkpt lat="45.8608060" lon="9.3304280">
	<ele>1200.60</ele>
	<time>2024-03-25T09:04:15.000Z</time>
</trkpt>
<trkpt lat="45.8608050" lon="9.3304290">
	<ele>1200.60</ele>
	<time>2024-03-25T09:04:16.000Z</time>
</trkpt>
<trkpt lat="45.8608040" lon="9.3304290">
	<ele>1200.80</ele>
	<time>2024-03-25T09:04:17.000Z</time>
</trkpt>
<trkpt lat="45.8608050" lon="9.3304290">
	<ele>1200.80</ele>
	<time>2024-03-25T09:04:18.000Z</time>
</trkpt>
<trkpt lat="45.8608050" lon="9.3304290">
	<ele>1200.80</ele>
	<time>2024-03-25T09:04:19.000Z</time>
</trkpt>
<trkpt lat="45.8608050" lon="9.3304290">
	<ele>1200.80</ele>
	<time>2024-03-25T09:04:20.000Z</time>
</trkpt>
<trkpt lat="45.8608050" lon="9.3304290">
	<ele>1200.80</ele>
	<time>2024-03-25T09:04:21.000Z</time>
</trkpt>
<trkpt lat="45.8608050" lon="9.3304290">
	<ele>1200.80</ele>
	<time>2024-03-25T09:04:22.000Z</time>
</trkpt>
<trkpt lat="45.8608050" lon="9.3304290">
	<ele>1200.80</ele>
	<time>2024-03-25T09:04:23.000Z</time>
</trkpt>
<trkpt lat="45.8608050" lon="9.3304290">
	<ele>1200.80</ele>
	<time>2024-03-25T09:04:24.000Z</time>
</trkpt>
<trkpt lat="45.8608050" lon="9.3304290">
	<ele>1200.80</ele>
	<time>2024-03-25T09:04:25.000Z</time>
</trkpt>
<trkpt lat="45.8608050" lon="9.3304290">
	<ele>1200.80</ele>
	<time>2024-03-25T09:04:26.000Z</time>
</trkpt>
<trkpt lat="45.8608050" lon="9.3304290">
	<ele>1200.80</ele>
	<time>2024-03-25T09:04:27.000Z</time>
</trkpt>
<trkpt lat="45.8608050" lon="9.3304290">
	<ele>1200.80</ele>
	<time>2024-03-25T09:04:28.000Z</time>
</trkpt>
<trkpt lat="45.8608050" lon="9.3304290">
	<ele>1200.80</ele>
	<time>2024-03-25T09:04:29.000Z</time>
</trkpt>
<trkpt lat="45.8608050" lon="9.3304290">
	<ele>1200.80</ele>
	<time>2024-03-25T09:04:30.000Z</time>
</trkpt>
<trkpt lat="45.8608050" lon="9.3304290">
	<ele>1200.80</ele>
	<time>2024-03-25T09:04:31.000Z</time>
</trkpt>
<trkpt lat="45.8608050" lon="9.3304290">
	<ele>1200.80</ele>
	<time>2024-03-25T09:04:32.000Z</time>
</trkpt>
<trkpt lat="45.8608050" lon="9.3304290">
	<ele>1200.80</ele>
	<time>2024-03-25T09:04:33.000Z</time>
</trkpt>
<trkpt lat="45.8608050" lon="9.3304290">
	<ele>1200.80</ele>
	<time>2024-03-25T09:04:34.000Z</time>
</trkpt>
<trkpt lat="45.8608050" lon="9.3304290">
	<ele>1200.80</ele>
	<time>2024-03-25T09:04:35.000Z</time>
</trkpt>
<trkpt lat="45.8608050" lon="9.3304290">
	<ele>1200.60</ele>
	<time>2024-03-25T09:04:36.000Z</time>
</trkpt>
<trkpt lat="45.8608050" lon="9.3304290">
	<ele>1200.40</ele>
	<time>2024-03-25T09:04:37.000Z</time>
</trkpt>
<trkpt lat="45.8608050" lon="9.3304290">
	<ele>1200.20</ele>
	<time>2024-03-25T09:04:38.000Z</time>
</trkpt>
<trkpt lat="45.8608050" lon="9.3304290">
	<ele>1200.00</ele>
	<time>2024-03-25T09:04:39.000Z</time>
</trkpt>
<trkpt lat="45.8608050" lon="9.3304290">
	<ele>1199.80</ele>
	<time>2024-03-25T09:04:40.000Z</time>
</trkpt>
<trkpt lat="45.8608050" lon="9.3304290">
	<ele>1199.40</ele>
	<time>2024-03-25T09:04:41.000Z</time>
</trkpt>
<trkpt lat="45.8607980" lon="9.3304210">
	<ele>1199.20</ele>
	<time>2024-03-25T09:04:42.000Z</time>
</trkpt>
<trkpt lat="45.8607920" lon="9.3304010">
	<ele>1199.20</ele>
	<time>2024-03-25T09:04:43.000Z</time>
</trkpt>
<trkpt lat="45.8607850" lon="9.3303780">
	<ele>1199.00</ele>
	<time>2024-03-25T09:04:44.000Z</time>
</trkpt>
<trkpt lat="45.8607800" lon="9.3303430">
	<ele>1199.00</ele>
	<time>2024-03-25T09:04:45.000Z</time>
</trkpt>
<trkpt lat="45.8607730" lon="9.3303130">
	<ele>1199.00</ele>
	<time>2024-03-25T09:04:46.000Z</time>
</trkpt>
<trkpt lat="45.8607620" lon="9.3302790">
	<ele>1198.80</ele>
	<time>2024-03-25T09:04:47.000Z</time>
</trkpt>
<trkpt lat="45.8607510" lon="9.3302500">
	<ele>1198.80</ele>
	<time>2024-03-25T09:04:48.000Z</time>
</trkpt>
<trkpt lat="45.8607360" lon="9.3302250">
	<ele>1198.80</ele>
	<time>2024-03-25T09:04:49.000Z</time>
</trkpt>
<trkpt lat="45.8607230" lon="9.3302010">
	<ele>1198.60</ele>
	<time>2024-03-25T09:04:50.000Z</time>
</trkpt>
<trkpt lat="45.8607060" lon="9.3301800">
	<ele>1198.60</ele>
	<time>2024-03-25T09:04:51.000Z</time>
</trkpt>
<trkpt lat="45.8606980" lon="9.3301670">
	<ele>1198.40</ele>
	<time>2024-03-25T09:04:52.000Z</time>
</trkpt>
<trkpt lat="45.8606950" lon="9.3301510">
	<ele>1198.20</ele>
	<time>2024-03-25T09:04:53.000Z</time>
</trkpt>
<trkpt lat="45.8606970" lon="9.3301370">
	<ele>1198.00</ele>
	<time>2024-03-25T09:04:54.000Z</time>
</trkpt>
<trkpt lat="45.8607000" lon="9.3301210">
	<ele>1198.00</ele>
	<time>2024-03-25T09:04:55.000Z</time>
</trkpt>
<trkpt lat="45.8607080" lon="9.3301040">
	<ele>1198.00</ele>
	<time>2024-03-25T09:04:56.000Z</time>
</trkpt>
<trkpt lat="45.8607110" lon="9.3300870">
	<ele>1198.00</ele>
	<time>2024-03-25T09:04:57.000Z</time>
</trkpt>
<trkpt lat="45.8607130" lon="9.3300720">
	<ele>1197.80</ele>
	<time>2024-03-25T09:04:58.000Z</time>
</trkpt>
<trkpt lat="45.8607130" lon="9.3300600">
	<ele>1197.80</ele>
	<time>2024-03-25T09:04:59.000Z</time>
</trkpt>
<trkpt lat="45.8607140" lon="9.3300520">
	<ele>1197.60</ele>
	<time>2024-03-25T09:05:00.000Z</time>
</trkpt>
<trkpt lat="45.8607150" lon="9.3300510">
	<ele>1197.60</ele>
	<time>2024-03-25T09:05:01.000Z</time>
</trkpt>
<trkpt lat="45.8607180" lon="9.3300530">
	<ele>1197.60</ele>
	<time>2024-03-25T09:05:02.000Z</time>
</trkpt>
<trkpt lat="45.8607210" lon="9.3300520">
	<ele>1197.60</ele>
	<time>2024-03-25T09:05:03.000Z</time>
</trkpt>
<trkpt lat="45.8607220" lon="9.3300510">
	<ele>1197.60</ele>
	<time>2024-03-25T09:05:04.000Z</time>
</trkpt>
<trkpt lat="45.8607230" lon="9.3300510">
	<ele>1197.40</ele>
	<time>2024-03-25T09:05:05.000Z</time>
</trkpt>
<trkpt lat="45.8607230" lon="9.3300510">
	<ele>1197.40</ele>
	<time>2024-03-25T09:05:06.000Z</time>
</trkpt>
<trkpt lat="45.8607210" lon="9.3300500">
	<ele>1197.40</ele>
	<time>2024-03-25T09:05:07.000Z</time>
</trkpt>
<trkpt lat="45.8607200" lon="9.3300500">
	<ele>1197.20</ele>
	<time>2024-03-25T09:05:08.000Z</time>
</trkpt>
<trkpt lat="45.8607190" lon="9.3300510">
	<ele>1197.20</ele>
	<time>2024-03-25T09:05:09.000Z</time>
</trkpt>
<trkpt lat="45.8607180" lon="9.3300500">
	<ele>1197.20</ele>
	<time>2024-03-25T09:05:10.000Z</time>
</trkpt>
<trkpt lat="45.8607180" lon="9.3300520">
	<ele>1197.20</ele>
	<time>2024-03-25T09:05:11.000Z</time>
</trkpt>
<trkpt lat="45.8607190" lon="9.3300540">
	<ele>1197.20</ele>
	<time>2024-03-25T09:05:12.000Z</time>
</trkpt>
<trkpt lat="45.8607210" lon="9.3300540">
	<ele>1197.20</ele>
	<time>2024-03-25T09:05:13.000Z</time>
</trkpt>
<trkpt lat="45.8607300" lon="9.3300470">
	<ele>1197.20</ele>
	<time>2024-03-25T09:05:14.000Z</time>
</trkpt>
<trkpt lat="45.8607350" lon="9.3300410">
	<ele>1197.20</ele>
	<time>2024-03-25T09:05:15.000Z</time>
</trkpt>
<trkpt lat="45.8607400" lon="9.3300360">
	<ele>1197.00</ele>
	<time>2024-03-25T09:05:16.000Z</time>
</trkpt>
<trkpt lat="45.8607420" lon="9.3300270">
	<ele>1197.00</ele>
	<time>2024-03-25T09:05:17.000Z</time>
</trkpt>
<trkpt lat="45.8607390" lon="9.3300200">
	<ele>1196.80</ele>
	<time>2024-03-25T09:05:18.000Z</time>
</trkpt>
<trkpt lat="45.8607370" lon="9.3300180">
	<ele>1196.60</ele>
	<time>2024-03-25T09:05:19.000Z</time>
</trkpt>
<trkpt lat="45.8607360" lon="9.3300160">
	<ele>1196.60</ele>
	<time>2024-03-25T09:05:20.000Z</time>
</trkpt>
<trkpt lat="45.8607330" lon="9.3300160">
	<ele>1196.20</ele>
	<time>2024-03-25T09:05:21.000Z</time>
</trkpt>
<trkpt lat="45.8607330" lon="9.3300130">
	<ele>1195.80</ele>
	<time>2024-03-25T09:05:22.000Z</time>
</trkpt>
<trkpt lat="45.8607330" lon="9.3300070">
	<ele>1195.80</ele>
	<time>2024-03-25T09:05:23.000Z</time>
</trkpt>
<trkpt lat="45.8607350" lon="9.3299990">
	<ele>1195.60</ele>
	<time>2024-03-25T09:05:24.000Z</time>
</trkpt>
<trkpt lat="45.8607330" lon="9.3299930">
	<ele>1195.60</ele>
	<time>2024-03-25T09:05:25.000Z</time>
</trkpt>
<trkpt lat="45.8607300" lon="9.3299860">
	<ele>1195.20</ele>
	<time>2024-03-25T09:05:26.000Z</time>
</trkpt>
<trkpt lat="45.8607300" lon="9.3299790">
	<ele>1195.00</ele>
	<time>2024-03-25T09:05:27.000Z</time>
</trkpt>
<trkpt lat="45.8607290" lon="9.3299760">
	<ele>1194.80</ele>
	<time>2024-03-25T09:05:28.000Z</time>
</trkpt>
<trkpt lat="45.8607290" lon="9.3299730">
	<ele>1194.80</ele>
	<time>2024-03-25T09:05:29.000Z</time>
</trkpt>
<trkpt lat="45.8607340" lon="9.3299680">
	<ele>1194.60</ele>
	<time>2024-03-25T09:05:30.000Z</time>
</trkpt>
<trkpt lat="45.8607360" lon="9.3299650">
	<ele>1194.60</ele>
	<time>2024-03-25T09:05:31.000Z</time>
</trkpt>
<trkpt lat="45.8607360" lon="9.3299610">
	<ele>1194.60</ele>
	<time>2024-03-25T09:05:32.000Z</time>
</trkpt>
<trkpt lat="45.8607370" lon="9.3299530">
	<ele>1194.40</ele>
	<time>2024-03-25T09:05:33.000Z</time>
</trkpt>
<trkpt lat="45.8607410" lon="9.3299460">
	<ele>1194.20</ele>
	<time>2024-03-25T09:05:34.000Z</time>
</trkpt>
<trkpt lat="45.8607400" lon="9.3299360">
	<ele>1194.00</ele>
	<time>2024-03-25T09:05:35.000Z</time>
</trkpt>
<trkpt lat="45.8607400" lon="9.3299300">
	<ele>1194.00</ele>
	<time>2024-03-25T09:05:36.000Z</time>
</trkpt>
<trkpt lat="45.8607410" lon="9.3299200">
	<ele>1193.60</ele>
	<time>2024-03-25T09:05:37.000Z</time>
</trkpt>
<trkpt lat="45.8607410" lon="9.3299140">
	<ele>1193.40</ele>
	<time>2024-03-25T09:05:38.000Z</time>
</trkpt>
<trkpt lat="45.8607440" lon="9.3299040">
	<ele>1193.20</ele>
	<time>2024-03-25T09:05:39.000Z</time>
</trkpt>
<trkpt lat="45.8607510" lon="9.3298990">
	<ele>1192.80</ele>
	<time>2024-03-25T09:05:40.000Z</time>
</trkpt>
<trkpt lat="45.8607530" lon="9.3298960">
	<ele>1192.40</ele>
	<time>2024-03-25T09:05:41.000Z</time>
</trkpt>
<trkpt lat="45.8607550" lon="9.3298870">
	<ele>1192.20</ele>
	<time>2024-03-25T09:05:42.000Z</time>
</trkpt>
<trkpt lat="45.8607520" lon="9.3298840">
	<ele>1192.20</ele>
	<time>2024-03-25T09:05:43.000Z</time>
</trkpt>
<trkpt lat="45.8607550" lon="9.3298840">
	<ele>1192.00</ele>
	<time>2024-03-25T09:05:44.000Z</time>
</trkpt>
<trkpt lat="45.8607540" lon="9.3298800">
	<ele>1191.80</ele>
	<time>2024-03-25T09:05:45.000Z</time>
</trkpt>
<trkpt lat="45.8607580" lon="9.3298740">
	<ele>1191.60</ele>
	<time>2024-03-25T09:05:46.000Z</time>
</trkpt>
<trkpt lat="45.8607600" lon="9.3298680">
	<ele>1191.40</ele>
	<time>2024-03-25T09:05:47.000Z</time>
</trkpt>
<trkpt lat="45.8607610" lon="9.3298600">
	<ele>1191.20</ele>
	<time>2024-03-25T09:05:48.000Z</time>
</trkpt>
<trkpt lat="45.8607650" lon="9.3298460">
	<ele>1190.80</ele>
	<time>2024-03-25T09:05:49.000Z</time>
</trkpt>
<trkpt lat="45.8607690" lon="9.3298320">
	<ele>1190.40</ele>
	<time>2024-03-25T09:05:50.000Z</time>
</trkpt>
<trkpt lat="45.8607740" lon="9.3298240">
	<ele>1190.00</ele>
	<time>2024-03-25T09:05:51.000Z</time>
</trkpt>
<trkpt lat="45.8607650" lon="9.3298200">
	<ele>1189.80</ele>
	<time>2024-03-25T09:05:52.000Z</time>
</trkpt>
<trkpt lat="45.8607600" lon="9.3298170">
	<ele>1189.40</ele>
	<time>2024-03-25T09:05:53.000Z</time>
</trkpt>
<trkpt lat="45.8607610" lon="9.3298190">
	<ele>1189.00</ele>
	<time>2024-03-25T09:05:54.000Z</time>
</trkpt>
<trkpt lat="45.8607640" lon="9.3298130">
	<ele>1188.80</ele>
	<time>2024-03-25T09:05:55.000Z</time>
</trkpt>
<trkpt lat="45.8607730" lon="9.3298070">
	<ele>1188.60</ele>
	<time>2024-03-25T09:05:56.000Z</time>
</trkpt>
<trkpt lat="45.8607790" lon="9.3298000">
	<ele>1188.40</ele>
	<time>2024-03-25T09:05:57.000Z</time>
</trkpt>
<trkpt lat="45.8607850" lon="9.3297940">
	<ele>1188.20</ele>
	<time>2024-03-25T09:05:58.000Z</time>
</trkpt>
<trkpt lat="45.8607840" lon="9.3297890">
	<ele>1188.00</ele>
	<time>2024-03-25T09:05:59.000Z</time>
</trkpt>
<trkpt lat="45.8607790" lon="9.3297800">
	<ele>1187.80</ele>
	<time>2024-03-25T09:06:00.000Z</time>
</trkpt>
<trkpt lat="45.8607790" lon="9.3297680">
	<ele>1187.40</ele>
	<time>2024-03-25T09:06:01.000Z</time>
</trkpt>
<trkpt lat="45.8607780" lon="9.3297550">
	<ele>1187.20</ele>
	<time>2024-03-25T09:06:02.000Z</time>
</trkpt>
<trkpt lat="45.8607760" lon="9.3297430">
	<ele>1187.00</ele>
	<time>2024-03-25T09:06:03.000Z</time>
</trkpt>
<trkpt lat="45.8607750" lon="9.3297350">
	<ele>1186.60</ele>
	<time>2024-03-25T09:06:04.000Z</time>
</trkpt>
<trkpt lat="45.8607740" lon="9.3297310">
	<ele>1186.20</ele>
	<time>2024-03-25T09:06:05.000Z</time>
</trkpt>
<trkpt lat="45.8607730" lon="9.3297250">
	<ele>1186.00</ele>
	<time>2024-03-25T09:06:06.000Z</time>
</trkpt>
<trkpt lat="45.8607790" lon="9.3297150">
	<ele>1185.80</ele>
	<time>2024-03-25T09:06:07.000Z</time>
</trkpt>
<trkpt lat="45.8607780" lon="9.3297090">
	<ele>1185.60</ele>
	<time>2024-03-25T09:06:08.000Z</time>
</trkpt>
<trkpt lat="45.8607780" lon="9.3297030">
	<ele>1185.20</ele>
	<time>2024-03-25T09:06:09.000Z</time>
</trkpt>
<trkpt lat="45.8607770" lon="9.3296940">
	<ele>1185.00</ele>
	<time>2024-03-25T09:06:10.000Z</time>
</trkpt>
<trkpt lat="45.8607750" lon="9.3296900">
	<ele>1184.80</ele>
	<time>2024-03-25T09:06:11.000Z</time>
</trkpt>
<trkpt lat="45.8607720" lon="9.3296860">
	<ele>1184.60</ele>
	<time>2024-03-25T09:06:12.000Z</time>
</trkpt>
<trkpt lat="45.8607670" lon="9.3296810">
	<ele>1184.20</ele>
	<time>2024-03-25T09:06:13.000Z</time>
</trkpt>
<trkpt lat="45.8607650" lon="9.3296780">
	<ele>1184.00</ele>
	<time>2024-03-25T09:06:14.000Z</time>
</trkpt>
<trkpt lat="45.8607630" lon="9.3296730">
	<ele>1183.80</ele>
	<time>2024-03-25T09:06:15.000Z</time>
</trkpt>
<trkpt lat="45.8607630" lon="9.3296650">
	<ele>1183.60</ele>
	<time>2024-03-25T09:06:16.000Z</time>
</trkpt>
<trkpt lat="45.8607650" lon="9.3296570">
	<ele>1183.20</ele>
	<time>2024-03-25T09:06:17.000Z</time>
</trkpt>
<trkpt lat="45.8607670" lon="9.3296500">
	<ele>1182.80</ele>
	<time>2024-03-25T09:06:18.000Z</time>
</trkpt>
<trkpt lat="45.8607670" lon="9.3296410">
	<ele>1182.60</ele>
	<time>2024-03-25T09:06:19.000Z</time>
</trkpt>
<trkpt lat="45.8607630" lon="9.3296320">
	<ele>1182.40</ele>
	<time>2024-03-25T09:06:20.000Z</time>
</trkpt>
<trkpt lat="45.8607590" lon="9.3296240">
	<ele>1182.20</ele>
	<time>2024-03-25T09:06:21.000Z</time>
</trkpt>
<trkpt lat="45.8607530" lon="9.3296150">
	<ele>1182.20</ele>
	<time>2024-03-25T09:06:22.000Z</time>
</trkpt>
<trkpt lat="45.8607420" lon="9.3295970">
	<ele>1182.00</ele>
	<time>2024-03-25T09:06:23.000Z</time>
</trkpt>
<trkpt lat="45.8607370" lon="9.3295790">
	<ele>1181.80</ele>
	<time>2024-03-25T09:06:24.000Z</time>
</trkpt>
<trkpt lat="45.8607370" lon="9.3295640">
	<ele>1181.40</ele>
	<time>2024-03-25T09:06:25.000Z</time>
</trkpt>
<trkpt lat="45.8607350" lon="9.3295440">
	<ele>1181.00</ele>
	<time>2024-03-25T09:06:26.000Z</time>
</trkpt>
<trkpt lat="45.8607350" lon="9.3295320">
	<ele>1180.80</ele>
	<time>2024-03-25T09:06:27.000Z</time>
</trkpt>
<trkpt lat="45.8607310" lon="9.3295220">
	<ele>1180.60</ele>
	<time>2024-03-25T09:06:28.000Z</time>
</trkpt>
<trkpt lat="45.8607240" lon="9.3295150">
	<ele>1180.00</ele>
	<time>2024-03-25T09:06:29.000Z</time>
</trkpt>
<trkpt lat="45.8607120" lon="9.3295100">
	<ele>1179.80</ele>
	<time>2024-03-25T09:06:30.000Z</time>
</trkpt>
<trkpt lat="45.8606960" lon="9.3295120">
	<ele>1179.40</ele>
	<time>2024-03-25T09:06:31.000Z</time>
</trkpt>
<trkpt lat="45.8606880" lon="9.3295080">
	<ele>1179.20</ele>
	<time>2024-03-25T09:06:32.000Z</time>
</trkpt>
<trkpt lat="45.8606730" lon="9.3295040">
	<ele>1179.00</ele>
	<time>2024-03-25T09:06:33.000Z</time>
</trkpt>
<trkpt lat="45.8606610" lon="9.3294990">
	<ele>1178.60</ele>
	<time>2024-03-25T09:06:34.000Z</time>
</trkpt>
<trkpt lat="45.8606510" lon="9.3294920">
	<ele>1178.40</ele>
	<time>2024-03-25T09:06:35.000Z</time>
</trkpt>
<trkpt lat="45.8606460" lon="9.3294940">
	<ele>1178.00</ele>
	<time>2024-03-25T09:06:36.000Z</time>
</trkpt>
<trkpt lat="45.8606450" lon="9.3295010">
	<ele>1177.80</ele>
	<time>2024-03-25T09:06:37.000Z</time>
</trkpt>
<trkpt lat="45.8606470" lon="9.3295070">
	<ele>1177.40</ele>
	<time>2024-03-25T09:06:38.000Z</time>
</trkpt>
<trkpt lat="45.8606480" lon="9.3295120">
	<ele>1177.20</ele>
	<time>2024-03-25T09:06:39.000Z</time>
</trkpt>
<trkpt lat="45.8606450" lon="9.3295170">
	<ele>1176.80</ele>
	<time>2024-03-25T09:06:40.000Z</time>
</trkpt>
<trkpt lat="45.8606420" lon="9.3295200">
	<ele>1176.80</ele>
	<time>2024-03-25T09:06:41.000Z</time>
</trkpt>
<trkpt lat="45.8606380" lon="9.3295220">
	<ele>1176.60</ele>
	<time>2024-03-25T09:06:42.000Z</time>
</trkpt>
<trkpt lat="45.8606320" lon="9.3295270">
	<ele>1176.40</ele>
	<time>2024-03-25T09:06:43.000Z</time>
</trkpt>
<trkpt lat="45.8606270" lon="9.3295260">
	<ele>1176.20</ele>
	<time>2024-03-25T09:06:44.000Z</time>
</trkpt>
<trkpt lat="45.8606170" lon="9.3295250">
	<ele>1176.00</ele>
	<time>2024-03-25T09:06:45.000Z</time>
</trkpt>
<trkpt lat="45.8606090" lon="9.3295280">
	<ele>1175.60</ele>
	<time>2024-03-25T09:06:46.000Z</time>
</trkpt>
<trkpt lat="45.8606050" lon="9.3295280">
	<ele>1175.40</ele>
	<time>2024-03-25T09:06:47.000Z</time>
</trkpt>
<trkpt lat="45.8606030" lon="9.3295230">
	<ele>1175.20</ele>
	<time>2024-03-25T09:06:48.000Z</time>
</trkpt>
<trkpt lat="45.8606000" lon="9.3295120">
	<ele>1175.00</ele>
	<time>2024-03-25T09:06:49.000Z</time>
</trkpt>
<trkpt lat="45.8606020" lon="9.3295060">
	<ele>1174.60</ele>
	<time>2024-03-25T09:06:50.000Z</time>
</trkpt>
<trkpt lat="45.8606040" lon="9.3294980">
	<ele>1174.40</ele>
	<time>2024-03-25T09:06:51.000Z</time>
</trkpt>
<trkpt lat="45.8606070" lon="9.3294910">
	<ele>1174.20</ele>
	<time>2024-03-25T09:06:52.000Z</time>
</trkpt>
<trkpt lat="45.8606070" lon="9.3294900">
	<ele>1174.00</ele>
	<time>2024-03-25T09:06:53.000Z</time>
</trkpt>
<trkpt lat="45.8606040" lon="9.3294880">
	<ele>1173.80</ele>
	<time>2024-03-25T09:06:54.000Z</time>
</trkpt>
<trkpt lat="45.8606010" lon="9.3294850">
	<ele>1173.60</ele>
	<time>2024-03-25T09:06:55.000Z</time>
</trkpt>
<trkpt lat="45.8606000" lon="9.3294790">
	<ele>1173.40</ele>
	<time>2024-03-25T09:06:56.000Z</time>
</trkpt>
<trkpt lat="45.8605980" lon="9.3294760">
	<ele>1173.20</ele>
	<time>2024-03-25T09:06:57.000Z</time>
</trkpt>
<trkpt lat="45.8605940" lon="9.3294720">
	<ele>1172.80</ele>
	<time>2024-03-25T09:06:58.000Z</time>
</trkpt>
<trkpt lat="45.8605930" lon="9.3294690">
	<ele>1172.60</ele>
	<time>2024-03-25T09:06:59.000Z</time>
</trkpt>
<trkpt lat="45.8605850" lon="9.3294690">
	<ele>1172.40</ele>
	<time>2024-03-25T09:07:00.000Z</time>
</trkpt>
<trkpt lat="45.8605770" lon="9.3294690">
	<ele>1172.20</ele>
	<time>2024-03-25T09:07:01.000Z</time>
</trkpt>
<trkpt lat="45.8605690" lon="9.3294680">
	<ele>1172.00</ele>
	<time>2024-03-25T09:07:02.000Z</time>
</trkpt>
<trkpt lat="45.8605620" lon="9.3294640">
	<ele>1171.80</ele>
	<time>2024-03-25T09:07:03.000Z</time>
</trkpt>
<trkpt lat="45.8605560" lon="9.3294640">
	<ele>1171.40</ele>
	<time>2024-03-25T09:07:04.000Z</time>
</trkpt>
<trkpt lat="45.8605550" lon="9.3294610">
	<ele>1171.20</ele>
	<time>2024-03-25T09:07:05.000Z</time>
</trkpt>
<trkpt lat="45.8605490" lon="9.3294620">
	<ele>1170.80</ele>
	<time>2024-03-25T09:07:06.000Z</time>
</trkpt>
<trkpt lat="45.8605430" lon="9.3294570">
	<ele>1170.60</ele>
	<time>2024-03-25T09:07:07.000Z</time>
</trkpt>
<trkpt lat="45.8605400" lon="9.3294530">
	<ele>1170.40</ele>
	<time>2024-03-25T09:07:08.000Z</time>
</trkpt>
<trkpt lat="45.8605380" lon="9.3294480">
	<ele>1170.00</ele>
	<time>2024-03-25T09:07:09.000Z</time>
</trkpt>
<trkpt lat="45.8605400" lon="9.3294400">
	<ele>1169.80</ele>
	<time>2024-03-25T09:07:10.000Z</time>
</trkpt>
<trkpt lat="45.8605440" lon="9.3294320">
	<ele>1169.40</ele>
	<time>2024-03-25T09:07:11.000Z</time>
</trkpt>
<trkpt lat="45.8605470" lon="9.3294300">
	<ele>1169.20</ele>
	<time>2024-03-25T09:07:12.000Z</time>
</trkpt>
<trkpt lat="45.8605480" lon="9.3294280">
	<ele>1169.00</ele>
	<time>2024-03-25T09:07:13.000Z</time>
</trkpt>
<trkpt lat="45.8605480" lon="9.3294250">
	<ele>1168.80</ele>
	<time>2024-03-25T09:07:14.000Z</time>
</trkpt>
<trkpt lat="45.8605500" lon="9.3294250">
	<ele>1168.60</ele>
	<time>2024-03-25T09:07:15.000Z</time>
</trkpt>
<trkpt lat="45.8605520" lon="9.3294230">
	<ele>1168.60</ele>
	<time>2024-03-25T09:07:16.000Z</time>
</trkpt>
<trkpt lat="45.8605570" lon="9.3294170">
	<ele>1168.40</ele>
	<time>2024-03-25T09:07:17.000Z</time>
</trkpt>
<trkpt lat="45.8605600" lon="9.3294190">
	<ele>1168.40</ele>
	<time>2024-03-25T09:07:18.000Z</time>
</trkpt>
<trkpt lat="45.8605550" lon="9.3294240">
	<ele>1168.40</ele>
	<time>2024-03-25T09:07:19.000Z</time>
</trkpt>
<trkpt lat="45.8605530" lon="9.3294310">
	<ele>1168.40</ele>
	<time>2024-03-25T09:07:20.000Z</time>
</trkpt>
<trkpt lat="45.8605500" lon="9.3294360">
	<ele>1168.60</ele>
	<time>2024-03-25T09:07:21.000Z</time>
</trkpt>
<trkpt lat="45.8605450" lon="9.3294400">
	<ele>1168.60</ele>
	<time>2024-03-25T09:07:22.000Z</time>
</trkpt>
<trkpt lat="45.8605440" lon="9.3294430">
	<ele>1168.60</ele>
	<time>2024-03-25T09:07:23.000Z</time>
</trkpt>
<trkpt lat="45.8605440" lon="9.3294420">
	<ele>1168.60</ele>
	<time>2024-03-25T09:07:24.000Z</time>
</trkpt>
<trkpt lat="45.8605440" lon="9.3294420">
	<ele>1168.60</ele>
	<time>2024-03-25T09:07:25.000Z</time>
</trkpt>
<trkpt lat="45.8605430" lon="9.3294400">
	<ele>1168.60</ele>
	<time>2024-03-25T09:07:26.000Z</time>
</trkpt>
<trkpt lat="45.8605350" lon="9.3294250">
	<ele>1168.60</ele>
	<time>2024-03-25T09:07:27.000Z</time>
</trkpt>
<trkpt lat="45.8605290" lon="9.3294110">
	<ele>1168.60</ele>
	<time>2024-03-25T09:07:28.000Z</time>
</trkpt>
<trkpt lat="45.8605280" lon="9.3294080">
	<ele>1168.60</ele>
	<time>2024-03-25T09:07:29.000Z</time>
</trkpt>
<trkpt lat="45.8605220" lon="9.3294010">
	<ele>1168.40</ele>
	<time>2024-03-25T09:07:30.000Z</time>
</trkpt>
<trkpt lat="45.8605150" lon="9.3294000">
	<ele>1168.40</ele>
	<time>2024-03-25T09:07:31.000Z</time>
</trkpt>
<trkpt lat="45.8605150" lon="9.3294010">
	<ele>1168.20</ele>
	<time>2024-03-25T09:07:32.000Z</time>
</trkpt>
<trkpt lat="45.8605120" lon="9.3294020">
	<ele>1168.00</ele>
	<time>2024-03-25T09:07:33.000Z</time>
</trkpt>
<trkpt lat="45.8605100" lon="9.3294030">
	<ele>1167.80</ele>
	<time>2024-03-25T09:07:34.000Z</time>
</trkpt>
<trkpt lat="45.8605120" lon="9.3294050">
	<ele>1167.60</ele>
	<time>2024-03-25T09:07:35.000Z</time>
</trkpt>
<trkpt lat="45.8605130" lon="9.3294080">
	<ele>1167.40</ele>
	<time>2024-03-25T09:07:36.000Z</time>
</trkpt>
<trkpt lat="45.8605120" lon="9.3294130">
	<ele>1167.20</ele>
	<time>2024-03-25T09:07:37.000Z</time>
</trkpt>
<trkpt lat="45.8605080" lon="9.3294120">
	<ele>1167.20</ele>
	<time>2024-03-25T09:07:38.000Z</time>
</trkpt>
<trkpt lat="45.8605030" lon="9.3294050">
	<ele>1166.80</ele>
	<time>2024-03-25T09:07:39.000Z</time>
</trkpt>
<trkpt lat="45.8605000" lon="9.3294020">
	<ele>1166.60</ele>
	<time>2024-03-25T09:07:40.000Z</time>
</trkpt>
<trkpt lat="45.8604950" lon="9.3293930">
	<ele>1166.40</ele>
	<time>2024-03-25T09:07:41.000Z</time>
</trkpt>
<trkpt lat="45.8604960" lon="9.3293790">
	<ele>1166.40</ele>
	<time>2024-03-25T09:07:42.000Z</time>
</trkpt>
<trkpt lat="45.8604970" lon="9.3293720">
	<ele>1166.20</ele>
	<time>2024-03-25T09:07:43.000Z</time>
</trkpt>
<trkpt lat="45.8605010" lon="9.3293680">
	<ele>1166.00</ele>
	<time>2024-03-25T09:07:44.000Z</time>
</trkpt>
<trkpt lat="45.8605010" lon="9.3293650">
	<ele>1165.80</ele>
	<time>2024-03-25T09:07:45.000Z</time>
</trkpt>
<trkpt lat="45.8605010" lon="9.3293600">
	<ele>1165.40</ele>
	<time>2024-03-25T09:07:46.000Z</time>
</trkpt>
<trkpt lat="45.8604980" lon="9.3293550">
	<ele>1165.40</ele>
	<time>2024-03-25T09:07:47.000Z</time>
</trkpt>
<trkpt lat="45.8604890" lon="9.3293520">
	<ele>1165.20</ele>
	<time>2024-03-25T09:07:48.000Z</time>
</trkpt>
<trkpt lat="45.8604860" lon="9.3293510">
	<ele>1165.00</ele>
	<time>2024-03-25T09:07:49.000Z</time>
</trkpt>
<trkpt lat="45.8604800" lon="9.3293560">
	<ele>1164.60</ele>
	<time>2024-03-25T09:07:50.000Z</time>
</trkpt>
<trkpt lat="45.8604760" lon="9.3293590">
	<ele>1164.20</ele>
	<time>2024-03-25T09:07:51.000Z</time>
</trkpt>
<trkpt lat="45.8604780" lon="9.3293610">
	<ele>1163.80</ele>
	<time>2024-03-25T09:07:52.000Z</time>
</trkpt>
<trkpt lat="45.8604780" lon="9.3293580">
	<ele>1163.40</ele>
	<time>2024-03-25T09:07:53.000Z</time>
</trkpt>
<trkpt lat="45.8604760" lon="9.3293550">
	<ele>1163.20</ele>
	<time>2024-03-25T09:07:54.000Z</time>
</trkpt>
<trkpt lat="45.8604740" lon="9.3293580">
	<ele>1163.00</ele>
	<time>2024-03-25T09:07:55.000Z</time>
</trkpt>
<trkpt lat="45.8604730" lon="9.3293570">
	<ele>1162.80</ele>
	<time>2024-03-25T09:07:56.000Z</time>
</trkpt>
<trkpt lat="45.8604720" lon="9.3293530">
	<ele>1162.60</ele>
	<time>2024-03-25T09:07:57.000Z</time>
</trkpt>
<trkpt lat="45.8604650" lon="9.3293480">
	<ele>1162.20</ele>
	<time>2024-03-25T09:07:58.000Z</time>
</trkpt>
<trkpt lat="45.8604570" lon="9.3293440">
	<ele>1162.20</ele>
	<time>2024-03-25T09:07:59.000Z</time>
</trkpt>
<trkpt lat="45.8604480" lon="9.3293410">
	<ele>1161.80</ele>
	<time>2024-03-25T09:08:00.000Z</time>
</trkpt>
<trkpt lat="45.8604360" lon="9.3293390">
	<ele>1161.60</ele>
	<time>2024-03-25T09:08:01.000Z</time>
</trkpt>
<trkpt lat="45.8604280" lon="9.3293350">
	<ele>1161.20</ele>
	<time>2024-03-25T09:08:02.000Z</time>
</trkpt>
<trkpt lat="45.8604160" lon="9.3293300">
	<ele>1161.00</ele>
	<time>2024-03-25T09:08:03.000Z</time>
</trkpt>
<trkpt lat="45.8604080" lon="9.3293220">
	<ele>1160.80</ele>
	<time>2024-03-25T09:08:04.000Z</time>
</trkpt>
<trkpt lat="45.8603950" lon="9.3293140">
	<ele>1160.40</ele>
	<time>2024-03-25T09:08:05.000Z</time>
</trkpt>
<trkpt lat="45.8603840" lon="9.3293060">
	<ele>1160.00</ele>
	<time>2024-03-25T09:08:06.000Z</time>
</trkpt>
<trkpt lat="45.8603720" lon="9.3293010">
	<ele>1159.80</ele>
	<time>2024-03-25T09:08:07.000Z</time>
</trkpt>
<trkpt lat="45.8603680" lon="9.3293010">
	<ele>1159.40</ele>
	<time>2024-03-25T09:08:08.000Z</time>
</trkpt>
<trkpt lat="45.8603650" lon="9.3293010">
	<ele>1159.20</ele>
	<time>2024-03-25T09:08:09.000Z</time>
</trkpt>
<trkpt lat="45.8603670" lon="9.3292980">
	<ele>1159.20</ele>
	<time>2024-03-25T09:08:10.000Z</time>
</trkpt>
<trkpt lat="45.8603670" lon="9.3293000">
	<ele>1158.80</ele>
	<time>2024-03-25T09:08:11.000Z</time>
</trkpt>
<trkpt lat="45.8603670" lon="9.3293060">
	<ele>1158.60</ele>
	<time>2024-03-25T09:08:12.000Z</time>
</trkpt>
<trkpt lat="45.8603600" lon="9.3293080">
	<ele>1158.60</ele>
	<time>2024-03-25T09:08:13.000Z</time>
</trkpt>
<trkpt lat="45.8603590" lon="9.3293100">
	<ele>1158.40</ele>
	<time>2024-03-25T09:08:14.000Z</time>
</trkpt>
<trkpt lat="45.8603550" lon="9.3293110">
	<ele>1158.20</ele>
	<time>2024-03-25T09:08:15.000Z</time>
</trkpt>
<trkpt lat="45.8603470" lon="9.3293070">
	<ele>1157.80</ele>
	<time>2024-03-25T09:08:16.000Z</time>
</trkpt>
<trkpt lat="45.8603430" lon="9.3293110">
	<ele>1157.60</ele>
	<time>2024-03-25T09:08:17.000Z</time>
</trkpt>
<trkpt lat="45.8603400" lon="9.3293050">
	<ele>1157.20</ele>
	<time>2024-03-25T09:08:18.000Z</time>
</trkpt>
<trkpt lat="45.8603350" lon="9.3293020">
	<ele>1157.00</ele>
	<time>2024-03-25T09:08:19.000Z</time>
</trkpt>
<trkpt lat="45.8603300" lon="9.3292960">
	<ele>1156.80</ele>
	<time>2024-03-25T09:08:20.000Z</time>
</trkpt>
<trkpt lat="45.8603270" lon="9.3292890">
	<ele>1156.60</ele>
	<time>2024-03-25T09:08:21.000Z</time>
</trkpt>
<trkpt lat="45.8603240" lon="9.3292840">
	<ele>1156.40</ele>
	<time>2024-03-25T09:08:22.000Z</time>
</trkpt>
<trkpt lat="45.8603210" lon="9.3292790">
	<ele>1156.20</ele>
	<time>2024-03-25T09:08:23.000Z</time>
</trkpt>
<trkpt lat="45.8603180" lon="9.3292780">
	<ele>1156.00</ele>
	<time>2024-03-25T09:08:24.000Z</time>
</trkpt>
<trkpt lat="45.8603130" lon="9.3292710">
	<ele>1155.80</ele>
	<time>2024-03-25T09:08:25.000Z</time>
</trkpt>
<trkpt lat="45.8602980" lon="9.3292620">
	<ele>1155.60</ele>
	<time>2024-03-25T09:08:26.000Z</time>
</trkpt>
<trkpt lat="45.8602880" lon="9.3292640">
	<ele>1155.20</ele>
	<time>2024-03-25T09:08:27.000Z</time>
</trkpt>
<trkpt lat="45.8602870" lon="9.3292630">
	<ele>1155.00</ele>
	<time>2024-03-25T09:08:28.000Z</time>
</trkpt>
<trkpt lat="45.8602860" lon="9.3292640">
	<ele>1154.80</ele>
	<time>2024-03-25T09:08:29.000Z</time>
</trkpt>
<trkpt lat="45.8602830" lon="9.3292650">
	<ele>1154.40</ele>
	<time>2024-03-25T09:08:30.000Z</time>
</trkpt>
<trkpt lat="45.8602840" lon="9.3292650">
	<ele>1154.20</ele>
	<time>2024-03-25T09:08:31.000Z</time>
</trkpt>
<trkpt lat="45.8602760" lon="9.3292630">
	<ele>1154.00</ele>
	<time>2024-03-25T09:08:32.000Z</time>
</trkpt>
<trkpt lat="45.8602730" lon="9.3292590">
	<ele>1154.00</ele>
	<time>2024-03-25T09:08:33.000Z</time>
</trkpt>
<trkpt lat="45.8602760" lon="9.3292600">
	<ele>1153.80</ele>
	<time>2024-03-25T09:08:34.000Z</time>
</trkpt>
<trkpt lat="45.8602760" lon="9.3292630">
	<ele>1153.60</ele>
	<time>2024-03-25T09:08:35.000Z</time>
</trkpt>
<trkpt lat="45.8602710" lon="9.3292620">
	<ele>1153.20</ele>
	<time>2024-03-25T09:08:36.000Z</time>
</trkpt>
<trkpt lat="45.8602670" lon="9.3292610">
	<ele>1153.00</ele>
	<time>2024-03-25T09:08:37.000Z</time>
</trkpt>
<trkpt lat="45.8602660" lon="9.3292580">
	<ele>1153.00</ele>
	<time>2024-03-25T09:08:38.000Z</time>
</trkpt>
<trkpt lat="45.8602620" lon="9.3292530">
	<ele>1152.40</ele>
	<time>2024-03-25T09:08:39.000Z</time>
</trkpt>
<trkpt lat="45.8602600" lon="9.3292480">
	<ele>1152.20</ele>
	<time>2024-03-25T09:08:40.000Z</time>
</trkpt>
<trkpt lat="45.8602590" lon="9.3292460">
	<ele>1152.00</ele>
	<time>2024-03-25T09:08:41.000Z</time>
</trkpt>
<trkpt lat="45.8602560" lon="9.3292440">
	<ele>1151.80</ele>
	<time>2024-03-25T09:08:42.000Z</time>
</trkpt>
<trkpt lat="45.8602530" lon="9.3292390">
	<ele>1151.40</ele>
	<time>2024-03-25T09:08:43.000Z</time>
</trkpt>
<trkpt lat="45.8602530" lon="9.3292310">
	<ele>1151.20</ele>
	<time>2024-03-25T09:08:44.000Z</time>
</trkpt>
<trkpt lat="45.8602520" lon="9.3292200">
	<ele>1150.80</ele>
	<time>2024-03-25T09:08:45.000Z</time>
</trkpt>
<trkpt lat="45.8602510" lon="9.3292110">
	<ele>1150.60</ele>
	<time>2024-03-25T09:08:46.000Z</time>
</trkpt>
<trkpt lat="45.8602480" lon="9.3292020">
	<ele>1150.20</ele>
	<time>2024-03-25T09:08:47.000Z</time>
</trkpt>
<trkpt lat="45.8602470" lon="9.3291990">
	<ele>1150.00</ele>
	<time>2024-03-25T09:08:48.000Z</time>
</trkpt>
<trkpt lat="45.8602460" lon="9.3291980">
	<ele>1149.60</ele>
	<time>2024-03-25T09:08:49.000Z</time>
</trkpt>
<trkpt lat="45.8602390" lon="9.3291930">
	<ele>1149.20</ele>
	<time>2024-03-25T09:08:50.000Z</time>
</trkpt>
<trkpt lat="45.8602370" lon="9.3291910">
	<ele>1149.00</ele>
	<time>2024-03-25T09:08:51.000Z</time>
</trkpt>
<trkpt lat="45.8602380" lon="9.3291880">
	<ele>1148.80</ele>
	<time>2024-03-25T09:08:52.000Z</time>
</trkpt>
<trkpt lat="45.8602340" lon="9.3291880">
	<ele>1148.60</ele>
	<time>2024-03-25T09:08:53.000Z</time>
</trkpt>
<trkpt lat="45.8602320" lon="9.3291830">
	<ele>1148.40</ele>
	<time>2024-03-25T09:08:54.000Z</time>
</trkpt>
<trkpt lat="45.8602320" lon="9.3291840">
	<ele>1148.20</ele>
	<time>2024-03-25T09:08:55.000Z</time>
</trkpt>
<trkpt lat="45.8602280" lon="9.3291750">
	<ele>1147.80</ele>
	<time>2024-03-25T09:08:56.000Z</time>
</trkpt>
<trkpt lat="45.8602260" lon="9.3291790">
	<ele>1147.60</ele>
	<time>2024-03-25T09:08:57.000Z</time>
</trkpt>
<trkpt lat="45.8602150" lon="9.3291780">
	<ele>1147.20</ele>
	<time>2024-03-25T09:08:58.000Z</time>
</trkpt>
<trkpt lat="45.8602070" lon="9.3291780">
	<ele>1146.80</ele>
	<time>2024-03-25T09:08:59.000Z</time>
</trkpt>
<trkpt lat="45.8602080" lon="9.3291790">
	<ele>1146.60</ele>
	<time>2024-03-25T09:09:00.000Z</time>
</trkpt>
<trkpt lat="45.8602090" lon="9.3291760">
	<ele>1146.20</ele>
	<time>2024-03-25T09:09:01.000Z</time>
</trkpt>
<trkpt lat="45.8602060" lon="9.3291770">
	<ele>1146.00</ele>
	<time>2024-03-25T09:09:02.000Z</time>
</trkpt>
<trkpt lat="45.8602040" lon="9.3291750">
	<ele>1145.80</ele>
	<time>2024-03-25T09:09:03.000Z</time>
</trkpt>
<trkpt lat="45.8602040" lon="9.3291710">
	<ele>1145.60</ele>
	<time>2024-03-25T09:09:04.000Z</time>
</trkpt>
<trkpt lat="45.8602040" lon="9.3291580">
	<ele>1145.40</ele>
	<time>2024-03-25T09:09:05.000Z</time>
</trkpt>
<trkpt lat="45.8602060" lon="9.3291520">
	<ele>1145.20</ele>
	<time>2024-03-25T09:09:06.000Z</time>
</trkpt>
<trkpt lat="45.8601980" lon="9.3291490">
	<ele>1145.00</ele>
	<time>2024-03-25T09:09:07.000Z</time>
</trkpt>
<trkpt lat="45.8601960" lon="9.3291500">
	<ele>1144.80</ele>
	<time>2024-03-25T09:09:08.000Z</time>
</trkpt>
<trkpt lat="45.8601940" lon="9.3291490">
	<ele>1144.80</ele>
	<time>2024-03-25T09:09:09.000Z</time>
</trkpt>
<trkpt lat="45.8601870" lon="9.3291420">
	<ele>1144.60</ele>
	<time>2024-03-25T09:09:10.000Z</time>
</trkpt>
<trkpt lat="45.8601840" lon="9.3291370">
	<ele>1144.40</ele>
	<time>2024-03-25T09:09:11.000Z</time>
</trkpt>
<trkpt lat="45.8601820" lon="9.3291360">
	<ele>1144.20</ele>
	<time>2024-03-25T09:09:12.000Z</time>
</trkpt>
<trkpt lat="45.8601800" lon="9.3291360">
	<ele>1144.20</ele>
	<time>2024-03-25T09:09:13.000Z</time>
</trkpt>
<trkpt lat="45.8601800" lon="9.3291370">
	<ele>1144.00</ele>
	<time>2024-03-25T09:09:14.000Z</time>
</trkpt>
<trkpt lat="45.8601790" lon="9.3291360">
	<ele>1143.80</ele>
	<time>2024-03-25T09:09:15.000Z</time>
</trkpt>
<trkpt lat="45.8601830" lon="9.3291330">
	<ele>1143.60</ele>
	<time>2024-03-25T09:09:16.000Z</time>
</trkpt>
<trkpt lat="45.8601860" lon="9.3291300">
	<ele>1143.40</ele>
	<time>2024-03-25T09:09:17.000Z</time>
</trkpt>
<trkpt lat="45.8601860" lon="9.3291230">
	<ele>1143.20</ele>
	<time>2024-03-25T09:09:18.000Z</time>
</trkpt>
<trkpt lat="45.8601790" lon="9.3291140">
	<ele>1142.80</ele>
	<time>2024-03-25T09:09:19.000Z</time>
</trkpt>
<trkpt lat="45.8601740" lon="9.3291090">
	<ele>1142.60</ele>
	<time>2024-03-25T09:09:20.000Z</time>
</trkpt>
<trkpt lat="45.8601690" lon="9.3291040">
	<ele>1142.40</ele>
	<time>2024-03-25T09:09:21.000Z</time>
</trkpt>
<trkpt lat="45.8601660" lon="9.3291030">
	<ele>1142.20</ele>
	<time>2024-03-25T09:09:22.000Z</time>
</trkpt>
<trkpt lat="45.8601630" lon="9.3290990">
	<ele>1142.00</ele>
	<time>2024-03-25T09:09:23.000Z</time>
</trkpt>
<trkpt lat="45.8601600" lon="9.3290960">
	<ele>1141.80</ele>
	<time>2024-03-25T09:09:24.000Z</time>
</trkpt>
<trkpt lat="45.8601540" lon="9.3290890">
	<ele>1141.60</ele>
	<time>2024-03-25T09:09:25.000Z</time>
</trkpt>
<trkpt lat="45.8601520" lon="9.3290860">
	<ele>1141.60</ele>
	<time>2024-03-25T09:09:26.000Z</time>
</trkpt>
<trkpt lat="45.8601510" lon="9.3290840">
	<ele>1141.20</ele>
	<time>2024-03-25T09:09:27.000Z</time>
</trkpt>
<trkpt lat="45.8601510" lon="9.3290780">
	<ele>1141.00</ele>
	<time>2024-03-25T09:09:28.000Z</time>
</trkpt>
<trkpt lat="45.8601490" lon="9.3290780">
	<ele>1141.00</ele>
	<time>2024-03-25T09:09:29.000Z</time>
</trkpt>
<trkpt lat="45.8601470" lon="9.3290800">
	<ele>1140.80</ele>
	<time>2024-03-25T09:09:30.000Z</time>
</trkpt>
<trkpt lat="45.8601420" lon="9.3290820">
	<ele>1140.60</ele>
	<time>2024-03-25T09:09:31.000Z</time>
</trkpt>
<trkpt lat="45.8601410" lon="9.3290850">
	<ele>1140.40</ele>
	<time>2024-03-25T09:09:32.000Z</time>
</trkpt>
<trkpt lat="45.8601400" lon="9.3290920">
	<ele>1140.20</ele>
	<time>2024-03-25T09:09:33.000Z</time>
</trkpt>
<trkpt lat="45.8601390" lon="9.3290970">
	<ele>1140.20</ele>
	<time>2024-03-25T09:09:34.000Z</time>
</trkpt>
<trkpt lat="45.8601370" lon="9.3290980">
	<ele>1139.80</ele>
	<time>2024-03-25T09:09:35.000Z</time>
</trkpt>
<trkpt lat="45.8601350" lon="9.3291000">
	<ele>1139.60</ele>
	<time>2024-03-25T09:09:36.000Z</time>
</trkpt>
<trkpt lat="45.8601340" lon="9.3291030">
	<ele>1139.20</ele>
	<time>2024-03-25T09:09:37.000Z</time>
</trkpt>
<trkpt lat="45.8601360" lon="9.3291070">
	<ele>1139.00</ele>
	<time>2024-03-25T09:09:38.000Z</time>
</trkpt>
<trkpt lat="45.8601370" lon="9.3291090">
	<ele>1138.80</ele>
	<time>2024-03-25T09:09:39.000Z</time>
</trkpt>
<trkpt lat="45.8601370" lon="9.3291090">
	<ele>1138.40</ele>
	<time>2024-03-25T09:09:40.000Z</time>
</trkpt>
<trkpt lat="45.8601350" lon="9.3291080">
	<ele>1138.20</ele>
	<time>2024-03-25T09:09:41.000Z</time>
</trkpt>
<trkpt lat="45.8601300" lon="9.3291050">
	<ele>1138.00</ele>
	<time>2024-03-25T09:09:42.000Z</time>
</trkpt>
<trkpt lat="45.8601280" lon="9.3291080">
	<ele>1137.80</ele>
	<time>2024-03-25T09:09:43.000Z</time>
</trkpt>
<trkpt lat="45.8601240" lon="9.3291110">
	<ele>1137.60</ele>
	<time>2024-03-25T09:09:44.000Z</time>
</trkpt>
<trkpt lat="45.8601200" lon="9.3291150">
	<ele>1137.40</ele>
	<time>2024-03-25T09:09:45.000Z</time>
</trkpt>
<trkpt lat="45.8601170" lon="9.3291190">
	<ele>1137.20</ele>
	<time>2024-03-25T09:09:46.000Z</time>
</trkpt>
<trkpt lat="45.8601160" lon="9.3291170">
	<ele>1137.00</ele>
	<time>2024-03-25T09:09:47.000Z</time>
</trkpt>
<trkpt lat="45.8601150" lon="9.3291210">
	<ele>1136.60</ele>
	<time>2024-03-25T09:09:48.000Z</time>
</trkpt>
<trkpt lat="45.8601100" lon="9.3291210">
	<ele>1136.40</ele>
	<time>2024-03-25T09:09:49.000Z</time>
</trkpt>
<trkpt lat="45.8601070" lon="9.3291220">
	<ele>1136.20</ele>
	<time>2024-03-25T09:09:50.000Z</time>
</trkpt>
<trkpt lat="45.8601020" lon="9.3291210">
	<ele>1136.20</ele>
	<time>2024-03-25T09:09:51.000Z</time>
</trkpt>
<trkpt lat="45.8601010" lon="9.3291200">
	<ele>1136.20</ele>
	<time>2024-03-25T09:09:52.000Z</time>
</trkpt>
<trkpt lat="45.8601000" lon="9.3291180">
	<ele>1136.20</ele>
	<time>2024-03-25T09:09:53.000Z</time>
</trkpt>
<trkpt lat="45.8601000" lon="9.3291210">
	<ele>1135.80</ele>
	<time>2024-03-25T09:09:54.000Z</time>
</trkpt>
<trkpt lat="45.8601010" lon="9.3291230">
	<ele>1135.60</ele>
	<time>2024-03-25T09:09:55.000Z</time>
</trkpt>
<trkpt lat="45.8600950" lon="9.3291230">
	<ele>1135.40</ele>
	<time>2024-03-25T09:09:56.000Z</time>
</trkpt>
<trkpt lat="45.8600900" lon="9.3291220">
	<ele>1135.20</ele>
	<time>2024-03-25T09:09:57.000Z</time>
</trkpt>
<trkpt lat="45.8600910" lon="9.3291250">
	<ele>1135.00</ele>
	<time>2024-03-25T09:09:58.000Z</time>
</trkpt>
<trkpt lat="45.8600910" lon="9.3291250">
	<ele>1134.80</ele>
	<time>2024-03-25T09:09:59.000Z</time>
</trkpt>
<trkpt lat="45.8600910" lon="9.3291230">
	<ele>1134.40</ele>
	<time>2024-03-25T09:10:00.000Z</time>
</trkpt>
<trkpt lat="45.8600850" lon="9.3291240">
	<ele>1134.20</ele>
	<time>2024-03-25T09:10:01.000Z</time>
</trkpt>
<trkpt lat="45.8600750" lon="9.3291180">
	<ele>1134.00</ele>
	<time>2024-03-25T09:10:02.000Z</time>
</trkpt>
<trkpt lat="45.8600710" lon="9.3291170">
	<ele>1133.80</ele>
	<time>2024-03-25T09:10:03.000Z</time>
</trkpt>
<trkpt lat="45.8600660" lon="9.3291230">
	<ele>1133.80</ele>
	<time>2024-03-25T09:10:04.000Z</time>
</trkpt>
<trkpt lat="45.8600610" lon="9.3291260">
	<ele>1133.60</ele>
	<time>2024-03-25T09:10:05.000Z</time>
</trkpt>
<trkpt lat="45.8600560" lon="9.3291300">
	<ele>1133.40</ele>
	<time>2024-03-25T09:10:06.000Z</time>
</trkpt>
<trkpt lat="45.8600480" lon="9.3291410">
	<ele>1133.20</ele>
	<time>2024-03-25T09:10:07.000Z</time>
</trkpt>
<trkpt lat="45.8600450" lon="9.3291530">
	<ele>1133.00</ele>
	<time>2024-03-25T09:10:08.000Z</time>
</trkpt>
<trkpt lat="45.8600440" lon="9.3291560">
	<ele>1132.80</ele>
	<time>2024-03-25T09:10:09.000Z</time>
</trkpt>
<trkpt lat="45.8600400" lon="9.3291580">
	<ele>1132.60</ele>
	<time>2024-03-25T09:10:10.000Z</time>
</trkpt>
<trkpt lat="45.8600390" lon="9.3291530">
	<ele>1132.60</ele>
	<time>2024-03-25T09:10:11.000Z</time>
</trkpt>
<trkpt lat="45.8600340" lon="9.3291530">
	<ele>1132.40</ele>
	<time>2024-03-25T09:10:12.000Z</time>
</trkpt>
<trkpt lat="45.8600350" lon="9.3291520">
	<ele>1132.20</ele>
	<time>2024-03-25T09:10:13.000Z</time>
</trkpt>
<trkpt lat="45.8600320" lon="9.3291560">
	<ele>1131.80</ele>
	<time>2024-03-25T09:10:14.000Z</time>
</trkpt>
<trkpt lat="45.8600330" lon="9.3291600">
	<ele>1131.60</ele>
	<time>2024-03-25T09:10:15.000Z</time>
</trkpt>
<trkpt lat="45.8600340" lon="9.3291630">
	<ele>1131.20</ele>
	<time>2024-03-25T09:10:16.000Z</time>
</trkpt>
<trkpt lat="45.8600360" lon="9.3291710">
	<ele>1131.00</ele>
	<time>2024-03-25T09:10:17.000Z</time>
</trkpt>
<trkpt lat="45.8600370" lon="9.3291740">
	<ele>1130.80</ele>
	<time>2024-03-25T09:10:18.000Z</time>
</trkpt>
<trkpt lat="45.8600330" lon="9.3291770">
	<ele>1130.40</ele>
	<time>2024-03-25T09:10:19.000Z</time>
</trkpt>
<trkpt lat="45.8600290" lon="9.3291800">
	<ele>1130.40</ele>
	<time>2024-03-25T09:10:20.000Z</time>
</trkpt>
<trkpt lat="45.8600280" lon="9.3291840">
	<ele>1130.20</ele>
	<time>2024-03-25T09:10:21.000Z</time>
</trkpt>
<trkpt lat="45.8600250" lon="9.3291850">
	<ele>1130.00</ele>
	<time>2024-03-25T09:10:22.000Z</time>
</trkpt>
<trkpt lat="45.8600220" lon="9.3291860">
	<ele>1129.60</ele>
	<time>2024-03-25T09:10:23.000Z</time>
</trkpt>
<trkpt lat="45.8600210" lon="9.3291870">
	<ele>1129.40</ele>
	<time>2024-03-25T09:10:24.000Z</time>
</trkpt>
<trkpt lat="45.8600190" lon="9.3291920">
	<ele>1129.20</ele>
	<time>2024-03-25T09:10:25.000Z</time>
</trkpt>
<trkpt lat="45.8600160" lon="9.3291970">
	<ele>1129.00</ele>
	<time>2024-03-25T09:10:26.000Z</time>
</trkpt>
<trkpt lat="45.8600120" lon="9.3292010">
	<ele>1129.00</ele>
	<time>2024-03-25T09:10:27.000Z</time>
</trkpt>
<trkpt lat="45.8600070" lon="9.3292060">
	<ele>1128.60</ele>
	<time>2024-03-25T09:10:28.000Z</time>
</trkpt>
<trkpt lat="45.8600000" lon="9.3292120">
	<ele>1128.20</ele>
	<time>2024-03-25T09:10:29.000Z</time>
</trkpt>
<trkpt lat="45.8599970" lon="9.3292170">
	<ele>1128.00</ele>
	<time>2024-03-25T09:10:30.000Z</time>
</trkpt>
<trkpt lat="45.8599970" lon="9.3292180">
	<ele>1127.80</ele>
	<time>2024-03-25T09:10:31.000Z</time>
</trkpt>
<trkpt lat="45.8599940" lon="9.3292240">
	<ele>1127.40</ele>
	<time>2024-03-25T09:10:32.000Z</time>
</trkpt>
<trkpt lat="45.8599900" lon="9.3292230">
	<ele>1127.20</ele>
	<time>2024-03-25T09:10:33.000Z</time>
</trkpt>
<trkpt lat="45.8599830" lon="9.3292190">
	<ele>1127.00</ele>
	<time>2024-03-25T09:10:34.000Z</time>
</trkpt>
<trkpt lat="45.8599790" lon="9.3292170">
	<ele>1126.80</ele>
	<time>2024-03-25T09:10:35.000Z</time>
</trkpt>
<trkpt lat="45.8599770" lon="9.3292170">
	<ele>1126.60</ele>
	<time>2024-03-25T09:10:36.000Z</time>
</trkpt>
<trkpt lat="45.8599750" lon="9.3292170">
	<ele>1126.40</ele>
	<time>2024-03-25T09:10:37.000Z</time>
</trkpt>
<trkpt lat="45.8599740" lon="9.3292170">
	<ele>1126.40</ele>
	<time>2024-03-25T09:10:38.000Z</time>
</trkpt>
<trkpt lat="45.8599710" lon="9.3292210">
	<ele>1126.20</ele>
	<time>2024-03-25T09:10:39.000Z</time>
</trkpt>
<trkpt lat="45.8599680" lon="9.3292230">
	<ele>1126.20</ele>
	<time>2024-03-25T09:10:40.000Z</time>
</trkpt>
<trkpt lat="45.8599650" lon="9.3292240">
	<ele>1126.00</ele>
	<time>2024-03-25T09:10:41.000Z</time>
</trkpt>
<trkpt lat="45.8599590" lon="9.3292230">
	<ele>1125.60</ele>
	<time>2024-03-25T09:10:42.000Z</time>
</trkpt>
<trkpt lat="45.8599550" lon="9.3292250">
	<ele>1125.40</ele>
	<time>2024-03-25T09:10:43.000Z</time>
</trkpt>
<trkpt lat="45.8599520" lon="9.3292250">
	<ele>1125.20</ele>
	<time>2024-03-25T09:10:44.000Z</time>
</trkpt>
<trkpt lat="45.8599470" lon="9.3292210">
	<ele>1124.80</ele>
	<time>2024-03-25T09:10:45.000Z</time>
</trkpt>
<trkpt lat="45.8599440" lon="9.3292190">
	<ele>1124.60</ele>
	<time>2024-03-25T09:10:46.000Z</time>
</trkpt>
<trkpt lat="45.8599420" lon="9.3292150">
	<ele>1124.40</ele>
	<time>2024-03-25T09:10:47.000Z</time>
</trkpt>
<trkpt lat="45.8599370" lon="9.3292060">
	<ele>1124.00</ele>
	<time>2024-03-25T09:10:48.000Z</time>
</trkpt>
<trkpt lat="45.8599290" lon="9.3291970">
	<ele>1123.80</ele>
	<time>2024-03-25T09:10:49.000Z</time>
</trkpt>
<trkpt lat="45.8599270" lon="9.3291920">
	<ele>1123.60</ele>
	<time>2024-03-25T09:10:50.000Z</time>
</trkpt>
<trkpt lat="45.8599210" lon="9.3291900">
	<ele>1123.40</ele>
	<time>2024-03-25T09:10:51.000Z</time>
</trkpt>
<trkpt lat="45.8599190" lon="9.3291880">
	<ele>1123.20</ele>
	<time>2024-03-25T09:10:52.000Z</time>
</trkpt>
<trkpt lat="45.8599120" lon="9.3291900">
	<ele>1122.80</ele>
	<time>2024-03-25T09:10:53.000Z</time>
</trkpt>
<trkpt lat="45.8599030" lon="9.3291970">
	<ele>1122.60</ele>
	<time>2024-03-25T09:10:54.000Z</time>
</trkpt>
<trkpt lat="45.8598990" lon="9.3291990">
	<ele>1122.60</ele>
	<time>2024-03-25T09:10:55.000Z</time>
</trkpt>
<trkpt lat="45.8598950" lon="9.3291990">
	<ele>1122.40</ele>
	<time>2024-03-25T09:10:56.000Z</time>
</trkpt>
<trkpt lat="45.8598910" lon="9.3291940">
	<ele>1122.20</ele>
	<time>2024-03-25T09:10:57.000Z</time>
</trkpt>
<trkpt lat="45.8598850" lon="9.3291940">
	<ele>1121.80</ele>
	<time>2024-03-25T09:10:58.000Z</time>
</trkpt>
<trkpt lat="45.8598780" lon="9.3291920">
	<ele>1121.40</ele>
	<time>2024-03-25T09:10:59.000Z</time>
</trkpt>
<trkpt lat="45.8598740" lon="9.3291900">
	<ele>1121.20</ele>
	<time>2024-03-25T09:11:00.000Z</time>
</trkpt>
<trkpt lat="45.8598700" lon="9.3291820">
	<ele>1120.80</ele>
	<time>2024-03-25T09:11:01.000Z</time>
</trkpt>
<trkpt lat="45.8598640" lon="9.3291740">
	<ele>1120.60</ele>
	<time>2024-03-25T09:11:02.000Z</time>
</trkpt>
<trkpt lat="45.8598590" lon="9.3291680">
	<ele>1120.20</ele>
	<time>2024-03-25T09:11:03.000Z</time>
</trkpt>
<trkpt lat="45.8598560" lon="9.3291660">
	<ele>1120.00</ele>
	<time>2024-03-25T09:11:04.000Z</time>
</trkpt>
<trkpt lat="45.8598520" lon="9.3291620">
	<ele>1119.60</ele>
	<time>2024-03-25T09:11:05.000Z</time>
</trkpt>
<trkpt lat="45.8598450" lon="9.3291570">
	<ele>1119.20</ele>
	<time>2024-03-25T09:11:06.000Z</time>
</trkpt>
<trkpt lat="45.8598380" lon="9.3291620">
	<ele>1119.00</ele>
	<time>2024-03-25T09:11:07.000Z</time>
</trkpt>
<trkpt lat="45.8598350" lon="9.3291640">
	<ele>1119.00</ele>
	<time>2024-03-25T09:11:08.000Z</time>
</trkpt>
<trkpt lat="45.8598270" lon="9.3291670">
	<ele>1118.80</ele>
	<time>2024-03-25T09:11:09.000Z</time>
</trkpt>
<trkpt lat="45.8598210" lon="9.3291640">
	<ele>1118.40</ele>
	<time>2024-03-25T09:11:10.000Z</time>
</trkpt>
<trkpt lat="45.8598120" lon="9.3291520">
	<ele>1118.20</ele>
	<time>2024-03-25T09:11:11.000Z</time>
</trkpt>
<trkpt lat="45.8598100" lon="9.3291410">
	<ele>1118.00</ele>
	<time>2024-03-25T09:11:12.000Z</time>
</trkpt>
<trkpt lat="45.8598080" lon="9.3291400">
	<ele>1117.40</ele>
	<time>2024-03-25T09:11:13.000Z</time>
</trkpt>
<trkpt lat="45.8598060" lon="9.3291390">
	<ele>1117.20</ele>
	<time>2024-03-25T09:11:14.000Z</time>
</trkpt>
<trkpt lat="45.8598030" lon="9.3291280">
	<ele>1117.00</ele>
	<time>2024-03-25T09:11:15.000Z</time>
</trkpt>
<trkpt lat="45.8598010" lon="9.3291150">
	<ele>1116.60</ele>
	<time>2024-03-25T09:11:16.000Z</time>
</trkpt>
<trkpt lat="45.8597960" lon="9.3291050">
	<ele>1116.40</ele>
	<time>2024-03-25T09:11:17.000Z</time>
</trkpt>
<trkpt lat="45.8597910" lon="9.3290990">
	<ele>1116.00</ele>
	<time>2024-03-25T09:11:18.000Z</time>
</trkpt>
<trkpt lat="45.8597890" lon="9.3290920">
	<ele>1115.80</ele>
	<time>2024-03-25T09:11:19.000Z</time>
</trkpt>
<trkpt lat="45.8597870" lon="9.3290910">
	<ele>1115.40</ele>
	<time>2024-03-25T09:11:20.000Z</time>
</trkpt>
<trkpt lat="45.8597810" lon="9.3290890">
	<ele>1115.20</ele>
	<time>2024-03-25T09:11:21.000Z</time>
</trkpt>
<trkpt lat="45.8597790" lon="9.3290930">
	<ele>1114.80</ele>
	<time>2024-03-25T09:11:22.000Z</time>
</trkpt>
<trkpt lat="45.8597760" lon="9.3290880">
	<ele>1114.60</ele>
	<time>2024-03-25T09:11:23.000Z</time>
</trkpt>
<trkpt lat="45.8597790" lon="9.3290790">
	<ele>1114.40</ele>
	<time>2024-03-25T09:11:24.000Z</time>
</trkpt>
<trkpt lat="45.8597740" lon="9.3290730">
	<ele>1114.20</ele>
	<time>2024-03-25T09:11:25.000Z</time>
</trkpt>
<trkpt lat="45.8597640" lon="9.3290650">
	<ele>1113.80</ele>
	<time>2024-03-25T09:11:26.000Z</time>
</trkpt>
<trkpt lat="45.8597540" lon="9.3290610">
	<ele>1113.60</ele>
	<time>2024-03-25T09:11:27.000Z</time>
</trkpt>
<trkpt lat="45.8597450" lon="9.3290560">
	<ele>1113.20</ele>
	<time>2024-03-25T09:11:28.000Z</time>
</trkpt>
<trkpt lat="45.8597350" lon="9.3290490">
	<ele>1112.80</ele>
	<time>2024-03-25T09:11:29.000Z</time>
</trkpt>
<trkpt lat="45.8597270" lon="9.3290440">
	<ele>1112.60</ele>
	<time>2024-03-25T09:11:30.000Z</time>
</trkpt>
<trkpt lat="45.8597200" lon="9.3290440">
	<ele>1112.20</ele>
	<time>2024-03-25T09:11:31.000Z</time>
</trkpt>
<trkpt lat="45.8597150" lon="9.3290450">
	<ele>1112.00</ele>
	<time>2024-03-25T09:11:32.000Z</time>
</trkpt>
<trkpt lat="45.8597090" lon="9.3290430">
	<ele>1111.60</ele>
	<time>2024-03-25T09:11:33.000Z</time>
</trkpt>
<trkpt lat="45.8597010" lon="9.3290420">
	<ele>1111.40</ele>
	<time>2024-03-25T09:11:34.000Z</time>
</trkpt>
<trkpt lat="45.8596970" lon="9.3290370">
	<ele>1111.20</ele>
	<time>2024-03-25T09:11:35.000Z</time>
</trkpt>
<trkpt lat="45.8596980" lon="9.3290360">
	<ele>1111.00</ele>
	<time>2024-03-25T09:11:36.000Z</time>
</trkpt>
<trkpt lat="45.8596970" lon="9.3290350">
	<ele>1111.00</ele>
	<time>2024-03-25T09:11:37.000Z</time>
</trkpt>
<trkpt lat="45.8596950" lon="9.3290340">
	<ele>1110.80</ele>
	<time>2024-03-25T09:11:38.000Z</time>
</trkpt>
<trkpt lat="45.8596850" lon="9.3290300">
	<ele>1110.80</ele>
	<time>2024-03-25T09:11:39.000Z</time>
</trkpt>
<trkpt lat="45.8596780" lon="9.3290310">
	<ele>1110.60</ele>
	<time>2024-03-25T09:11:40.000Z</time>
</trkpt>
<trkpt lat="45.8596750" lon="9.3290320">
	<ele>1110.00</ele>
	<time>2024-03-25T09:11:41.000Z</time>
</trkpt>
<trkpt lat="45.8596740" lon="9.3290320">
	<ele>1109.80</ele>
	<time>2024-03-25T09:11:42.000Z</time>
</trkpt>
<trkpt lat="45.8596720" lon="9.3290340">
	<ele>1109.60</ele>
	<time>2024-03-25T09:11:43.000Z</time>
</trkpt>
<trkpt lat="45.8596720" lon="9.3290290">
	<ele>1109.20</ele>
	<time>2024-03-25T09:11:44.000Z</time>
</trkpt>
<trkpt lat="45.8596690" lon="9.3290290">
	<ele>1109.00</ele>
	<time>2024-03-25T09:11:45.000Z</time>
</trkpt>
<trkpt lat="45.8596650" lon="9.3290290">
	<ele>1108.60</ele>
	<time>2024-03-25T09:11:46.000Z</time>
</trkpt>
<trkpt lat="45.8596630" lon="9.3290310">
	<ele>1108.20</ele>
	<time>2024-03-25T09:11:47.000Z</time>
</trkpt>
<trkpt lat="45.8596630" lon="9.3290330">
	<ele>1107.80</ele>
	<time>2024-03-25T09:11:48.000Z</time>
</trkpt>
<trkpt lat="45.8596620" lon="9.3290310">
	<ele>1107.60</ele>
	<time>2024-03-25T09:11:49.000Z</time>
</trkpt>
<trkpt lat="45.8596600" lon="9.3290280">
	<ele>1107.40</ele>
	<time>2024-03-25T09:11:50.000Z</time>
</trkpt>
<trkpt lat="45.8596570" lon="9.3290230">
	<ele>1107.20</ele>
	<time>2024-03-25T09:11:51.000Z</time>
</trkpt>
<trkpt lat="45.8596540" lon="9.3290180">
	<ele>1107.00</ele>
	<time>2024-03-25T09:11:52.000Z</time>
</trkpt>
<trkpt lat="45.8596520" lon="9.3290160">
	<ele>1106.20</ele>
	<time>2024-03-25T09:11:53.000Z</time>
</trkpt>
<trkpt lat="45.8596490" lon="9.3290180">
	<ele>1106.00</ele>
	<time>2024-03-25T09:11:54.000Z</time>
</trkpt>
<trkpt lat="45.8596440" lon="9.3290130">
	<ele>1105.80</ele>
	<time>2024-03-25T09:11:55.000Z</time>
</trkpt>
<trkpt lat="45.8596420" lon="9.3290030">
	<ele>1105.60</ele>
	<time>2024-03-25T09:11:56.000Z</time>
</trkpt>
<trkpt lat="45.8596380" lon="9.3289890">
	<ele>1105.40</ele>
	<time>2024-03-25T09:11:57.000Z</time>
</trkpt>
<trkpt lat="45.8596360" lon="9.3289820">
	<ele>1105.20</ele>
	<time>2024-03-25T09:11:58.000Z</time>
</trkpt>
<trkpt lat="45.8596300" lon="9.3289780">
	<ele>1105.00</ele>
	<time>2024-03-25T09:11:59.000Z</time>
</trkpt>
<trkpt lat="45.8596280" lon="9.3289780">
	<ele>1104.60</ele>
	<time>2024-03-25T09:12:00.000Z</time>
</trkpt>
<trkpt lat="45.8596250" lon="9.3289710">
	<ele>1104.40</ele>
	<time>2024-03-25T09:12:01.000Z</time>
</trkpt>
<trkpt lat="45.8596260" lon="9.3289700">
	<ele>1104.40</ele>
	<time>2024-03-25T09:12:02.000Z</time>
</trkpt>
<trkpt lat="45.8596270" lon="9.3289710">
	<ele>1104.00</ele>
	<time>2024-03-25T09:12:03.000Z</time>
</trkpt>
<trkpt lat="45.8596290" lon="9.3289710">
	<ele>1103.80</ele>
	<time>2024-03-25T09:12:04.000Z</time>
</trkpt>
<trkpt lat="45.8596230" lon="9.3289770">
	<ele>1103.60</ele>
	<time>2024-03-25T09:12:05.000Z</time>
</trkpt>
<trkpt lat="45.8596240" lon="9.3289820">
	<ele>1103.40</ele>
	<time>2024-03-25T09:12:06.000Z</time>
</trkpt>
<trkpt lat="45.8596230" lon="9.3289860">
	<ele>1103.20</ele>
	<time>2024-03-25T09:12:07.000Z</time>
</trkpt>
<trkpt lat="45.8596230" lon="9.3289890">
	<ele>1103.00</ele>
	<time>2024-03-25T09:12:08.000Z</time>
</trkpt>
<trkpt lat="45.8596190" lon="9.3289890">
	<ele>1102.40</ele>
	<time>2024-03-25T09:12:09.000Z</time>
</trkpt>
<trkpt lat="45.8596190" lon="9.3289900">
	<ele>1102.20</ele>
	<time>2024-03-25T09:12:10.000Z</time>
</trkpt>
<trkpt lat="45.8596130" lon="9.3289860">
	<ele>1102.20</ele>
	<time>2024-03-25T09:12:11.000Z</time>
</trkpt>
<trkpt lat="45.8596100" lon="9.3289850">
	<ele>1102.00</ele>
	<time>2024-03-25T09:12:12.000Z</time>
</trkpt>
<trkpt lat="45.8596030" lon="9.3289850">
	<ele>1101.80</ele>
	<time>2024-03-25T09:12:13.000Z</time>
</trkpt>
<trkpt lat="45.8595970" lon="9.3289800">
	<ele>1101.60</ele>
	<time>2024-03-25T09:12:14.000Z</time>
</trkpt>
<trkpt lat="45.8595910" lon="9.3289750">
	<ele>1101.40</ele>
	<time>2024-03-25T09:12:15.000Z</time>
</trkpt>
<trkpt lat="45.8595840" lon="9.3289770">
	<ele>1101.40</ele>
	<time>2024-03-25T09:12:16.000Z</time>
</trkpt>
<trkpt lat="45.8595820" lon="9.3289810">
	<ele>1101.20</ele>
	<time>2024-03-25T09:12:17.000Z</time>
</trkpt>
<trkpt lat="45.8595810" lon="9.3289860">
	<ele>1100.80</ele>
	<time>2024-03-25T09:12:18.000Z</time>
</trkpt>
<trkpt lat="45.8595800" lon="9.3289900">
	<ele>1100.40</ele>
	<time>2024-03-25T09:12:19.000Z</time>
</trkpt>
<trkpt lat="45.8595790" lon="9.3289930">
	<ele>1100.00</ele>
	<time>2024-03-25T09:12:20.000Z</time>
</trkpt>
<trkpt lat="45.8595730" lon="9.3289940">
	<ele>1099.80</ele>
	<time>2024-03-25T09:12:21.000Z</time>
</trkpt>
<trkpt lat="45.8595710" lon="9.3289930">
	<ele>1099.60</ele>
	<time>2024-03-25T09:12:22.000Z</time>
</trkpt>
<trkpt lat="45.8595660" lon="9.3289950">
	<ele>1099.60</ele>
	<time>2024-03-25T09:12:23.000Z</time>
</trkpt>
<trkpt lat="45.8595630" lon="9.3289990">
	<ele>1099.20</ele>
	<time>2024-03-25T09:12:24.000Z</time>
</trkpt>
<trkpt lat="45.8595620" lon="9.3290070">
	<ele>1099.00</ele>
	<time>2024-03-25T09:12:25.000Z</time>
</trkpt>
<trkpt lat="45.8595640" lon="9.3290150">
	<ele>1098.60</ele>
	<time>2024-03-25T09:12:26.000Z</time>
</trkpt>
<trkpt lat="45.8595620" lon="9.3290220">
	<ele>1098.20</ele>
	<time>2024-03-25T09:12:27.000Z</time>
</trkpt>
<trkpt lat="45.8595610" lon="9.3290260">
	<ele>1098.00</ele>
	<time>2024-03-25T09:12:28.000Z</time>
</trkpt>
<trkpt lat="45.8595570" lon="9.3290270">
	<ele>1097.60</ele>
	<time>2024-03-25T09:12:29.000Z</time>
</trkpt>
<trkpt lat="45.8595570" lon="9.3290330">
	<ele>1097.40</ele>
	<time>2024-03-25T09:12:30.000Z</time>
</trkpt>
<trkpt lat="45.8595470" lon="9.3290360">
	<ele>1097.20</ele>
	<time>2024-03-25T09:12:31.000Z</time>
</trkpt>
<trkpt lat="45.8595400" lon="9.3290370">
	<ele>1097.00</ele>
	<time>2024-03-25T09:12:32.000Z</time>
</trkpt>
<trkpt lat="45.8595270" lon="9.3290350">
	<ele>1096.80</ele>
	<time>2024-03-25T09:12:33.000Z</time>
</trkpt>
<trkpt lat="45.8595110" lon="9.3290310">
	<ele>1096.40</ele>
	<time>2024-03-25T09:12:34.000Z</time>
</trkpt>
<trkpt lat="45.8594990" lon="9.3290360">
	<ele>1096.20</ele>
	<time>2024-03-25T09:12:35.000Z</time>
</trkpt>
<trkpt lat="45.8594940" lon="9.3290400">
	<ele>1095.80</ele>
	<time>2024-03-25T09:12:36.000Z</time>
</trkpt>
<trkpt lat="45.8594890" lon="9.3290330">
	<ele>1095.60</ele>
	<time>2024-03-25T09:12:37.000Z</time>
</trkpt>
<trkpt lat="45.8594840" lon="9.3290290">
	<ele>1095.40</ele>
	<time>2024-03-25T09:12:38.000Z</time>
</trkpt>
<trkpt lat="45.8594830" lon="9.3290230">
	<ele>1095.20</ele>
	<time>2024-03-25T09:12:39.000Z</time>
</trkpt>
<trkpt lat="45.8594820" lon="9.3290160">
	<ele>1094.80</ele>
	<time>2024-03-25T09:12:40.000Z</time>
</trkpt>
<trkpt lat="45.8594760" lon="9.3290190">
	<ele>1094.40</ele>
	<time>2024-03-25T09:12:41.000Z</time>
</trkpt>
<trkpt lat="45.8594720" lon="9.3290170">
	<ele>1094.20</ele>
	<time>2024-03-25T09:12:42.000Z</time>
</trkpt>
<trkpt lat="45.8594690" lon="9.3290160">
	<ele>1094.20</ele>
	<time>2024-03-25T09:12:43.000Z</time>
</trkpt>
<trkpt lat="45.8594570" lon="9.3290140">
	<ele>1093.80</ele>
	<time>2024-03-25T09:12:44.000Z</time>
</trkpt>
<trkpt lat="45.8594460" lon="9.3290170">
	<ele>1093.60</ele>
	<time>2024-03-25T09:12:45.000Z</time>
</trkpt>
<trkpt lat="45.8594360" lon="9.3290240">
	<ele>1093.40</ele>
	<time>2024-03-25T09:12:46.000Z</time>
</trkpt>
<trkpt lat="45.8594250" lon="9.3290290">
	<ele>1093.00</ele>
	<time>2024-03-25T09:12:47.000Z</time>
</trkpt>
<trkpt lat="45.8594190" lon="9.3290270">
	<ele>1092.60</ele>
	<time>2024-03-25T09:12:48.000Z</time>
</trkpt>
<trkpt lat="45.8594130" lon="9.3290200">
	<ele>1092.40</ele>
	<time>2024-03-25T09:12:49.000Z</time>
</trkpt>
<trkpt lat="45.8594120" lon="9.3290180">
	<ele>1092.00</ele>
	<time>2024-03-25T09:12:50.000Z</time>
</trkpt>
<trkpt lat="45.8594120" lon="9.3290170">
	<ele>1091.80</ele>
	<time>2024-03-25T09:12:51.000Z</time>
</trkpt>
<trkpt lat="45.8594100" lon="9.3290180">
	<ele>1091.60</ele>
	<time>2024-03-25T09:12:52.000Z</time>
</trkpt>
<trkpt lat="45.8594090" lon="9.3290140">
	<ele>1091.40</ele>
	<time>2024-03-25T09:12:53.000Z</time>
</trkpt>
<trkpt lat="45.8594130" lon="9.3290160">
	<ele>1091.20</ele>
	<time>2024-03-25T09:12:54.000Z</time>
</trkpt>
<trkpt lat="45.8594100" lon="9.3290120">
	<ele>1091.00</ele>
	<time>2024-03-25T09:12:55.000Z</time>
</trkpt>
<trkpt lat="45.8594030" lon="9.3290030">
	<ele>1090.60</ele>
	<time>2024-03-25T09:12:56.000Z</time>
</trkpt>
<trkpt lat="45.8593950" lon="9.3289940">
	<ele>1090.20</ele>
	<time>2024-03-25T09:12:57.000Z</time>
</trkpt>
<trkpt lat="45.8593930" lon="9.3289910">
	<ele>1089.80</ele>
	<time>2024-03-25T09:12:58.000Z</time>
</trkpt>
<trkpt lat="45.8593920" lon="9.3289930">
	<ele>1089.60</ele>
	<time>2024-03-25T09:12:59.000Z</time>
</trkpt>
<trkpt lat="45.8593870" lon="9.3289900">
	<ele>1089.40</ele>
	<time>2024-03-25T09:13:00.000Z</time>
</trkpt>
<trkpt lat="45.8593730" lon="9.3289870">
	<ele>1089.20</ele>
	<time>2024-03-25T09:13:01.000Z</time>
</trkpt>
<trkpt lat="45.8593600" lon="9.3289840">
	<ele>1089.00</ele>
	<time>2024-03-25T09:13:02.000Z</time>
</trkpt>
<trkpt lat="45.8593470" lon="9.3289840">
	<ele>1088.60</ele>
	<time>2024-03-25T09:13:03.000Z</time>
</trkpt>
<trkpt lat="45.8593380" lon="9.3289810">
	<ele>1088.20</ele>
	<time>2024-03-25T09:13:04.000Z</time>
</trkpt>
<trkpt lat="45.8593320" lon="9.3289790">
	<ele>1087.80</ele>
	<time>2024-03-25T09:13:05.000Z</time>
</trkpt>
<trkpt lat="45.8593280" lon="9.3289740">
	<ele>1087.60</ele>
	<time>2024-03-25T09:13:06.000Z</time>
</trkpt>
<trkpt lat="45.8593230" lon="9.3289700">
	<ele>1087.40</ele>
	<time>2024-03-25T09:13:07.000Z</time>
</trkpt>
<trkpt lat="45.8593220" lon="9.3289680">
	<ele>1087.20</ele>
	<time>2024-03-25T09:13:08.000Z</time>
</trkpt>
<trkpt lat="45.8593170" lon="9.3289640">
	<ele>1087.00</ele>
	<time>2024-03-25T09:13:09.000Z</time>
</trkpt>
<trkpt lat="45.8593110" lon="9.3289610">
	<ele>1086.80</ele>
	<time>2024-03-25T09:13:10.000Z</time>
</trkpt>
<trkpt lat="45.8593030" lon="9.3289580">
	<ele>1086.40</ele>
	<time>2024-03-25T09:13:11.000Z</time>
</trkpt>
<trkpt lat="45.8592930" lon="9.3289600">
	<ele>1086.00</ele>
	<time>2024-03-25T09:13:12.000Z</time>
</trkpt>
<trkpt lat="45.8592860" lon="9.3289660">
	<ele>1085.80</ele>
	<time>2024-03-25T09:13:13.000Z</time>
</trkpt>
<trkpt lat="45.8592790" lon="9.3289780">
	<ele>1085.40</ele>
	<time>2024-03-25T09:13:14.000Z</time>
</trkpt>
<trkpt lat="45.8592730" lon="9.3289930">
	<ele>1085.20</ele>
	<time>2024-03-25T09:13:15.000Z</time>
</trkpt>
<trkpt lat="45.8592700" lon="9.3289990">
	<ele>1084.80</ele>
	<time>2024-03-25T09:13:16.000Z</time>
</trkpt>
<trkpt lat="45.8592660" lon="9.3289950">
	<ele>1084.60</ele>
	<time>2024-03-25T09:13:17.000Z</time>
</trkpt>
<trkpt lat="45.8592580" lon="9.3289930">
	<ele>1084.40</ele>
	<time>2024-03-25T09:13:18.000Z</time>
</trkpt>
<trkpt lat="45.8592550" lon="9.3289850">
	<ele>1084.00</ele>
	<time>2024-03-25T09:13:19.000Z</time>
</trkpt>
<trkpt lat="45.8592520" lon="9.3289710">
	<ele>1083.80</ele>
	<time>2024-03-25T09:13:20.000Z</time>
</trkpt>
<trkpt lat="45.8592480" lon="9.3289580">
	<ele>1083.40</ele>
	<time>2024-03-25T09:13:21.000Z</time>
</trkpt>
<trkpt lat="45.8592440" lon="9.3289480">
	<ele>1083.40</ele>
	<time>2024-03-25T09:13:22.000Z</time>
</trkpt>
<trkpt lat="45.8592370" lon="9.3289440">
	<ele>1083.20</ele>
	<time>2024-03-25T09:13:23.000Z</time>
</trkpt>
<trkpt lat="45.8592380" lon="9.3289400">
	<ele>1083.00</ele>
	<time>2024-03-25T09:13:24.000Z</time>
</trkpt>
<trkpt lat="45.8592380" lon="9.3289350">
	<ele>1082.80</ele>
	<time>2024-03-25T09:13:25.000Z</time>
</trkpt>
<trkpt lat="45.8592370" lon="9.3289350">
	<ele>1082.20</ele>
	<time>2024-03-25T09:13:26.000Z</time>
</trkpt>
<trkpt lat="45.8592370" lon="9.3289350">
	<ele>1081.80</ele>
	<time>2024-03-25T09:13:27.000Z</time>
</trkpt>
<trkpt lat="45.8592360" lon="9.3289360">
	<ele>1081.80</ele>
	<time>2024-03-25T09:13:28.000Z</time>
</trkpt>
<trkpt lat="45.8592160" lon="9.3289400">
	<ele>1081.60</ele>
	<time>2024-03-25T09:13:29.000Z</time>
</trkpt>
<trkpt lat="45.8592160" lon="9.3289370">
	<ele>1081.60</ele>
	<time>2024-03-25T09:13:30.000Z</time>
</trkpt>
<trkpt lat="45.8592140" lon="9.3289360">
	<ele>1081.60</ele>
	<time>2024-03-25T09:13:31.000Z</time>
</trkpt>
<trkpt lat="45.8592160" lon="9.3289340">
	<ele>1081.60</ele>
	<time>2024-03-25T09:13:32.000Z</time>
</trkpt>
<trkpt lat="45.8592180" lon="9.3289330">
	<ele>1081.60</ele>
	<time>2024-03-25T09:13:33.000Z</time>
</trkpt>
<trkpt lat="45.8592200" lon="9.3289330">
	<ele>1081.60</ele>
	<time>2024-03-25T09:13:34.000Z</time>
</trkpt>
<trkpt lat="45.8592220" lon="9.3289360">
	<ele>1081.60</ele>
	<time>2024-03-25T09:13:35.000Z</time>
</trkpt>
<trkpt lat="45.8592220" lon="9.3289350">
	<ele>1081.60</ele>
	<time>2024-03-25T09:13:36.000Z</time>
</trkpt>
<trkpt lat="45.8592230" lon="9.3289340">
	<ele>1081.60</ele>
	<time>2024-03-25T09:13:37.000Z</time>
</trkpt>
<trkpt lat="45.8592230" lon="9.3289310">
	<ele>1081.60</ele>
	<time>2024-03-25T09:13:38.000Z</time>
</trkpt>
<trkpt lat="45.8592210" lon="9.3289250">
	<ele>1081.60</ele>
	<time>2024-03-25T09:13:39.000Z</time>
</trkpt>
<trkpt lat="45.8592200" lon="9.3289240">
	<ele>1081.60</ele>
	<time>2024-03-25T09:13:40.000Z</time>
</trkpt>
<trkpt lat="45.8592170" lon="9.3289210">
	<ele>1081.60</ele>
	<time>2024-03-25T09:13:41.000Z</time>
</trkpt>
<trkpt lat="45.8592110" lon="9.3289170">
	<ele>1081.60</ele>
	<time>2024-03-25T09:13:42.000Z</time>
</trkpt>
<trkpt lat="45.8592090" lon="9.3289130">
	<ele>1081.60</ele>
	<time>2024-03-25T09:13:43.000Z</time>
</trkpt>
<trkpt lat="45.8592050" lon="9.3289070">
	<ele>1081.40</ele>
	<time>2024-03-25T09:13:44.000Z</time>
</trkpt>
<trkpt lat="45.8592010" lon="9.3289010">
	<ele>1081.40</ele>
	<time>2024-03-25T09:13:45.000Z</time>
</trkpt>
<trkpt lat="45.8591970" lon="9.3289010">
	<ele>1081.20</ele>
	<time>2024-03-25T09:13:46.000Z</time>
</trkpt>
<trkpt lat="45.8591920" lon="9.3289100">
	<ele>1081.00</ele>
	<time>2024-03-25T09:13:47.000Z</time>
</trkpt>
<trkpt lat="45.8591860" lon="9.3289220">
	<ele>1080.60</ele>
	<time>2024-03-25T09:13:48.000Z</time>
</trkpt>
<trkpt lat="45.8591870" lon="9.3289310">
	<ele>1080.60</ele>
	<time>2024-03-25T09:13:49.000Z</time>
</trkpt>
<trkpt lat="45.8591880" lon="9.3289420">
	<ele>1080.40</ele>
	<time>2024-03-25T09:13:50.000Z</time>
</trkpt>
<trkpt lat="45.8591880" lon="9.3289510">
	<ele>1080.40</ele>
	<time>2024-03-25T09:13:51.000Z</time>
</trkpt>
<trkpt lat="45.8591890" lon="9.3289600">
	<ele>1080.20</ele>
	<time>2024-03-25T09:13:52.000Z</time>
</trkpt>
<trkpt lat="45.8591870" lon="9.3289650">
	<ele>1080.00</ele>
	<time>2024-03-25T09:13:53.000Z</time>
</trkpt>
<trkpt lat="45.8591740" lon="9.3289660">
	<ele>1079.40</ele>
	<time>2024-03-25T09:13:54.000Z</time>
</trkpt>
<trkpt lat="45.8591690" lon="9.3289720">
	<ele>1079.20</ele>
	<time>2024-03-25T09:13:55.000Z</time>
</trkpt>
<trkpt lat="45.8591630" lon="9.3289800">
	<ele>1079.00</ele>
	<time>2024-03-25T09:13:56.000Z</time>
</trkpt>
<trkpt lat="45.8591570" lon="9.3289860">
	<ele>1078.60</ele>
	<time>2024-03-25T09:13:57.000Z</time>
</trkpt>
<trkpt lat="45.8591450" lon="9.3289930">
	<ele>1078.20</ele>
	<time>2024-03-25T09:13:58.000Z</time>
</trkpt>
<trkpt lat="45.8591350" lon="9.3289960">
	<ele>1077.80</ele>
	<time>2024-03-25T09:13:59.000Z</time>
</trkpt>
<trkpt lat="45.8591220" lon="9.3290030">
	<ele>1077.60</ele>
	<time>2024-03-25T09:14:00.000Z</time>
</trkpt>
<trkpt lat="45.8591180" lon="9.3290120">
	<ele>1077.20</ele>
	<time>2024-03-25T09:14:01.000Z</time>
</trkpt>
<trkpt lat="45.8591120" lon="9.3290240">
	<ele>1076.60</ele>
	<time>2024-03-25T09:14:02.000Z</time>
</trkpt>
<trkpt lat="45.8591110" lon="9.3290280">
	<ele>1076.40</ele>
	<time>2024-03-25T09:14:03.000Z</time>
</trkpt>
<trkpt lat="45.8591110" lon="9.3290320">
	<ele>1076.00</ele>
	<time>2024-03-25T09:14:04.000Z</time>
</trkpt>
<trkpt lat="45.8591110" lon="9.3290370">
	<ele>1075.80</ele>
	<time>2024-03-25T09:14:05.000Z</time>
</trkpt>
<trkpt lat="45.8591040" lon="9.3290440">
	<ele>1075.60</ele>
	<time>2024-03-25T09:14:06.000Z</time>
</trkpt>
<trkpt lat="45.8591000" lon="9.3290490">
	<ele>1075.60</ele>
	<time>2024-03-25T09:14:07.000Z</time>
</trkpt>
<trkpt lat="45.8590910" lon="9.3290540">
	<ele>1075.20</ele>
	<time>2024-03-25T09:14:08.000Z</time>
</trkpt>
<trkpt lat="45.8590880" lon="9.3290570">
	<ele>1075.00</ele>
	<time>2024-03-25T09:14:09.000Z</time>
</trkpt>
<trkpt lat="45.8590830" lon="9.3290570">
	<ele>1074.60</ele>
	<time>2024-03-25T09:14:10.000Z</time>
</trkpt>
<trkpt lat="45.8590650" lon="9.3290550">
	<ele>1074.20</ele>
	<time>2024-03-25T09:14:11.000Z</time>
</trkpt>
<trkpt lat="45.8590510" lon="9.3290580">
	<ele>1074.00</ele>
	<time>2024-03-25T09:14:12.000Z</time>
</trkpt>
<trkpt lat="45.8590450" lon="9.3290540">
	<ele>1073.80</ele>
	<time>2024-03-25T09:14:13.000Z</time>
</trkpt>
<trkpt lat="45.8590460" lon="9.3290430">
	<ele>1073.80</ele>
	<time>2024-03-25T09:14:14.000Z</time>
</trkpt>
<trkpt lat="45.8590410" lon="9.3290420">
	<ele>1073.60</ele>
	<time>2024-03-25T09:14:15.000Z</time>
</trkpt>
<trkpt lat="45.8590310" lon="9.3290390">
	<ele>1073.40</ele>
	<time>2024-03-25T09:14:16.000Z</time>
</trkpt>
<trkpt lat="45.8590190" lon="9.3290390">
	<ele>1073.20</ele>
	<time>2024-03-25T09:14:17.000Z</time>
</trkpt>
<trkpt lat="45.8590060" lon="9.3290410">
	<ele>1072.80</ele>
	<time>2024-03-25T09:14:18.000Z</time>
</trkpt>
<trkpt lat="45.8590030" lon="9.3290420">
	<ele>1072.40</ele>
	<time>2024-03-25T09:14:19.000Z</time>
</trkpt>
<trkpt lat="45.8590020" lon="9.3290400">
	<ele>1072.20</ele>
	<time>2024-03-25T09:14:20.000Z</time>
</trkpt>
<trkpt lat="45.8590040" lon="9.3290350">
	<ele>1072.00</ele>
	<time>2024-03-25T09:14:21.000Z</time>
</trkpt>
<trkpt lat="45.8589990" lon="9.3290250">
	<ele>1071.80</ele>
	<time>2024-03-25T09:14:22.000Z</time>
</trkpt>
<trkpt lat="45.8589900" lon="9.3290200">
	<ele>1071.60</ele>
	<time>2024-03-25T09:14:23.000Z</time>
</trkpt>
<trkpt lat="45.8589800" lon="9.3290160">
	<ele>1071.20</ele>
	<time>2024-03-25T09:14:24.000Z</time>
</trkpt>
<trkpt lat="45.8589710" lon="9.3290150">
	<ele>1070.80</ele>
	<time>2024-03-25T09:14:25.000Z</time>
</trkpt>
<trkpt lat="45.8589580" lon="9.3290170">
	<ele>1070.40</ele>
	<time>2024-03-25T09:14:26.000Z</time>
</trkpt>
<trkpt lat="45.8589460" lon="9.3290190">
	<ele>1070.00</ele>
	<time>2024-03-25T09:14:27.000Z</time>
</trkpt>
<trkpt lat="45.8589370" lon="9.3290210">
	<ele>1069.80</ele>
	<time>2024-03-25T09:14:28.000Z</time>
</trkpt>
<trkpt lat="45.8589280" lon="9.3290230">
	<ele>1069.60</ele>
	<time>2024-03-25T09:14:29.000Z</time>
</trkpt>
<trkpt lat="45.8589180" lon="9.3290240">
	<ele>1069.20</ele>
	<time>2024-03-25T09:14:30.000Z</time>
</trkpt>
<trkpt lat="45.8589110" lon="9.3290260">
	<ele>1069.00</ele>
	<time>2024-03-25T09:14:31.000Z</time>
</trkpt>
<trkpt lat="45.8589080" lon="9.3290280">
	<ele>1068.60</ele>
	<time>2024-03-25T09:14:32.000Z</time>
</trkpt>
<trkpt lat="45.8589030" lon="9.3290300">
	<ele>1068.40</ele>
	<time>2024-03-25T09:14:33.000Z</time>
</trkpt>
<trkpt lat="45.8588960" lon="9.3290310">
	<ele>1068.20</ele>
	<time>2024-03-25T09:14:34.000Z</time>
</trkpt>
<trkpt lat="45.8588890" lon="9.3290330">
	<ele>1067.80</ele>
	<time>2024-03-25T09:14:35.000Z</time>
</trkpt>
<trkpt lat="45.8588860" lon="9.3290370">
	<ele>1067.60</ele>
	<time>2024-03-25T09:14:36.000Z</time>
</trkpt>
<trkpt lat="45.8588850" lon="9.3290360">
	<ele>1067.40</ele>
	<time>2024-03-25T09:14:37.000Z</time>
</trkpt>
<trkpt lat="45.8588850" lon="9.3290310">
	<ele>1067.40</ele>
	<time>2024-03-25T09:14:38.000Z</time>
</trkpt>
<trkpt lat="45.8588810" lon="9.3290220">
	<ele>1067.00</ele>
	<time>2024-03-25T09:14:39.000Z</time>
</trkpt>
<trkpt lat="45.8588740" lon="9.3290140">
	<ele>1066.80</ele>
	<time>2024-03-25T09:14:40.000Z</time>
</trkpt>
<trkpt lat="45.8588620" lon="9.3290120">
	<ele>1066.60</ele>
	<time>2024-03-25T09:14:41.000Z</time>
</trkpt>
<trkpt lat="45.8588520" lon="9.3290140">
	<ele>1066.00</ele>
	<time>2024-03-25T09:14:42.000Z</time>
</trkpt>
<trkpt lat="45.8588420" lon="9.3290170">
	<ele>1065.80</ele>
	<time>2024-03-25T09:14:43.000Z</time>
</trkpt>
<trkpt lat="45.8588310" lon="9.3290230">
	<ele>1065.40</ele>
	<time>2024-03-25T09:14:44.000Z</time>
</trkpt>
<trkpt lat="45.8588240" lon="9.3290290">
	<ele>1065.00</ele>
	<time>2024-03-25T09:14:45.000Z</time>
</trkpt>
<trkpt lat="45.8588210" lon="9.3290330">
	<ele>1064.80</ele>
	<time>2024-03-25T09:14:46.000Z</time>
</trkpt>
<trkpt lat="45.8588200" lon="9.3290320">
	<ele>1064.60</ele>
	<time>2024-03-25T09:14:47.000Z</time>
</trkpt>
<trkpt lat="45.8588140" lon="9.3290280">
	<ele>1064.40</ele>
	<time>2024-03-25T09:14:48.000Z</time>
</trkpt>
<trkpt lat="45.8588110" lon="9.3290250">
	<ele>1064.40</ele>
	<time>2024-03-25T09:14:49.000Z</time>
</trkpt>
<trkpt lat="45.8588120" lon="9.3290180">
	<ele>1064.20</ele>
	<time>2024-03-25T09:14:50.000Z</time>
</trkpt>
<trkpt lat="45.8588140" lon="9.3290090">
	<ele>1064.00</ele>
	<time>2024-03-25T09:14:51.000Z</time>
</trkpt>
<trkpt lat="45.8588150" lon="9.3289980">
	<ele>1063.80</ele>
	<time>2024-03-25T09:14:52.000Z</time>
</trkpt>
<trkpt lat="45.8588160" lon="9.3289880">
	<ele>1063.60</ele>
	<time>2024-03-25T09:14:53.000Z</time>
</trkpt>
<trkpt lat="45.8588140" lon="9.3289830">
	<ele>1063.40</ele>
	<time>2024-03-25T09:14:54.000Z</time>
</trkpt>
<trkpt lat="45.8588160" lon="9.3289740">
	<ele>1063.40</ele>
	<time>2024-03-25T09:14:55.000Z</time>
</trkpt>
<trkpt lat="45.8588150" lon="9.3289660">
	<ele>1063.20</ele>
	<time>2024-03-25T09:14:56.000Z</time>
</trkpt>
<trkpt lat="45.8588120" lon="9.3289610">
	<ele>1062.80</ele>
	<time>2024-03-25T09:14:57.000Z</time>
</trkpt>
<trkpt lat="45.8588040" lon="9.3289550">
	<ele>1062.60</ele>
	<time>2024-03-25T09:14:58.000Z</time>
</trkpt>
<trkpt lat="45.8588000" lon="9.3289530">
	<ele>1062.40</ele>
	<time>2024-03-25T09:14:59.000Z</time>
</trkpt>
<trkpt lat="45.8587980" lon="9.3289520">
	<ele>1062.00</ele>
	<time>2024-03-25T09:15:00.000Z</time>
</trkpt>
<trkpt lat="45.8587880" lon="9.3289540">
	<ele>1061.60</ele>
	<time>2024-03-25T09:15:01.000Z</time>
</trkpt>
<trkpt lat="45.8587760" lon="9.3289530">
	<ele>1061.40</ele>
	<time>2024-03-25T09:15:02.000Z</time>
</trkpt>
<trkpt lat="45.8587630" lon="9.3289490">
	<ele>1061.20</ele>
	<time>2024-03-25T09:15:03.000Z</time>
</trkpt>
<trkpt lat="45.8587600" lon="9.3289420">
	<ele>1061.00</ele>
	<time>2024-03-25T09:15:04.000Z</time>
</trkpt>
<trkpt lat="45.8587630" lon="9.3289360">
	<ele>1060.80</ele>
	<time>2024-03-25T09:15:05.000Z</time>
</trkpt>
<trkpt lat="45.8587710" lon="9.3289270">
	<ele>1060.40</ele>
	<time>2024-03-25T09:15:06.000Z</time>
</trkpt>
<trkpt lat="45.8587780" lon="9.3289210">
	<ele>1060.20</ele>
	<time>2024-03-25T09:15:07.000Z</time>
</trkpt>
<trkpt lat="45.8587790" lon="9.3289190">
	<ele>1060.00</ele>
	<time>2024-03-25T09:15:08.000Z</time>
</trkpt>
<trkpt lat="45.8587790" lon="9.3289140">
	<ele>1059.80</ele>
	<time>2024-03-25T09:15:09.000Z</time>
</trkpt>
<trkpt lat="45.8587750" lon="9.3289140">
	<ele>1059.60</ele>
	<time>2024-03-25T09:15:10.000Z</time>
</trkpt>
<trkpt lat="45.8587730" lon="9.3289130">
	<ele>1059.40</ele>
	<time>2024-03-25T09:15:11.000Z</time>
</trkpt>
<trkpt lat="45.8587720" lon="9.3289130">
	<ele>1059.20</ele>
	<time>2024-03-25T09:15:12.000Z</time>
</trkpt>
<trkpt lat="45.8587680" lon="9.3289140">
	<ele>1059.00</ele>
	<time>2024-03-25T09:15:13.000Z</time>
</trkpt>
<trkpt lat="45.8587640" lon="9.3289130">
	<ele>1058.60</ele>
	<time>2024-03-25T09:15:14.000Z</time>
</trkpt>
<trkpt lat="45.8587630" lon="9.3289090">
	<ele>1058.60</ele>
	<time>2024-03-25T09:15:15.000Z</time>
</trkpt>
<trkpt lat="45.8587610" lon="9.3289010">
	<ele>1058.20</ele>
	<time>2024-03-25T09:15:16.000Z</time>
</trkpt>
<trkpt lat="45.8587560" lon="9.3288920">
	<ele>1058.00</ele>
	<time>2024-03-25T09:15:17.000Z</time>
</trkpt>
<trkpt lat="45.8587540" lon="9.3288770">
	<ele>1057.60</ele>
	<time>2024-03-25T09:15:18.000Z</time>
</trkpt>
<trkpt lat="45.8587510" lon="9.3288620">
	<ele>1057.40</ele>
	<time>2024-03-25T09:15:19.000Z</time>
</trkpt>
<trkpt lat="45.8587460" lon="9.3288560">
	<ele>1057.20</ele>
	<time>2024-03-25T09:15:20.000Z</time>
</trkpt>
<trkpt lat="45.8587370" lon="9.3288460">
	<ele>1057.00</ele>
	<time>2024-03-25T09:15:21.000Z</time>
</trkpt>
<trkpt lat="45.8587310" lon="9.3288400">
	<ele>1056.80</ele>
	<time>2024-03-25T09:15:22.000Z</time>
</trkpt>
<trkpt lat="45.8587250" lon="9.3288310">
	<ele>1056.60</ele>
	<time>2024-03-25T09:15:23.000Z</time>
</trkpt>
<trkpt lat="45.8587190" lon="9.3288270">
	<ele>1056.20</ele>
	<time>2024-03-25T09:15:24.000Z</time>
</trkpt>
<trkpt lat="45.8587170" lon="9.3288250">
	<ele>1056.00</ele>
	<time>2024-03-25T09:15:25.000Z</time>
</trkpt>
<trkpt lat="45.8587140" lon="9.3288260">
	<ele>1055.60</ele>
	<time>2024-03-25T09:15:26.000Z</time>
</trkpt>
<trkpt lat="45.8587100" lon="9.3288250">
	<ele>1055.20</ele>
	<time>2024-03-25T09:15:27.000Z</time>
</trkpt>
<trkpt lat="45.8587100" lon="9.3288230">
	<ele>1055.00</ele>
	<time>2024-03-25T09:15:28.000Z</time>
</trkpt>
<trkpt lat="45.8587060" lon="9.3288190">
	<ele>1054.80</ele>
	<time>2024-03-25T09:15:29.000Z</time>
</trkpt>
<trkpt lat="45.8586990" lon="9.3288170">
	<ele>1054.60</ele>
	<time>2024-03-25T09:15:30.000Z</time>
</trkpt>
<trkpt lat="45.8586970" lon="9.3288190">
	<ele>1054.40</ele>
	<time>2024-03-25T09:15:31.000Z</time>
</trkpt>
<trkpt lat="45.8586960" lon="9.3288220">
	<ele>1054.00</ele>
	<time>2024-03-25T09:15:32.000Z</time>
</trkpt>
<trkpt lat="45.8586960" lon="9.3288250">
	<ele>1053.60</ele>
	<time>2024-03-25T09:15:33.000Z</time>
</trkpt>
<trkpt lat="45.8586890" lon="9.3288270">
	<ele>1053.20</ele>
	<time>2024-03-25T09:15:34.000Z</time>
</trkpt>
<trkpt lat="45.8586820" lon="9.3288330">
	<ele>1053.00</ele>
	<time>2024-03-25T09:15:35.000Z</time>
</trkpt>
<trkpt lat="45.8586730" lon="9.3288380">
	<ele>1052.80</ele>
	<time>2024-03-25T09:15:36.000Z</time>
</trkpt>
<trkpt lat="45.8586650" lon="9.3288420">
	<ele>1052.60</ele>
	<time>2024-03-25T09:15:37.000Z</time>
</trkpt>
<trkpt lat="45.8586580" lon="9.3288420">
	<ele>1052.40</ele>
	<time>2024-03-25T09:15:38.000Z</time>
</trkpt>
<trkpt lat="45.8586500" lon="9.3288460">
	<ele>1052.00</ele>
	<time>2024-03-25T09:15:39.000Z</time>
</trkpt>
<trkpt lat="45.8586390" lon="9.3288480">
	<ele>1051.80</ele>
	<time>2024-03-25T09:15:40.000Z</time>
</trkpt>
<trkpt lat="45.8586310" lon="9.3288470">
	<ele>1051.60</ele>
	<time>2024-03-25T09:15:41.000Z</time>
</trkpt>
<trkpt lat="45.8586250" lon="9.3288420">
	<ele>1051.40</ele>
	<time>2024-03-25T09:15:42.000Z</time>
</trkpt>
<trkpt lat="45.8586220" lon="9.3288400">
	<ele>1051.40</ele>
	<time>2024-03-25T09:15:43.000Z</time>
</trkpt>
<trkpt lat="45.8586210" lon="9.3288320">
	<ele>1051.40</ele>
	<time>2024-03-25T09:15:44.000Z</time>
</trkpt>
<trkpt lat="45.8586200" lon="9.3288250">
	<ele>1050.80</ele>
	<time>2024-03-25T09:15:45.000Z</time>
</trkpt>
<trkpt lat="45.8586260" lon="9.3288140">
	<ele>1050.60</ele>
	<time>2024-03-25T09:15:46.000Z</time>
</trkpt>
<trkpt lat="45.8586270" lon="9.3288010">
	<ele>1050.40</ele>
	<time>2024-03-25T09:15:47.000Z</time>
</trkpt>
<trkpt lat="45.8586280" lon="9.3287930">
	<ele>1050.00</ele>
	<time>2024-03-25T09:15:48.000Z</time>
</trkpt>
<trkpt lat="45.8586220" lon="9.3287860">
	<ele>1049.80</ele>
	<time>2024-03-25T09:15:49.000Z</time>
</trkpt>
<trkpt lat="45.8586160" lon="9.3287870">
	<ele>1049.60</ele>
	<time>2024-03-25T09:15:50.000Z</time>
</trkpt>
<trkpt lat="45.8586080" lon="9.3287870">
	<ele>1049.40</ele>
	<time>2024-03-25T09:15:51.000Z</time>
</trkpt>
<trkpt lat="45.8586050" lon="9.3287870">
	<ele>1049.00</ele>
	<time>2024-03-25T09:15:52.000Z</time>
</trkpt>
<trkpt lat="45.8586060" lon="9.3287840">
	<ele>1048.80</ele>
	<time>2024-03-25T09:15:53.000Z</time>
</trkpt>
<trkpt lat="45.8586070" lon="9.3287830">
	<ele>1048.60</ele>
	<time>2024-03-25T09:15:54.000Z</time>
</trkpt>
<trkpt lat="45.8586070" lon="9.3287790">
	<ele>1048.40</ele>
	<time>2024-03-25T09:15:55.000Z</time>
</trkpt>
<trkpt lat="45.8586090" lon="9.3287700">
	<ele>1048.20</ele>
	<time>2024-03-25T09:15:56.000Z</time>
</trkpt>
<trkpt lat="45.8586060" lon="9.3287590">
	<ele>1048.00</ele>
	<time>2024-03-25T09:15:57.000Z</time>
</trkpt>
<trkpt lat="45.8586050" lon="9.3287480">
	<ele>1047.80</ele>
	<time>2024-03-25T09:15:58.000Z</time>
</trkpt>
<trkpt lat="45.8586020" lon="9.3287410">
	<ele>1047.40</ele>
	<time>2024-03-25T09:15:59.000Z</time>
</trkpt>
<trkpt lat="45.8585970" lon="9.3287370">
	<ele>1047.00</ele>
	<time>2024-03-25T09:16:00.000Z</time>
</trkpt>
<trkpt lat="45.8585900" lon="9.3287290">
	<ele>1046.60</ele>
	<time>2024-03-25T09:16:01.000Z</time>
</trkpt>
<trkpt lat="45.8585820" lon="9.3287210">
	<ele>1046.60</ele>
	<time>2024-03-25T09:16:02.000Z</time>
</trkpt>
<trkpt lat="45.8585800" lon="9.3287200">
	<ele>1046.00</ele>
	<time>2024-03-25T09:16:03.000Z</time>
</trkpt>
<trkpt lat="45.8585730" lon="9.3287160">
	<ele>1045.80</ele>
	<time>2024-03-25T09:16:04.000Z</time>
</trkpt>
<trkpt lat="45.8585680" lon="9.3287170">
	<ele>1045.40</ele>
	<time>2024-03-25T09:16:05.000Z</time>
</trkpt>
<trkpt lat="45.8585660" lon="9.3287170">
	<ele>1045.20</ele>
	<time>2024-03-25T09:16:06.000Z</time>
</trkpt>
<trkpt lat="45.8585610" lon="9.3287120">
	<ele>1044.80</ele>
	<time>2024-03-25T09:16:07.000Z</time>
</trkpt>
<trkpt lat="45.8585530" lon="9.3287070">
	<ele>1044.80</ele>
	<time>2024-03-25T09:16:08.000Z</time>
</trkpt>
<trkpt lat="45.8585480" lon="9.3287070">
	<ele>1044.60</ele>
	<time>2024-03-25T09:16:09.000Z</time>
</trkpt>
<trkpt lat="45.8585380" lon="9.3287090">
	<ele>1044.20</ele>
	<time>2024-03-25T09:16:10.000Z</time>
</trkpt>
<trkpt lat="45.8585360" lon="9.3287090">
	<ele>1044.00</ele>
	<time>2024-03-25T09:16:11.000Z</time>
</trkpt>
<trkpt lat="45.8585360" lon="9.3287060">
	<ele>1043.80</ele>
	<time>2024-03-25T09:16:12.000Z</time>
</trkpt>
<trkpt lat="45.8585310" lon="9.3287020">
	<ele>1043.40</ele>
	<time>2024-03-25T09:16:13.000Z</time>
</trkpt>
<trkpt lat="45.8585290" lon="9.3286980">
	<ele>1043.20</ele>
	<time>2024-03-25T09:16:14.000Z</time>
</trkpt>
<trkpt lat="45.8585250" lon="9.3286880">
	<ele>1043.00</ele>
	<time>2024-03-25T09:16:15.000Z</time>
</trkpt>
<trkpt lat="45.8585230" lon="9.3286560">
	<ele>1042.80</ele>
	<time>2024-03-25T09:16:16.000Z</time>
</trkpt>
<trkpt lat="45.8585280" lon="9.3286350">
	<ele>1042.60</ele>
	<time>2024-03-25T09:16:17.000Z</time>
</trkpt>
<trkpt lat="45.8585210" lon="9.3286180">
	<ele>1042.60</ele>
	<time>2024-03-25T09:16:18.000Z</time>
</trkpt>
<trkpt lat="45.8585170" lon="9.3286130">
	<ele>1042.20</ele>
	<time>2024-03-25T09:16:19.000Z</time>
</trkpt>
<trkpt lat="45.8585070" lon="9.3286120">
	<ele>1042.00</ele>
	<time>2024-03-25T09:16:20.000Z</time>
</trkpt>
<trkpt lat="45.8584980" lon="9.3286070">
	<ele>1041.60</ele>
	<time>2024-03-25T09:16:21.000Z</time>
</trkpt>
<trkpt lat="45.8584850" lon="9.3286000">
	<ele>1041.40</ele>
	<time>2024-03-25T09:16:22.000Z</time>
</trkpt>
<trkpt lat="45.8584800" lon="9.3285980">
	<ele>1041.00</ele>
	<time>2024-03-25T09:16:23.000Z</time>
</trkpt>
<trkpt lat="45.8584720" lon="9.3285910">
	<ele>1040.60</ele>
	<time>2024-03-25T09:16:24.000Z</time>
</trkpt>
<trkpt lat="45.8584620" lon="9.3285850">
	<ele>1040.40</ele>
	<time>2024-03-25T09:16:25.000Z</time>
</trkpt>
<trkpt lat="45.8584600" lon="9.3285860">
	<ele>1040.00</ele>
	<time>2024-03-25T09:16:26.000Z</time>
</trkpt>
<trkpt lat="45.8584570" lon="9.3285870">
	<ele>1039.80</ele>
	<time>2024-03-25T09:16:27.000Z</time>
</trkpt>
<trkpt lat="45.8584500" lon="9.3285820">
	<ele>1039.60</ele>
	<time>2024-03-25T09:16:28.000Z</time>
</trkpt>
<trkpt lat="45.8584360" lon="9.3285780">
	<ele>1039.40</ele>
	<time>2024-03-25T09:16:29.000Z</time>
</trkpt>
<trkpt lat="45.8584250" lon="9.3285730">
	<ele>1039.00</ele>
	<time>2024-03-25T09:16:30.000Z</time>
</trkpt>
<trkpt lat="45.8584250" lon="9.3285780">
	<ele>1038.80</ele>
	<time>2024-03-25T09:16:31.000Z</time>
</trkpt>
<trkpt lat="45.8584240" lon="9.3285800">
	<ele>1038.80</ele>
	<time>2024-03-25T09:16:32.000Z</time>
</trkpt>
<trkpt lat="45.8584220" lon="9.3285830">
	<ele>1038.40</ele>
	<time>2024-03-25T09:16:33.000Z</time>
</trkpt>
<trkpt lat="45.8584200" lon="9.3285830">
	<ele>1038.00</ele>
	<time>2024-03-25T09:16:34.000Z</time>
</trkpt>
<trkpt lat="45.8583930" lon="9.3285770">
	<ele>1037.80</ele>
	<time>2024-03-25T09:16:35.000Z</time>
</trkpt>
<trkpt lat="45.8583880" lon="9.3285770">
	<ele>1037.60</ele>
	<time>2024-03-25T09:16:36.000Z</time>
</trkpt>
<trkpt lat="45.8583810" lon="9.3285900">
	<ele>1037.40</ele>
	<time>2024-03-25T09:16:37.000Z</time>
</trkpt>
<trkpt lat="45.8583780" lon="9.3285920">
	<ele>1037.20</ele>
	<time>2024-03-25T09:16:38.000Z</time>
</trkpt>
<trkpt lat="45.8583680" lon="9.3286030">
	<ele>1037.00</ele>
	<time>2024-03-25T09:16:39.000Z</time>
</trkpt>
<trkpt lat="45.8583610" lon="9.3286130">
	<ele>1036.80</ele>
	<time>2024-03-25T09:16:40.000Z</time>
</trkpt>
<trkpt lat="45.8583430" lon="9.3286110">
	<ele>1036.60</ele>
	<time>2024-03-25T09:16:41.000Z</time>
</trkpt>
<trkpt lat="45.8583360" lon="9.3286080">
	<ele>1036.20</ele>
	<time>2024-03-25T09:16:42.000Z</time>
</trkpt>
<trkpt lat="45.8583330" lon="9.3286070">
	<ele>1035.80</ele>
	<time>2024-03-25T09:16:43.000Z</time>
</trkpt>
<trkpt lat="45.8583290" lon="9.3286150">
	<ele>1035.60</ele>
	<time>2024-03-25T09:16:44.000Z</time>
</trkpt>
<trkpt lat="45.8583250" lon="9.3286170">
	<ele>1035.40</ele>
	<time>2024-03-25T09:16:45.000Z</time>
</trkpt>
<trkpt lat="45.8583220" lon="9.3286210">
	<ele>1035.20</ele>
	<time>2024-03-25T09:16:46.000Z</time>
</trkpt>
<trkpt lat="45.8583200" lon="9.3286260">
	<ele>1035.00</ele>
	<time>2024-03-25T09:16:47.000Z</time>
</trkpt>
<trkpt lat="45.8583220" lon="9.3286260">
	<ele>1034.80</ele>
	<time>2024-03-25T09:16:48.000Z</time>
</trkpt>
<trkpt lat="45.8583210" lon="9.3286280">
	<ele>1034.80</ele>
	<time>2024-03-25T09:16:49.000Z</time>
</trkpt>
<trkpt lat="45.8583210" lon="9.3286170">
	<ele>1034.60</ele>
	<time>2024-03-25T09:16:50.000Z</time>
</trkpt>
<trkpt lat="45.8583160" lon="9.3286080">
	<ele>1034.40</ele>
	<time>2024-03-25T09:16:51.000Z</time>
</trkpt>
<trkpt lat="45.8583120" lon="9.3286090">
	<ele>1034.20</ele>
	<time>2024-03-25T09:16:52.000Z</time>
</trkpt>
<trkpt lat="45.8583090" lon="9.3286120">
	<ele>1034.20</ele>
	<time>2024-03-25T09:16:53.000Z</time>
</trkpt>
<trkpt lat="45.8583060" lon="9.3286130">
	<ele>1033.80</ele>
	<time>2024-03-25T09:16:54.000Z</time>
</trkpt>
<trkpt lat="45.8583040" lon="9.3286130">
	<ele>1033.60</ele>
	<time>2024-03-25T09:16:55.000Z</time>
</trkpt>
<trkpt lat="45.8582970" lon="9.3286090">
	<ele>1033.40</ele>
	<time>2024-03-25T09:16:56.000Z</time>
</trkpt>
<trkpt lat="45.8582880" lon="9.3286090">
	<ele>1032.80</ele>
	<time>2024-03-25T09:16:57.000Z</time>
</trkpt>
<trkpt lat="45.8582790" lon="9.3286100">
	<ele>1032.60</ele>
	<time>2024-03-25T09:16:58.000Z</time>
</trkpt>
<trkpt lat="45.8582740" lon="9.3286170">
	<ele>1032.20</ele>
	<time>2024-03-25T09:16:59.000Z</time>
</trkpt>
<trkpt lat="45.8582630" lon="9.3286210">
	<ele>1032.00</ele>
	<time>2024-03-25T09:17:00.000Z</time>
</trkpt>
<trkpt lat="45.8582580" lon="9.3286250">
	<ele>1031.80</ele>
	<time>2024-03-25T09:17:01.000Z</time>
</trkpt>
<trkpt lat="45.8582560" lon="9.3286270">
	<ele>1031.60</ele>
	<time>2024-03-25T09:17:02.000Z</time>
</trkpt>
<trkpt lat="45.8582550" lon="9.3286230">
	<ele>1031.40</ele>
	<time>2024-03-25T09:17:03.000Z</time>
</trkpt>
<trkpt lat="45.8582520" lon="9.3286230">
	<ele>1031.20</ele>
	<time>2024-03-25T09:17:04.000Z</time>
</trkpt>
<trkpt lat="45.8582500" lon="9.3286260">
	<ele>1031.00</ele>
	<time>2024-03-25T09:17:05.000Z</time>
</trkpt>
<trkpt lat="45.8582460" lon="9.3286270">
	<ele>1030.80</ele>
	<time>2024-03-25T09:17:06.000Z</time>
</trkpt>
<trkpt lat="45.8582460" lon="9.3286280">
	<ele>1030.80</ele>
	<time>2024-03-25T09:17:07.000Z</time>
</trkpt>
<trkpt lat="45.8582390" lon="9.3286260">
	<ele>1030.60</ele>
	<time>2024-03-25T09:17:08.000Z</time>
</trkpt>
<trkpt lat="45.8582300" lon="9.3286230">
	<ele>1030.60</ele>
	<time>2024-03-25T09:17:09.000Z</time>
</trkpt>
<trkpt lat="45.8582300" lon="9.3286210">
	<ele>1030.20</ele>
	<time>2024-03-25T09:17:10.000Z</time>
</trkpt>
<trkpt lat="45.8582260" lon="9.3286200">
	<ele>1029.80</ele>
	<time>2024-03-25T09:17:11.000Z</time>
</trkpt>
<trkpt lat="45.8582180" lon="9.3286170">
	<ele>1029.60</ele>
	<time>2024-03-25T09:17:12.000Z</time>
</trkpt>
<trkpt lat="45.8582140" lon="9.3286040">
	<ele>1029.40</ele>
	<time>2024-03-25T09:17:13.000Z</time>
</trkpt>
<trkpt lat="45.8582150" lon="9.3285900">
	<ele>1029.20</ele>
	<time>2024-03-25T09:17:14.000Z</time>
</trkpt>
<trkpt lat="45.8582140" lon="9.3285770">
	<ele>1029.00</ele>
	<time>2024-03-25T09:17:15.000Z</time>
</trkpt>
<trkpt lat="45.8582140" lon="9.3285710">
	<ele>1028.60</ele>
	<time>2024-03-25T09:17:16.000Z</time>
</trkpt>
<trkpt lat="45.8582130" lon="9.3285640">
	<ele>1028.40</ele>
	<time>2024-03-25T09:17:17.000Z</time>
</trkpt>
<trkpt lat="45.8582070" lon="9.3285560">
	<ele>1028.40</ele>
	<time>2024-03-25T09:17:18.000Z</time>
</trkpt>
<trkpt lat="45.8582010" lon="9.3285500">
	<ele>1028.20</ele>
	<time>2024-03-25T09:17:19.000Z</time>
</trkpt>
<trkpt lat="45.8581960" lon="9.3285440">
	<ele>1028.00</ele>
	<time>2024-03-25T09:17:20.000Z</time>
</trkpt>
<trkpt lat="45.8581900" lon="9.3285360">
	<ele>1027.60</ele>
	<time>2024-03-25T09:17:21.000Z</time>
</trkpt>
<trkpt lat="45.8581880" lon="9.3285340">
	<ele>1027.40</ele>
	<time>2024-03-25T09:17:22.000Z</time>
</trkpt>
<trkpt lat="45.8581880" lon="9.3285260">
	<ele>1027.00</ele>
	<time>2024-03-25T09:17:23.000Z</time>
</trkpt>
<trkpt lat="45.8581830" lon="9.3285210">
	<ele>1026.80</ele>
	<time>2024-03-25T09:17:24.000Z</time>
</trkpt>
<trkpt lat="45.8581810" lon="9.3285170">
	<ele>1026.40</ele>
	<time>2024-03-25T09:17:25.000Z</time>
</trkpt>
<trkpt lat="45.8581770" lon="9.3285060">
	<ele>1026.20</ele>
	<time>2024-03-25T09:17:26.000Z</time>
</trkpt>
<trkpt lat="45.8581670" lon="9.3284980">
	<ele>1026.00</ele>
	<time>2024-03-25T09:17:27.000Z</time>
</trkpt>
<trkpt lat="45.8581570" lon="9.3284900">
	<ele>1025.60</ele>
	<time>2024-03-25T09:17:28.000Z</time>
</trkpt>
<trkpt lat="45.8581460" lon="9.3284850">
	<ele>1025.60</ele>
	<time>2024-03-25T09:17:29.000Z</time>
</trkpt>
<trkpt lat="45.8581440" lon="9.3284830">
	<ele>1025.40</ele>
	<time>2024-03-25T09:17:30.000Z</time>
</trkpt>
<trkpt lat="45.8581360" lon="9.3284750">
	<ele>1025.00</ele>
	<time>2024-03-25T09:17:31.000Z</time>
</trkpt>
<trkpt lat="45.8581330" lon="9.3284720">
	<ele>1024.60</ele>
	<time>2024-03-25T09:17:32.000Z</time>
</trkpt>
<trkpt lat="45.8581290" lon="9.3284670">
	<ele>1024.40</ele>
	<time>2024-03-25T09:17:33.000Z</time>
</trkpt>
<trkpt lat="45.8581260" lon="9.3284640">
	<ele>1024.20</ele>
	<time>2024-03-25T09:17:34.000Z</time>
</trkpt>
<trkpt lat="45.8581230" lon="9.3284610">
	<ele>1024.00</ele>
	<time>2024-03-25T09:17:35.000Z</time>
</trkpt>
<trkpt lat="45.8581220" lon="9.3284530">
	<ele>1023.80</ele>
	<time>2024-03-25T09:17:36.000Z</time>
</trkpt>
<trkpt lat="45.8581170" lon="9.3284450">
	<ele>1023.60</ele>
	<time>2024-03-25T09:17:37.000Z</time>
</trkpt>
<trkpt lat="45.8581120" lon="9.3284480">
	<ele>1023.20</ele>
	<time>2024-03-25T09:17:38.000Z</time>
</trkpt>
<trkpt lat="45.8581070" lon="9.3284420">
	<ele>1022.80</ele>
	<time>2024-03-25T09:17:39.000Z</time>
</trkpt>
<trkpt lat="45.8581010" lon="9.3284460">
	<ele>1022.60</ele>
	<time>2024-03-25T09:17:40.000Z</time>
</trkpt>
<trkpt lat="45.8580990" lon="9.3284510">
	<ele>1022.40</ele>
	<time>2024-03-25T09:17:41.000Z</time>
</trkpt>
<trkpt lat="45.8580940" lon="9.3284550">
	<ele>1022.00</ele>
	<time>2024-03-25T09:17:42.000Z</time>
</trkpt>
<trkpt lat="45.8580900" lon="9.3284570">
	<ele>1021.80</ele>
	<time>2024-03-25T09:17:43.000Z</time>
</trkpt>
<trkpt lat="45.8580870" lon="9.3284590">
	<ele>1021.40</ele>
	<time>2024-03-25T09:17:44.000Z</time>
</trkpt>
<trkpt lat="45.8580790" lon="9.3284590">
	<ele>1021.20</ele>
	<time>2024-03-25T09:17:45.000Z</time>
</trkpt>
<trkpt lat="45.8580780" lon="9.3284620">
	<ele>1021.00</ele>
	<time>2024-03-25T09:17:46.000Z</time>
</trkpt>
<trkpt lat="45.8580760" lon="9.3284610">
	<ele>1020.80</ele>
	<time>2024-03-25T09:17:47.000Z</time>
</trkpt>
<trkpt lat="45.8580740" lon="9.3284590">
	<ele>1020.80</ele>
	<time>2024-03-25T09:17:48.000Z</time>
</trkpt>
<trkpt lat="45.8580730" lon="9.3284570">
	<ele>1020.60</ele>
	<time>2024-03-25T09:17:49.000Z</time>
</trkpt>
<trkpt lat="45.8580700" lon="9.3284540">
	<ele>1020.40</ele>
	<time>2024-03-25T09:17:50.000Z</time>
</trkpt>
<trkpt lat="45.8580600" lon="9.3284500">
	<ele>1020.40</ele>
	<time>2024-03-25T09:17:51.000Z</time>
</trkpt>
<trkpt lat="45.8580550" lon="9.3284460">
	<ele>1020.00</ele>
	<time>2024-03-25T09:17:52.000Z</time>
</trkpt>
<trkpt lat="45.8580470" lon="9.3284470">
	<ele>1019.60</ele>
	<time>2024-03-25T09:17:53.000Z</time>
</trkpt>
<trkpt lat="45.8580400" lon="9.3284480">
	<ele>1019.40</ele>
	<time>2024-03-25T09:17:54.000Z</time>
</trkpt>
<trkpt lat="45.8580360" lon="9.3284500">
	<ele>1019.20</ele>
	<time>2024-03-25T09:17:55.000Z</time>
</trkpt>
<trkpt lat="45.8580340" lon="9.3284470">
	<ele>1019.00</ele>
	<time>2024-03-25T09:17:56.000Z</time>
</trkpt>
<trkpt lat="45.8580280" lon="9.3284420">
	<ele>1018.80</ele>
	<time>2024-03-25T09:17:57.000Z</time>
</trkpt>
<trkpt lat="45.8580270" lon="9.3284360">
	<ele>1018.60</ele>
	<time>2024-03-25T09:17:58.000Z</time>
</trkpt>
<trkpt lat="45.8580290" lon="9.3284300">
	<ele>1018.20</ele>
	<time>2024-03-25T09:17:59.000Z</time>
</trkpt>
<trkpt lat="45.8580280" lon="9.3284270">
	<ele>1017.80</ele>
	<time>2024-03-25T09:18:00.000Z</time>
</trkpt>
<trkpt lat="45.8580260" lon="9.3284240">
	<ele>1017.60</ele>
	<time>2024-03-25T09:18:01.000Z</time>
</trkpt>
<trkpt lat="45.8580250" lon="9.3284190">
	<ele>1017.40</ele>
	<time>2024-03-25T09:18:02.000Z</time>
</trkpt>
<trkpt lat="45.8580180" lon="9.3284170">
	<ele>1017.40</ele>
	<time>2024-03-25T09:18:03.000Z</time>
</trkpt>
<trkpt lat="45.8580140" lon="9.3284160">
	<ele>1017.20</ele>
	<time>2024-03-25T09:18:04.000Z</time>
</trkpt>
<trkpt lat="45.8580170" lon="9.3284180">
	<ele>1017.00</ele>
	<time>2024-03-25T09:18:05.000Z</time>
</trkpt>
<trkpt lat="45.8580180" lon="9.3284180">
	<ele>1016.60</ele>
	<time>2024-03-25T09:18:06.000Z</time>
</trkpt>
<trkpt lat="45.8580110" lon="9.3284150">
	<ele>1016.60</ele>
	<time>2024-03-25T09:18:07.000Z</time>
</trkpt>
<trkpt lat="45.8580090" lon="9.3284180">
	<ele>1016.20</ele>
	<time>2024-03-25T09:18:08.000Z</time>
</trkpt>
<trkpt lat="45.8580050" lon="9.3284220">
	<ele>1015.80</ele>
	<time>2024-03-25T09:18:09.000Z</time>
</trkpt>
<trkpt lat="45.8580010" lon="9.3284290">
	<ele>1015.60</ele>
	<time>2024-03-25T09:18:10.000Z</time>
</trkpt>
<trkpt lat="45.8580000" lon="9.3284330">
	<ele>1015.40</ele>
	<time>2024-03-25T09:18:11.000Z</time>
</trkpt>
<trkpt lat="45.8579990" lon="9.3284370">
	<ele>1015.20</ele>
	<time>2024-03-25T09:18:12.000Z</time>
</trkpt>
<trkpt lat="45.8580000" lon="9.3284400">
	<ele>1015.00</ele>
	<time>2024-03-25T09:18:13.000Z</time>
</trkpt>
<trkpt lat="45.8580010" lon="9.3284410">
	<ele>1014.80</ele>
	<time>2024-03-25T09:18:14.000Z</time>
</trkpt>
<trkpt lat="45.8580020" lon="9.3284400">
	<ele>1014.80</ele>
	<time>2024-03-25T09:18:15.000Z</time>
</trkpt>
<trkpt lat="45.8580020" lon="9.3284420">
	<ele>1014.80</ele>
	<time>2024-03-25T09:18:16.000Z</time>
</trkpt>
<trkpt lat="45.8580030" lon="9.3284160">
	<ele>1014.80</ele>
	<time>2024-03-25T09:18:17.000Z</time>
</trkpt>
<trkpt lat="45.8580060" lon="9.3284110">
	<ele>1014.80</ele>
	<time>2024-03-25T09:18:18.000Z</time>
</trkpt>
<trkpt lat="45.8580090" lon="9.3284090">
	<ele>1014.80</ele>
	<time>2024-03-25T09:18:19.000Z</time>
</trkpt>
<trkpt lat="45.8580000" lon="9.3284020">
	<ele>1014.80</ele>
	<time>2024-03-25T09:18:20.000Z</time>
</trkpt>
<trkpt lat="45.8579890" lon="9.3284010">
	<ele>1014.60</ele>
	<time>2024-03-25T09:18:21.000Z</time>
</trkpt>
<trkpt lat="45.8579850" lon="9.3284070">
	<ele>1014.40</ele>
	<time>2024-03-25T09:18:22.000Z</time>
</trkpt>
<trkpt lat="45.8579750" lon="9.3284090">
	<ele>1014.20</ele>
	<time>2024-03-25T09:18:23.000Z</time>
</trkpt>
<trkpt lat="45.8579710" lon="9.3284120">
	<ele>1014.00</ele>
	<time>2024-03-25T09:18:24.000Z</time>
</trkpt>
<trkpt lat="45.8579630" lon="9.3284150">
	<ele>1013.80</ele>
	<time>2024-03-25T09:18:25.000Z</time>
</trkpt>
<trkpt lat="45.8579530" lon="9.3284160">
	<ele>1013.60</ele>
	<time>2024-03-25T09:18:26.000Z</time>
</trkpt>
<trkpt lat="45.8579420" lon="9.3284170">
	<ele>1013.40</ele>
	<time>2024-03-25T09:18:27.000Z</time>
</trkpt>
<trkpt lat="45.8579350" lon="9.3284210">
	<ele>1013.20</ele>
	<time>2024-03-25T09:18:28.000Z</time>
</trkpt>
<trkpt lat="45.8579310" lon="9.3284280">
	<ele>1013.00</ele>
	<time>2024-03-25T09:18:29.000Z</time>
</trkpt>
<trkpt lat="45.8579260" lon="9.3284390">
	<ele>1012.80</ele>
	<time>2024-03-25T09:18:30.000Z</time>
</trkpt>
<trkpt lat="45.8579250" lon="9.3284450">
	<ele>1012.60</ele>
	<time>2024-03-25T09:18:31.000Z</time>
</trkpt>
<trkpt lat="45.8579200" lon="9.3284470">
	<ele>1012.40</ele>
	<time>2024-03-25T09:18:32.000Z</time>
</trkpt>
<trkpt lat="45.8579130" lon="9.3284470">
	<ele>1012.20</ele>
	<time>2024-03-25T09:18:33.000Z</time>
</trkpt>
<trkpt lat="45.8579060" lon="9.3284430">
	<ele>1012.00</ele>
	<time>2024-03-25T09:18:34.000Z</time>
</trkpt>
<trkpt lat="45.8579010" lon="9.3284430">
	<ele>1012.00</ele>
	<time>2024-03-25T09:18:35.000Z</time>
</trkpt>
<trkpt lat="45.8578970" lon="9.3284450">
	<ele>1011.80</ele>
	<time>2024-03-25T09:18:36.000Z</time>
</trkpt>
<trkpt lat="45.8578900" lon="9.3284520">
	<ele>1011.60</ele>
	<time>2024-03-25T09:18:37.000Z</time>
</trkpt>
<trkpt lat="45.8578870" lon="9.3284620">
	<ele>1011.40</ele>
	<time>2024-03-25T09:18:38.000Z</time>
</trkpt>
<trkpt lat="45.8578860" lon="9.3284690">
	<ele>1011.20</ele>
	<time>2024-03-25T09:18:39.000Z</time>
</trkpt>
<trkpt lat="45.8578860" lon="9.3284750">
	<ele>1011.00</ele>
	<time>2024-03-25T09:18:40.000Z</time>
</trkpt>
<trkpt lat="45.8578780" lon="9.3284820">
	<ele>1010.80</ele>
	<time>2024-03-25T09:18:41.000Z</time>
</trkpt>
<trkpt lat="45.8578680" lon="9.3284860">
	<ele>1010.80</ele>
	<time>2024-03-25T09:18:42.000Z</time>
</trkpt>
<trkpt lat="45.8578670" lon="9.3284920">
	<ele>1010.60</ele>
	<time>2024-03-25T09:18:43.000Z</time>
</trkpt>
<trkpt lat="45.8578580" lon="9.3284970">
	<ele>1010.40</ele>
	<time>2024-03-25T09:18:44.000Z</time>
</trkpt>
<trkpt lat="45.8578460" lon="9.3285050">
	<ele>1010.20</ele>
	<time>2024-03-25T09:18:45.000Z</time>
</trkpt>
<trkpt lat="45.8578370" lon="9.3285160">
	<ele>1010.00</ele>
	<time>2024-03-25T09:18:46.000Z</time>
</trkpt>
<trkpt lat="45.8578330" lon="9.3285210">
	<ele>1010.00</ele>
	<time>2024-03-25T09:18:47.000Z</time>
</trkpt>
<trkpt lat="45.8578250" lon="9.3285450">
	<ele>1009.80</ele>
	<time>2024-03-25T09:18:48.000Z</time>
</trkpt>
<trkpt lat="45.8578240" lon="9.3285490">
	<ele>1009.80</ele>
	<time>2024-03-25T09:18:49.000Z</time>
</trkpt>
<trkpt lat="45.8578280" lon="9.3285690">
	<ele>1009.80</ele>
	<time>2024-03-25T09:18:50.000Z</time>
</trkpt>
<trkpt lat="45.8578400" lon="9.3285830">
	<ele>1009.80</ele>
	<time>2024-03-25T09:18:51.000Z</time>
</trkpt>
<trkpt lat="45.8578410" lon="9.3285830">
	<ele>1009.80</ele>
	<time>2024-03-25T09:18:52.000Z</time>
</trkpt>
<trkpt lat="45.8578440" lon="9.3285810">
	<ele>1010.00</ele>
	<time>2024-03-25T09:18:53.000Z</time>
</trkpt>
<trkpt lat="45.8578450" lon="9.3285770">
	<ele>1010.00</ele>
	<time>2024-03-25T09:18:54.000Z</time>
</trkpt>
<trkpt lat="45.8578450" lon="9.3285700">
	<ele>1010.00</ele>
	<time>2024-03-25T09:18:55.000Z</time>
</trkpt>
<trkpt lat="45.8578390" lon="9.3285640">
	<ele>1010.00</ele>
	<time>2024-03-25T09:18:56.000Z</time>
</trkpt>
<trkpt lat="45.8578340" lon="9.3285520">
	<ele>1010.00</ele>
	<time>2024-03-25T09:18:57.000Z</time>
</trkpt>
<trkpt lat="45.8578320" lon="9.3285460">
	<ele>1010.00</ele>
	<time>2024-03-25T09:18:58.000Z</time>
</trkpt>
<trkpt lat="45.8578290" lon="9.3285450">
	<ele>1010.00</ele>
	<time>2024-03-25T09:18:59.000Z</time>
</trkpt>
<trkpt lat="45.8578270" lon="9.3285440">
	<ele>1010.00</ele>
	<time>2024-03-25T09:19:00.000Z</time>
</trkpt>
<trkpt lat="45.8578260" lon="9.3285440">
	<ele>1010.00</ele>
	<time>2024-03-25T09:19:01.000Z</time>
</trkpt>
<trkpt lat="45.8578250" lon="9.3285420">
	<ele>1010.00</ele>
	<time>2024-03-25T09:19:02.000Z</time>
</trkpt>
<trkpt lat="45.8578260" lon="9.3285410">
	<ele>1010.00</ele>
	<time>2024-03-25T09:19:03.000Z</time>
</trkpt>
<trkpt lat="45.8578270" lon="9.3285390">
	<ele>1010.20</ele>
	<time>2024-03-25T09:19:04.000Z</time>
</trkpt>
<trkpt lat="45.8578290" lon="9.3285400">
	<ele>1010.40</ele>
	<time>2024-03-25T09:19:05.000Z</time>
</trkpt>
<trkpt lat="45.8578300" lon="9.3285390">
	<ele>1010.40</ele>
	<time>2024-03-25T09:19:06.000Z</time>
</trkpt>
<trkpt lat="45.8578300" lon="9.3285390">
	<ele>1010.40</ele>
	<time>2024-03-25T09:19:07.000Z</time>
</trkpt>
<trkpt lat="45.8578310" lon="9.3285390">
	<ele>1010.40</ele>
	<time>2024-03-25T09:19:08.000Z</time>
</trkpt>
<trkpt lat="45.8578310" lon="9.3285430">
	<ele>1010.60</ele>
	<time>2024-03-25T09:19:09.000Z</time>
</trkpt>
<trkpt lat="45.8578310" lon="9.3285450">
	<ele>1010.40</ele>
	<time>2024-03-25T09:19:10.000Z</time>
</trkpt>
<trkpt lat="45.8578320" lon="9.3285470">
	<ele>1010.40</ele>
	<time>2024-03-25T09:19:11.000Z</time>
</trkpt>
<trkpt lat="45.8578340" lon="9.3285460">
	<ele>1010.40</ele>
	<time>2024-03-25T09:19:12.000Z</time>
</trkpt>
<trkpt lat="45.8578330" lon="9.3285430">
	<ele>1010.40</ele>
	<time>2024-03-25T09:19:13.000Z</time>
</trkpt>
<trkpt lat="45.8578270" lon="9.3285410">
	<ele>1010.40</ele>
	<time>2024-03-25T09:19:14.000Z</time>
</trkpt>
<trkpt lat="45.8578250" lon="9.3285410">
	<ele>1010.40</ele>
	<time>2024-03-25T09:19:15.000Z</time>
</trkpt>
<trkpt lat="45.8578250" lon="9.3285370">
	<ele>1010.40</ele>
	<time>2024-03-25T09:19:16.000Z</time>
</trkpt>
<trkpt lat="45.8578210" lon="9.3285340">
	<ele>1010.40</ele>
	<time>2024-03-25T09:19:17.000Z</time>
</trkpt>
<trkpt lat="45.8578200" lon="9.3285350">
	<ele>1010.20</ele>
	<time>2024-03-25T09:19:18.000Z</time>
</trkpt>
<trkpt lat="45.8578180" lon="9.3285370">
	<ele>1010.20</ele>
	<time>2024-03-25T09:19:19.000Z</time>
</trkpt>
<trkpt lat="45.8578190" lon="9.3285410">
	<ele>1010.20</ele>
	<time>2024-03-25T09:19:20.000Z</time>
</trkpt>
<trkpt lat="45.8578180" lon="9.3285440">
	<ele>1010.40</ele>
	<time>2024-03-25T09:19:21.000Z</time>
</trkpt>
<trkpt lat="45.8578180" lon="9.3285480">
	<ele>1010.40</ele>
	<time>2024-03-25T09:19:22.000Z</time>
</trkpt>
<trkpt lat="45.8578190" lon="9.3285600">
	<ele>1010.40</ele>
	<time>2024-03-25T09:19:23.000Z</time>
</trkpt>
<trkpt lat="45.8578210" lon="9.3285650">
	<ele>1010.40</ele>
	<time>2024-03-25T09:19:24.000Z</time>
</trkpt>
<trkpt lat="45.8578200" lon="9.3285660">
	<ele>1010.40</ele>
	<time>2024-03-25T09:19:25.000Z</time>
</trkpt>
<trkpt lat="45.8578250" lon="9.3285650">
	<ele>1010.40</ele>
	<time>2024-03-25T09:19:26.000Z</time>
</trkpt>
<trkpt lat="45.8578270" lon="9.3285730">
	<ele>1010.40</ele>
	<time>2024-03-25T09:19:27.000Z</time>
</trkpt>
<trkpt lat="45.8578250" lon="9.3285760">
	<ele>1010.40</ele>
	<time>2024-03-25T09:19:28.000Z</time>
</trkpt>
<trkpt lat="45.8578300" lon="9.3285740">
	<ele>1010.60</ele>
	<time>2024-03-25T09:19:29.000Z</time>
</trkpt>
<trkpt lat="45.8578310" lon="9.3285700">
	<ele>1010.60</ele>
	<time>2024-03-25T09:19:30.000Z</time>
</trkpt>
<trkpt lat="45.8578320" lon="9.3285710">
	<ele>1010.60</ele>
	<time>2024-03-25T09:19:31.000Z</time>
</trkpt>
<trkpt lat="45.8578330" lon="9.3285710">
	<ele>1010.40</ele>
	<time>2024-03-25T09:19:32.000Z</time>
</trkpt>
<trkpt lat="45.8578320" lon="9.3285710">
	<ele>1010.40</ele>
	<time>2024-03-25T09:19:33.000Z</time>
</trkpt>
<trkpt lat="45.8578320" lon="9.3285720">
	<ele>1010.40</ele>
	<time>2024-03-25T09:19:34.000Z</time>
</trkpt>
<trkpt lat="45.8578310" lon="9.3285750">
	<ele>1010.20</ele>
	<time>2024-03-25T09:19:35.000Z</time>
</trkpt>
<trkpt lat="45.8578310" lon="9.3285760">
	<ele>1010.20</ele>
	<time>2024-03-25T09:19:36.000Z</time>
</trkpt>
<trkpt lat="45.8578320" lon="9.3285780">
	<ele>1010.00</ele>
	<time>2024-03-25T09:19:37.000Z</time>
</trkpt>
<trkpt lat="45.8578320" lon="9.3285770">
	<ele>1010.00</ele>
	<time>2024-03-25T09:19:38.000Z</time>
</trkpt>
<trkpt lat="45.8578320" lon="9.3285770">
	<ele>1010.00</ele>
	<time>2024-03-25T09:19:39.000Z</time>
</trkpt>
<trkpt lat="45.8578320" lon="9.3285770">
	<ele>1010.00</ele>
	<time>2024-03-25T09:19:40.000Z</time>
</trkpt>
<trkpt lat="45.8578320" lon="9.3285770">
	<ele>1010.00</ele>
	<time>2024-03-25T09:19:41.000Z</time>
</trkpt>
<trkpt lat="45.8578320" lon="9.3285770">
	<ele>1010.00</ele>
	<time>2024-03-25T09:19:42.000Z</time>
</trkpt>
<trkpt lat="45.8578320" lon="9.3285770">
	<ele>1010.00</ele>
	<time>2024-03-25T09:19:43.000Z</time>
</trkpt>
<trkpt lat="45.8578320" lon="9.3285770">
	<ele>1010.00</ele>
	<time>2024-03-25T09:19:44.000Z</time>
</trkpt>
<trkpt lat="45.8578320" lon="9.3285770">
	<ele>1010.00</ele>
	<time>2024-03-25T09:19:45.000Z</time>
</trkpt>
<trkpt lat="45.8578320" lon="9.3285770">
	<ele>1010.00</ele>
	<time>2024-03-25T09:19:46.000Z</time>
</trkpt>
<trkpt lat="45.8578320" lon="9.3285760">
	<ele>1010.00</ele>
	<time>2024-03-25T09:19:47.000Z</time>
</trkpt>
<trkpt lat="45.8578320" lon="9.3285750">
	<ele>1010.00</ele>
	<time>2024-03-25T09:19:48.000Z</time>
</trkpt>
<trkpt lat="45.8578320" lon="9.3285740">
	<ele>1010.00</ele>
	<time>2024-03-25T09:19:49.000Z</time>
</trkpt>
<trkpt lat="45.8578320" lon="9.3285730">
	<ele>1010.00</ele>
	<time>2024-03-25T09:19:50.000Z</time>
</trkpt>
<trkpt lat="45.8578310" lon="9.3285730">
	<ele>1010.00</ele>
	<time>2024-03-25T09:19:51.000Z</time>
</trkpt>
<trkpt lat="45.8578310" lon="9.3285720">
	<ele>1010.00</ele>
	<time>2024-03-25T09:19:52.000Z</time>
</trkpt>
<trkpt lat="45.8578310" lon="9.3285720">
	<ele>1009.80</ele>
	<time>2024-03-25T09:19:53.000Z</time>
</trkpt>
<trkpt lat="45.8578310" lon="9.3285710">
	<ele>1009.80</ele>
	<time>2024-03-25T09:19:54.000Z</time>
</trkpt>
<trkpt lat="45.8578290" lon="9.3285710">
	<ele>1009.80</ele>
	<time>2024-03-25T09:19:55.000Z</time>
</trkpt>
<trkpt lat="45.8578290" lon="9.3285710">
	<ele>1009.80</ele>
	<time>2024-03-25T09:19:56.000Z</time>
</trkpt>
<trkpt lat="45.8578280" lon="9.3285710">
	<ele>1009.80</ele>
	<time>2024-03-25T09:19:57.000Z</time>
</trkpt>
<trkpt lat="45.8578270" lon="9.3285710">
	<ele>1009.80</ele>
	<time>2024-03-25T09:19:58.000Z</time>
</trkpt>
<trkpt lat="45.8578260" lon="9.3285710">
	<ele>1009.80</ele>
	<time>2024-03-25T09:19:59.000Z</time>
</trkpt>
<trkpt lat="45.8578260" lon="9.3285710">
	<ele>1010.00</ele>
	<time>2024-03-25T09:20:00.000Z</time>
</trkpt>
<trkpt lat="45.8578260" lon="9.3285710">
	<ele>1009.80</ele>
	<time>2024-03-25T09:20:01.000Z</time>
</trkpt>
<trkpt lat="45.8578250" lon="9.3285710">
	<ele>1009.80</ele>
	<time>2024-03-25T09:20:02.000Z</time>
</trkpt>
<trkpt lat="45.8578250" lon="9.3285710">
	<ele>1009.60</ele>
	<time>2024-03-25T09:20:03.000Z</time>
</trkpt>
<trkpt lat="45.8578240" lon="9.3285700">
	<ele>1009.60</ele>
	<time>2024-03-25T09:20:04.000Z</time>
</trkpt>
<trkpt lat="45.8578230" lon="9.3285700">
	<ele>1009.40</ele>
	<time>2024-03-25T09:20:05.000Z</time>
</trkpt>
<trkpt lat="45.8578210" lon="9.3285690">
	<ele>1009.40</ele>
	<time>2024-03-25T09:20:06.000Z</time>
</trkpt>
<trkpt lat="45.8578110" lon="9.3285690">
	<ele>1009.40</ele>
	<time>2024-03-25T09:20:07.000Z</time>
</trkpt>
<trkpt lat="45.8578090" lon="9.3285680">
	<ele>1009.40</ele>
	<time>2024-03-25T09:20:08.000Z</time>
</trkpt>
<trkpt lat="45.8578090" lon="9.3285670">
	<ele>1009.40</ele>
	<time>2024-03-25T09:20:09.000Z</time>
</trkpt>
<trkpt lat="45.8578090" lon="9.3285670">
	<ele>1009.40</ele>
	<time>2024-03-25T09:20:10.000Z</time>
</trkpt>
<trkpt lat="45.8578080" lon="9.3285660">
	<ele>1009.40</ele>
	<time>2024-03-25T09:20:11.000Z</time>
</trkpt>
<trkpt lat="45.8578080" lon="9.3285650">
	<ele>1009.40</ele>
	<time>2024-03-25T09:20:12.000Z</time>
</trkpt>
<trkpt lat="45.8578080" lon="9.3285650">
	<ele>1009.40</ele>
	<time>2024-03-25T09:20:13.000Z</time>
</trkpt>
<trkpt lat="45.8578080" lon="9.3285620">
	<ele>1009.60</ele>
	<time>2024-03-25T09:20:14.000Z</time>
</trkpt>
<trkpt lat="45.8578080" lon="9.3285610">
	<ele>1009.60</ele>
	<time>2024-03-25T09:20:15.000Z</time>
</trkpt>
<trkpt lat="45.8578060" lon="9.3285600">
	<ele>1009.40</ele>
	<time>2024-03-25T09:20:16.000Z</time>
</trkpt>
<trkpt lat="45.8578060" lon="9.3285600">
	<ele>1009.40</ele>
	<time>2024-03-25T09:20:17.000Z</time>
</trkpt>
<trkpt lat="45.8578050" lon="9.3285600">
	<ele>1009.40</ele>
	<time>2024-03-25T09:20:18.000Z</time>
</trkpt>
<trkpt lat="45.8578050" lon="9.3285600">
	<ele>1009.40</ele>
	<time>2024-03-25T09:20:19.000Z</time>
</trkpt>
<trkpt lat="45.8578040" lon="9.3285600">
	<ele>1009.40</ele>
	<time>2024-03-25T09:20:20.000Z</time>
</trkpt>
<trkpt lat="45.8578030" lon="9.3285590">
	<ele>1009.40</ele>
	<time>2024-03-25T09:20:21.000Z</time>
</trkpt>
<trkpt lat="45.8578030" lon="9.3285590">
	<ele>1009.40</ele>
	<time>2024-03-25T09:20:22.000Z</time>
</trkpt>
<trkpt lat="45.8578020" lon="9.3285580">
	<ele>1009.40</ele>
	<time>2024-03-25T09:20:23.000Z</time>
</trkpt>
<trkpt lat="45.8578020" lon="9.3285580">
	<ele>1009.40</ele>
	<time>2024-03-25T09:20:24.000Z</time>
</trkpt>
<trkpt lat="45.8577970" lon="9.3285580">
	<ele>1009.20</ele>
	<time>2024-03-25T09:20:25.000Z</time>
</trkpt>
<trkpt lat="45.8577940" lon="9.3285580">
	<ele>1009.20</ele>
	<time>2024-03-25T09:20:26.000Z</time>
</trkpt>
<trkpt lat="45.8577930" lon="9.3285570">
	<ele>1009.20</ele>
	<time>2024-03-25T09:20:27.000Z</time>
</trkpt>
<trkpt lat="45.8577920" lon="9.3285570">
	<ele>1009.20</ele>
	<time>2024-03-25T09:20:28.000Z</time>
</trkpt>
<trkpt lat="45.8577920" lon="9.3285570">
	<ele>1009.20</ele>
	<time>2024-03-25T09:20:29.000Z</time>
</trkpt>
<trkpt lat="45.8577910" lon="9.3285570">
	<ele>1009.00</ele>
	<time>2024-03-25T09:20:30.000Z</time>
</trkpt>
<trkpt lat="45.8577900" lon="9.3285570">
	<ele>1009.00</ele>
	<time>2024-03-25T09:20:31.000Z</time>
</trkpt>
<trkpt lat="45.8577900" lon="9.3285560">
	<ele>1009.00</ele>
	<time>2024-03-25T09:20:32.000Z</time>
</trkpt>
<trkpt lat="45.8577900" lon="9.3285560">
	<ele>1009.00</ele>
	<time>2024-03-25T09:20:33.000Z</time>
</trkpt>
<trkpt lat="45.8577900" lon="9.3285560">
	<ele>1009.00</ele>
	<time>2024-03-25T09:20:34.000Z</time>
</trkpt>
<trkpt lat="45.8577900" lon="9.3285560">
	<ele>1009.00</ele>
	<time>2024-03-25T09:20:35.000Z</time>
</trkpt>
<trkpt lat="45.8577900" lon="9.3285550">
	<ele>1009.00</ele>
	<time>2024-03-25T09:20:36.000Z</time>
</trkpt>
<trkpt lat="45.8577890" lon="9.3285540">
	<ele>1009.00</ele>
	<time>2024-03-25T09:20:37.000Z</time>
</trkpt>
<trkpt lat="45.8577890" lon="9.3285520">
	<ele>1009.00</ele>
	<time>2024-03-25T09:20:38.000Z</time>
</trkpt>
<trkpt lat="45.8577880" lon="9.3285500">
	<ele>1009.00</ele>
	<time>2024-03-25T09:20:39.000Z</time>
</trkpt>
<trkpt lat="45.8577880" lon="9.3285490">
	<ele>1009.00</ele>
	<time>2024-03-25T09:20:40.000Z</time>
</trkpt>
<trkpt lat="45.8577880" lon="9.3285470">
	<ele>1009.20</ele>
	<time>2024-03-25T09:20:41.000Z</time>
</trkpt>
<trkpt lat="45.8577880" lon="9.3285450">
	<ele>1009.20</ele>
	<time>2024-03-25T09:20:42.000Z</time>
</trkpt>
<trkpt lat="45.8577880" lon="9.3285430">
	<ele>1009.20</ele>
	<time>2024-03-25T09:20:43.000Z</time>
</trkpt>
<trkpt lat="45.8577870" lon="9.3285430">
	<ele>1009.00</ele>
	<time>2024-03-25T09:20:44.000Z</time>
</trkpt>
<trkpt lat="45.8577870" lon="9.3285420">
	<ele>1009.00</ele>
	<time>2024-03-25T09:20:45.000Z</time>
</trkpt>
<trkpt lat="45.8577870" lon="9.3285420">
	<ele>1009.00</ele>
	<time>2024-03-25T09:20:46.000Z</time>
</trkpt>
<trkpt lat="45.8577860" lon="9.3285420">
	<ele>1008.80</ele>
	<time>2024-03-25T09:20:47.000Z</time>
</trkpt>
<trkpt lat="45.8577860" lon="9.3285420">
	<ele>1008.80</ele>
	<time>2024-03-25T09:20:48.000Z</time>
</trkpt>
<trkpt lat="45.8577850" lon="9.3285420">
	<ele>1008.80</ele>
	<time>2024-03-25T09:20:49.000Z</time>
</trkpt>
<trkpt lat="45.8577850" lon="9.3285420">
	<ele>1009.00</ele>
	<time>2024-03-25T09:20:50.000Z</time>
</trkpt>
<trkpt lat="45.8577850" lon="9.3285420">
	<ele>1009.00</ele>
	<time>2024-03-25T09:20:51.000Z</time>
</trkpt>
<trkpt lat="45.8577840" lon="9.3285420">
	<ele>1009.00</ele>
	<time>2024-03-25T09:20:52.000Z</time>
</trkpt>
<trkpt lat="45.8577820" lon="9.3285420">
	<ele>1008.80</ele>
	<time>2024-03-25T09:20:53.000Z</time>
</trkpt>
<trkpt lat="45.8577800" lon="9.3285420">
	<ele>1008.80</ele>
	<time>2024-03-25T09:20:54.000Z</time>
</trkpt>
<trkpt lat="45.8577790" lon="9.3285410">
	<ele>1009.00</ele>
	<time>2024-03-25T09:20:55.000Z</time>
</trkpt>
<trkpt lat="45.8577790" lon="9.3285410">
	<ele>1009.00</ele>
	<time>2024-03-25T09:20:56.000Z</time>
</trkpt>
<trkpt lat="45.8577790" lon="9.3285410">
	<ele>1009.00</ele>
	<time>2024-03-25T09:20:57.000Z</time>
</trkpt>
<trkpt lat="45.8577780" lon="9.3285410">
	<ele>1009.00</ele>
	<time>2024-03-25T09:20:58.000Z</time>
</trkpt>
<trkpt lat="45.8577780" lon="9.3285400">
	<ele>1009.00</ele>
	<time>2024-03-25T09:20:59.000Z</time>
</trkpt>
<trkpt lat="45.8577780" lon="9.3285400">
	<ele>1009.00</ele>
	<time>2024-03-25T09:21:00.000Z</time>
</trkpt>
<trkpt lat="45.8577780" lon="9.3285400">
	<ele>1009.00</ele>
	<time>2024-03-25T09:21:01.000Z</time>
</trkpt>
<trkpt lat="45.8577780" lon="9.3285400">
	<ele>1009.00</ele>
	<time>2024-03-25T09:21:02.000Z</time>
</trkpt>
<trkpt lat="45.8577780" lon="9.3285400">
	<ele>1009.00</ele>
	<time>2024-03-25T09:21:03.000Z</time>
</trkpt>
<trkpt lat="45.8577780" lon="9.3285400">
	<ele>1009.00</ele>
	<time>2024-03-25T09:21:04.000Z</time>
</trkpt>
<trkpt lat="45.8577780" lon="9.3285400">
	<ele>1009.00</ele>
	<time>2024-03-25T09:21:05.000Z</time>
</trkpt>
<trkpt lat="45.8577780" lon="9.3285390">
	<ele>1009.00</ele>
	<time>2024-03-25T09:21:06.000Z</time>
</trkpt>
<trkpt lat="45.8577780" lon="9.3285390">
	<ele>1009.00</ele>
	<time>2024-03-25T09:21:07.000Z</time>
</trkpt>
<trkpt lat="45.8577780" lon="9.3285380">
	<ele>1009.00</ele>
	<time>2024-03-25T09:21:08.000Z</time>
</trkpt>
<trkpt lat="45.8577790" lon="9.3285370">
	<ele>1009.00</ele>
	<time>2024-03-25T09:21:09.000Z</time>
</trkpt>
<trkpt lat="45.8577790" lon="9.3285360">
	<ele>1008.80</ele>
	<time>2024-03-25T09:21:10.000Z</time>
</trkpt>
<trkpt lat="45.8577800" lon="9.3285350">
	<ele>1008.80</ele>
	<time>2024-03-25T09:21:11.000Z</time>
</trkpt>
<trkpt lat="45.8577820" lon="9.3285340">
	<ele>1008.80</ele>
	<time>2024-03-25T09:21:12.000Z</time>
</trkpt>
<trkpt lat="45.8577830" lon="9.3285340">
	<ele>1008.80</ele>
	<time>2024-03-25T09:21:13.000Z</time>
</trkpt>
<trkpt lat="45.8577850" lon="9.3285340">
	<ele>1008.80</ele>
	<time>2024-03-25T09:21:14.000Z</time>
</trkpt>
<trkpt lat="45.8577860" lon="9.3285330">
	<ele>1008.80</ele>
	<time>2024-03-25T09:21:15.000Z</time>
</trkpt>
<trkpt lat="45.8577870" lon="9.3285330">
	<ele>1008.80</ele>
	<time>2024-03-25T09:21:16.000Z</time>
</trkpt>
<trkpt lat="45.8577880" lon="9.3285330">
	<ele>1008.80</ele>
	<time>2024-03-25T09:21:17.000Z</time>
</trkpt>
<trkpt lat="45.8577890" lon="9.3285330">
	<ele>1008.80</ele>
	<time>2024-03-25T09:21:18.000Z</time>
</trkpt>
<trkpt lat="45.8577890" lon="9.3285330">
	<ele>1008.80</ele>
	<time>2024-03-25T09:21:19.000Z</time>
</trkpt>
<trkpt lat="45.8577900" lon="9.3285330">
	<ele>1008.80</ele>
	<time>2024-03-25T09:21:20.000Z</time>
</trkpt>
<trkpt lat="45.8577900" lon="9.3285320">
	<ele>1008.80</ele>
	<time>2024-03-25T09:21:21.000Z</time>
</trkpt>
<trkpt lat="45.8577900" lon="9.3285320">
	<ele>1009.00</ele>
	<time>2024-03-25T09:21:22.000Z</time>
</trkpt>
<trkpt lat="45.8577910" lon="9.3285320">
	<ele>1009.00</ele>
	<time>2024-03-25T09:21:23.000Z</time>
</trkpt>
<trkpt lat="45.8577910" lon="9.3285320">
	<ele>1009.00</ele>
	<time>2024-03-25T09:21:24.000Z</time>
</trkpt>
<trkpt lat="45.8577910" lon="9.3285310">
	<ele>1009.00</ele>
	<time>2024-03-25T09:21:25.000Z</time>
</trkpt>
<trkpt lat="45.8577910" lon="9.3285300">
	<ele>1009.00</ele>
	<time>2024-03-25T09:21:26.000Z</time>
</trkpt>
<trkpt lat="45.8577910" lon="9.3285300">
	<ele>1009.00</ele>
	<time>2024-03-25T09:21:27.000Z</time>
</trkpt>
<trkpt lat="45.8577910" lon="9.3285300">
	<ele>1009.20</ele>
	<time>2024-03-25T09:21:28.000Z</time>
</trkpt>
<trkpt lat="45.8577920" lon="9.3285290">
	<ele>1009.40</ele>
	<time>2024-03-25T09:21:29.000Z</time>
</trkpt>
<trkpt lat="45.8577920" lon="9.3285290">
	<ele>1009.60</ele>
	<time>2024-03-25T09:21:30.000Z</time>
</trkpt>
<trkpt lat="45.8577920" lon="9.3285290">
	<ele>1009.60</ele>
	<time>2024-03-25T09:21:31.000Z</time>
</trkpt>
<trkpt lat="45.8577920" lon="9.3285290">
	<ele>1009.60</ele>
	<time>2024-03-25T09:21:32.000Z</time>
</trkpt>
<trkpt lat="45.8577920" lon="9.3285280">
	<ele>1009.60</ele>
	<time>2024-03-25T09:21:33.000Z</time>
</trkpt>
<trkpt lat="45.8577920" lon="9.3285280">
	<ele>1009.60</ele>
	<time>2024-03-25T09:21:34.000Z</time>
</trkpt>
<trkpt lat="45.8577920" lon="9.3285280">
	<ele>1009.40</ele>
	<time>2024-03-25T09:21:35.000Z</time>
</trkpt>
<trkpt lat="45.8577920" lon="9.3285270">
	<ele>1009.20</ele>
	<time>2024-03-25T09:21:36.000Z</time>
</trkpt>
<trkpt lat="45.8577920" lon="9.3285270">
	<ele>1009.00</ele>
	<time>2024-03-25T09:21:37.000Z</time>
</trkpt>
<trkpt lat="45.8577920" lon="9.3285270">
	<ele>1009.00</ele>
	<time>2024-03-25T09:21:38.000Z</time>
</trkpt>
<trkpt lat="45.8577920" lon="9.3285270">
	<ele>1009.00</ele>
	<time>2024-03-25T09:21:39.000Z</time>
</trkpt>
<trkpt lat="45.8577930" lon="9.3285270">
	<ele>1009.00</ele>
	<time>2024-03-25T09:21:40.000Z</time>
</trkpt>
<trkpt lat="45.8577930" lon="9.3285270">
	<ele>1009.00</ele>
	<time>2024-03-25T09:21:41.000Z</time>
</trkpt>
<trkpt lat="45.8577930" lon="9.3285260">
	<ele>1009.00</ele>
	<time>2024-03-25T09:21:42.000Z</time>
</trkpt>
<trkpt lat="45.8577930" lon="9.3285260">
	<ele>1009.00</ele>
	<time>2024-03-25T09:21:43.000Z</time>
</trkpt>
<trkpt lat="45.8577930" lon="9.3285260">
	<ele>1009.00</ele>
	<time>2024-03-25T09:21:44.000Z</time>
</trkpt>
<trkpt lat="45.8577930" lon="9.3285250">
	<ele>1009.00</ele>
	<time>2024-03-25T09:21:45.000Z</time>
</trkpt>
<trkpt lat="45.8577930" lon="9.3285240">
	<ele>1009.00</ele>
	<time>2024-03-25T09:21:46.000Z</time>
</trkpt>
<trkpt lat="45.8577940" lon="9.3285230">
	<ele>1009.00</ele>
	<time>2024-03-25T09:21:47.000Z</time>
</trkpt>
<trkpt lat="45.8577970" lon="9.3285210">
	<ele>1009.00</ele>
	<time>2024-03-25T09:21:48.000Z</time>
</trkpt>
<trkpt lat="45.8577990" lon="9.3285200">
	<ele>1009.00</ele>
	<time>2024-03-25T09:21:49.000Z</time>
</trkpt>
<trkpt lat="45.8578010" lon="9.3285180">
	<ele>1009.00</ele>
	<time>2024-03-25T09:21:50.000Z</time>
</trkpt>
<trkpt lat="45.8578020" lon="9.3285180">
	<ele>1009.00</ele>
	<time>2024-03-25T09:21:51.000Z</time>
</trkpt>
<trkpt lat="45.8578030" lon="9.3285170">
	<ele>1009.00</ele>
	<time>2024-03-25T09:21:52.000Z</time>
</trkpt>
<trkpt lat="45.8578030" lon="9.3285160">
	<ele>1009.00</ele>
	<time>2024-03-25T09:21:53.000Z</time>
</trkpt>
<trkpt lat="45.8578040" lon="9.3285160">
	<ele>1009.00</ele>
	<time>2024-03-25T09:21:54.000Z</time>
</trkpt>
<trkpt lat="45.8578040" lon="9.3285150">
	<ele>1009.00</ele>
	<time>2024-03-25T09:21:55.000Z</time>
</trkpt>
<trkpt lat="45.8578050" lon="9.3285150">
	<ele>1009.00</ele>
	<time>2024-03-25T09:21:56.000Z</time>
</trkpt>
<trkpt lat="45.8578050" lon="9.3285150">
	<ele>1009.00</ele>
	<time>2024-03-25T09:21:57.000Z</time>
</trkpt>
<trkpt lat="45.8578060" lon="9.3285150">
	<ele>1009.00</ele>
	<time>2024-03-25T09:21:58.000Z</time>
</trkpt>
<trkpt lat="45.8578080" lon="9.3285140">
	<ele>1009.00</ele>
	<time>2024-03-25T09:21:59.000Z</time>
</trkpt>
<trkpt lat="45.8578100" lon="9.3285140">
	<ele>1009.00</ele>
	<time>2024-03-25T09:22:00.000Z</time>
</trkpt>
<trkpt lat="45.8578110" lon="9.3285140">
	<ele>1009.00</ele>
	<time>2024-03-25T09:22:01.000Z</time>
</trkpt>
<trkpt lat="45.8578120" lon="9.3285140">
	<ele>1009.00</ele>
	<time>2024-03-25T09:22:02.000Z</time>
</trkpt>
<trkpt lat="45.8578130" lon="9.3285140">
	<ele>1009.00</ele>
	<time>2024-03-25T09:22:03.000Z</time>
</trkpt>
<trkpt lat="45.8578130" lon="9.3285140">
	<ele>1009.00</ele>
	<time>2024-03-25T09:22:04.000Z</time>
</trkpt>
<trkpt lat="45.8578140" lon="9.3285150">
	<ele>1009.00</ele>
	<time>2024-03-25T09:22:05.000Z</time>
</trkpt>
<trkpt lat="45.8578150" lon="9.3285150">
	<ele>1009.00</ele>
	<time>2024-03-25T09:22:06.000Z</time>
</trkpt>
<trkpt lat="45.8578150" lon="9.3285150">
	<ele>1009.00</ele>
	<time>2024-03-25T09:22:07.000Z</time>
</trkpt>
<trkpt lat="45.8578160" lon="9.3285150">
	<ele>1009.00</ele>
	<time>2024-03-25T09:22:08.000Z</time>
</trkpt>
<trkpt lat="45.8578160" lon="9.3285160">
	<ele>1009.00</ele>
	<time>2024-03-25T09:22:09.000Z</time>
</trkpt>
<trkpt lat="45.8578170" lon="9.3285160">
	<ele>1009.00</ele>
	<time>2024-03-25T09:22:10.000Z</time>
</trkpt>
<trkpt lat="45.8578170" lon="9.3285170">
	<ele>1009.00</ele>
	<time>2024-03-25T09:22:11.000Z</time>
</trkpt>
<trkpt lat="45.8578180" lon="9.3285180">
	<ele>1009.00</ele>
	<time>2024-03-25T09:22:12.000Z</time>
</trkpt>
<trkpt lat="45.8578180" lon="9.3285190">
	<ele>1009.00</ele>
	<time>2024-03-25T09:22:13.000Z</time>
</trkpt>
<trkpt lat="45.8578180" lon="9.3285190">
	<ele>1009.00</ele>
	<time>2024-03-25T09:22:14.000Z</time>
</trkpt>
<trkpt lat="45.8578190" lon="9.3285200">
	<ele>1009.00</ele>
	<time>2024-03-25T09:22:15.000Z</time>
</trkpt>
<trkpt lat="45.8578190" lon="9.3285200">
	<ele>1009.00</ele>
	<time>2024-03-25T09:22:16.000Z</time>
</trkpt>
<trkpt lat="45.8578190" lon="9.3285210">
	<ele>1009.00</ele>
	<time>2024-03-25T09:22:17.000Z</time>
</trkpt>
<trkpt lat="45.8578200" lon="9.3285210">
	<ele>1009.20</ele>
	<time>2024-03-25T09:22:18.000Z</time>
</trkpt>
<trkpt lat="45.8578200" lon="9.3285210">
	<ele>1009.00</ele>
	<time>2024-03-25T09:22:19.000Z</time>
</trkpt>
<trkpt lat="45.8578200" lon="9.3285210">
	<ele>1009.00</ele>
	<time>2024-03-25T09:22:20.000Z</time>
</trkpt>
<trkpt lat="45.8578200" lon="9.3285210">
	<ele>1009.00</ele>
	<time>2024-03-25T09:22:21.000Z</time>
</trkpt>
<trkpt lat="45.8578200" lon="9.3285210">
	<ele>1009.00</ele>
	<time>2024-03-25T09:22:22.000Z</time>
</trkpt>
<trkpt lat="45.8578200" lon="9.3285210">
	<ele>1009.00</ele>
	<time>2024-03-25T09:22:23.000Z</time>
</trkpt>
<trkpt lat="45.8578200" lon="9.3285210">
	<ele>1009.00</ele>
	<time>2024-03-25T09:22:24.000Z</time>
</trkpt>
<trkpt lat="45.8578200" lon="9.3285210">
	<ele>1009.00</ele>
	<time>2024-03-25T09:22:25.000Z</time>
</trkpt>
<trkpt lat="45.8578200" lon="9.3285210">
	<ele>1009.00</ele>
	<time>2024-03-25T09:22:26.000Z</time>
</trkpt>
<trkpt lat="45.8578200" lon="9.3285210">
	<ele>1009.00</ele>
	<time>2024-03-25T09:22:27.000Z</time>
</trkpt>
<trkpt lat="45.8578200" lon="9.3285210">
	<ele>1009.00</ele>
	<time>2024-03-25T09:22:28.000Z</time>
</trkpt>
<trkpt lat="45.8578210" lon="9.3285210">
	<ele>1009.00</ele>
	<time>2024-03-25T09:22:29.000Z</time>
</trkpt>
<trkpt lat="45.8578210" lon="9.3285210">
	<ele>1009.00</ele>
	<time>2024-03-25T09:22:30.000Z</time>
</trkpt>
<trkpt lat="45.8578210" lon="9.3285200">
	<ele>1009.00</ele>
	<time>2024-03-25T09:22:31.000Z</time>
</trkpt>
<trkpt lat="45.8578210" lon="9.3285200">
	<ele>1009.00</ele>
	<time>2024-03-25T09:22:32.000Z</time>
</trkpt>
<trkpt lat="45.8578210" lon="9.3285190">
	<ele>1009.00</ele>
	<time>2024-03-25T09:22:33.000Z</time>
</trkpt>
<trkpt lat="45.8578210" lon="9.3285190">
	<ele>1009.00</ele>
	<time>2024-03-25T09:22:34.000Z</time>
</trkpt>
<trkpt lat="45.8578210" lon="9.3285180">
	<ele>1009.00</ele>
	<time>2024-03-25T09:22:35.000Z</time>
</trkpt>
<trkpt lat="45.8578210" lon="9.3285180">
	<ele>1009.00</ele>
	<time>2024-03-25T09:22:36.000Z</time>
</trkpt>
<trkpt lat="45.8578210" lon="9.3285170">
	<ele>1009.00</ele>
	<time>2024-03-25T09:22:37.000Z</time>
</trkpt>
<trkpt lat="45.8578210" lon="9.3285170">
	<ele>1009.00</ele>
	<time>2024-03-25T09:22:38.000Z</time>
</trkpt>
<trkpt lat="45.8578210" lon="9.3285170">
	<ele>1009.00</ele>
	<time>2024-03-25T09:22:39.000Z</time>
</trkpt>
<trkpt lat="45.8578220" lon="9.3285170">
	<ele>1009.00</ele>
	<time>2024-03-25T09:22:40.000Z</time>
</trkpt>
<trkpt lat="45.8578220" lon="9.3285160">
	<ele>1009.00</ele>
	<time>2024-03-25T09:22:41.000Z</time>
</trkpt>
<trkpt lat="45.8578230" lon="9.3285160">
	<ele>1009.00</ele>
	<time>2024-03-25T09:22:42.000Z</time>
</trkpt>
<trkpt lat="45.8578230" lon="9.3285160">
	<ele>1009.00</ele>
	<time>2024-03-25T09:22:43.000Z</time>
</trkpt>
<trkpt lat="45.8578230" lon="9.3285160">
	<ele>1009.00</ele>
	<time>2024-03-25T09:22:44.000Z</time>
</trkpt>
<trkpt lat="45.8578230" lon="9.3285160">
	<ele>1009.00</ele>
	<time>2024-03-25T09:22:45.000Z</time>
</trkpt>
<trkpt lat="45.8578240" lon="9.3285150">
	<ele>1009.00</ele>
	<time>2024-03-25T09:22:46.000Z</time>
</trkpt>
<trkpt lat="45.8578240" lon="9.3285150">
	<ele>1009.00</ele>
	<time>2024-03-25T09:22:47.000Z</time>
</trkpt>
<trkpt lat="45.8578240" lon="9.3285150">
	<ele>1009.00</ele>
	<time>2024-03-25T09:22:48.000Z</time>
</trkpt>
<trkpt lat="45.8578240" lon="9.3285150">
	<ele>1009.00</ele>
	<time>2024-03-25T09:22:49.000Z</time>
</trkpt>
<trkpt lat="45.8578240" lon="9.3285150">
	<ele>1009.00</ele>
	<time>2024-03-25T09:22:50.000Z</time>
</trkpt>
<trkpt lat="45.8578240" lon="9.3285150">
	<ele>1009.00</ele>
	<time>2024-03-25T09:22:51.000Z</time>
</trkpt>
<trkpt lat="45.8578240" lon="9.3285150">
	<ele>1009.00</ele>
	<time>2024-03-25T09:22:52.000Z</time>
</trkpt>
<trkpt lat="45.8578240" lon="9.3285150">
	<ele>1009.00</ele>
	<time>2024-03-25T09:22:53.000Z</time>
</trkpt>
<trkpt lat="45.8578240" lon="9.3285150">
	<ele>1009.00</ele>
	<time>2024-03-25T09:22:54.000Z</time>
</trkpt>
<trkpt lat="45.8578240" lon="9.3285140">
	<ele>1009.00</ele>
	<time>2024-03-25T09:22:55.000Z</time>
</trkpt>
<trkpt lat="45.8578240" lon="9.3285140">
	<ele>1009.00</ele>
	<time>2024-03-25T09:22:56.000Z</time>
</trkpt>
<trkpt lat="45.8578240" lon="9.3285140">
	<ele>1009.00</ele>
	<time>2024-03-25T09:22:57.000Z</time>
</trkpt>
<trkpt lat="45.8578240" lon="9.3285140">
	<ele>1009.00</ele>
	<time>2024-03-25T09:22:58.000Z</time>
</trkpt>
<trkpt lat="45.8578240" lon="9.3285140">
	<ele>1009.00</ele>
	<time>2024-03-25T09:22:59.000Z</time>
</trkpt>
<trkpt lat="45.8578250" lon="9.3285140">
	<ele>1009.00</ele>
	<time>2024-03-25T09:23:00.000Z</time>
</trkpt>
<trkpt lat="45.8578250" lon="9.3285140">
	<ele>1009.00</ele>
	<time>2024-03-25T09:23:01.000Z</time>
</trkpt>
<trkpt lat="45.8578250" lon="9.3285150">
	<ele>1009.00</ele>
	<time>2024-03-25T09:23:02.000Z</time>
</trkpt>
<trkpt lat="45.8578250" lon="9.3285150">
	<ele>1009.00</ele>
	<time>2024-03-25T09:23:03.000Z</time>
</trkpt>
<trkpt lat="45.8578250" lon="9.3285150">
	<ele>1009.00</ele>
	<time>2024-03-25T09:23:04.000Z</time>
</trkpt>
<trkpt lat="45.8578250" lon="9.3285150">
	<ele>1009.00</ele>
	<time>2024-03-25T09:23:05.000Z</time>
</trkpt>
<trkpt lat="45.8578240" lon="9.3285150">
	<ele>1009.00</ele>
	<time>2024-03-25T09:23:06.000Z</time>
</trkpt>
<trkpt lat="45.8578250" lon="9.3285150">
	<ele>1009.00</ele>
	<time>2024-03-25T09:23:07.000Z</time>
</trkpt>
<trkpt lat="45.8578250" lon="9.3285160">
	<ele>1009.00</ele>
	<time>2024-03-25T09:23:08.000Z</time>
</trkpt>
<trkpt lat="45.8578240" lon="9.3285160">
	<ele>1009.00</ele>
	<time>2024-03-25T09:23:09.000Z</time>
</trkpt>
<trkpt lat="45.8578240" lon="9.3285170">
	<ele>1009.00</ele>
	<time>2024-03-25T09:23:10.000Z</time>
</trkpt>
<trkpt lat="45.8578240" lon="9.3285170">
	<ele>1009.00</ele>
	<time>2024-03-25T09:23:11.000Z</time>
</trkpt>
<trkpt lat="45.8578240" lon="9.3285170">
	<ele>1009.00</ele>
	<time>2024-03-25T09:23:12.000Z</time>
</trkpt>
<trkpt lat="45.8578240" lon="9.3285170">
	<ele>1009.00</ele>
	<time>2024-03-25T09:23:13.000Z</time>
</trkpt>
<trkpt lat="45.8578240" lon="9.3285170">
	<ele>1009.00</ele>
	<time>2024-03-25T09:23:14.000Z</time>
</trkpt>
<trkpt lat="45.8578240" lon="9.3285170">
	<ele>1009.00</ele>
	<time>2024-03-25T09:23:15.000Z</time>
</trkpt>
<trkpt lat="45.8578240" lon="9.3285180">
	<ele>1009.00</ele>
	<time>2024-03-25T09:23:16.000Z</time>
</trkpt>
<trkpt lat="45.8578240" lon="9.3285180">
	<ele>1009.00</ele>
	<time>2024-03-25T09:23:17.000Z</time>
</trkpt>
<trkpt lat="45.8578250" lon="9.3285180">
	<ele>1009.00</ele>
	<time>2024-03-25T09:23:18.000Z</time>
</trkpt>
<trkpt lat="45.8578250" lon="9.3285180">
	<ele>1009.00</ele>
	<time>2024-03-25T09:23:19.000Z</time>
</trkpt>
<trkpt lat="45.8578250" lon="9.3285180">
	<ele>1009.00</ele>
	<time>2024-03-25T09:23:20.000Z</time>
</trkpt>
<trkpt lat="45.8578250" lon="9.3285180">
	<ele>1009.00</ele>
	<time>2024-03-25T09:23:21.000Z</time>
</trkpt>
<trkpt lat="45.8578250" lon="9.3285180">
	<ele>1009.00</ele>
	<time>2024-03-25T09:23:22.000Z</time>
</trkpt>
<trkpt lat="45.8578250" lon="9.3285180">
	<ele>1009.00</ele>
	<time>2024-03-25T09:23:23.000Z</time>
</trkpt>
<trkpt lat="45.8578250" lon="9.3285180">
	<ele>1009.00</ele>
	<time>2024-03-25T09:23:24.000Z</time>
</trkpt>
<trkpt lat="45.8578240" lon="9.3285180">
	<ele>1009.00</ele>
	<time>2024-03-25T09:23:25.000Z</time>
</trkpt>
<trkpt lat="45.8578240" lon="9.3285180">
	<ele>1009.00</ele>
	<time>2024-03-25T09:23:26.000Z</time>
</trkpt>
<trkpt lat="45.8578240" lon="9.3285180">
	<ele>1009.00</ele>
	<time>2024-03-25T09:23:27.000Z</time>
</trkpt>
<trkpt lat="45.8578240" lon="9.3285180">
	<ele>1009.00</ele>
	<time>2024-03-25T09:23:28.000Z</time>
</trkpt>
<trkpt lat="45.8578240" lon="9.3285180">
	<ele>1009.00</ele>
	<time>2024-03-25T09:23:29.000Z</time>
</trkpt>
<trkpt lat="45.8578250" lon="9.3285190">
	<ele>1009.00</ele>
	<time>2024-03-25T09:23:30.000Z</time>
</trkpt>
<trkpt lat="45.8578250" lon="9.3285190">
	<ele>1009.00</ele>
	<time>2024-03-25T09:23:31.000Z</time>
</trkpt>
<trkpt lat="45.8578250" lon="9.3285180">
	<ele>1009.00</ele>
	<time>2024-03-25T09:23:32.000Z</time>
</trkpt>
<trkpt lat="45.8578250" lon="9.3285180">
	<ele>1009.00</ele>
	<time>2024-03-25T09:23:33.000Z</time>
</trkpt>
<trkpt lat="45.8578250" lon="9.3285180">
	<ele>1009.00</ele>
	<time>2024-03-25T09:23:34.000Z</time>
</trkpt>
<trkpt lat="45.8578260" lon="9.3285180">
	<ele>1009.00</ele>
	<time>2024-03-25T09:23:35.000Z</time>
</trkpt>
<trkpt lat="45.8578250" lon="9.3285180">
	<ele>1009.00</ele>
	<time>2024-03-25T09:23:36.000Z</time>
</trkpt>
<trkpt lat="45.8578250" lon="9.3285180">
	<ele>1009.00</ele>
	<time>2024-03-25T09:23:37.000Z</time>
</trkpt>
<trkpt lat="45.8578250" lon="9.3285180">
	<ele>1009.00</ele>
	<time>2024-03-25T09:23:38.000Z</time>
</trkpt>
<trkpt lat="45.8578250" lon="9.3285180">
	<ele>1009.00</ele>
	<time>2024-03-25T09:23:39.000Z</time>
</trkpt>
<trkpt lat="45.8578250" lon="9.3285170">
	<ele>1009.00</ele>
	<time>2024-03-25T09:23:40.000Z</time>
</trkpt>
<trkpt lat="45.8578250" lon="9.3285170">
	<ele>1009.00</ele>
	<time>2024-03-25T09:23:41.000Z</time>
</trkpt>
<trkpt lat="45.8578250" lon="9.3285170">
	<ele>1009.00</ele>
	<time>2024-03-25T09:23:42.000Z</time>
</trkpt>
<trkpt lat="45.8578250" lon="9.3285170">
	<ele>1009.00</ele>
	<time>2024-03-25T09:23:43.000Z</time>
</trkpt>
<trkpt lat="45.8578250" lon="9.3285160">
	<ele>1009.00</ele>
	<time>2024-03-25T09:23:44.000Z</time>
</trkpt>
<trkpt lat="45.8578250" lon="9.3285170">
	<ele>1009.00</ele>
	<time>2024-03-25T09:23:45.000Z</time>
</trkpt>
<trkpt lat="45.8578250" lon="9.3285170">
	<ele>1009.00</ele>
	<time>2024-03-25T09:23:46.000Z</time>
</trkpt>
<trkpt lat="45.8578250" lon="9.3285160">
	<ele>1009.00</ele>
	<time>2024-03-25T09:23:47.000Z</time>
</trkpt>
<trkpt lat="45.8578250" lon="9.3285160">
	<ele>1009.00</ele>
	<time>2024-03-25T09:23:48.000Z</time>
</trkpt>
<trkpt lat="45.8578250" lon="9.3285160">
	<ele>1009.00</ele>
	<time>2024-03-25T09:23:49.000Z</time>
</trkpt>
<trkpt lat="45.8578250" lon="9.3285160">
	<ele>1009.00</ele>
	<time>2024-03-25T09:23:50.000Z</time>
</trkpt>
<trkpt lat="45.8578250" lon="9.3285160">
	<ele>1009.00</ele>
	<time>2024-03-25T09:23:51.000Z</time>
</trkpt>
<trkpt lat="45.8578250" lon="9.3285150">
	<ele>1009.00</ele>
	<time>2024-03-25T09:23:52.000Z</time>
</trkpt>
<trkpt lat="45.8578250" lon="9.3285150">
	<ele>1009.00</ele>
	<time>2024-03-25T09:23:53.000Z</time>
</trkpt>
<trkpt lat="45.8578250" lon="9.3285150">
	<ele>1009.00</ele>
	<time>2024-03-25T09:23:54.000Z</time>
</trkpt>
<trkpt lat="45.8578250" lon="9.3285150">
	<ele>1009.00</ele>
	<time>2024-03-25T09:23:55.000Z</time>
</trkpt>
<trkpt lat="45.8578250" lon="9.3285140">
	<ele>1009.00</ele>
	<time>2024-03-25T09:23:56.000Z</time>
</trkpt>
<trkpt lat="45.8578250" lon="9.3285140">
	<ele>1009.00</ele>
	<time>2024-03-25T09:23:57.000Z</time>
</trkpt>
<trkpt lat="45.8578250" lon="9.3285130">
	<ele>1009.00</ele>
	<time>2024-03-25T09:23:58.000Z</time>
</trkpt>
<trkpt lat="45.8578250" lon="9.3285130">
	<ele>1009.00</ele>
	<time>2024-03-25T09:23:59.000Z</time>
</trkpt>
<trkpt lat="45.8578250" lon="9.3285120">
	<ele>1009.00</ele>
	<time>2024-03-25T09:24:00.000Z</time>
</trkpt>
<trkpt lat="45.8578250" lon="9.3285120">
	<ele>1009.00</ele>
	<time>2024-03-25T09:24:01.000Z</time>
</trkpt>
<trkpt lat="45.8578250" lon="9.3285120">
	<ele>1009.00</ele>
	<time>2024-03-25T09:24:02.000Z</time>
</trkpt>
<trkpt lat="45.8578250" lon="9.3285120">
	<ele>1009.00</ele>
	<time>2024-03-25T09:24:03.000Z</time>
</trkpt>
<trkpt lat="45.8578250" lon="9.3285120">
	<ele>1009.00</ele>
	<time>2024-03-25T09:24:04.000Z</time>
</trkpt>
<trkpt lat="45.8578250" lon="9.3285120">
	<ele>1009.00</ele>
	<time>2024-03-25T09:24:05.000Z</time>
</trkpt>
<trkpt lat="45.8578250" lon="9.3285120">
	<ele>1009.00</ele>
	<time>2024-03-25T09:24:06.000Z</time>
</trkpt>
<trkpt lat="45.8578250" lon="9.3285120">
	<ele>1009.00</ele>
	<time>2024-03-25T09:24:07.000Z</time>
</trkpt>
<trkpt lat="45.8578250" lon="9.3285120">
	<ele>1009.00</ele>
	<time>2024-03-25T09:24:08.000Z</time>
</trkpt>
<trkpt lat="45.8578250" lon="9.3285120">
	<ele>1009.00</ele>
	<time>2024-03-25T09:24:09.000Z</time>
</trkpt>
<trkpt lat="45.8578250" lon="9.3285120">
	<ele>1009.00</ele>
	<time>2024-03-25T09:24:10.000Z</time>
</trkpt>
<trkpt lat="45.8578250" lon="9.3285110">
	<ele>1009.00</ele>
	<time>2024-03-25T09:24:11.000Z</time>
</trkpt>
<trkpt lat="45.8578250" lon="9.3285110">
	<ele>1009.00</ele>
	<time>2024-03-25T09:24:12.000Z</time>
</trkpt>
<trkpt lat="45.8578250" lon="9.3285110">
	<ele>1009.00</ele>
	<time>2024-03-25T09:24:13.000Z</time>
</trkpt>
<trkpt lat="45.8578250" lon="9.3285110">
	<ele>1009.00</ele>
	<time>2024-03-25T09:24:14.000Z</time>
</trkpt>
<trkpt lat="45.8578250" lon="9.3285110">
	<ele>1009.00</ele>
	<time>2024-03-25T09:24:15.000Z</time>
</trkpt>
<trkpt lat="45.8578250" lon="9.3285110">
	<ele>1009.00</ele>
	<time>2024-03-25T09:24:16.000Z</time>
</trkpt>
<trkpt lat="45.8578250" lon="9.3284990">
	<ele>1009.00</ele>
	<time>2024-03-25T09:24:17.000Z</time>
</trkpt>
<trkpt lat="45.8578260" lon="9.3284760">
	<ele>1009.00</ele>
	<time>2024-03-25T09:24:18.000Z</time>
</trkpt>
<trkpt lat="45.8578270" lon="9.3284480">
	<ele>1009.00</ele>
	<time>2024-03-25T09:24:19.000Z</time>
</trkpt>
<trkpt lat="45.8578270" lon="9.3284210">
	<ele>1009.00</ele>
	<time>2024-03-25T09:24:20.000Z</time>
</trkpt>
<trkpt lat="45.8578270" lon="9.3283940">
	<ele>1009.00</ele>
	<time>2024-03-25T09:24:21.000Z</time>
</trkpt>
<trkpt lat="45.8578250" lon="9.3283710">
	<ele>1009.00</ele>
	<time>2024-03-25T09:24:22.000Z</time>
</trkpt>
<trkpt lat="45.8578230" lon="9.3283460">
	<ele>1009.00</ele>
	<time>2024-03-25T09:24:23.000Z</time>
</trkpt>
<trkpt lat="45.8578220" lon="9.3283160">
	<ele>1009.00</ele>
	<time>2024-03-25T09:24:24.000Z</time>
</trkpt>
<trkpt lat="45.8578180" lon="9.3282950">
	<ele>1009.00</ele>
	<time>2024-03-25T09:24:25.000Z</time>
</trkpt>
<trkpt lat="45.8578140" lon="9.3282810">
	<ele>1009.00</ele>
	<time>2024-03-25T09:24:26.000Z</time>
</trkpt>
<trkpt lat="45.8578160" lon="9.3282680">
	<ele>1009.00</ele>
	<time>2024-03-25T09:24:27.000Z</time>
</trkpt>
<trkpt lat="45.8578210" lon="9.3282540">
	<ele>1009.00</ele>
	<time>2024-03-25T09:24:28.000Z</time>
</trkpt>
<trkpt lat="45.8578220" lon="9.3282290">
	<ele>1009.00</ele>
	<time>2024-03-25T09:24:29.000Z</time>
</trkpt>
<trkpt lat="45.8578220" lon="9.3282170">
	<ele>1008.60</ele>
	<time>2024-03-25T09:24:30.000Z</time>
</trkpt>
<trkpt lat="45.8578230" lon="9.3282030">
	<ele>1008.20</ele>
	<time>2024-03-25T09:24:31.000Z</time>
</trkpt>
<trkpt lat="45.8578220" lon="9.3281870">
	<ele>1007.80</ele>
	<time>2024-03-25T09:24:32.000Z</time>
</trkpt>
<trkpt lat="45.8578200" lon="9.3281630">
	<ele>1007.80</ele>
	<time>2024-03-25T09:24:33.000Z</time>
</trkpt>
<trkpt lat="45.8578180" lon="9.3281510">
	<ele>1007.60</ele>
	<time>2024-03-25T09:24:34.000Z</time>
</trkpt>
<trkpt lat="45.8578170" lon="9.3281360">
	<ele>1007.60</ele>
	<time>2024-03-25T09:24:35.000Z</time>
</trkpt>
<trkpt lat="45.8578140" lon="9.3281270">
	<ele>1007.40</ele>
	<time>2024-03-25T09:24:36.000Z</time>
</trkpt>
<trkpt lat="45.8578120" lon="9.3281150">
	<ele>1007.20</ele>
	<time>2024-03-25T09:24:37.000Z</time>
</trkpt>
<trkpt lat="45.8578030" lon="9.3281040">
	<ele>1007.20</ele>
	<time>2024-03-25T09:24:38.000Z</time>
</trkpt>
<trkpt lat="45.8577980" lon="9.3280950">
	<ele>1007.00</ele>
	<time>2024-03-25T09:24:39.000Z</time>
</trkpt>
<trkpt lat="45.8577930" lon="9.3280900">
	<ele>1006.80</ele>
	<time>2024-03-25T09:24:40.000Z</time>
</trkpt>
<trkpt lat="45.8577870" lon="9.3280820">
	<ele>1006.60</ele>
	<time>2024-03-25T09:24:41.000Z</time>
</trkpt>
<trkpt lat="45.8577820" lon="9.3280650">
	<ele>1006.60</ele>
	<time>2024-03-25T09:24:42.000Z</time>
</trkpt>
<trkpt lat="45.8577710" lon="9.3280450">
	<ele>1006.40</ele>
	<time>2024-03-25T09:24:43.000Z</time>
</trkpt>
<trkpt lat="45.8577540" lon="9.3280300">
	<ele>1006.00</ele>
	<time>2024-03-25T09:24:44.000Z</time>
</trkpt>
<trkpt lat="45.8577390" lon="9.3280120">
	<ele>1005.60</ele>
	<time>2024-03-25T09:24:45.000Z</time>
</trkpt>
<trkpt lat="45.8577350" lon="9.3279960">
	<ele>1005.60</ele>
	<time>2024-03-25T09:24:46.000Z</time>
</trkpt>
<trkpt lat="45.8577410" lon="9.3279820">
	<ele>1005.40</ele>
	<time>2024-03-25T09:24:47.000Z</time>
</trkpt>
<trkpt lat="45.8577420" lon="9.3279590">
	<ele>1005.40</ele>
	<time>2024-03-25T09:24:48.000Z</time>
</trkpt>
<trkpt lat="45.8577430" lon="9.3279390">
	<ele>1005.40</ele>
	<time>2024-03-25T09:24:49.000Z</time>
</trkpt>
<trkpt lat="45.8577450" lon="9.3279260">
	<ele>1005.20</ele>
	<time>2024-03-25T09:24:50.000Z</time>
</trkpt>
<trkpt lat="45.8577470" lon="9.3279070">
	<ele>1005.20</ele>
	<time>2024-03-25T09:24:51.000Z</time>
</trkpt>
<trkpt lat="45.8577430" lon="9.3278930">
	<ele>1005.00</ele>
	<time>2024-03-25T09:24:52.000Z</time>
</trkpt>
<trkpt lat="45.8577400" lon="9.3278800">
	<ele>1004.80</ele>
	<time>2024-03-25T09:24:53.000Z</time>
</trkpt>
<trkpt lat="45.8577400" lon="9.3278670">
	<ele>1004.60</ele>
	<time>2024-03-25T09:24:54.000Z</time>
</trkpt>
<trkpt lat="45.8577430" lon="9.3278500">
	<ele>1004.40</ele>
	<time>2024-03-25T09:24:55.000Z</time>
</trkpt>
<trkpt lat="45.8577400" lon="9.3278330">
	<ele>1004.20</ele>
	<time>2024-03-25T09:24:56.000Z</time>
</trkpt>
<trkpt lat="45.8577350" lon="9.3278140">
	<ele>1004.20</ele>
	<time>2024-03-25T09:24:57.000Z</time>
</trkpt>
<trkpt lat="45.8577250" lon="9.3278000">
	<ele>1004.00</ele>
	<time>2024-03-25T09:24:58.000Z</time>
</trkpt>
<trkpt lat="45.8577120" lon="9.3277900">
	<ele>1004.00</ele>
	<time>2024-03-25T09:24:59.000Z</time>
</trkpt>
<trkpt lat="45.8577030" lon="9.3277800">
	<ele>1003.80</ele>
	<time>2024-03-25T09:25:00.000Z</time>
</trkpt>
<trkpt lat="45.8576980" lon="9.3277730">
	<ele>1003.60</ele>
	<time>2024-03-25T09:25:01.000Z</time>
</trkpt>
<trkpt lat="45.8576930" lon="9.3277670">
	<ele>1003.40</ele>
	<time>2024-03-25T09:25:02.000Z</time>
</trkpt>
<trkpt lat="45.8576920" lon="9.3277550">
	<ele>1003.20</ele>
	<time>2024-03-25T09:25:03.000Z</time>
</trkpt>
<trkpt lat="45.8576970" lon="9.3277430">
	<ele>1003.00</ele>
	<time>2024-03-25T09:25:04.000Z</time>
</trkpt>
<trkpt lat="45.8577010" lon="9.3277370">
	<ele>1002.80</ele>
	<time>2024-03-25T09:25:05.000Z</time>
</trkpt>
<trkpt lat="45.8577010" lon="9.3277230">
	<ele>1002.80</ele>
	<time>2024-03-25T09:25:06.000Z</time>
</trkpt>
<trkpt lat="45.8577000" lon="9.3277100">
	<ele>1002.60</ele>
	<time>2024-03-25T09:25:07.000Z</time>
</trkpt>
<trkpt lat="45.8577010" lon="9.3276950">
	<ele>1002.40</ele>
	<time>2024-03-25T09:25:08.000Z</time>
</trkpt>
<trkpt lat="45.8577000" lon="9.3276790">
	<ele>1002.40</ele>
	<time>2024-03-25T09:25:09.000Z</time>
</trkpt>
<trkpt lat="45.8576950" lon="9.3276620">
	<ele>1002.40</ele>
	<time>2024-03-25T09:25:10.000Z</time>
</trkpt>
<trkpt lat="45.8576850" lon="9.3276420">
	<ele>1002.60</ele>
	<time>2024-03-25T09:25:11.000Z</time>
</trkpt>
<trkpt lat="45.8576720" lon="9.3276280">
	<ele>1002.60</ele>
	<time>2024-03-25T09:25:12.000Z</time>
</trkpt>
<trkpt lat="45.8576630" lon="9.3276120">
	<ele>1002.60</ele>
	<time>2024-03-25T09:25:13.000Z</time>
</trkpt>
<trkpt lat="45.8576550" lon="9.3275940">
	<ele>1002.60</ele>
	<time>2024-03-25T09:25:14.000Z</time>
</trkpt>
<trkpt lat="45.8576510" lon="9.3275760">
	<ele>1002.60</ele>
	<time>2024-03-25T09:25:15.000Z</time>
</trkpt>
<trkpt lat="45.8576470" lon="9.3275570">
	<ele>1002.60</ele>
	<time>2024-03-25T09:25:16.000Z</time>
</trkpt>
<trkpt lat="45.8576450" lon="9.3275350">
	<ele>1002.60</ele>
	<time>2024-03-25T09:25:17.000Z</time>
</trkpt>
<trkpt lat="45.8576500" lon="9.3275060">
	<ele>1002.60</ele>
	<time>2024-03-25T09:25:18.000Z</time>
</trkpt>
<trkpt lat="45.8576470" lon="9.3274820">
	<ele>1002.60</ele>
	<time>2024-03-25T09:25:19.000Z</time>
</trkpt>
<trkpt lat="45.8576440" lon="9.3274500">
	<ele>1002.60</ele>
	<time>2024-03-25T09:25:20.000Z</time>
</trkpt>
<trkpt lat="45.8576390" lon="9.3274290">
	<ele>1002.60</ele>
	<time>2024-03-25T09:25:21.000Z</time>
</trkpt>
<trkpt lat="45.8576390" lon="9.3274090">
	<ele>1002.60</ele>
	<time>2024-03-25T09:25:22.000Z</time>
</trkpt>
<trkpt lat="45.8576380" lon="9.3274000">
	<ele>1002.60</ele>
	<time>2024-03-25T09:25:23.000Z</time>
</trkpt>
<trkpt lat="45.8576370" lon="9.3273880">
	<ele>1002.60</ele>
	<time>2024-03-25T09:25:24.000Z</time>
</trkpt>
<trkpt lat="45.8576380" lon="9.3273770">
	<ele>1002.60</ele>
	<time>2024-03-25T09:25:25.000Z</time>
</trkpt>
<trkpt lat="45.8576360" lon="9.3273670">
	<ele>1002.60</ele>
	<time>2024-03-25T09:25:26.000Z</time>
</trkpt>
<trkpt lat="45.8576310" lon="9.3273560">
	<ele>1002.80</ele>
	<time>2024-03-25T09:25:27.000Z</time>
</trkpt>
<trkpt lat="45.8576240" lon="9.3273450">
	<ele>1002.80</ele>
	<time>2024-03-25T09:25:28.000Z</time>
</trkpt>
<trkpt lat="45.8576110" lon="9.3273260">
	<ele>1003.00</ele>
	<time>2024-03-25T09:25:29.000Z</time>
</trkpt>
<trkpt lat="45.8576040" lon="9.3273060">
	<ele>1003.00</ele>
	<time>2024-03-25T09:25:30.000Z</time>
</trkpt>
<trkpt lat="45.8576000" lon="9.3272900">
	<ele>1003.00</ele>
	<time>2024-03-25T09:25:31.000Z</time>
</trkpt>
<trkpt lat="45.8575970" lon="9.3272780">
	<ele>1003.00</ele>
	<time>2024-03-25T09:25:32.000Z</time>
</trkpt>
<trkpt lat="45.8575890" lon="9.3272670">
	<ele>1003.20</ele>
	<time>2024-03-25T09:25:33.000Z</time>
</trkpt>
<trkpt lat="45.8575840" lon="9.3272510">
	<ele>1003.20</ele>
	<time>2024-03-25T09:25:34.000Z</time>
</trkpt>
<trkpt lat="45.8575810" lon="9.3272330">
	<ele>1003.20</ele>
	<time>2024-03-25T09:25:35.000Z</time>
</trkpt>
<trkpt lat="45.8575770" lon="9.3272150">
	<ele>1003.20</ele>
	<time>2024-03-25T09:25:36.000Z</time>
</trkpt>
<trkpt lat="45.8575740" lon="9.3271970">
	<ele>1003.40</ele>
	<time>2024-03-25T09:25:37.000Z</time>
</trkpt>
<trkpt lat="45.8575750" lon="9.3271790">
	<ele>1003.60</ele>
	<time>2024-03-25T09:25:38.000Z</time>
</trkpt>
<trkpt lat="45.8575780" lon="9.3271640">
	<ele>1003.80</ele>
	<time>2024-03-25T09:25:39.000Z</time>
</trkpt>
<trkpt lat="45.8575790" lon="9.3271440">
	<ele>1003.80</ele>
	<time>2024-03-25T09:25:40.000Z</time>
</trkpt>
<trkpt lat="45.8575790" lon="9.3271220">
	<ele>1003.80</ele>
	<time>2024-03-25T09:25:41.000Z</time>
</trkpt>
<trkpt lat="45.8575780" lon="9.3271060">
	<ele>1003.80</ele>
	<time>2024-03-25T09:25:42.000Z</time>
</trkpt>
<trkpt lat="45.8575760" lon="9.3270890">
	<ele>1004.00</ele>
	<time>2024-03-25T09:25:43.000Z</time>
</trkpt>
<trkpt lat="45.8575770" lon="9.3270670">
	<ele>1004.20</ele>
	<time>2024-03-25T09:25:44.000Z</time>
</trkpt>
<trkpt lat="45.8575810" lon="9.3270410">
	<ele>1004.20</ele>
	<time>2024-03-25T09:25:45.000Z</time>
</trkpt>
<trkpt lat="45.8575910" lon="9.3270180">
	<ele>1004.20</ele>
	<time>2024-03-25T09:25:46.000Z</time>
</trkpt>
<trkpt lat="45.8575880" lon="9.3269920">
	<ele>1004.40</ele>
	<time>2024-03-25T09:25:47.000Z</time>
</trkpt>
<trkpt lat="45.8575930" lon="9.3269770">
	<ele>1004.40</ele>
	<time>2024-03-25T09:25:48.000Z</time>
</trkpt>
<trkpt lat="45.8575930" lon="9.3269630">
	<ele>1004.40</ele>
	<time>2024-03-25T09:25:49.000Z</time>
</trkpt>
<trkpt lat="45.8575940" lon="9.3269460">
	<ele>1004.40</ele>
	<time>2024-03-25T09:25:50.000Z</time>
</trkpt>
<trkpt lat="45.8575960" lon="9.3269320">
	<ele>1004.40</ele>
	<time>2024-03-25T09:25:51.000Z</time>
</trkpt>
<trkpt lat="45.8575960" lon="9.3269160">
	<ele>1004.40</ele>
	<time>2024-03-25T09:25:52.000Z</time>
</trkpt>
<trkpt lat="45.8576010" lon="9.3269010">
	<ele>1004.40</ele>
	<time>2024-03-25T09:25:53.000Z</time>
</trkpt>
<trkpt lat="45.8576110" lon="9.3268870">
	<ele>1004.20</ele>
	<time>2024-03-25T09:25:54.000Z</time>
</trkpt>
<trkpt lat="45.8576210" lon="9.3268690">
	<ele>1004.00</ele>
	<time>2024-03-25T09:25:55.000Z</time>
</trkpt>
<trkpt lat="45.8576200" lon="9.3268480">
	<ele>1004.00</ele>
	<time>2024-03-25T09:25:56.000Z</time>
</trkpt>
<trkpt lat="45.8576110" lon="9.3268290">
	<ele>1003.80</ele>
	<time>2024-03-25T09:25:57.000Z</time>
</trkpt>
<trkpt lat="45.8576050" lon="9.3268120">
	<ele>1003.80</ele>
	<time>2024-03-25T09:25:58.000Z</time>
</trkpt>
<trkpt lat="45.8575890" lon="9.3267960">
	<ele>1003.80</ele>
	<time>2024-03-25T09:25:59.000Z</time>
</trkpt>
<trkpt lat="45.8575810" lon="9.3267860">
	<ele>1003.80</ele>
	<time>2024-03-25T09:26:00.000Z</time>
</trkpt>
<trkpt lat="45.8575750" lon="9.3267750">
	<ele>1003.80</ele>
	<time>2024-03-25T09:26:01.000Z</time>
</trkpt>
<trkpt lat="45.8575740" lon="9.3267630">
	<ele>1003.80</ele>
	<time>2024-03-25T09:26:02.000Z</time>
</trkpt>
<trkpt lat="45.8575740" lon="9.3267520">
	<ele>1003.80</ele>
	<time>2024-03-25T09:26:03.000Z</time>
</trkpt>
<trkpt lat="45.8575710" lon="9.3267420">
	<ele>1003.80</ele>
	<time>2024-03-25T09:26:04.000Z</time>
</trkpt>
<trkpt lat="45.8575620" lon="9.3267340">
	<ele>1003.80</ele>
	<time>2024-03-25T09:26:05.000Z</time>
</trkpt>
<trkpt lat="45.8575540" lon="9.3267260">
	<ele>1004.00</ele>
	<time>2024-03-25T09:26:06.000Z</time>
</trkpt>
<trkpt lat="45.8575480" lon="9.3267180">
	<ele>1004.00</ele>
	<time>2024-03-25T09:26:07.000Z</time>
</trkpt>
<trkpt lat="45.8575480" lon="9.3267050">
	<ele>1004.40</ele>
	<time>2024-03-25T09:26:08.000Z</time>
</trkpt>
<trkpt lat="45.8575420" lon="9.3266900">
	<ele>1004.60</ele>
	<time>2024-03-25T09:26:09.000Z</time>
</trkpt>
<trkpt lat="45.8575390" lon="9.3266780">
	<ele>1004.60</ele>
	<time>2024-03-25T09:26:10.000Z</time>
</trkpt>
<trkpt lat="45.8575330" lon="9.3266660">
	<ele>1004.80</ele>
	<time>2024-03-25T09:26:11.000Z</time>
</trkpt>
<trkpt lat="45.8575260" lon="9.3266550">
	<ele>1004.80</ele>
	<time>2024-03-25T09:26:12.000Z</time>
</trkpt>
<trkpt lat="45.8575170" lon="9.3266430">
	<ele>1005.00</ele>
	<time>2024-03-25T09:26:13.000Z</time>
</trkpt>
<trkpt lat="45.8575120" lon="9.3266320">
	<ele>1005.00</ele>
	<time>2024-03-25T09:26:14.000Z</time>
</trkpt>
<trkpt lat="45.8575080" lon="9.3266190">
	<ele>1005.20</ele>
	<time>2024-03-25T09:26:15.000Z</time>
</trkpt>
<trkpt lat="45.8575020" lon="9.3266060">
	<ele>1005.20</ele>
	<time>2024-03-25T09:26:16.000Z</time>
</trkpt>
<trkpt lat="45.8574950" lon="9.3265920">
	<ele>1005.40</ele>
	<time>2024-03-25T09:26:17.000Z</time>
</trkpt>
<trkpt lat="45.8574860" lon="9.3265800">
	<ele>1005.60</ele>
	<time>2024-03-25T09:26:18.000Z</time>
</trkpt>
<trkpt lat="45.8574760" lon="9.3265650">
	<ele>1005.60</ele>
	<time>2024-03-25T09:26:19.000Z</time>
</trkpt>
<trkpt lat="45.8574640" lon="9.3265510">
	<ele>1005.80</ele>
	<time>2024-03-25T09:26:20.000Z</time>
</trkpt>
<trkpt lat="45.8574550" lon="9.3265420">
	<ele>1006.00</ele>
	<time>2024-03-25T09:26:21.000Z</time>
</trkpt>
<trkpt lat="45.8574520" lon="9.3265380">
	<ele>1006.20</ele>
	<time>2024-03-25T09:26:22.000Z</time>
</trkpt>
<trkpt lat="45.8574470" lon="9.3265220">
	<ele>1006.20</ele>
	<time>2024-03-25T09:26:23.000Z</time>
</trkpt>
<trkpt lat="45.8574410" lon="9.3265090">
	<ele>1006.40</ele>
	<time>2024-03-25T09:26:24.000Z</time>
</trkpt>
<trkpt lat="45.8574310" lon="9.3264970">
	<ele>1006.40</ele>
	<time>2024-03-25T09:26:25.000Z</time>
</trkpt>
<trkpt lat="45.8574160" lon="9.3264910">
	<ele>1006.40</ele>
	<time>2024-03-25T09:26:26.000Z</time>
</trkpt>
<trkpt lat="45.8574020" lon="9.3264870">
	<ele>1006.60</ele>
	<time>2024-03-25T09:26:27.000Z</time>
</trkpt>
<trkpt lat="45.8573910" lon="9.3264850">
	<ele>1006.60</ele>
	<time>2024-03-25T09:26:28.000Z</time>
</trkpt>
<trkpt lat="45.8573780" lon="9.3264780">
	<ele>1006.80</ele>
	<time>2024-03-25T09:26:29.000Z</time>
</trkpt>
<trkpt lat="45.8573570" lon="9.3264670">
	<ele>1006.80</ele>
	<time>2024-03-25T09:26:30.000Z</time>
</trkpt>
<trkpt lat="45.8573380" lon="9.3264590">
	<ele>1006.80</ele>
	<time>2024-03-25T09:26:31.000Z</time>
</trkpt>
<trkpt lat="45.8573210" lon="9.3264500">
	<ele>1006.80</ele>
	<time>2024-03-25T09:26:32.000Z</time>
</trkpt>
<trkpt lat="45.8573140" lon="9.3264500">
	<ele>1007.00</ele>
	<time>2024-03-25T09:26:33.000Z</time>
</trkpt>
<trkpt lat="45.8573050" lon="9.3264380">
	<ele>1007.00</ele>
	<time>2024-03-25T09:26:34.000Z</time>
</trkpt>
<trkpt lat="45.8572950" lon="9.3264180">
	<ele>1007.20</ele>
	<time>2024-03-25T09:26:35.000Z</time>
</trkpt>
<trkpt lat="45.8572860" lon="9.3263940">
	<ele>1007.40</ele>
	<time>2024-03-25T09:26:36.000Z</time>
</trkpt>
<trkpt lat="45.8572850" lon="9.3263710">
	<ele>1007.60</ele>
	<time>2024-03-25T09:26:37.000Z</time>
</trkpt>
<trkpt lat="45.8572910" lon="9.3263480">
	<ele>1007.80</ele>
	<time>2024-03-25T09:26:38.000Z</time>
</trkpt>
<trkpt lat="45.8573040" lon="9.3263390">
	<ele>1007.80</ele>
	<time>2024-03-25T09:26:39.000Z</time>
</trkpt>
<trkpt lat="45.8573150" lon="9.3263310">
	<ele>1008.00</ele>
	<time>2024-03-25T09:26:40.000Z</time>
</trkpt>
<trkpt lat="45.8573190" lon="9.3263180">
	<ele>1008.20</ele>
	<time>2024-03-25T09:26:41.000Z</time>
</trkpt>
<trkpt lat="45.8573130" lon="9.3263080">
	<ele>1008.40</ele>
	<time>2024-03-25T09:26:42.000Z</time>
</trkpt>
<trkpt lat="45.8573030" lon="9.3263000">
	<ele>1008.60</ele>
	<time>2024-03-25T09:26:43.000Z</time>
</trkpt>
<trkpt lat="45.8572990" lon="9.3262980">
	<ele>1008.80</ele>
	<time>2024-03-25T09:26:44.000Z</time>
</trkpt>
<trkpt lat="45.8572910" lon="9.3262950">
	<ele>1009.00</ele>
	<time>2024-03-25T09:26:45.000Z</time>
</trkpt>
<trkpt lat="45.8572860" lon="9.3262920">
	<ele>1009.20</ele>
	<time>2024-03-25T09:26:46.000Z</time>
</trkpt>
<trkpt lat="45.8572820" lon="9.3262880">
	<ele>1009.20</ele>
	<time>2024-03-25T09:26:47.000Z</time>
</trkpt>
<trkpt lat="45.8572810" lon="9.3262870">
	<ele>1009.20</ele>
	<time>2024-03-25T09:26:48.000Z</time>
</trkpt>
<trkpt lat="45.8572810" lon="9.3262880">
	<ele>1009.40</ele>
	<time>2024-03-25T09:26:49.000Z</time>
</trkpt>
<trkpt lat="45.8572810" lon="9.3262870">
	<ele>1009.40</ele>
	<time>2024-03-25T09:26:50.000Z</time>
</trkpt>
<trkpt lat="45.8572790" lon="9.3262840">
	<ele>1009.40</ele>
	<time>2024-03-25T09:26:51.000Z</time>
</trkpt>
<trkpt lat="45.8572780" lon="9.3262840">
	<ele>1009.40</ele>
	<time>2024-03-25T09:26:52.000Z</time>
</trkpt>
<trkpt lat="45.8572780" lon="9.3262830">
	<ele>1009.40</ele>
	<time>2024-03-25T09:26:53.000Z</time>
</trkpt>
<trkpt lat="45.8572790" lon="9.3262830">
	<ele>1009.40</ele>
	<time>2024-03-25T09:26:54.000Z</time>
</trkpt>
<trkpt lat="45.8572790" lon="9.3262840">
	<ele>1009.40</ele>
	<time>2024-03-25T09:26:55.000Z</time>
</trkpt>
<trkpt lat="45.8572800" lon="9.3262840">
	<ele>1009.40</ele>
	<time>2024-03-25T09:26:56.000Z</time>
</trkpt>
<trkpt lat="45.8572800" lon="9.3262840">
	<ele>1009.40</ele>
	<time>2024-03-25T09:26:57.000Z</time>
</trkpt>
<trkpt lat="45.8572800" lon="9.3262840">
	<ele>1009.40</ele>
	<time>2024-03-25T09:26:58.000Z</time>
</trkpt>
<trkpt lat="45.8572800" lon="9.3262840">
	<ele>1009.40</ele>
	<time>2024-03-25T09:26:59.000Z</time>
</trkpt>
<trkpt lat="45.8572800" lon="9.3262840">
	<ele>1009.40</ele>
	<time>2024-03-25T09:27:00.000Z</time>
</trkpt>
<trkpt lat="45.8572800" lon="9.3262840">
	<ele>1009.60</ele>
	<time>2024-03-25T09:27:01.000Z</time>
</trkpt>
<trkpt lat="45.8572800" lon="9.3262840">
	<ele>1009.60</ele>
	<time>2024-03-25T09:27:02.000Z</time>
</trkpt>
<trkpt lat="45.8572800" lon="9.3262840">
	<ele>1009.60</ele>
	<time>2024-03-25T09:27:03.000Z</time>
</trkpt>
<trkpt lat="45.8572800" lon="9.3262840">
	<ele>1009.60</ele>
	<time>2024-03-25T09:27:04.000Z</time>
</trkpt>
<trkpt lat="45.8572800" lon="9.3262840">
	<ele>1009.60</ele>
	<time>2024-03-25T09:27:05.000Z</time>
</trkpt>
<trkpt lat="45.8572800" lon="9.3262840">
	<ele>1009.60</ele>
	<time>2024-03-25T09:27:06.000Z</time>
</trkpt>
<trkpt lat="45.8572800" lon="9.3262840">
	<ele>1009.60</ele>
	<time>2024-03-25T09:27:07.000Z</time>
</trkpt>
<trkpt lat="45.8572800" lon="9.3262840">
	<ele>1009.60</ele>
	<time>2024-03-25T09:27:08.000Z</time>
</trkpt>
<trkpt lat="45.8572800" lon="9.3262840">
	<ele>1009.60</ele>
	<time>2024-03-25T09:27:09.000Z</time>
</trkpt>
<trkpt lat="45.8572800" lon="9.3262840">
	<ele>1009.60</ele>
	<time>2024-03-25T09:27:10.000Z</time>
</trkpt>
<trkpt lat="45.8572800" lon="9.3262840">
	<ele>1009.60</ele>
	<time>2024-03-25T09:27:11.000Z</time>
</trkpt>
<trkpt lat="45.8572800" lon="9.3262840">
	<ele>1009.60</ele>
	<time>2024-03-25T09:27:12.000Z</time>
</trkpt>
<trkpt lat="45.8572810" lon="9.3262840">
	<ele>1009.60</ele>
	<time>2024-03-25T09:27:13.000Z</time>
</trkpt>
<trkpt lat="45.8572810" lon="9.3262840">
	<ele>1009.40</ele>
	<time>2024-03-25T09:27:14.000Z</time>
</trkpt>
<trkpt lat="45.8572810" lon="9.3262840">
	<ele>1009.40</ele>
	<time>2024-03-25T09:27:15.000Z</time>
</trkpt>
<trkpt lat="45.8572810" lon="9.3262850">
	<ele>1009.40</ele>
	<time>2024-03-25T09:27:16.000Z</time>
</trkpt>
<trkpt lat="45.8572810" lon="9.3262850">
	<ele>1009.40</ele>
	<time>2024-03-25T09:27:17.000Z</time>
</trkpt>
<trkpt lat="45.8572810" lon="9.3262850">
	<ele>1009.40</ele>
	<time>2024-03-25T09:27:18.000Z</time>
</trkpt>
<trkpt lat="45.8572800" lon="9.3262840">
	<ele>1009.40</ele>
	<time>2024-03-25T09:27:19.000Z</time>
</trkpt>
<trkpt lat="45.8572800" lon="9.3262840">
	<ele>1009.40</ele>
	<time>2024-03-25T09:27:20.000Z</time>
</trkpt>
<trkpt lat="45.8572800" lon="9.3262840">
	<ele>1009.60</ele>
	<time>2024-03-25T09:27:21.000Z</time>
</trkpt>
<trkpt lat="45.8572800" lon="9.3262840">
	<ele>1009.60</ele>
	<time>2024-03-25T09:27:22.000Z</time>
</trkpt>
<trkpt lat="45.8572800" lon="9.3262840">
	<ele>1009.60</ele>
	<time>2024-03-25T09:27:23.000Z</time>
</trkpt>
<trkpt lat="45.8572800" lon="9.3262840">
	<ele>1009.60</ele>
	<time>2024-03-25T09:27:24.000Z</time>
</trkpt>
<trkpt lat="45.8572800" lon="9.3262840">
	<ele>1009.60</ele>
	<time>2024-03-25T09:27:25.000Z</time>
</trkpt>
<trkpt lat="45.8572800" lon="9.3262840">
	<ele>1009.60</ele>
	<time>2024-03-25T09:27:26.000Z</time>
</trkpt>
<trkpt lat="45.8572800" lon="9.3262830">
	<ele>1009.60</ele>
	<time>2024-03-25T09:27:27.000Z</time>
</trkpt>
<trkpt lat="45.8572800" lon="9.3262820">
	<ele>1009.60</ele>
	<time>2024-03-25T09:27:28.000Z</time>
</trkpt>
<trkpt lat="45.8572770" lon="9.3262820">
	<ele>1009.60</ele>
	<time>2024-03-25T09:27:29.000Z</time>
</trkpt>
<trkpt lat="45.8572740" lon="9.3262820">
	<ele>1009.60</ele>
	<time>2024-03-25T09:27:30.000Z</time>
</trkpt>
<trkpt lat="45.8572690" lon="9.3262820">
	<ele>1009.60</ele>
	<time>2024-03-25T09:27:31.000Z</time>
</trkpt>
<trkpt lat="45.8572610" lon="9.3262820">
	<ele>1009.60</ele>
	<time>2024-03-25T09:27:32.000Z</time>
</trkpt>
<trkpt lat="45.8572550" lon="9.3262740">
	<ele>1009.40</ele>
	<time>2024-03-25T09:27:33.000Z</time>
</trkpt>
<trkpt lat="45.8572500" lon="9.3262640">
	<ele>1009.40</ele>
	<time>2024-03-25T09:27:34.000Z</time>
</trkpt>
<trkpt lat="45.8572450" lon="9.3262540">
	<ele>1009.40</ele>
	<time>2024-03-25T09:27:35.000Z</time>
</trkpt>
<trkpt lat="45.8572360" lon="9.3262370">
	<ele>1009.40</ele>
	<time>2024-03-25T09:27:36.000Z</time>
</trkpt>
<trkpt lat="45.8572330" lon="9.3262280">
	<ele>1009.40</ele>
	<time>2024-03-25T09:27:37.000Z</time>
</trkpt>
<trkpt lat="45.8572310" lon="9.3262200">
	<ele>1009.60</ele>
	<time>2024-03-25T09:27:38.000Z</time>
</trkpt>
<trkpt lat="45.8572300" lon="9.3262130">
	<ele>1009.60</ele>
	<time>2024-03-25T09:27:39.000Z</time>
</trkpt>
<trkpt lat="45.8572290" lon="9.3262110">
	<ele>1009.80</ele>
	<time>2024-03-25T09:27:40.000Z</time>
</trkpt>
<trkpt lat="45.8572280" lon="9.3262110">
	<ele>1009.80</ele>
	<time>2024-03-25T09:27:41.000Z</time>
</trkpt>
<trkpt lat="45.8572280" lon="9.3262100">
	<ele>1009.80</ele>
	<time>2024-03-25T09:27:42.000Z</time>
</trkpt>
<trkpt lat="45.8572280" lon="9.3262090">
	<ele>1009.60</ele>
	<time>2024-03-25T09:27:43.000Z</time>
</trkpt>
<trkpt lat="45.8572280" lon="9.3262080">
	<ele>1009.60</ele>
	<time>2024-03-25T09:27:44.000Z</time>
</trkpt>
<trkpt lat="45.8572280" lon="9.3262080">
	<ele>1009.40</ele>
	<time>2024-03-25T09:27:45.000Z</time>
</trkpt>
<trkpt lat="45.8572280" lon="9.3262060">
	<ele>1009.40</ele>
	<time>2024-03-25T09:27:46.000Z</time>
</trkpt>
<trkpt lat="45.8572280" lon="9.3262040">
	<ele>1009.40</ele>
	<time>2024-03-25T09:27:47.000Z</time>
</trkpt>
<trkpt lat="45.8572280" lon="9.3261970">
	<ele>1009.60</ele>
	<time>2024-03-25T09:27:48.000Z</time>
</trkpt>
<trkpt lat="45.8572280" lon="9.3261940">
	<ele>1009.80</ele>
	<time>2024-03-25T09:27:49.000Z</time>
</trkpt>
<trkpt lat="45.8572280" lon="9.3261920">
	<ele>1009.80</ele>
	<time>2024-03-25T09:27:50.000Z</time>
</trkpt>
<trkpt lat="45.8572280" lon="9.3261910">
	<ele>1009.80</ele>
	<time>2024-03-25T09:27:51.000Z</time>
</trkpt>
<trkpt lat="45.8572280" lon="9.3261910">
	<ele>1009.80</ele>
	<time>2024-03-25T09:27:52.000Z</time>
</trkpt>
<trkpt lat="45.8572280" lon="9.3261910">
	<ele>1009.80</ele>
	<time>2024-03-25T09:27:53.000Z</time>
</trkpt>
<trkpt lat="45.8572280" lon="9.3261910">
	<ele>1009.80</ele>
	<time>2024-03-25T09:27:54.000Z</time>
</trkpt>
<trkpt lat="45.8572280" lon="9.3261910">
	<ele>1009.80</ele>
	<time>2024-03-25T09:27:55.000Z</time>
</trkpt>
<trkpt lat="45.8572290" lon="9.3261900">
	<ele>1009.80</ele>
	<time>2024-03-25T09:27:56.000Z</time>
</trkpt>
<trkpt lat="45.8572300" lon="9.3261900">
	<ele>1009.80</ele>
	<time>2024-03-25T09:27:57.000Z</time>
</trkpt>
<trkpt lat="45.8572300" lon="9.3261900">
	<ele>1009.60</ele>
	<time>2024-03-25T09:27:58.000Z</time>
</trkpt>
<trkpt lat="45.8572300" lon="9.3261900">
	<ele>1009.40</ele>
	<time>2024-03-25T09:27:59.000Z</time>
</trkpt>
<trkpt lat="45.8572300" lon="9.3261890">
	<ele>1009.40</ele>
	<time>2024-03-25T09:28:00.000Z</time>
</trkpt>
<trkpt lat="45.8572300" lon="9.3261890">
	<ele>1009.40</ele>
	<time>2024-03-25T09:28:01.000Z</time>
</trkpt>
<trkpt lat="45.8572300" lon="9.3261890">
	<ele>1009.40</ele>
	<time>2024-03-25T09:28:02.000Z</time>
</trkpt>
<trkpt lat="45.8572300" lon="9.3261890">
	<ele>1009.40</ele>
	<time>2024-03-25T09:28:03.000Z</time>
</trkpt>
<trkpt lat="45.8572300" lon="9.3261890">
	<ele>1009.40</ele>
	<time>2024-03-25T09:28:04.000Z</time>
</trkpt>
<trkpt lat="45.8572300" lon="9.3261890">
	<ele>1009.40</ele>
	<time>2024-03-25T09:28:05.000Z</time>
</trkpt>
<trkpt lat="45.8572300" lon="9.3261890">
	<ele>1009.40</ele>
	<time>2024-03-25T09:28:06.000Z</time>
</trkpt>
<trkpt lat="45.8572300" lon="9.3261900">
	<ele>1009.40</ele>
	<time>2024-03-25T09:28:07.000Z</time>
</trkpt>
<trkpt lat="45.8572300" lon="9.3261900">
	<ele>1009.40</ele>
	<time>2024-03-25T09:28:08.000Z</time>
</trkpt>
<trkpt lat="45.8572300" lon="9.3261900">
	<ele>1009.40</ele>
	<time>2024-03-25T09:28:09.000Z</time>
</trkpt>
<trkpt lat="45.8572300" lon="9.3261900">
	<ele>1009.40</ele>
	<time>2024-03-25T09:28:10.000Z</time>
</trkpt>
<trkpt lat="45.8572300" lon="9.3261900">
	<ele>1009.40</ele>
	<time>2024-03-25T09:28:11.000Z</time>
</trkpt>
<trkpt lat="45.8572300" lon="9.3261910">
	<ele>1009.40</ele>
	<time>2024-03-25T09:28:12.000Z</time>
</trkpt>
<trkpt lat="45.8572290" lon="9.3261920">
	<ele>1009.40</ele>
	<time>2024-03-25T09:28:13.000Z</time>
</trkpt>
<trkpt lat="45.8572290" lon="9.3261920">
	<ele>1009.40</ele>
	<time>2024-03-25T09:28:14.000Z</time>
</trkpt>
<trkpt lat="45.8572290" lon="9.3261930">
	<ele>1009.40</ele>
	<time>2024-03-25T09:28:15.000Z</time>
</trkpt>
<trkpt lat="45.8572280" lon="9.3261930">
	<ele>1009.40</ele>
	<time>2024-03-25T09:28:16.000Z</time>
</trkpt>
<trkpt lat="45.8572280" lon="9.3261950">
	<ele>1009.40</ele>
	<time>2024-03-25T09:28:17.000Z</time>
</trkpt>
<trkpt lat="45.8572280" lon="9.3261980">
	<ele>1009.40</ele>
	<time>2024-03-25T09:28:18.000Z</time>
</trkpt>
<trkpt lat="45.8572270" lon="9.3262010">
	<ele>1009.40</ele>
	<time>2024-03-25T09:28:19.000Z</time>
</trkpt>
<trkpt lat="45.8572260" lon="9.3262030">
	<ele>1009.40</ele>
	<time>2024-03-25T09:28:20.000Z</time>
</trkpt>
<trkpt lat="45.8572240" lon="9.3262050">
	<ele>1009.40</ele>
	<time>2024-03-25T09:28:21.000Z</time>
</trkpt>
<trkpt lat="45.8572230" lon="9.3262060">
	<ele>1009.40</ele>
	<time>2024-03-25T09:28:22.000Z</time>
</trkpt>
<trkpt lat="45.8572210" lon="9.3262070">
	<ele>1009.40</ele>
	<time>2024-03-25T09:28:23.000Z</time>
</trkpt>
<trkpt lat="45.8572210" lon="9.3262080">
	<ele>1009.40</ele>
	<time>2024-03-25T09:28:24.000Z</time>
</trkpt>
<trkpt lat="45.8572200" lon="9.3262080">
	<ele>1009.40</ele>
	<time>2024-03-25T09:28:25.000Z</time>
</trkpt>
<trkpt lat="45.8572200" lon="9.3262090">
	<ele>1009.40</ele>
	<time>2024-03-25T09:28:26.000Z</time>
</trkpt>
<trkpt lat="45.8572200" lon="9.3262090">
	<ele>1009.40</ele>
	<time>2024-03-25T09:28:27.000Z</time>
</trkpt>
<trkpt lat="45.8572190" lon="9.3262100">
	<ele>1009.40</ele>
	<time>2024-03-25T09:28:28.000Z</time>
</trkpt>
<trkpt lat="45.8572190" lon="9.3262100">
	<ele>1009.40</ele>
	<time>2024-03-25T09:28:29.000Z</time>
</trkpt>
<trkpt lat="45.8572180" lon="9.3262110">
	<ele>1009.40</ele>
	<time>2024-03-25T09:28:30.000Z</time>
</trkpt>
<trkpt lat="45.8572180" lon="9.3262120">
	<ele>1009.40</ele>
	<time>2024-03-25T09:28:31.000Z</time>
</trkpt>
<trkpt lat="45.8572170" lon="9.3262120">
	<ele>1009.40</ele>
	<time>2024-03-25T09:28:32.000Z</time>
</trkpt>
<trkpt lat="45.8572160" lon="9.3262130">
	<ele>1009.40</ele>
	<time>2024-03-25T09:28:33.000Z</time>
</trkpt>
<trkpt lat="45.8572160" lon="9.3262140">
	<ele>1009.40</ele>
	<time>2024-03-25T09:28:34.000Z</time>
</trkpt>
<trkpt lat="45.8572150" lon="9.3262150">
	<ele>1009.40</ele>
	<time>2024-03-25T09:28:35.000Z</time>
</trkpt>
<trkpt lat="45.8572150" lon="9.3262160">
	<ele>1009.40</ele>
	<time>2024-03-25T09:28:36.000Z</time>
</trkpt>
<trkpt lat="45.8572150" lon="9.3262170">
	<ele>1009.40</ele>
	<time>2024-03-25T09:28:37.000Z</time>
</trkpt>
<trkpt lat="45.8572140" lon="9.3262170">
	<ele>1009.40</ele>
	<time>2024-03-25T09:28:38.000Z</time>
</trkpt>
<trkpt lat="45.8572140" lon="9.3262170">
	<ele>1009.40</ele>
	<time>2024-03-25T09:28:39.000Z</time>
</trkpt>
<trkpt lat="45.8572140" lon="9.3262170">
	<ele>1009.40</ele>
	<time>2024-03-25T09:28:40.000Z</time>
</trkpt>
<trkpt lat="45.8572130" lon="9.3262170">
	<ele>1009.40</ele>
	<time>2024-03-25T09:28:41.000Z</time>
</trkpt>
<trkpt lat="45.8572130" lon="9.3262170">
	<ele>1009.40</ele>
	<time>2024-03-25T09:28:42.000Z</time>
</trkpt>
<trkpt lat="45.8572130" lon="9.3262170">
	<ele>1009.40</ele>
	<time>2024-03-25T09:28:43.000Z</time>
</trkpt>
<trkpt lat="45.8572130" lon="9.3262170">
	<ele>1009.40</ele>
	<time>2024-03-25T09:28:44.000Z</time>
</trkpt>
<trkpt lat="45.8572130" lon="9.3262170">
	<ele>1009.40</ele>
	<time>2024-03-25T09:28:45.000Z</time>
</trkpt>
<trkpt lat="45.8572120" lon="9.3262170">
	<ele>1009.40</ele>
	<time>2024-03-25T09:28:46.000Z</time>
</trkpt>
<trkpt lat="45.8572120" lon="9.3262170">
	<ele>1009.40</ele>
	<time>2024-03-25T09:28:47.000Z</time>
</trkpt>
<trkpt lat="45.8572110" lon="9.3262170">
	<ele>1009.40</ele>
	<time>2024-03-25T09:28:48.000Z</time>
</trkpt>
<trkpt lat="45.8572110" lon="9.3262170">
	<ele>1009.40</ele>
	<time>2024-03-25T09:28:49.000Z</time>
</trkpt>
<trkpt lat="45.8572110" lon="9.3262170">
	<ele>1009.40</ele>
	<time>2024-03-25T09:28:50.000Z</time>
</trkpt>
<trkpt lat="45.8572110" lon="9.3262170">
	<ele>1009.40</ele>
	<time>2024-03-25T09:28:51.000Z</time>
</trkpt>
<trkpt lat="45.8572110" lon="9.3262160">
	<ele>1009.40</ele>
	<time>2024-03-25T09:28:52.000Z</time>
</trkpt>
<trkpt lat="45.8572110" lon="9.3262160">
	<ele>1009.40</ele>
	<time>2024-03-25T09:28:53.000Z</time>
</trkpt>
<trkpt lat="45.8572110" lon="9.3262150">
	<ele>1009.40</ele>
	<time>2024-03-25T09:28:54.000Z</time>
</trkpt>
<trkpt lat="45.8572110" lon="9.3262150">
	<ele>1009.40</ele>
	<time>2024-03-25T09:28:55.000Z</time>
</trkpt>
<trkpt lat="45.8572110" lon="9.3262150">
	<ele>1009.40</ele>
	<time>2024-03-25T09:28:56.000Z</time>
</trkpt>
<trkpt lat="45.8572110" lon="9.3262140">
	<ele>1009.40</ele>
	<time>2024-03-25T09:28:57.000Z</time>
</trkpt>
<trkpt lat="45.8572110" lon="9.3262140">
	<ele>1009.40</ele>
	<time>2024-03-25T09:28:58.000Z</time>
</trkpt>
<trkpt lat="45.8572110" lon="9.3262130">
	<ele>1009.40</ele>
	<time>2024-03-25T09:28:59.000Z</time>
</trkpt>
<trkpt lat="45.8572110" lon="9.3262120">
	<ele>1009.40</ele>
	<time>2024-03-25T09:29:00.000Z</time>
</trkpt>
<trkpt lat="45.8572110" lon="9.3262110">
	<ele>1009.40</ele>
	<time>2024-03-25T09:29:01.000Z</time>
</trkpt>
<trkpt lat="45.8572110" lon="9.3262100">
	<ele>1009.40</ele>
	<time>2024-03-25T09:29:02.000Z</time>
</trkpt>
<trkpt lat="45.8572110" lon="9.3262100">
	<ele>1009.40</ele>
	<time>2024-03-25T09:29:03.000Z</time>
</trkpt>
<trkpt lat="45.8572110" lon="9.3262090">
	<ele>1009.40</ele>
	<time>2024-03-25T09:29:04.000Z</time>
</trkpt>
<trkpt lat="45.8572110" lon="9.3262090">
	<ele>1009.40</ele>
	<time>2024-03-25T09:29:05.000Z</time>
</trkpt>
<trkpt lat="45.8572110" lon="9.3262090">
	<ele>1009.40</ele>
	<time>2024-03-25T09:29:06.000Z</time>
</trkpt>
<trkpt lat="45.8572110" lon="9.3262090">
	<ele>1009.40</ele>
	<time>2024-03-25T09:29:07.000Z</time>
</trkpt>
<trkpt lat="45.8572110" lon="9.3262080">
	<ele>1009.40</ele>
	<time>2024-03-25T09:29:08.000Z</time>
</trkpt>
<trkpt lat="45.8572110" lon="9.3262080">
	<ele>1009.40</ele>
	<time>2024-03-25T09:29:09.000Z</time>
</trkpt>
<trkpt lat="45.8572110" lon="9.3262080">
	<ele>1009.40</ele>
	<time>2024-03-25T09:29:10.000Z</time>
</trkpt>
<trkpt lat="45.8572110" lon="9.3262070">
	<ele>1009.40</ele>
	<time>2024-03-25T09:29:11.000Z</time>
</trkpt>
<trkpt lat="45.8572110" lon="9.3262060">
	<ele>1009.40</ele>
	<time>2024-03-25T09:29:12.000Z</time>
</trkpt>
<trkpt lat="45.8572050" lon="9.3262020">
	<ele>1009.40</ele>
	<time>2024-03-25T09:29:13.000Z</time>
</trkpt>
<trkpt lat="45.8571870" lon="9.3261920">
	<ele>1009.40</ele>
	<time>2024-03-25T09:29:14.000Z</time>
</trkpt>
<trkpt lat="45.8571640" lon="9.3261800">
	<ele>1009.40</ele>
	<time>2024-03-25T09:29:15.000Z</time>
</trkpt>
<trkpt lat="45.8571470" lon="9.3261670">
	<ele>1009.40</ele>
	<time>2024-03-25T09:29:16.000Z</time>
</trkpt>
<trkpt lat="45.8571290" lon="9.3261560">
	<ele>1009.40</ele>
	<time>2024-03-25T09:29:17.000Z</time>
</trkpt>
<trkpt lat="45.8571110" lon="9.3261490">
	<ele>1009.40</ele>
	<time>2024-03-25T09:29:18.000Z</time>
</trkpt>
<trkpt lat="45.8571010" lon="9.3261440">
	<ele>1009.40</ele>
	<time>2024-03-25T09:29:19.000Z</time>
</trkpt>
<trkpt lat="45.8570920" lon="9.3261350">
	<ele>1009.40</ele>
	<time>2024-03-25T09:29:20.000Z</time>
</trkpt>
<trkpt lat="45.8570780" lon="9.3261310">
	<ele>1009.40</ele>
	<time>2024-03-25T09:29:21.000Z</time>
</trkpt>
<trkpt lat="45.8570610" lon="9.3261260">
	<ele>1009.40</ele>
	<time>2024-03-25T09:29:22.000Z</time>
</trkpt>
<trkpt lat="45.8570540" lon="9.3261250">
	<ele>1009.40</ele>
	<time>2024-03-25T09:29:23.000Z</time>
</trkpt>
<trkpt lat="45.8570440" lon="9.3261200">
	<ele>1009.20</ele>
	<time>2024-03-25T09:29:24.000Z</time>
</trkpt>
<trkpt lat="45.8570390" lon="9.3261180">
	<ele>1009.20</ele>
	<time>2024-03-25T09:29:25.000Z</time>
</trkpt>
<trkpt lat="45.8570380" lon="9.3261180">
	<ele>1009.00</ele>
	<time>2024-03-25T09:29:26.000Z</time>
</trkpt>
<trkpt lat="45.8570340" lon="9.3261140">
	<ele>1009.00</ele>
	<time>2024-03-25T09:29:27.000Z</time>
</trkpt>
<trkpt lat="45.8570310" lon="9.3261040">
	<ele>1009.00</ele>
	<time>2024-03-25T09:29:28.000Z</time>
</trkpt>
<trkpt lat="45.8570200" lon="9.3260920">
	<ele>1009.00</ele>
	<time>2024-03-25T09:29:29.000Z</time>
</trkpt>
<trkpt lat="45.8570170" lon="9.3260900">
	<ele>1009.00</ele>
	<time>2024-03-25T09:29:30.000Z</time>
</trkpt>
<trkpt lat="45.8570060" lon="9.3260870">
	<ele>1009.00</ele>
	<time>2024-03-25T09:29:31.000Z</time>
</trkpt>
<trkpt lat="45.8569950" lon="9.3260840">
	<ele>1009.00</ele>
	<time>2024-03-25T09:29:32.000Z</time>
</trkpt>
<trkpt lat="45.8569910" lon="9.3260860">
	<ele>1009.20</ele>
	<time>2024-03-25T09:29:33.000Z</time>
</trkpt>
<trkpt lat="45.8569870" lon="9.3260880">
	<ele>1009.20</ele>
	<time>2024-03-25T09:29:34.000Z</time>
</trkpt>
<trkpt lat="45.8569740" lon="9.3260820">
	<ele>1009.40</ele>
	<time>2024-03-25T09:29:35.000Z</time>
</trkpt>
<trkpt lat="45.8569670" lon="9.3260740">
	<ele>1009.40</ele>
	<time>2024-03-25T09:29:36.000Z</time>
</trkpt>
<trkpt lat="45.8569600" lon="9.3260630">
	<ele>1009.40</ele>
	<time>2024-03-25T09:29:37.000Z</time>
</trkpt>
<trkpt lat="45.8569510" lon="9.3260540">
	<ele>1009.60</ele>
	<time>2024-03-25T09:29:38.000Z</time>
</trkpt>
<trkpt lat="45.8569410" lon="9.3260490">
	<ele>1009.80</ele>
	<time>2024-03-25T09:29:39.000Z</time>
</trkpt>
<trkpt lat="45.8569290" lon="9.3260470">
	<ele>1010.00</ele>
	<time>2024-03-25T09:29:40.000Z</time>
</trkpt>
<trkpt lat="45.8569200" lon="9.3260480">
	<ele>1010.00</ele>
	<time>2024-03-25T09:29:41.000Z</time>
</trkpt>
<trkpt lat="45.8569180" lon="9.3260500">
	<ele>1010.20</ele>
	<time>2024-03-25T09:29:42.000Z</time>
</trkpt>
<trkpt lat="45.8569120" lon="9.3260470">
	<ele>1010.20</ele>
	<time>2024-03-25T09:29:43.000Z</time>
</trkpt>
<trkpt lat="45.8569050" lon="9.3260440">
	<ele>1010.20</ele>
	<time>2024-03-25T09:29:44.000Z</time>
</trkpt>
<trkpt lat="45.8568990" lon="9.3260390">
	<ele>1010.40</ele>
	<time>2024-03-25T09:29:45.000Z</time>
</trkpt>
<trkpt lat="45.8568910" lon="9.3260310">
	<ele>1010.40</ele>
	<time>2024-03-25T09:29:46.000Z</time>
</trkpt>
<trkpt lat="45.8568860" lon="9.3260310">
	<ele>1010.60</ele>
	<time>2024-03-25T09:29:47.000Z</time>
</trkpt>
<trkpt lat="45.8568760" lon="9.3260250">
	<ele>1010.60</ele>
	<time>2024-03-25T09:29:48.000Z</time>
</trkpt>
<trkpt lat="45.8568680" lon="9.3260130">
	<ele>1010.60</ele>
	<time>2024-03-25T09:29:49.000Z</time>
</trkpt>
<trkpt lat="45.8568640" lon="9.3259990">
	<ele>1010.80</ele>
	<time>2024-03-25T09:29:50.000Z</time>
</trkpt>
<trkpt lat="45.8568620" lon="9.3259810">
	<ele>1010.80</ele>
	<time>2024-03-25T09:29:51.000Z</time>
</trkpt>
<trkpt lat="45.8568600" lon="9.3259770">
	<ele>1011.00</ele>
	<time>2024-03-25T09:29:52.000Z</time>
</trkpt>
<trkpt lat="45.8568580" lon="9.3259640">
	<ele>1011.20</ele>
	<time>2024-03-25T09:29:53.000Z</time>
</trkpt>
<trkpt lat="45.8568520" lon="9.3259550">
	<ele>1011.40</ele>
	<time>2024-03-25T09:29:54.000Z</time>
</trkpt>
<trkpt lat="45.8568460" lon="9.3259470">
	<ele>1011.60</ele>
	<time>2024-03-25T09:29:55.000Z</time>
</trkpt>
<trkpt lat="45.8568350" lon="9.3259430">
	<ele>1011.80</ele>
	<time>2024-03-25T09:29:56.000Z</time>
</trkpt>
<trkpt lat="45.8568230" lon="9.3259370">
	<ele>1011.80</ele>
	<time>2024-03-25T09:29:57.000Z</time>
</trkpt>
<trkpt lat="45.8568090" lon="9.3259310">
	<ele>1012.00</ele>
	<time>2024-03-25T09:29:58.000Z</time>
</trkpt>
<trkpt lat="45.8567980" lon="9.3259310">
	<ele>1012.20</ele>
	<time>2024-03-25T09:29:59.000Z</time>
</trkpt>
<trkpt lat="45.8567940" lon="9.3259360">
	<ele>1012.40</ele>
	<time>2024-03-25T09:30:00.000Z</time>
</trkpt>
<trkpt lat="45.8567900" lon="9.3259370">
	<ele>1012.60</ele>
	<time>2024-03-25T09:30:01.000Z</time>
</trkpt>
<trkpt lat="45.8567850" lon="9.3259380">
	<ele>1012.60</ele>
	<time>2024-03-25T09:30:02.000Z</time>
</trkpt>
<trkpt lat="45.8567760" lon="9.3259300">
	<ele>1013.00</ele>
	<time>2024-03-25T09:30:03.000Z</time>
</trkpt>
<trkpt lat="45.8567690" lon="9.3259240">
	<ele>1013.20</ele>
	<time>2024-03-25T09:30:04.000Z</time>
</trkpt>
<trkpt lat="45.8567600" lon="9.3259170">
	<ele>1013.40</ele>
	<time>2024-03-25T09:30:05.000Z</time>
</trkpt>
<trkpt lat="45.8567500" lon="9.3259120">
	<ele>1013.60</ele>
	<time>2024-03-25T09:30:06.000Z</time>
</trkpt>
<trkpt lat="45.8567460" lon="9.3259090">
	<ele>1013.80</ele>
	<time>2024-03-25T09:30:07.000Z</time>
</trkpt>
<trkpt lat="45.8567410" lon="9.3259070">
	<ele>1014.20</ele>
	<time>2024-03-25T09:30:08.000Z</time>
</trkpt>
<trkpt lat="45.8567400" lon="9.3259050">
	<ele>1014.40</ele>
	<time>2024-03-25T09:30:09.000Z</time>
</trkpt>
<trkpt lat="45.8567350" lon="9.3259030">
	<ele>1014.40</ele>
	<time>2024-03-25T09:30:10.000Z</time>
</trkpt>
<trkpt lat="45.8567310" lon="9.3259050">
	<ele>1014.60</ele>
	<time>2024-03-25T09:30:11.000Z</time>
</trkpt>
<trkpt lat="45.8567170" lon="9.3259040">
	<ele>1014.80</ele>
	<time>2024-03-25T09:30:12.000Z</time>
</trkpt>
<trkpt lat="45.8567070" lon="9.3258980">
	<ele>1015.00</ele>
	<time>2024-03-25T09:30:13.000Z</time>
</trkpt>
<trkpt lat="45.8566990" lon="9.3258900">
	<ele>1015.20</ele>
	<time>2024-03-25T09:30:14.000Z</time>
</trkpt>
<trkpt lat="45.8566950" lon="9.3258870">
	<ele>1015.60</ele>
	<time>2024-03-25T09:30:15.000Z</time>
</trkpt>
<trkpt lat="45.8566850" lon="9.3258840">
	<ele>1015.80</ele>
	<time>2024-03-25T09:30:16.000Z</time>
</trkpt>
<trkpt lat="45.8566760" lon="9.3258800">
	<ele>1016.00</ele>
	<time>2024-03-25T09:30:17.000Z</time>
</trkpt>
<trkpt lat="45.8566710" lon="9.3258820">
	<ele>1016.20</ele>
	<time>2024-03-25T09:30:18.000Z</time>
</trkpt>
<trkpt lat="45.8566630" lon="9.3258770">
	<ele>1016.40</ele>
	<time>2024-03-25T09:30:19.000Z</time>
</trkpt>
<trkpt lat="45.8566530" lon="9.3258710">
	<ele>1016.60</ele>
	<time>2024-03-25T09:30:20.000Z</time>
</trkpt>
<trkpt lat="45.8566450" lon="9.3258690">
	<ele>1016.60</ele>
	<time>2024-03-25T09:30:21.000Z</time>
</trkpt>
<trkpt lat="45.8566410" lon="9.3258680">
	<ele>1016.80</ele>
	<time>2024-03-25T09:30:22.000Z</time>
</trkpt>
<trkpt lat="45.8566340" lon="9.3258640">
	<ele>1016.80</ele>
	<time>2024-03-25T09:30:23.000Z</time>
</trkpt>
<trkpt lat="45.8566320" lon="9.3258620">
	<ele>1017.00</ele>
	<time>2024-03-25T09:30:24.000Z</time>
</trkpt>
<trkpt lat="45.8566280" lon="9.3258600">
	<ele>1017.20</ele>
	<time>2024-03-25T09:30:25.000Z</time>
</trkpt>
<trkpt lat="45.8566210" lon="9.3258520">
	<ele>1017.40</ele>
	<time>2024-03-25T09:30:26.000Z</time>
</trkpt>
<trkpt lat="45.8566160" lon="9.3258530">
	<ele>1017.60</ele>
	<time>2024-03-25T09:30:27.000Z</time>
</trkpt>
<trkpt lat="45.8566010" lon="9.3258470">
	<ele>1017.80</ele>
	<time>2024-03-25T09:30:28.000Z</time>
</trkpt>
<trkpt lat="45.8565940" lon="9.3258380">
	<ele>1018.00</ele>
	<time>2024-03-25T09:30:29.000Z</time>
</trkpt>
<trkpt lat="45.8565830" lon="9.3258350">
	<ele>1018.20</ele>
	<time>2024-03-25T09:30:30.000Z</time>
</trkpt>
<trkpt lat="45.8565780" lon="9.3258310">
	<ele>1018.40</ele>
	<time>2024-03-25T09:30:31.000Z</time>
</trkpt>
<trkpt lat="45.8565720" lon="9.3258310">
	<ele>1018.60</ele>
	<time>2024-03-25T09:30:32.000Z</time>
</trkpt>
<trkpt lat="45.8565630" lon="9.3258230">
	<ele>1018.80</ele>
	<time>2024-03-25T09:30:33.000Z</time>
</trkpt>
<trkpt lat="45.8565510" lon="9.3258120">
	<ele>1019.00</ele>
	<time>2024-03-25T09:30:34.000Z</time>
</trkpt>
<trkpt lat="45.8565460" lon="9.3258100">
	<ele>1019.20</ele>
	<time>2024-03-25T09:30:35.000Z</time>
</trkpt>
<trkpt lat="45.8565390" lon="9.3258040">
	<ele>1019.60</ele>
	<time>2024-03-25T09:30:36.000Z</time>
</trkpt>
<trkpt lat="45.8565310" lon="9.3257960">
	<ele>1019.80</ele>
	<time>2024-03-25T09:30:37.000Z</time>
</trkpt>
<trkpt lat="45.8565250" lon="9.3257900">
	<ele>1019.80</ele>
	<time>2024-03-25T09:30:38.000Z</time>
</trkpt>
<trkpt lat="45.8565190" lon="9.3257890">
	<ele>1020.20</ele>
	<time>2024-03-25T09:30:39.000Z</time>
</trkpt>
<trkpt lat="45.8565120" lon="9.3257860">
	<ele>1020.40</ele>
	<time>2024-03-25T09:30:40.000Z</time>
</trkpt>
<trkpt lat="45.8565060" lon="9.3257770">
	<ele>1020.60</ele>
	<time>2024-03-25T09:30:41.000Z</time>
</trkpt>
<trkpt lat="45.8565080" lon="9.3257780">
	<ele>1020.80</ele>
	<time>2024-03-25T09:30:42.000Z</time>
</trkpt>
<trkpt lat="45.8565100" lon="9.3257810">
	<ele>1021.00</ele>
	<time>2024-03-25T09:30:43.000Z</time>
</trkpt>
<trkpt lat="45.8565090" lon="9.3257800">
	<ele>1021.00</ele>
	<time>2024-03-25T09:30:44.000Z</time>
</trkpt>
<trkpt lat="45.8565010" lon="9.3257740">
	<ele>1021.20</ele>
	<time>2024-03-25T09:30:45.000Z</time>
</trkpt>
<trkpt lat="45.8564990" lon="9.3257700">
	<ele>1021.60</ele>
	<time>2024-03-25T09:30:46.000Z</time>
</trkpt>
<trkpt lat="45.8564960" lon="9.3257590">
	<ele>1021.80</ele>
	<time>2024-03-25T09:30:47.000Z</time>
</trkpt>
<trkpt lat="45.8564850" lon="9.3257510">
	<ele>1021.80</ele>
	<time>2024-03-25T09:30:48.000Z</time>
</trkpt>
<trkpt lat="45.8564730" lon="9.3257500">
	<ele>1022.00</ele>
	<time>2024-03-25T09:30:49.000Z</time>
</trkpt>
<trkpt lat="45.8564650" lon="9.3257510">
	<ele>1022.00</ele>
	<time>2024-03-25T09:30:50.000Z</time>
</trkpt>
<trkpt lat="45.8564630" lon="9.3257530">
	<ele>1022.40</ele>
	<time>2024-03-25T09:30:51.000Z</time>
</trkpt>
<trkpt lat="45.8564610" lon="9.3257540">
	<ele>1022.60</ele>
	<time>2024-03-25T09:30:52.000Z</time>
</trkpt>
<trkpt lat="45.8564580" lon="9.3257570">
	<ele>1023.00</ele>
	<time>2024-03-25T09:30:53.000Z</time>
</trkpt>
<trkpt lat="45.8564560" lon="9.3257590">
	<ele>1023.20</ele>
	<time>2024-03-25T09:30:54.000Z</time>
</trkpt>
<trkpt lat="45.8564520" lon="9.3257520">
	<ele>1023.60</ele>
	<time>2024-03-25T09:30:55.000Z</time>
</trkpt>
<trkpt lat="45.8564490" lon="9.3257450">
	<ele>1023.80</ele>
	<time>2024-03-25T09:30:56.000Z</time>
</trkpt>
<trkpt lat="45.8564470" lon="9.3257420">
	<ele>1024.00</ele>
	<time>2024-03-25T09:30:57.000Z</time>
</trkpt>
<trkpt lat="45.8564420" lon="9.3257330">
	<ele>1024.20</ele>
	<time>2024-03-25T09:30:58.000Z</time>
</trkpt>
<trkpt lat="45.8564380" lon="9.3257340">
	<ele>1024.40</ele>
	<time>2024-03-25T09:30:59.000Z</time>
</trkpt>
<trkpt lat="45.8564360" lon="9.3257360">
	<ele>1024.60</ele>
	<time>2024-03-25T09:31:00.000Z</time>
</trkpt>
<trkpt lat="45.8564340" lon="9.3257370">
	<ele>1024.80</ele>
	<time>2024-03-25T09:31:01.000Z</time>
</trkpt>
<trkpt lat="45.8564300" lon="9.3257300">
	<ele>1025.00</ele>
	<time>2024-03-25T09:31:02.000Z</time>
</trkpt>
<trkpt lat="45.8564260" lon="9.3257290">
	<ele>1025.00</ele>
	<time>2024-03-25T09:31:03.000Z</time>
</trkpt>
<trkpt lat="45.8564270" lon="9.3257280">
	<ele>1025.20</ele>
	<time>2024-03-25T09:31:04.000Z</time>
</trkpt>
<trkpt lat="45.8564260" lon="9.3257300">
	<ele>1025.40</ele>
	<time>2024-03-25T09:31:05.000Z</time>
</trkpt>
<trkpt lat="45.8564210" lon="9.3257320">
	<ele>1025.40</ele>
	<time>2024-03-25T09:31:06.000Z</time>
</trkpt>
<trkpt lat="45.8564130" lon="9.3257280">
	<ele>1025.60</ele>
	<time>2024-03-25T09:31:07.000Z</time>
</trkpt>
<trkpt lat="45.8564100" lon="9.3257280">
	<ele>1025.80</ele>
	<time>2024-03-25T09:31:08.000Z</time>
</trkpt>
<trkpt lat="45.8563960" lon="9.3257190">
	<ele>1026.00</ele>
	<time>2024-03-25T09:31:09.000Z</time>
</trkpt>
<trkpt lat="45.8563820" lon="9.3257130">
	<ele>1026.20</ele>
	<time>2024-03-25T09:31:10.000Z</time>
</trkpt>
<trkpt lat="45.8563730" lon="9.3257050">
	<ele>1026.20</ele>
	<time>2024-03-25T09:31:11.000Z</time>
</trkpt>
<trkpt lat="45.8563700" lon="9.3257010">
	<ele>1026.40</ele>
	<time>2024-03-25T09:31:12.000Z</time>
</trkpt>
<trkpt lat="45.8563670" lon="9.3256970">
	<ele>1026.60</ele>
	<time>2024-03-25T09:31:13.000Z</time>
</trkpt>
<trkpt lat="45.8563620" lon="9.3256930">
	<ele>1026.80</ele>
	<time>2024-03-25T09:31:14.000Z</time>
</trkpt>
<trkpt lat="45.8563570" lon="9.3256910">
	<ele>1026.80</ele>
	<time>2024-03-25T09:31:15.000Z</time>
</trkpt>
<trkpt lat="45.8563520" lon="9.3256920">
	<ele>1027.00</ele>
	<time>2024-03-25T09:31:16.000Z</time>
</trkpt>
<trkpt lat="45.8563440" lon="9.3256910">
	<ele>1027.40</ele>
	<time>2024-03-25T09:31:17.000Z</time>
</trkpt>
<trkpt lat="45.8563310" lon="9.3256930">
	<ele>1027.40</ele>
	<time>2024-03-25T09:31:18.000Z</time>
</trkpt>
<trkpt lat="45.8563270" lon="9.3256970">
	<ele>1027.60</ele>
	<time>2024-03-25T09:31:19.000Z</time>
</trkpt>
<trkpt lat="45.8563220" lon="9.3256990">
	<ele>1028.00</ele>
	<time>2024-03-25T09:31:20.000Z</time>
</trkpt>
<trkpt lat="45.8563210" lon="9.3256990">
	<ele>1028.40</ele>
	<time>2024-03-25T09:31:21.000Z</time>
</trkpt>
<trkpt lat="45.8563180" lon="9.3256970">
	<ele>1028.60</ele>
	<time>2024-03-25T09:31:22.000Z</time>
</trkpt>
<trkpt lat="45.8563100" lon="9.3257000">
	<ele>1028.60</ele>
	<time>2024-03-25T09:31:23.000Z</time>
</trkpt>
<trkpt lat="45.8563110" lon="9.3257030">
	<ele>1028.80</ele>
	<time>2024-03-25T09:31:24.000Z</time>
</trkpt>
<trkpt lat="45.8563070" lon="9.3256980">
	<ele>1028.80</ele>
	<time>2024-03-25T09:31:25.000Z</time>
</trkpt>
<trkpt lat="45.8563060" lon="9.3256960">
	<ele>1029.00</ele>
	<time>2024-03-25T09:31:26.000Z</time>
</trkpt>
<trkpt lat="45.8563060" lon="9.3256930">
	<ele>1029.00</ele>
	<time>2024-03-25T09:31:27.000Z</time>
</trkpt>
<trkpt lat="45.8563030" lon="9.3256910">
	<ele>1029.20</ele>
	<time>2024-03-25T09:31:28.000Z</time>
</trkpt>
<trkpt lat="45.8562980" lon="9.3256940">
	<ele>1029.40</ele>
	<time>2024-03-25T09:31:29.000Z</time>
</trkpt>
<trkpt lat="45.8562940" lon="9.3256950">
	<ele>1029.60</ele>
	<time>2024-03-25T09:31:30.000Z</time>
</trkpt>
<trkpt lat="45.8562900" lon="9.3256940">
	<ele>1029.80</ele>
	<time>2024-03-25T09:31:31.000Z</time>
</trkpt>
<trkpt lat="45.8562840" lon="9.3256940">
	<ele>1029.80</ele>
	<time>2024-03-25T09:31:32.000Z</time>
</trkpt>
<trkpt lat="45.8562790" lon="9.3256950">
	<ele>1030.00</ele>
	<time>2024-03-25T09:31:33.000Z</time>
</trkpt>
<trkpt lat="45.8562750" lon="9.3256970">
	<ele>1030.20</ele>
	<time>2024-03-25T09:31:34.000Z</time>
</trkpt>
<trkpt lat="45.8562680" lon="9.3256990">
	<ele>1030.20</ele>
	<time>2024-03-25T09:31:35.000Z</time>
</trkpt>
<trkpt lat="45.8562630" lon="9.3256990">
	<ele>1030.60</ele>
	<time>2024-03-25T09:31:36.000Z</time>
</trkpt>
<trkpt lat="45.8562610" lon="9.3257040">
	<ele>1030.80</ele>
	<time>2024-03-25T09:31:37.000Z</time>
</trkpt>
<trkpt lat="45.8562560" lon="9.3257030">
	<ele>1030.80</ele>
	<time>2024-03-25T09:31:38.000Z</time>
</trkpt>
<trkpt lat="45.8562520" lon="9.3256990">
	<ele>1031.00</ele>
	<time>2024-03-25T09:31:39.000Z</time>
</trkpt>
<trkpt lat="45.8562460" lon="9.3256960">
	<ele>1031.00</ele>
	<time>2024-03-25T09:31:40.000Z</time>
</trkpt>
<trkpt lat="45.8562420" lon="9.3256940">
	<ele>1031.20</ele>
	<time>2024-03-25T09:31:41.000Z</time>
</trkpt>
<trkpt lat="45.8562390" lon="9.3256930">
	<ele>1031.20</ele>
	<time>2024-03-25T09:31:42.000Z</time>
</trkpt>
<trkpt lat="45.8562330" lon="9.3256920">
	<ele>1031.40</ele>
	<time>2024-03-25T09:31:43.000Z</time>
</trkpt>
<trkpt lat="45.8562260" lon="9.3256900">
	<ele>1031.60</ele>
	<time>2024-03-25T09:31:44.000Z</time>
</trkpt>
<trkpt lat="45.8562210" lon="9.3256870">
	<ele>1031.80</ele>
	<time>2024-03-25T09:31:45.000Z</time>
</trkpt>
<trkpt lat="45.8562220" lon="9.3256690">
	<ele>1031.80</ele>
	<time>2024-03-25T09:31:46.000Z</time>
</trkpt>
<trkpt lat="45.8562190" lon="9.3256670">
	<ele>1032.00</ele>
	<time>2024-03-25T09:31:47.000Z</time>
</trkpt>
<trkpt lat="45.8562170" lon="9.3256660">
	<ele>1032.00</ele>
	<time>2024-03-25T09:31:48.000Z</time>
</trkpt>
<trkpt lat="45.8562150" lon="9.3256650">
	<ele>1032.00</ele>
	<time>2024-03-25T09:31:49.000Z</time>
</trkpt>
<trkpt lat="45.8562140" lon="9.3256660">
	<ele>1032.00</ele>
	<time>2024-03-25T09:31:50.000Z</time>
</trkpt>
<trkpt lat="45.8562130" lon="9.3256670">
	<ele>1032.00</ele>
	<time>2024-03-25T09:31:51.000Z</time>
</trkpt>
<trkpt lat="45.8562130" lon="9.3256670">
	<ele>1032.00</ele>
	<time>2024-03-25T09:31:52.000Z</time>
</trkpt>
<trkpt lat="45.8562130" lon="9.3256670">
	<ele>1032.00</ele>
	<time>2024-03-25T09:31:53.000Z</time>
</trkpt>
<trkpt lat="45.8562120" lon="9.3256670">
	<ele>1032.20</ele>
	<time>2024-03-25T09:31:54.000Z</time>
</trkpt>
<trkpt lat="45.8562130" lon="9.3256670">
	<ele>1032.20</ele>
	<time>2024-03-25T09:31:55.000Z</time>
</trkpt>
<trkpt lat="45.8562130" lon="9.3256670">
	<ele>1032.20</ele>
	<time>2024-03-25T09:31:56.000Z</time>
</trkpt>
<trkpt lat="45.8562130" lon="9.3256670">
	<ele>1032.20</ele>
	<time>2024-03-25T09:31:57.000Z</time>
</trkpt>
<trkpt lat="45.8562130" lon="9.3256670">
	<ele>1032.20</ele>
	<time>2024-03-25T09:31:58.000Z</time>
</trkpt>
<trkpt lat="45.8562130" lon="9.3256670">
	<ele>1032.40</ele>
	<time>2024-03-25T09:31:59.000Z</time>
</trkpt>
<trkpt lat="45.8562130" lon="9.3256670">
	<ele>1032.40</ele>
	<time>2024-03-25T09:32:00.000Z</time>
</trkpt>
<trkpt lat="45.8562130" lon="9.3256670">
	<ele>1032.60</ele>
	<time>2024-03-25T09:32:01.000Z</time>
</trkpt>
<trkpt lat="45.8562130" lon="9.3256670">
	<ele>1032.60</ele>
	<time>2024-03-25T09:32:02.000Z</time>
</trkpt>
<trkpt lat="45.8562130" lon="9.3256670">
	<ele>1032.80</ele>
	<time>2024-03-25T09:32:03.000Z</time>
</trkpt>
<trkpt lat="45.8562130" lon="9.3256670">
	<ele>1032.80</ele>
	<time>2024-03-25T09:32:04.000Z</time>
</trkpt>
<trkpt lat="45.8562130" lon="9.3256670">
	<ele>1033.00</ele>
	<time>2024-03-25T09:32:05.000Z</time>
</trkpt>
<trkpt lat="45.8562130" lon="9.3256670">
	<ele>1033.20</ele>
	<time>2024-03-25T09:32:06.000Z</time>
</trkpt>
<trkpt lat="45.8562130" lon="9.3256670">
	<ele>1033.40</ele>
	<time>2024-03-25T09:32:07.000Z</time>
</trkpt>
<trkpt lat="45.8562130" lon="9.3256660">
	<ele>1033.60</ele>
	<time>2024-03-25T09:32:08.000Z</time>
</trkpt>
<trkpt lat="45.8562130" lon="9.3256660">
	<ele>1033.60</ele>
	<time>2024-03-25T09:32:09.000Z</time>
</trkpt>
<trkpt lat="45.8562130" lon="9.3256650">
	<ele>1033.60</ele>
	<time>2024-03-25T09:32:10.000Z</time>
</trkpt>
<trkpt lat="45.8562130" lon="9.3256600">
	<ele>1033.80</ele>
	<time>2024-03-25T09:32:11.000Z</time>
</trkpt>
<trkpt lat="45.8562130" lon="9.3256560">
	<ele>1033.80</ele>
	<time>2024-03-25T09:32:12.000Z</time>
</trkpt>
<trkpt lat="45.8562130" lon="9.3256520">
	<ele>1033.80</ele>
	<time>2024-03-25T09:32:13.000Z</time>
</trkpt>
<trkpt lat="45.8562130" lon="9.3256510">
	<ele>1033.80</ele>
	<time>2024-03-25T09:32:14.000Z</time>
</trkpt>
<trkpt lat="45.8562120" lon="9.3256450">
	<ele>1034.00</ele>
	<time>2024-03-25T09:32:15.000Z</time>
</trkpt>
<trkpt lat="45.8562110" lon="9.3256410">
	<ele>1034.00</ele>
	<time>2024-03-25T09:32:16.000Z</time>
</trkpt>
<trkpt lat="45.8562080" lon="9.3256400">
	<ele>1034.20</ele>
	<time>2024-03-25T09:32:17.000Z</time>
</trkpt>
<trkpt lat="45.8562060" lon="9.3256390">
	<ele>1034.40</ele>
	<time>2024-03-25T09:32:18.000Z</time>
</trkpt>
<trkpt lat="45.8562030" lon="9.3256370">
	<ele>1034.80</ele>
	<time>2024-03-25T09:32:19.000Z</time>
</trkpt>
<trkpt lat="45.8561980" lon="9.3256360">
	<ele>1035.00</ele>
	<time>2024-03-25T09:32:20.000Z</time>
</trkpt>
<trkpt lat="45.8561910" lon="9.3256340">
	<ele>1035.40</ele>
	<time>2024-03-25T09:32:21.000Z</time>
</trkpt>
<trkpt lat="45.8561870" lon="9.3256300">
	<ele>1035.60</ele>
	<time>2024-03-25T09:32:22.000Z</time>
</trkpt>
<trkpt lat="45.8561850" lon="9.3256280">
	<ele>1035.80</ele>
	<time>2024-03-25T09:32:23.000Z</time>
</trkpt>
<trkpt lat="45.8561840" lon="9.3256260">
	<ele>1035.80</ele>
	<time>2024-03-25T09:32:24.000Z</time>
</trkpt>
<trkpt lat="45.8561840" lon="9.3256220">
	<ele>1036.00</ele>
	<time>2024-03-25T09:32:25.000Z</time>
</trkpt>
<trkpt lat="45.8561830" lon="9.3256180">
	<ele>1036.20</ele>
	<time>2024-03-25T09:32:26.000Z</time>
</trkpt>
<trkpt lat="45.8561830" lon="9.3256150">
	<ele>1036.40</ele>
	<time>2024-03-25T09:32:27.000Z</time>
</trkpt>
<trkpt lat="45.8561830" lon="9.3256140">
	<ele>1036.60</ele>
	<time>2024-03-25T09:32:28.000Z</time>
</trkpt>
<trkpt lat="45.8561790" lon="9.3256140">
	<ele>1036.60</ele>
	<time>2024-03-25T09:32:29.000Z</time>
</trkpt>
<trkpt lat="45.8561780" lon="9.3256140">
	<ele>1036.80</ele>
	<time>2024-03-25T09:32:30.000Z</time>
</trkpt>
<trkpt lat="45.8561750" lon="9.3256140">
	<ele>1037.00</ele>
	<time>2024-03-25T09:32:31.000Z</time>
</trkpt>
<trkpt lat="45.8561740" lon="9.3256130">
	<ele>1037.00</ele>
	<time>2024-03-25T09:32:32.000Z</time>
</trkpt>
<trkpt lat="45.8561680" lon="9.3256130">
	<ele>1037.00</ele>
	<time>2024-03-25T09:32:33.000Z</time>
</trkpt>
<trkpt lat="45.8561640" lon="9.3256130">
	<ele>1037.20</ele>
	<time>2024-03-25T09:32:34.000Z</time>
</trkpt>
<trkpt lat="45.8561630" lon="9.3256130">
	<ele>1037.80</ele>
	<time>2024-03-25T09:32:35.000Z</time>
</trkpt>
<trkpt lat="45.8561620" lon="9.3256130">
	<ele>1038.00</ele>
	<time>2024-03-25T09:32:36.000Z</time>
</trkpt>
<trkpt lat="45.8561570" lon="9.3256130">
	<ele>1038.00</ele>
	<time>2024-03-25T09:32:37.000Z</time>
</trkpt>
<trkpt lat="45.8561520" lon="9.3256130">
	<ele>1038.20</ele>
	<time>2024-03-25T09:32:38.000Z</time>
</trkpt>
<trkpt lat="45.8561470" lon="9.3256130">
	<ele>1038.20</ele>
	<time>2024-03-25T09:32:39.000Z</time>
</trkpt>
<trkpt lat="45.8561450" lon="9.3256130">
	<ele>1038.40</ele>
	<time>2024-03-25T09:32:40.000Z</time>
</trkpt>
<trkpt lat="45.8561450" lon="9.3256130">
	<ele>1038.40</ele>
	<time>2024-03-25T09:32:41.000Z</time>
</trkpt>
<trkpt lat="45.8561440" lon="9.3256140">
	<ele>1038.60</ele>
	<time>2024-03-25T09:32:42.000Z</time>
</trkpt>
<trkpt lat="45.8561430" lon="9.3256150">
	<ele>1038.80</ele>
	<time>2024-03-25T09:32:43.000Z</time>
</trkpt>
<trkpt lat="45.8561430" lon="9.3256150">
	<ele>1039.00</ele>
	<time>2024-03-25T09:32:44.000Z</time>
</trkpt>
<trkpt lat="45.8561370" lon="9.3256150">
	<ele>1039.00</ele>
	<time>2024-03-25T09:32:45.000Z</time>
</trkpt>
<trkpt lat="45.8561330" lon="9.3256150">
	<ele>1039.20</ele>
	<time>2024-03-25T09:32:46.000Z</time>
</trkpt>
<trkpt lat="45.8561300" lon="9.3256150">
	<ele>1039.20</ele>
	<time>2024-03-25T09:32:47.000Z</time>
</trkpt>
<trkpt lat="45.8561270" lon="9.3256150">
	<ele>1039.40</ele>
	<time>2024-03-25T09:32:48.000Z</time>
</trkpt>
<trkpt lat="45.8561270" lon="9.3256150">
	<ele>1039.60</ele>
	<time>2024-03-25T09:32:49.000Z</time>
</trkpt>
<trkpt lat="45.8561260" lon="9.3256150">
	<ele>1039.80</ele>
	<time>2024-03-25T09:32:50.000Z</time>
</trkpt>
<trkpt lat="45.8561230" lon="9.3256150">
	<ele>1040.20</ele>
	<time>2024-03-25T09:32:51.000Z</time>
</trkpt>
<trkpt lat="45.8561170" lon="9.3256150">
	<ele>1040.40</ele>
	<time>2024-03-25T09:32:52.000Z</time>
</trkpt>
<trkpt lat="45.8561150" lon="9.3256150">
	<ele>1040.60</ele>
	<time>2024-03-25T09:32:53.000Z</time>
</trkpt>
<trkpt lat="45.8561130" lon="9.3256150">
	<ele>1040.60</ele>
	<time>2024-03-25T09:32:54.000Z</time>
</trkpt>
<trkpt lat="45.8561110" lon="9.3256150">
	<ele>1040.80</ele>
	<time>2024-03-25T09:32:55.000Z</time>
</trkpt>
<trkpt lat="45.8561110" lon="9.3256150">
	<ele>1041.00</ele>
	<time>2024-03-25T09:32:56.000Z</time>
</trkpt>
<trkpt lat="45.8561100" lon="9.3256150">
	<ele>1041.20</ele>
	<time>2024-03-25T09:32:57.000Z</time>
</trkpt>
<trkpt lat="45.8561090" lon="9.3256150">
	<ele>1041.40</ele>
	<time>2024-03-25T09:32:58.000Z</time>
</trkpt>
<trkpt lat="45.8561060" lon="9.3256140">
	<ele>1041.40</ele>
	<time>2024-03-25T09:32:59.000Z</time>
</trkpt>
<trkpt lat="45.8561010" lon="9.3256130">
	<ele>1041.60</ele>
	<time>2024-03-25T09:33:00.000Z</time>
</trkpt>
<trkpt lat="45.8560940" lon="9.3256120">
	<ele>1041.80</ele>
	<time>2024-03-25T09:33:01.000Z</time>
</trkpt>
<trkpt lat="45.8560910" lon="9.3256110">
	<ele>1041.80</ele>
	<time>2024-03-25T09:33:02.000Z</time>
</trkpt>
<trkpt lat="45.8560840" lon="9.3256080">
	<ele>1041.80</ele>
	<time>2024-03-25T09:33:03.000Z</time>
</trkpt>
<trkpt lat="45.8560770" lon="9.3256040">
	<ele>1042.00</ele>
	<time>2024-03-25T09:33:04.000Z</time>
</trkpt>
<trkpt lat="45.8560740" lon="9.3256000">
	<ele>1042.20</ele>
	<time>2024-03-25T09:33:05.000Z</time>
</trkpt>
<trkpt lat="45.8560730" lon="9.3255980">
	<ele>1042.40</ele>
	<time>2024-03-25T09:33:06.000Z</time>
</trkpt>
<trkpt lat="45.8560720" lon="9.3255970">
	<ele>1042.40</ele>
	<time>2024-03-25T09:33:07.000Z</time>
</trkpt>
<trkpt lat="45.8560720" lon="9.3255950">
	<ele>1042.60</ele>
	<time>2024-03-25T09:33:08.000Z</time>
</trkpt>
<trkpt lat="45.8560710" lon="9.3255920">
	<ele>1042.80</ele>
	<time>2024-03-25T09:33:09.000Z</time>
</trkpt>
<trkpt lat="45.8560710" lon="9.3255870">
	<ele>1043.00</ele>
	<time>2024-03-25T09:33:10.000Z</time>
</trkpt>
<trkpt lat="45.8560650" lon="9.3255830">
	<ele>1043.00</ele>
	<time>2024-03-25T09:33:11.000Z</time>
</trkpt>
<trkpt lat="45.8560610" lon="9.3255790">
	<ele>1043.00</ele>
	<time>2024-03-25T09:33:12.000Z</time>
</trkpt>
<trkpt lat="45.8560590" lon="9.3255780">
	<ele>1043.20</ele>
	<time>2024-03-25T09:33:13.000Z</time>
</trkpt>
<trkpt lat="45.8560580" lon="9.3255770">
	<ele>1043.20</ele>
	<time>2024-03-25T09:33:14.000Z</time>
</trkpt>
<trkpt lat="45.8560580" lon="9.3255770">
	<ele>1043.40</ele>
	<time>2024-03-25T09:33:15.000Z</time>
</trkpt>
<trkpt lat="45.8560550" lon="9.3255760">
	<ele>1043.40</ele>
	<time>2024-03-25T09:33:16.000Z</time>
</trkpt>
<trkpt lat="45.8560530" lon="9.3255750">
	<ele>1043.60</ele>
	<time>2024-03-25T09:33:17.000Z</time>
</trkpt>
<trkpt lat="45.8560480" lon="9.3255750">
	<ele>1043.60</ele>
	<time>2024-03-25T09:33:18.000Z</time>
</trkpt>
<trkpt lat="45.8560450" lon="9.3255750">
	<ele>1043.80</ele>
	<time>2024-03-25T09:33:19.000Z</time>
</trkpt>
<trkpt lat="45.8560410" lon="9.3255750">
	<ele>1044.00</ele>
	<time>2024-03-25T09:33:20.000Z</time>
</trkpt>
<trkpt lat="45.8560370" lon="9.3255750">
	<ele>1044.20</ele>
	<time>2024-03-25T09:33:21.000Z</time>
</trkpt>
<trkpt lat="45.8560350" lon="9.3255750">
	<ele>1044.20</ele>
	<time>2024-03-25T09:33:22.000Z</time>
</trkpt>
<trkpt lat="45.8560340" lon="9.3255750">
	<ele>1044.40</ele>
	<time>2024-03-25T09:33:23.000Z</time>
</trkpt>
<trkpt lat="45.8560330" lon="9.3255750">
	<ele>1044.60</ele>
	<time>2024-03-25T09:33:24.000Z</time>
</trkpt>
<trkpt lat="45.8560280" lon="9.3255750">
	<ele>1044.60</ele>
	<time>2024-03-25T09:33:25.000Z</time>
</trkpt>
<trkpt lat="45.8560240" lon="9.3255750">
	<ele>1044.80</ele>
	<time>2024-03-25T09:33:26.000Z</time>
</trkpt>
<trkpt lat="45.8560220" lon="9.3255750">
	<ele>1044.80</ele>
	<time>2024-03-25T09:33:27.000Z</time>
</trkpt>
<trkpt lat="45.8560190" lon="9.3255750">
	<ele>1045.20</ele>
	<time>2024-03-25T09:33:28.000Z</time>
</trkpt>
<trkpt lat="45.8560140" lon="9.3255760">
	<ele>1045.20</ele>
	<time>2024-03-25T09:33:29.000Z</time>
</trkpt>
<trkpt lat="45.8560110" lon="9.3255760">
	<ele>1045.40</ele>
	<time>2024-03-25T09:33:30.000Z</time>
</trkpt>
<trkpt lat="45.8560070" lon="9.3255770">
	<ele>1045.80</ele>
	<time>2024-03-25T09:33:31.000Z</time>
</trkpt>
<trkpt lat="45.8560030" lon="9.3255770">
	<ele>1045.80</ele>
	<time>2024-03-25T09:33:32.000Z</time>
</trkpt>
<trkpt lat="45.8560010" lon="9.3255770">
	<ele>1046.00</ele>
	<time>2024-03-25T09:33:33.000Z</time>
</trkpt>
<trkpt lat="45.8559980" lon="9.3255770">
	<ele>1046.00</ele>
	<time>2024-03-25T09:33:34.000Z</time>
</trkpt>
<trkpt lat="45.8559950" lon="9.3255770">
	<ele>1046.20</ele>
	<time>2024-03-25T09:33:35.000Z</time>
</trkpt>
<trkpt lat="45.8559930" lon="9.3255770">
	<ele>1046.20</ele>
	<time>2024-03-25T09:33:36.000Z</time>
</trkpt>
<trkpt lat="45.8559910" lon="9.3255770">
	<ele>1046.40</ele>
	<time>2024-03-25T09:33:37.000Z</time>
</trkpt>
<trkpt lat="45.8559860" lon="9.3255770">
	<ele>1047.00</ele>
	<time>2024-03-25T09:33:38.000Z</time>
</trkpt>
<trkpt lat="45.8559810" lon="9.3255770">
	<ele>1047.20</ele>
	<time>2024-03-25T09:33:39.000Z</time>
</trkpt>
<trkpt lat="45.8559790" lon="9.3255770">
	<ele>1047.40</ele>
	<time>2024-03-25T09:33:40.000Z</time>
</trkpt>
<trkpt lat="45.8559780" lon="9.3255770">
	<ele>1047.40</ele>
	<time>2024-03-25T09:33:41.000Z</time>
</trkpt>
<trkpt lat="45.8559770" lon="9.3255760">
	<ele>1047.60</ele>
	<time>2024-03-25T09:33:42.000Z</time>
</trkpt>
<trkpt lat="45.8559760" lon="9.3255750">
	<ele>1047.60</ele>
	<time>2024-03-25T09:33:43.000Z</time>
</trkpt>
<trkpt lat="45.8559750" lon="9.3255740">
	<ele>1047.80</ele>
	<time>2024-03-25T09:33:44.000Z</time>
</trkpt>
<trkpt lat="45.8559750" lon="9.3255730">
	<ele>1048.00</ele>
	<time>2024-03-25T09:33:45.000Z</time>
</trkpt>
<trkpt lat="45.8559740" lon="9.3255730">
	<ele>1048.00</ele>
	<time>2024-03-25T09:33:46.000Z</time>
</trkpt>
<trkpt lat="45.8559740" lon="9.3255700">
	<ele>1048.20</ele>
	<time>2024-03-25T09:33:47.000Z</time>
</trkpt>
<trkpt lat="45.8559730" lon="9.3255650">
	<ele>1048.20</ele>
	<time>2024-03-25T09:33:48.000Z</time>
</trkpt>
<trkpt lat="45.8559700" lon="9.3255600">
	<ele>1048.20</ele>
	<time>2024-03-25T09:33:49.000Z</time>
</trkpt>
<trkpt lat="45.8559640" lon="9.3255560">
	<ele>1048.40</ele>
	<time>2024-03-25T09:33:50.000Z</time>
</trkpt>
<trkpt lat="45.8559600" lon="9.3255520">
	<ele>1048.60</ele>
	<time>2024-03-25T09:33:51.000Z</time>
</trkpt>
<trkpt lat="45.8559570" lon="9.3255480">
	<ele>1049.00</ele>
	<time>2024-03-25T09:33:52.000Z</time>
</trkpt>
<trkpt lat="45.8559540" lon="9.3255460">
	<ele>1049.20</ele>
	<time>2024-03-25T09:33:53.000Z</time>
</trkpt>
<trkpt lat="45.8559520" lon="9.3255450">
	<ele>1049.20</ele>
	<time>2024-03-25T09:33:54.000Z</time>
</trkpt>
<trkpt lat="45.8559500" lon="9.3255440">
	<ele>1049.40</ele>
	<time>2024-03-25T09:33:55.000Z</time>
</trkpt>
<trkpt lat="45.8559480" lon="9.3255430">
	<ele>1049.40</ele>
	<time>2024-03-25T09:33:56.000Z</time>
</trkpt>
<trkpt lat="45.8559440" lon="9.3255430">
	<ele>1049.60</ele>
	<time>2024-03-25T09:33:57.000Z</time>
</trkpt>
<trkpt lat="45.8559400" lon="9.3255430">
	<ele>1049.80</ele>
	<time>2024-03-25T09:33:58.000Z</time>
</trkpt>
<trkpt lat="45.8559350" lon="9.3255430">
	<ele>1050.00</ele>
	<time>2024-03-25T09:33:59.000Z</time>
</trkpt>
<trkpt lat="45.8559310" lon="9.3255430">
	<ele>1050.00</ele>
	<time>2024-03-25T09:34:00.000Z</time>
</trkpt>
<trkpt lat="45.8559270" lon="9.3255430">
	<ele>1050.20</ele>
	<time>2024-03-25T09:34:01.000Z</time>
</trkpt>
<trkpt lat="45.8559230" lon="9.3255430">
	<ele>1050.40</ele>
	<time>2024-03-25T09:34:02.000Z</time>
</trkpt>
<trkpt lat="45.8559190" lon="9.3255430">
	<ele>1050.60</ele>
	<time>2024-03-25T09:34:03.000Z</time>
</trkpt>
<trkpt lat="45.8559140" lon="9.3255420">
	<ele>1050.80</ele>
	<time>2024-03-25T09:34:04.000Z</time>
</trkpt>
<trkpt lat="45.8559110" lon="9.3255410">
	<ele>1051.00</ele>
	<time>2024-03-25T09:34:05.000Z</time>
</trkpt>
<trkpt lat="45.8559080" lon="9.3255390">
	<ele>1051.00</ele>
	<time>2024-03-25T09:34:06.000Z</time>
</trkpt>
<trkpt lat="45.8559070" lon="9.3255370">
	<ele>1051.20</ele>
	<time>2024-03-25T09:34:07.000Z</time>
</trkpt>
<trkpt lat="45.8559040" lon="9.3255360">
	<ele>1051.40</ele>
	<time>2024-03-25T09:34:08.000Z</time>
</trkpt>
<trkpt lat="45.8559020" lon="9.3255350">
	<ele>1051.40</ele>
	<time>2024-03-25T09:34:09.000Z</time>
</trkpt>
<trkpt lat="45.8559000" lon="9.3255350">
	<ele>1051.60</ele>
	<time>2024-03-25T09:34:10.000Z</time>
</trkpt>
<trkpt lat="45.8558980" lon="9.3255350">
	<ele>1051.60</ele>
	<time>2024-03-25T09:34:11.000Z</time>
</trkpt>
<trkpt lat="45.8558960" lon="9.3255340">
	<ele>1051.80</ele>
	<time>2024-03-25T09:34:12.000Z</time>
</trkpt>
<trkpt lat="45.8558950" lon="9.3255340">
	<ele>1051.80</ele>
	<time>2024-03-25T09:34:13.000Z</time>
</trkpt>
<trkpt lat="45.8558940" lon="9.3255340">
	<ele>1052.00</ele>
	<time>2024-03-25T09:34:14.000Z</time>
</trkpt>
<trkpt lat="45.8558920" lon="9.3255340">
	<ele>1052.20</ele>
	<time>2024-03-25T09:34:15.000Z</time>
</trkpt>
<trkpt lat="45.8558910" lon="9.3255340">
	<ele>1052.20</ele>
	<time>2024-03-25T09:34:16.000Z</time>
</trkpt>
<trkpt lat="45.8558910" lon="9.3255340">
	<ele>1052.40</ele>
	<time>2024-03-25T09:34:17.000Z</time>
</trkpt>
<trkpt lat="45.8558900" lon="9.3255340">
	<ele>1052.40</ele>
	<time>2024-03-25T09:34:18.000Z</time>
</trkpt>
<trkpt lat="45.8558890" lon="9.3255340">
	<ele>1052.80</ele>
	<time>2024-03-25T09:34:19.000Z</time>
</trkpt>
<trkpt lat="45.8558890" lon="9.3255330">
	<ele>1053.00</ele>
	<time>2024-03-25T09:34:20.000Z</time>
</trkpt>
<trkpt lat="45.8558880" lon="9.3255310">
	<ele>1053.20</ele>
	<time>2024-03-25T09:34:21.000Z</time>
</trkpt>
<trkpt lat="45.8558870" lon="9.3255290">
	<ele>1053.20</ele>
	<time>2024-03-25T09:34:22.000Z</time>
</trkpt>
<trkpt lat="45.8558860" lon="9.3255260">
	<ele>1053.60</ele>
	<time>2024-03-25T09:34:23.000Z</time>
</trkpt>
<trkpt lat="45.8558840" lon="9.3255240">
	<ele>1053.60</ele>
	<time>2024-03-25T09:34:24.000Z</time>
</trkpt>
<trkpt lat="45.8558810" lon="9.3255210">
	<ele>1053.80</ele>
	<time>2024-03-25T09:34:25.000Z</time>
</trkpt>
<trkpt lat="45.8558780" lon="9.3255180">
	<ele>1053.80</ele>
	<time>2024-03-25T09:34:26.000Z</time>
</trkpt>
<trkpt lat="45.8558750" lon="9.3255150">
	<ele>1054.00</ele>
	<time>2024-03-25T09:34:27.000Z</time>
</trkpt>
<trkpt lat="45.8558710" lon="9.3255120">
	<ele>1054.00</ele>
	<time>2024-03-25T09:34:28.000Z</time>
</trkpt>
<trkpt lat="45.8558670" lon="9.3255080">
	<ele>1054.40</ele>
	<time>2024-03-25T09:34:29.000Z</time>
</trkpt>
<trkpt lat="45.8558650" lon="9.3255040">
	<ele>1054.60</ele>
	<time>2024-03-25T09:34:30.000Z</time>
</trkpt>
<trkpt lat="45.8558630" lon="9.3254990">
	<ele>1054.80</ele>
	<time>2024-03-25T09:34:31.000Z</time>
</trkpt>
<trkpt lat="45.8558610" lon="9.3254930">
	<ele>1055.00</ele>
	<time>2024-03-25T09:34:32.000Z</time>
</trkpt>
<trkpt lat="45.8558590" lon="9.3254860">
	<ele>1055.00</ele>
	<time>2024-03-25T09:34:33.000Z</time>
</trkpt>
<trkpt lat="45.8558570" lon="9.3254810">
	<ele>1055.20</ele>
	<time>2024-03-25T09:34:34.000Z</time>
</trkpt>
<trkpt lat="45.8558550" lon="9.3254760">
	<ele>1055.20</ele>
	<time>2024-03-25T09:34:35.000Z</time>
</trkpt>
<trkpt lat="45.8558530" lon="9.3254730">
	<ele>1055.40</ele>
	<time>2024-03-25T09:34:36.000Z</time>
</trkpt>
<trkpt lat="45.8558490" lon="9.3254710">
	<ele>1055.60</ele>
	<time>2024-03-25T09:34:37.000Z</time>
</trkpt>
<trkpt lat="45.8558440" lon="9.3254690">
	<ele>1055.80</ele>
	<time>2024-03-25T09:34:38.000Z</time>
</trkpt>
<trkpt lat="45.8558390" lon="9.3254670">
	<ele>1056.00</ele>
	<time>2024-03-25T09:34:39.000Z</time>
</trkpt>
<trkpt lat="45.8558340" lon="9.3254660">
	<ele>1056.00</ele>
	<time>2024-03-25T09:34:40.000Z</time>
</trkpt>
<trkpt lat="45.8558300" lon="9.3254650">
	<ele>1056.00</ele>
	<time>2024-03-25T09:34:41.000Z</time>
</trkpt>
<trkpt lat="45.8558260" lon="9.3254640">
	<ele>1056.00</ele>
	<time>2024-03-25T09:34:42.000Z</time>
</trkpt>
<trkpt lat="45.8558220" lon="9.3254630">
	<ele>1056.20</ele>
	<time>2024-03-25T09:34:43.000Z</time>
</trkpt>
<trkpt lat="45.8558190" lon="9.3254630">
	<ele>1056.20</ele>
	<time>2024-03-25T09:34:44.000Z</time>
</trkpt>
<trkpt lat="45.8558160" lon="9.3254630">
	<ele>1056.40</ele>
	<time>2024-03-25T09:34:45.000Z</time>
</trkpt>
<trkpt lat="45.8558120" lon="9.3254620">
	<ele>1056.60</ele>
	<time>2024-03-25T09:34:46.000Z</time>
</trkpt>
<trkpt lat="45.8558080" lon="9.3254620">
	<ele>1056.80</ele>
	<time>2024-03-25T09:34:47.000Z</time>
</trkpt>
<trkpt lat="45.8558040" lon="9.3254620">
	<ele>1056.80</ele>
	<time>2024-03-25T09:34:48.000Z</time>
</trkpt>
<trkpt lat="45.8558010" lon="9.3254610">
	<ele>1056.80</ele>
	<time>2024-03-25T09:34:49.000Z</time>
</trkpt>
<trkpt lat="45.8557980" lon="9.3254610">
	<ele>1056.80</ele>
	<time>2024-03-25T09:34:50.000Z</time>
</trkpt>
<trkpt lat="45.8557960" lon="9.3254610">
	<ele>1057.00</ele>
	<time>2024-03-25T09:34:51.000Z</time>
</trkpt>
<trkpt lat="45.8557940" lon="9.3254610">
	<ele>1057.00</ele>
	<time>2024-03-25T09:34:52.000Z</time>
</trkpt>
<trkpt lat="45.8557920" lon="9.3254610">
	<ele>1057.00</ele>
	<time>2024-03-25T09:34:53.000Z</time>
</trkpt>
<trkpt lat="45.8557910" lon="9.3254610">
	<ele>1057.00</ele>
	<time>2024-03-25T09:34:54.000Z</time>
</trkpt>
<trkpt lat="45.8557890" lon="9.3254610">
	<ele>1057.20</ele>
	<time>2024-03-25T09:34:55.000Z</time>
</trkpt>
<trkpt lat="45.8557880" lon="9.3254610">
	<ele>1057.40</ele>
	<time>2024-03-25T09:34:56.000Z</time>
</trkpt>
<trkpt lat="45.8557860" lon="9.3254610">
	<ele>1057.40</ele>
	<time>2024-03-25T09:34:57.000Z</time>
</trkpt>
<trkpt lat="45.8557850" lon="9.3254610">
	<ele>1057.40</ele>
	<time>2024-03-25T09:34:58.000Z</time>
</trkpt>
<trkpt lat="45.8557840" lon="9.3254610">
	<ele>1057.40</ele>
	<time>2024-03-25T09:34:59.000Z</time>
</trkpt>
<trkpt lat="45.8557820" lon="9.3254610">
	<ele>1057.40</ele>
	<time>2024-03-25T09:35:00.000Z</time>
</trkpt>
<trkpt lat="45.8557810" lon="9.3254610">
	<ele>1057.40</ele>
	<time>2024-03-25T09:35:01.000Z</time>
</trkpt>
<trkpt lat="45.8557800" lon="9.3254610">
	<ele>1057.40</ele>
	<time>2024-03-25T09:35:02.000Z</time>
</trkpt>
<trkpt lat="45.8557790" lon="9.3254610">
	<ele>1057.40</ele>
	<time>2024-03-25T09:35:03.000Z</time>
</trkpt>
<trkpt lat="45.8557780" lon="9.3254610">
	<ele>1057.20</ele>
	<time>2024-03-25T09:35:04.000Z</time>
</trkpt>
<trkpt lat="45.8557770" lon="9.3254610">
	<ele>1057.20</ele>
	<time>2024-03-25T09:35:05.000Z</time>
</trkpt>
<trkpt lat="45.8557770" lon="9.3254610">
	<ele>1057.20</ele>
	<time>2024-03-25T09:35:06.000Z</time>
</trkpt>
<trkpt lat="45.8557760" lon="9.3254620">
	<ele>1057.20</ele>
	<time>2024-03-25T09:35:07.000Z</time>
</trkpt>
<trkpt lat="45.8557750" lon="9.3254620">
	<ele>1057.20</ele>
	<time>2024-03-25T09:35:08.000Z</time>
</trkpt>
<trkpt lat="45.8557750" lon="9.3254620">
	<ele>1057.20</ele>
	<time>2024-03-25T09:35:09.000Z</time>
</trkpt>
<trkpt lat="45.8557740" lon="9.3254620">
	<ele>1057.40</ele>
	<time>2024-03-25T09:35:10.000Z</time>
</trkpt>
<trkpt lat="45.8557740" lon="9.3254620">
	<ele>1057.40</ele>
	<time>2024-03-25T09:35:11.000Z</time>
</trkpt>
<trkpt lat="45.8557740" lon="9.3254620">
	<ele>1057.40</ele>
	<time>2024-03-25T09:35:12.000Z</time>
</trkpt>
<trkpt lat="45.8557740" lon="9.3254620">
	<ele>1057.40</ele>
	<time>2024-03-25T09:35:13.000Z</time>
</trkpt>
<trkpt lat="45.8557730" lon="9.3254620">
	<ele>1057.60</ele>
	<time>2024-03-25T09:35:14.000Z</time>
</trkpt>
<trkpt lat="45.8557730" lon="9.3254610">
	<ele>1057.60</ele>
	<time>2024-03-25T09:35:15.000Z</time>
</trkpt>
<trkpt lat="45.8557730" lon="9.3254620">
	<ele>1057.40</ele>
	<time>2024-03-25T09:35:16.000Z</time>
</trkpt>
<trkpt lat="45.8557730" lon="9.3254620">
	<ele>1057.40</ele>
	<time>2024-03-25T09:35:17.000Z</time>
</trkpt>
<trkpt lat="45.8557730" lon="9.3254620">
	<ele>1057.40</ele>
	<time>2024-03-25T09:35:18.000Z</time>
</trkpt>
<trkpt lat="45.8557720" lon="9.3254620">
	<ele>1057.40</ele>
	<time>2024-03-25T09:35:19.000Z</time>
</trkpt>
<trkpt lat="45.8557720" lon="9.3254610">
	<ele>1057.40</ele>
	<time>2024-03-25T09:35:20.000Z</time>
</trkpt>
<trkpt lat="45.8557720" lon="9.3254610">
	<ele>1057.20</ele>
	<time>2024-03-25T09:35:21.000Z</time>
</trkpt>
<trkpt lat="45.8557720" lon="9.3254610">
	<ele>1057.20</ele>
	<time>2024-03-25T09:35:22.000Z</time>
</trkpt>
<trkpt lat="45.8557720" lon="9.3254600">
	<ele>1057.20</ele>
	<time>2024-03-25T09:35:23.000Z</time>
</trkpt>
<trkpt lat="45.8557710" lon="9.3254600">
	<ele>1057.00</ele>
	<time>2024-03-25T09:35:24.000Z</time>
</trkpt>
<trkpt lat="45.8557710" lon="9.3254600">
	<ele>1057.00</ele>
	<time>2024-03-25T09:35:25.000Z</time>
</trkpt>
<trkpt lat="45.8557710" lon="9.3254600">
	<ele>1057.00</ele>
	<time>2024-03-25T09:35:26.000Z</time>
</trkpt>
<trkpt lat="45.8557710" lon="9.3254600">
	<ele>1057.00</ele>
	<time>2024-03-25T09:35:27.000Z</time>
</trkpt>
<trkpt lat="45.8557710" lon="9.3254600">
	<ele>1057.00</ele>
	<time>2024-03-25T09:35:28.000Z</time>
</trkpt>
<trkpt lat="45.8557700" lon="9.3254600">
	<ele>1057.00</ele>
	<time>2024-03-25T09:35:29.000Z</time>
</trkpt>
<trkpt lat="45.8557700" lon="9.3254590">
	<ele>1057.20</ele>
	<time>2024-03-25T09:35:30.000Z</time>
</trkpt>
<trkpt lat="45.8557700" lon="9.3254590">
	<ele>1057.40</ele>
	<time>2024-03-25T09:35:31.000Z</time>
</trkpt>
<trkpt lat="45.8557700" lon="9.3254590">
	<ele>1057.60</ele>
	<time>2024-03-25T09:35:32.000Z</time>
</trkpt>
<trkpt lat="45.8557700" lon="9.3254590">
	<ele>1057.60</ele>
	<time>2024-03-25T09:35:33.000Z</time>
</trkpt>
<trkpt lat="45.8557690" lon="9.3254590">
	<ele>1057.80</ele>
	<time>2024-03-25T09:35:34.000Z</time>
</trkpt>
<trkpt lat="45.8557690" lon="9.3254590">
	<ele>1057.80</ele>
	<time>2024-03-25T09:35:35.000Z</time>
</trkpt>
<trkpt lat="45.8557690" lon="9.3254590">
	<ele>1058.00</ele>
	<time>2024-03-25T09:35:36.000Z</time>
</trkpt>
<trkpt lat="45.8557680" lon="9.3254590">
	<ele>1058.20</ele>
	<time>2024-03-25T09:35:37.000Z</time>
</trkpt>
<trkpt lat="45.8557680" lon="9.3254590">
	<ele>1058.60</ele>
	<time>2024-03-25T09:35:38.000Z</time>
</trkpt>
<trkpt lat="45.8557680" lon="9.3254590">
	<ele>1058.60</ele>
	<time>2024-03-25T09:35:39.000Z</time>
</trkpt>
<trkpt lat="45.8557680" lon="9.3254590">
	<ele>1058.80</ele>
	<time>2024-03-25T09:35:40.000Z</time>
</trkpt>
<trkpt lat="45.8557670" lon="9.3254590">
	<ele>1059.00</ele>
	<time>2024-03-25T09:35:41.000Z</time>
</trkpt>
<trkpt lat="45.8557670" lon="9.3254590">
	<ele>1059.20</ele>
	<time>2024-03-25T09:35:42.000Z</time>
</trkpt>
<trkpt lat="45.8557670" lon="9.3254580">
	<ele>1059.20</ele>
	<time>2024-03-25T09:35:43.000Z</time>
</trkpt>
<trkpt lat="45.8557660" lon="9.3254580">
	<ele>1059.40</ele>
	<time>2024-03-25T09:35:44.000Z</time>
</trkpt>
<trkpt lat="45.8557660" lon="9.3254580">
	<ele>1059.60</ele>
	<time>2024-03-25T09:35:45.000Z</time>
</trkpt>
<trkpt lat="45.8557660" lon="9.3254580">
	<ele>1059.80</ele>
	<time>2024-03-25T09:35:46.000Z</time>
</trkpt>
<trkpt lat="45.8557520" lon="9.3254500">
	<ele>1059.80</ele>
	<time>2024-03-25T09:35:47.000Z</time>
</trkpt>
<trkpt lat="45.8557340" lon="9.3254360">
	<ele>1060.00</ele>
	<time>2024-03-25T09:35:48.000Z</time>
</trkpt>
<trkpt lat="45.8557150" lon="9.3254250">
	<ele>1060.20</ele>
	<time>2024-03-25T09:35:49.000Z</time>
</trkpt>
<trkpt lat="45.8556970" lon="9.3254140">
	<ele>1060.60</ele>
	<time>2024-03-25T09:35:50.000Z</time>
</trkpt>
<trkpt lat="45.8556780" lon="9.3254040">
	<ele>1060.80</ele>
	<time>2024-03-25T09:35:51.000Z</time>
</trkpt>
<trkpt lat="45.8556600" lon="9.3253950">
	<ele>1061.00</ele>
	<time>2024-03-25T09:35:52.000Z</time>
</trkpt>
<trkpt lat="45.8556430" lon="9.3253890">
	<ele>1061.40</ele>
	<time>2024-03-25T09:35:53.000Z</time>
</trkpt>
<trkpt lat="45.8556140" lon="9.3253680">
	<ele>1061.60</ele>
	<time>2024-03-25T09:35:54.000Z</time>
</trkpt>
<trkpt lat="45.8555990" lon="9.3253610">
	<ele>1061.80</ele>
	<time>2024-03-25T09:35:55.000Z</time>
</trkpt>
<trkpt lat="45.8555750" lon="9.3253410">
	<ele>1062.00</ele>
	<time>2024-03-25T09:35:56.000Z</time>
</trkpt>
<trkpt lat="45.8555670" lon="9.3253430">
	<ele>1062.20</ele>
	<time>2024-03-25T09:35:57.000Z</time>
</trkpt>
<trkpt lat="45.8555650" lon="9.3253470">
	<ele>1062.20</ele>
	<time>2024-03-25T09:35:58.000Z</time>
</trkpt>
<trkpt lat="45.8555650" lon="9.3253500">
	<ele>1062.60</ele>
	<time>2024-03-25T09:35:59.000Z</time>
</trkpt>
<trkpt lat="45.8555650" lon="9.3253520">
	<ele>1062.80</ele>
	<time>2024-03-25T09:36:00.000Z</time>
</trkpt>
<trkpt lat="45.8555600" lon="9.3253480">
	<ele>1062.80</ele>
	<time>2024-03-25T09:36:01.000Z</time>
</trkpt>
<trkpt lat="45.8555560" lon="9.3253500">
	<ele>1063.00</ele>
	<time>2024-03-25T09:36:02.000Z</time>
</trkpt>
<trkpt lat="45.8555490" lon="9.3253460">
	<ele>1063.40</ele>
	<time>2024-03-25T09:36:03.000Z</time>
</trkpt>
<trkpt lat="45.8555470" lon="9.3253450">
	<ele>1063.60</ele>
	<time>2024-03-25T09:36:04.000Z</time>
</trkpt>
<trkpt lat="45.8555430" lon="9.3253340">
	<ele>1063.80</ele>
	<time>2024-03-25T09:36:05.000Z</time>
</trkpt>
<trkpt lat="45.8555330" lon="9.3253250">
	<ele>1063.80</ele>
	<time>2024-03-25T09:36:06.000Z</time>
</trkpt>
<trkpt lat="45.8555290" lon="9.3253220">
	<ele>1064.00</ele>
	<time>2024-03-25T09:36:07.000Z</time>
</trkpt>
<trkpt lat="45.8555210" lon="9.3253210">
	<ele>1064.00</ele>
	<time>2024-03-25T09:36:08.000Z</time>
</trkpt>
<trkpt lat="45.8555120" lon="9.3253180">
	<ele>1064.00</ele>
	<time>2024-03-25T09:36:09.000Z</time>
</trkpt>
<trkpt lat="45.8555030" lon="9.3253120">
	<ele>1064.20</ele>
	<time>2024-03-25T09:36:10.000Z</time>
</trkpt>
<trkpt lat="45.8554950" lon="9.3253060">
	<ele>1064.40</ele>
	<time>2024-03-25T09:36:11.000Z</time>
</trkpt>
<trkpt lat="45.8554900" lon="9.3252990">
	<ele>1064.60</ele>
	<time>2024-03-25T09:36:12.000Z</time>
</trkpt>
<trkpt lat="45.8554860" lon="9.3252960">
	<ele>1064.80</ele>
	<time>2024-03-25T09:36:13.000Z</time>
</trkpt>
<trkpt lat="45.8554760" lon="9.3252920">
	<ele>1065.00</ele>
	<time>2024-03-25T09:36:14.000Z</time>
</trkpt>
<trkpt lat="45.8554650" lon="9.3252870">
	<ele>1065.00</ele>
	<time>2024-03-25T09:36:15.000Z</time>
</trkpt>
<trkpt lat="45.8554540" lon="9.3252830">
	<ele>1065.20</ele>
	<time>2024-03-25T09:36:16.000Z</time>
</trkpt>
<trkpt lat="45.8554510" lon="9.3252840">
	<ele>1065.60</ele>
	<time>2024-03-25T09:36:17.000Z</time>
</trkpt>
<trkpt lat="45.8554470" lon="9.3252790">
	<ele>1066.00</ele>
	<time>2024-03-25T09:36:18.000Z</time>
</trkpt>
<trkpt lat="45.8554450" lon="9.3252860">
	<ele>1066.20</ele>
	<time>2024-03-25T09:36:19.000Z</time>
</trkpt>
<trkpt lat="45.8554450" lon="9.3252880">
	<ele>1066.40</ele>
	<time>2024-03-25T09:36:20.000Z</time>
</trkpt>
<trkpt lat="45.8554330" lon="9.3252860">
	<ele>1066.60</ele>
	<time>2024-03-25T09:36:21.000Z</time>
</trkpt>
<trkpt lat="45.8554200" lon="9.3252870">
	<ele>1066.60</ele>
	<time>2024-03-25T09:36:22.000Z</time>
</trkpt>
<trkpt lat="45.8554120" lon="9.3252910">
	<ele>1066.80</ele>
	<time>2024-03-25T09:36:23.000Z</time>
</trkpt>
<trkpt lat="45.8554080" lon="9.3252950">
	<ele>1066.80</ele>
	<time>2024-03-25T09:36:24.000Z</time>
</trkpt>
<trkpt lat="45.8554030" lon="9.3253030">
	<ele>1067.20</ele>
	<time>2024-03-25T09:36:25.000Z</time>
</trkpt>
<trkpt lat="45.8553990" lon="9.3253060">
	<ele>1067.40</ele>
	<time>2024-03-25T09:36:26.000Z</time>
</trkpt>
<trkpt lat="45.8553970" lon="9.3253080">
	<ele>1067.60</ele>
	<time>2024-03-25T09:36:27.000Z</time>
</trkpt>
<trkpt lat="45.8553940" lon="9.3253070">
	<ele>1067.80</ele>
	<time>2024-03-25T09:36:28.000Z</time>
</trkpt>
<trkpt lat="45.8553930" lon="9.3253070">
	<ele>1068.00</ele>
	<time>2024-03-25T09:36:29.000Z</time>
</trkpt>
<trkpt lat="45.8553910" lon="9.3253040">
	<ele>1068.20</ele>
	<time>2024-03-25T09:36:30.000Z</time>
</trkpt>
<trkpt lat="45.8553910" lon="9.3253030">
	<ele>1068.40</ele>
	<time>2024-03-25T09:36:31.000Z</time>
</trkpt>
<trkpt lat="45.8553890" lon="9.3252990">
	<ele>1068.60</ele>
	<time>2024-03-25T09:36:32.000Z</time>
</trkpt>
<trkpt lat="45.8553880" lon="9.3252940">
	<ele>1068.80</ele>
	<time>2024-03-25T09:36:33.000Z</time>
</trkpt>
<trkpt lat="45.8553720" lon="9.3252840">
	<ele>1069.00</ele>
	<time>2024-03-25T09:36:34.000Z</time>
</trkpt>
<trkpt lat="45.8553710" lon="9.3252790">
	<ele>1069.00</ele>
	<time>2024-03-25T09:36:35.000Z</time>
</trkpt>
<trkpt lat="45.8553640" lon="9.3252730">
	<ele>1069.20</ele>
	<time>2024-03-25T09:36:36.000Z</time>
</trkpt>
<trkpt lat="45.8553570" lon="9.3252680">
	<ele>1069.40</ele>
	<time>2024-03-25T09:36:37.000Z</time>
</trkpt>
<trkpt lat="45.8553540" lon="9.3252640">
	<ele>1069.60</ele>
	<time>2024-03-25T09:36:38.000Z</time>
</trkpt>
<trkpt lat="45.8553530" lon="9.3252640">
	<ele>1069.80</ele>
	<time>2024-03-25T09:36:39.000Z</time>
</trkpt>
<trkpt lat="45.8553490" lon="9.3252530">
	<ele>1070.00</ele>
	<time>2024-03-25T09:36:40.000Z</time>
</trkpt>
<trkpt lat="45.8553480" lon="9.3252510">
	<ele>1070.20</ele>
	<time>2024-03-25T09:36:41.000Z</time>
</trkpt>
<trkpt lat="45.8553480" lon="9.3252430">
	<ele>1070.40</ele>
	<time>2024-03-25T09:36:42.000Z</time>
</trkpt>
<trkpt lat="45.8553480" lon="9.3252390">
	<ele>1070.60</ele>
	<time>2024-03-25T09:36:43.000Z</time>
</trkpt>
<trkpt lat="45.8553470" lon="9.3252340">
	<ele>1070.80</ele>
	<time>2024-03-25T09:36:44.000Z</time>
</trkpt>
<trkpt lat="45.8553460" lon="9.3252290">
	<ele>1070.80</ele>
	<time>2024-03-25T09:36:45.000Z</time>
</trkpt>
<trkpt lat="45.8553460" lon="9.3252270">
	<ele>1071.20</ele>
	<time>2024-03-25T09:36:46.000Z</time>
</trkpt>
<trkpt lat="45.8553460" lon="9.3252260">
	<ele>1071.40</ele>
	<time>2024-03-25T09:36:47.000Z</time>
</trkpt>
<trkpt lat="45.8553470" lon="9.3252220">
	<ele>1071.60</ele>
	<time>2024-03-25T09:36:48.000Z</time>
</trkpt>
<trkpt lat="45.8553450" lon="9.3252180">
	<ele>1071.80</ele>
	<time>2024-03-25T09:36:49.000Z</time>
</trkpt>
<trkpt lat="45.8553410" lon="9.3252060">
	<ele>1071.80</ele>
	<time>2024-03-25T09:36:50.000Z</time>
</trkpt>
<trkpt lat="45.8553300" lon="9.3251930">
	<ele>1072.00</ele>
	<time>2024-03-25T09:36:51.000Z</time>
</trkpt>
<trkpt lat="45.8553300" lon="9.3251940">
	<ele>1072.20</ele>
	<time>2024-03-25T09:36:52.000Z</time>
</trkpt>
<trkpt lat="45.8553270" lon="9.3251930">
	<ele>1072.20</ele>
	<time>2024-03-25T09:36:53.000Z</time>
</trkpt>
<trkpt lat="45.8553250" lon="9.3251940">
	<ele>1072.40</ele>
	<time>2024-03-25T09:36:54.000Z</time>
</trkpt>
<trkpt lat="45.8553230" lon="9.3251970">
	<ele>1072.60</ele>
	<time>2024-03-25T09:36:55.000Z</time>
</trkpt>
<trkpt lat="45.8553240" lon="9.3252010">
	<ele>1072.80</ele>
	<time>2024-03-25T09:36:56.000Z</time>
</trkpt>
<trkpt lat="45.8553240" lon="9.3252040">
	<ele>1073.00</ele>
	<time>2024-03-25T09:36:57.000Z</time>
</trkpt>
<trkpt lat="45.8553190" lon="9.3252120">
	<ele>1073.20</ele>
	<time>2024-03-25T09:36:58.000Z</time>
</trkpt>
<trkpt lat="45.8553120" lon="9.3252160">
	<ele>1073.20</ele>
	<time>2024-03-25T09:36:59.000Z</time>
</trkpt>
<trkpt lat="45.8553110" lon="9.3252190">
	<ele>1073.40</ele>
	<time>2024-03-25T09:37:00.000Z</time>
</trkpt>
<trkpt lat="45.8553100" lon="9.3252230">
	<ele>1073.60</ele>
	<time>2024-03-25T09:37:01.000Z</time>
</trkpt>
<trkpt lat="45.8553100" lon="9.3252240">
	<ele>1073.80</ele>
	<time>2024-03-25T09:37:02.000Z</time>
</trkpt>
<trkpt lat="45.8553070" lon="9.3252260">
	<ele>1073.80</ele>
	<time>2024-03-25T09:37:03.000Z</time>
</trkpt>
<trkpt lat="45.8552940" lon="9.3252210">
	<ele>1074.00</ele>
	<time>2024-03-25T09:37:04.000Z</time>
</trkpt>
<trkpt lat="45.8552840" lon="9.3252210">
	<ele>1074.00</ele>
	<time>2024-03-25T09:37:05.000Z</time>
</trkpt>
<trkpt lat="45.8552760" lon="9.3252240">
	<ele>1074.20</ele>
	<time>2024-03-25T09:37:06.000Z</time>
</trkpt>
<trkpt lat="45.8552720" lon="9.3252230">
	<ele>1074.20</ele>
	<time>2024-03-25T09:37:07.000Z</time>
</trkpt>
<trkpt lat="45.8552690" lon="9.3252200">
	<ele>1074.60</ele>
	<time>2024-03-25T09:37:08.000Z</time>
</trkpt>
<trkpt lat="45.8552590" lon="9.3252120">
	<ele>1074.80</ele>
	<time>2024-03-25T09:37:09.000Z</time>
</trkpt>
<trkpt lat="45.8552550" lon="9.3252090">
	<ele>1075.00</ele>
	<time>2024-03-25T09:37:10.000Z</time>
</trkpt>
<trkpt lat="45.8552530" lon="9.3252080">
	<ele>1075.20</ele>
	<time>2024-03-25T09:37:11.000Z</time>
</trkpt>
<trkpt lat="45.8552530" lon="9.3252030">
	<ele>1075.40</ele>
	<time>2024-03-25T09:37:12.000Z</time>
</trkpt>
<trkpt lat="45.8552550" lon="9.3252000">
	<ele>1075.40</ele>
	<time>2024-03-25T09:37:13.000Z</time>
</trkpt>
<trkpt lat="45.8552560" lon="9.3251980">
	<ele>1075.40</ele>
	<time>2024-03-25T09:37:14.000Z</time>
</trkpt>
<trkpt lat="45.8552560" lon="9.3251980">
	<ele>1075.60</ele>
	<time>2024-03-25T09:37:15.000Z</time>
</trkpt>
<trkpt lat="45.8552540" lon="9.3251810">
	<ele>1076.00</ele>
	<time>2024-03-25T09:37:16.000Z</time>
</trkpt>
<trkpt lat="45.8552470" lon="9.3251750">
	<ele>1076.20</ele>
	<time>2024-03-25T09:37:17.000Z</time>
</trkpt>
<trkpt lat="45.8552440" lon="9.3251750">
	<ele>1076.40</ele>
	<time>2024-03-25T09:37:18.000Z</time>
</trkpt>
<trkpt lat="45.8552390" lon="9.3251680">
	<ele>1076.60</ele>
	<time>2024-03-25T09:37:19.000Z</time>
</trkpt>
<trkpt lat="45.8552370" lon="9.3251690">
	<ele>1076.80</ele>
	<time>2024-03-25T09:37:20.000Z</time>
</trkpt>
<trkpt lat="45.8552340" lon="9.3251720">
	<ele>1077.00</ele>
	<time>2024-03-25T09:37:21.000Z</time>
</trkpt>
<trkpt lat="45.8552330" lon="9.3251740">
	<ele>1077.20</ele>
	<time>2024-03-25T09:37:22.000Z</time>
</trkpt>
<trkpt lat="45.8552290" lon="9.3251750">
	<ele>1077.40</ele>
	<time>2024-03-25T09:37:23.000Z</time>
</trkpt>
<trkpt lat="45.8552300" lon="9.3251750">
	<ele>1077.60</ele>
	<time>2024-03-25T09:37:24.000Z</time>
</trkpt>
<trkpt lat="45.8552270" lon="9.3251730">
	<ele>1077.60</ele>
	<time>2024-03-25T09:37:25.000Z</time>
</trkpt>
<trkpt lat="45.8552250" lon="9.3251700">
	<ele>1077.60</ele>
	<time>2024-03-25T09:37:26.000Z</time>
</trkpt>
<trkpt lat="45.8552250" lon="9.3251690">
	<ele>1077.80</ele>
	<time>2024-03-25T09:37:27.000Z</time>
</trkpt>
<trkpt lat="45.8552190" lon="9.3251650">
	<ele>1077.80</ele>
	<time>2024-03-25T09:37:28.000Z</time>
</trkpt>
<trkpt lat="45.8552110" lon="9.3251640">
	<ele>1077.80</ele>
	<time>2024-03-25T09:37:29.000Z</time>
</trkpt>
<trkpt lat="45.8552090" lon="9.3251630">
	<ele>1077.80</ele>
	<time>2024-03-25T09:37:30.000Z</time>
</trkpt>
<trkpt lat="45.8552080" lon="9.3251610">
	<ele>1078.00</ele>
	<time>2024-03-25T09:37:31.000Z</time>
</trkpt>
<trkpt lat="45.8552050" lon="9.3251610">
	<ele>1078.20</ele>
	<time>2024-03-25T09:37:32.000Z</time>
</trkpt>
<trkpt lat="45.8552030" lon="9.3251600">
	<ele>1078.40</ele>
	<time>2024-03-25T09:37:33.000Z</time>
</trkpt>
<trkpt lat="45.8552010" lon="9.3251600">
	<ele>1078.80</ele>
	<time>2024-03-25T09:37:34.000Z</time>
</trkpt>
<trkpt lat="45.8551990" lon="9.3251580">
	<ele>1079.00</ele>
	<time>2024-03-25T09:37:35.000Z</time>
</trkpt>
<trkpt lat="45.8551970" lon="9.3251570">
	<ele>1079.00</ele>
	<time>2024-03-25T09:37:36.000Z</time>
</trkpt>
<trkpt lat="45.8551930" lon="9.3251560">
	<ele>1079.20</ele>
	<time>2024-03-25T09:37:37.000Z</time>
</trkpt>
<trkpt lat="45.8551850" lon="9.3251470">
	<ele>1079.20</ele>
	<time>2024-03-25T09:37:38.000Z</time>
</trkpt>
<trkpt lat="45.8551810" lon="9.3251400">
	<ele>1079.40</ele>
	<time>2024-03-25T09:37:39.000Z</time>
</trkpt>
<trkpt lat="45.8551760" lon="9.3251280">
	<ele>1079.60</ele>
	<time>2024-03-25T09:37:40.000Z</time>
</trkpt>
<trkpt lat="45.8551740" lon="9.3251280">
	<ele>1079.80</ele>
	<time>2024-03-25T09:37:41.000Z</time>
</trkpt>
<trkpt lat="45.8551710" lon="9.3251280">
	<ele>1080.00</ele>
	<time>2024-03-25T09:37:42.000Z</time>
</trkpt>
<trkpt lat="45.8551690" lon="9.3251290">
	<ele>1080.00</ele>
	<time>2024-03-25T09:37:43.000Z</time>
</trkpt>
<trkpt lat="45.8551680" lon="9.3251300">
	<ele>1080.20</ele>
	<time>2024-03-25T09:37:44.000Z</time>
</trkpt>
<trkpt lat="45.8551600" lon="9.3251190">
	<ele>1080.40</ele>
	<time>2024-03-25T09:37:45.000Z</time>
</trkpt>
<trkpt lat="45.8551540" lon="9.3251190">
	<ele>1080.80</ele>
	<time>2024-03-25T09:37:46.000Z</time>
</trkpt>
<trkpt lat="45.8551490" lon="9.3251120">
	<ele>1081.00</ele>
	<time>2024-03-25T09:37:47.000Z</time>
</trkpt>
<trkpt lat="45.8551470" lon="9.3251100">
	<ele>1081.20</ele>
	<time>2024-03-25T09:37:48.000Z</time>
</trkpt>
<trkpt lat="45.8551420" lon="9.3251100">
	<ele>1081.40</ele>
	<time>2024-03-25T09:37:49.000Z</time>
</trkpt>
<trkpt lat="45.8551350" lon="9.3251170">
	<ele>1081.40</ele>
	<time>2024-03-25T09:37:50.000Z</time>
</trkpt>
<trkpt lat="45.8551330" lon="9.3251260">
	<ele>1081.40</ele>
	<time>2024-03-25T09:37:51.000Z</time>
</trkpt>
<trkpt lat="45.8551300" lon="9.3251310">
	<ele>1081.80</ele>
	<time>2024-03-25T09:37:52.000Z</time>
</trkpt>
<trkpt lat="45.8551140" lon="9.3251280">
	<ele>1082.00</ele>
	<time>2024-03-25T09:37:53.000Z</time>
</trkpt>
<trkpt lat="45.8551110" lon="9.3251290">
	<ele>1082.20</ele>
	<time>2024-03-25T09:37:54.000Z</time>
</trkpt>
<trkpt lat="45.8551080" lon="9.3251300">
	<ele>1082.40</ele>
	<time>2024-03-25T09:37:55.000Z</time>
</trkpt>
<trkpt lat="45.8550970" lon="9.3251300">
	<ele>1082.80</ele>
	<time>2024-03-25T09:37:56.000Z</time>
</trkpt>
<trkpt lat="45.8550890" lon="9.3251290">
	<ele>1083.00</ele>
	<time>2024-03-25T09:37:57.000Z</time>
</trkpt>
<trkpt lat="45.8550860" lon="9.3251280">
	<ele>1083.00</ele>
	<time>2024-03-25T09:37:58.000Z</time>
</trkpt>
<trkpt lat="45.8550830" lon="9.3251240">
	<ele>1083.20</ele>
	<time>2024-03-25T09:37:59.000Z</time>
</trkpt>
<trkpt lat="45.8550780" lon="9.3251200">
	<ele>1083.40</ele>
	<time>2024-03-25T09:38:00.000Z</time>
</trkpt>
<trkpt lat="45.8550720" lon="9.3251180">
	<ele>1083.40</ele>
	<time>2024-03-25T09:38:01.000Z</time>
</trkpt>
<trkpt lat="45.8550680" lon="9.3251200">
	<ele>1083.80</ele>
	<time>2024-03-25T09:38:02.000Z</time>
</trkpt>
<trkpt lat="45.8550600" lon="9.3251250">
	<ele>1083.80</ele>
	<time>2024-03-25T09:38:03.000Z</time>
</trkpt>
<trkpt lat="45.8550560" lon="9.3251280">
	<ele>1084.00</ele>
	<time>2024-03-25T09:38:04.000Z</time>
</trkpt>
<trkpt lat="45.8550510" lon="9.3251280">
	<ele>1084.20</ele>
	<time>2024-03-25T09:38:05.000Z</time>
</trkpt>
<trkpt lat="45.8550460" lon="9.3251300">
	<ele>1084.20</ele>
	<time>2024-03-25T09:38:06.000Z</time>
</trkpt>
<trkpt lat="45.8550360" lon="9.3251320">
	<ele>1084.40</ele>
	<time>2024-03-25T09:38:07.000Z</time>
</trkpt>
<trkpt lat="45.8550240" lon="9.3251350">
	<ele>1084.40</ele>
	<time>2024-03-25T09:38:08.000Z</time>
</trkpt>
<trkpt lat="45.8550150" lon="9.3251430">
	<ele>1084.80</ele>
	<time>2024-03-25T09:38:09.000Z</time>
</trkpt>
<trkpt lat="45.8550120" lon="9.3251480">
	<ele>1085.00</ele>
	<time>2024-03-25T09:38:10.000Z</time>
</trkpt>
<trkpt lat="45.8550060" lon="9.3251450">
	<ele>1085.20</ele>
	<time>2024-03-25T09:38:11.000Z</time>
</trkpt>
<trkpt lat="45.8549990" lon="9.3251430">
	<ele>1085.20</ele>
	<time>2024-03-25T09:38:12.000Z</time>
</trkpt>
<trkpt lat="45.8549930" lon="9.3251370">
	<ele>1085.20</ele>
	<time>2024-03-25T09:38:13.000Z</time>
</trkpt>
<trkpt lat="45.8549850" lon="9.3251290">
	<ele>1085.40</ele>
	<time>2024-03-25T09:38:14.000Z</time>
</trkpt>
<trkpt lat="45.8549820" lon="9.3251270">
	<ele>1085.40</ele>
	<time>2024-03-25T09:38:15.000Z</time>
</trkpt>
<trkpt lat="45.8549810" lon="9.3251270">
	<ele>1085.40</ele>
	<time>2024-03-25T09:38:16.000Z</time>
</trkpt>
<trkpt lat="45.8549790" lon="9.3251290">
	<ele>1085.60</ele>
	<time>2024-03-25T09:38:17.000Z</time>
</trkpt>
<trkpt lat="45.8549770" lon="9.3251320">
	<ele>1085.60</ele>
	<time>2024-03-25T09:38:18.000Z</time>
</trkpt>
<trkpt lat="45.8549740" lon="9.3251310">
	<ele>1085.80</ele>
	<time>2024-03-25T09:38:19.000Z</time>
</trkpt>
<trkpt lat="45.8549710" lon="9.3251310">
	<ele>1086.00</ele>
	<time>2024-03-25T09:38:20.000Z</time>
</trkpt>
<trkpt lat="45.8549590" lon="9.3251210">
	<ele>1086.20</ele>
	<time>2024-03-25T09:38:21.000Z</time>
</trkpt>
<trkpt lat="45.8549550" lon="9.3251100">
	<ele>1086.40</ele>
	<time>2024-03-25T09:38:22.000Z</time>
</trkpt>
<trkpt lat="45.8549540" lon="9.3250980">
	<ele>1086.40</ele>
	<time>2024-03-25T09:38:23.000Z</time>
</trkpt>
<trkpt lat="45.8549550" lon="9.3250970">
	<ele>1086.40</ele>
	<time>2024-03-25T09:38:24.000Z</time>
</trkpt>
<trkpt lat="45.8549530" lon="9.3250950">
	<ele>1086.60</ele>
	<time>2024-03-25T09:38:25.000Z</time>
</trkpt>
<trkpt lat="45.8549510" lon="9.3250950">
	<ele>1086.80</ele>
	<time>2024-03-25T09:38:26.000Z</time>
</trkpt>
<trkpt lat="45.8549500" lon="9.3250920">
	<ele>1087.20</ele>
	<time>2024-03-25T09:38:27.000Z</time>
</trkpt>
<trkpt lat="45.8549460" lon="9.3250790">
	<ele>1087.20</ele>
	<time>2024-03-25T09:38:28.000Z</time>
</trkpt>
<trkpt lat="45.8549420" lon="9.3250770">
	<ele>1087.40</ele>
	<time>2024-03-25T09:38:29.000Z</time>
</trkpt>
<trkpt lat="45.8549370" lon="9.3250700">
	<ele>1087.60</ele>
	<time>2024-03-25T09:38:30.000Z</time>
</trkpt>
<trkpt lat="45.8549360" lon="9.3250620">
	<ele>1087.80</ele>
	<time>2024-03-25T09:38:31.000Z</time>
</trkpt>
<trkpt lat="45.8549310" lon="9.3250620">
	<ele>1088.00</ele>
	<time>2024-03-25T09:38:32.000Z</time>
</trkpt>
<trkpt lat="45.8549270" lon="9.3250620">
	<ele>1088.00</ele>
	<time>2024-03-25T09:38:33.000Z</time>
</trkpt>
<trkpt lat="45.8549160" lon="9.3250550">
	<ele>1088.20</ele>
	<time>2024-03-25T09:38:34.000Z</time>
</trkpt>
<trkpt lat="45.8549130" lon="9.3250530">
	<ele>1088.20</ele>
	<time>2024-03-25T09:38:35.000Z</time>
</trkpt>
<trkpt lat="45.8549090" lon="9.3250500">
	<ele>1088.60</ele>
	<time>2024-03-25T09:38:36.000Z</time>
</trkpt>
<trkpt lat="45.8549080" lon="9.3250530">
	<ele>1088.80</ele>
	<time>2024-03-25T09:38:37.000Z</time>
</trkpt>
<trkpt lat="45.8549030" lon="9.3250540">
	<ele>1089.00</ele>
	<time>2024-03-25T09:38:38.000Z</time>
</trkpt>
<trkpt lat="45.8549010" lon="9.3250570">
	<ele>1089.20</ele>
	<time>2024-03-25T09:38:39.000Z</time>
</trkpt>
<trkpt lat="45.8548990" lon="9.3250620">
	<ele>1089.40</ele>
	<time>2024-03-25T09:38:40.000Z</time>
</trkpt>
<trkpt lat="45.8548980" lon="9.3250660">
	<ele>1089.60</ele>
	<time>2024-03-25T09:38:41.000Z</time>
</trkpt>
<trkpt lat="45.8548920" lon="9.3250610">
	<ele>1089.80</ele>
	<time>2024-03-25T09:38:42.000Z</time>
</trkpt>
<trkpt lat="45.8548880" lon="9.3250570">
	<ele>1089.80</ele>
	<time>2024-03-25T09:38:43.000Z</time>
</trkpt>
<trkpt lat="45.8548850" lon="9.3250570">
	<ele>1090.00</ele>
	<time>2024-03-25T09:38:44.000Z</time>
</trkpt>
<trkpt lat="45.8548810" lon="9.3250570">
	<ele>1090.00</ele>
	<time>2024-03-25T09:38:45.000Z</time>
</trkpt>
<trkpt lat="45.8548820" lon="9.3250560">
	<ele>1090.20</ele>
	<time>2024-03-25T09:38:46.000Z</time>
</trkpt>
<trkpt lat="45.8548840" lon="9.3250520">
	<ele>1090.20</ele>
	<time>2024-03-25T09:38:47.000Z</time>
</trkpt>
<trkpt lat="45.8548850" lon="9.3250510">
	<ele>1090.40</ele>
	<time>2024-03-25T09:38:48.000Z</time>
</trkpt>
<trkpt lat="45.8548860" lon="9.3250510">
	<ele>1090.60</ele>
	<time>2024-03-25T09:38:49.000Z</time>
</trkpt>
<trkpt lat="45.8548860" lon="9.3250510">
	<ele>1090.80</ele>
	<time>2024-03-25T09:38:50.000Z</time>
</trkpt>
<trkpt lat="45.8548860" lon="9.3250510">
	<ele>1090.80</ele>
	<time>2024-03-25T09:38:51.000Z</time>
</trkpt>
<trkpt lat="45.8548860" lon="9.3250510">
	<ele>1091.20</ele>
	<time>2024-03-25T09:38:52.000Z</time>
</trkpt>
<trkpt lat="45.8548860" lon="9.3250510">
	<ele>1091.40</ele>
	<time>2024-03-25T09:38:53.000Z</time>
</trkpt>
<trkpt lat="45.8548860" lon="9.3250510">
	<ele>1091.40</ele>
	<time>2024-03-25T09:38:54.000Z</time>
</trkpt>
<trkpt lat="45.8548860" lon="9.3250510">
	<ele>1091.60</ele>
	<time>2024-03-25T09:38:55.000Z</time>
</trkpt>
<trkpt lat="45.8548860" lon="9.3250510">
	<ele>1091.80</ele>
	<time>2024-03-25T09:38:56.000Z</time>
</trkpt>
<trkpt lat="45.8548860" lon="9.3250510">
	<ele>1091.80</ele>
	<time>2024-03-25T09:38:57.000Z</time>
</trkpt>
<trkpt lat="45.8548860" lon="9.3250510">
	<ele>1091.80</ele>
	<time>2024-03-25T09:38:58.000Z</time>
</trkpt>
<trkpt lat="45.8548860" lon="9.3250510">
	<ele>1092.00</ele>
	<time>2024-03-25T09:38:59.000Z</time>
</trkpt>
<trkpt lat="45.8548850" lon="9.3250510">
	<ele>1092.20</ele>
	<time>2024-03-25T09:39:00.000Z</time>
</trkpt>
<trkpt lat="45.8548850" lon="9.3250510">
	<ele>1092.20</ele>
	<time>2024-03-25T09:39:01.000Z</time>
</trkpt>
<trkpt lat="45.8548840" lon="9.3250510">
	<ele>1092.60</ele>
	<time>2024-03-25T09:39:02.000Z</time>
</trkpt>
<trkpt lat="45.8548840" lon="9.3250510">
	<ele>1092.80</ele>
	<time>2024-03-25T09:39:03.000Z</time>
</trkpt>
<trkpt lat="45.8548830" lon="9.3250510">
	<ele>1093.00</ele>
	<time>2024-03-25T09:39:04.000Z</time>
</trkpt>
<trkpt lat="45.8548830" lon="9.3250510">
	<ele>1093.40</ele>
	<time>2024-03-25T09:39:05.000Z</time>
</trkpt>
<trkpt lat="45.8548820" lon="9.3250500">
	<ele>1093.60</ele>
	<time>2024-03-25T09:39:06.000Z</time>
</trkpt>
<trkpt lat="45.8548810" lon="9.3250480">
	<ele>1093.60</ele>
	<time>2024-03-25T09:39:07.000Z</time>
</trkpt>
<trkpt lat="45.8548800" lon="9.3250450">
	<ele>1093.60</ele>
	<time>2024-03-25T09:39:08.000Z</time>
</trkpt>
<trkpt lat="45.8548750" lon="9.3250360">
	<ele>1093.80</ele>
	<time>2024-03-25T09:39:09.000Z</time>
</trkpt>
<trkpt lat="45.8548710" lon="9.3250290">
	<ele>1093.80</ele>
	<time>2024-03-25T09:39:10.000Z</time>
</trkpt>
<trkpt lat="45.8548690" lon="9.3250240">
	<ele>1094.00</ele>
	<time>2024-03-25T09:39:11.000Z</time>
</trkpt>
<trkpt lat="45.8548660" lon="9.3250200">
	<ele>1094.00</ele>
	<time>2024-03-25T09:39:12.000Z</time>
</trkpt>
<trkpt lat="45.8548620" lon="9.3250190">
	<ele>1094.00</ele>
	<time>2024-03-25T09:39:13.000Z</time>
</trkpt>
<trkpt lat="45.8548580" lon="9.3250170">
	<ele>1094.20</ele>
	<time>2024-03-25T09:39:14.000Z</time>
</trkpt>
<trkpt lat="45.8548540" lon="9.3250170">
	<ele>1094.40</ele>
	<time>2024-03-25T09:39:15.000Z</time>
</trkpt>
<trkpt lat="45.8548520" lon="9.3250150">
	<ele>1094.40</ele>
	<time>2024-03-25T09:39:16.000Z</time>
</trkpt>
<trkpt lat="45.8548510" lon="9.3250130">
	<ele>1094.60</ele>
	<time>2024-03-25T09:39:17.000Z</time>
</trkpt>
<trkpt lat="45.8548510" lon="9.3250130">
	<ele>1094.80</ele>
	<time>2024-03-25T09:39:18.000Z</time>
</trkpt>
<trkpt lat="45.8548480" lon="9.3250120">
	<ele>1095.00</ele>
	<time>2024-03-25T09:39:19.000Z</time>
</trkpt>
<trkpt lat="45.8548440" lon="9.3250120">
	<ele>1095.00</ele>
	<time>2024-03-25T09:39:20.000Z</time>
</trkpt>
<trkpt lat="45.8548390" lon="9.3250110">
	<ele>1095.20</ele>
	<time>2024-03-25T09:39:21.000Z</time>
</trkpt>
<trkpt lat="45.8548360" lon="9.3250110">
	<ele>1095.20</ele>
	<time>2024-03-25T09:39:22.000Z</time>
</trkpt>
<trkpt lat="45.8548330" lon="9.3250110">
	<ele>1095.40</ele>
	<time>2024-03-25T09:39:23.000Z</time>
</trkpt>
<trkpt lat="45.8548290" lon="9.3250100">
	<ele>1095.40</ele>
	<time>2024-03-25T09:39:24.000Z</time>
</trkpt>
<trkpt lat="45.8548280" lon="9.3250100">
	<ele>1095.80</ele>
	<time>2024-03-25T09:39:25.000Z</time>
</trkpt>
<trkpt lat="45.8548270" lon="9.3250100">
	<ele>1096.00</ele>
	<time>2024-03-25T09:39:26.000Z</time>
</trkpt>
<trkpt lat="45.8548240" lon="9.3250090">
	<ele>1096.20</ele>
	<time>2024-03-25T09:39:27.000Z</time>
</trkpt>
<trkpt lat="45.8548230" lon="9.3250080">
	<ele>1096.20</ele>
	<time>2024-03-25T09:39:28.000Z</time>
</trkpt>
<trkpt lat="45.8548220" lon="9.3250080">
	<ele>1096.40</ele>
	<time>2024-03-25T09:39:29.000Z</time>
</trkpt>
<trkpt lat="45.8548210" lon="9.3250060">
	<ele>1096.40</ele>
	<time>2024-03-25T09:39:30.000Z</time>
</trkpt>
<trkpt lat="45.8548200" lon="9.3250000">
	<ele>1096.40</ele>
	<time>2024-03-25T09:39:31.000Z</time>
</trkpt>
<trkpt lat="45.8548160" lon="9.3249920">
	<ele>1096.60</ele>
	<time>2024-03-25T09:39:32.000Z</time>
</trkpt>
<trkpt lat="45.8548130" lon="9.3249810">
	<ele>1096.60</ele>
	<time>2024-03-25T09:39:33.000Z</time>
</trkpt>
<trkpt lat="45.8548100" lon="9.3249670">
	<ele>1096.80</ele>
	<time>2024-03-25T09:39:34.000Z</time>
</trkpt>
<trkpt lat="45.8548090" lon="9.3249610">
	<ele>1097.00</ele>
	<time>2024-03-25T09:39:35.000Z</time>
</trkpt>
<trkpt lat="45.8548080" lon="9.3249550">
	<ele>1097.00</ele>
	<time>2024-03-25T09:39:36.000Z</time>
</trkpt>
<trkpt lat="45.8548040" lon="9.3249530">
	<ele>1097.40</ele>
	<time>2024-03-25T09:39:37.000Z</time>
</trkpt>
<trkpt lat="45.8547940" lon="9.3249520">
	<ele>1097.60</ele>
	<time>2024-03-25T09:39:38.000Z</time>
</trkpt>
<trkpt lat="45.8547820" lon="9.3249510">
	<ele>1097.60</ele>
	<time>2024-03-25T09:39:39.000Z</time>
</trkpt>
<trkpt lat="45.8547780" lon="9.3249500">
	<ele>1097.80</ele>
	<time>2024-03-25T09:39:40.000Z</time>
</trkpt>
<trkpt lat="45.8547770" lon="9.3249490">
	<ele>1097.80</ele>
	<time>2024-03-25T09:39:41.000Z</time>
</trkpt>
<trkpt lat="45.8547750" lon="9.3249480">
	<ele>1097.80</ele>
	<time>2024-03-25T09:39:42.000Z</time>
</trkpt>
<trkpt lat="45.8547720" lon="9.3249470">
	<ele>1098.00</ele>
	<time>2024-03-25T09:39:43.000Z</time>
</trkpt>
<trkpt lat="45.8547710" lon="9.3249460">
	<ele>1098.20</ele>
	<time>2024-03-25T09:39:44.000Z</time>
</trkpt>
<trkpt lat="45.8547700" lon="9.3249450">
	<ele>1098.40</ele>
	<time>2024-03-25T09:39:45.000Z</time>
</trkpt>
<trkpt lat="45.8547700" lon="9.3249440">
	<ele>1098.40</ele>
	<time>2024-03-25T09:39:46.000Z</time>
</trkpt>
<trkpt lat="45.8547690" lon="9.3249420">
	<ele>1098.60</ele>
	<time>2024-03-25T09:39:47.000Z</time>
</trkpt>
<trkpt lat="45.8547680" lon="9.3249410">
	<ele>1098.60</ele>
	<time>2024-03-25T09:39:48.000Z</time>
</trkpt>
<trkpt lat="45.8547620" lon="9.3249370">
	<ele>1098.60</ele>
	<time>2024-03-25T09:39:49.000Z</time>
</trkpt>
<trkpt lat="45.8547580" lon="9.3249340">
	<ele>1099.00</ele>
	<time>2024-03-25T09:39:50.000Z</time>
</trkpt>
<trkpt lat="45.8547570" lon="9.3249310">
	<ele>1099.40</ele>
	<time>2024-03-25T09:39:51.000Z</time>
</trkpt>
<trkpt lat="45.8547560" lon="9.3249290">
	<ele>1099.60</ele>
	<time>2024-03-25T09:39:52.000Z</time>
</trkpt>
<trkpt lat="45.8547550" lon="9.3249220">
	<ele>1099.80</ele>
	<time>2024-03-25T09:39:53.000Z</time>
</trkpt>
<trkpt lat="45.8547530" lon="9.3249180">
	<ele>1099.80</ele>
	<time>2024-03-25T09:39:54.000Z</time>
</trkpt>
<trkpt lat="45.8547490" lon="9.3249150">
	<ele>1100.00</ele>
	<time>2024-03-25T09:39:55.000Z</time>
</trkpt>
<trkpt lat="45.8547410" lon="9.3249140">
	<ele>1100.00</ele>
	<time>2024-03-25T09:39:56.000Z</time>
</trkpt>
<trkpt lat="45.8547370" lon="9.3249130">
	<ele>1100.20</ele>
	<time>2024-03-25T09:39:57.000Z</time>
</trkpt>
<trkpt lat="45.8547350" lon="9.3249120">
	<ele>1100.40</ele>
	<time>2024-03-25T09:39:58.000Z</time>
</trkpt>
<trkpt lat="45.8547340" lon="9.3249120">
	<ele>1100.40</ele>
	<time>2024-03-25T09:39:59.000Z</time>
</trkpt>
<trkpt lat="45.8547260" lon="9.3249100">
	<ele>1100.60</ele>
	<time>2024-03-25T09:40:00.000Z</time>
</trkpt>
<trkpt lat="45.8547210" lon="9.3249090">
	<ele>1100.60</ele>
	<time>2024-03-25T09:40:01.000Z</time>
</trkpt>
<trkpt lat="45.8547150" lon="9.3249070">
	<ele>1100.60</ele>
	<time>2024-03-25T09:40:02.000Z</time>
</trkpt>
<trkpt lat="45.8547080" lon="9.3249060">
	<ele>1100.80</ele>
	<time>2024-03-25T09:40:03.000Z</time>
</trkpt>
<trkpt lat="45.8547000" lon="9.3249050">
	<ele>1100.80</ele>
	<time>2024-03-25T09:40:04.000Z</time>
</trkpt>
<trkpt lat="45.8546950" lon="9.3249050">
	<ele>1101.00</ele>
	<time>2024-03-25T09:40:05.000Z</time>
</trkpt>
<trkpt lat="45.8546880" lon="9.3249040">
	<ele>1101.00</ele>
	<time>2024-03-25T09:40:06.000Z</time>
</trkpt>
<trkpt lat="45.8546840" lon="9.3249030">
	<ele>1101.00</ele>
	<time>2024-03-25T09:40:07.000Z</time>
</trkpt>
<trkpt lat="45.8546830" lon="9.3249010">
	<ele>1101.20</ele>
	<time>2024-03-25T09:40:08.000Z</time>
</trkpt>
<trkpt lat="45.8546820" lon="9.3249000">
	<ele>1101.40</ele>
	<time>2024-03-25T09:40:09.000Z</time>
</trkpt>
<trkpt lat="45.8546800" lon="9.3248990">
	<ele>1101.60</ele>
	<time>2024-03-25T09:40:10.000Z</time>
</trkpt>
<trkpt lat="45.8546770" lon="9.3248940">
	<ele>1102.00</ele>
	<time>2024-03-25T09:40:11.000Z</time>
</trkpt>
<trkpt lat="45.8546750" lon="9.3248910">
	<ele>1102.20</ele>
	<time>2024-03-25T09:40:12.000Z</time>
</trkpt>
<trkpt lat="45.8546710" lon="9.3248840">
	<ele>1102.40</ele>
	<time>2024-03-25T09:40:13.000Z</time>
</trkpt>
<trkpt lat="45.8546660" lon="9.3248770">
	<ele>1102.60</ele>
	<time>2024-03-25T09:40:14.000Z</time>
</trkpt>
<trkpt lat="45.8546630" lon="9.3248740">
	<ele>1102.80</ele>
	<time>2024-03-25T09:40:15.000Z</time>
</trkpt>
<trkpt lat="45.8546600" lon="9.3248700">
	<ele>1103.00</ele>
	<time>2024-03-25T09:40:16.000Z</time>
</trkpt>
<trkpt lat="45.8546580" lon="9.3248650">
	<ele>1103.20</ele>
	<time>2024-03-25T09:40:17.000Z</time>
</trkpt>
<trkpt lat="45.8546570" lon="9.3248620">
	<ele>1103.40</ele>
	<time>2024-03-25T09:40:18.000Z</time>
</trkpt>
<trkpt lat="45.8546510" lon="9.3248590">
	<ele>1103.60</ele>
	<time>2024-03-25T09:40:19.000Z</time>
</trkpt>
<trkpt lat="45.8546430" lon="9.3248540">
	<ele>1103.60</ele>
	<time>2024-03-25T09:40:20.000Z</time>
</trkpt>
<trkpt lat="45.8546360" lon="9.3248490">
	<ele>1103.60</ele>
	<time>2024-03-25T09:40:21.000Z</time>
</trkpt>
<trkpt lat="45.8546300" lon="9.3248470">
	<ele>1104.00</ele>
	<time>2024-03-25T09:40:22.000Z</time>
</trkpt>
<trkpt lat="45.8546260" lon="9.3248460">
	<ele>1104.20</ele>
	<time>2024-03-25T09:40:23.000Z</time>
</trkpt>
<trkpt lat="45.8546200" lon="9.3248410">
	<ele>1104.40</ele>
	<time>2024-03-25T09:40:24.000Z</time>
</trkpt>
<trkpt lat="45.8546140" lon="9.3248380">
	<ele>1104.40</ele>
	<time>2024-03-25T09:40:25.000Z</time>
</trkpt>
<trkpt lat="45.8546080" lon="9.3248290">
	<ele>1104.60</ele>
	<time>2024-03-25T09:40:26.000Z</time>
</trkpt>
<trkpt lat="45.8546030" lon="9.3248190">
	<ele>1104.80</ele>
	<time>2024-03-25T09:40:27.000Z</time>
</trkpt>
<trkpt lat="45.8546000" lon="9.3248130">
	<ele>1105.00</ele>
	<time>2024-03-25T09:40:28.000Z</time>
</trkpt>
<trkpt lat="45.8545980" lon="9.3248100">
	<ele>1105.00</ele>
	<time>2024-03-25T09:40:29.000Z</time>
</trkpt>
<trkpt lat="45.8545970" lon="9.3248080">
	<ele>1105.20</ele>
	<time>2024-03-25T09:40:30.000Z</time>
</trkpt>
<trkpt lat="45.8545960" lon="9.3248080">
	<ele>1105.40</ele>
	<time>2024-03-25T09:40:31.000Z</time>
</trkpt>
<trkpt lat="45.8545950" lon="9.3248070">
	<ele>1105.60</ele>
	<time>2024-03-25T09:40:32.000Z</time>
</trkpt>
<trkpt lat="45.8545940" lon="9.3248060">
	<ele>1105.80</ele>
	<time>2024-03-25T09:40:33.000Z</time>
</trkpt>
<trkpt lat="45.8545930" lon="9.3248060">
	<ele>1105.80</ele>
	<time>2024-03-25T09:40:34.000Z</time>
</trkpt>
<trkpt lat="45.8545920" lon="9.3248050">
	<ele>1106.00</ele>
	<time>2024-03-25T09:40:35.000Z</time>
</trkpt>
<trkpt lat="45.8545910" lon="9.3248040">
	<ele>1106.00</ele>
	<time>2024-03-25T09:40:36.000Z</time>
</trkpt>
<trkpt lat="45.8545900" lon="9.3248000">
	<ele>1106.20</ele>
	<time>2024-03-25T09:40:37.000Z</time>
</trkpt>
<trkpt lat="45.8545860" lon="9.3247920">
	<ele>1106.40</ele>
	<time>2024-03-25T09:40:38.000Z</time>
</trkpt>
<trkpt lat="45.8545830" lon="9.3247860">
	<ele>1106.60</ele>
	<time>2024-03-25T09:40:39.000Z</time>
</trkpt>
<trkpt lat="45.8545740" lon="9.3247760">
	<ele>1106.80</ele>
	<time>2024-03-25T09:40:40.000Z</time>
</trkpt>
<trkpt lat="45.8545640" lon="9.3247680">
	<ele>1106.80</ele>
	<time>2024-03-25T09:40:41.000Z</time>
</trkpt>
<trkpt lat="45.8545580" lon="9.3247630">
	<ele>1107.20</ele>
	<time>2024-03-25T09:40:42.000Z</time>
</trkpt>
<trkpt lat="45.8545550" lon="9.3247590">
	<ele>1107.40</ele>
	<time>2024-03-25T09:40:43.000Z</time>
</trkpt>
<trkpt lat="45.8545530" lon="9.3247560">
	<ele>1107.60</ele>
	<time>2024-03-25T09:40:44.000Z</time>
</trkpt>
<trkpt lat="45.8545510" lon="9.3247530">
	<ele>1107.60</ele>
	<time>2024-03-25T09:40:45.000Z</time>
</trkpt>
<trkpt lat="45.8545480" lon="9.3247510">
	<ele>1107.80</ele>
	<time>2024-03-25T09:40:46.000Z</time>
</trkpt>
<trkpt lat="45.8545430" lon="9.3247490">
	<ele>1107.80</ele>
	<time>2024-03-25T09:40:47.000Z</time>
</trkpt>
<trkpt lat="45.8545390" lon="9.3247470">
	<ele>1107.80</ele>
	<time>2024-03-25T09:40:48.000Z</time>
</trkpt>
<trkpt lat="45.8545350" lon="9.3247460">
	<ele>1108.00</ele>
	<time>2024-03-25T09:40:49.000Z</time>
</trkpt>
<trkpt lat="45.8545310" lon="9.3247450">
	<ele>1108.20</ele>
	<time>2024-03-25T09:40:50.000Z</time>
</trkpt>
<trkpt lat="45.8545250" lon="9.3247440">
	<ele>1108.40</ele>
	<time>2024-03-25T09:40:51.000Z</time>
</trkpt>
<trkpt lat="45.8545220" lon="9.3247430">
	<ele>1108.60</ele>
	<time>2024-03-25T09:40:52.000Z</time>
</trkpt>
<trkpt lat="45.8545180" lon="9.3247430">
	<ele>1108.60</ele>
	<time>2024-03-25T09:40:53.000Z</time>
</trkpt>
<trkpt lat="45.8545130" lon="9.3247430">
	<ele>1108.80</ele>
	<time>2024-03-25T09:40:54.000Z</time>
</trkpt>
<trkpt lat="45.8545090" lon="9.3247430">
	<ele>1109.00</ele>
	<time>2024-03-25T09:40:55.000Z</time>
</trkpt>
<trkpt lat="45.8545060" lon="9.3247430">
	<ele>1109.20</ele>
	<time>2024-03-25T09:40:56.000Z</time>
</trkpt>
<trkpt lat="45.8545050" lon="9.3247430">
	<ele>1109.40</ele>
	<time>2024-03-25T09:40:57.000Z</time>
</trkpt>
<trkpt lat="45.8545030" lon="9.3247430">
	<ele>1109.40</ele>
	<time>2024-03-25T09:40:58.000Z</time>
</trkpt>
<trkpt lat="45.8545030" lon="9.3247430">
	<ele>1109.60</ele>
	<time>2024-03-25T09:40:59.000Z</time>
</trkpt>
<trkpt lat="45.8545010" lon="9.3247430">
	<ele>1109.60</ele>
	<time>2024-03-25T09:41:00.000Z</time>
</trkpt>
<trkpt lat="45.8544990" lon="9.3247430">
	<ele>1109.80</ele>
	<time>2024-03-25T09:41:01.000Z</time>
</trkpt>
<trkpt lat="45.8544960" lon="9.3247430">
	<ele>1109.60</ele>
	<time>2024-03-25T09:41:02.000Z</time>
</trkpt>
<trkpt lat="45.8544930" lon="9.3247430">
	<ele>1109.80</ele>
	<time>2024-03-25T09:41:03.000Z</time>
</trkpt>
<trkpt lat="45.8544900" lon="9.3247430">
	<ele>1109.80</ele>
	<time>2024-03-25T09:41:04.000Z</time>
</trkpt>
<trkpt lat="45.8544880" lon="9.3247430">
	<ele>1109.80</ele>
	<time>2024-03-25T09:41:05.000Z</time>
</trkpt>
<trkpt lat="45.8544850" lon="9.3247440">
	<ele>1109.80</ele>
	<time>2024-03-25T09:41:06.000Z</time>
</trkpt>
<trkpt lat="45.8544830" lon="9.3247440">
	<ele>1109.80</ele>
	<time>2024-03-25T09:41:07.000Z</time>
</trkpt>
<trkpt lat="45.8544820" lon="9.3247440">
	<ele>1109.80</ele>
	<time>2024-03-25T09:41:08.000Z</time>
</trkpt>
<trkpt lat="45.8544810" lon="9.3247450">
	<ele>1109.80</ele>
	<time>2024-03-25T09:41:09.000Z</time>
</trkpt>
<trkpt lat="45.8544790" lon="9.3247450">
	<ele>1109.80</ele>
	<time>2024-03-25T09:41:10.000Z</time>
</trkpt>
<trkpt lat="45.8544750" lon="9.3247450">
	<ele>1109.80</ele>
	<time>2024-03-25T09:41:11.000Z</time>
</trkpt>
<trkpt lat="45.8544690" lon="9.3247460">
	<ele>1109.80</ele>
	<time>2024-03-25T09:41:12.000Z</time>
</trkpt>
<trkpt lat="45.8544620" lon="9.3247460">
	<ele>1109.80</ele>
	<time>2024-03-25T09:41:13.000Z</time>
</trkpt>
<trkpt lat="45.8544540" lon="9.3247460">
	<ele>1109.80</ele>
	<time>2024-03-25T09:41:14.000Z</time>
</trkpt>
<trkpt lat="45.8544480" lon="9.3247470">
	<ele>1109.80</ele>
	<time>2024-03-25T09:41:15.000Z</time>
</trkpt>
<trkpt lat="45.8544440" lon="9.3247470">
	<ele>1109.80</ele>
	<time>2024-03-25T09:41:16.000Z</time>
</trkpt>
<trkpt lat="45.8544410" lon="9.3247470">
	<ele>1109.80</ele>
	<time>2024-03-25T09:41:17.000Z</time>
</trkpt>
<trkpt lat="45.8544380" lon="9.3247470">
	<ele>1110.00</ele>
	<time>2024-03-25T09:41:18.000Z</time>
</trkpt>
<trkpt lat="45.8544370" lon="9.3247470">
	<ele>1110.00</ele>
	<time>2024-03-25T09:41:19.000Z</time>
</trkpt>
<trkpt lat="45.8544360" lon="9.3247470">
	<ele>1110.00</ele>
	<time>2024-03-25T09:41:20.000Z</time>
</trkpt>
<trkpt lat="45.8544350" lon="9.3247470">
	<ele>1110.00</ele>
	<time>2024-03-25T09:41:21.000Z</time>
</trkpt>
<trkpt lat="45.8544340" lon="9.3247470">
	<ele>1110.00</ele>
	<time>2024-03-25T09:41:22.000Z</time>
</trkpt>
<trkpt lat="45.8544340" lon="9.3247470">
	<ele>1110.00</ele>
	<time>2024-03-25T09:41:23.000Z</time>
</trkpt>
<trkpt lat="45.8544330" lon="9.3247470">
	<ele>1110.00</ele>
	<time>2024-03-25T09:41:24.000Z</time>
</trkpt>
<trkpt lat="45.8544330" lon="9.3247470">
	<ele>1110.00</ele>
	<time>2024-03-25T09:41:25.000Z</time>
</trkpt>
<trkpt lat="45.8544330" lon="9.3247470">
	<ele>1110.00</ele>
	<time>2024-03-25T09:41:26.000Z</time>
</trkpt>
<trkpt lat="45.8544330" lon="9.3247470">
	<ele>1110.00</ele>
	<time>2024-03-25T09:41:27.000Z</time>
</trkpt>
<trkpt lat="45.8544330" lon="9.3247460">
	<ele>1109.80</ele>
	<time>2024-03-25T09:41:28.000Z</time>
</trkpt>
<trkpt lat="45.8544330" lon="9.3247460">
	<ele>1109.80</ele>
	<time>2024-03-25T09:41:29.000Z</time>
</trkpt>
<trkpt lat="45.8544330" lon="9.3247460">
	<ele>1109.80</ele>
	<time>2024-03-25T09:41:30.000Z</time>
</trkpt>
<trkpt lat="45.8544330" lon="9.3247460">
	<ele>1109.80</ele>
	<time>2024-03-25T09:41:31.000Z</time>
</trkpt>
<trkpt lat="45.8544330" lon="9.3247460">
	<ele>1109.80</ele>
	<time>2024-03-25T09:41:32.000Z</time>
</trkpt>
<trkpt lat="45.8544330" lon="9.3247460">
	<ele>1109.80</ele>
	<time>2024-03-25T09:41:33.000Z</time>
</trkpt>
<trkpt lat="45.8544330" lon="9.3247450">
	<ele>1109.80</ele>
	<time>2024-03-25T09:41:34.000Z</time>
</trkpt>
<trkpt lat="45.8544340" lon="9.3247450">
	<ele>1109.80</ele>
	<time>2024-03-25T09:41:35.000Z</time>
</trkpt>
<trkpt lat="45.8544340" lon="9.3247450">
	<ele>1109.80</ele>
	<time>2024-03-25T09:41:36.000Z</time>
</trkpt>
<trkpt lat="45.8544340" lon="9.3247440">
	<ele>1109.80</ele>
	<time>2024-03-25T09:41:37.000Z</time>
</trkpt>
<trkpt lat="45.8544340" lon="9.3247440">
	<ele>1109.80</ele>
	<time>2024-03-25T09:41:38.000Z</time>
</trkpt>
<trkpt lat="45.8544340" lon="9.3247430">
	<ele>1109.80</ele>
	<time>2024-03-25T09:41:39.000Z</time>
</trkpt>
<trkpt lat="45.8544340" lon="9.3247430">
	<ele>1109.80</ele>
	<time>2024-03-25T09:41:40.000Z</time>
</trkpt>
<trkpt lat="45.8544340" lon="9.3247420">
	<ele>1109.80</ele>
	<time>2024-03-25T09:41:41.000Z</time>
</trkpt>
<trkpt lat="45.8544340" lon="9.3247410">
	<ele>1109.80</ele>
	<time>2024-03-25T09:41:42.000Z</time>
</trkpt>
<trkpt lat="45.8544340" lon="9.3247400">
	<ele>1109.80</ele>
	<time>2024-03-25T09:41:43.000Z</time>
</trkpt>
<trkpt lat="45.8544340" lon="9.3247400">
	<ele>1110.00</ele>
	<time>2024-03-25T09:41:44.000Z</time>
</trkpt>
<trkpt lat="45.8544340" lon="9.3247390">
	<ele>1110.00</ele>
	<time>2024-03-25T09:41:45.000Z</time>
</trkpt>
<trkpt lat="45.8544340" lon="9.3247390">
	<ele>1110.20</ele>
	<time>2024-03-25T09:41:46.000Z</time>
</trkpt>
<trkpt lat="45.8544340" lon="9.3247380">
	<ele>1110.40</ele>
	<time>2024-03-25T09:41:47.000Z</time>
</trkpt>
<trkpt lat="45.8544340" lon="9.3247380">
	<ele>1110.60</ele>
	<time>2024-03-25T09:41:48.000Z</time>
</trkpt>
<trkpt lat="45.8544340" lon="9.3247370">
	<ele>1110.80</ele>
	<time>2024-03-25T09:41:49.000Z</time>
</trkpt>
<trkpt lat="45.8544340" lon="9.3247370">
	<ele>1111.00</ele>
	<time>2024-03-25T09:41:50.000Z</time>
</trkpt>
<trkpt lat="45.8544330" lon="9.3247370">
	<ele>1111.20</ele>
	<time>2024-03-25T09:41:51.000Z</time>
</trkpt>
<trkpt lat="45.8544330" lon="9.3247360">
	<ele>1111.40</ele>
	<time>2024-03-25T09:41:52.000Z</time>
</trkpt>
<trkpt lat="45.8544320" lon="9.3247360">
	<ele>1111.60</ele>
	<time>2024-03-25T09:41:53.000Z</time>
</trkpt>
<trkpt lat="45.8544320" lon="9.3247360">
	<ele>1111.80</ele>
	<time>2024-03-25T09:41:54.000Z</time>
</trkpt>
<trkpt lat="45.8544310" lon="9.3247350">
	<ele>1112.00</ele>
	<time>2024-03-25T09:41:55.000Z</time>
</trkpt>
<trkpt lat="45.8544310" lon="9.3247350">
	<ele>1112.20</ele>
	<time>2024-03-25T09:41:56.000Z</time>
</trkpt>
<trkpt lat="45.8544300" lon="9.3247350">
	<ele>1112.60</ele>
	<time>2024-03-25T09:41:57.000Z</time>
</trkpt>
<trkpt lat="45.8544300" lon="9.3247350">
	<ele>1112.80</ele>
	<time>2024-03-25T09:41:58.000Z</time>
</trkpt>
<trkpt lat="45.8544290" lon="9.3247340">
	<ele>1113.00</ele>
	<time>2024-03-25T09:41:59.000Z</time>
</trkpt>
<trkpt lat="45.8544290" lon="9.3247340">
	<ele>1113.00</ele>
	<time>2024-03-25T09:42:00.000Z</time>
</trkpt>
<trkpt lat="45.8544280" lon="9.3247340">
	<ele>1113.40</ele>
	<time>2024-03-25T09:42:01.000Z</time>
</trkpt>
<trkpt lat="45.8544280" lon="9.3247340">
	<ele>1113.40</ele>
	<time>2024-03-25T09:42:02.000Z</time>
</trkpt>
<trkpt lat="45.8544280" lon="9.3247340">
	<ele>1113.60</ele>
	<time>2024-03-25T09:42:03.000Z</time>
</trkpt>
<trkpt lat="45.8544270" lon="9.3247340">
	<ele>1113.80</ele>
	<time>2024-03-25T09:42:04.000Z</time>
</trkpt>
<trkpt lat="45.8544270" lon="9.3247340">
	<ele>1113.80</ele>
	<time>2024-03-25T09:42:05.000Z</time>
</trkpt>
<trkpt lat="45.8544260" lon="9.3247330">
	<ele>1114.00</ele>
	<time>2024-03-25T09:42:06.000Z</time>
</trkpt>
<trkpt lat="45.8544260" lon="9.3247330">
	<ele>1114.20</ele>
	<time>2024-03-25T09:42:07.000Z</time>
</trkpt>
<trkpt lat="45.8544250" lon="9.3247330">
	<ele>1114.40</ele>
	<time>2024-03-25T09:42:08.000Z</time>
</trkpt>
<trkpt lat="45.8544250" lon="9.3247330">
	<ele>1114.40</ele>
	<time>2024-03-25T09:42:09.000Z</time>
</trkpt>
<trkpt lat="45.8544250" lon="9.3247330">
	<ele>1114.60</ele>
	<time>2024-03-25T09:42:10.000Z</time>
</trkpt>
<trkpt lat="45.8544240" lon="9.3247330">
	<ele>1114.60</ele>
	<time>2024-03-25T09:42:11.000Z</time>
</trkpt>
<trkpt lat="45.8544240" lon="9.3247330">
	<ele>1114.60</ele>
	<time>2024-03-25T09:42:12.000Z</time>
</trkpt>
<trkpt lat="45.8544240" lon="9.3247330">
	<ele>1114.80</ele>
	<time>2024-03-25T09:42:13.000Z</time>
</trkpt>
<trkpt lat="45.8544240" lon="9.3247330">
	<ele>1114.80</ele>
	<time>2024-03-25T09:42:14.000Z</time>
</trkpt>
<trkpt lat="45.8544230" lon="9.3247320">
	<ele>1115.00</ele>
	<time>2024-03-25T09:42:15.000Z</time>
</trkpt>
<trkpt lat="45.8544230" lon="9.3247320">
	<ele>1115.20</ele>
	<time>2024-03-25T09:42:16.000Z</time>
</trkpt>
<trkpt lat="45.8544230" lon="9.3247320">
	<ele>1115.20</ele>
	<time>2024-03-25T09:42:17.000Z</time>
</trkpt>
<trkpt lat="45.8544220" lon="9.3247320">
	<ele>1115.40</ele>
	<time>2024-03-25T09:42:18.000Z</time>
</trkpt>
<trkpt lat="45.8544220" lon="9.3247320">
	<ele>1115.60</ele>
	<time>2024-03-25T09:42:19.000Z</time>
</trkpt>
<trkpt lat="45.8544220" lon="9.3247320">
	<ele>1115.80</ele>
	<time>2024-03-25T09:42:20.000Z</time>
</trkpt>
<trkpt lat="45.8544210" lon="9.3247320">
	<ele>1116.00</ele>
	<time>2024-03-25T09:42:21.000Z</time>
</trkpt>
<trkpt lat="45.8544210" lon="9.3247310">
	<ele>1116.20</ele>
	<time>2024-03-25T09:42:22.000Z</time>
</trkpt>
<trkpt lat="45.8544210" lon="9.3247310">
	<ele>1116.60</ele>
	<time>2024-03-25T09:42:23.000Z</time>
</trkpt>
<trkpt lat="45.8544200" lon="9.3247310">
	<ele>1116.80</ele>
	<time>2024-03-25T09:42:24.000Z</time>
</trkpt>
<trkpt lat="45.8544200" lon="9.3247310">
	<ele>1117.00</ele>
	<time>2024-03-25T09:42:25.000Z</time>
</trkpt>
<trkpt lat="45.8544200" lon="9.3247310">
	<ele>1117.20</ele>
	<time>2024-03-25T09:42:26.000Z</time>
</trkpt>
<trkpt lat="45.8544190" lon="9.3247310">
	<ele>1117.20</ele>
	<time>2024-03-25T09:42:27.000Z</time>
</trkpt>
<trkpt lat="45.8544190" lon="9.3247310">
	<ele>1117.40</ele>
	<time>2024-03-25T09:42:28.000Z</time>
</trkpt>
<trkpt lat="45.8544180" lon="9.3247310">
	<ele>1117.40</ele>
	<time>2024-03-25T09:42:29.000Z</time>
</trkpt>
<trkpt lat="45.8544180" lon="9.3247310">
	<ele>1117.60</ele>
	<time>2024-03-25T09:42:30.000Z</time>
</trkpt>
<trkpt lat="45.8544180" lon="9.3247310">
	<ele>1117.80</ele>
	<time>2024-03-25T09:42:31.000Z</time>
</trkpt>
<trkpt lat="45.8544180" lon="9.3247310">
	<ele>1117.80</ele>
	<time>2024-03-25T09:42:32.000Z</time>
</trkpt>
<trkpt lat="45.8544170" lon="9.3247310">
	<ele>1118.00</ele>
	<time>2024-03-25T09:42:33.000Z</time>
</trkpt>
<trkpt lat="45.8544170" lon="9.3247310">
	<ele>1118.00</ele>
	<time>2024-03-25T09:42:34.000Z</time>
</trkpt>
<trkpt lat="45.8544160" lon="9.3247310">
	<ele>1118.40</ele>
	<time>2024-03-25T09:42:35.000Z</time>
</trkpt>
<trkpt lat="45.8544160" lon="9.3247310">
	<ele>1118.60</ele>
	<time>2024-03-25T09:42:36.000Z</time>
</trkpt>
<trkpt lat="45.8544160" lon="9.3247310">
	<ele>1118.80</ele>
	<time>2024-03-25T09:42:37.000Z</time>
</trkpt>
<trkpt lat="45.8544160" lon="9.3247310">
	<ele>1119.00</ele>
	<time>2024-03-25T09:42:38.000Z</time>
</trkpt>
<trkpt lat="45.8544150" lon="9.3247310">
	<ele>1119.00</ele>
	<time>2024-03-25T09:42:39.000Z</time>
</trkpt>
<trkpt lat="45.8544150" lon="9.3247310">
	<ele>1119.00</ele>
	<time>2024-03-25T09:42:40.000Z</time>
</trkpt>
<trkpt lat="45.8544140" lon="9.3247300">
	<ele>1119.20</ele>
	<time>2024-03-25T09:42:41.000Z</time>
</trkpt>
<trkpt lat="45.8544140" lon="9.3247300">
	<ele>1119.60</ele>
	<time>2024-03-25T09:42:42.000Z</time>
</trkpt>
<trkpt lat="45.8544140" lon="9.3247300">
	<ele>1120.00</ele>
	<time>2024-03-25T09:42:43.000Z</time>
</trkpt>
<trkpt lat="45.8544130" lon="9.3247300">
	<ele>1120.20</ele>
	<time>2024-03-25T09:42:44.000Z</time>
</trkpt>
<trkpt lat="45.8544130" lon="9.3247300">
	<ele>1120.40</ele>
	<time>2024-03-25T09:42:45.000Z</time>
</trkpt>
<trkpt lat="45.8544120" lon="9.3247300">
	<ele>1120.60</ele>
	<time>2024-03-25T09:42:46.000Z</time>
</trkpt>
<trkpt lat="45.8544120" lon="9.3247300">
	<ele>1120.80</ele>
	<time>2024-03-25T09:42:47.000Z</time>
</trkpt>
<trkpt lat="45.8544120" lon="9.3247300">
	<ele>1120.80</ele>
	<time>2024-03-25T09:42:48.000Z</time>
</trkpt>
<trkpt lat="45.8544110" lon="9.3247300">
	<ele>1120.80</ele>
	<time>2024-03-25T09:42:49.000Z</time>
</trkpt>
<trkpt lat="45.8544110" lon="9.3247300">
	<ele>1120.80</ele>
	<time>2024-03-25T09:42:50.000Z</time>
</trkpt>
<trkpt lat="45.8544100" lon="9.3247290">
	<ele>1121.00</ele>
	<time>2024-03-25T09:42:51.000Z</time>
</trkpt>
<trkpt lat="45.8544100" lon="9.3247290">
	<ele>1121.00</ele>
	<time>2024-03-25T09:42:52.000Z</time>
</trkpt>
<trkpt lat="45.8544100" lon="9.3247290">
	<ele>1121.00</ele>
	<time>2024-03-25T09:42:53.000Z</time>
</trkpt>
<trkpt lat="45.8544090" lon="9.3247290">
	<ele>1121.20</ele>
	<time>2024-03-25T09:42:54.000Z</time>
</trkpt>
<trkpt lat="45.8544090" lon="9.3247290">
	<ele>1121.60</ele>
	<time>2024-03-25T09:42:55.000Z</time>
</trkpt>
<trkpt lat="45.8544090" lon="9.3247290">
	<ele>1121.80</ele>
	<time>2024-03-25T09:42:56.000Z</time>
</trkpt>
<trkpt lat="45.8544080" lon="9.3247290">
	<ele>1122.00</ele>
	<time>2024-03-25T09:42:57.000Z</time>
</trkpt>
<trkpt lat="45.8544080" lon="9.3247280">
	<ele>1122.00</ele>
	<time>2024-03-25T09:42:58.000Z</time>
</trkpt>
<trkpt lat="45.8544080" lon="9.3247280">
	<ele>1122.20</ele>
	<time>2024-03-25T09:42:59.000Z</time>
</trkpt>
<trkpt lat="45.8544070" lon="9.3247280">
	<ele>1122.20</ele>
	<time>2024-03-25T09:43:00.000Z</time>
</trkpt>
<trkpt lat="45.8544070" lon="9.3247280">
	<ele>1122.20</ele>
	<time>2024-03-25T09:43:01.000Z</time>
</trkpt>
<trkpt lat="45.8544060" lon="9.3247270">
	<ele>1122.20</ele>
	<time>2024-03-25T09:43:02.000Z</time>
</trkpt>
<trkpt lat="45.8544060" lon="9.3247270">
	<ele>1122.40</ele>
	<time>2024-03-25T09:43:03.000Z</time>
</trkpt>
<trkpt lat="45.8544050" lon="9.3247270">
	<ele>1122.40</ele>
	<time>2024-03-25T09:43:04.000Z</time>
</trkpt>
<trkpt lat="45.8544050" lon="9.3247270">
	<ele>1122.40</ele>
	<time>2024-03-25T09:43:05.000Z</time>
</trkpt>
<trkpt lat="45.8544050" lon="9.3247270">
	<ele>1122.40</ele>
	<time>2024-03-25T09:43:06.000Z</time>
</trkpt>
<trkpt lat="45.8544040" lon="9.3247270">
	<ele>1122.40</ele>
	<time>2024-03-25T09:43:07.000Z</time>
</trkpt>
<trkpt lat="45.8544030" lon="9.3247270">
	<ele>1122.40</ele>
	<time>2024-03-25T09:43:08.000Z</time>
</trkpt>
<trkpt lat="45.8544030" lon="9.3247270">
	<ele>1122.40</ele>
	<time>2024-03-25T09:43:09.000Z</time>
</trkpt>
<trkpt lat="45.8544020" lon="9.3247270">
	<ele>1122.40</ele>
	<time>2024-03-25T09:43:10.000Z</time>
</trkpt>
<trkpt lat="45.8544020" lon="9.3247260">
	<ele>1122.60</ele>
	<time>2024-03-25T09:43:11.000Z</time>
</trkpt>
<trkpt lat="45.8544010" lon="9.3247260">
	<ele>1122.60</ele>
	<time>2024-03-25T09:43:12.000Z</time>
</trkpt>
<trkpt lat="45.8544010" lon="9.3247260">
	<ele>1122.80</ele>
	<time>2024-03-25T09:43:13.000Z</time>
</trkpt>
<trkpt lat="45.8544010" lon="9.3247260">
	<ele>1122.60</ele>
	<time>2024-03-25T09:43:14.000Z</time>
</trkpt>
<trkpt lat="45.8544000" lon="9.3247260">
	<ele>1122.60</ele>
	<time>2024-03-25T09:43:15.000Z</time>
</trkpt>
<trkpt lat="45.8544000" lon="9.3247260">
	<ele>1122.60</ele>
	<time>2024-03-25T09:43:16.000Z</time>
</trkpt>
<trkpt lat="45.8543990" lon="9.3247260">
	<ele>1122.40</ele>
	<time>2024-03-25T09:43:17.000Z</time>
</trkpt>
<trkpt lat="45.8543990" lon="9.3247260">
	<ele>1122.40</ele>
	<time>2024-03-25T09:43:18.000Z</time>
</trkpt>
<trkpt lat="45.8543990" lon="9.3247260">
	<ele>1122.40</ele>
	<time>2024-03-25T09:43:19.000Z</time>
</trkpt>
<trkpt lat="45.8543980" lon="9.3247260">
	<ele>1122.40</ele>
	<time>2024-03-25T09:43:20.000Z</time>
</trkpt>
<trkpt lat="45.8543980" lon="9.3247250">
	<ele>1122.40</ele>
	<time>2024-03-25T09:43:21.000Z</time>
</trkpt>
<trkpt lat="45.8543980" lon="9.3247250">
	<ele>1122.40</ele>
	<time>2024-03-25T09:43:22.000Z</time>
</trkpt>
<trkpt lat="45.8543970" lon="9.3247250">
	<ele>1122.60</ele>
	<time>2024-03-25T09:43:23.000Z</time>
</trkpt>
<trkpt lat="45.8543970" lon="9.3247250">
	<ele>1122.80</ele>
	<time>2024-03-25T09:43:24.000Z</time>
</trkpt>
<trkpt lat="45.8543970" lon="9.3247250">
	<ele>1123.00</ele>
	<time>2024-03-25T09:43:25.000Z</time>
</trkpt>
<trkpt lat="45.8543960" lon="9.3247240">
	<ele>1123.00</ele>
	<time>2024-03-25T09:43:26.000Z</time>
</trkpt>
<trkpt lat="45.8543960" lon="9.3247240">
	<ele>1123.00</ele>
	<time>2024-03-25T09:43:27.000Z</time>
</trkpt>
<trkpt lat="45.8543960" lon="9.3247240">
	<ele>1123.20</ele>
	<time>2024-03-25T09:43:28.000Z</time>
</trkpt>
<trkpt lat="45.8543950" lon="9.3247240">
	<ele>1123.20</ele>
	<time>2024-03-25T09:43:29.000Z</time>
</trkpt>
<trkpt lat="45.8543950" lon="9.3247230">
	<ele>1123.40</ele>
	<time>2024-03-25T09:43:30.000Z</time>
</trkpt>
<trkpt lat="45.8543950" lon="9.3247230">
	<ele>1123.40</ele>
	<time>2024-03-25T09:43:31.000Z</time>
</trkpt>
<trkpt lat="45.8543950" lon="9.3247230">
	<ele>1123.60</ele>
	<time>2024-03-25T09:43:32.000Z</time>
</trkpt>
<trkpt lat="45.8543940" lon="9.3247230">
	<ele>1123.60</ele>
	<time>2024-03-25T09:43:33.000Z</time>
</trkpt>
<trkpt lat="45.8543940" lon="9.3247220">
	<ele>1123.60</ele>
	<time>2024-03-25T09:43:34.000Z</time>
</trkpt>
<trkpt lat="45.8543930" lon="9.3247220">
	<ele>1123.60</ele>
	<time>2024-03-25T09:43:35.000Z</time>
</trkpt>
<trkpt lat="45.8543730" lon="9.3247040">
	<ele>1123.60</ele>
	<time>2024-03-25T09:43:36.000Z</time>
</trkpt>
<trkpt lat="45.8543430" lon="9.3246740">
	<ele>1123.60</ele>
	<time>2024-03-25T09:43:37.000Z</time>
</trkpt>
<trkpt lat="45.8543190" lon="9.3246480">
	<ele>1123.60</ele>
	<time>2024-03-25T09:43:38.000Z</time>
</trkpt>
<trkpt lat="45.8542980" lon="9.3246190">
	<ele>1123.80</ele>
	<time>2024-03-25T09:43:39.000Z</time>
</trkpt>
<trkpt lat="45.8542750" lon="9.3245960">
	<ele>1123.80</ele>
	<time>2024-03-25T09:43:40.000Z</time>
</trkpt>
<trkpt lat="45.8542490" lon="9.3245710">
	<ele>1123.80</ele>
	<time>2024-03-25T09:43:41.000Z</time>
</trkpt>
<trkpt lat="45.8542260" lon="9.3245460">
	<ele>1124.00</ele>
	<time>2024-03-25T09:43:42.000Z</time>
</trkpt>
<trkpt lat="45.8542000" lon="9.3245200">
	<ele>1124.00</ele>
	<time>2024-03-25T09:43:43.000Z</time>
</trkpt>
<trkpt lat="45.8541780" lon="9.3244970">
	<ele>1124.40</ele>
	<time>2024-03-25T09:43:44.000Z</time>
</trkpt>
<trkpt lat="45.8541580" lon="9.3244750">
	<ele>1124.40</ele>
	<time>2024-03-25T09:43:45.000Z</time>
</trkpt>
<trkpt lat="45.8541580" lon="9.3244710">
	<ele>1125.00</ele>
	<time>2024-03-25T09:43:46.000Z</time>
</trkpt>
<trkpt lat="45.8541590" lon="9.3244680">
	<ele>1125.40</ele>
	<time>2024-03-25T09:43:47.000Z</time>
</trkpt>
<trkpt lat="45.8541650" lon="9.3244640">
	<ele>1125.60</ele>
	<time>2024-03-25T09:43:48.000Z</time>
</trkpt>
<trkpt lat="45.8541710" lon="9.3244550">
	<ele>1126.00</ele>
	<time>2024-03-25T09:43:49.000Z</time>
</trkpt>
<trkpt lat="45.8541660" lon="9.3244460">
	<ele>1126.20</ele>
	<time>2024-03-25T09:43:50.000Z</time>
</trkpt>
<trkpt lat="45.8541650" lon="9.3244450">
	<ele>1126.40</ele>
	<time>2024-03-25T09:43:51.000Z</time>
</trkpt>
<trkpt lat="45.8541650" lon="9.3244440">
	<ele>1126.60</ele>
	<time>2024-03-25T09:43:52.000Z</time>
</trkpt>
<trkpt lat="45.8541630" lon="9.3244450">
	<ele>1126.80</ele>
	<time>2024-03-25T09:43:53.000Z</time>
</trkpt>
<trkpt lat="45.8541610" lon="9.3244450">
	<ele>1126.80</ele>
	<time>2024-03-25T09:43:54.000Z</time>
</trkpt>
<trkpt lat="45.8541600" lon="9.3244450">
	<ele>1126.80</ele>
	<time>2024-03-25T09:43:55.000Z</time>
</trkpt>
<trkpt lat="45.8541560" lon="9.3244440">
	<ele>1127.00</ele>
	<time>2024-03-25T09:43:56.000Z</time>
</trkpt>
<trkpt lat="45.8541500" lon="9.3244480">
	<ele>1127.20</ele>
	<time>2024-03-25T09:43:57.000Z</time>
</trkpt>
<trkpt lat="45.8541400" lon="9.3244530">
	<ele>1127.20</ele>
	<time>2024-03-25T09:43:58.000Z</time>
</trkpt>
<trkpt lat="45.8541370" lon="9.3244540">
	<ele>1127.60</ele>
	<time>2024-03-25T09:43:59.000Z</time>
</trkpt>
<trkpt lat="45.8541340" lon="9.3244560">
	<ele>1127.80</ele>
	<time>2024-03-25T09:44:00.000Z</time>
</trkpt>
<trkpt lat="45.8541290" lon="9.3244580">
	<ele>1128.00</ele>
	<time>2024-03-25T09:44:01.000Z</time>
</trkpt>
<trkpt lat="45.8541260" lon="9.3244600">
	<ele>1128.20</ele>
	<time>2024-03-25T09:44:02.000Z</time>
</trkpt>
<trkpt lat="45.8541270" lon="9.3244590">
	<ele>1128.60</ele>
	<time>2024-03-25T09:44:03.000Z</time>
</trkpt>
<trkpt lat="45.8541280" lon="9.3244560">
	<ele>1128.80</ele>
	<time>2024-03-25T09:44:04.000Z</time>
</trkpt>
<trkpt lat="45.8541280" lon="9.3244580">
	<ele>1129.00</ele>
	<time>2024-03-25T09:44:05.000Z</time>
</trkpt>
<trkpt lat="45.8541220" lon="9.3244620">
	<ele>1129.00</ele>
	<time>2024-03-25T09:44:06.000Z</time>
</trkpt>
<trkpt lat="45.8541190" lon="9.3244660">
	<ele>1129.00</ele>
	<time>2024-03-25T09:44:07.000Z</time>
</trkpt>
<trkpt lat="45.8541160" lon="9.3244670">
	<ele>1129.20</ele>
	<time>2024-03-25T09:44:08.000Z</time>
</trkpt>
<trkpt lat="45.8541140" lon="9.3244640">
	<ele>1129.40</ele>
	<time>2024-03-25T09:44:09.000Z</time>
</trkpt>
<trkpt lat="45.8541110" lon="9.3244620">
	<ele>1129.60</ele>
	<time>2024-03-25T09:44:10.000Z</time>
</trkpt>
<trkpt lat="45.8541070" lon="9.3244600">
	<ele>1129.80</ele>
	<time>2024-03-25T09:44:11.000Z</time>
</trkpt>
<trkpt lat="45.8541030" lon="9.3244610">
	<ele>1129.80</ele>
	<time>2024-03-25T09:44:12.000Z</time>
</trkpt>
<trkpt lat="45.8541000" lon="9.3244600">
	<ele>1130.00</ele>
	<time>2024-03-25T09:44:13.000Z</time>
</trkpt>
<trkpt lat="45.8540990" lon="9.3244570">
	<ele>1130.20</ele>
	<time>2024-03-25T09:44:14.000Z</time>
</trkpt>
<trkpt lat="45.8540970" lon="9.3244520">
	<ele>1130.20</ele>
	<time>2024-03-25T09:44:15.000Z</time>
</trkpt>
<trkpt lat="45.8540960" lon="9.3244490">
	<ele>1130.80</ele>
	<time>2024-03-25T09:44:16.000Z</time>
</trkpt>
<trkpt lat="45.8540950" lon="9.3244460">
	<ele>1131.00</ele>
	<time>2024-03-25T09:44:17.000Z</time>
</trkpt>
<trkpt lat="45.8540950" lon="9.3244430">
	<ele>1131.20</ele>
	<time>2024-03-25T09:44:18.000Z</time>
</trkpt>
<trkpt lat="45.8540900" lon="9.3244400">
	<ele>1131.40</ele>
	<time>2024-03-25T09:44:19.000Z</time>
</trkpt>
<trkpt lat="45.8540870" lon="9.3244420">
	<ele>1131.60</ele>
	<time>2024-03-25T09:44:20.000Z</time>
</trkpt>
<trkpt lat="45.8540830" lon="9.3244370">
	<ele>1131.80</ele>
	<time>2024-03-25T09:44:21.000Z</time>
</trkpt>
<trkpt lat="45.8540780" lon="9.3244340">
	<ele>1132.00</ele>
	<time>2024-03-25T09:44:22.000Z</time>
</trkpt>
<trkpt lat="45.8540730" lon="9.3244290">
	<ele>1132.20</ele>
	<time>2024-03-25T09:44:23.000Z</time>
</trkpt>
<trkpt lat="45.8540710" lon="9.3244260">
	<ele>1132.40</ele>
	<time>2024-03-25T09:44:24.000Z</time>
</trkpt>
<trkpt lat="45.8540680" lon="9.3244240">
	<ele>1132.40</ele>
	<time>2024-03-25T09:44:25.000Z</time>
</trkpt>
<trkpt lat="45.8540660" lon="9.3244230">
	<ele>1132.40</ele>
	<time>2024-03-25T09:44:26.000Z</time>
</trkpt>
<trkpt lat="45.8540610" lon="9.3244210">
	<ele>1132.60</ele>
	<time>2024-03-25T09:44:27.000Z</time>
</trkpt>
<trkpt lat="45.8540530" lon="9.3244190">
	<ele>1132.60</ele>
	<time>2024-03-25T09:44:28.000Z</time>
</trkpt>
<trkpt lat="45.8540460" lon="9.3244140">
	<ele>1132.80</ele>
	<time>2024-03-25T09:44:29.000Z</time>
</trkpt>
<trkpt lat="45.8540450" lon="9.3244100">
	<ele>1133.00</ele>
	<time>2024-03-25T09:44:30.000Z</time>
</trkpt>
<trkpt lat="45.8540440" lon="9.3244060">
	<ele>1133.20</ele>
	<time>2024-03-25T09:44:31.000Z</time>
</trkpt>
<trkpt lat="45.8540410" lon="9.3244040">
	<ele>1133.40</ele>
	<time>2024-03-25T09:44:32.000Z</time>
</trkpt>
<trkpt lat="45.8540420" lon="9.3244010">
	<ele>1133.60</ele>
	<time>2024-03-25T09:44:33.000Z</time>
</trkpt>
<trkpt lat="45.8540420" lon="9.3243950">
	<ele>1133.80</ele>
	<time>2024-03-25T09:44:34.000Z</time>
</trkpt>
<trkpt lat="45.8540390" lon="9.3243900">
	<ele>1133.80</ele>
	<time>2024-03-25T09:44:35.000Z</time>
</trkpt>
<trkpt lat="45.8540380" lon="9.3243860">
	<ele>1134.00</ele>
	<time>2024-03-25T09:44:36.000Z</time>
</trkpt>
<trkpt lat="45.8540410" lon="9.3243840">
	<ele>1134.20</ele>
	<time>2024-03-25T09:44:37.000Z</time>
</trkpt>
<trkpt lat="45.8540400" lon="9.3243850">
	<ele>1134.20</ele>
	<time>2024-03-25T09:44:38.000Z</time>
</trkpt>
<trkpt lat="45.8540380" lon="9.3243880">
	<ele>1134.40</ele>
	<time>2024-03-25T09:44:39.000Z</time>
</trkpt>
<trkpt lat="45.8540380" lon="9.3243880">
	<ele>1134.60</ele>
	<time>2024-03-25T09:44:40.000Z</time>
</trkpt>
<trkpt lat="45.8540380" lon="9.3243880">
	<ele>1134.80</ele>
	<time>2024-03-25T09:44:41.000Z</time>
</trkpt>
<trkpt lat="45.8540380" lon="9.3243880">
	<ele>1135.00</ele>
	<time>2024-03-25T09:44:42.000Z</time>
</trkpt>
<trkpt lat="45.8540380" lon="9.3243880">
	<ele>1135.00</ele>
	<time>2024-03-25T09:44:43.000Z</time>
</trkpt>
<trkpt lat="45.8540380" lon="9.3243880">
	<ele>1135.20</ele>
	<time>2024-03-25T09:44:44.000Z</time>
</trkpt>
<trkpt lat="45.8540380" lon="9.3243880">
	<ele>1135.20</ele>
	<time>2024-03-25T09:44:45.000Z</time>
</trkpt>
<trkpt lat="45.8540380" lon="9.3243880">
	<ele>1135.40</ele>
	<time>2024-03-25T09:44:46.000Z</time>
</trkpt>
<trkpt lat="45.8540380" lon="9.3243880">
	<ele>1135.40</ele>
	<time>2024-03-25T09:44:47.000Z</time>
</trkpt>
<trkpt lat="45.8540380" lon="9.3243880">
	<ele>1135.60</ele>
	<time>2024-03-25T09:44:48.000Z</time>
</trkpt>
<trkpt lat="45.8540380" lon="9.3243880">
	<ele>1135.60</ele>
	<time>2024-03-25T09:44:49.000Z</time>
</trkpt>
<trkpt lat="45.8540380" lon="9.3243880">
	<ele>1135.80</ele>
	<time>2024-03-25T09:44:50.000Z</time>
</trkpt>
<trkpt lat="45.8540380" lon="9.3243880">
	<ele>1135.80</ele>
	<time>2024-03-25T09:44:51.000Z</time>
</trkpt>
<trkpt lat="45.8540380" lon="9.3243880">
	<ele>1135.80</ele>
	<time>2024-03-25T09:44:52.000Z</time>
</trkpt>
<trkpt lat="45.8540380" lon="9.3243870">
	<ele>1136.00</ele>
	<time>2024-03-25T09:44:53.000Z</time>
</trkpt>
<trkpt lat="45.8540380" lon="9.3243860">
	<ele>1136.00</ele>
	<time>2024-03-25T09:44:54.000Z</time>
</trkpt>
<trkpt lat="45.8540380" lon="9.3243850">
	<ele>1136.00</ele>
	<time>2024-03-25T09:44:55.000Z</time>
</trkpt>
<trkpt lat="45.8540360" lon="9.3243840">
	<ele>1136.00</ele>
	<time>2024-03-25T09:44:56.000Z</time>
</trkpt>
<trkpt lat="45.8540330" lon="9.3243820">
	<ele>1136.00</ele>
	<time>2024-03-25T09:44:57.000Z</time>
</trkpt>
<trkpt lat="45.8540260" lon="9.3243770">
	<ele>1136.00</ele>
	<time>2024-03-25T09:44:58.000Z</time>
</trkpt>
<trkpt lat="45.8540240" lon="9.3243760">
	<ele>1136.00</ele>
	<time>2024-03-25T09:44:59.000Z</time>
</trkpt>
<trkpt lat="45.8540240" lon="9.3243740">
	<ele>1136.00</ele>
	<time>2024-03-25T09:45:00.000Z</time>
</trkpt>
<trkpt lat="45.8540240" lon="9.3243720">
	<ele>1136.00</ele>
	<time>2024-03-25T09:45:01.000Z</time>
</trkpt>
<trkpt lat="45.8540230" lon="9.3243660">
	<ele>1136.20</ele>
	<time>2024-03-25T09:45:02.000Z</time>
</trkpt>
<trkpt lat="45.8540230" lon="9.3243620">
	<ele>1136.20</ele>
	<time>2024-03-25T09:45:03.000Z</time>
</trkpt>
<trkpt lat="45.8540230" lon="9.3243570">
	<ele>1136.20</ele>
	<time>2024-03-25T09:45:04.000Z</time>
</trkpt>
<trkpt lat="45.8540220" lon="9.3243550">
	<ele>1136.40</ele>
	<time>2024-03-25T09:45:05.000Z</time>
</trkpt>
<trkpt lat="45.8540220" lon="9.3243530">
	<ele>1136.40</ele>
	<time>2024-03-25T09:45:06.000Z</time>
</trkpt>
<trkpt lat="45.8540220" lon="9.3243520">
	<ele>1136.60</ele>
	<time>2024-03-25T09:45:07.000Z</time>
</trkpt>
<trkpt lat="45.8540220" lon="9.3243510">
	<ele>1136.80</ele>
	<time>2024-03-25T09:45:08.000Z</time>
</trkpt>
<trkpt lat="45.8540210" lon="9.3243510">
	<ele>1137.00</ele>
	<time>2024-03-25T09:45:09.000Z</time>
</trkpt>
<trkpt lat="45.8540210" lon="9.3243500">
	<ele>1137.20</ele>
	<time>2024-03-25T09:45:10.000Z</time>
</trkpt>
<trkpt lat="45.8540210" lon="9.3243500">
	<ele>1137.40</ele>
	<time>2024-03-25T09:45:11.000Z</time>
</trkpt>
<trkpt lat="45.8540210" lon="9.3243500">
	<ele>1137.40</ele>
	<time>2024-03-25T09:45:12.000Z</time>
</trkpt>
<trkpt lat="45.8540210" lon="9.3243500">
	<ele>1137.60</ele>
	<time>2024-03-25T09:45:13.000Z</time>
</trkpt>
<trkpt lat="45.8540200" lon="9.3243490">
	<ele>1137.80</ele>
	<time>2024-03-25T09:45:14.000Z</time>
</trkpt>
<trkpt lat="45.8540200" lon="9.3243480">
	<ele>1137.80</ele>
	<time>2024-03-25T09:45:15.000Z</time>
</trkpt>
<trkpt lat="45.8540200" lon="9.3243480">
	<ele>1138.00</ele>
	<time>2024-03-25T09:45:16.000Z</time>
</trkpt>
<trkpt lat="45.8540200" lon="9.3243440">
	<ele>1138.00</ele>
	<time>2024-03-25T09:45:17.000Z</time>
</trkpt>
<trkpt lat="45.8540200" lon="9.3243380">
	<ele>1138.20</ele>
	<time>2024-03-25T09:45:18.000Z</time>
</trkpt>
<trkpt lat="45.8540190" lon="9.3243330">
	<ele>1138.60</ele>
	<time>2024-03-25T09:45:19.000Z</time>
</trkpt>
<trkpt lat="45.8540190" lon="9.3243270">
	<ele>1138.80</ele>
	<time>2024-03-25T09:45:20.000Z</time>
</trkpt>
<trkpt lat="45.8540180" lon="9.3243190">
	<ele>1139.00</ele>
	<time>2024-03-25T09:45:21.000Z</time>
</trkpt>
<trkpt lat="45.8540170" lon="9.3243120">
	<ele>1139.20</ele>
	<time>2024-03-25T09:45:22.000Z</time>
</trkpt>
<trkpt lat="45.8540170" lon="9.3243040">
	<ele>1139.40</ele>
	<time>2024-03-25T09:45:23.000Z</time>
</trkpt>
<trkpt lat="45.8540160" lon="9.3242960">
	<ele>1139.40</ele>
	<time>2024-03-25T09:45:24.000Z</time>
</trkpt>
<trkpt lat="45.8540160" lon="9.3242910">
	<ele>1139.60</ele>
	<time>2024-03-25T09:45:25.000Z</time>
</trkpt>
<trkpt lat="45.8540150" lon="9.3242810">
	<ele>1139.60</ele>
	<time>2024-03-25T09:45:26.000Z</time>
</trkpt>
<trkpt lat="45.8540140" lon="9.3242720">
	<ele>1139.80</ele>
	<time>2024-03-25T09:45:27.000Z</time>
</trkpt>
<trkpt lat="45.8540130" lon="9.3242650">
	<ele>1140.20</ele>
	<time>2024-03-25T09:45:28.000Z</time>
</trkpt>
<trkpt lat="45.8540120" lon="9.3242590">
	<ele>1140.40</ele>
	<time>2024-03-25T09:45:29.000Z</time>
</trkpt>
<trkpt lat="45.8540120" lon="9.3242510">
	<ele>1140.60</ele>
	<time>2024-03-25T09:45:30.000Z</time>
</trkpt>
<trkpt lat="45.8540100" lon="9.3242440">
	<ele>1140.60</ele>
	<time>2024-03-25T09:45:31.000Z</time>
</trkpt>
<trkpt lat="45.8540070" lon="9.3242400">
	<ele>1140.80</ele>
	<time>2024-03-25T09:45:32.000Z</time>
</trkpt>
<trkpt lat="45.8540020" lon="9.3242360">
	<ele>1140.80</ele>
	<time>2024-03-25T09:45:33.000Z</time>
</trkpt>
<trkpt lat="45.8539980" lon="9.3242330">
	<ele>1141.00</ele>
	<time>2024-03-25T09:45:34.000Z</time>
</trkpt>
<trkpt lat="45.8539950" lon="9.3242300">
	<ele>1141.00</ele>
	<time>2024-03-25T09:45:35.000Z</time>
</trkpt>
<trkpt lat="45.8539920" lon="9.3242250">
	<ele>1141.20</ele>
	<time>2024-03-25T09:45:36.000Z</time>
</trkpt>
<trkpt lat="45.8539890" lon="9.3242180">
	<ele>1141.40</ele>
	<time>2024-03-25T09:45:37.000Z</time>
</trkpt>
<trkpt lat="45.8539870" lon="9.3242120">
	<ele>1141.40</ele>
	<time>2024-03-25T09:45:38.000Z</time>
</trkpt>
<trkpt lat="45.8539860" lon="9.3242050">
	<ele>1141.60</ele>
	<time>2024-03-25T09:45:39.000Z</time>
</trkpt>
<trkpt lat="45.8539850" lon="9.3241980">
	<ele>1141.60</ele>
	<time>2024-03-25T09:45:40.000Z</time>
</trkpt>
<trkpt lat="45.8539850" lon="9.3241940">
	<ele>1141.60</ele>
	<time>2024-03-25T09:45:41.000Z</time>
</trkpt>
<trkpt lat="45.8539840" lon="9.3241910">
	<ele>1141.60</ele>
	<time>2024-03-25T09:45:42.000Z</time>
</trkpt>
<trkpt lat="45.8539840" lon="9.3241900">
	<ele>1141.60</ele>
	<time>2024-03-25T09:45:43.000Z</time>
</trkpt>
<trkpt lat="45.8539820" lon="9.3241880">
	<ele>1141.60</ele>
	<time>2024-03-25T09:45:44.000Z</time>
</trkpt>
<trkpt lat="45.8539790" lon="9.3241850">
	<ele>1141.60</ele>
	<time>2024-03-25T09:45:45.000Z</time>
</trkpt>
<trkpt lat="45.8539770" lon="9.3241820">
	<ele>1141.60</ele>
	<time>2024-03-25T09:45:46.000Z</time>
</trkpt>
<trkpt lat="45.8539730" lon="9.3241780">
	<ele>1141.60</ele>
	<time>2024-03-25T09:45:47.000Z</time>
</trkpt>
<trkpt lat="45.8539680" lon="9.3241730">
	<ele>1141.80</ele>
	<time>2024-03-25T09:45:48.000Z</time>
</trkpt>
<trkpt lat="45.8539650" lon="9.3241690">
	<ele>1141.80</ele>
	<time>2024-03-25T09:45:49.000Z</time>
</trkpt>
<trkpt lat="45.8539640" lon="9.3241630">
	<ele>1141.80</ele>
	<time>2024-03-25T09:45:50.000Z</time>
</trkpt>
<trkpt lat="45.8539630" lon="9.3241590">
	<ele>1142.00</ele>
	<time>2024-03-25T09:45:51.000Z</time>
</trkpt>
<trkpt lat="45.8539620" lon="9.3241560">
	<ele>1142.00</ele>
	<time>2024-03-25T09:45:52.000Z</time>
</trkpt>
<trkpt lat="45.8539620" lon="9.3241540">
	<ele>1142.00</ele>
	<time>2024-03-25T09:45:53.000Z</time>
</trkpt>
<trkpt lat="45.8539620" lon="9.3241540">
	<ele>1142.00</ele>
	<time>2024-03-25T09:45:54.000Z</time>
</trkpt>
<trkpt lat="45.8539610" lon="9.3241530">
	<ele>1142.00</ele>
	<time>2024-03-25T09:45:55.000Z</time>
</trkpt>
<trkpt lat="45.8539610" lon="9.3241530">
	<ele>1142.20</ele>
	<time>2024-03-25T09:45:56.000Z</time>
</trkpt>
<trkpt lat="45.8539600" lon="9.3241530">
	<ele>1142.20</ele>
	<time>2024-03-25T09:45:57.000Z</time>
</trkpt>
<trkpt lat="45.8539600" lon="9.3241530">
	<ele>1142.20</ele>
	<time>2024-03-25T09:45:58.000Z</time>
</trkpt>
<trkpt lat="45.8539600" lon="9.3241530">
	<ele>1142.20</ele>
	<time>2024-03-25T09:45:59.000Z</time>
</trkpt>
<trkpt lat="45.8539600" lon="9.3241530">
	<ele>1142.40</ele>
	<time>2024-03-25T09:46:00.000Z</time>
</trkpt>
<trkpt lat="45.8539600" lon="9.3241530">
	<ele>1142.60</ele>
	<time>2024-03-25T09:46:01.000Z</time>
</trkpt>
<trkpt lat="45.8539600" lon="9.3241530">
	<ele>1143.00</ele>
	<time>2024-03-25T09:46:02.000Z</time>
</trkpt>
<trkpt lat="45.8539590" lon="9.3241530">
	<ele>1143.20</ele>
	<time>2024-03-25T09:46:03.000Z</time>
</trkpt>
<trkpt lat="45.8539590" lon="9.3241530">
	<ele>1143.40</ele>
	<time>2024-03-25T09:46:04.000Z</time>
</trkpt>
<trkpt lat="45.8539590" lon="9.3241530">
	<ele>1143.60</ele>
	<time>2024-03-25T09:46:05.000Z</time>
</trkpt>
<trkpt lat="45.8539590" lon="9.3241530">
	<ele>1143.80</ele>
	<time>2024-03-25T09:46:06.000Z</time>
</trkpt>
<trkpt lat="45.8539590" lon="9.3241530">
	<ele>1143.80</ele>
	<time>2024-03-25T09:46:07.000Z</time>
</trkpt>
<trkpt lat="45.8539580" lon="9.3241540">
	<ele>1144.00</ele>
	<time>2024-03-25T09:46:08.000Z</time>
</trkpt>
<trkpt lat="45.8539580" lon="9.3241540">
	<ele>1144.20</ele>
	<time>2024-03-25T09:46:09.000Z</time>
</trkpt>
<trkpt lat="45.8539550" lon="9.3241560">
	<ele>1144.40</ele>
	<time>2024-03-25T09:46:10.000Z</time>
</trkpt>
<trkpt lat="45.8539510" lon="9.3241590">
	<ele>1144.60</ele>
	<time>2024-03-25T09:46:11.000Z</time>
</trkpt>
<trkpt lat="45.8539480" lon="9.3241630">
	<ele>1144.80</ele>
	<time>2024-03-25T09:46:12.000Z</time>
</trkpt>
<trkpt lat="45.8539450" lon="9.3241670">
	<ele>1145.00</ele>
	<time>2024-03-25T09:46:13.000Z</time>
</trkpt>
<trkpt lat="45.8539420" lon="9.3241730">
	<ele>1145.00</ele>
	<time>2024-03-25T09:46:14.000Z</time>
</trkpt>
<trkpt lat="45.8539410" lon="9.3241780">
	<ele>1145.20</ele>
	<time>2024-03-25T09:46:15.000Z</time>
</trkpt>
<trkpt lat="45.8539400" lon="9.3241840">
	<ele>1145.20</ele>
	<time>2024-03-25T09:46:16.000Z</time>
</trkpt>
<trkpt lat="45.8539400" lon="9.3241890">
	<ele>1145.40</ele>
	<time>2024-03-25T09:46:17.000Z</time>
</trkpt>
<trkpt lat="45.8539390" lon="9.3241930">
	<ele>1145.60</ele>
	<time>2024-03-25T09:46:18.000Z</time>
</trkpt>
<trkpt lat="45.8539390" lon="9.3241970">
	<ele>1145.60</ele>
	<time>2024-03-25T09:46:19.000Z</time>
</trkpt>
<trkpt lat="45.8539390" lon="9.3242020">
	<ele>1145.80</ele>
	<time>2024-03-25T09:46:20.000Z</time>
</trkpt>
<trkpt lat="45.8539370" lon="9.3242070">
	<ele>1145.80</ele>
	<time>2024-03-25T09:46:21.000Z</time>
</trkpt>
<trkpt lat="45.8539340" lon="9.3242140">
	<ele>1145.80</ele>
	<time>2024-03-25T09:46:22.000Z</time>
</trkpt>
<trkpt lat="45.8539290" lon="9.3242210">
	<ele>1146.00</ele>
	<time>2024-03-25T09:46:23.000Z</time>
</trkpt>
<trkpt lat="45.8539240" lon="9.3242280">
	<ele>1146.00</ele>
	<time>2024-03-25T09:46:24.000Z</time>
</trkpt>
<trkpt lat="45.8539200" lon="9.3242370">
	<ele>1146.00</ele>
	<time>2024-03-25T09:46:25.000Z</time>
</trkpt>
<trkpt lat="45.8539180" lon="9.3242460">
	<ele>1146.00</ele>
	<time>2024-03-25T09:46:26.000Z</time>
</trkpt>
<trkpt lat="45.8539170" lon="9.3242540">
	<ele>1146.20</ele>
	<time>2024-03-25T09:46:27.000Z</time>
</trkpt>
<trkpt lat="45.8539160" lon="9.3242620">
	<ele>1146.20</ele>
	<time>2024-03-25T09:46:28.000Z</time>
</trkpt>
<trkpt lat="45.8539150" lon="9.3242670">
	<ele>1146.20</ele>
	<time>2024-03-25T09:46:29.000Z</time>
</trkpt>
<trkpt lat="45.8539120" lon="9.3242730">
	<ele>1146.20</ele>
	<time>2024-03-25T09:46:30.000Z</time>
</trkpt>
<trkpt lat="45.8539100" lon="9.3242820">
	<ele>1146.20</ele>
	<time>2024-03-25T09:46:31.000Z</time>
</trkpt>
<trkpt lat="45.8539080" lon="9.3242910">
	<ele>1146.20</ele>
	<time>2024-03-25T09:46:32.000Z</time>
</trkpt>
<trkpt lat="45.8539060" lon="9.3242990">
	<ele>1146.40</ele>
	<time>2024-03-25T09:46:33.000Z</time>
</trkpt>
<trkpt lat="45.8539060" lon="9.3243070">
	<ele>1146.40</ele>
	<time>2024-03-25T09:46:34.000Z</time>
</trkpt>
<trkpt lat="45.8539050" lon="9.3243110">
	<ele>1146.20</ele>
	<time>2024-03-25T09:46:35.000Z</time>
</trkpt>
<trkpt lat="45.8539050" lon="9.3243130">
	<ele>1146.20</ele>
	<time>2024-03-25T09:46:36.000Z</time>
</trkpt>
<trkpt lat="45.8539050" lon="9.3243140">
	<ele>1146.00</ele>
	<time>2024-03-25T09:46:37.000Z</time>
</trkpt>
<trkpt lat="45.8539040" lon="9.3243150">
	<ele>1145.80</ele>
	<time>2024-03-25T09:46:38.000Z</time>
</trkpt>
<trkpt lat="45.8539040" lon="9.3243150">
	<ele>1145.80</ele>
	<time>2024-03-25T09:46:39.000Z</time>
</trkpt>
<trkpt lat="45.8539040" lon="9.3243150">
	<ele>1145.80</ele>
	<time>2024-03-25T09:46:40.000Z</time>
</trkpt>
<trkpt lat="45.8539030" lon="9.3243160">
	<ele>1146.00</ele>
	<time>2024-03-25T09:46:41.000Z</time>
</trkpt>
<trkpt lat="45.8539030" lon="9.3243160">
	<ele>1146.00</ele>
	<time>2024-03-25T09:46:42.000Z</time>
</trkpt>
<trkpt lat="45.8539030" lon="9.3243160">
	<ele>1146.20</ele>
	<time>2024-03-25T09:46:43.000Z</time>
</trkpt>
<trkpt lat="45.8539030" lon="9.3243160">
	<ele>1146.60</ele>
	<time>2024-03-25T09:46:44.000Z</time>
</trkpt>
<trkpt lat="45.8539020" lon="9.3243160">
	<ele>1146.80</ele>
	<time>2024-03-25T09:46:45.000Z</time>
</trkpt>
<trkpt lat="45.8539020" lon="9.3243160">
	<ele>1147.00</ele>
	<time>2024-03-25T09:46:46.000Z</time>
</trkpt>
<trkpt lat="45.8539020" lon="9.3243160">
	<ele>1147.20</ele>
	<time>2024-03-25T09:46:47.000Z</time>
</trkpt>
<trkpt lat="45.8539010" lon="9.3243160">
	<ele>1147.40</ele>
	<time>2024-03-25T09:46:48.000Z</time>
</trkpt>
<trkpt lat="45.8539010" lon="9.3243160">
	<ele>1147.40</ele>
	<time>2024-03-25T09:46:49.000Z</time>
</trkpt>
<trkpt lat="45.8539010" lon="9.3243150">
	<ele>1147.40</ele>
	<time>2024-03-25T09:46:50.000Z</time>
</trkpt>
<trkpt lat="45.8539010" lon="9.3243150">
	<ele>1147.80</ele>
	<time>2024-03-25T09:46:51.000Z</time>
</trkpt>
<trkpt lat="45.8539010" lon="9.3243140">
	<ele>1148.00</ele>
	<time>2024-03-25T09:46:52.000Z</time>
</trkpt>
<trkpt lat="45.8538990" lon="9.3243120">
	<ele>1148.20</ele>
	<time>2024-03-25T09:46:53.000Z</time>
</trkpt>
<trkpt lat="45.8538950" lon="9.3243090">
	<ele>1148.60</ele>
	<time>2024-03-25T09:46:54.000Z</time>
</trkpt>
<trkpt lat="45.8538900" lon="9.3243050">
	<ele>1148.80</ele>
	<time>2024-03-25T09:46:55.000Z</time>
</trkpt>
<trkpt lat="45.8538860" lon="9.3243000">
	<ele>1148.80</ele>
	<time>2024-03-25T09:46:56.000Z</time>
</trkpt>
<trkpt lat="45.8538820" lon="9.3242960">
	<ele>1148.80</ele>
	<time>2024-03-25T09:46:57.000Z</time>
</trkpt>
<trkpt lat="45.8538790" lon="9.3242940">
	<ele>1149.20</ele>
	<time>2024-03-25T09:46:58.000Z</time>
</trkpt>
<trkpt lat="45.8538750" lon="9.3242920">
	<ele>1149.40</ele>
	<time>2024-03-25T09:46:59.000Z</time>
</trkpt>
<trkpt lat="45.8538720" lon="9.3242900">
	<ele>1149.60</ele>
	<time>2024-03-25T09:47:00.000Z</time>
</trkpt>
<trkpt lat="45.8538700" lon="9.3242890">
	<ele>1150.00</ele>
	<time>2024-03-25T09:47:01.000Z</time>
</trkpt>
<trkpt lat="45.8538680" lon="9.3242880">
	<ele>1150.20</ele>
	<time>2024-03-25T09:47:02.000Z</time>
</trkpt>
<trkpt lat="45.8538660" lon="9.3242850">
	<ele>1150.20</ele>
	<time>2024-03-25T09:47:03.000Z</time>
</trkpt>
<trkpt lat="45.8538640" lon="9.3242830">
	<ele>1150.20</ele>
	<time>2024-03-25T09:47:04.000Z</time>
</trkpt>
<trkpt lat="45.8538620" lon="9.3242810">
	<ele>1150.20</ele>
	<time>2024-03-25T09:47:05.000Z</time>
</trkpt>
<trkpt lat="45.8538590" lon="9.3242780">
	<ele>1150.20</ele>
	<time>2024-03-25T09:47:06.000Z</time>
</trkpt>
<trkpt lat="45.8538550" lon="9.3242770">
	<ele>1150.20</ele>
	<time>2024-03-25T09:47:07.000Z</time>
</trkpt>
<trkpt lat="45.8538520" lon="9.3242750">
	<ele>1150.20</ele>
	<time>2024-03-25T09:47:08.000Z</time>
</trkpt>
<trkpt lat="45.8538500" lon="9.3242740">
	<ele>1150.20</ele>
	<time>2024-03-25T09:47:09.000Z</time>
</trkpt>
<trkpt lat="45.8538480" lon="9.3242730">
	<ele>1150.20</ele>
	<time>2024-03-25T09:47:10.000Z</time>
</trkpt>
<trkpt lat="45.8538460" lon="9.3242720">
	<ele>1150.20</ele>
	<time>2024-03-25T09:47:11.000Z</time>
</trkpt>
<trkpt lat="45.8538450" lon="9.3242710">
	<ele>1150.20</ele>
	<time>2024-03-25T09:47:12.000Z</time>
</trkpt>
<trkpt lat="45.8538440" lon="9.3242700">
	<ele>1150.20</ele>
	<time>2024-03-25T09:47:13.000Z</time>
</trkpt>
<trkpt lat="45.8538430" lon="9.3242680">
	<ele>1150.20</ele>
	<time>2024-03-25T09:47:14.000Z</time>
</trkpt>
<trkpt lat="45.8538420" lon="9.3242650">
	<ele>1150.20</ele>
	<time>2024-03-25T09:47:15.000Z</time>
</trkpt>
<trkpt lat="45.8538420" lon="9.3242620">
	<ele>1150.20</ele>
	<time>2024-03-25T09:47:16.000Z</time>
</trkpt>
<trkpt lat="45.8538410" lon="9.3242600">
	<ele>1150.20</ele>
	<time>2024-03-25T09:47:17.000Z</time>
</trkpt>
<trkpt lat="45.8538400" lon="9.3242580">
	<ele>1150.20</ele>
	<time>2024-03-25T09:47:18.000Z</time>
</trkpt>
<trkpt lat="45.8538390" lon="9.3242570">
	<ele>1150.20</ele>
	<time>2024-03-25T09:47:19.000Z</time>
</trkpt>
<trkpt lat="45.8538390" lon="9.3242550">
	<ele>1150.20</ele>
	<time>2024-03-25T09:47:20.000Z</time>
</trkpt>
<trkpt lat="45.8538380" lon="9.3242540">
	<ele>1150.20</ele>
	<time>2024-03-25T09:47:21.000Z</time>
</trkpt>
<trkpt lat="45.8538380" lon="9.3242530">
	<ele>1150.20</ele>
	<time>2024-03-25T09:47:22.000Z</time>
</trkpt>
<trkpt lat="45.8538380" lon="9.3242520">
	<ele>1150.20</ele>
	<time>2024-03-25T09:47:23.000Z</time>
</trkpt>
<trkpt lat="45.8538380" lon="9.3242510">
	<ele>1150.20</ele>
	<time>2024-03-25T09:47:24.000Z</time>
</trkpt>
<trkpt lat="45.8538370" lon="9.3242510">
	<ele>1150.20</ele>
	<time>2024-03-25T09:47:25.000Z</time>
</trkpt>
<trkpt lat="45.8538370" lon="9.3242500">
	<ele>1150.20</ele>
	<time>2024-03-25T09:47:26.000Z</time>
</trkpt>
<trkpt lat="45.8538370" lon="9.3242490">
	<ele>1150.40</ele>
	<time>2024-03-25T09:47:27.000Z</time>
</trkpt>
<trkpt lat="45.8538370" lon="9.3242490">
	<ele>1150.40</ele>
	<time>2024-03-25T09:47:28.000Z</time>
</trkpt>
<trkpt lat="45.8538370" lon="9.3242480">
	<ele>1150.40</ele>
	<time>2024-03-25T09:47:29.000Z</time>
</trkpt>
<trkpt lat="45.8538370" lon="9.3242480">
	<ele>1150.40</ele>
	<time>2024-03-25T09:47:30.000Z</time>
</trkpt>
<trkpt lat="45.8538370" lon="9.3242470">
	<ele>1150.60</ele>
	<time>2024-03-25T09:47:31.000Z</time>
</trkpt>
<trkpt lat="45.8538370" lon="9.3242470">
	<ele>1150.60</ele>
	<time>2024-03-25T09:47:32.000Z</time>
</trkpt>
<trkpt lat="45.8538370" lon="9.3242460">
	<ele>1150.80</ele>
	<time>2024-03-25T09:47:33.000Z</time>
</trkpt>
<trkpt lat="45.8538370" lon="9.3242460">
	<ele>1150.80</ele>
	<time>2024-03-25T09:47:34.000Z</time>
</trkpt>
<trkpt lat="45.8538370" lon="9.3242460">
	<ele>1150.80</ele>
	<time>2024-03-25T09:47:35.000Z</time>
</trkpt>
<trkpt lat="45.8538360" lon="9.3242460">
	<ele>1151.00</ele>
	<time>2024-03-25T09:47:36.000Z</time>
</trkpt>
<trkpt lat="45.8538360" lon="9.3242450">
	<ele>1151.20</ele>
	<time>2024-03-25T09:47:37.000Z</time>
</trkpt>
<trkpt lat="45.8538360" lon="9.3242450">
	<ele>1151.40</ele>
	<time>2024-03-25T09:47:38.000Z</time>
</trkpt>
<trkpt lat="45.8538360" lon="9.3242450">
	<ele>1151.60</ele>
	<time>2024-03-25T09:47:39.000Z</time>
</trkpt>
<trkpt lat="45.8538360" lon="9.3242440">
	<ele>1152.00</ele>
	<time>2024-03-25T09:47:40.000Z</time>
</trkpt>
<trkpt lat="45.8538360" lon="9.3242440">
	<ele>1152.20</ele>
	<time>2024-03-25T09:47:41.000Z</time>
</trkpt>
<trkpt lat="45.8538360" lon="9.3242440">
	<ele>1152.40</ele>
	<time>2024-03-25T09:47:42.000Z</time>
</trkpt>
<trkpt lat="45.8538360" lon="9.3242430">
	<ele>1152.60</ele>
	<time>2024-03-25T09:47:43.000Z</time>
</trkpt>
<trkpt lat="45.8538360" lon="9.3242430">
	<ele>1152.80</ele>
	<time>2024-03-25T09:47:44.000Z</time>
</trkpt>
<trkpt lat="45.8538360" lon="9.3242420">
	<ele>1153.00</ele>
	<time>2024-03-25T09:47:45.000Z</time>
</trkpt>
<trkpt lat="45.8538350" lon="9.3242420">
	<ele>1153.00</ele>
	<time>2024-03-25T09:47:46.000Z</time>
</trkpt>
<trkpt lat="45.8538350" lon="9.3242410">
	<ele>1153.20</ele>
	<time>2024-03-25T09:47:47.000Z</time>
</trkpt>
<trkpt lat="45.8538340" lon="9.3242410">
	<ele>1153.40</ele>
	<time>2024-03-25T09:47:48.000Z</time>
</trkpt>
<trkpt lat="45.8538330" lon="9.3242400">
	<ele>1153.60</ele>
	<time>2024-03-25T09:47:49.000Z</time>
</trkpt>
<trkpt lat="45.8538310" lon="9.3242400">
	<ele>1153.80</ele>
	<time>2024-03-25T09:47:50.000Z</time>
</trkpt>
<trkpt lat="45.8538300" lon="9.3242390">
	<ele>1153.80</ele>
	<time>2024-03-25T09:47:51.000Z</time>
</trkpt>
<trkpt lat="45.8538290" lon="9.3242390">
	<ele>1153.80</ele>
	<time>2024-03-25T09:47:52.000Z</time>
</trkpt>
<trkpt lat="45.8538280" lon="9.3242380">
	<ele>1153.80</ele>
	<time>2024-03-25T09:47:53.000Z</time>
</trkpt>
<trkpt lat="45.8538230" lon="9.3242270">
	<ele>1153.80</ele>
	<time>2024-03-25T09:47:54.000Z</time>
</trkpt>
<trkpt lat="45.8538190" lon="9.3242020">
	<ele>1153.80</ele>
	<time>2024-03-25T09:47:55.000Z</time>
</trkpt>
<trkpt lat="45.8538120" lon="9.3241810">
	<ele>1153.80</ele>
	<time>2024-03-25T09:47:56.000Z</time>
</trkpt>
<trkpt lat="45.8538100" lon="9.3241490">
	<ele>1153.80</ele>
	<time>2024-03-25T09:47:57.000Z</time>
</trkpt>
<trkpt lat="45.8538010" lon="9.3241270">
	<ele>1153.80</ele>
	<time>2024-03-25T09:47:58.000Z</time>
</trkpt>
<trkpt lat="45.8537960" lon="9.3241070">
	<ele>1153.80</ele>
	<time>2024-03-25T09:47:59.000Z</time>
</trkpt>
<trkpt lat="45.8537910" lon="9.3240850">
	<ele>1153.80</ele>
	<time>2024-03-25T09:48:00.000Z</time>
</trkpt>
<trkpt lat="45.8537860" lon="9.3240630">
	<ele>1153.60</ele>
	<time>2024-03-25T09:48:01.000Z</time>
</trkpt>
<trkpt lat="45.8537820" lon="9.3240400">
	<ele>1153.40</ele>
	<time>2024-03-25T09:48:02.000Z</time>
</trkpt>
<trkpt lat="45.8537790" lon="9.3240120">
	<ele>1153.40</ele>
	<time>2024-03-25T09:48:03.000Z</time>
</trkpt>
<trkpt lat="45.8537700" lon="9.3240030">
	<ele>1153.40</ele>
	<time>2024-03-25T09:48:04.000Z</time>
</trkpt>
<trkpt lat="45.8537590" lon="9.3239930">
	<ele>1153.40</ele>
	<time>2024-03-25T09:48:05.000Z</time>
</trkpt>
<trkpt lat="45.8537570" lon="9.3239830">
	<ele>1153.40</ele>
	<time>2024-03-25T09:48:06.000Z</time>
</trkpt>
<trkpt lat="45.8537600" lon="9.3239720">
	<ele>1153.60</ele>
	<time>2024-03-25T09:48:07.000Z</time>
</trkpt>
<trkpt lat="45.8537620" lon="9.3239630">
	<ele>1153.60</ele>
	<time>2024-03-25T09:48:08.000Z</time>
</trkpt>
<trkpt lat="45.8537540" lon="9.3239540">
	<ele>1153.80</ele>
	<time>2024-03-25T09:48:09.000Z</time>
</trkpt>
<trkpt lat="45.8537460" lon="9.3239450">
	<ele>1154.00</ele>
	<time>2024-03-25T09:48:10.000Z</time>
</trkpt>
<trkpt lat="45.8537380" lon="9.3239370">
	<ele>1154.20</ele>
	<time>2024-03-25T09:48:11.000Z</time>
</trkpt>
<trkpt lat="45.8537350" lon="9.3239280">
	<ele>1154.40</ele>
	<time>2024-03-25T09:48:12.000Z</time>
</trkpt>
<trkpt lat="45.8537340" lon="9.3239170">
	<ele>1154.60</ele>
	<time>2024-03-25T09:48:13.000Z</time>
</trkpt>
<trkpt lat="45.8537320" lon="9.3239060">
	<ele>1155.00</ele>
	<time>2024-03-25T09:48:14.000Z</time>
</trkpt>
<trkpt lat="45.8537310" lon="9.3238960">
	<ele>1155.20</ele>
	<time>2024-03-25T09:48:15.000Z</time>
</trkpt>
<trkpt lat="45.8537290" lon="9.3238910">
	<ele>1155.40</ele>
	<time>2024-03-25T09:48:16.000Z</time>
</trkpt>
<trkpt lat="45.8537280" lon="9.3238870">
	<ele>1155.60</ele>
	<time>2024-03-25T09:48:17.000Z</time>
</trkpt>
<trkpt lat="45.8537280" lon="9.3238800">
	<ele>1155.80</ele>
	<time>2024-03-25T09:48:18.000Z</time>
</trkpt>
<trkpt lat="45.8537300" lon="9.3238710">
	<ele>1156.00</ele>
	<time>2024-03-25T09:48:19.000Z</time>
</trkpt>
<trkpt lat="45.8537310" lon="9.3238670">
	<ele>1156.20</ele>
	<time>2024-03-25T09:48:20.000Z</time>
</trkpt>
<trkpt lat="45.8537320" lon="9.3238620">
	<ele>1156.40</ele>
	<time>2024-03-25T09:48:21.000Z</time>
</trkpt>
<trkpt lat="45.8537310" lon="9.3238580">
	<ele>1156.60</ele>
	<time>2024-03-25T09:48:22.000Z</time>
</trkpt>
<trkpt lat="45.8537240" lon="9.3238540">
	<ele>1156.80</ele>
	<time>2024-03-25T09:48:23.000Z</time>
</trkpt>
<trkpt lat="45.8537170" lon="9.3238520">
	<ele>1157.00</ele>
	<time>2024-03-25T09:48:24.000Z</time>
</trkpt>
<trkpt lat="45.8537100" lon="9.3238510">
	<ele>1157.20</ele>
	<time>2024-03-25T09:48:25.000Z</time>
</trkpt>
<trkpt lat="45.8537010" lon="9.3238470">
	<ele>1157.40</ele>
	<time>2024-03-25T09:48:26.000Z</time>
</trkpt>
<trkpt lat="45.8536930" lon="9.3238450">
	<ele>1157.60</ele>
	<time>2024-03-25T09:48:27.000Z</time>
</trkpt>
<trkpt lat="45.8536890" lon="9.3238410">
	<ele>1157.60</ele>
	<time>2024-03-25T09:48:28.000Z</time>
</trkpt>
<trkpt lat="45.8536860" lon="9.3238360">
	<ele>1158.00</ele>
	<time>2024-03-25T09:48:29.000Z</time>
</trkpt>
<trkpt lat="45.8536840" lon="9.3238340">
	<ele>1158.20</ele>
	<time>2024-03-25T09:48:30.000Z</time>
</trkpt>
<trkpt lat="45.8536810" lon="9.3238310">
	<ele>1158.20</ele>
	<time>2024-03-25T09:48:31.000Z</time>
</trkpt>
<trkpt lat="45.8536790" lon="9.3238270">
	<ele>1158.40</ele>
	<time>2024-03-25T09:48:32.000Z</time>
</trkpt>
<trkpt lat="45.8536780" lon="9.3238240">
	<ele>1158.60</ele>
	<time>2024-03-25T09:48:33.000Z</time>
</trkpt>
<trkpt lat="45.8536780" lon="9.3238200">
	<ele>1158.60</ele>
	<time>2024-03-25T09:48:34.000Z</time>
</trkpt>
<trkpt lat="45.8536790" lon="9.3238170">
	<ele>1158.80</ele>
	<time>2024-03-25T09:48:35.000Z</time>
</trkpt>
<trkpt lat="45.8536770" lon="9.3238140">
	<ele>1158.80</ele>
	<time>2024-03-25T09:48:36.000Z</time>
</trkpt>
<trkpt lat="45.8536760" lon="9.3238130">
	<ele>1159.00</ele>
	<time>2024-03-25T09:48:37.000Z</time>
</trkpt>
<trkpt lat="45.8536760" lon="9.3238110">
	<ele>1159.20</ele>
	<time>2024-03-25T09:48:38.000Z</time>
</trkpt>
<trkpt lat="45.8536750" lon="9.3238120">
	<ele>1159.20</ele>
	<time>2024-03-25T09:48:39.000Z</time>
</trkpt>
<trkpt lat="45.8536730" lon="9.3238130">
	<ele>1159.40</ele>
	<time>2024-03-25T09:48:40.000Z</time>
</trkpt>
<trkpt lat="45.8536710" lon="9.3238130">
	<ele>1159.40</ele>
	<time>2024-03-25T09:48:41.000Z</time>
</trkpt>
<trkpt lat="45.8536710" lon="9.3238150">
	<ele>1159.20</ele>
	<time>2024-03-25T09:48:42.000Z</time>
</trkpt>
<trkpt lat="45.8536710" lon="9.3238150">
	<ele>1159.20</ele>
	<time>2024-03-25T09:48:43.000Z</time>
</trkpt>
<trkpt lat="45.8536710" lon="9.3238150">
	<ele>1159.40</ele>
	<time>2024-03-25T09:48:44.000Z</time>
</trkpt>
<trkpt lat="45.8536710" lon="9.3238150">
	<ele>1159.40</ele>
	<time>2024-03-25T09:48:45.000Z</time>
</trkpt>
<trkpt lat="45.8536710" lon="9.3238150">
	<ele>1159.40</ele>
	<time>2024-03-25T09:48:46.000Z</time>
</trkpt>
<trkpt lat="45.8536710" lon="9.3238150">
	<ele>1159.40</ele>
	<time>2024-03-25T09:48:47.000Z</time>
</trkpt>
<trkpt lat="45.8536710" lon="9.3238150">
	<ele>1159.60</ele>
	<time>2024-03-25T09:48:48.000Z</time>
</trkpt>
<trkpt lat="45.8536710" lon="9.3238150">
	<ele>1159.60</ele>
	<time>2024-03-25T09:48:49.000Z</time>
</trkpt>
<trkpt lat="45.8536710" lon="9.3238150">
	<ele>1159.60</ele>
	<time>2024-03-25T09:48:50.000Z</time>
</trkpt>
<trkpt lat="45.8536730" lon="9.3238150">
	<ele>1159.60</ele>
	<time>2024-03-25T09:48:51.000Z</time>
</trkpt>
<trkpt lat="45.8536730" lon="9.3238150">
	<ele>1159.80</ele>
	<time>2024-03-25T09:48:52.000Z</time>
</trkpt>
<trkpt lat="45.8536730" lon="9.3238150">
	<ele>1159.80</ele>
	<time>2024-03-25T09:48:53.000Z</time>
</trkpt>
<trkpt lat="45.8536750" lon="9.3238150">
	<ele>1160.00</ele>
	<time>2024-03-25T09:48:54.000Z</time>
</trkpt>
<trkpt lat="45.8536760" lon="9.3238150">
	<ele>1160.20</ele>
	<time>2024-03-25T09:48:55.000Z</time>
</trkpt>
<trkpt lat="45.8536760" lon="9.3238150">
	<ele>1160.40</ele>
	<time>2024-03-25T09:48:56.000Z</time>
</trkpt>
<trkpt lat="45.8536770" lon="9.3238150">
	<ele>1160.60</ele>
	<time>2024-03-25T09:48:57.000Z</time>
</trkpt>
<trkpt lat="45.8536770" lon="9.3238140">
	<ele>1161.00</ele>
	<time>2024-03-25T09:48:58.000Z</time>
</trkpt>
<trkpt lat="45.8536770" lon="9.3238140">
	<ele>1161.20</ele>
	<time>2024-03-25T09:48:59.000Z</time>
</trkpt>
<trkpt lat="45.8536780" lon="9.3238130">
	<ele>1161.40</ele>
	<time>2024-03-25T09:49:00.000Z</time>
</trkpt>
<trkpt lat="45.8536780" lon="9.3238130">
	<ele>1161.60</ele>
	<time>2024-03-25T09:49:01.000Z</time>
</trkpt>
<trkpt lat="45.8536790" lon="9.3238130">
	<ele>1161.60</ele>
	<time>2024-03-25T09:49:02.000Z</time>
</trkpt>
<trkpt lat="45.8536820" lon="9.3238120">
	<ele>1161.60</ele>
	<time>2024-03-25T09:49:03.000Z</time>
</trkpt>
<trkpt lat="45.8536870" lon="9.3238120">
	<ele>1161.60</ele>
	<time>2024-03-25T09:49:04.000Z</time>
</trkpt>
<trkpt lat="45.8536930" lon="9.3238110">
	<ele>1161.60</ele>
	<time>2024-03-25T09:49:05.000Z</time>
</trkpt>
<trkpt lat="45.8536990" lon="9.3238080">
	<ele>1161.60</ele>
	<time>2024-03-25T09:49:06.000Z</time>
</trkpt>
<trkpt lat="45.8537030" lon="9.3238050">
	<ele>1161.60</ele>
	<time>2024-03-25T09:49:07.000Z</time>
</trkpt>
<trkpt lat="45.8537060" lon="9.3238010">
	<ele>1161.60</ele>
	<time>2024-03-25T09:49:08.000Z</time>
</trkpt>
<trkpt lat="45.8537130" lon="9.3237950">
	<ele>1161.80</ele>
	<time>2024-03-25T09:49:09.000Z</time>
</trkpt>
<trkpt lat="45.8537190" lon="9.3237910">
	<ele>1162.00</ele>
	<time>2024-03-25T09:49:10.000Z</time>
</trkpt>
<trkpt lat="45.8537240" lon="9.3237900">
	<ele>1162.20</ele>
	<time>2024-03-25T09:49:11.000Z</time>
</trkpt>
<trkpt lat="45.8537280" lon="9.3237880">
	<ele>1162.40</ele>
	<time>2024-03-25T09:49:12.000Z</time>
</trkpt>
<trkpt lat="45.8537310" lon="9.3237880">
	<ele>1162.40</ele>
	<time>2024-03-25T09:49:13.000Z</time>
</trkpt>
<trkpt lat="45.8537340" lon="9.3237850">
	<ele>1162.40</ele>
	<time>2024-03-25T09:49:14.000Z</time>
</trkpt>
<trkpt lat="45.8537400" lon="9.3237840">
	<ele>1162.40</ele>
	<time>2024-03-25T09:49:15.000Z</time>
</trkpt>
<trkpt lat="45.8537430" lon="9.3237840">
	<ele>1162.40</ele>
	<time>2024-03-25T09:49:16.000Z</time>
</trkpt>
<trkpt lat="45.8537450" lon="9.3237840">
	<ele>1162.40</ele>
	<time>2024-03-25T09:49:17.000Z</time>
</trkpt>
<trkpt lat="45.8537470" lon="9.3237830">
	<ele>1162.40</ele>
	<time>2024-03-25T09:49:18.000Z</time>
</trkpt>
<trkpt lat="45.8537470" lon="9.3237830">
	<ele>1162.40</ele>
	<time>2024-03-25T09:49:19.000Z</time>
</trkpt>
<trkpt lat="45.8537490" lon="9.3237820">
	<ele>1162.20</ele>
	<time>2024-03-25T09:49:20.000Z</time>
</trkpt>
<trkpt lat="45.8537510" lon="9.3237810">
	<ele>1162.40</ele>
	<time>2024-03-25T09:49:21.000Z</time>
</trkpt>
<trkpt lat="45.8537520" lon="9.3237810">
	<ele>1162.40</ele>
	<time>2024-03-25T09:49:22.000Z</time>
</trkpt>
<trkpt lat="45.8537520" lon="9.3237810">
	<ele>1162.40</ele>
	<time>2024-03-25T09:49:23.000Z</time>
</trkpt>
<trkpt lat="45.8537530" lon="9.3237810">
	<ele>1162.40</ele>
	<time>2024-03-25T09:49:24.000Z</time>
</trkpt>
<trkpt lat="45.8537530" lon="9.3237810">
	<ele>1162.20</ele>
	<time>2024-03-25T09:49:25.000Z</time>
</trkpt>
<trkpt lat="45.8537530" lon="9.3237810">
	<ele>1162.20</ele>
	<time>2024-03-25T09:49:26.000Z</time>
</trkpt>
<trkpt lat="45.8537540" lon="9.3237810">
	<ele>1162.20</ele>
	<time>2024-03-25T09:49:27.000Z</time>
</trkpt>
<trkpt lat="45.8537540" lon="9.3237800">
	<ele>1162.20</ele>
	<time>2024-03-25T09:49:28.000Z</time>
</trkpt>
<trkpt lat="45.8537540" lon="9.3237800">
	<ele>1162.20</ele>
	<time>2024-03-25T09:49:29.000Z</time>
</trkpt>
<trkpt lat="45.8537540" lon="9.3237790">
	<ele>1162.40</ele>
	<time>2024-03-25T09:49:30.000Z</time>
</trkpt>
<trkpt lat="45.8537540" lon="9.3237790">
	<ele>1162.40</ele>
	<time>2024-03-25T09:49:31.000Z</time>
</trkpt>
<trkpt lat="45.8537540" lon="9.3237790">
	<ele>1162.40</ele>
	<time>2024-03-25T09:49:32.000Z</time>
</trkpt>
<trkpt lat="45.8537540" lon="9.3237790">
	<ele>1162.80</ele>
	<time>2024-03-25T09:49:33.000Z</time>
</trkpt>
<trkpt lat="45.8537540" lon="9.3237790">
	<ele>1163.00</ele>
	<time>2024-03-25T09:49:34.000Z</time>
</trkpt>
<trkpt lat="45.8537540" lon="9.3237790">
	<ele>1163.40</ele>
	<time>2024-03-25T09:49:35.000Z</time>
</trkpt>
<trkpt lat="45.8537540" lon="9.3237780">
	<ele>1163.60</ele>
	<time>2024-03-25T09:49:36.000Z</time>
</trkpt>
<trkpt lat="45.8537540" lon="9.3237780">
	<ele>1163.80</ele>
	<time>2024-03-25T09:49:37.000Z</time>
</trkpt>
<trkpt lat="45.8537540" lon="9.3237780">
	<ele>1163.80</ele>
	<time>2024-03-25T09:49:38.000Z</time>
</trkpt>
<trkpt lat="45.8537540" lon="9.3237770">
	<ele>1164.00</ele>
	<time>2024-03-25T09:49:39.000Z</time>
</trkpt>
<trkpt lat="45.8537540" lon="9.3237770">
	<ele>1164.20</ele>
	<time>2024-03-25T09:49:40.000Z</time>
</trkpt>
<trkpt lat="45.8537500" lon="9.3237750">
	<ele>1164.40</ele>
	<time>2024-03-25T09:49:41.000Z</time>
</trkpt>
<trkpt lat="45.8537440" lon="9.3237710">
	<ele>1164.80</ele>
	<time>2024-03-25T09:49:42.000Z</time>
</trkpt>
<trkpt lat="45.8537400" lon="9.3237690">
	<ele>1165.00</ele>
	<time>2024-03-25T09:49:43.000Z</time>
</trkpt>
<trkpt lat="45.8537320" lon="9.3237650">
	<ele>1165.00</ele>
	<time>2024-03-25T09:49:44.000Z</time>
</trkpt>
<trkpt lat="45.8537240" lon="9.3237620">
	<ele>1165.20</ele>
	<time>2024-03-25T09:49:45.000Z</time>
</trkpt>
<trkpt lat="45.8537180" lon="9.3237610">
	<ele>1165.40</ele>
	<time>2024-03-25T09:49:46.000Z</time>
</trkpt>
<trkpt lat="45.8537120" lon="9.3237600">
	<ele>1165.60</ele>
	<time>2024-03-25T09:49:47.000Z</time>
</trkpt>
<trkpt lat="45.8537070" lon="9.3237600">
	<ele>1165.80</ele>
	<time>2024-03-25T09:49:48.000Z</time>
</trkpt>
<trkpt lat="45.8537030" lon="9.3237590">
	<ele>1166.00</ele>
	<time>2024-03-25T09:49:49.000Z</time>
</trkpt>
<trkpt lat="45.8536990" lon="9.3237580">
	<ele>1166.40</ele>
	<time>2024-03-25T09:49:50.000Z</time>
</trkpt>
<trkpt lat="45.8536920" lon="9.3237570">
	<ele>1166.60</ele>
	<time>2024-03-25T09:49:51.000Z</time>
</trkpt>
<trkpt lat="45.8536890" lon="9.3237560">
	<ele>1166.60</ele>
	<time>2024-03-25T09:49:52.000Z</time>
</trkpt>
<trkpt lat="45.8536850" lon="9.3237500">
	<ele>1166.80</ele>
	<time>2024-03-25T09:49:53.000Z</time>
</trkpt>
<trkpt lat="45.8536810" lon="9.3237420">
	<ele>1166.80</ele>
	<time>2024-03-25T09:49:54.000Z</time>
</trkpt>
<trkpt lat="45.8536780" lon="9.3237360">
	<ele>1167.20</ele>
	<time>2024-03-25T09:49:55.000Z</time>
</trkpt>
<trkpt lat="45.8536750" lon="9.3237290">
	<ele>1167.60</ele>
	<time>2024-03-25T09:49:56.000Z</time>
</trkpt>
<trkpt lat="45.8536710" lon="9.3237200">
	<ele>1167.80</ele>
	<time>2024-03-25T09:49:57.000Z</time>
</trkpt>
<trkpt lat="45.8536680" lon="9.3237120">
	<ele>1168.00</ele>
	<time>2024-03-25T09:49:58.000Z</time>
</trkpt>
<trkpt lat="45.8536630" lon="9.3237020">
	<ele>1168.20</ele>
	<time>2024-03-25T09:49:59.000Z</time>
</trkpt>
<trkpt lat="45.8536600" lon="9.3236960">
	<ele>1168.20</ele>
	<time>2024-03-25T09:50:00.000Z</time>
</trkpt>
<trkpt lat="45.8536550" lon="9.3236900">
	<ele>1168.40</ele>
	<time>2024-03-25T09:50:01.000Z</time>
</trkpt>
<trkpt lat="45.8536500" lon="9.3236840">
	<ele>1168.40</ele>
	<time>2024-03-25T09:50:02.000Z</time>
</trkpt>
<trkpt lat="45.8536450" lon="9.3236790">
	<ele>1168.60</ele>
	<time>2024-03-25T09:50:03.000Z</time>
</trkpt>
<trkpt lat="45.8536400" lon="9.3236740">
	<ele>1168.60</ele>
	<time>2024-03-25T09:50:04.000Z</time>
</trkpt>
<trkpt lat="45.8536350" lon="9.3236720">
	<ele>1168.80</ele>
	<time>2024-03-25T09:50:05.000Z</time>
</trkpt>
<trkpt lat="45.8536310" lon="9.3236710">
	<ele>1168.80</ele>
	<time>2024-03-25T09:50:06.000Z</time>
</trkpt>
<trkpt lat="45.8536280" lon="9.3236700">
	<ele>1169.00</ele>
	<time>2024-03-25T09:50:07.000Z</time>
</trkpt>
<trkpt lat="45.8536250" lon="9.3236690">
	<ele>1169.00</ele>
	<time>2024-03-25T09:50:08.000Z</time>
</trkpt>
<trkpt lat="45.8536190" lon="9.3236670">
	<ele>1169.00</ele>
	<time>2024-03-25T09:50:09.000Z</time>
</trkpt>
<trkpt lat="45.8536150" lon="9.3236650">
	<ele>1169.20</ele>
	<time>2024-03-25T09:50:10.000Z</time>
</trkpt>
<trkpt lat="45.8536130" lon="9.3236620">
	<ele>1169.20</ele>
	<time>2024-03-25T09:50:11.000Z</time>
</trkpt>
<trkpt lat="45.8536120" lon="9.3236590">
	<ele>1169.20</ele>
	<time>2024-03-25T09:50:12.000Z</time>
</trkpt>
<trkpt lat="45.8536120" lon="9.3236560">
	<ele>1169.20</ele>
	<time>2024-03-25T09:50:13.000Z</time>
</trkpt>
<trkpt lat="45.8536100" lon="9.3236520">
	<ele>1169.60</ele>
	<time>2024-03-25T09:50:14.000Z</time>
</trkpt>
<trkpt lat="45.8536070" lon="9.3236470">
	<ele>1169.80</ele>
	<time>2024-03-25T09:50:15.000Z</time>
</trkpt>
<trkpt lat="45.8536020" lon="9.3236420">
	<ele>1170.20</ele>
	<time>2024-03-25T09:50:16.000Z</time>
</trkpt>
<trkpt lat="45.8535960" lon="9.3236370">
	<ele>1170.40</ele>
	<time>2024-03-25T09:50:17.000Z</time>
</trkpt>
<trkpt lat="45.8535900" lon="9.3236310">
	<ele>1170.40</ele>
	<time>2024-03-25T09:50:18.000Z</time>
</trkpt>
<trkpt lat="45.8535830" lon="9.3236260">
	<ele>1170.40</ele>
	<time>2024-03-25T09:50:19.000Z</time>
</trkpt>
<trkpt lat="45.8535770" lon="9.3236190">
	<ele>1170.40</ele>
	<time>2024-03-25T09:50:20.000Z</time>
</trkpt>
<trkpt lat="45.8535710" lon="9.3236140">
	<ele>1170.40</ele>
	<time>2024-03-25T09:50:21.000Z</time>
</trkpt>
<trkpt lat="45.8535660" lon="9.3236080">
	<ele>1170.40</ele>
	<time>2024-03-25T09:50:22.000Z</time>
</trkpt>
<trkpt lat="45.8535620" lon="9.3236030">
	<ele>1170.40</ele>
	<time>2024-03-25T09:50:23.000Z</time>
</trkpt>
<trkpt lat="45.8535600" lon="9.3235980">
	<ele>1170.40</ele>
	<time>2024-03-25T09:50:24.000Z</time>
</trkpt>
<trkpt lat="45.8535580" lon="9.3235910">
	<ele>1170.60</ele>
	<time>2024-03-25T09:50:25.000Z</time>
</trkpt>
<trkpt lat="45.8535550" lon="9.3235860">
	<ele>1170.60</ele>
	<time>2024-03-25T09:50:26.000Z</time>
</trkpt>
<trkpt lat="45.8535520" lon="9.3235820">
	<ele>1170.60</ele>
	<time>2024-03-25T09:50:27.000Z</time>
</trkpt>
<trkpt lat="45.8535480" lon="9.3235770">
	<ele>1170.60</ele>
	<time>2024-03-25T09:50:28.000Z</time>
</trkpt>
<trkpt lat="45.8535430" lon="9.3235730">
	<ele>1170.60</ele>
	<time>2024-03-25T09:50:29.000Z</time>
</trkpt>
<trkpt lat="45.8535390" lon="9.3235690">
	<ele>1170.60</ele>
	<time>2024-03-25T09:50:30.000Z</time>
</trkpt>
<trkpt lat="45.8535360" lon="9.3235650">
	<ele>1170.60</ele>
	<time>2024-03-25T09:50:31.000Z</time>
</trkpt>
<trkpt lat="45.8535340" lon="9.3235600">
	<ele>1170.80</ele>
	<time>2024-03-25T09:50:32.000Z</time>
</trkpt>
<trkpt lat="45.8535310" lon="9.3235540">
	<ele>1170.80</ele>
	<time>2024-03-25T09:50:33.000Z</time>
</trkpt>
<trkpt lat="45.8535230" lon="9.3235350">
	<ele>1170.80</ele>
	<time>2024-03-25T09:50:34.000Z</time>
</trkpt>
<trkpt lat="45.8535170" lon="9.3235170">
	<ele>1170.80</ele>
	<time>2024-03-25T09:50:35.000Z</time>
</trkpt>
<trkpt lat="45.8535110" lon="9.3235000">
	<ele>1170.80</ele>
	<time>2024-03-25T09:50:36.000Z</time>
</trkpt>
<trkpt lat="45.8535040" lon="9.3234810">
	<ele>1170.80</ele>
	<time>2024-03-25T09:50:37.000Z</time>
</trkpt>
<trkpt lat="45.8534950" lon="9.3234600">
	<ele>1170.60</ele>
	<time>2024-03-25T09:50:38.000Z</time>
</trkpt>
<trkpt lat="45.8534860" lon="9.3234400">
	<ele>1170.60</ele>
	<time>2024-03-25T09:50:39.000Z</time>
</trkpt>
<trkpt lat="45.8534790" lon="9.3234200">
	<ele>1170.60</ele>
	<time>2024-03-25T09:50:40.000Z</time>
</trkpt>
<trkpt lat="45.8534730" lon="9.3233990">
	<ele>1170.60</ele>
	<time>2024-03-25T09:50:41.000Z</time>
</trkpt>
<trkpt lat="45.8534660" lon="9.3233820">
	<ele>1170.60</ele>
	<time>2024-03-25T09:50:42.000Z</time>
</trkpt>
<trkpt lat="45.8534590" lon="9.3233690">
	<ele>1170.60</ele>
	<time>2024-03-25T09:50:43.000Z</time>
</trkpt>
<trkpt lat="45.8534550" lon="9.3233620">
	<ele>1170.60</ele>
	<time>2024-03-25T09:50:44.000Z</time>
</trkpt>
<trkpt lat="45.8534480" lon="9.3233560">
	<ele>1170.80</ele>
	<time>2024-03-25T09:50:45.000Z</time>
</trkpt>
<trkpt lat="45.8534380" lon="9.3233480">
	<ele>1170.80</ele>
	<time>2024-03-25T09:50:46.000Z</time>
</trkpt>
<trkpt lat="45.8534340" lon="9.3233440">
	<ele>1171.00</ele>
	<time>2024-03-25T09:50:47.000Z</time>
</trkpt>
<trkpt lat="45.8534340" lon="9.3233360">
	<ele>1171.40</ele>
	<time>2024-03-25T09:50:48.000Z</time>
</trkpt>
<trkpt lat="45.8534320" lon="9.3233250">
	<ele>1171.60</ele>
	<time>2024-03-25T09:50:49.000Z</time>
</trkpt>
<trkpt lat="45.8534310" lon="9.3233170">
	<ele>1171.60</ele>
	<time>2024-03-25T09:50:50.000Z</time>
</trkpt>
<trkpt lat="45.8534310" lon="9.3233080">
	<ele>1171.80</ele>
	<time>2024-03-25T09:50:51.000Z</time>
</trkpt>
<trkpt lat="45.8534280" lon="9.3233000">
	<ele>1172.00</ele>
	<time>2024-03-25T09:50:52.000Z</time>
</trkpt>
<trkpt lat="45.8534240" lon="9.3232910">
	<ele>1172.00</ele>
	<time>2024-03-25T09:50:53.000Z</time>
</trkpt>
<trkpt lat="45.8534230" lon="9.3232810">
	<ele>1172.00</ele>
	<time>2024-03-25T09:50:54.000Z</time>
</trkpt>
<trkpt lat="45.8534230" lon="9.3232700">
	<ele>1172.20</ele>
	<time>2024-03-25T09:50:55.000Z</time>
</trkpt>
<trkpt lat="45.8534250" lon="9.3232600">
	<ele>1172.20</ele>
	<time>2024-03-25T09:50:56.000Z</time>
</trkpt>
<trkpt lat="45.8534260" lon="9.3232480">
	<ele>1172.40</ele>
	<time>2024-03-25T09:50:57.000Z</time>
</trkpt>
<trkpt lat="45.8534240" lon="9.3232390">
	<ele>1172.20</ele>
	<time>2024-03-25T09:50:58.000Z</time>
</trkpt>
<trkpt lat="45.8534230" lon="9.3232340">
	<ele>1172.20</ele>
	<time>2024-03-25T09:50:59.000Z</time>
</trkpt>
<trkpt lat="45.8534290" lon="9.3232250">
	<ele>1171.80</ele>
	<time>2024-03-25T09:51:00.000Z</time>
</trkpt>
<trkpt lat="45.8534310" lon="9.3232140">
	<ele>1171.60</ele>
	<time>2024-03-25T09:51:01.000Z</time>
</trkpt>
<trkpt lat="45.8534310" lon="9.3232020">
	<ele>1171.20</ele>
	<time>2024-03-25T09:51:02.000Z</time>
</trkpt>
<trkpt lat="45.8534300" lon="9.3231890">
	<ele>1171.00</ele>
	<time>2024-03-25T09:51:03.000Z</time>
</trkpt>
<trkpt lat="45.8534280" lon="9.3231740">
	<ele>1171.00</ele>
	<time>2024-03-25T09:51:04.000Z</time>
</trkpt>
<trkpt lat="45.8534250" lon="9.3231600">
	<ele>1170.80</ele>
	<time>2024-03-25T09:51:05.000Z</time>
</trkpt>
<trkpt lat="45.8534180" lon="9.3231470">
	<ele>1170.40</ele>
	<time>2024-03-25T09:51:06.000Z</time>
</trkpt>
<trkpt lat="45.8534120" lon="9.3231350">
	<ele>1170.20</ele>
	<time>2024-03-25T09:51:07.000Z</time>
</trkpt>
<trkpt lat="45.8534110" lon="9.3231200">
	<ele>1170.00</ele>
	<time>2024-03-25T09:51:08.000Z</time>
</trkpt>
<trkpt lat="45.8534080" lon="9.3231070">
	<ele>1170.00</ele>
	<time>2024-03-25T09:51:09.000Z</time>
</trkpt>
<trkpt lat="45.8534010" lon="9.3230960">
	<ele>1169.80</ele>
	<time>2024-03-25T09:51:10.000Z</time>
</trkpt>
<trkpt lat="45.8533920" lon="9.3230920">
	<ele>1169.80</ele>
	<time>2024-03-25T09:51:11.000Z</time>
</trkpt>
<trkpt lat="45.8533860" lon="9.3230880">
	<ele>1169.80</ele>
	<time>2024-03-25T09:51:12.000Z</time>
</trkpt>
<trkpt lat="45.8533780" lon="9.3230840">
	<ele>1169.80</ele>
	<time>2024-03-25T09:51:13.000Z</time>
</trkpt>
<trkpt lat="45.8533720" lon="9.3230770">
	<ele>1170.00</ele>
	<time>2024-03-25T09:51:14.000Z</time>
</trkpt>
<trkpt lat="45.8533630" lon="9.3230680">
	<ele>1170.20</ele>
	<time>2024-03-25T09:51:15.000Z</time>
</trkpt>
<trkpt lat="45.8533520" lon="9.3230580">
	<ele>1170.20</ele>
	<time>2024-03-25T09:51:16.000Z</time>
</trkpt>
<trkpt lat="45.8533460" lon="9.3230460">
	<ele>1170.20</ele>
	<time>2024-03-25T09:51:17.000Z</time>
</trkpt>
<trkpt lat="45.8533360" lon="9.3230360">
	<ele>1170.20</ele>
	<time>2024-03-25T09:51:18.000Z</time>
</trkpt>
<trkpt lat="45.8533290" lon="9.3230270">
	<ele>1170.20</ele>
	<time>2024-03-25T09:51:19.000Z</time>
</trkpt>
<trkpt lat="45.8533210" lon="9.3230160">
	<ele>1170.20</ele>
	<time>2024-03-25T09:51:20.000Z</time>
</trkpt>
<trkpt lat="45.8533150" lon="9.3230050">
	<ele>1170.20</ele>
	<time>2024-03-25T09:51:21.000Z</time>
</trkpt>
<trkpt lat="45.8533060" lon="9.3229960">
	<ele>1170.20</ele>
	<time>2024-03-25T09:51:22.000Z</time>
</trkpt>
<trkpt lat="45.8532970" lon="9.3229890">
	<ele>1170.20</ele>
	<time>2024-03-25T09:51:23.000Z</time>
</trkpt>
<trkpt lat="45.8532870" lon="9.3229830">
	<ele>1170.20</ele>
	<time>2024-03-25T09:51:24.000Z</time>
</trkpt>
<trkpt lat="45.8532820" lon="9.3229780">
	<ele>1170.20</ele>
	<time>2024-03-25T09:51:25.000Z</time>
</trkpt>
<trkpt lat="45.8532780" lon="9.3229680">
	<ele>1170.20</ele>
	<time>2024-03-25T09:51:26.000Z</time>
</trkpt>
<trkpt lat="45.8532730" lon="9.3229560">
	<ele>1170.20</ele>
	<time>2024-03-25T09:51:27.000Z</time>
</trkpt>
<trkpt lat="45.8532690" lon="9.3229450">
	<ele>1170.20</ele>
	<time>2024-03-25T09:51:28.000Z</time>
</trkpt>
<trkpt lat="45.8532630" lon="9.3229370">
	<ele>1170.20</ele>
	<time>2024-03-25T09:51:29.000Z</time>
</trkpt>
<trkpt lat="45.8532590" lon="9.3229250">
	<ele>1170.20</ele>
	<time>2024-03-25T09:51:30.000Z</time>
</trkpt>
<trkpt lat="45.8532560" lon="9.3229130">
	<ele>1170.20</ele>
	<time>2024-03-25T09:51:31.000Z</time>
</trkpt>
<trkpt lat="45.8532540" lon="9.3229000">
	<ele>1170.00</ele>
	<time>2024-03-25T09:51:32.000Z</time>
</trkpt>
<trkpt lat="45.8532510" lon="9.3228900">
	<ele>1170.00</ele>
	<time>2024-03-25T09:51:33.000Z</time>
</trkpt>
<trkpt lat="45.8532440" lon="9.3228830">
	<ele>1169.80</ele>
	<time>2024-03-25T09:51:34.000Z</time>
</trkpt>
<trkpt lat="45.8532410" lon="9.3228780">
	<ele>1169.60</ele>
	<time>2024-03-25T09:51:35.000Z</time>
</trkpt>
<trkpt lat="45.8532370" lon="9.3228740">
	<ele>1169.40</ele>
	<time>2024-03-25T09:51:36.000Z</time>
</trkpt>
<trkpt lat="45.8532350" lon="9.3228680">
	<ele>1169.20</ele>
	<time>2024-03-25T09:51:37.000Z</time>
</trkpt>
<trkpt lat="45.8532340" lon="9.3228620">
	<ele>1169.20</ele>
	<time>2024-03-25T09:51:38.000Z</time>
</trkpt>
<trkpt lat="45.8532320" lon="9.3228560">
	<ele>1169.00</ele>
	<time>2024-03-25T09:51:39.000Z</time>
</trkpt>
<trkpt lat="45.8532320" lon="9.3228500">
	<ele>1168.80</ele>
	<time>2024-03-25T09:51:40.000Z</time>
</trkpt>
<trkpt lat="45.8532300" lon="9.3228420">
	<ele>1168.60</ele>
	<time>2024-03-25T09:51:41.000Z</time>
</trkpt>
<trkpt lat="45.8532270" lon="9.3228370">
	<ele>1168.40</ele>
	<time>2024-03-25T09:51:42.000Z</time>
</trkpt>
<trkpt lat="45.8532250" lon="9.3228330">
	<ele>1168.40</ele>
	<time>2024-03-25T09:51:43.000Z</time>
</trkpt>
<trkpt lat="45.8532250" lon="9.3228310">
	<ele>1168.20</ele>
	<time>2024-03-25T09:51:44.000Z</time>
</trkpt>
<trkpt lat="45.8532240" lon="9.3228300">
	<ele>1168.00</ele>
	<time>2024-03-25T09:51:45.000Z</time>
</trkpt>
<trkpt lat="45.8532190" lon="9.3228250">
	<ele>1167.60</ele>
	<time>2024-03-25T09:51:46.000Z</time>
</trkpt>
<trkpt lat="45.8532170" lon="9.3228180">
	<ele>1167.40</ele>
	<time>2024-03-25T09:51:47.000Z</time>
</trkpt>
<trkpt lat="45.8532150" lon="9.3228080">
	<ele>1167.20</ele>
	<time>2024-03-25T09:51:48.000Z</time>
</trkpt>
<trkpt lat="45.8532110" lon="9.3228010">
	<ele>1166.80</ele>
	<time>2024-03-25T09:51:49.000Z</time>
</trkpt>
<trkpt lat="45.8532030" lon="9.3227950">
	<ele>1166.80</ele>
	<time>2024-03-25T09:51:50.000Z</time>
</trkpt>
<trkpt lat="45.8531930" lon="9.3227850">
	<ele>1166.60</ele>
	<time>2024-03-25T09:51:51.000Z</time>
</trkpt>
<trkpt lat="45.8531860" lon="9.3227740">
	<ele>1166.40</ele>
	<time>2024-03-25T09:51:52.000Z</time>
</trkpt>
<trkpt lat="45.8531790" lon="9.3227640">
	<ele>1166.20</ele>
	<time>2024-03-25T09:51:53.000Z</time>
</trkpt>
<trkpt lat="45.8531740" lon="9.3227530">
	<ele>1166.00</ele>
	<time>2024-03-25T09:51:54.000Z</time>
</trkpt>
<trkpt lat="45.8531710" lon="9.3227420">
	<ele>1166.00</ele>
	<time>2024-03-25T09:51:55.000Z</time>
</trkpt>
<trkpt lat="45.8531670" lon="9.3227360">
	<ele>1165.80</ele>
	<time>2024-03-25T09:51:56.000Z</time>
</trkpt>
<trkpt lat="45.8531600" lon="9.3227340">
	<ele>1165.80</ele>
	<time>2024-03-25T09:51:57.000Z</time>
</trkpt>
<trkpt lat="45.8531590" lon="9.3227320">
	<ele>1165.80</ele>
	<time>2024-03-25T09:51:58.000Z</time>
</trkpt>
<trkpt lat="45.8531570" lon="9.3227280">
	<ele>1165.80</ele>
	<time>2024-03-25T09:51:59.000Z</time>
</trkpt>
<trkpt lat="45.8531560" lon="9.3227230">
	<ele>1165.60</ele>
	<time>2024-03-25T09:52:00.000Z</time>
</trkpt>
<trkpt lat="45.8531560" lon="9.3227150">
	<ele>1165.60</ele>
	<time>2024-03-25T09:52:01.000Z</time>
</trkpt>
<trkpt lat="45.8531520" lon="9.3227090">
	<ele>1165.20</ele>
	<time>2024-03-25T09:52:02.000Z</time>
</trkpt>
<trkpt lat="45.8531490" lon="9.3227050">
	<ele>1165.00</ele>
	<time>2024-03-25T09:52:03.000Z</time>
</trkpt>
<trkpt lat="45.8531520" lon="9.3227020">
	<ele>1165.00</ele>
	<time>2024-03-25T09:52:04.000Z</time>
</trkpt>
<trkpt lat="45.8531540" lon="9.3226980">
	<ele>1164.80</ele>
	<time>2024-03-25T09:52:05.000Z</time>
</trkpt>
<trkpt lat="45.8531550" lon="9.3226930">
	<ele>1164.60</ele>
	<time>2024-03-25T09:52:06.000Z</time>
</trkpt>
<trkpt lat="45.8531540" lon="9.3226870">
	<ele>1164.40</ele>
	<time>2024-03-25T09:52:07.000Z</time>
</trkpt>
<trkpt lat="45.8531510" lon="9.3226790">
	<ele>1164.40</ele>
	<time>2024-03-25T09:52:08.000Z</time>
</trkpt>
<trkpt lat="45.8531440" lon="9.3226680">
	<ele>1164.20</ele>
	<time>2024-03-25T09:52:09.000Z</time>
</trkpt>
<trkpt lat="45.8531360" lon="9.3226580">
	<ele>1164.20</ele>
	<time>2024-03-25T09:52:10.000Z</time>
</trkpt>
<trkpt lat="45.8531280" lon="9.3226480">
	<ele>1164.00</ele>
	<time>2024-03-25T09:52:11.000Z</time>
</trkpt>
<trkpt lat="45.8531210" lon="9.3226380">
	<ele>1164.00</ele>
	<time>2024-03-25T09:52:12.000Z</time>
</trkpt>
<trkpt lat="45.8531140" lon="9.3226310">
	<ele>1164.00</ele>
	<time>2024-03-25T09:52:13.000Z</time>
</trkpt>
<trkpt lat="45.8531090" lon="9.3226220">
	<ele>1164.00</ele>
	<time>2024-03-25T09:52:14.000Z</time>
</trkpt>
<trkpt lat="45.8531070" lon="9.3226170">
	<ele>1163.80</ele>
	<time>2024-03-25T09:52:15.000Z</time>
</trkpt>
<trkpt lat="45.8531050" lon="9.3226100">
	<ele>1164.00</ele>
	<time>2024-03-25T09:52:16.000Z</time>
</trkpt>
<trkpt lat="45.8531010" lon="9.3226040">
	<ele>1164.00</ele>
	<time>2024-03-25T09:52:17.000Z</time>
</trkpt>
<trkpt lat="45.8530960" lon="9.3225900">
	<ele>1163.80</ele>
	<time>2024-03-25T09:52:18.000Z</time>
</trkpt>
<trkpt lat="45.8530900" lon="9.3225770">
	<ele>1163.80</ele>
	<time>2024-03-25T09:52:19.000Z</time>
</trkpt>
<trkpt lat="45.8530860" lon="9.3225650">
	<ele>1163.60</ele>
	<time>2024-03-25T09:52:20.000Z</time>
</trkpt>
<trkpt lat="45.8530830" lon="9.3225520">
	<ele>1163.60</ele>
	<time>2024-03-25T09:52:21.000Z</time>
</trkpt>
<trkpt lat="45.8530760" lon="9.3225410">
	<ele>1163.40</ele>
	<time>2024-03-25T09:52:22.000Z</time>
</trkpt>
<trkpt lat="45.8530680" lon="9.3225290">
	<ele>1163.20</ele>
	<time>2024-03-25T09:52:23.000Z</time>
</trkpt>
<trkpt lat="45.8530610" lon="9.3225220">
	<ele>1163.20</ele>
	<time>2024-03-25T09:52:24.000Z</time>
</trkpt>
<trkpt lat="45.8530540" lon="9.3225150">
	<ele>1163.20</ele>
	<time>2024-03-25T09:52:25.000Z</time>
</trkpt>
<trkpt lat="45.8530510" lon="9.3225080">
	<ele>1163.20</ele>
	<time>2024-03-25T09:52:26.000Z</time>
</trkpt>
<trkpt lat="45.8530430" lon="9.3224980">
	<ele>1163.20</ele>
	<time>2024-03-25T09:52:27.000Z</time>
</trkpt>
<trkpt lat="45.8530350" lon="9.3224900">
	<ele>1163.20</ele>
	<time>2024-03-25T09:52:28.000Z</time>
</trkpt>
<trkpt lat="45.8530260" lon="9.3224810">
	<ele>1163.40</ele>
	<time>2024-03-25T09:52:29.000Z</time>
</trkpt>
<trkpt lat="45.8530200" lon="9.3224770">
	<ele>1163.60</ele>
	<time>2024-03-25T09:52:30.000Z</time>
</trkpt>
<trkpt lat="45.8530130" lon="9.3224760">
	<ele>1163.80</ele>
	<time>2024-03-25T09:52:31.000Z</time>
</trkpt>
<trkpt lat="45.8530080" lon="9.3224750">
	<ele>1164.00</ele>
	<time>2024-03-25T09:52:32.000Z</time>
</trkpt>
<trkpt lat="45.8530010" lon="9.3224740">
	<ele>1164.20</ele>
	<time>2024-03-25T09:52:33.000Z</time>
</trkpt>
<trkpt lat="45.8529960" lon="9.3224750">
	<ele>1164.20</ele>
	<time>2024-03-25T09:52:34.000Z</time>
</trkpt>
<trkpt lat="45.8529920" lon="9.3224750">
	<ele>1164.20</ele>
	<time>2024-03-25T09:52:35.000Z</time>
</trkpt>
<trkpt lat="45.8529850" lon="9.3224710">
	<ele>1164.20</ele>
	<time>2024-03-25T09:52:36.000Z</time>
</trkpt>
<trkpt lat="45.8529780" lon="9.3224730">
	<ele>1164.20</ele>
	<time>2024-03-25T09:52:37.000Z</time>
</trkpt>
<trkpt lat="45.8529730" lon="9.3224740">
	<ele>1164.00</ele>
	<time>2024-03-25T09:52:38.000Z</time>
</trkpt>
<trkpt lat="45.8529700" lon="9.3224720">
	<ele>1163.80</ele>
	<time>2024-03-25T09:52:39.000Z</time>
</trkpt>
<trkpt lat="45.8529620" lon="9.3224700">
	<ele>1163.60</ele>
	<time>2024-03-25T09:52:40.000Z</time>
</trkpt>
<trkpt lat="45.8529550" lon="9.3224650">
	<ele>1163.40</ele>
	<time>2024-03-25T09:52:41.000Z</time>
</trkpt>
<trkpt lat="45.8529510" lon="9.3224580">
	<ele>1163.20</ele>
	<time>2024-03-25T09:52:42.000Z</time>
</trkpt>
<trkpt lat="45.8529460" lon="9.3224500">
	<ele>1162.80</ele>
	<time>2024-03-25T09:52:43.000Z</time>
</trkpt>
<trkpt lat="45.8529410" lon="9.3224380">
	<ele>1162.80</ele>
	<time>2024-03-25T09:52:44.000Z</time>
</trkpt>
<trkpt lat="45.8529370" lon="9.3224270">
	<ele>1162.60</ele>
	<time>2024-03-25T09:52:45.000Z</time>
</trkpt>
<trkpt lat="45.8529350" lon="9.3224200">
	<ele>1162.40</ele>
	<time>2024-03-25T09:52:46.000Z</time>
</trkpt>
<trkpt lat="45.8529340" lon="9.3224160">
	<ele>1162.20</ele>
	<time>2024-03-25T09:52:47.000Z</time>
</trkpt>
<trkpt lat="45.8529350" lon="9.3224160">
	<ele>1162.00</ele>
	<time>2024-03-25T09:52:48.000Z</time>
</trkpt>
<trkpt lat="45.8529360" lon="9.3224170">
	<ele>1162.00</ele>
	<time>2024-03-25T09:52:49.000Z</time>
</trkpt>
<trkpt lat="45.8529340" lon="9.3224150">
	<ele>1161.80</ele>
	<time>2024-03-25T09:52:50.000Z</time>
</trkpt>
<trkpt lat="45.8529320" lon="9.3224170">
	<ele>1161.80</ele>
	<time>2024-03-25T09:52:51.000Z</time>
</trkpt>
<trkpt lat="45.8529310" lon="9.3224170">
	<ele>1161.80</ele>
	<time>2024-03-25T09:52:52.000Z</time>
</trkpt>
<trkpt lat="45.8529310" lon="9.3224170">
	<ele>1161.80</ele>
	<time>2024-03-25T09:52:53.000Z</time>
</trkpt>
<trkpt lat="45.8529320" lon="9.3224160">
	<ele>1161.80</ele>
	<time>2024-03-25T09:52:54.000Z</time>
</trkpt>
<trkpt lat="45.8529320" lon="9.3224160">
	<ele>1161.80</ele>
	<time>2024-03-25T09:52:55.000Z</time>
</trkpt>
<trkpt lat="45.8529330" lon="9.3224170">
	<ele>1161.80</ele>
	<time>2024-03-25T09:52:56.000Z</time>
</trkpt>
<trkpt lat="45.8529330" lon="9.3224190">
	<ele>1161.80</ele>
	<time>2024-03-25T09:52:57.000Z</time>
</trkpt>
<trkpt lat="45.8529340" lon="9.3224210">
	<ele>1162.00</ele>
	<time>2024-03-25T09:52:58.000Z</time>
</trkpt>
<trkpt lat="45.8529340" lon="9.3224220">
	<ele>1162.00</ele>
	<time>2024-03-25T09:52:59.000Z</time>
</trkpt>
<trkpt lat="45.8529340" lon="9.3224230">
	<ele>1162.20</ele>
	<time>2024-03-25T09:53:00.000Z</time>
</trkpt>
<trkpt lat="45.8529340" lon="9.3224230">
	<ele>1162.00</ele>
	<time>2024-03-25T09:53:01.000Z</time>
</trkpt>
<trkpt lat="45.8529340" lon="9.3224230">
	<ele>1162.00</ele>
	<time>2024-03-25T09:53:02.000Z</time>
</trkpt>
<trkpt lat="45.8529340" lon="9.3224230">
	<ele>1162.00</ele>
	<time>2024-03-25T09:53:03.000Z</time>
</trkpt>
<trkpt lat="45.8529340" lon="9.3224230">
	<ele>1162.00</ele>
	<time>2024-03-25T09:53:04.000Z</time>
</trkpt>
<trkpt lat="45.8529340" lon="9.3224230">
	<ele>1162.00</ele>
	<time>2024-03-25T09:53:05.000Z</time>
</trkpt>
<trkpt lat="45.8529310" lon="9.3224190">
	<ele>1162.00</ele>
	<time>2024-03-25T09:53:06.000Z</time>
</trkpt>
<trkpt lat="45.8529220" lon="9.3224040">
	<ele>1162.00</ele>
	<time>2024-03-25T09:53:07.000Z</time>
</trkpt>
<trkpt lat="45.8529130" lon="9.3223870">
	<ele>1162.00</ele>
	<time>2024-03-25T09:53:08.000Z</time>
</trkpt>
<trkpt lat="45.8529070" lon="9.3223720">
	<ele>1162.00</ele>
	<time>2024-03-25T09:53:09.000Z</time>
</trkpt>
<trkpt lat="45.8529000" lon="9.3223540">
	<ele>1162.20</ele>
	<time>2024-03-25T09:53:10.000Z</time>
</trkpt>
<trkpt lat="45.8528910" lon="9.3223350">
	<ele>1162.00</ele>
	<time>2024-03-25T09:53:11.000Z</time>
</trkpt>
<trkpt lat="45.8528780" lon="9.3223170">
	<ele>1162.00</ele>
	<time>2024-03-25T09:53:12.000Z</time>
</trkpt>
<trkpt lat="45.8528690" lon="9.3222960">
	<ele>1161.80</ele>
	<time>2024-03-25T09:53:13.000Z</time>
</trkpt>
<trkpt lat="45.8528630" lon="9.3222770">
	<ele>1161.80</ele>
	<time>2024-03-25T09:53:14.000Z</time>
</trkpt>
<trkpt lat="45.8528550" lon="9.3222590">
	<ele>1161.80</ele>
	<time>2024-03-25T09:53:15.000Z</time>
</trkpt>
<trkpt lat="45.8528540" lon="9.3222410">
	<ele>1161.80</ele>
	<time>2024-03-25T09:53:16.000Z</time>
</trkpt>
<trkpt lat="45.8528510" lon="9.3222240">
	<ele>1161.60</ele>
	<time>2024-03-25T09:53:17.000Z</time>
</trkpt>
<trkpt lat="45.8528460" lon="9.3222100">
	<ele>1161.60</ele>
	<time>2024-03-25T09:53:18.000Z</time>
</trkpt>
<trkpt lat="45.8528440" lon="9.3221900">
	<ele>1161.60</ele>
	<time>2024-03-25T09:53:19.000Z</time>
</trkpt>
<trkpt lat="45.8528420" lon="9.3221720">
	<ele>1161.60</ele>
	<time>2024-03-25T09:53:20.000Z</time>
</trkpt>
<trkpt lat="45.8528420" lon="9.3221580">
	<ele>1161.60</ele>
	<time>2024-03-25T09:53:21.000Z</time>
</trkpt>
<trkpt lat="45.8528440" lon="9.3221420">
	<ele>1161.60</ele>
	<time>2024-03-25T09:53:22.000Z</time>
</trkpt>
<trkpt lat="45.8528470" lon="9.3221280">
	<ele>1161.60</ele>
	<time>2024-03-25T09:53:23.000Z</time>
</trkpt>
<trkpt lat="45.8528480" lon="9.3221090">
	<ele>1161.60</ele>
	<time>2024-03-25T09:53:24.000Z</time>
</trkpt>
<trkpt lat="45.8528460" lon="9.3221020">
	<ele>1161.60</ele>
	<time>2024-03-25T09:53:25.000Z</time>
</trkpt>
<trkpt lat="45.8528430" lon="9.3220900">
	<ele>1161.40</ele>
	<time>2024-03-25T09:53:26.000Z</time>
</trkpt>
<trkpt lat="45.8528390" lon="9.3220770">
	<ele>1161.40</ele>
	<time>2024-03-25T09:53:27.000Z</time>
</trkpt>
<trkpt lat="45.8528360" lon="9.3220590">
	<ele>1161.40</ele>
	<time>2024-03-25T09:53:28.000Z</time>
</trkpt>
<trkpt lat="45.8528320" lon="9.3220420">
	<ele>1161.40</ele>
	<time>2024-03-25T09:53:29.000Z</time>
</trkpt>
<trkpt lat="45.8528290" lon="9.3220280">
	<ele>1161.20</ele>
	<time>2024-03-25T09:53:30.000Z</time>
</trkpt>
<trkpt lat="45.8528260" lon="9.3220170">
	<ele>1161.00</ele>
	<time>2024-03-25T09:53:31.000Z</time>
</trkpt>
<trkpt lat="45.8528180" lon="9.3220090">
	<ele>1161.00</ele>
	<time>2024-03-25T09:53:32.000Z</time>
</trkpt>
<trkpt lat="45.8528080" lon="9.3220020">
	<ele>1160.80</ele>
	<time>2024-03-25T09:53:33.000Z</time>
</trkpt>
<trkpt lat="45.8528000" lon="9.3219940">
	<ele>1160.80</ele>
	<time>2024-03-25T09:53:34.000Z</time>
</trkpt>
<trkpt lat="45.8527920" lon="9.3219840">
	<ele>1160.60</ele>
	<time>2024-03-25T09:53:35.000Z</time>
</trkpt>
<trkpt lat="45.8527800" lon="9.3219770">
	<ele>1160.60</ele>
	<time>2024-03-25T09:53:36.000Z</time>
</trkpt>
<trkpt lat="45.8527670" lon="9.3219720">
	<ele>1160.40</ele>
	<time>2024-03-25T09:53:37.000Z</time>
</trkpt>
<trkpt lat="45.8527600" lon="9.3219670">
	<ele>1160.20</ele>
	<time>2024-03-25T09:53:38.000Z</time>
</trkpt>
<trkpt lat="45.8527530" lon="9.3219630">
	<ele>1160.20</ele>
	<time>2024-03-25T09:53:39.000Z</time>
</trkpt>
<trkpt lat="45.8527460" lon="9.3219540">
	<ele>1160.20</ele>
	<time>2024-03-25T09:53:40.000Z</time>
</trkpt>
<trkpt lat="45.8527390" lon="9.3219450">
	<ele>1160.20</ele>
	<time>2024-03-25T09:53:41.000Z</time>
</trkpt>
<trkpt lat="45.8527320" lon="9.3219360">
	<ele>1160.20</ele>
	<time>2024-03-25T09:53:42.000Z</time>
</trkpt>
<trkpt lat="45.8527270" lon="9.3219260">
	<ele>1160.20</ele>
	<time>2024-03-25T09:53:43.000Z</time>
</trkpt>
<trkpt lat="45.8527240" lon="9.3219230">
	<ele>1160.20</ele>
	<time>2024-03-25T09:53:44.000Z</time>
</trkpt>
<trkpt lat="45.8527200" lon="9.3219230">
	<ele>1160.40</ele>
	<time>2024-03-25T09:53:45.000Z</time>
</trkpt>
<trkpt lat="45.8527120" lon="9.3219240">
	<ele>1160.40</ele>
	<time>2024-03-25T09:53:46.000Z</time>
</trkpt>
<trkpt lat="45.8527070" lon="9.3219280">
	<ele>1160.60</ele>
	<time>2024-03-25T09:53:47.000Z</time>
</trkpt>
<trkpt lat="45.8527030" lon="9.3219310">
	<ele>1161.00</ele>
	<time>2024-03-25T09:53:48.000Z</time>
</trkpt>
<trkpt lat="45.8527000" lon="9.3219320">
	<ele>1161.20</ele>
	<time>2024-03-25T09:53:49.000Z</time>
</trkpt>
<trkpt lat="45.8526940" lon="9.3219300">
	<ele>1161.40</ele>
	<time>2024-03-25T09:53:50.000Z</time>
</trkpt>
<trkpt lat="45.8526880" lon="9.3219290">
	<ele>1161.60</ele>
	<time>2024-03-25T09:53:51.000Z</time>
</trkpt>
<trkpt lat="45.8526780" lon="9.3219250">
	<ele>1161.80</ele>
	<time>2024-03-25T09:53:52.000Z</time>
</trkpt>
<trkpt lat="45.8526750" lon="9.3219220">
	<ele>1162.20</ele>
	<time>2024-03-25T09:53:53.000Z</time>
</trkpt>
<trkpt lat="45.8526730" lon="9.3219230">
	<ele>1162.40</ele>
	<time>2024-03-25T09:53:54.000Z</time>
</trkpt>
<trkpt lat="45.8526730" lon="9.3219260">
	<ele>1162.40</ele>
	<time>2024-03-25T09:53:55.000Z</time>
</trkpt>
<trkpt lat="45.8526720" lon="9.3219280">
	<ele>1162.40</ele>
	<time>2024-03-25T09:53:56.000Z</time>
</trkpt>
<trkpt lat="45.8526720" lon="9.3219280">
	<ele>1162.40</ele>
	<time>2024-03-25T09:53:57.000Z</time>
</trkpt>
<trkpt lat="45.8526720" lon="9.3219260">
	<ele>1162.40</ele>
	<time>2024-03-25T09:53:58.000Z</time>
</trkpt>
<trkpt lat="45.8526730" lon="9.3219240">
	<ele>1162.40</ele>
	<time>2024-03-25T09:53:59.000Z</time>
</trkpt>
<trkpt lat="45.8526730" lon="9.3219240">
	<ele>1162.40</ele>
	<time>2024-03-25T09:54:00.000Z</time>
</trkpt>
<trkpt lat="45.8526730" lon="9.3219240">
	<ele>1162.40</ele>
	<time>2024-03-25T09:54:01.000Z</time>
</trkpt>
<trkpt lat="45.8526730" lon="9.3219240">
	<ele>1162.40</ele>
	<time>2024-03-25T09:54:02.000Z</time>
</trkpt>
<trkpt lat="45.8526730" lon="9.3219240">
	<ele>1162.40</ele>
	<time>2024-03-25T09:54:03.000Z</time>
</trkpt>
<trkpt lat="45.8526730" lon="9.3219240">
	<ele>1162.40</ele>
	<time>2024-03-25T09:54:04.000Z</time>
</trkpt>
<trkpt lat="45.8526730" lon="9.3219240">
	<ele>1162.40</ele>
	<time>2024-03-25T09:54:05.000Z</time>
</trkpt>
<trkpt lat="45.8526730" lon="9.3219240">
	<ele>1162.40</ele>
	<time>2024-03-25T09:54:06.000Z</time>
</trkpt>
<trkpt lat="45.8526730" lon="9.3219240">
	<ele>1162.40</ele>
	<time>2024-03-25T09:54:07.000Z</time>
</trkpt>
<trkpt lat="45.8526730" lon="9.3219240">
	<ele>1162.60</ele>
	<time>2024-03-25T09:54:08.000Z</time>
</trkpt>
<trkpt lat="45.8526730" lon="9.3219240">
	<ele>1162.60</ele>
	<time>2024-03-25T09:54:09.000Z</time>
</trkpt>
<trkpt lat="45.8526730" lon="9.3219240">
	<ele>1162.80</ele>
	<time>2024-03-25T09:54:10.000Z</time>
</trkpt>
<trkpt lat="45.8526730" lon="9.3219240">
	<ele>1162.80</ele>
	<time>2024-03-25T09:54:11.000Z</time>
</trkpt>
<trkpt lat="45.8526730" lon="9.3219240">
	<ele>1162.80</ele>
	<time>2024-03-25T09:54:12.000Z</time>
</trkpt>
<trkpt lat="45.8526730" lon="9.3219240">
	<ele>1162.80</ele>
	<time>2024-03-25T09:54:13.000Z</time>
</trkpt>
<trkpt lat="45.8526730" lon="9.3219240">
	<ele>1162.80</ele>
	<time>2024-03-25T09:54:14.000Z</time>
</trkpt>
<trkpt lat="45.8526730" lon="9.3219240">
	<ele>1162.80</ele>
	<time>2024-03-25T09:54:15.000Z</time>
</trkpt>
<trkpt lat="45.8526730" lon="9.3219240">
	<ele>1162.80</ele>
	<time>2024-03-25T09:54:16.000Z</time>
</trkpt>
<trkpt lat="45.8526730" lon="9.3219240">
	<ele>1162.80</ele>
	<time>2024-03-25T09:54:17.000Z</time>
</trkpt>
<trkpt lat="45.8526740" lon="9.3219240">
	<ele>1162.60</ele>
	<time>2024-03-25T09:54:18.000Z</time>
</trkpt>
<trkpt lat="45.8526740" lon="9.3219240">
	<ele>1162.60</ele>
	<time>2024-03-25T09:54:19.000Z</time>
</trkpt>
<trkpt lat="45.8526750" lon="9.3219240">
	<ele>1162.60</ele>
	<time>2024-03-25T09:54:20.000Z</time>
</trkpt>
<trkpt lat="45.8526750" lon="9.3219240">
	<ele>1162.60</ele>
	<time>2024-03-25T09:54:21.000Z</time>
</trkpt>
<trkpt lat="45.8526750" lon="9.3219240">
	<ele>1162.60</ele>
	<time>2024-03-25T09:54:22.000Z</time>
</trkpt>
<trkpt lat="45.8526750" lon="9.3219240">
	<ele>1162.40</ele>
	<time>2024-03-25T09:54:23.000Z</time>
</trkpt>
<trkpt lat="45.8526760" lon="9.3219240">
	<ele>1162.40</ele>
	<time>2024-03-25T09:54:24.000Z</time>
</trkpt>
<trkpt lat="45.8526770" lon="9.3219240">
	<ele>1162.40</ele>
	<time>2024-03-25T09:54:25.000Z</time>
</trkpt>
<trkpt lat="45.8526780" lon="9.3219240">
	<ele>1162.40</ele>
	<time>2024-03-25T09:54:26.000Z</time>
</trkpt>
<trkpt lat="45.8526790" lon="9.3219240">
	<ele>1162.40</ele>
	<time>2024-03-25T09:54:27.000Z</time>
</trkpt>
<trkpt lat="45.8526800" lon="9.3219230">
	<ele>1162.40</ele>
	<time>2024-03-25T09:54:28.000Z</time>
</trkpt>
<trkpt lat="45.8526800" lon="9.3219230">
	<ele>1162.40</ele>
	<time>2024-03-25T09:54:29.000Z</time>
</trkpt>
<trkpt lat="45.8526800" lon="9.3219230">
	<ele>1162.40</ele>
	<time>2024-03-25T09:54:30.000Z</time>
</trkpt>
<trkpt lat="45.8526810" lon="9.3219220">
	<ele>1162.40</ele>
	<time>2024-03-25T09:54:31.000Z</time>
</trkpt>
<trkpt lat="45.8526810" lon="9.3219220">
	<ele>1162.20</ele>
	<time>2024-03-25T09:54:32.000Z</time>
</trkpt>
<trkpt lat="45.8526820" lon="9.3219220">
	<ele>1162.20</ele>
	<time>2024-03-25T09:54:33.000Z</time>
</trkpt>
<trkpt lat="45.8526830" lon="9.3219220">
	<ele>1162.20</ele>
	<time>2024-03-25T09:54:34.000Z</time>
</trkpt>
<trkpt lat="45.8526850" lon="9.3219220">
	<ele>1162.20</ele>
	<time>2024-03-25T09:54:35.000Z</time>
</trkpt>
<trkpt lat="45.8526860" lon="9.3219220">
	<ele>1162.20</ele>
	<time>2024-03-25T09:54:36.000Z</time>
</trkpt>
<trkpt lat="45.8526870" lon="9.3219220">
	<ele>1162.20</ele>
	<time>2024-03-25T09:54:37.000Z</time>
</trkpt>
<trkpt lat="45.8526870" lon="9.3219220">
	<ele>1162.20</ele>
	<time>2024-03-25T09:54:38.000Z</time>
</trkpt>
<trkpt lat="45.8526880" lon="9.3219220">
	<ele>1162.20</ele>
	<time>2024-03-25T09:54:39.000Z</time>
</trkpt>
<trkpt lat="45.8526880" lon="9.3219200">
	<ele>1162.20</ele>
	<time>2024-03-25T09:54:40.000Z</time>
</trkpt>
<trkpt lat="45.8526880" lon="9.3219200">
	<ele>1162.40</ele>
	<time>2024-03-25T09:54:41.000Z</time>
</trkpt>
<trkpt lat="45.8526880" lon="9.3219200">
	<ele>1162.40</ele>
	<time>2024-03-25T09:54:42.000Z</time>
</trkpt>
<trkpt lat="45.8526880" lon="9.3219190">
	<ele>1162.40</ele>
	<time>2024-03-25T09:54:43.000Z</time>
</trkpt>
<trkpt lat="45.8526880" lon="9.3219190">
	<ele>1162.40</ele>
	<time>2024-03-25T09:54:44.000Z</time>
</trkpt>
<trkpt lat="45.8526890" lon="9.3219190">
	<ele>1162.20</ele>
	<time>2024-03-25T09:54:45.000Z</time>
</trkpt>
<trkpt lat="45.8526890" lon="9.3219190">
	<ele>1162.20</ele>
	<time>2024-03-25T09:54:46.000Z</time>
</trkpt>
<trkpt lat="45.8526890" lon="9.3219190">
	<ele>1162.20</ele>
	<time>2024-03-25T09:54:47.000Z</time>
</trkpt>
<trkpt lat="45.8526890" lon="9.3219190">
	<ele>1162.20</ele>
	<time>2024-03-25T09:54:48.000Z</time>
</trkpt>
<trkpt lat="45.8526890" lon="9.3219190">
	<ele>1162.20</ele>
	<time>2024-03-25T09:54:49.000Z</time>
</trkpt>
<trkpt lat="45.8526890" lon="9.3219190">
	<ele>1162.20</ele>
	<time>2024-03-25T09:54:50.000Z</time>
</trkpt>
<trkpt lat="45.8526890" lon="9.3219190">
	<ele>1162.20</ele>
	<time>2024-03-25T09:54:51.000Z</time>
</trkpt>
<trkpt lat="45.8526890" lon="9.3219190">
	<ele>1162.40</ele>
	<time>2024-03-25T09:54:52.000Z</time>
</trkpt>
<trkpt lat="45.8526890" lon="9.3219190">
	<ele>1162.40</ele>
	<time>2024-03-25T09:54:53.000Z</time>
</trkpt>
<trkpt lat="45.8526890" lon="9.3219190">
	<ele>1162.40</ele>
	<time>2024-03-25T09:54:54.000Z</time>
</trkpt>
<trkpt lat="45.8526890" lon="9.3219190">
	<ele>1162.40</ele>
	<time>2024-03-25T09:54:55.000Z</time>
</trkpt>
<trkpt lat="45.8526890" lon="9.3219190">
	<ele>1162.40</ele>
	<time>2024-03-25T09:54:56.000Z</time>
</trkpt>
<trkpt lat="45.8526890" lon="9.3219190">
	<ele>1162.40</ele>
	<time>2024-03-25T09:54:57.000Z</time>
</trkpt>
<trkpt lat="45.8526890" lon="9.3219200">
	<ele>1162.20</ele>
	<time>2024-03-25T09:54:58.000Z</time>
</trkpt>
<trkpt lat="45.8526890" lon="9.3219210">
	<ele>1162.00</ele>
	<time>2024-03-25T09:54:59.000Z</time>
</trkpt>
<trkpt lat="45.8526890" lon="9.3219210">
	<ele>1161.40</ele>
	<time>2024-03-25T09:55:00.000Z</time>
</trkpt>
<trkpt lat="45.8526890" lon="9.3219220">
	<ele>1161.00</ele>
	<time>2024-03-25T09:55:01.000Z</time>
</trkpt>
<trkpt lat="45.8526890" lon="9.3219220">
	<ele>1161.00</ele>
	<time>2024-03-25T09:55:02.000Z</time>
</trkpt>
<trkpt lat="45.8526890" lon="9.3219220">
	<ele>1160.80</ele>
	<time>2024-03-25T09:55:03.000Z</time>
</trkpt>
<trkpt lat="45.8526890" lon="9.3219220">
	<ele>1160.60</ele>
	<time>2024-03-25T09:55:04.000Z</time>
</trkpt>
<trkpt lat="45.8526880" lon="9.3219240">
	<ele>1160.60</ele>
	<time>2024-03-25T09:55:05.000Z</time>
</trkpt>
<trkpt lat="45.8526860" lon="9.3219250">
	<ele>1160.60</ele>
	<time>2024-03-25T09:55:06.000Z</time>
</trkpt>
<trkpt lat="45.8526800" lon="9.3219270">
	<ele>1160.80</ele>
	<time>2024-03-25T09:55:07.000Z</time>
</trkpt>
<trkpt lat="45.8526760" lon="9.3219310">
	<ele>1160.80</ele>
	<time>2024-03-25T09:55:08.000Z</time>
</trkpt>
<trkpt lat="45.8526740" lon="9.3219330">
	<ele>1160.80</ele>
	<time>2024-03-25T09:55:09.000Z</time>
</trkpt>
<trkpt lat="45.8526730" lon="9.3219350">
	<ele>1160.80</ele>
	<time>2024-03-25T09:55:10.000Z</time>
</trkpt>
<trkpt lat="45.8526720" lon="9.3219360">
	<ele>1160.80</ele>
	<time>2024-03-25T09:55:11.000Z</time>
</trkpt>
<trkpt lat="45.8526700" lon="9.3219360">
	<ele>1160.60</ele>
	<time>2024-03-25T09:55:12.000Z</time>
</trkpt>
<trkpt lat="45.8526660" lon="9.3219370">
	<ele>1160.60</ele>
	<time>2024-03-25T09:55:13.000Z</time>
</trkpt>
<trkpt lat="45.8526590" lon="9.3219380">
	<ele>1160.40</ele>
	<time>2024-03-25T09:55:14.000Z</time>
</trkpt>
<trkpt lat="45.8526540" lon="9.3219430">
	<ele>1160.40</ele>
	<time>2024-03-25T09:55:15.000Z</time>
</trkpt>
<trkpt lat="45.8526510" lon="9.3219460">
	<ele>1160.20</ele>
	<time>2024-03-25T09:55:16.000Z</time>
</trkpt>
<trkpt lat="45.8526500" lon="9.3219470">
	<ele>1160.20</ele>
	<time>2024-03-25T09:55:17.000Z</time>
</trkpt>
<trkpt lat="45.8526490" lon="9.3219480">
	<ele>1160.00</ele>
	<time>2024-03-25T09:55:18.000Z</time>
</trkpt>
<trkpt lat="45.8526490" lon="9.3219490">
	<ele>1160.00</ele>
	<time>2024-03-25T09:55:19.000Z</time>
</trkpt>
<trkpt lat="45.8526470" lon="9.3219500">
	<ele>1159.80</ele>
	<time>2024-03-25T09:55:20.000Z</time>
</trkpt>
<trkpt lat="45.8526470" lon="9.3219500">
	<ele>1159.80</ele>
	<time>2024-03-25T09:55:21.000Z</time>
</trkpt>
<trkpt lat="45.8526470" lon="9.3219510">
	<ele>1159.80</ele>
	<time>2024-03-25T09:55:22.000Z</time>
</trkpt>
<trkpt lat="45.8526460" lon="9.3219510">
	<ele>1159.40</ele>
	<time>2024-03-25T09:55:23.000Z</time>
</trkpt>
<trkpt lat="45.8526460" lon="9.3219520">
	<ele>1159.20</ele>
	<time>2024-03-25T09:55:24.000Z</time>
</trkpt>
<trkpt lat="45.8526460" lon="9.3219540">
	<ele>1158.80</ele>
	<time>2024-03-25T09:55:25.000Z</time>
</trkpt>
<trkpt lat="45.8526460" lon="9.3219610">
	<ele>1158.60</ele>
	<time>2024-03-25T09:55:26.000Z</time>
</trkpt>
<trkpt lat="45.8526450" lon="9.3219680">
	<ele>1158.20</ele>
	<time>2024-03-25T09:55:27.000Z</time>
</trkpt>
<trkpt lat="45.8526430" lon="9.3219680">
	<ele>1158.00</ele>
	<time>2024-03-25T09:55:28.000Z</time>
</trkpt>
<trkpt lat="45.8526360" lon="9.3219560">
	<ele>1157.80</ele>
	<time>2024-03-25T09:55:29.000Z</time>
</trkpt>
<trkpt lat="45.8526300" lon="9.3219420">
	<ele>1157.60</ele>
	<time>2024-03-25T09:55:30.000Z</time>
</trkpt>
<trkpt lat="45.8526220" lon="9.3219270">
	<ele>1157.60</ele>
	<time>2024-03-25T09:55:31.000Z</time>
</trkpt>
<trkpt lat="45.8526180" lon="9.3219200">
	<ele>1157.60</ele>
	<time>2024-03-25T09:55:32.000Z</time>
</trkpt>
<trkpt lat="45.8526150" lon="9.3219120">
	<ele>1157.60</ele>
	<time>2024-03-25T09:55:33.000Z</time>
</trkpt>
<trkpt lat="45.8526040" lon="9.3219090">
	<ele>1157.60</ele>
	<time>2024-03-25T09:55:34.000Z</time>
</trkpt>
<trkpt lat="45.8525960" lon="9.3219010">
	<ele>1157.60</ele>
	<time>2024-03-25T09:55:35.000Z</time>
</trkpt>
<trkpt lat="45.8525920" lon="9.3218920">
	<ele>1157.80</ele>
	<time>2024-03-25T09:55:36.000Z</time>
</trkpt>
<trkpt lat="45.8525870" lon="9.3218780">
	<ele>1158.00</ele>
	<time>2024-03-25T09:55:37.000Z</time>
</trkpt>
<trkpt lat="45.8525820" lon="9.3218620">
	<ele>1158.20</ele>
	<time>2024-03-25T09:55:38.000Z</time>
</trkpt>
<trkpt lat="45.8525800" lon="9.3218540">
	<ele>1158.20</ele>
	<time>2024-03-25T09:55:39.000Z</time>
</trkpt>
<trkpt lat="45.8525760" lon="9.3218450">
	<ele>1158.40</ele>
	<time>2024-03-25T09:55:40.000Z</time>
</trkpt>
<trkpt lat="45.8525720" lon="9.3218340">
	<ele>1158.60</ele>
	<time>2024-03-25T09:55:41.000Z</time>
</trkpt>
<trkpt lat="45.8525720" lon="9.3218210">
	<ele>1158.80</ele>
	<time>2024-03-25T09:55:42.000Z</time>
</trkpt>
<trkpt lat="45.8525690" lon="9.3218100">
	<ele>1159.00</ele>
	<time>2024-03-25T09:55:43.000Z</time>
</trkpt>
<trkpt lat="45.8525630" lon="9.3218000">
	<ele>1159.20</ele>
	<time>2024-03-25T09:55:44.000Z</time>
</trkpt>
<trkpt lat="45.8525630" lon="9.3217940">
	<ele>1159.20</ele>
	<time>2024-03-25T09:55:45.000Z</time>
</trkpt>
<trkpt lat="45.8525600" lon="9.3217840">
	<ele>1159.40</ele>
	<time>2024-03-25T09:55:46.000Z</time>
</trkpt>
<trkpt lat="45.8525570" lon="9.3217720">
	<ele>1159.80</ele>
	<time>2024-03-25T09:55:47.000Z</time>
</trkpt>
<trkpt lat="45.8525540" lon="9.3217620">
	<ele>1160.20</ele>
	<time>2024-03-25T09:55:48.000Z</time>
</trkpt>
<trkpt lat="45.8525530" lon="9.3217490">
	<ele>1160.40</ele>
	<time>2024-03-25T09:55:49.000Z</time>
</trkpt>
<trkpt lat="45.8525530" lon="9.3217390">
	<ele>1160.60</ele>
	<time>2024-03-25T09:55:50.000Z</time>
</trkpt>
<trkpt lat="45.8525500" lon="9.3217310">
	<ele>1160.80</ele>
	<time>2024-03-25T09:55:51.000Z</time>
</trkpt>
<trkpt lat="45.8525380" lon="9.3217210">
	<ele>1160.80</ele>
	<time>2024-03-25T09:55:52.000Z</time>
</trkpt>
<trkpt lat="45.8525220" lon="9.3217130">
	<ele>1161.00</ele>
	<time>2024-03-25T09:55:53.000Z</time>
</trkpt>
<trkpt lat="45.8525050" lon="9.3217120">
	<ele>1161.20</ele>
	<time>2024-03-25T09:55:54.000Z</time>
</trkpt>
<trkpt lat="45.8525010" lon="9.3217020">
	<ele>1161.20</ele>
	<time>2024-03-25T09:55:55.000Z</time>
</trkpt>
<trkpt lat="45.8524980" lon="9.3216970">
	<ele>1161.40</ele>
	<time>2024-03-25T09:55:56.000Z</time>
</trkpt>
<trkpt lat="45.8524880" lon="9.3216860">
	<ele>1161.60</ele>
	<time>2024-03-25T09:55:57.000Z</time>
</trkpt>
<trkpt lat="45.8524970" lon="9.3216770">
	<ele>1161.80</ele>
	<time>2024-03-25T09:55:58.000Z</time>
</trkpt>
<trkpt lat="45.8524940" lon="9.3216710">
	<ele>1162.00</ele>
	<time>2024-03-25T09:55:59.000Z</time>
</trkpt>
<trkpt lat="45.8524940" lon="9.3216630">
	<ele>1162.20</ele>
	<time>2024-03-25T09:56:00.000Z</time>
</trkpt>
<trkpt lat="45.8524990" lon="9.3216460">
	<ele>1162.40</ele>
	<time>2024-03-25T09:56:01.000Z</time>
</trkpt>
<trkpt lat="45.8524930" lon="9.3216310">
	<ele>1162.60</ele>
	<time>2024-03-25T09:56:02.000Z</time>
</trkpt>
<trkpt lat="45.8524930" lon="9.3216230">
	<ele>1162.80</ele>
	<time>2024-03-25T09:56:03.000Z</time>
</trkpt>
<trkpt lat="45.8524910" lon="9.3216170">
	<ele>1163.20</ele>
	<time>2024-03-25T09:56:04.000Z</time>
</trkpt>
<trkpt lat="45.8524970" lon="9.3216010">
	<ele>1163.40</ele>
	<time>2024-03-25T09:56:05.000Z</time>
</trkpt>
<trkpt lat="45.8525030" lon="9.3215930">
	<ele>1163.60</ele>
	<time>2024-03-25T09:56:06.000Z</time>
</trkpt>
<trkpt lat="45.8524990" lon="9.3215800">
	<ele>1163.80</ele>
	<time>2024-03-25T09:56:07.000Z</time>
</trkpt>
<trkpt lat="45.8524960" lon="9.3215700">
	<ele>1163.80</ele>
	<time>2024-03-25T09:56:08.000Z</time>
</trkpt>
<trkpt lat="45.8524940" lon="9.3215600">
	<ele>1164.00</ele>
	<time>2024-03-25T09:56:09.000Z</time>
</trkpt>
<trkpt lat="45.8524910" lon="9.3215560">
	<ele>1164.00</ele>
	<time>2024-03-25T09:56:10.000Z</time>
</trkpt>
<trkpt lat="45.8524880" lon="9.3215530">
	<ele>1164.00</ele>
	<time>2024-03-25T09:56:11.000Z</time>
</trkpt>
<trkpt lat="45.8524840" lon="9.3215480">
	<ele>1164.00</ele>
	<time>2024-03-25T09:56:12.000Z</time>
</trkpt>
<trkpt lat="45.8524820" lon="9.3215480">
	<ele>1164.20</ele>
	<time>2024-03-25T09:56:13.000Z</time>
</trkpt>
<trkpt lat="45.8524820" lon="9.3215480">
	<ele>1164.20</ele>
	<time>2024-03-25T09:56:14.000Z</time>
</trkpt>
<trkpt lat="45.8524810" lon="9.3215490">
	<ele>1164.20</ele>
	<time>2024-03-25T09:56:15.000Z</time>
</trkpt>
<trkpt lat="45.8524810" lon="9.3215490">
	<ele>1164.20</ele>
	<time>2024-03-25T09:56:16.000Z</time>
</trkpt>
<trkpt lat="45.8524790" lon="9.3215510">
	<ele>1164.40</ele>
	<time>2024-03-25T09:56:17.000Z</time>
</trkpt>
<trkpt lat="45.8524770" lon="9.3215510">
	<ele>1164.40</ele>
	<time>2024-03-25T09:56:18.000Z</time>
</trkpt>
<trkpt lat="45.8524770" lon="9.3215520">
	<ele>1164.40</ele>
	<time>2024-03-25T09:56:19.000Z</time>
</trkpt>
<trkpt lat="45.8524780" lon="9.3215510">
	<ele>1164.40</ele>
	<time>2024-03-25T09:56:20.000Z</time>
</trkpt>
<trkpt lat="45.8524800" lon="9.3215500">
	<ele>1164.40</ele>
	<time>2024-03-25T09:56:21.000Z</time>
</trkpt>
<trkpt lat="45.8524810" lon="9.3215530">
	<ele>1164.40</ele>
	<time>2024-03-25T09:56:22.000Z</time>
</trkpt>
<trkpt lat="45.8524820" lon="9.3215550">
	<ele>1164.40</ele>
	<time>2024-03-25T09:56:23.000Z</time>
</trkpt>
<trkpt lat="45.8524810" lon="9.3215540">
	<ele>1164.60</ele>
	<time>2024-03-25T09:56:24.000Z</time>
</trkpt>
<trkpt lat="45.8524800" lon="9.3215540">
	<ele>1164.60</ele>
	<time>2024-03-25T09:56:25.000Z</time>
</trkpt>
<trkpt lat="45.8524800" lon="9.3215540">
	<ele>1164.40</ele>
	<time>2024-03-25T09:56:26.000Z</time>
</trkpt>
<trkpt lat="45.8524800" lon="9.3215540">
	<ele>1164.40</ele>
	<time>2024-03-25T09:56:27.000Z</time>
</trkpt>
<trkpt lat="45.8524800" lon="9.3215540">
	<ele>1164.40</ele>
	<time>2024-03-25T09:56:28.000Z</time>
</trkpt>
<trkpt lat="45.8524800" lon="9.3215540">
	<ele>1164.40</ele>
	<time>2024-03-25T09:56:29.000Z</time>
</trkpt>
<trkpt lat="45.8524800" lon="9.3215540">
	<ele>1164.40</ele>
	<time>2024-03-25T09:56:30.000Z</time>
</trkpt>
<trkpt lat="45.8524800" lon="9.3215540">
	<ele>1164.40</ele>
	<time>2024-03-25T09:56:31.000Z</time>
</trkpt>
<trkpt lat="45.8524800" lon="9.3215540">
	<ele>1164.20</ele>
	<time>2024-03-25T09:56:32.000Z</time>
</trkpt>
<trkpt lat="45.8524800" lon="9.3215540">
	<ele>1164.20</ele>
	<time>2024-03-25T09:56:33.000Z</time>
</trkpt>
<trkpt lat="45.8524800" lon="9.3215540">
	<ele>1164.20</ele>
	<time>2024-03-25T09:56:34.000Z</time>
</trkpt>
<trkpt lat="45.8524800" lon="9.3215540">
	<ele>1164.20</ele>
	<time>2024-03-25T09:56:35.000Z</time>
</trkpt>
<trkpt lat="45.8524800" lon="9.3215540">
	<ele>1164.20</ele>
	<time>2024-03-25T09:56:36.000Z</time>
</trkpt>
<trkpt lat="45.8524800" lon="9.3215540">
	<ele>1164.20</ele>
	<time>2024-03-25T09:56:37.000Z</time>
</trkpt>
<trkpt lat="45.8524800" lon="9.3215540">
	<ele>1164.20</ele>
	<time>2024-03-25T09:56:38.000Z</time>
</trkpt>
<trkpt lat="45.8524800" lon="9.3215540">
	<ele>1164.20</ele>
	<time>2024-03-25T09:56:39.000Z</time>
</trkpt>
<trkpt lat="45.8524800" lon="9.3215540">
	<ele>1164.20</ele>
	<time>2024-03-25T09:56:40.000Z</time>
</trkpt>
<trkpt lat="45.8524800" lon="9.3215530">
	<ele>1164.20</ele>
	<time>2024-03-25T09:56:41.000Z</time>
</trkpt>
<trkpt lat="45.8524800" lon="9.3215530">
	<ele>1164.20</ele>
	<time>2024-03-25T09:56:42.000Z</time>
</trkpt>
<trkpt lat="45.8524800" lon="9.3215530">
	<ele>1164.40</ele>
	<time>2024-03-25T09:56:43.000Z</time>
</trkpt>
<trkpt lat="45.8524800" lon="9.3215520">
	<ele>1164.40</ele>
	<time>2024-03-25T09:56:44.000Z</time>
</trkpt>
<trkpt lat="45.8524810" lon="9.3215520">
	<ele>1164.40</ele>
	<time>2024-03-25T09:56:45.000Z</time>
</trkpt>
<trkpt lat="45.8524810" lon="9.3215510">
	<ele>1164.40</ele>
	<time>2024-03-25T09:56:46.000Z</time>
</trkpt>
<trkpt lat="45.8524820" lon="9.3215510">
	<ele>1164.40</ele>
	<time>2024-03-25T09:56:47.000Z</time>
</trkpt>
<trkpt lat="45.8524830" lon="9.3215500">
	<ele>1164.40</ele>
	<time>2024-03-25T09:56:48.000Z</time>
</trkpt>
<trkpt lat="45.8524850" lon="9.3215500">
	<ele>1164.40</ele>
	<time>2024-03-25T09:56:49.000Z</time>
</trkpt>
<trkpt lat="45.8524860" lon="9.3215480">
	<ele>1164.40</ele>
	<time>2024-03-25T09:56:50.000Z</time>
</trkpt>
<trkpt lat="45.8524860" lon="9.3215480">
	<ele>1164.40</ele>
	<time>2024-03-25T09:56:51.000Z</time>
</trkpt>
<trkpt lat="45.8524860" lon="9.3215480">
	<ele>1164.40</ele>
	<time>2024-03-25T09:56:52.000Z</time>
</trkpt>
<trkpt lat="45.8524860" lon="9.3215470">
	<ele>1164.40</ele>
	<time>2024-03-25T09:56:53.000Z</time>
</trkpt>
<trkpt lat="45.8524860" lon="9.3215470">
	<ele>1164.40</ele>
	<time>2024-03-25T09:56:54.000Z</time>
</trkpt>
<trkpt lat="45.8524860" lon="9.3215460">
	<ele>1164.20</ele>
	<time>2024-03-25T09:56:55.000Z</time>
</trkpt>
<trkpt lat="45.8524860" lon="9.3215460">
	<ele>1164.20</ele>
	<time>2024-03-25T09:56:56.000Z</time>
</trkpt>
<trkpt lat="45.8524860" lon="9.3215460">
	<ele>1164.20</ele>
	<time>2024-03-25T09:56:57.000Z</time>
</trkpt>
<trkpt lat="45.8524860" lon="9.3215460">
	<ele>1164.00</ele>
	<time>2024-03-25T09:56:58.000Z</time>
</trkpt>
<trkpt lat="45.8524830" lon="9.3215390">
	<ele>1163.80</ele>
	<time>2024-03-25T09:56:59.000Z</time>
</trkpt>
<trkpt lat="45.8524680" lon="9.3215220">
	<ele>1163.80</ele>
	<time>2024-03-25T09:57:00.000Z</time>
</trkpt>
<trkpt lat="45.8524550" lon="9.3215040">
	<ele>1163.60</ele>
	<time>2024-03-25T09:57:01.000Z</time>
</trkpt>
<trkpt lat="45.8524420" lon="9.3214860">
	<ele>1163.60</ele>
	<time>2024-03-25T09:57:02.000Z</time>
</trkpt>
<trkpt lat="45.8524280" lon="9.3214680">
	<ele>1163.60</ele>
	<time>2024-03-25T09:57:03.000Z</time>
</trkpt>
<trkpt lat="45.8524120" lon="9.3214500">
	<ele>1163.40</ele>
	<time>2024-03-25T09:57:04.000Z</time>
</trkpt>
<trkpt lat="45.8523950" lon="9.3214320">
	<ele>1163.40</ele>
	<time>2024-03-25T09:57:05.000Z</time>
</trkpt>
<trkpt lat="45.8523790" lon="9.3214150">
	<ele>1163.40</ele>
	<time>2024-03-25T09:57:06.000Z</time>
</trkpt>
<trkpt lat="45.8523650" lon="9.3214010">
	<ele>1163.60</ele>
	<time>2024-03-25T09:57:07.000Z</time>
</trkpt>
<trkpt lat="45.8523540" lon="9.3213830">
	<ele>1163.60</ele>
	<time>2024-03-25T09:57:08.000Z</time>
</trkpt>
<trkpt lat="45.8523490" lon="9.3213770">
	<ele>1163.60</ele>
	<time>2024-03-25T09:57:09.000Z</time>
</trkpt>
<trkpt lat="45.8523390" lon="9.3213730">
	<ele>1163.60</ele>
	<time>2024-03-25T09:57:10.000Z</time>
</trkpt>
<trkpt lat="45.8523300" lon="9.3213670">
	<ele>1163.60</ele>
	<time>2024-03-25T09:57:11.000Z</time>
</trkpt>
<trkpt lat="45.8523230" lon="9.3213600">
	<ele>1163.60</ele>
	<time>2024-03-25T09:57:12.000Z</time>
</trkpt>
<trkpt lat="45.8523120" lon="9.3213520">
	<ele>1163.80</ele>
	<time>2024-03-25T09:57:13.000Z</time>
</trkpt>
<trkpt lat="45.8523000" lon="9.3213430">
	<ele>1163.80</ele>
	<time>2024-03-25T09:57:14.000Z</time>
</trkpt>
<trkpt lat="45.8522900" lon="9.3213320">
	<ele>1163.80</ele>
	<time>2024-03-25T09:57:15.000Z</time>
</trkpt>
<trkpt lat="45.8522810" lon="9.3213200">
	<ele>1163.80</ele>
	<time>2024-03-25T09:57:16.000Z</time>
</trkpt>
<trkpt lat="45.8522720" lon="9.3213060">
	<ele>1164.00</ele>
	<time>2024-03-25T09:57:17.000Z</time>
</trkpt>
<trkpt lat="45.8522650" lon="9.3212910">
	<ele>1164.00</ele>
	<time>2024-03-25T09:57:18.000Z</time>
</trkpt>
<trkpt lat="45.8522560" lon="9.3212800">
	<ele>1164.20</ele>
	<time>2024-03-25T09:57:19.000Z</time>
</trkpt>
<trkpt lat="45.8522480" lon="9.3212680">
	<ele>1164.20</ele>
	<time>2024-03-25T09:57:20.000Z</time>
</trkpt>
<trkpt lat="45.8522390" lon="9.3212570">
	<ele>1164.20</ele>
	<time>2024-03-25T09:57:21.000Z</time>
</trkpt>
<trkpt lat="45.8522310" lon="9.3212410">
	<ele>1164.40</ele>
	<time>2024-03-25T09:57:22.000Z</time>
</trkpt>
<trkpt lat="45.8522250" lon="9.3212270">
	<ele>1164.40</ele>
	<time>2024-03-25T09:57:23.000Z</time>
</trkpt>
<trkpt lat="45.8522180" lon="9.3212120">
	<ele>1164.60</ele>
	<time>2024-03-25T09:57:24.000Z</time>
</trkpt>
<trkpt lat="45.8522100" lon="9.3211980">
	<ele>1164.60</ele>
	<time>2024-03-25T09:57:25.000Z</time>
</trkpt>
<trkpt lat="45.8522020" lon="9.3211850">
	<ele>1164.80</ele>
	<time>2024-03-25T09:57:26.000Z</time>
</trkpt>
<trkpt lat="45.8521940" lon="9.3211710">
	<ele>1165.00</ele>
	<time>2024-03-25T09:57:27.000Z</time>
</trkpt>
<trkpt lat="45.8521870" lon="9.3211570">
	<ele>1165.20</ele>
	<time>2024-03-25T09:57:28.000Z</time>
</trkpt>
<trkpt lat="45.8521780" lon="9.3211430">
	<ele>1165.20</ele>
	<time>2024-03-25T09:57:29.000Z</time>
</trkpt>
<trkpt lat="45.8521700" lon="9.3211330">
	<ele>1165.40</ele>
	<time>2024-03-25T09:57:30.000Z</time>
</trkpt>
<trkpt lat="45.8521630" lon="9.3211210">
	<ele>1165.60</ele>
	<time>2024-03-25T09:57:31.000Z</time>
</trkpt>
<trkpt lat="45.8521560" lon="9.3211090">
	<ele>1166.00</ele>
	<time>2024-03-25T09:57:32.000Z</time>
</trkpt>
<trkpt lat="45.8521500" lon="9.3210960">
	<ele>1166.20</ele>
	<time>2024-03-25T09:57:33.000Z</time>
</trkpt>
<trkpt lat="45.8521450" lon="9.3210860">
	<ele>1166.40</ele>
	<time>2024-03-25T09:57:34.000Z</time>
</trkpt>
<trkpt lat="45.8521410" lon="9.3210770">
	<ele>1166.60</ele>
	<time>2024-03-25T09:57:35.000Z</time>
</trkpt>
<trkpt lat="45.8521380" lon="9.3210680">
	<ele>1166.60</ele>
	<time>2024-03-25T09:57:36.000Z</time>
</trkpt>
<trkpt lat="45.8521300" lon="9.3210580">
	<ele>1166.80</ele>
	<time>2024-03-25T09:57:37.000Z</time>
</trkpt>
<trkpt lat="45.8521230" lon="9.3210480">
	<ele>1167.00</ele>
	<time>2024-03-25T09:57:38.000Z</time>
</trkpt>
<trkpt lat="45.8521140" lon="9.3210410">
	<ele>1167.00</ele>
	<time>2024-03-25T09:57:39.000Z</time>
</trkpt>
<trkpt lat="45.8521080" lon="9.3210300">
	<ele>1167.20</ele>
	<time>2024-03-25T09:57:40.000Z</time>
</trkpt>
<trkpt lat="45.8521040" lon="9.3210170">
	<ele>1167.20</ele>
	<time>2024-03-25T09:57:41.000Z</time>
</trkpt>
<trkpt lat="45.8520960" lon="9.3210060">
	<ele>1167.20</ele>
	<time>2024-03-25T09:57:42.000Z</time>
</trkpt>
<trkpt lat="45.8520910" lon="9.3209960">
	<ele>1167.40</ele>
	<time>2024-03-25T09:57:43.000Z</time>
</trkpt>
<trkpt lat="45.8520830" lon="9.3209880">
	<ele>1167.60</ele>
	<time>2024-03-25T09:57:44.000Z</time>
</trkpt>
<trkpt lat="45.8520730" lon="9.3209770">
	<ele>1167.80</ele>
	<time>2024-03-25T09:57:45.000Z</time>
</trkpt>
<trkpt lat="45.8520630" lon="9.3209680">
	<ele>1168.00</ele>
	<time>2024-03-25T09:57:46.000Z</time>
</trkpt>
<trkpt lat="45.8520540" lon="9.3209590">
	<ele>1168.20</ele>
	<time>2024-03-25T09:57:47.000Z</time>
</trkpt>
<trkpt lat="45.8520440" lon="9.3209470">
	<ele>1168.20</ele>
	<time>2024-03-25T09:57:48.000Z</time>
</trkpt>
<trkpt lat="45.8520350" lon="9.3209310">
	<ele>1168.40</ele>
	<time>2024-03-25T09:57:49.000Z</time>
</trkpt>
<trkpt lat="45.8520270" lon="9.3209200">
	<ele>1168.60</ele>
	<time>2024-03-25T09:57:50.000Z</time>
</trkpt>
<trkpt lat="45.8520220" lon="9.3209100">
	<ele>1168.60</ele>
	<time>2024-03-25T09:57:51.000Z</time>
</trkpt>
<trkpt lat="45.8520180" lon="9.3209000">
	<ele>1168.60</ele>
	<time>2024-03-25T09:57:52.000Z</time>
</trkpt>
<trkpt lat="45.8520150" lon="9.3208880">
	<ele>1168.80</ele>
	<time>2024-03-25T09:57:53.000Z</time>
</trkpt>
<trkpt lat="45.8520120" lon="9.3208770">
	<ele>1168.80</ele>
	<time>2024-03-25T09:57:54.000Z</time>
</trkpt>
<trkpt lat="45.8520050" lon="9.3208660">
	<ele>1169.00</ele>
	<time>2024-03-25T09:57:55.000Z</time>
</trkpt>
<trkpt lat="45.8519960" lon="9.3208540">
	<ele>1169.20</ele>
	<time>2024-03-25T09:57:56.000Z</time>
</trkpt>
<trkpt lat="45.8519900" lon="9.3208440">
	<ele>1169.20</ele>
	<time>2024-03-25T09:57:57.000Z</time>
</trkpt>
<trkpt lat="45.8519850" lon="9.3208330">
	<ele>1169.40</ele>
	<time>2024-03-25T09:57:58.000Z</time>
</trkpt>
<trkpt lat="45.8519800" lon="9.3208240">
	<ele>1169.40</ele>
	<time>2024-03-25T09:57:59.000Z</time>
</trkpt>
<trkpt lat="45.8519720" lon="9.3208140">
	<ele>1169.40</ele>
	<time>2024-03-25T09:58:00.000Z</time>
</trkpt>
<trkpt lat="45.8519630" lon="9.3208030">
	<ele>1169.60</ele>
	<time>2024-03-25T09:58:01.000Z</time>
</trkpt>
<trkpt lat="45.8519540" lon="9.3207910">
	<ele>1169.60</ele>
	<time>2024-03-25T09:58:02.000Z</time>
</trkpt>
<trkpt lat="45.8519460" lon="9.3207820">
	<ele>1169.60</ele>
	<time>2024-03-25T09:58:03.000Z</time>
</trkpt>
<trkpt lat="45.8519380" lon="9.3207720">
	<ele>1170.00</ele>
	<time>2024-03-25T09:58:04.000Z</time>
</trkpt>
<trkpt lat="45.8519310" lon="9.3207620">
	<ele>1170.20</ele>
	<time>2024-03-25T09:58:05.000Z</time>
</trkpt>
<trkpt lat="45.8519250" lon="9.3207520">
	<ele>1170.20</ele>
	<time>2024-03-25T09:58:06.000Z</time>
</trkpt>
<trkpt lat="45.8519170" lon="9.3207430">
	<ele>1170.40</ele>
	<time>2024-03-25T09:58:07.000Z</time>
</trkpt>
<trkpt lat="45.8519110" lon="9.3207350">
	<ele>1170.80</ele>
	<time>2024-03-25T09:58:08.000Z</time>
</trkpt>
<trkpt lat="45.8519070" lon="9.3207260">
	<ele>1170.80</ele>
	<time>2024-03-25T09:58:09.000Z</time>
</trkpt>
<trkpt lat="45.8519040" lon="9.3207130">
	<ele>1171.00</ele>
	<time>2024-03-25T09:58:10.000Z</time>
</trkpt>
<trkpt lat="45.8519030" lon="9.3207020">
	<ele>1171.20</ele>
	<time>2024-03-25T09:58:11.000Z</time>
</trkpt>
<trkpt lat="45.8519010" lon="9.3206920">
	<ele>1171.20</ele>
	<time>2024-03-25T09:58:12.000Z</time>
</trkpt>
<trkpt lat="45.8518960" lon="9.3206820">
	<ele>1171.40</ele>
	<time>2024-03-25T09:58:13.000Z</time>
</trkpt>
<trkpt lat="45.8518920" lon="9.3206730">
	<ele>1171.60</ele>
	<time>2024-03-25T09:58:14.000Z</time>
</trkpt>
<trkpt lat="45.8518910" lon="9.3206650">
	<ele>1171.80</ele>
	<time>2024-03-25T09:58:15.000Z</time>
</trkpt>
<trkpt lat="45.8518890" lon="9.3206550">
	<ele>1171.80</ele>
	<time>2024-03-25T09:58:16.000Z</time>
</trkpt>
<trkpt lat="45.8518870" lon="9.3206440">
	<ele>1172.00</ele>
	<time>2024-03-25T09:58:17.000Z</time>
</trkpt>
<trkpt lat="45.8518810" lon="9.3206330">
	<ele>1172.00</ele>
	<time>2024-03-25T09:58:18.000Z</time>
</trkpt>
<trkpt lat="45.8518780" lon="9.3206220">
	<ele>1172.20</ele>
	<time>2024-03-25T09:58:19.000Z</time>
</trkpt>
<trkpt lat="45.8518780" lon="9.3206150">
	<ele>1172.40</ele>
	<time>2024-03-25T09:58:20.000Z</time>
</trkpt>
<trkpt lat="45.8518750" lon="9.3206020">
	<ele>1172.40</ele>
	<time>2024-03-25T09:58:21.000Z</time>
</trkpt>
<trkpt lat="45.8518680" lon="9.3205950">
	<ele>1172.60</ele>
	<time>2024-03-25T09:58:22.000Z</time>
</trkpt>
<trkpt lat="45.8518620" lon="9.3205870">
	<ele>1172.80</ele>
	<time>2024-03-25T09:58:23.000Z</time>
</trkpt>
<trkpt lat="45.8518580" lon="9.3205780">
	<ele>1173.00</ele>
	<time>2024-03-25T09:58:24.000Z</time>
</trkpt>
<trkpt lat="45.8518550" lon="9.3205690">
	<ele>1173.20</ele>
	<time>2024-03-25T09:58:25.000Z</time>
</trkpt>
<trkpt lat="45.8518510" lon="9.3205590">
	<ele>1173.40</ele>
	<time>2024-03-25T09:58:26.000Z</time>
</trkpt>
<trkpt lat="45.8518500" lon="9.3205470">
	<ele>1173.60</ele>
	<time>2024-03-25T09:58:27.000Z</time>
</trkpt>
<trkpt lat="45.8518480" lon="9.3205360">
	<ele>1174.00</ele>
	<time>2024-03-25T09:58:28.000Z</time>
</trkpt>
<trkpt lat="45.8518480" lon="9.3205220">
	<ele>1174.00</ele>
	<time>2024-03-25T09:58:29.000Z</time>
</trkpt>
<trkpt lat="45.8518470" lon="9.3205120">
	<ele>1174.20</ele>
	<time>2024-03-25T09:58:30.000Z</time>
</trkpt>
<trkpt lat="45.8518410" lon="9.3205020">
	<ele>1174.20</ele>
	<time>2024-03-25T09:58:31.000Z</time>
</trkpt>
<trkpt lat="45.8518340" lon="9.3204920">
	<ele>1174.40</ele>
	<time>2024-03-25T09:58:32.000Z</time>
</trkpt>
<trkpt lat="45.8518280" lon="9.3204860">
	<ele>1174.60</ele>
	<time>2024-03-25T09:58:33.000Z</time>
</trkpt>
<trkpt lat="45.8518230" lon="9.3204800">
	<ele>1174.80</ele>
	<time>2024-03-25T09:58:34.000Z</time>
</trkpt>
<trkpt lat="45.8518130" lon="9.3204790">
	<ele>1175.00</ele>
	<time>2024-03-25T09:58:35.000Z</time>
</trkpt>
<trkpt lat="45.8518010" lon="9.3204800">
	<ele>1175.20</ele>
	<time>2024-03-25T09:58:36.000Z</time>
</trkpt>
<trkpt lat="45.8517920" lon="9.3204810">
	<ele>1175.40</ele>
	<time>2024-03-25T09:58:37.000Z</time>
</trkpt>
<trkpt lat="45.8517850" lon="9.3204800">
	<ele>1175.60</ele>
	<time>2024-03-25T09:58:38.000Z</time>
</trkpt>
<trkpt lat="45.8517790" lon="9.3204740">
	<ele>1175.80</ele>
	<time>2024-03-25T09:58:39.000Z</time>
</trkpt>
<trkpt lat="45.8517720" lon="9.3204680">
	<ele>1176.00</ele>
	<time>2024-03-25T09:58:40.000Z</time>
</trkpt>
<trkpt lat="45.8517670" lon="9.3204640">
	<ele>1176.40</ele>
	<time>2024-03-25T09:58:41.000Z</time>
</trkpt>
<trkpt lat="45.8517630" lon="9.3204600">
	<ele>1176.60</ele>
	<time>2024-03-25T09:58:42.000Z</time>
</trkpt>
<trkpt lat="45.8517570" lon="9.3204540">
	<ele>1176.80</ele>
	<time>2024-03-25T09:58:43.000Z</time>
</trkpt>
<trkpt lat="45.8517510" lon="9.3204480">
	<ele>1176.80</ele>
	<time>2024-03-25T09:58:44.000Z</time>
</trkpt>
<trkpt lat="45.8517440" lon="9.3204420">
	<ele>1177.00</ele>
	<time>2024-03-25T09:58:45.000Z</time>
</trkpt>
<trkpt lat="45.8517380" lon="9.3204350">
	<ele>1177.00</ele>
	<time>2024-03-25T09:58:46.000Z</time>
</trkpt>
<trkpt lat="45.8517340" lon="9.3204270">
	<ele>1177.20</ele>
	<time>2024-03-25T09:58:47.000Z</time>
</trkpt>
<trkpt lat="45.8517300" lon="9.3204200">
	<ele>1177.40</ele>
	<time>2024-03-25T09:58:48.000Z</time>
</trkpt>
<trkpt lat="45.8517220" lon="9.3204150">
	<ele>1177.80</ele>
	<time>2024-03-25T09:58:49.000Z</time>
</trkpt>
<trkpt lat="45.8517170" lon="9.3204090">
	<ele>1178.00</ele>
	<time>2024-03-25T09:58:50.000Z</time>
</trkpt>
<trkpt lat="45.8517120" lon="9.3204000">
	<ele>1178.00</ele>
	<time>2024-03-25T09:58:51.000Z</time>
</trkpt>
<trkpt lat="45.8517070" lon="9.3203930">
	<ele>1178.20</ele>
	<time>2024-03-25T09:58:52.000Z</time>
</trkpt>
<trkpt lat="45.8517030" lon="9.3203850">
	<ele>1178.40</ele>
	<time>2024-03-25T09:58:53.000Z</time>
</trkpt>
<trkpt lat="45.8516980" lon="9.3203780">
	<ele>1178.60</ele>
	<time>2024-03-25T09:58:54.000Z</time>
</trkpt>
<trkpt lat="45.8516920" lon="9.3203690">
	<ele>1178.80</ele>
	<time>2024-03-25T09:58:55.000Z</time>
</trkpt>
<trkpt lat="45.8516880" lon="9.3203600">
	<ele>1178.80</ele>
	<time>2024-03-25T09:58:56.000Z</time>
</trkpt>
<trkpt lat="45.8516840" lon="9.3203500">
	<ele>1179.00</ele>
	<time>2024-03-25T09:58:57.000Z</time>
</trkpt>
<trkpt lat="45.8516780" lon="9.3203410">
	<ele>1179.20</ele>
	<time>2024-03-25T09:58:58.000Z</time>
</trkpt>
<trkpt lat="45.8516710" lon="9.3203370">
	<ele>1179.40</ele>
	<time>2024-03-25T09:58:59.000Z</time>
</trkpt>
<trkpt lat="45.8516640" lon="9.3203310">
	<ele>1179.60</ele>
	<time>2024-03-25T09:59:00.000Z</time>
</trkpt>
<trkpt lat="45.8516590" lon="9.3203250">
	<ele>1179.60</ele>
	<time>2024-03-25T09:59:01.000Z</time>
</trkpt>
<trkpt lat="45.8516530" lon="9.3203180">
	<ele>1180.00</ele>
	<time>2024-03-25T09:59:02.000Z</time>
</trkpt>
<trkpt lat="45.8516450" lon="9.3203130">
	<ele>1180.00</ele>
	<time>2024-03-25T09:59:03.000Z</time>
</trkpt>
<trkpt lat="45.8516380" lon="9.3203060">
	<ele>1180.40</ele>
	<time>2024-03-25T09:59:04.000Z</time>
</trkpt>
<trkpt lat="45.8516320" lon="9.3202980">
	<ele>1180.80</ele>
	<time>2024-03-25T09:59:05.000Z</time>
</trkpt>
<trkpt lat="45.8516270" lon="9.3202940">
	<ele>1181.00</ele>
	<time>2024-03-25T09:59:06.000Z</time>
</trkpt>
<trkpt lat="45.8516230" lon="9.3202870">
	<ele>1181.20</ele>
	<time>2024-03-25T09:59:07.000Z</time>
</trkpt>
<trkpt lat="45.8516220" lon="9.3202770">
	<ele>1181.40</ele>
	<time>2024-03-25T09:59:08.000Z</time>
</trkpt>
<trkpt lat="45.8516180" lon="9.3202690">
	<ele>1181.60</ele>
	<time>2024-03-25T09:59:09.000Z</time>
</trkpt>
<trkpt lat="45.8516140" lon="9.3202580">
	<ele>1181.60</ele>
	<time>2024-03-25T09:59:10.000Z</time>
</trkpt>
<trkpt lat="45.8516120" lon="9.3202510">
	<ele>1181.80</ele>
	<time>2024-03-25T09:59:11.000Z</time>
</trkpt>
<trkpt lat="45.8516100" lon="9.3202450">
	<ele>1182.20</ele>
	<time>2024-03-25T09:59:12.000Z</time>
</trkpt>
<trkpt lat="45.8516100" lon="9.3202330">
	<ele>1182.40</ele>
	<time>2024-03-25T09:59:13.000Z</time>
</trkpt>
<trkpt lat="45.8516100" lon="9.3202240">
	<ele>1182.60</ele>
	<time>2024-03-25T09:59:14.000Z</time>
</trkpt>
<trkpt lat="45.8516070" lon="9.3202130">
	<ele>1182.60</ele>
	<time>2024-03-25T09:59:15.000Z</time>
</trkpt>
<trkpt lat="45.8516010" lon="9.3202010">
	<ele>1182.80</ele>
	<time>2024-03-25T09:59:16.000Z</time>
</trkpt>
<trkpt lat="45.8515950" lon="9.3201900">
	<ele>1182.80</ele>
	<time>2024-03-25T09:59:17.000Z</time>
</trkpt>
<trkpt lat="45.8515890" lon="9.3201760">
	<ele>1182.80</ele>
	<time>2024-03-25T09:59:18.000Z</time>
</trkpt>
<trkpt lat="45.8515860" lon="9.3201620">
	<ele>1182.80</ele>
	<time>2024-03-25T09:59:19.000Z</time>
</trkpt>
<trkpt lat="45.8515780" lon="9.3201480">
	<ele>1182.80</ele>
	<time>2024-03-25T09:59:20.000Z</time>
</trkpt>
<trkpt lat="45.8515710" lon="9.3201370">
	<ele>1183.00</ele>
	<time>2024-03-25T09:59:21.000Z</time>
</trkpt>
<trkpt lat="45.8515670" lon="9.3201280">
	<ele>1183.20</ele>
	<time>2024-03-25T09:59:22.000Z</time>
</trkpt>
<trkpt lat="45.8515610" lon="9.3201200">
	<ele>1183.20</ele>
	<time>2024-03-25T09:59:23.000Z</time>
</trkpt>
<trkpt lat="45.8515570" lon="9.3201110">
	<ele>1183.40</ele>
	<time>2024-03-25T09:59:24.000Z</time>
</trkpt>
<trkpt lat="45.8515510" lon="9.3201050">
	<ele>1183.40</ele>
	<time>2024-03-25T09:59:25.000Z</time>
</trkpt>
<trkpt lat="45.8515450" lon="9.3201010">
	<ele>1183.60</ele>
	<time>2024-03-25T09:59:26.000Z</time>
</trkpt>
<trkpt lat="45.8515370" lon="9.3200970">
	<ele>1183.60</ele>
	<time>2024-03-25T09:59:27.000Z</time>
</trkpt>
<trkpt lat="45.8515280" lon="9.3200900">
	<ele>1183.80</ele>
	<time>2024-03-25T09:59:28.000Z</time>
</trkpt>
<trkpt lat="45.8515220" lon="9.3200860">
	<ele>1184.00</ele>
	<time>2024-03-25T09:59:29.000Z</time>
</trkpt>
<trkpt lat="45.8515180" lon="9.3200800">
	<ele>1184.20</ele>
	<time>2024-03-25T09:59:30.000Z</time>
</trkpt>
<trkpt lat="45.8515140" lon="9.3200730">
	<ele>1184.20</ele>
	<time>2024-03-25T09:59:31.000Z</time>
</trkpt>
<trkpt lat="45.8515090" lon="9.3200630">
	<ele>1184.40</ele>
	<time>2024-03-25T09:59:32.000Z</time>
</trkpt>
<trkpt lat="45.8515020" lon="9.3200540">
	<ele>1184.40</ele>
	<time>2024-03-25T09:59:33.000Z</time>
</trkpt>
<trkpt lat="45.8514940" lon="9.3200450">
	<ele>1184.60</ele>
	<time>2024-03-25T09:59:34.000Z</time>
</trkpt>
<trkpt lat="45.8514860" lon="9.3200360">
	<ele>1184.60</ele>
	<time>2024-03-25T09:59:35.000Z</time>
</trkpt>
<trkpt lat="45.8514770" lon="9.3200260">
	<ele>1184.80</ele>
	<time>2024-03-25T09:59:36.000Z</time>
</trkpt>
<trkpt lat="45.8514690" lon="9.3200160">
	<ele>1185.00</ele>
	<time>2024-03-25T09:59:37.000Z</time>
</trkpt>
<trkpt lat="45.8514600" lon="9.3200060">
	<ele>1185.00</ele>
	<time>2024-03-25T09:59:38.000Z</time>
</trkpt>
<trkpt lat="45.8514520" lon="9.3199960">
	<ele>1185.20</ele>
	<time>2024-03-25T09:59:39.000Z</time>
</trkpt>
<trkpt lat="45.8514440" lon="9.3199840">
	<ele>1185.20</ele>
	<time>2024-03-25T09:59:40.000Z</time>
</trkpt>
<trkpt lat="45.8514380" lon="9.3199760">
	<ele>1185.20</ele>
	<time>2024-03-25T09:59:41.000Z</time>
</trkpt>
<trkpt lat="45.8514340" lon="9.3199640">
	<ele>1185.20</ele>
	<time>2024-03-25T09:59:42.000Z</time>
</trkpt>
<trkpt lat="45.8514280" lon="9.3199480">
	<ele>1185.20</ele>
	<time>2024-03-25T09:59:43.000Z</time>
</trkpt>
<trkpt lat="45.8514240" lon="9.3199350">
	<ele>1185.20</ele>
	<time>2024-03-25T09:59:44.000Z</time>
</trkpt>
<trkpt lat="45.8514210" lon="9.3199240">
	<ele>1185.40</ele>
	<time>2024-03-25T09:59:45.000Z</time>
</trkpt>
<trkpt lat="45.8514160" lon="9.3199130">
	<ele>1185.40</ele>
	<time>2024-03-25T09:59:46.000Z</time>
</trkpt>
<trkpt lat="45.8514120" lon="9.3199020">
	<ele>1185.40</ele>
	<time>2024-03-25T09:59:47.000Z</time>
</trkpt>
<trkpt lat="45.8514080" lon="9.3198900">
	<ele>1185.40</ele>
	<time>2024-03-25T09:59:48.000Z</time>
</trkpt>
<trkpt lat="45.8514030" lon="9.3198780">
	<ele>1185.60</ele>
	<time>2024-03-25T09:59:49.000Z</time>
</trkpt>
<trkpt lat="45.8513980" lon="9.3198660">
	<ele>1185.60</ele>
	<time>2024-03-25T09:59:50.000Z</time>
</trkpt>
<trkpt lat="45.8513920" lon="9.3198560">
	<ele>1185.60</ele>
	<time>2024-03-25T09:59:51.000Z</time>
</trkpt>
<trkpt lat="45.8513870" lon="9.3198480">
	<ele>1185.80</ele>
	<time>2024-03-25T09:59:52.000Z</time>
</trkpt>
<trkpt lat="45.8513810" lon="9.3198390">
	<ele>1186.00</ele>
	<time>2024-03-25T09:59:53.000Z</time>
</trkpt>
<trkpt lat="45.8513740" lon="9.3198320">
	<ele>1186.00</ele>
	<time>2024-03-25T09:59:54.000Z</time>
</trkpt>
<trkpt lat="45.8513660" lon="9.3198240">
	<ele>1186.20</ele>
	<time>2024-03-25T09:59:55.000Z</time>
</trkpt>
<trkpt lat="45.8513580" lon="9.3198120">
	<ele>1186.40</ele>
	<time>2024-03-25T09:59:56.000Z</time>
</trkpt>
<trkpt lat="45.8513500" lon="9.3198010">
	<ele>1186.40</ele>
	<time>2024-03-25T09:59:57.000Z</time>
</trkpt>
<trkpt lat="45.8513430" lon="9.3197920">
	<ele>1186.60</ele>
	<time>2024-03-25T09:59:58.000Z</time>
</trkpt>
<trkpt lat="45.8513370" lon="9.3197850">
	<ele>1186.80</ele>
	<time>2024-03-25T09:59:59.000Z</time>
</trkpt>
<trkpt lat="45.8513300" lon="9.3197780">
	<ele>1187.00</ele>
	<time>2024-03-25T10:00:00.000Z</time>
</trkpt>
<trkpt lat="45.8513210" lon="9.3197740">
	<ele>1187.00</ele>
	<time>2024-03-25T10:00:01.000Z</time>
</trkpt>
<trkpt lat="45.8513140" lon="9.3197710">
	<ele>1187.40</ele>
	<time>2024-03-25T10:00:02.000Z</time>
</trkpt>
<trkpt lat="45.8513130" lon="9.3197660">
	<ele>1187.60</ele>
	<time>2024-03-25T10:00:03.000Z</time>
</trkpt>
<trkpt lat="45.8513110" lon="9.3197600">
	<ele>1187.80</ele>
	<time>2024-03-25T10:00:04.000Z</time>
</trkpt>
<trkpt lat="45.8513060" lon="9.3197510">
	<ele>1188.00</ele>
	<time>2024-03-25T10:00:05.000Z</time>
</trkpt>
<trkpt lat="45.8513040" lon="9.3197380">
	<ele>1188.00</ele>
	<time>2024-03-25T10:00:06.000Z</time>
</trkpt>
<trkpt lat="45.8513030" lon="9.3197230">
	<ele>1188.00</ele>
	<time>2024-03-25T10:00:07.000Z</time>
</trkpt>
<trkpt lat="45.8512980" lon="9.3197080">
	<ele>1188.20</ele>
	<time>2024-03-25T10:00:08.000Z</time>
</trkpt>
<trkpt lat="45.8512910" lon="9.3196980">
	<ele>1188.20</ele>
	<time>2024-03-25T10:00:09.000Z</time>
</trkpt>
<trkpt lat="45.8512820" lon="9.3196870">
	<ele>1188.20</ele>
	<time>2024-03-25T10:00:10.000Z</time>
</trkpt>
<trkpt lat="45.8512770" lon="9.3196750">
	<ele>1188.20</ele>
	<time>2024-03-25T10:00:11.000Z</time>
</trkpt>
<trkpt lat="45.8512700" lon="9.3196630">
	<ele>1188.20</ele>
	<time>2024-03-25T10:00:12.000Z</time>
</trkpt>
<trkpt lat="45.8512670" lon="9.3196540">
	<ele>1188.20</ele>
	<time>2024-03-25T10:00:13.000Z</time>
</trkpt>
<trkpt lat="45.8512640" lon="9.3196460">
	<ele>1188.20</ele>
	<time>2024-03-25T10:00:14.000Z</time>
</trkpt>
<trkpt lat="45.8512600" lon="9.3196390">
	<ele>1188.40</ele>
	<time>2024-03-25T10:00:15.000Z</time>
</trkpt>
<trkpt lat="45.8512550" lon="9.3196310">
	<ele>1188.60</ele>
	<time>2024-03-25T10:00:16.000Z</time>
</trkpt>
<trkpt lat="45.8512460" lon="9.3196230">
	<ele>1188.60</ele>
	<time>2024-03-25T10:00:17.000Z</time>
</trkpt>
<trkpt lat="45.8512390" lon="9.3196150">
	<ele>1188.80</ele>
	<time>2024-03-25T10:00:18.000Z</time>
</trkpt>
<trkpt lat="45.8512300" lon="9.3196070">
	<ele>1189.00</ele>
	<time>2024-03-25T10:00:19.000Z</time>
</trkpt>
<trkpt lat="45.8512220" lon="9.3195970">
	<ele>1189.20</ele>
	<time>2024-03-25T10:00:20.000Z</time>
</trkpt>
<trkpt lat="45.8512160" lon="9.3195880">
	<ele>1189.20</ele>
	<time>2024-03-25T10:00:21.000Z</time>
</trkpt>
<trkpt lat="45.8512080" lon="9.3195810">
	<ele>1189.40</ele>
	<time>2024-03-25T10:00:22.000Z</time>
</trkpt>
<trkpt lat="45.8512020" lon="9.3195770">
	<ele>1189.40</ele>
	<time>2024-03-25T10:00:23.000Z</time>
</trkpt>
<trkpt lat="45.8512010" lon="9.3195740">
	<ele>1189.60</ele>
	<time>2024-03-25T10:00:24.000Z</time>
</trkpt>
<trkpt lat="45.8512010" lon="9.3195720">
	<ele>1189.60</ele>
	<time>2024-03-25T10:00:25.000Z</time>
</trkpt>
<trkpt lat="45.8512030" lon="9.3195710">
	<ele>1189.60</ele>
	<time>2024-03-25T10:00:26.000Z</time>
</trkpt>
<trkpt lat="45.8512050" lon="9.3195710">
	<ele>1189.60</ele>
	<time>2024-03-25T10:00:27.000Z</time>
</trkpt>
<trkpt lat="45.8512080" lon="9.3195690">
	<ele>1189.60</ele>
	<time>2024-03-25T10:00:28.000Z</time>
</trkpt>
<trkpt lat="45.8512110" lon="9.3195700">
	<ele>1189.60</ele>
	<time>2024-03-25T10:00:29.000Z</time>
</trkpt>
<trkpt lat="45.8512140" lon="9.3195690">
	<ele>1189.60</ele>
	<time>2024-03-25T10:00:30.000Z</time>
</trkpt>
<trkpt lat="45.8512160" lon="9.3195690">
	<ele>1189.60</ele>
	<time>2024-03-25T10:00:31.000Z</time>
</trkpt>
<trkpt lat="45.8512160" lon="9.3195700">
	<ele>1189.60</ele>
	<time>2024-03-25T10:00:32.000Z</time>
</trkpt>
<trkpt lat="45.8512200" lon="9.3195680">
	<ele>1189.60</ele>
	<time>2024-03-25T10:00:33.000Z</time>
</trkpt>
<trkpt lat="45.8512210" lon="9.3195680">
	<ele>1189.80</ele>
	<time>2024-03-25T10:00:34.000Z</time>
</trkpt>
<trkpt lat="45.8512210" lon="9.3195680">
	<ele>1189.80</ele>
	<time>2024-03-25T10:00:35.000Z</time>
</trkpt>
<trkpt lat="45.8512210" lon="9.3195680">
	<ele>1189.80</ele>
	<time>2024-03-25T10:00:36.000Z</time>
</trkpt>
<trkpt lat="45.8512210" lon="9.3195680">
	<ele>1189.80</ele>
	<time>2024-03-25T10:00:37.000Z</time>
</trkpt>
<trkpt lat="45.8512210" lon="9.3195680">
	<ele>1189.80</ele>
	<time>2024-03-25T10:00:38.000Z</time>
</trkpt>
<trkpt lat="45.8512210" lon="9.3195680">
	<ele>1189.80</ele>
	<time>2024-03-25T10:00:39.000Z</time>
</trkpt>
<trkpt lat="45.8512210" lon="9.3195680">
	<ele>1189.80</ele>
	<time>2024-03-25T10:00:40.000Z</time>
</trkpt>
<trkpt lat="45.8512210" lon="9.3195680">
	<ele>1189.80</ele>
	<time>2024-03-25T10:00:41.000Z</time>
</trkpt>
<trkpt lat="45.8512210" lon="9.3195680">
	<ele>1189.60</ele>
	<time>2024-03-25T10:00:42.000Z</time>
</trkpt>
<trkpt lat="45.8512210" lon="9.3195680">
	<ele>1189.60</ele>
	<time>2024-03-25T10:00:43.000Z</time>
</trkpt>
<trkpt lat="45.8512200" lon="9.3195680">
	<ele>1189.60</ele>
	<time>2024-03-25T10:00:44.000Z</time>
</trkpt>
<trkpt lat="45.8512190" lon="9.3195690">
	<ele>1189.60</ele>
	<time>2024-03-25T10:00:45.000Z</time>
</trkpt>
<trkpt lat="45.8512160" lon="9.3195690">
	<ele>1189.60</ele>
	<time>2024-03-25T10:00:46.000Z</time>
</trkpt>
<trkpt lat="45.8512160" lon="9.3195690">
	<ele>1189.60</ele>
	<time>2024-03-25T10:00:47.000Z</time>
</trkpt>
<trkpt lat="45.8512160" lon="9.3195690">
	<ele>1189.60</ele>
	<time>2024-03-25T10:00:48.000Z</time>
</trkpt>
<trkpt lat="45.8512140" lon="9.3195690">
	<ele>1190.00</ele>
	<time>2024-03-25T10:00:49.000Z</time>
</trkpt>
<trkpt lat="45.8512140" lon="9.3195690">
	<ele>1190.00</ele>
	<time>2024-03-25T10:00:50.000Z</time>
</trkpt>
<trkpt lat="45.8512130" lon="9.3195690">
	<ele>1190.20</ele>
	<time>2024-03-25T10:00:51.000Z</time>
</trkpt>
<trkpt lat="45.8512130" lon="9.3195690">
	<ele>1190.40</ele>
	<time>2024-03-25T10:00:52.000Z</time>
</trkpt>
<trkpt lat="45.8512120" lon="9.3195690">
	<ele>1190.60</ele>
	<time>2024-03-25T10:00:53.000Z</time>
</trkpt>
<trkpt lat="45.8512110" lon="9.3195690">
	<ele>1190.60</ele>
	<time>2024-03-25T10:00:54.000Z</time>
</trkpt>
<trkpt lat="45.8512090" lon="9.3195690">
	<ele>1190.60</ele>
	<time>2024-03-25T10:00:55.000Z</time>
</trkpt>
<trkpt lat="45.8512080" lon="9.3195690">
	<ele>1190.60</ele>
	<time>2024-03-25T10:00:56.000Z</time>
</trkpt>
<trkpt lat="45.8512080" lon="9.3195680">
	<ele>1190.80</ele>
	<time>2024-03-25T10:00:57.000Z</time>
</trkpt>
<trkpt lat="45.8512060" lon="9.3195680">
	<ele>1190.80</ele>
	<time>2024-03-25T10:00:58.000Z</time>
</trkpt>
<trkpt lat="45.8512050" lon="9.3195670">
	<ele>1190.80</ele>
	<time>2024-03-25T10:00:59.000Z</time>
</trkpt>
<trkpt lat="45.8512060" lon="9.3195610">
	<ele>1190.80</ele>
	<time>2024-03-25T10:01:00.000Z</time>
</trkpt>
<trkpt lat="45.8512050" lon="9.3195530">
	<ele>1190.80</ele>
	<time>2024-03-25T10:01:01.000Z</time>
</trkpt>
<trkpt lat="45.8511980" lon="9.3195410">
	<ele>1190.80</ele>
	<time>2024-03-25T10:01:02.000Z</time>
</trkpt>
<trkpt lat="45.8511900" lon="9.3195280">
	<ele>1190.80</ele>
	<time>2024-03-25T10:01:03.000Z</time>
</trkpt>
<trkpt lat="45.8511810" lon="9.3195180">
	<ele>1191.00</ele>
	<time>2024-03-25T10:01:04.000Z</time>
</trkpt>
<trkpt lat="45.8511680" lon="9.3195120">
	<ele>1191.20</ele>
	<time>2024-03-25T10:01:05.000Z</time>
</trkpt>
<trkpt lat="45.8511560" lon="9.3195050">
	<ele>1191.40</ele>
	<time>2024-03-25T10:01:06.000Z</time>
</trkpt>
<trkpt lat="45.8511500" lon="9.3194980">
	<ele>1191.60</ele>
	<time>2024-03-25T10:01:07.000Z</time>
</trkpt>
<trkpt lat="45.8511400" lon="9.3194930">
	<ele>1191.80</ele>
	<time>2024-03-25T10:01:08.000Z</time>
</trkpt>
<trkpt lat="45.8511330" lon="9.3194880">
	<ele>1192.20</ele>
	<time>2024-03-25T10:01:09.000Z</time>
</trkpt>
<trkpt lat="45.8511250" lon="9.3194810">
	<ele>1192.40</ele>
	<time>2024-03-25T10:01:10.000Z</time>
</trkpt>
<trkpt lat="45.8511180" lon="9.3194780">
	<ele>1192.60</ele>
	<time>2024-03-25T10:01:11.000Z</time>
</trkpt>
<trkpt lat="45.8511140" lon="9.3194750">
	<ele>1192.60</ele>
	<time>2024-03-25T10:01:12.000Z</time>
</trkpt>
<trkpt lat="45.8511130" lon="9.3194720">
	<ele>1193.00</ele>
	<time>2024-03-25T10:01:13.000Z</time>
</trkpt>
<trkpt lat="45.8511090" lon="9.3194670">
	<ele>1193.00</ele>
	<time>2024-03-25T10:01:14.000Z</time>
</trkpt>
<trkpt lat="45.8511030" lon="9.3194620">
	<ele>1193.20</ele>
	<time>2024-03-25T10:01:15.000Z</time>
</trkpt>
<trkpt lat="45.8510950" lon="9.3194590">
	<ele>1193.40</ele>
	<time>2024-03-25T10:01:16.000Z</time>
</trkpt>
<trkpt lat="45.8510920" lon="9.3194580">
	<ele>1193.60</ele>
	<time>2024-03-25T10:01:17.000Z</time>
</trkpt>
<trkpt lat="45.8510860" lon="9.3194540">
	<ele>1193.80</ele>
	<time>2024-03-25T10:01:18.000Z</time>
</trkpt>
<trkpt lat="45.8510790" lon="9.3194480">
	<ele>1194.00</ele>
	<time>2024-03-25T10:01:19.000Z</time>
</trkpt>
<trkpt lat="45.8510690" lon="9.3194420">
	<ele>1194.00</ele>
	<time>2024-03-25T10:01:20.000Z</time>
</trkpt>
<trkpt lat="45.8510600" lon="9.3194350">
	<ele>1194.20</ele>
	<time>2024-03-25T10:01:21.000Z</time>
</trkpt>
<trkpt lat="45.8510530" lon="9.3194310">
	<ele>1194.20</ele>
	<time>2024-03-25T10:01:22.000Z</time>
</trkpt>
<trkpt lat="45.8510490" lon="9.3194270">
	<ele>1194.20</ele>
	<time>2024-03-25T10:01:23.000Z</time>
</trkpt>
<trkpt lat="45.8510500" lon="9.3194230">
	<ele>1194.40</ele>
	<time>2024-03-25T10:01:24.000Z</time>
</trkpt>
<trkpt lat="45.8510480" lon="9.3194140">
	<ele>1194.60</ele>
	<time>2024-03-25T10:01:25.000Z</time>
</trkpt>
<trkpt lat="45.8510450" lon="9.3194060">
	<ele>1194.60</ele>
	<time>2024-03-25T10:01:26.000Z</time>
</trkpt>
<trkpt lat="45.8510420" lon="9.3193960">
	<ele>1194.80</ele>
	<time>2024-03-25T10:01:27.000Z</time>
</trkpt>
<trkpt lat="45.8510360" lon="9.3193890">
	<ele>1194.80</ele>
	<time>2024-03-25T10:01:28.000Z</time>
</trkpt>
<trkpt lat="45.8510300" lon="9.3193790">
	<ele>1195.00</ele>
	<time>2024-03-25T10:01:29.000Z</time>
</trkpt>
<trkpt lat="45.8510230" lon="9.3193720">
	<ele>1195.00</ele>
	<time>2024-03-25T10:01:30.000Z</time>
</trkpt>
<trkpt lat="45.8510160" lon="9.3193680">
	<ele>1195.20</ele>
	<time>2024-03-25T10:01:31.000Z</time>
</trkpt>
<trkpt lat="45.8510120" lon="9.3193630">
	<ele>1195.20</ele>
	<time>2024-03-25T10:01:32.000Z</time>
</trkpt>
<trkpt lat="45.8510090" lon="9.3193600">
	<ele>1195.20</ele>
	<time>2024-03-25T10:01:33.000Z</time>
</trkpt>
<trkpt lat="45.8510110" lon="9.3193530">
	<ele>1195.40</ele>
	<time>2024-03-25T10:01:34.000Z</time>
</trkpt>
<trkpt lat="45.8510100" lon="9.3193470">
	<ele>1195.60</ele>
	<time>2024-03-25T10:01:35.000Z</time>
</trkpt>
<trkpt lat="45.8510030" lon="9.3193420">
	<ele>1196.00</ele>
	<time>2024-03-25T10:01:36.000Z</time>
</trkpt>
<trkpt lat="45.8509970" lon="9.3193360">
	<ele>1196.20</ele>
	<time>2024-03-25T10:01:37.000Z</time>
</trkpt>
<trkpt lat="45.8509930" lon="9.3193270">
	<ele>1196.20</ele>
	<time>2024-03-25T10:01:38.000Z</time>
</trkpt>
<trkpt lat="45.8509890" lon="9.3193200">
	<ele>1196.40</ele>
	<time>2024-03-25T10:01:39.000Z</time>
</trkpt>
<trkpt lat="45.8509870" lon="9.3193090">
	<ele>1196.60</ele>
	<time>2024-03-25T10:01:40.000Z</time>
</trkpt>
<trkpt lat="45.8509900" lon="9.3192960">
	<ele>1196.60</ele>
	<time>2024-03-25T10:01:41.000Z</time>
</trkpt>
<trkpt lat="45.8509860" lon="9.3192830">
	<ele>1196.80</ele>
	<time>2024-03-25T10:01:42.000Z</time>
</trkpt>
<trkpt lat="45.8509790" lon="9.3192730">
	<ele>1196.80</ele>
	<time>2024-03-25T10:01:43.000Z</time>
</trkpt>
<trkpt lat="45.8509710" lon="9.3192620">
	<ele>1197.00</ele>
	<time>2024-03-25T10:01:44.000Z</time>
</trkpt>
<trkpt lat="45.8509610" lon="9.3192470">
	<ele>1197.00</ele>
	<time>2024-03-25T10:01:45.000Z</time>
</trkpt>
<trkpt lat="45.8509550" lon="9.3192350">
	<ele>1197.20</ele>
	<time>2024-03-25T10:01:46.000Z</time>
</trkpt>
<trkpt lat="45.8509520" lon="9.3192240">
	<ele>1197.40</ele>
	<time>2024-03-25T10:01:47.000Z</time>
</trkpt>
<trkpt lat="45.8509460" lon="9.3192120">
	<ele>1197.60</ele>
	<time>2024-03-25T10:01:48.000Z</time>
</trkpt>
<trkpt lat="45.8509380" lon="9.3192050">
	<ele>1197.80</ele>
	<time>2024-03-25T10:01:49.000Z</time>
</trkpt>
<trkpt lat="45.8509300" lon="9.3191980">
	<ele>1198.00</ele>
	<time>2024-03-25T10:01:50.000Z</time>
</trkpt>
<trkpt lat="45.8509250" lon="9.3191900">
	<ele>1198.00</ele>
	<time>2024-03-25T10:01:51.000Z</time>
</trkpt>
<trkpt lat="45.8509220" lon="9.3191840">
	<ele>1198.00</ele>
	<time>2024-03-25T10:01:52.000Z</time>
</trkpt>
<trkpt lat="45.8509180" lon="9.3191740">
	<ele>1198.20</ele>
	<time>2024-03-25T10:01:53.000Z</time>
</trkpt>
<trkpt lat="45.8509150" lon="9.3191680">
	<ele>1198.20</ele>
	<time>2024-03-25T10:01:54.000Z</time>
</trkpt>
<trkpt lat="45.8509080" lon="9.3191630">
	<ele>1198.40</ele>
	<time>2024-03-25T10:01:55.000Z</time>
</trkpt>
<trkpt lat="45.8509030" lon="9.3191570">
	<ele>1198.40</ele>
	<time>2024-03-25T10:01:56.000Z</time>
</trkpt>
<trkpt lat="45.8508990" lon="9.3191500">
	<ele>1198.60</ele>
	<time>2024-03-25T10:01:57.000Z</time>
</trkpt>
<trkpt lat="45.8508940" lon="9.3191440">
	<ele>1198.60</ele>
	<time>2024-03-25T10:01:58.000Z</time>
</trkpt>
<trkpt lat="45.8508850" lon="9.3191390">
	<ele>1198.80</ele>
	<time>2024-03-25T10:01:59.000Z</time>
</trkpt>
<trkpt lat="45.8508800" lon="9.3191350">
	<ele>1199.00</ele>
	<time>2024-03-25T10:02:00.000Z</time>
</trkpt>
<trkpt lat="45.8508740" lon="9.3191320">
	<ele>1199.20</ele>
	<time>2024-03-25T10:02:01.000Z</time>
</trkpt>
<trkpt lat="45.8508680" lon="9.3191260">
	<ele>1199.40</ele>
	<time>2024-03-25T10:02:02.000Z</time>
</trkpt>
<trkpt lat="45.8508640" lon="9.3191180">
	<ele>1199.60</ele>
	<time>2024-03-25T10:02:03.000Z</time>
</trkpt>
<trkpt lat="45.8508630" lon="9.3191080">
	<ele>1199.80</ele>
	<time>2024-03-25T10:02:04.000Z</time>
</trkpt>
<trkpt lat="45.8508590" lon="9.3191020">
	<ele>1200.00</ele>
	<time>2024-03-25T10:02:05.000Z</time>
</trkpt>
<trkpt lat="45.8508510" lon="9.3191000">
	<ele>1200.00</ele>
	<time>2024-03-25T10:02:06.000Z</time>
</trkpt>
<trkpt lat="45.8508460" lon="9.3190970">
	<ele>1200.20</ele>
	<time>2024-03-25T10:02:07.000Z</time>
</trkpt>
<trkpt lat="45.8508410" lon="9.3190910">
	<ele>1200.40</ele>
	<time>2024-03-25T10:02:08.000Z</time>
</trkpt>
<trkpt lat="45.8508370" lon="9.3190830">
	<ele>1200.60</ele>
	<time>2024-03-25T10:02:09.000Z</time>
</trkpt>
<trkpt lat="45.8508300" lon="9.3190720">
	<ele>1200.80</ele>
	<time>2024-03-25T10:02:10.000Z</time>
</trkpt>
<trkpt lat="45.8508250" lon="9.3190620">
	<ele>1201.00</ele>
	<time>2024-03-25T10:02:11.000Z</time>
</trkpt>
<trkpt lat="45.8508210" lon="9.3190510">
	<ele>1201.20</ele>
	<time>2024-03-25T10:02:12.000Z</time>
</trkpt>
<trkpt lat="45.8508150" lon="9.3190440">
	<ele>1201.20</ele>
	<time>2024-03-25T10:02:13.000Z</time>
</trkpt>
<trkpt lat="45.8508080" lon="9.3190350">
	<ele>1201.60</ele>
	<time>2024-03-25T10:02:14.000Z</time>
</trkpt>
<trkpt lat="45.8507990" lon="9.3190260">
	<ele>1201.80</ele>
	<time>2024-03-25T10:02:15.000Z</time>
</trkpt>
<trkpt lat="45.8507930" lon="9.3190200">
	<ele>1202.00</ele>
	<time>2024-03-25T10:02:16.000Z</time>
</trkpt>
<trkpt lat="45.8507890" lon="9.3190150">
	<ele>1202.20</ele>
	<time>2024-03-25T10:02:17.000Z</time>
</trkpt>
<trkpt lat="45.8507790" lon="9.3190080">
	<ele>1202.40</ele>
	<time>2024-03-25T10:02:18.000Z</time>
</trkpt>
<trkpt lat="45.8507730" lon="9.3190030">
	<ele>1202.80</ele>
	<time>2024-03-25T10:02:19.000Z</time>
</trkpt>
<trkpt lat="45.8507700" lon="9.3190010">
	<ele>1202.80</ele>
	<time>2024-03-25T10:02:20.000Z</time>
</trkpt>
<trkpt lat="45.8507650" lon="9.3190010">
	<ele>1203.00</ele>
	<time>2024-03-25T10:02:21.000Z</time>
</trkpt>
<trkpt lat="45.8507630" lon="9.3190030">
	<ele>1203.20</ele>
	<time>2024-03-25T10:02:22.000Z</time>
</trkpt>
<trkpt lat="45.8507600" lon="9.3190060">
	<ele>1203.20</ele>
	<time>2024-03-25T10:02:23.000Z</time>
</trkpt>
<trkpt lat="45.8507550" lon="9.3190090">
	<ele>1203.20</ele>
	<time>2024-03-25T10:02:24.000Z</time>
</trkpt>
<trkpt lat="45.8507510" lon="9.3190100">
	<ele>1203.20</ele>
	<time>2024-03-25T10:02:25.000Z</time>
</trkpt>
<trkpt lat="45.8507530" lon="9.3190110">
	<ele>1203.20</ele>
	<time>2024-03-25T10:02:26.000Z</time>
</trkpt>
<trkpt lat="45.8507550" lon="9.3190110">
	<ele>1203.20</ele>
	<time>2024-03-25T10:02:27.000Z</time>
</trkpt>
<trkpt lat="45.8507560" lon="9.3190110">
	<ele>1203.20</ele>
	<time>2024-03-25T10:02:28.000Z</time>
</trkpt>
<trkpt lat="45.8507590" lon="9.3190100">
	<ele>1203.40</ele>
	<time>2024-03-25T10:02:29.000Z</time>
</trkpt>
<trkpt lat="45.8507640" lon="9.3190090">
	<ele>1203.60</ele>
	<time>2024-03-25T10:02:30.000Z</time>
</trkpt>
<trkpt lat="45.8507670" lon="9.3190090">
	<ele>1203.80</ele>
	<time>2024-03-25T10:02:31.000Z</time>
</trkpt>
<trkpt lat="45.8507690" lon="9.3190090">
	<ele>1203.80</ele>
	<time>2024-03-25T10:02:32.000Z</time>
</trkpt>
<trkpt lat="45.8507670" lon="9.3190090">
	<ele>1203.80</ele>
	<time>2024-03-25T10:02:33.000Z</time>
</trkpt>
<trkpt lat="45.8507660" lon="9.3190100">
	<ele>1203.80</ele>
	<time>2024-03-25T10:02:34.000Z</time>
</trkpt>
<trkpt lat="45.8507650" lon="9.3190110">
	<ele>1203.60</ele>
	<time>2024-03-25T10:02:35.000Z</time>
</trkpt>
<trkpt lat="45.8507650" lon="9.3190110">
	<ele>1203.60</ele>
	<time>2024-03-25T10:02:36.000Z</time>
</trkpt>
<trkpt lat="45.8507650" lon="9.3190110">
	<ele>1203.40</ele>
	<time>2024-03-25T10:02:37.000Z</time>
</trkpt>
<trkpt lat="45.8507650" lon="9.3190110">
	<ele>1203.40</ele>
	<time>2024-03-25T10:02:38.000Z</time>
</trkpt>
<trkpt lat="45.8507650" lon="9.3190110">
	<ele>1203.40</ele>
	<time>2024-03-25T10:02:39.000Z</time>
</trkpt>
<trkpt lat="45.8507650" lon="9.3190110">
	<ele>1203.40</ele>
	<time>2024-03-25T10:02:40.000Z</time>
</trkpt>
<trkpt lat="45.8507650" lon="9.3190110">
	<ele>1203.40</ele>
	<time>2024-03-25T10:02:41.000Z</time>
</trkpt>
<trkpt lat="45.8507650" lon="9.3190110">
	<ele>1203.40</ele>
	<time>2024-03-25T10:02:42.000Z</time>
</trkpt>
<trkpt lat="45.8507650" lon="9.3190110">
	<ele>1203.40</ele>
	<time>2024-03-25T10:02:43.000Z</time>
</trkpt>
<trkpt lat="45.8507650" lon="9.3190110">
	<ele>1203.40</ele>
	<time>2024-03-25T10:02:44.000Z</time>
</trkpt>
<trkpt lat="45.8507650" lon="9.3190110">
	<ele>1203.40</ele>
	<time>2024-03-25T10:02:45.000Z</time>
</trkpt>
<trkpt lat="45.8507650" lon="9.3190110">
	<ele>1203.40</ele>
	<time>2024-03-25T10:02:46.000Z</time>
</trkpt>
<trkpt lat="45.8507640" lon="9.3190110">
	<ele>1203.40</ele>
	<time>2024-03-25T10:02:47.000Z</time>
</trkpt>
<trkpt lat="45.8507630" lon="9.3190110">
	<ele>1203.40</ele>
	<time>2024-03-25T10:02:48.000Z</time>
</trkpt>
<trkpt lat="45.8507610" lon="9.3190110">
	<ele>1203.40</ele>
	<time>2024-03-25T10:02:49.000Z</time>
</trkpt>
<trkpt lat="45.8507610" lon="9.3190110">
	<ele>1203.40</ele>
	<time>2024-03-25T10:02:50.000Z</time>
</trkpt>
<trkpt lat="45.8507610" lon="9.3190110">
	<ele>1203.40</ele>
	<time>2024-03-25T10:02:51.000Z</time>
</trkpt>
<trkpt lat="45.8507600" lon="9.3190110">
	<ele>1203.40</ele>
	<time>2024-03-25T10:02:52.000Z</time>
</trkpt>
<trkpt lat="45.8507590" lon="9.3190110">
	<ele>1203.40</ele>
	<time>2024-03-25T10:02:53.000Z</time>
</trkpt>
<trkpt lat="45.8507590" lon="9.3190110">
	<ele>1203.40</ele>
	<time>2024-03-25T10:02:54.000Z</time>
</trkpt>
<trkpt lat="45.8507580" lon="9.3190110">
	<ele>1203.20</ele>
	<time>2024-03-25T10:02:55.000Z</time>
</trkpt>
<trkpt lat="45.8507580" lon="9.3190110">
	<ele>1203.20</ele>
	<time>2024-03-25T10:02:56.000Z</time>
</trkpt>
<trkpt lat="45.8507580" lon="9.3190110">
	<ele>1203.20</ele>
	<time>2024-03-25T10:02:57.000Z</time>
</trkpt>
<trkpt lat="45.8507580" lon="9.3190110">
	<ele>1203.20</ele>
	<time>2024-03-25T10:02:58.000Z</time>
</trkpt>
<trkpt lat="45.8507580" lon="9.3190110">
	<ele>1203.20</ele>
	<time>2024-03-25T10:02:59.000Z</time>
</trkpt>
<trkpt lat="45.8507570" lon="9.3190110">
	<ele>1203.20</ele>
	<time>2024-03-25T10:03:00.000Z</time>
</trkpt>
<trkpt lat="45.8507570" lon="9.3190120">
	<ele>1203.20</ele>
	<time>2024-03-25T10:03:01.000Z</time>
</trkpt>
<trkpt lat="45.8507560" lon="9.3190120">
	<ele>1203.20</ele>
	<time>2024-03-25T10:03:02.000Z</time>
</trkpt>
<trkpt lat="45.8507560" lon="9.3190120">
	<ele>1203.20</ele>
	<time>2024-03-25T10:03:03.000Z</time>
</trkpt>
<trkpt lat="45.8507560" lon="9.3190120">
	<ele>1203.20</ele>
	<time>2024-03-25T10:03:04.000Z</time>
</trkpt>
<trkpt lat="45.8507550" lon="9.3190120">
	<ele>1203.00</ele>
	<time>2024-03-25T10:03:05.000Z</time>
</trkpt>
<trkpt lat="45.8507540" lon="9.3190130">
	<ele>1203.00</ele>
	<time>2024-03-25T10:03:06.000Z</time>
</trkpt>
<trkpt lat="45.8507530" lon="9.3190130">
	<ele>1203.00</ele>
	<time>2024-03-25T10:03:07.000Z</time>
</trkpt>
<trkpt lat="45.8507510" lon="9.3190130">
	<ele>1203.00</ele>
	<time>2024-03-25T10:03:08.000Z</time>
</trkpt>
<trkpt lat="45.8507510" lon="9.3190130">
	<ele>1203.20</ele>
	<time>2024-03-25T10:03:09.000Z</time>
</trkpt>
<trkpt lat="45.8507510" lon="9.3190130">
	<ele>1203.20</ele>
	<time>2024-03-25T10:03:10.000Z</time>
</trkpt>
<trkpt lat="45.8507510" lon="9.3190180">
	<ele>1203.60</ele>
	<time>2024-03-25T10:03:11.000Z</time>
</trkpt>
<trkpt lat="45.8507530" lon="9.3190350">
	<ele>1203.80</ele>
	<time>2024-03-25T10:03:12.000Z</time>
</trkpt>
<trkpt lat="45.8507560" lon="9.3190510">
	<ele>1204.00</ele>
	<time>2024-03-25T10:03:13.000Z</time>
</trkpt>
<trkpt lat="45.8507600" lon="9.3190660">
	<ele>1204.20</ele>
	<time>2024-03-25T10:03:14.000Z</time>
</trkpt>
<trkpt lat="45.8507630" lon="9.3190800">
	<ele>1204.40</ele>
	<time>2024-03-25T10:03:15.000Z</time>
</trkpt>
<trkpt lat="45.8507670" lon="9.3190950">
	<ele>1204.60</ele>
	<time>2024-03-25T10:03:16.000Z</time>
</trkpt>
<trkpt lat="45.8507720" lon="9.3191130">
	<ele>1204.80</ele>
	<time>2024-03-25T10:03:17.000Z</time>
</trkpt>
<trkpt lat="45.8507730" lon="9.3191260">
	<ele>1205.00</ele>
	<time>2024-03-25T10:03:18.000Z</time>
</trkpt>
<trkpt lat="45.8507750" lon="9.3191410">
	<ele>1205.20</ele>
	<time>2024-03-25T10:03:19.000Z</time>
</trkpt>
<trkpt lat="45.8507730" lon="9.3191580">
	<ele>1205.40</ele>
	<time>2024-03-25T10:03:20.000Z</time>
</trkpt>
<trkpt lat="45.8507730" lon="9.3191700">
	<ele>1205.60</ele>
	<time>2024-03-25T10:03:21.000Z</time>
</trkpt>
<trkpt lat="45.8507740" lon="9.3191820">
	<ele>1205.80</ele>
	<time>2024-03-25T10:03:22.000Z</time>
</trkpt>
<trkpt lat="45.8507770" lon="9.3191900">
	<ele>1206.00</ele>
	<time>2024-03-25T10:03:23.000Z</time>
</trkpt>
<trkpt lat="45.8507790" lon="9.3192030">
	<ele>1206.20</ele>
	<time>2024-03-25T10:03:24.000Z</time>
</trkpt>
<trkpt lat="45.8507780" lon="9.3192170">
	<ele>1206.40</ele>
	<time>2024-03-25T10:03:25.000Z</time>
</trkpt>
<trkpt lat="45.8507780" lon="9.3192270">
	<ele>1206.40</ele>
	<time>2024-03-25T10:03:26.000Z</time>
</trkpt>
<trkpt lat="45.8507790" lon="9.3192360">
	<ele>1206.60</ele>
	<time>2024-03-25T10:03:27.000Z</time>
</trkpt>
<trkpt lat="45.8507780" lon="9.3192460">
	<ele>1207.00</ele>
	<time>2024-03-25T10:03:28.000Z</time>
</trkpt>
<trkpt lat="45.8507790" lon="9.3192550">
	<ele>1207.20</ele>
	<time>2024-03-25T10:03:29.000Z</time>
</trkpt>
<trkpt lat="45.8507810" lon="9.3192630">
	<ele>1207.40</ele>
	<time>2024-03-25T10:03:30.000Z</time>
</trkpt>
<trkpt lat="45.8507810" lon="9.3192730">
	<ele>1207.60</ele>
	<time>2024-03-25T10:03:31.000Z</time>
</trkpt>
<trkpt lat="45.8507800" lon="9.3192850">
	<ele>1207.60</ele>
	<time>2024-03-25T10:03:32.000Z</time>
</trkpt>
<trkpt lat="45.8507750" lon="9.3192980">
	<ele>1207.80</ele>
	<time>2024-03-25T10:03:33.000Z</time>
</trkpt>
<trkpt lat="45.8507750" lon="9.3193070">
	<ele>1208.20</ele>
	<time>2024-03-25T10:03:34.000Z</time>
</trkpt>
<trkpt lat="45.8507750" lon="9.3193160">
	<ele>1208.60</ele>
	<time>2024-03-25T10:03:35.000Z</time>
</trkpt>
<trkpt lat="45.8507740" lon="9.3193270">
	<ele>1208.80</ele>
	<time>2024-03-25T10:03:36.000Z</time>
</trkpt>
<trkpt lat="45.8507760" lon="9.3193380">
	<ele>1209.00</ele>
	<time>2024-03-25T10:03:37.000Z</time>
</trkpt>
<trkpt lat="45.8507790" lon="9.3193500">
	<ele>1209.00</ele>
	<time>2024-03-25T10:03:38.000Z</time>
</trkpt>
<trkpt lat="45.8507820" lon="9.3193620">
	<ele>1209.20</ele>
	<time>2024-03-25T10:03:39.000Z</time>
</trkpt>
<trkpt lat="45.8507830" lon="9.3193730">
	<ele>1209.20</ele>
	<time>2024-03-25T10:03:40.000Z</time>
</trkpt>
<trkpt lat="45.8507810" lon="9.3193830">
	<ele>1209.20</ele>
	<time>2024-03-25T10:03:41.000Z</time>
</trkpt>
<trkpt lat="45.8507800" lon="9.3193960">
	<ele>1209.40</ele>
	<time>2024-03-25T10:03:42.000Z</time>
</trkpt>
<trkpt lat="45.8507810" lon="9.3194060">
	<ele>1209.40</ele>
	<time>2024-03-25T10:03:43.000Z</time>
</trkpt>
<trkpt lat="45.8507840" lon="9.3194110">
	<ele>1209.40</ele>
	<time>2024-03-25T10:03:44.000Z</time>
</trkpt>
<trkpt lat="45.8507870" lon="9.3194200">
	<ele>1209.60</ele>
	<time>2024-03-25T10:03:45.000Z</time>
</trkpt>
<trkpt lat="45.8507910" lon="9.3194300">
	<ele>1209.60</ele>
	<time>2024-03-25T10:03:46.000Z</time>
</trkpt>
<trkpt lat="45.8507920" lon="9.3194380">
	<ele>1209.60</ele>
	<time>2024-03-25T10:03:47.000Z</time>
</trkpt>
<trkpt lat="45.8507940" lon="9.3194450">
	<ele>1209.80</ele>
	<time>2024-03-25T10:03:48.000Z</time>
</trkpt>
<trkpt lat="45.8507930" lon="9.3194550">
	<ele>1210.00</ele>
	<time>2024-03-25T10:03:49.000Z</time>
</trkpt>
<trkpt lat="45.8507900" lon="9.3194650">
	<ele>1210.20</ele>
	<time>2024-03-25T10:03:50.000Z</time>
</trkpt>
<trkpt lat="45.8507910" lon="9.3194740">
	<ele>1210.60</ele>
	<time>2024-03-25T10:03:51.000Z</time>
</trkpt>
<trkpt lat="45.8507930" lon="9.3194860">
	<ele>1210.80</ele>
	<time>2024-03-25T10:03:52.000Z</time>
</trkpt>
<trkpt lat="45.8507950" lon="9.3194960">
	<ele>1210.80</ele>
	<time>2024-03-25T10:03:53.000Z</time>
</trkpt>
<trkpt lat="45.8507980" lon="9.3195040">
	<ele>1211.00</ele>
	<time>2024-03-25T10:03:54.000Z</time>
</trkpt>
<trkpt lat="45.8508000" lon="9.3195130">
	<ele>1211.00</ele>
	<time>2024-03-25T10:03:55.000Z</time>
</trkpt>
<trkpt lat="45.8508010" lon="9.3195240">
	<ele>1211.20</ele>
	<time>2024-03-25T10:03:56.000Z</time>
</trkpt>
<trkpt lat="45.8508030" lon="9.3195330">
	<ele>1211.40</ele>
	<time>2024-03-25T10:03:57.000Z</time>
</trkpt>
<trkpt lat="45.8508030" lon="9.3195440">
	<ele>1211.60</ele>
	<time>2024-03-25T10:03:58.000Z</time>
</trkpt>
<trkpt lat="45.8507990" lon="9.3195570">
	<ele>1211.60</ele>
	<time>2024-03-25T10:03:59.000Z</time>
</trkpt>
<trkpt lat="45.8507950" lon="9.3195690">
	<ele>1211.80</ele>
	<time>2024-03-25T10:04:00.000Z</time>
</trkpt>
<trkpt lat="45.8507940" lon="9.3195780">
	<ele>1212.00</ele>
	<time>2024-03-25T10:04:01.000Z</time>
</trkpt>
<trkpt lat="45.8507900" lon="9.3195850">
	<ele>1212.20</ele>
	<time>2024-03-25T10:04:02.000Z</time>
</trkpt>
<trkpt lat="45.8507880" lon="9.3195900">
	<ele>1212.20</ele>
	<time>2024-03-25T10:04:03.000Z</time>
</trkpt>
<trkpt lat="45.8507850" lon="9.3195950">
	<ele>1212.40</ele>
	<time>2024-03-25T10:04:04.000Z</time>
</trkpt>
<trkpt lat="45.8507820" lon="9.3196020">
	<ele>1212.60</ele>
	<time>2024-03-25T10:04:05.000Z</time>
</trkpt>
<trkpt lat="45.8507800" lon="9.3196090">
	<ele>1212.80</ele>
	<time>2024-03-25T10:04:06.000Z</time>
</trkpt>
<trkpt lat="45.8507790" lon="9.3196150">
	<ele>1213.00</ele>
	<time>2024-03-25T10:04:07.000Z</time>
</trkpt>
<trkpt lat="45.8507780" lon="9.3196220">
	<ele>1213.20</ele>
	<time>2024-03-25T10:04:08.000Z</time>
</trkpt>
<trkpt lat="45.8507770" lon="9.3196280">
	<ele>1213.40</ele>
	<time>2024-03-25T10:04:09.000Z</time>
</trkpt>
<trkpt lat="45.8507720" lon="9.3196330">
	<ele>1213.40</ele>
	<time>2024-03-25T10:04:10.000Z</time>
</trkpt>
<trkpt lat="45.8507670" lon="9.3196420">
	<ele>1213.60</ele>
	<time>2024-03-25T10:04:11.000Z</time>
</trkpt>
<trkpt lat="45.8507630" lon="9.3196490">
	<ele>1213.80</ele>
	<time>2024-03-25T10:04:12.000Z</time>
</trkpt>
<trkpt lat="45.8507600" lon="9.3196560">
	<ele>1213.80</ele>
	<time>2024-03-25T10:04:13.000Z</time>
</trkpt>
<trkpt lat="45.8507620" lon="9.3196630">
	<ele>1213.80</ele>
	<time>2024-03-25T10:04:14.000Z</time>
</trkpt>
<trkpt lat="45.8507620" lon="9.3196720">
	<ele>1213.80</ele>
	<time>2024-03-25T10:04:15.000Z</time>
</trkpt>
<trkpt lat="45.8507610" lon="9.3196780">
	<ele>1213.80</ele>
	<time>2024-03-25T10:04:16.000Z</time>
</trkpt>
<trkpt lat="45.8507610" lon="9.3196840">
	<ele>1213.60</ele>
	<time>2024-03-25T10:04:17.000Z</time>
</trkpt>
<trkpt lat="45.8507600" lon="9.3196900">
	<ele>1213.60</ele>
	<time>2024-03-25T10:04:18.000Z</time>
</trkpt>
<trkpt lat="45.8507590" lon="9.3196940">
	<ele>1213.40</ele>
	<time>2024-03-25T10:04:19.000Z</time>
</trkpt>
<trkpt lat="45.8507580" lon="9.3196990">
	<ele>1213.00</ele>
	<time>2024-03-25T10:04:20.000Z</time>
</trkpt>
<trkpt lat="45.8507590" lon="9.3197090">
	<ele>1212.80</ele>
	<time>2024-03-25T10:04:21.000Z</time>
</trkpt>
<trkpt lat="45.8507600" lon="9.3197150">
	<ele>1212.60</ele>
	<time>2024-03-25T10:04:22.000Z</time>
</trkpt>
<trkpt lat="45.8507630" lon="9.3197190">
	<ele>1212.40</ele>
	<time>2024-03-25T10:04:23.000Z</time>
</trkpt>
<trkpt lat="45.8507650" lon="9.3197280">
	<ele>1212.20</ele>
	<time>2024-03-25T10:04:24.000Z</time>
</trkpt>
<trkpt lat="45.8507640" lon="9.3197410">
	<ele>1212.00</ele>
	<time>2024-03-25T10:04:25.000Z</time>
</trkpt>
<trkpt lat="45.8507630" lon="9.3197500">
	<ele>1211.80</ele>
	<time>2024-03-25T10:04:26.000Z</time>
</trkpt>
<trkpt lat="45.8507600" lon="9.3197580">
	<ele>1211.80</ele>
	<time>2024-03-25T10:04:27.000Z</time>
</trkpt>
<trkpt lat="45.8507550" lon="9.3197630">
	<ele>1211.40</ele>
	<time>2024-03-25T10:04:28.000Z</time>
</trkpt>
<trkpt lat="45.8507530" lon="9.3197720">
	<ele>1211.40</ele>
	<time>2024-03-25T10:04:29.000Z</time>
</trkpt>
<trkpt lat="45.8507540" lon="9.3197760">
	<ele>1211.00</ele>
	<time>2024-03-25T10:04:30.000Z</time>
</trkpt>
<trkpt lat="45.8507580" lon="9.3197830">
	<ele>1210.80</ele>
	<time>2024-03-25T10:04:31.000Z</time>
</trkpt>
<trkpt lat="45.8507560" lon="9.3197920">
	<ele>1210.60</ele>
	<time>2024-03-25T10:04:32.000Z</time>
</trkpt>
<trkpt lat="45.8507580" lon="9.3197970">
	<ele>1210.40</ele>
	<time>2024-03-25T10:04:33.000Z</time>
</trkpt>
<trkpt lat="45.8507620" lon="9.3198020">
	<ele>1210.00</ele>
	<time>2024-03-25T10:04:34.000Z</time>
</trkpt>
<trkpt lat="45.8507680" lon="9.3198120">
	<ele>1209.60</ele>
	<time>2024-03-25T10:04:35.000Z</time>
</trkpt>
<trkpt lat="45.8507680" lon="9.3198220">
	<ele>1209.60</ele>
	<time>2024-03-25T10:04:36.000Z</time>
</trkpt>
<trkpt lat="45.8507650" lon="9.3198390">
	<ele>1209.40</ele>
	<time>2024-03-25T10:04:37.000Z</time>
</trkpt>
<trkpt lat="45.8507600" lon="9.3198590">
	<ele>1209.20</ele>
	<time>2024-03-25T10:04:38.000Z</time>
</trkpt>
<trkpt lat="45.8507550" lon="9.3198780">
	<ele>1209.00</ele>
	<time>2024-03-25T10:04:39.000Z</time>
</trkpt>
<trkpt lat="45.8507560" lon="9.3198960">
	<ele>1209.00</ele>
	<time>2024-03-25T10:04:40.000Z</time>
</trkpt>
<trkpt lat="45.8507570" lon="9.3199100">
	<ele>1209.00</ele>
	<time>2024-03-25T10:04:41.000Z</time>
</trkpt>
<trkpt lat="45.8507570" lon="9.3199250">
	<ele>1209.00</ele>
	<time>2024-03-25T10:04:42.000Z</time>
</trkpt>
<trkpt lat="45.8507560" lon="9.3199380">
	<ele>1208.80</ele>
	<time>2024-03-25T10:04:43.000Z</time>
</trkpt>
<trkpt lat="45.8507510" lon="9.3199490">
	<ele>1208.80</ele>
	<time>2024-03-25T10:04:44.000Z</time>
</trkpt>
<trkpt lat="45.8507500" lon="9.3199550">
	<ele>1208.80</ele>
	<time>2024-03-25T10:04:45.000Z</time>
</trkpt>
<trkpt lat="45.8507460" lon="9.3199590">
	<ele>1208.60</ele>
	<time>2024-03-25T10:04:46.000Z</time>
</trkpt>
<trkpt lat="45.8507380" lon="9.3199720">
	<ele>1208.60</ele>
	<time>2024-03-25T10:04:47.000Z</time>
</trkpt>
<trkpt lat="45.8507370" lon="9.3199810">
	<ele>1208.60</ele>
	<time>2024-03-25T10:04:48.000Z</time>
</trkpt>
<trkpt lat="45.8507380" lon="9.3199880">
	<ele>1208.40</ele>
	<time>2024-03-25T10:04:49.000Z</time>
</trkpt>
<trkpt lat="45.8507390" lon="9.3199920">
	<ele>1208.40</ele>
	<time>2024-03-25T10:04:50.000Z</time>
</trkpt>
<trkpt lat="45.8507360" lon="9.3200010">
	<ele>1208.40</ele>
	<time>2024-03-25T10:04:51.000Z</time>
</trkpt>
<trkpt lat="45.8507300" lon="9.3200130">
	<ele>1208.20</ele>
	<time>2024-03-25T10:04:52.000Z</time>
</trkpt>
<trkpt lat="45.8507310" lon="9.3200180">
	<ele>1208.20</ele>
	<time>2024-03-25T10:04:53.000Z</time>
</trkpt>
<trkpt lat="45.8507370" lon="9.3200210">
	<ele>1208.20</ele>
	<time>2024-03-25T10:04:54.000Z</time>
</trkpt>
<trkpt lat="45.8507400" lon="9.3200240">
	<ele>1208.20</ele>
	<time>2024-03-25T10:04:55.000Z</time>
</trkpt>
<trkpt lat="45.8507410" lon="9.3200260">
	<ele>1208.20</ele>
	<time>2024-03-25T10:04:56.000Z</time>
</trkpt>
<trkpt lat="45.8507400" lon="9.3200280">
	<ele>1208.00</ele>
	<time>2024-03-25T10:04:57.000Z</time>
</trkpt>
<trkpt lat="45.8507370" lon="9.3200310">
	<ele>1207.80</ele>
	<time>2024-03-25T10:04:58.000Z</time>
</trkpt>
<trkpt lat="45.8507360" lon="9.3200350">
	<ele>1207.60</ele>
	<time>2024-03-25T10:04:59.000Z</time>
</trkpt>
<trkpt lat="45.8507350" lon="9.3200380">
	<ele>1207.40</ele>
	<time>2024-03-25T10:05:00.000Z</time>
</trkpt>
<trkpt lat="45.8507350" lon="9.3200410">
	<ele>1207.40</ele>
	<time>2024-03-25T10:05:01.000Z</time>
</trkpt>
<trkpt lat="45.8507340" lon="9.3200450">
	<ele>1207.20</ele>
	<time>2024-03-25T10:05:02.000Z</time>
</trkpt>
<trkpt lat="45.8507310" lon="9.3200470">
	<ele>1207.20</ele>
	<time>2024-03-25T10:05:03.000Z</time>
</trkpt>
<trkpt lat="45.8507290" lon="9.3200490">
	<ele>1207.20</ele>
	<time>2024-03-25T10:05:04.000Z</time>
</trkpt>
<trkpt lat="45.8507250" lon="9.3200510">
	<ele>1207.00</ele>
	<time>2024-03-25T10:05:05.000Z</time>
</trkpt>
<trkpt lat="45.8507240" lon="9.3200520">
	<ele>1206.80</ele>
	<time>2024-03-25T10:05:06.000Z</time>
</trkpt>
<trkpt lat="45.8507250" lon="9.3200520">
	<ele>1206.60</ele>
	<time>2024-03-25T10:05:07.000Z</time>
</trkpt>
<trkpt lat="45.8507250" lon="9.3200520">
	<ele>1206.40</ele>
	<time>2024-03-25T10:05:08.000Z</time>
</trkpt>
<trkpt lat="45.8507250" lon="9.3200520">
	<ele>1206.20</ele>
	<time>2024-03-25T10:05:09.000Z</time>
</trkpt>
<trkpt lat="45.8507250" lon="9.3200520">
	<ele>1206.00</ele>
	<time>2024-03-25T10:05:10.000Z</time>
</trkpt>
<trkpt lat="45.8507250" lon="9.3200520">
	<ele>1206.00</ele>
	<time>2024-03-25T10:05:11.000Z</time>
</trkpt>
<trkpt lat="45.8507250" lon="9.3200520">
	<ele>1205.80</ele>
	<time>2024-03-25T10:05:12.000Z</time>
</trkpt>
<trkpt lat="45.8507250" lon="9.3200520">
	<ele>1205.80</ele>
	<time>2024-03-25T10:05:13.000Z</time>
</trkpt>
<trkpt lat="45.8507250" lon="9.3200520">
	<ele>1205.80</ele>
	<time>2024-03-25T10:05:14.000Z</time>
</trkpt>
<trkpt lat="45.8507250" lon="9.3200520">
	<ele>1205.80</ele>
	<time>2024-03-25T10:05:15.000Z</time>
</trkpt>
<trkpt lat="45.8507250" lon="9.3200510">
	<ele>1205.60</ele>
	<time>2024-03-25T10:05:16.000Z</time>
</trkpt>
<trkpt lat="45.8507250" lon="9.3200510">
	<ele>1205.60</ele>
	<time>2024-03-25T10:05:17.000Z</time>
</trkpt>
<trkpt lat="45.8507250" lon="9.3200500">
	<ele>1205.60</ele>
	<time>2024-03-25T10:05:18.000Z</time>
</trkpt>
<trkpt lat="45.8507250" lon="9.3200490">
	<ele>1205.60</ele>
	<time>2024-03-25T10:05:19.000Z</time>
</trkpt>
<trkpt lat="45.8507250" lon="9.3200490">
	<ele>1205.60</ele>
	<time>2024-03-25T10:05:20.000Z</time>
</trkpt>
<trkpt lat="45.8507250" lon="9.3200490">
	<ele>1205.60</ele>
	<time>2024-03-25T10:05:21.000Z</time>
</trkpt>
<trkpt lat="45.8507260" lon="9.3200490">
	<ele>1205.60</ele>
	<time>2024-03-25T10:05:22.000Z</time>
</trkpt>
<trkpt lat="45.8507260" lon="9.3200490">
	<ele>1205.60</ele>
	<time>2024-03-25T10:05:23.000Z</time>
</trkpt>
<trkpt lat="45.8507260" lon="9.3200490">
	<ele>1205.20</ele>
	<time>2024-03-25T10:05:24.000Z</time>
</trkpt>
<trkpt lat="45.8507260" lon="9.3200490">
	<ele>1205.20</ele>
	<time>2024-03-25T10:05:25.000Z</time>
</trkpt>
<trkpt lat="45.8507260" lon="9.3200490">
	<ele>1205.00</ele>
	<time>2024-03-25T10:05:26.000Z</time>
</trkpt>
<trkpt lat="45.8507260" lon="9.3200490">
	<ele>1204.80</ele>
	<time>2024-03-25T10:05:27.000Z</time>
</trkpt>
<trkpt lat="45.8507260" lon="9.3200490">
	<ele>1204.80</ele>
	<time>2024-03-25T10:05:28.000Z</time>
</trkpt>
<trkpt lat="45.8507260" lon="9.3200490">
	<ele>1204.80</ele>
	<time>2024-03-25T10:05:29.000Z</time>
</trkpt>
<trkpt lat="45.8507260" lon="9.3200510">
	<ele>1204.60</ele>
	<time>2024-03-25T10:05:30.000Z</time>
</trkpt>
<trkpt lat="45.8507260" lon="9.3200510">
	<ele>1204.60</ele>
	<time>2024-03-25T10:05:31.000Z</time>
</trkpt>
<trkpt lat="45.8507260" lon="9.3200520">
	<ele>1204.40</ele>
	<time>2024-03-25T10:05:32.000Z</time>
</trkpt>
<trkpt lat="45.8507250" lon="9.3200520">
	<ele>1204.40</ele>
	<time>2024-03-25T10:05:33.000Z</time>
</trkpt>
<trkpt lat="45.8507250" lon="9.3200520">
	<ele>1204.40</ele>
	<time>2024-03-25T10:05:34.000Z</time>
</trkpt>
<trkpt lat="45.8507250" lon="9.3200530">
	<ele>1204.20</ele>
	<time>2024-03-25T10:05:35.000Z</time>
</trkpt>
<trkpt lat="45.8507250" lon="9.3200560">
	<ele>1204.20</ele>
	<time>2024-03-25T10:05:36.000Z</time>
</trkpt>
<trkpt lat="45.8507250" lon="9.3200610">
	<ele>1204.20</ele>
	<time>2024-03-25T10:05:37.000Z</time>
</trkpt>
<trkpt lat="45.8507250" lon="9.3200650">
	<ele>1204.20</ele>
	<time>2024-03-25T10:05:38.000Z</time>
</trkpt>
<trkpt lat="45.8507250" lon="9.3200660">
	<ele>1204.20</ele>
	<time>2024-03-25T10:05:39.000Z</time>
</trkpt>
<trkpt lat="45.8507250" lon="9.3200680">
	<ele>1204.20</ele>
	<time>2024-03-25T10:05:40.000Z</time>
</trkpt>
<trkpt lat="45.8507230" lon="9.3200710">
	<ele>1204.20</ele>
	<time>2024-03-25T10:05:41.000Z</time>
</trkpt>
<trkpt lat="45.8507200" lon="9.3200720">
	<ele>1204.20</ele>
	<time>2024-03-25T10:05:42.000Z</time>
</trkpt>
<trkpt lat="45.8507190" lon="9.3200730">
	<ele>1204.40</ele>
	<time>2024-03-25T10:05:43.000Z</time>
</trkpt>
<trkpt lat="45.8507170" lon="9.3200740">
	<ele>1204.40</ele>
	<time>2024-03-25T10:05:44.000Z</time>
</trkpt>
<trkpt lat="45.8507150" lon="9.3200780">
	<ele>1204.40</ele>
	<time>2024-03-25T10:05:45.000Z</time>
</trkpt>
<trkpt lat="45.8507180" lon="9.3200770">
	<ele>1204.20</ele>
	<time>2024-03-25T10:05:46.000Z</time>
</trkpt>
<trkpt lat="45.8507290" lon="9.3200760">
	<ele>1204.20</ele>
	<time>2024-03-25T10:05:47.000Z</time>
</trkpt>
<trkpt lat="45.8507420" lon="9.3200710">
	<ele>1204.20</ele>
	<time>2024-03-25T10:05:48.000Z</time>
</trkpt>
<trkpt lat="45.8507510" lon="9.3200720">
	<ele>1204.20</ele>
	<time>2024-03-25T10:05:49.000Z</time>
</trkpt>
<trkpt lat="45.8507550" lon="9.3200750">
	<ele>1204.20</ele>
	<time>2024-03-25T10:05:50.000Z</time>
</trkpt>
<trkpt lat="45.8507520" lon="9.3200790">
	<ele>1204.40</ele>
	<time>2024-03-25T10:05:51.000Z</time>
</trkpt>
<trkpt lat="45.8507490" lon="9.3200870">
	<ele>1204.60</ele>
	<time>2024-03-25T10:05:52.000Z</time>
</trkpt>
<trkpt lat="45.8507500" lon="9.3200930">
	<ele>1204.80</ele>
	<time>2024-03-25T10:05:53.000Z</time>
</trkpt>
<trkpt lat="45.8507440" lon="9.3201040">
	<ele>1205.00</ele>
	<time>2024-03-25T10:05:54.000Z</time>
</trkpt>
<trkpt lat="45.8507450" lon="9.3201080">
	<ele>1205.00</ele>
	<time>2024-03-25T10:05:55.000Z</time>
</trkpt>
<trkpt lat="45.8507460" lon="9.3201090">
	<ele>1205.20</ele>
	<time>2024-03-25T10:05:56.000Z</time>
</trkpt>
<trkpt lat="45.8507460" lon="9.3201090">
	<ele>1205.20</ele>
	<time>2024-03-25T10:05:57.000Z</time>
</trkpt>
<trkpt lat="45.8507470" lon="9.3201110">
	<ele>1205.20</ele>
	<time>2024-03-25T10:05:58.000Z</time>
</trkpt>
<trkpt lat="45.8507460" lon="9.3201120">
	<ele>1205.40</ele>
	<time>2024-03-25T10:05:59.000Z</time>
</trkpt>
<trkpt lat="45.8507470" lon="9.3201130">
	<ele>1205.40</ele>
	<time>2024-03-25T10:06:00.000Z</time>
</trkpt>
<trkpt lat="45.8507480" lon="9.3201130">
	<ele>1205.40</ele>
	<time>2024-03-25T10:06:01.000Z</time>
</trkpt>
<trkpt lat="45.8507480" lon="9.3201130">
	<ele>1205.40</ele>
	<time>2024-03-25T10:06:02.000Z</time>
</trkpt>
<trkpt lat="45.8507480" lon="9.3201130">
	<ele>1205.40</ele>
	<time>2024-03-25T10:06:03.000Z</time>
</trkpt>
<trkpt lat="45.8507480" lon="9.3201130">
	<ele>1205.60</ele>
	<time>2024-03-25T10:06:04.000Z</time>
</trkpt>
<trkpt lat="45.8507480" lon="9.3201130">
	<ele>1205.60</ele>
	<time>2024-03-25T10:06:05.000Z</time>
</trkpt>
<trkpt lat="45.8507480" lon="9.3201130">
	<ele>1205.60</ele>
	<time>2024-03-25T10:06:06.000Z</time>
</trkpt>
<trkpt lat="45.8507480" lon="9.3201130">
	<ele>1205.60</ele>
	<time>2024-03-25T10:06:07.000Z</time>
</trkpt>
<trkpt lat="45.8507480" lon="9.3201130">
	<ele>1205.60</ele>
	<time>2024-03-25T10:06:08.000Z</time>
</trkpt>
<trkpt lat="45.8507480" lon="9.3201130">
	<ele>1205.60</ele>
	<time>2024-03-25T10:06:09.000Z</time>
</trkpt>
<trkpt lat="45.8507480" lon="9.3201130">
	<ele>1205.60</ele>
	<time>2024-03-25T10:06:10.000Z</time>
</trkpt>
<trkpt lat="45.8507480" lon="9.3201130">
	<ele>1205.60</ele>
	<time>2024-03-25T10:06:11.000Z</time>
</trkpt>
<trkpt lat="45.8507480" lon="9.3201130">
	<ele>1205.60</ele>
	<time>2024-03-25T10:06:12.000Z</time>
</trkpt>
<trkpt lat="45.8507480" lon="9.3201130">
	<ele>1205.60</ele>
	<time>2024-03-25T10:06:13.000Z</time>
</trkpt>
<trkpt lat="45.8507480" lon="9.3201130">
	<ele>1205.60</ele>
	<time>2024-03-25T10:06:14.000Z</time>
</trkpt>
<trkpt lat="45.8507480" lon="9.3201130">
	<ele>1205.60</ele>
	<time>2024-03-25T10:06:15.000Z</time>
</trkpt>
<trkpt lat="45.8507480" lon="9.3201130">
	<ele>1205.60</ele>
	<time>2024-03-25T10:06:16.000Z</time>
</trkpt>
<trkpt lat="45.8507480" lon="9.3201140">
	<ele>1205.60</ele>
	<time>2024-03-25T10:06:17.000Z</time>
</trkpt>
<trkpt lat="45.8507480" lon="9.3201150">
	<ele>1205.60</ele>
	<time>2024-03-25T10:06:18.000Z</time>
</trkpt>
<trkpt lat="45.8507480" lon="9.3201160">
	<ele>1205.60</ele>
	<time>2024-03-25T10:06:19.000Z</time>
</trkpt>
<trkpt lat="45.8507480" lon="9.3201160">
	<ele>1205.60</ele>
	<time>2024-03-25T10:06:20.000Z</time>
</trkpt>
<trkpt lat="45.8507490" lon="9.3201180">
	<ele>1205.60</ele>
	<time>2024-03-25T10:06:21.000Z</time>
</trkpt>
<trkpt lat="45.8507490" lon="9.3201230">
	<ele>1205.60</ele>
	<time>2024-03-25T10:06:22.000Z</time>
</trkpt>
<trkpt lat="45.8507490" lon="9.3201300">
	<ele>1205.60</ele>
	<time>2024-03-25T10:06:23.000Z</time>
</trkpt>
<trkpt lat="45.8507500" lon="9.3201350">
	<ele>1205.60</ele>
	<time>2024-03-25T10:06:24.000Z</time>
</trkpt>
<trkpt lat="45.8507500" lon="9.3201360">
	<ele>1205.60</ele>
	<time>2024-03-25T10:06:25.000Z</time>
</trkpt>
<trkpt lat="45.8507500" lon="9.3201370">
	<ele>1205.60</ele>
	<time>2024-03-25T10:06:26.000Z</time>
</trkpt>
<trkpt lat="45.8507500" lon="9.3201400">
	<ele>1205.60</ele>
	<time>2024-03-25T10:06:27.000Z</time>
</trkpt>
<trkpt lat="45.8507500" lon="9.3201410">
	<ele>1205.60</ele>
	<time>2024-03-25T10:06:28.000Z</time>
</trkpt>
<trkpt lat="45.8507500" lon="9.3201410">
	<ele>1205.60</ele>
	<time>2024-03-25T10:06:29.000Z</time>
</trkpt>
<trkpt lat="45.8507500" lon="9.3201410">
	<ele>1205.60</ele>
	<time>2024-03-25T10:06:30.000Z</time>
</trkpt>
<trkpt lat="45.8507510" lon="9.3201410">
	<ele>1205.60</ele>
	<time>2024-03-25T10:06:31.000Z</time>
</trkpt>
<trkpt lat="45.8507520" lon="9.3201410">
	<ele>1205.60</ele>
	<time>2024-03-25T10:06:32.000Z</time>
</trkpt>
<trkpt lat="45.8507520" lon="9.3201410">
	<ele>1205.60</ele>
	<time>2024-03-25T10:06:33.000Z</time>
</trkpt>
<trkpt lat="45.8507520" lon="9.3201410">
	<ele>1205.60</ele>
	<time>2024-03-25T10:06:34.000Z</time>
</trkpt>
<trkpt lat="45.8507530" lon="9.3201410">
	<ele>1205.60</ele>
	<time>2024-03-25T10:06:35.000Z</time>
</trkpt>
<trkpt lat="45.8507540" lon="9.3201410">
	<ele>1205.60</ele>
	<time>2024-03-25T10:06:36.000Z</time>
</trkpt>
<trkpt lat="45.8507550" lon="9.3201410">
	<ele>1205.60</ele>
	<time>2024-03-25T10:06:37.000Z</time>
</trkpt>
<trkpt lat="45.8507550" lon="9.3201410">
	<ele>1205.60</ele>
	<time>2024-03-25T10:06:38.000Z</time>
</trkpt>
<trkpt lat="45.8507560" lon="9.3201410">
	<ele>1205.60</ele>
	<time>2024-03-25T10:06:39.000Z</time>
</trkpt>
<trkpt lat="45.8507560" lon="9.3201410">
	<ele>1205.60</ele>
	<time>2024-03-25T10:06:40.000Z</time>
</trkpt>
<trkpt lat="45.8507560" lon="9.3201410">
	<ele>1205.60</ele>
	<time>2024-03-25T10:06:41.000Z</time>
</trkpt>
<trkpt lat="45.8507560" lon="9.3201410">
	<ele>1205.60</ele>
	<time>2024-03-25T10:06:42.000Z</time>
</trkpt>
<trkpt lat="45.8507570" lon="9.3201410">
	<ele>1205.60</ele>
	<time>2024-03-25T10:06:43.000Z</time>
</trkpt>
<trkpt lat="45.8507570" lon="9.3201390">
	<ele>1205.60</ele>
	<time>2024-03-25T10:06:44.000Z</time>
</trkpt>
<trkpt lat="45.8507570" lon="9.3201360">
	<ele>1205.60</ele>
	<time>2024-03-25T10:06:45.000Z</time>
</trkpt>
<trkpt lat="45.8507570" lon="9.3201310">
	<ele>1205.60</ele>
	<time>2024-03-25T10:06:46.000Z</time>
</trkpt>
<trkpt lat="45.8507570" lon="9.3201300">
	<ele>1205.60</ele>
	<time>2024-03-25T10:06:47.000Z</time>
</trkpt>
<trkpt lat="45.8507570" lon="9.3201300">
	<ele>1205.60</ele>
	<time>2024-03-25T10:06:48.000Z</time>
</trkpt>
<trkpt lat="45.8507570" lon="9.3201290">
	<ele>1205.60</ele>
	<time>2024-03-25T10:06:49.000Z</time>
</trkpt>
<trkpt lat="45.8507570" lon="9.3201280">
	<ele>1205.60</ele>
	<time>2024-03-25T10:06:50.000Z</time>
</trkpt>
<trkpt lat="45.8507570" lon="9.3201150">
	<ele>1205.60</ele>
	<time>2024-03-25T10:06:51.000Z</time>
</trkpt>
<trkpt lat="45.8507530" lon="9.3200950">
	<ele>1205.60</ele>
	<time>2024-03-25T10:06:52.000Z</time>
</trkpt>
<trkpt lat="45.8507550" lon="9.3200670">
	<ele>1205.60</ele>
	<time>2024-03-25T10:06:53.000Z</time>
</trkpt>
<trkpt lat="45.8507600" lon="9.3200410">
	<ele>1205.60</ele>
	<time>2024-03-25T10:06:54.000Z</time>
</trkpt>
<trkpt lat="45.8507650" lon="9.3200160">
	<ele>1205.60</ele>
	<time>2024-03-25T10:06:55.000Z</time>
</trkpt>
<trkpt lat="45.8507660" lon="9.3199890">
	<ele>1205.60</ele>
	<time>2024-03-25T10:06:56.000Z</time>
</trkpt>
<trkpt lat="45.8507650" lon="9.3199610">
	<ele>1205.60</ele>
	<time>2024-03-25T10:06:57.000Z</time>
</trkpt>
<trkpt lat="45.8507640" lon="9.3199320">
	<ele>1205.60</ele>
	<time>2024-03-25T10:06:58.000Z</time>
</trkpt>
<trkpt lat="45.8507650" lon="9.3199060">
	<ele>1205.60</ele>
	<time>2024-03-25T10:06:59.000Z</time>
</trkpt>
<trkpt lat="45.8507660" lon="9.3198820">
	<ele>1205.60</ele>
	<time>2024-03-25T10:07:00.000Z</time>
</trkpt>
<trkpt lat="45.8507680" lon="9.3198690">
	<ele>1205.60</ele>
	<time>2024-03-25T10:07:01.000Z</time>
</trkpt>
<trkpt lat="45.8507730" lon="9.3198540">
	<ele>1205.60</ele>
	<time>2024-03-25T10:07:02.000Z</time>
</trkpt>
<trkpt lat="45.8507780" lon="9.3198400">
	<ele>1205.60</ele>
	<time>2024-03-25T10:07:03.000Z</time>
</trkpt>
<trkpt lat="45.8507810" lon="9.3198290">
	<ele>1206.60</ele>
	<time>2024-03-25T10:07:04.000Z</time>
</trkpt>
<trkpt lat="45.8507820" lon="9.3198210">
	<ele>1207.40</ele>
	<time>2024-03-25T10:07:05.000Z</time>
</trkpt>
<trkpt lat="45.8507830" lon="9.3198140">
	<ele>1207.80</ele>
	<time>2024-03-25T10:07:06.000Z</time>
</trkpt>
<trkpt lat="45.8507820" lon="9.3198080">
	<ele>1208.00</ele>
	<time>2024-03-25T10:07:07.000Z</time>
</trkpt>
<trkpt lat="45.8507810" lon="9.3198020">
	<ele>1208.20</ele>
	<time>2024-03-25T10:07:08.000Z</time>
</trkpt>
<trkpt lat="45.8507830" lon="9.3197970">
	<ele>1208.40</ele>
	<time>2024-03-25T10:07:09.000Z</time>
</trkpt>
<trkpt lat="45.8507860" lon="9.3197940">
	<ele>1208.60</ele>
	<time>2024-03-25T10:07:10.000Z</time>
</trkpt>
<trkpt lat="45.8507920" lon="9.3197890">
	<ele>1208.80</ele>
	<time>2024-03-25T10:07:11.000Z</time>
</trkpt>
<trkpt lat="45.8507960" lon="9.3197850">
	<ele>1209.00</ele>
	<time>2024-03-25T10:07:12.000Z</time>
</trkpt>
<trkpt lat="45.8508000" lon="9.3197800">
	<ele>1209.20</ele>
	<time>2024-03-25T10:07:13.000Z</time>
</trkpt>
<trkpt lat="45.8507990" lon="9.3197720">
	<ele>1209.40</ele>
	<time>2024-03-25T10:07:14.000Z</time>
</trkpt>
<trkpt lat="45.8507980" lon="9.3197670">
	<ele>1209.60</ele>
	<time>2024-03-25T10:07:15.000Z</time>
</trkpt>
<trkpt lat="45.8507920" lon="9.3197590">
	<ele>1209.80</ele>
	<time>2024-03-25T10:07:16.000Z</time>
</trkpt>
<trkpt lat="45.8507900" lon="9.3197500">
	<ele>1210.00</ele>
	<time>2024-03-25T10:07:17.000Z</time>
</trkpt>
<trkpt lat="45.8507870" lon="9.3197400">
	<ele>1210.20</ele>
	<time>2024-03-25T10:07:18.000Z</time>
</trkpt>
<trkpt lat="45.8507840" lon="9.3197330">
	<ele>1210.40</ele>
	<time>2024-03-25T10:07:19.000Z</time>
</trkpt>
<trkpt lat="45.8507830" lon="9.3197280">
	<ele>1210.60</ele>
	<time>2024-03-25T10:07:20.000Z</time>
</trkpt>
<trkpt lat="45.8507830" lon="9.3197200">
	<ele>1210.80</ele>
	<time>2024-03-25T10:07:21.000Z</time>
</trkpt>
<trkpt lat="45.8507870" lon="9.3197150">
	<ele>1211.00</ele>
	<time>2024-03-25T10:07:22.000Z</time>
</trkpt>
<trkpt lat="45.8507900" lon="9.3197090">
	<ele>1211.20</ele>
	<time>2024-03-25T10:07:23.000Z</time>
</trkpt>
<trkpt lat="45.8507900" lon="9.3197020">
	<ele>1211.20</ele>
	<time>2024-03-25T10:07:24.000Z</time>
</trkpt>
<trkpt lat="45.8507920" lon="9.3196950">
	<ele>1211.40</ele>
	<time>2024-03-25T10:07:25.000Z</time>
</trkpt>
<trkpt lat="45.8507920" lon="9.3196930">
	<ele>1211.80</ele>
	<time>2024-03-25T10:07:26.000Z</time>
</trkpt>
<trkpt lat="45.8507940" lon="9.3196930">
	<ele>1211.80</ele>
	<time>2024-03-25T10:07:27.000Z</time>
</trkpt>
<trkpt lat="45.8507970" lon="9.3196930">
	<ele>1212.00</ele>
	<time>2024-03-25T10:07:28.000Z</time>
</trkpt>
<trkpt lat="45.8507930" lon="9.3196950">
	<ele>1212.00</ele>
	<time>2024-03-25T10:07:29.000Z</time>
</trkpt>
<trkpt lat="45.8507930" lon="9.3196960">
	<ele>1212.00</ele>
	<time>2024-03-25T10:07:30.000Z</time>
</trkpt>
<trkpt lat="45.8507930" lon="9.3196980">
	<ele>1212.20</ele>
	<time>2024-03-25T10:07:31.000Z</time>
</trkpt>
<trkpt lat="45.8507920" lon="9.3197000">
	<ele>1212.20</ele>
	<time>2024-03-25T10:07:32.000Z</time>
</trkpt>
<trkpt lat="45.8507920" lon="9.3197000">
	<ele>1212.20</ele>
	<time>2024-03-25T10:07:33.000Z</time>
</trkpt>
<trkpt lat="45.8507930" lon="9.3197010">
	<ele>1212.40</ele>
	<time>2024-03-25T10:07:34.000Z</time>
</trkpt>
<trkpt lat="45.8507940" lon="9.3197010">
	<ele>1212.40</ele>
	<time>2024-03-25T10:07:35.000Z</time>
</trkpt>
<trkpt lat="45.8507970" lon="9.3197000">
	<ele>1212.60</ele>
	<time>2024-03-25T10:07:36.000Z</time>
</trkpt>
<trkpt lat="45.8507990" lon="9.3197000">
	<ele>1212.60</ele>
	<time>2024-03-25T10:07:37.000Z</time>
</trkpt>
<trkpt lat="45.8508010" lon="9.3197010">
	<ele>1212.60</ele>
	<time>2024-03-25T10:07:38.000Z</time>
</trkpt>
<trkpt lat="45.8508040" lon="9.3197000">
	<ele>1212.60</ele>
	<time>2024-03-25T10:07:39.000Z</time>
</trkpt>
<trkpt lat="45.8508070" lon="9.3197020">
	<ele>1212.60</ele>
	<time>2024-03-25T10:07:40.000Z</time>
</trkpt>
<trkpt lat="45.8508110" lon="9.3197030">
	<ele>1212.60</ele>
	<time>2024-03-25T10:07:41.000Z</time>
</trkpt>
<trkpt lat="45.8508120" lon="9.3197030">
	<ele>1212.60</ele>
	<time>2024-03-25T10:07:42.000Z</time>
</trkpt>
<trkpt lat="45.8508130" lon="9.3197040">
	<ele>1212.60</ele>
	<time>2024-03-25T10:07:43.000Z</time>
</trkpt>
<trkpt lat="45.8508120" lon="9.3197050">
	<ele>1212.60</ele>
	<time>2024-03-25T10:07:44.000Z</time>
</trkpt>
<trkpt lat="45.8508100" lon="9.3197040">
	<ele>1212.40</ele>
	<time>2024-03-25T10:07:45.000Z</time>
</trkpt>
<trkpt lat="45.8508080" lon="9.3197030">
	<ele>1212.40</ele>
	<time>2024-03-25T10:07:46.000Z</time>
</trkpt>
<trkpt lat="45.8508070" lon="9.3197020">
	<ele>1212.40</ele>
	<time>2024-03-25T10:07:47.000Z</time>
</trkpt>
<trkpt lat="45.8508070" lon="9.3197030">
	<ele>1212.40</ele>
	<time>2024-03-25T10:07:48.000Z</time>
</trkpt>
<trkpt lat="45.8508070" lon="9.3197030">
	<ele>1212.40</ele>
	<time>2024-03-25T10:07:49.000Z</time>
</trkpt>
<trkpt lat="45.8508070" lon="9.3197030">
	<ele>1212.40</ele>
	<time>2024-03-25T10:07:50.000Z</time>
</trkpt>
<trkpt lat="45.8508070" lon="9.3197030">
	<ele>1212.40</ele>
	<time>2024-03-25T10:07:51.000Z</time>
</trkpt>
<trkpt lat="45.8508070" lon="9.3197030">
	<ele>1212.20</ele>
	<time>2024-03-25T10:07:52.000Z</time>
</trkpt>
<trkpt lat="45.8508070" lon="9.3197030">
	<ele>1212.20</ele>
	<time>2024-03-25T10:07:53.000Z</time>
</trkpt>
<trkpt lat="45.8508070" lon="9.3197030">
	<ele>1212.20</ele>
	<time>2024-03-25T10:07:54.000Z</time>
</trkpt>
<trkpt lat="45.8508070" lon="9.3197030">
	<ele>1212.20</ele>
	<time>2024-03-25T10:07:55.000Z</time>
</trkpt>
<trkpt lat="45.8508070" lon="9.3197030">
	<ele>1212.20</ele>
	<time>2024-03-25T10:07:56.000Z</time>
</trkpt>
<trkpt lat="45.8508070" lon="9.3197030">
	<ele>1212.20</ele>
	<time>2024-03-25T10:07:57.000Z</time>
</trkpt>
<trkpt lat="45.8508070" lon="9.3197030">
	<ele>1212.20</ele>
	<time>2024-03-25T10:07:58.000Z</time>
</trkpt>
<trkpt lat="45.8508070" lon="9.3197030">
	<ele>1212.20</ele>
	<time>2024-03-25T10:07:59.000Z</time>
</trkpt>
<trkpt lat="45.8508070" lon="9.3197030">
	<ele>1212.00</ele>
	<time>2024-03-25T10:08:00.000Z</time>
</trkpt>
<trkpt lat="45.8508070" lon="9.3197030">
	<ele>1212.00</ele>
	<time>2024-03-25T10:08:01.000Z</time>
</trkpt>
<trkpt lat="45.8508070" lon="9.3197030">
	<ele>1212.00</ele>
	<time>2024-03-25T10:08:02.000Z</time>
</trkpt>
<trkpt lat="45.8508070" lon="9.3197040">
	<ele>1212.00</ele>
	<time>2024-03-25T10:08:03.000Z</time>
</trkpt>
<trkpt lat="45.8508070" lon="9.3197040">
	<ele>1212.00</ele>
	<time>2024-03-25T10:08:04.000Z</time>
</trkpt>
<trkpt lat="45.8508070" lon="9.3197040">
	<ele>1212.00</ele>
	<time>2024-03-25T10:08:05.000Z</time>
</trkpt>
<trkpt lat="45.8508060" lon="9.3197040">
	<ele>1212.00</ele>
	<time>2024-03-25T10:08:06.000Z</time>
</trkpt>
<trkpt lat="45.8508050" lon="9.3197040">
	<ele>1212.00</ele>
	<time>2024-03-25T10:08:07.000Z</time>
</trkpt>
<trkpt lat="45.8508040" lon="9.3197040">
	<ele>1212.00</ele>
	<time>2024-03-25T10:08:08.000Z</time>
</trkpt>
<trkpt lat="45.8508040" lon="9.3197040">
	<ele>1211.80</ele>
	<time>2024-03-25T10:08:09.000Z</time>
</trkpt>
<trkpt lat="45.8508040" lon="9.3197040">
	<ele>1211.80</ele>
	<time>2024-03-25T10:08:10.000Z</time>
</trkpt>
<trkpt lat="45.8508040" lon="9.3197040">
	<ele>1211.80</ele>
	<time>2024-03-25T10:08:11.000Z</time>
</trkpt>
<trkpt lat="45.8508040" lon="9.3197040">
	<ele>1211.80</ele>
	<time>2024-03-25T10:08:12.000Z</time>
</trkpt>
<trkpt lat="45.8508040" lon="9.3197040">
	<ele>1211.60</ele>
	<time>2024-03-25T10:08:13.000Z</time>
</trkpt>
<trkpt lat="45.8508040" lon="9.3197030">
	<ele>1211.20</ele>
	<time>2024-03-25T10:08:14.000Z</time>
</trkpt>
<trkpt lat="45.8508040" lon="9.3197030">
	<ele>1210.80</ele>
	<time>2024-03-25T10:08:15.000Z</time>
</trkpt>
<trkpt lat="45.8508040" lon="9.3197030">
	<ele>1210.80</ele>
	<time>2024-03-25T10:08:16.000Z</time>
</trkpt>
<trkpt lat="45.8508040" lon="9.3197030">
	<ele>1210.60</ele>
	<time>2024-03-25T10:08:17.000Z</time>
</trkpt>
<trkpt lat="45.8508040" lon="9.3197030">
	<ele>1210.40</ele>
	<time>2024-03-25T10:08:18.000Z</time>
</trkpt>
<trkpt lat="45.8508040" lon="9.3197000">
	<ele>1210.20</ele>
	<time>2024-03-25T10:08:19.000Z</time>
</trkpt>
<trkpt lat="45.8508040" lon="9.3196970">
	<ele>1210.00</ele>
	<time>2024-03-25T10:08:20.000Z</time>
</trkpt>
<trkpt lat="45.8508040" lon="9.3196940">
	<ele>1210.00</ele>
	<time>2024-03-25T10:08:21.000Z</time>
</trkpt>
<trkpt lat="45.8508040" lon="9.3196890">
	<ele>1209.80</ele>
	<time>2024-03-25T10:08:22.000Z</time>
</trkpt>
<trkpt lat="45.8508040" lon="9.3196840">
	<ele>1209.80</ele>
	<time>2024-03-25T10:08:23.000Z</time>
</trkpt>
<trkpt lat="45.8508040" lon="9.3196800">
	<ele>1209.80</ele>
	<time>2024-03-25T10:08:24.000Z</time>
</trkpt>
<trkpt lat="45.8508050" lon="9.3196750">
	<ele>1209.60</ele>
	<time>2024-03-25T10:08:25.000Z</time>
</trkpt>
<trkpt lat="45.8508070" lon="9.3196670">
	<ele>1209.60</ele>
	<time>2024-03-25T10:08:26.000Z</time>
</trkpt>
<trkpt lat="45.8508080" lon="9.3196580">
	<ele>1209.60</ele>
	<time>2024-03-25T10:08:27.000Z</time>
</trkpt>
<trkpt lat="45.8508080" lon="9.3196490">
	<ele>1209.60</ele>
	<time>2024-03-25T10:08:28.000Z</time>
</trkpt>
<trkpt lat="45.8508080" lon="9.3196390">
	<ele>1209.60</ele>
	<time>2024-03-25T10:08:29.000Z</time>
</trkpt>
<trkpt lat="45.8508080" lon="9.3196330">
	<ele>1209.60</ele>
	<time>2024-03-25T10:08:30.000Z</time>
</trkpt>
<trkpt lat="45.8508080" lon="9.3196250">
	<ele>1209.60</ele>
	<time>2024-03-25T10:08:31.000Z</time>
</trkpt>
<trkpt lat="45.8508080" lon="9.3196150">
	<ele>1209.60</ele>
	<time>2024-03-25T10:08:32.000Z</time>
</trkpt>
<trkpt lat="45.8508080" lon="9.3196050">
	<ele>1209.60</ele>
	<time>2024-03-25T10:08:33.000Z</time>
</trkpt>
<trkpt lat="45.8508080" lon="9.3195960">
	<ele>1209.60</ele>
	<time>2024-03-25T10:08:34.000Z</time>
</trkpt>
<trkpt lat="45.8508080" lon="9.3195890">
	<ele>1209.60</ele>
	<time>2024-03-25T10:08:35.000Z</time>
</trkpt>
<trkpt lat="45.8508090" lon="9.3195800">
	<ele>1209.60</ele>
	<time>2024-03-25T10:08:36.000Z</time>
</trkpt>
<trkpt lat="45.8508090" lon="9.3195710">
	<ele>1209.40</ele>
	<time>2024-03-25T10:08:37.000Z</time>
</trkpt>
<trkpt lat="45.8508070" lon="9.3195500">
	<ele>1209.40</ele>
	<time>2024-03-25T10:08:38.000Z</time>
</trkpt>
<trkpt lat="45.8508070" lon="9.3195300">
	<ele>1209.20</ele>
	<time>2024-03-25T10:08:39.000Z</time>
</trkpt>
<trkpt lat="45.8508060" lon="9.3195080">
	<ele>1209.20</ele>
	<time>2024-03-25T10:08:40.000Z</time>
</trkpt>
<trkpt lat="45.8508070" lon="9.3194870">
	<ele>1209.00</ele>
	<time>2024-03-25T10:08:41.000Z</time>
</trkpt>
<trkpt lat="45.8508090" lon="9.3194640">
	<ele>1208.60</ele>
	<time>2024-03-25T10:08:42.000Z</time>
</trkpt>
<trkpt lat="45.8508110" lon="9.3194380">
	<ele>1208.40</ele>
	<time>2024-03-25T10:08:43.000Z</time>
</trkpt>
<trkpt lat="45.8508110" lon="9.3194150">
	<ele>1208.40</ele>
	<time>2024-03-25T10:08:44.000Z</time>
</trkpt>
<trkpt lat="45.8508120" lon="9.3193930">
	<ele>1208.20</ele>
	<time>2024-03-25T10:08:45.000Z</time>
</trkpt>
<trkpt lat="45.8508110" lon="9.3193720">
	<ele>1208.00</ele>
	<time>2024-03-25T10:08:46.000Z</time>
</trkpt>
<trkpt lat="45.8508060" lon="9.3193540">
	<ele>1207.60</ele>
	<time>2024-03-25T10:08:47.000Z</time>
</trkpt>
<trkpt lat="45.8508030" lon="9.3193380">
	<ele>1207.60</ele>
	<time>2024-03-25T10:08:48.000Z</time>
</trkpt>
<trkpt lat="45.8507970" lon="9.3193250">
	<ele>1207.40</ele>
	<time>2024-03-25T10:08:49.000Z</time>
</trkpt>
<trkpt lat="45.8507940" lon="9.3193170">
	<ele>1207.20</ele>
	<time>2024-03-25T10:08:50.000Z</time>
</trkpt>
<trkpt lat="45.8507940" lon="9.3193080">
	<ele>1207.00</ele>
	<time>2024-03-25T10:08:51.000Z</time>
</trkpt>
<trkpt lat="45.8507960" lon="9.3193000">
	<ele>1206.80</ele>
	<time>2024-03-25T10:08:52.000Z</time>
</trkpt>
<trkpt lat="45.8507970" lon="9.3192920">
	<ele>1206.40</ele>
	<time>2024-03-25T10:08:53.000Z</time>
</trkpt>
<trkpt lat="45.8507990" lon="9.3192820">
	<ele>1206.20</ele>
	<time>2024-03-25T10:08:54.000Z</time>
</trkpt>
<trkpt lat="45.8508000" lon="9.3192710">
	<ele>1206.00</ele>
	<time>2024-03-25T10:08:55.000Z</time>
</trkpt>
<trkpt lat="45.8508030" lon="9.3192580">
	<ele>1205.80</ele>
	<time>2024-03-25T10:08:56.000Z</time>
</trkpt>
<trkpt lat="45.8508010" lon="9.3192450">
	<ele>1205.60</ele>
	<time>2024-03-25T10:08:57.000Z</time>
</trkpt>
<trkpt lat="45.8507990" lon="9.3192340">
	<ele>1205.40</ele>
	<time>2024-03-25T10:08:58.000Z</time>
</trkpt>
<trkpt lat="45.8507960" lon="9.3192230">
	<ele>1205.40</ele>
	<time>2024-03-25T10:08:59.000Z</time>
</trkpt>
<trkpt lat="45.8507940" lon="9.3192110">
	<ele>1205.20</ele>
	<time>2024-03-25T10:09:00.000Z</time>
</trkpt>
<trkpt lat="45.8507950" lon="9.3191980">
	<ele>1204.60</ele>
	<time>2024-03-25T10:09:01.000Z</time>
</trkpt>
<trkpt lat="45.8507920" lon="9.3191870">
	<ele>1204.20</ele>
	<time>2024-03-25T10:09:02.000Z</time>
</trkpt>
<trkpt lat="45.8507880" lon="9.3191790">
	<ele>1204.00</ele>
	<time>2024-03-25T10:09:03.000Z</time>
</trkpt>
<trkpt lat="45.8507840" lon="9.3191650">
	<ele>1203.80</ele>
	<time>2024-03-25T10:09:04.000Z</time>
</trkpt>
<trkpt lat="45.8507800" lon="9.3191480">
	<ele>1203.60</ele>
	<time>2024-03-25T10:09:05.000Z</time>
</trkpt>
<trkpt lat="45.8507740" lon="9.3191340">
	<ele>1203.40</ele>
	<time>2024-03-25T10:09:06.000Z</time>
</trkpt>
<trkpt lat="45.8507680" lon="9.3191210">
	<ele>1203.00</ele>
	<time>2024-03-25T10:09:07.000Z</time>
</trkpt>
<trkpt lat="45.8507640" lon="9.3191080">
	<ele>1202.80</ele>
	<time>2024-03-25T10:09:08.000Z</time>
</trkpt>
<trkpt lat="45.8507620" lon="9.3190940">
	<ele>1202.60</ele>
	<time>2024-03-25T10:09:09.000Z</time>
</trkpt>
<trkpt lat="45.8507630" lon="9.3190800">
	<ele>1202.20</ele>
	<time>2024-03-25T10:09:10.000Z</time>
</trkpt>
<trkpt lat="45.8507600" lon="9.3190680">
	<ele>1202.20</ele>
	<time>2024-03-25T10:09:11.000Z</time>
</trkpt>
<trkpt lat="45.8507600" lon="9.3190570">
	<ele>1201.80</ele>
	<time>2024-03-25T10:09:12.000Z</time>
</trkpt>
<trkpt lat="45.8507580" lon="9.3190450">
	<ele>1201.60</ele>
	<time>2024-03-25T10:09:13.000Z</time>
</trkpt>
<trkpt lat="45.8507550" lon="9.3190340">
	<ele>1201.40</ele>
	<time>2024-03-25T10:09:14.000Z</time>
</trkpt>
<trkpt lat="45.8507520" lon="9.3190210">
	<ele>1201.20</ele>
	<time>2024-03-25T10:09:15.000Z</time>
</trkpt>
<trkpt lat="45.8507450" lon="9.3190070">
	<ele>1201.20</ele>
	<time>2024-03-25T10:09:16.000Z</time>
</trkpt>
<trkpt lat="45.8507360" lon="9.3189920">
	<ele>1201.00</ele>
	<time>2024-03-25T10:09:17.000Z</time>
</trkpt>
<trkpt lat="45.8507260" lon="9.3189790">
	<ele>1200.80</ele>
	<time>2024-03-25T10:09:18.000Z</time>
</trkpt>
<trkpt lat="45.8507190" lon="9.3189680">
	<ele>1200.80</ele>
	<time>2024-03-25T10:09:19.000Z</time>
</trkpt>
<trkpt lat="45.8507130" lon="9.3189630">
	<ele>1200.80</ele>
	<time>2024-03-25T10:09:20.000Z</time>
</trkpt>
<trkpt lat="45.8507090" lon="9.3189550">
	<ele>1201.00</ele>
	<time>2024-03-25T10:09:21.000Z</time>
</trkpt>
<trkpt lat="45.8507010" lon="9.3189440">
	<ele>1201.00</ele>
	<time>2024-03-25T10:09:22.000Z</time>
</trkpt>
<trkpt lat="45.8506950" lon="9.3189320">
	<ele>1201.20</ele>
	<time>2024-03-25T10:09:23.000Z</time>
</trkpt>
<trkpt lat="45.8506870" lon="9.3189180">
	<ele>1201.20</ele>
	<time>2024-03-25T10:09:24.000Z</time>
</trkpt>
<trkpt lat="45.8506820" lon="9.3189070">
	<ele>1201.20</ele>
	<time>2024-03-25T10:09:25.000Z</time>
</trkpt>
<trkpt lat="45.8506770" lon="9.3189010">
	<ele>1201.20</ele>
	<time>2024-03-25T10:09:26.000Z</time>
</trkpt>
<trkpt lat="45.8506730" lon="9.3188970">
	<ele>1201.20</ele>
	<time>2024-03-25T10:09:27.000Z</time>
</trkpt>
<trkpt lat="45.8506690" lon="9.3188900">
	<ele>1201.40</ele>
	<time>2024-03-25T10:09:28.000Z</time>
</trkpt>
<trkpt lat="45.8506640" lon="9.3188800">
	<ele>1201.40</ele>
	<time>2024-03-25T10:09:29.000Z</time>
</trkpt>
<trkpt lat="45.8506590" lon="9.3188670">
	<ele>1201.80</ele>
	<time>2024-03-25T10:09:30.000Z</time>
</trkpt>
<trkpt lat="45.8506520" lon="9.3188550">
	<ele>1202.00</ele>
	<time>2024-03-25T10:09:31.000Z</time>
</trkpt>
<trkpt lat="45.8506410" lon="9.3188460">
	<ele>1202.20</ele>
	<time>2024-03-25T10:09:32.000Z</time>
</trkpt>
<trkpt lat="45.8506280" lon="9.3188380">
	<ele>1202.40</ele>
	<time>2024-03-25T10:09:33.000Z</time>
</trkpt>
<trkpt lat="45.8506180" lon="9.3188290">
	<ele>1202.40</ele>
	<time>2024-03-25T10:09:34.000Z</time>
</trkpt>
<trkpt lat="45.8506090" lon="9.3188200">
	<ele>1202.60</ele>
	<time>2024-03-25T10:09:35.000Z</time>
</trkpt>
<trkpt lat="45.8506070" lon="9.3188150">
	<ele>1202.60</ele>
	<time>2024-03-25T10:09:36.000Z</time>
</trkpt>
<trkpt lat="45.8506080" lon="9.3188080">
	<ele>1202.80</ele>
	<time>2024-03-25T10:09:37.000Z</time>
</trkpt>
<trkpt lat="45.8506090" lon="9.3188040">
	<ele>1203.00</ele>
	<time>2024-03-25T10:09:38.000Z</time>
</trkpt>
<trkpt lat="45.8506070" lon="9.3187980">
	<ele>1203.20</ele>
	<time>2024-03-25T10:09:39.000Z</time>
</trkpt>
<trkpt lat="45.8506070" lon="9.3187910">
	<ele>1203.20</ele>
	<time>2024-03-25T10:09:40.000Z</time>
</trkpt>
<trkpt lat="45.8506040" lon="9.3187870">
	<ele>1203.40</ele>
	<time>2024-03-25T10:09:41.000Z</time>
</trkpt>
<trkpt lat="45.8506000" lon="9.3187850">
	<ele>1203.40</ele>
	<time>2024-03-25T10:09:42.000Z</time>
</trkpt>
<trkpt lat="45.8505920" lon="9.3187800">
	<ele>1203.60</ele>
	<time>2024-03-25T10:09:43.000Z</time>
</trkpt>
<trkpt lat="45.8505850" lon="9.3187740">
	<ele>1204.00</ele>
	<time>2024-03-25T10:09:44.000Z</time>
</trkpt>
<trkpt lat="45.8505800" lon="9.3187670">
	<ele>1204.20</ele>
	<time>2024-03-25T10:09:45.000Z</time>
</trkpt>
<trkpt lat="45.8505780" lon="9.3187630">
	<ele>1204.60</ele>
	<time>2024-03-25T10:09:46.000Z</time>
</trkpt>
<trkpt lat="45.8505740" lon="9.3187580">
	<ele>1204.60</ele>
	<time>2024-03-25T10:09:47.000Z</time>
</trkpt>
<trkpt lat="45.8505700" lon="9.3187500">
	<ele>1204.80</ele>
	<time>2024-03-25T10:09:48.000Z</time>
</trkpt>
<trkpt lat="45.8505660" lon="9.3187470">
	<ele>1205.00</ele>
	<time>2024-03-25T10:09:49.000Z</time>
</trkpt>
<trkpt lat="45.8505630" lon="9.3187420">
	<ele>1205.20</ele>
	<time>2024-03-25T10:09:50.000Z</time>
</trkpt>
<trkpt lat="45.8505610" lon="9.3187380">
	<ele>1205.20</ele>
	<time>2024-03-25T10:09:51.000Z</time>
</trkpt>
<trkpt lat="45.8505590" lon="9.3187350">
	<ele>1205.20</ele>
	<time>2024-03-25T10:09:52.000Z</time>
</trkpt>
<trkpt lat="45.8505590" lon="9.3187340">
	<ele>1205.40</ele>
	<time>2024-03-25T10:09:53.000Z</time>
</trkpt>
<trkpt lat="45.8505570" lon="9.3187340">
	<ele>1205.40</ele>
	<time>2024-03-25T10:09:54.000Z</time>
</trkpt>
<trkpt lat="45.8505560" lon="9.3187340">
	<ele>1205.40</ele>
	<time>2024-03-25T10:09:55.000Z</time>
</trkpt>
<trkpt lat="45.8505560" lon="9.3187350">
	<ele>1205.20</ele>
	<time>2024-03-25T10:09:56.000Z</time>
</trkpt>
<trkpt lat="45.8505550" lon="9.3187360">
	<ele>1205.20</ele>
	<time>2024-03-25T10:09:57.000Z</time>
</trkpt>
<trkpt lat="45.8505550" lon="9.3187350">
	<ele>1205.20</ele>
	<time>2024-03-25T10:09:58.000Z</time>
</trkpt>
<trkpt lat="45.8505560" lon="9.3187350">
	<ele>1205.20</ele>
	<time>2024-03-25T10:09:59.000Z</time>
</trkpt>
<trkpt lat="45.8505570" lon="9.3187330">
	<ele>1205.20</ele>
	<time>2024-03-25T10:10:00.000Z</time>
</trkpt>
<trkpt lat="45.8505560" lon="9.3187320">
	<ele>1205.20</ele>
	<time>2024-03-25T10:10:01.000Z</time>
</trkpt>
<trkpt lat="45.8505550" lon="9.3187290">
	<ele>1205.20</ele>
	<time>2024-03-25T10:10:02.000Z</time>
</trkpt>
<trkpt lat="45.8505550" lon="9.3187280">
	<ele>1205.20</ele>
	<time>2024-03-25T10:10:03.000Z</time>
</trkpt>
<trkpt lat="45.8505520" lon="9.3187250">
	<ele>1205.40</ele>
	<time>2024-03-25T10:10:04.000Z</time>
</trkpt>
<trkpt lat="45.8505510" lon="9.3187230">
	<ele>1205.40</ele>
	<time>2024-03-25T10:10:05.000Z</time>
</trkpt>
<trkpt lat="45.8505500" lon="9.3187190">
	<ele>1205.40</ele>
	<time>2024-03-25T10:10:06.000Z</time>
</trkpt>
<trkpt lat="45.8505480" lon="9.3187210">
	<ele>1205.40</ele>
	<time>2024-03-25T10:10:07.000Z</time>
</trkpt>
<trkpt lat="45.8505480" lon="9.3187190">
	<ele>1205.40</ele>
	<time>2024-03-25T10:10:08.000Z</time>
</trkpt>
<trkpt lat="45.8505460" lon="9.3187110">
	<ele>1205.40</ele>
	<time>2024-03-25T10:10:09.000Z</time>
</trkpt>
<trkpt lat="45.8505450" lon="9.3187060">
	<ele>1205.40</ele>
	<time>2024-03-25T10:10:10.000Z</time>
</trkpt>
<trkpt lat="45.8505450" lon="9.3186980">
	<ele>1205.20</ele>
	<time>2024-03-25T10:10:11.000Z</time>
</trkpt>
<trkpt lat="45.8505440" lon="9.3186930">
	<ele>1205.00</ele>
	<time>2024-03-25T10:10:12.000Z</time>
</trkpt>
<trkpt lat="45.8505450" lon="9.3186850">
	<ele>1205.00</ele>
	<time>2024-03-25T10:10:13.000Z</time>
</trkpt>
<trkpt lat="45.8505440" lon="9.3186800">
	<ele>1204.60</ele>
	<time>2024-03-25T10:10:14.000Z</time>
</trkpt>
<trkpt lat="45.8505410" lon="9.3186750">
	<ele>1204.60</ele>
	<time>2024-03-25T10:10:15.000Z</time>
</trkpt>
<trkpt lat="45.8505370" lon="9.3186710">
	<ele>1204.40</ele>
	<time>2024-03-25T10:10:16.000Z</time>
</trkpt>
<trkpt lat="45.8505390" lon="9.3186650">
	<ele>1204.20</ele>
	<time>2024-03-25T10:10:17.000Z</time>
</trkpt>
<trkpt lat="45.8505410" lon="9.3186540">
	<ele>1204.20</ele>
	<time>2024-03-25T10:10:18.000Z</time>
</trkpt>
<trkpt lat="45.8505360" lon="9.3186380">
	<ele>1204.00</ele>
	<time>2024-03-25T10:10:19.000Z</time>
</trkpt>
<trkpt lat="45.8505310" lon="9.3186250">
	<ele>1204.00</ele>
	<time>2024-03-25T10:10:20.000Z</time>
</trkpt>
<trkpt lat="45.8505250" lon="9.3186120">
	<ele>1203.80</ele>
	<time>2024-03-25T10:10:21.000Z</time>
</trkpt>
<trkpt lat="45.8505210" lon="9.3185990">
	<ele>1203.60</ele>
	<time>2024-03-25T10:10:22.000Z</time>
</trkpt>
<trkpt lat="45.8505140" lon="9.3185840">
	<ele>1203.60</ele>
	<time>2024-03-25T10:10:23.000Z</time>
</trkpt>
<trkpt lat="45.8505080" lon="9.3185690">
	<ele>1203.60</ele>
	<time>2024-03-25T10:10:24.000Z</time>
</trkpt>
<trkpt lat="45.8505040" lon="9.3185540">
	<ele>1203.60</ele>
	<time>2024-03-25T10:10:25.000Z</time>
</trkpt>
<trkpt lat="45.8504990" lon="9.3185410">
	<ele>1203.60</ele>
	<time>2024-03-25T10:10:26.000Z</time>
</trkpt>
<trkpt lat="45.8504910" lon="9.3185340">
	<ele>1203.60</ele>
	<time>2024-03-25T10:10:27.000Z</time>
</trkpt>
<trkpt lat="45.8504850" lon="9.3185310">
	<ele>1203.60</ele>
	<time>2024-03-25T10:10:28.000Z</time>
</trkpt>
<trkpt lat="45.8504840" lon="9.3185280">
	<ele>1204.00</ele>
	<time>2024-03-25T10:10:29.000Z</time>
</trkpt>
<trkpt lat="45.8504830" lon="9.3185260">
	<ele>1204.20</ele>
	<time>2024-03-25T10:10:30.000Z</time>
</trkpt>
<trkpt lat="45.8504830" lon="9.3185180">
	<ele>1204.40</ele>
	<time>2024-03-25T10:10:31.000Z</time>
</trkpt>
<trkpt lat="45.8504790" lon="9.3185070">
	<ele>1204.40</ele>
	<time>2024-03-25T10:10:32.000Z</time>
</trkpt>
<trkpt lat="45.8504720" lon="9.3184940">
	<ele>1204.60</ele>
	<time>2024-03-25T10:10:33.000Z</time>
</trkpt>
<trkpt lat="45.8504690" lon="9.3184790">
	<ele>1204.80</ele>
	<time>2024-03-25T10:10:34.000Z</time>
</trkpt>
<trkpt lat="45.8504660" lon="9.3184680">
	<ele>1205.00</ele>
	<time>2024-03-25T10:10:35.000Z</time>
</trkpt>
<trkpt lat="45.8504630" lon="9.3184560">
	<ele>1205.00</ele>
	<time>2024-03-25T10:10:36.000Z</time>
</trkpt>
<trkpt lat="45.8504610" lon="9.3184450">
	<ele>1205.00</ele>
	<time>2024-03-25T10:10:37.000Z</time>
</trkpt>
<trkpt lat="45.8504570" lon="9.3184350">
	<ele>1205.20</ele>
	<time>2024-03-25T10:10:38.000Z</time>
</trkpt>
<trkpt lat="45.8504490" lon="9.3184310">
	<ele>1205.20</ele>
	<time>2024-03-25T10:10:39.000Z</time>
</trkpt>
<trkpt lat="45.8504430" lon="9.3184330">
	<ele>1205.60</ele>
	<time>2024-03-25T10:10:40.000Z</time>
</trkpt>
<trkpt lat="45.8504410" lon="9.3184350">
	<ele>1205.80</ele>
	<time>2024-03-25T10:10:41.000Z</time>
</trkpt>
<trkpt lat="45.8504350" lon="9.3184330">
	<ele>1206.00</ele>
	<time>2024-03-25T10:10:42.000Z</time>
</trkpt>
<trkpt lat="45.8504320" lon="9.3184320">
	<ele>1206.20</ele>
	<time>2024-03-25T10:10:43.000Z</time>
</trkpt>
<trkpt lat="45.8504310" lon="9.3184310">
	<ele>1206.20</ele>
	<time>2024-03-25T10:10:44.000Z</time>
</trkpt>
<trkpt lat="45.8504300" lon="9.3184290">
	<ele>1206.60</ele>
	<time>2024-03-25T10:10:45.000Z</time>
</trkpt>
<trkpt lat="45.8504280" lon="9.3184280">
	<ele>1206.80</ele>
	<time>2024-03-25T10:10:46.000Z</time>
</trkpt>
<trkpt lat="45.8504240" lon="9.3184230">
	<ele>1206.80</ele>
	<time>2024-03-25T10:10:47.000Z</time>
</trkpt>
<trkpt lat="45.8504230" lon="9.3184140">
	<ele>1207.00</ele>
	<time>2024-03-25T10:10:48.000Z</time>
</trkpt>
<trkpt lat="45.8504210" lon="9.3184070">
	<ele>1207.00</ele>
	<time>2024-03-25T10:10:49.000Z</time>
</trkpt>
<trkpt lat="45.8504170" lon="9.3183970">
	<ele>1207.20</ele>
	<time>2024-03-25T10:10:50.000Z</time>
</trkpt>
<trkpt lat="45.8504080" lon="9.3183870">
	<ele>1207.40</ele>
	<time>2024-03-25T10:10:51.000Z</time>
</trkpt>
<trkpt lat="45.8504010" lon="9.3183780">
	<ele>1207.40</ele>
	<time>2024-03-25T10:10:52.000Z</time>
</trkpt>
<trkpt lat="45.8503950" lon="9.3183710">
	<ele>1207.60</ele>
	<time>2024-03-25T10:10:53.000Z</time>
</trkpt>
<trkpt lat="45.8503910" lon="9.3183670">
	<ele>1207.60</ele>
	<time>2024-03-25T10:10:54.000Z</time>
</trkpt>
<trkpt lat="45.8503840" lon="9.3183640">
	<ele>1207.80</ele>
	<time>2024-03-25T10:10:55.000Z</time>
</trkpt>
<trkpt lat="45.8503820" lon="9.3183620">
	<ele>1207.80</ele>
	<time>2024-03-25T10:10:56.000Z</time>
</trkpt>
<trkpt lat="45.8503800" lon="9.3183610">
	<ele>1207.80</ele>
	<time>2024-03-25T10:10:57.000Z</time>
</trkpt>
<trkpt lat="45.8503790" lon="9.3183610">
	<ele>1207.80</ele>
	<time>2024-03-25T10:10:58.000Z</time>
</trkpt>
<trkpt lat="45.8503780" lon="9.3183590">
	<ele>1207.80</ele>
	<time>2024-03-25T10:10:59.000Z</time>
</trkpt>
<trkpt lat="45.8503780" lon="9.3183580">
	<ele>1208.00</ele>
	<time>2024-03-25T10:11:00.000Z</time>
</trkpt>
<trkpt lat="45.8503780" lon="9.3183570">
	<ele>1208.00</ele>
	<time>2024-03-25T10:11:01.000Z</time>
</trkpt>
<trkpt lat="45.8503750" lon="9.3183580">
	<ele>1208.00</ele>
	<time>2024-03-25T10:11:02.000Z</time>
</trkpt>
<trkpt lat="45.8503720" lon="9.3183600">
	<ele>1208.00</ele>
	<time>2024-03-25T10:11:03.000Z</time>
</trkpt>
<trkpt lat="45.8503700" lon="9.3183580">
	<ele>1208.00</ele>
	<time>2024-03-25T10:11:04.000Z</time>
</trkpt>
<trkpt lat="45.8503670" lon="9.3183600">
	<ele>1208.00</ele>
	<time>2024-03-25T10:11:05.000Z</time>
</trkpt>
<trkpt lat="45.8503640" lon="9.3183600">
	<ele>1208.00</ele>
	<time>2024-03-25T10:11:06.000Z</time>
</trkpt>
<trkpt lat="45.8503610" lon="9.3183580">
	<ele>1208.00</ele>
	<time>2024-03-25T10:11:07.000Z</time>
</trkpt>
<trkpt lat="45.8503610" lon="9.3183560">
	<ele>1208.00</ele>
	<time>2024-03-25T10:11:08.000Z</time>
</trkpt>
<trkpt lat="45.8503610" lon="9.3183560">
	<ele>1208.00</ele>
	<time>2024-03-25T10:11:09.000Z</time>
</trkpt>
<trkpt lat="45.8503610" lon="9.3183560">
	<ele>1208.00</ele>
	<time>2024-03-25T10:11:10.000Z</time>
</trkpt>
<trkpt lat="45.8503610" lon="9.3183560">
	<ele>1208.00</ele>
	<time>2024-03-25T10:11:11.000Z</time>
</trkpt>
<trkpt lat="45.8503610" lon="9.3183560">
	<ele>1208.00</ele>
	<time>2024-03-25T10:11:12.000Z</time>
</trkpt>
<trkpt lat="45.8503610" lon="9.3183560">
	<ele>1208.00</ele>
	<time>2024-03-25T10:11:13.000Z</time>
</trkpt>
<trkpt lat="45.8503610" lon="9.3183560">
	<ele>1208.00</ele>
	<time>2024-03-25T10:11:14.000Z</time>
</trkpt>
<trkpt lat="45.8503610" lon="9.3183560">
	<ele>1208.00</ele>
	<time>2024-03-25T10:11:15.000Z</time>
</trkpt>
<trkpt lat="45.8503610" lon="9.3183560">
	<ele>1208.00</ele>
	<time>2024-03-25T10:11:16.000Z</time>
</trkpt>
<trkpt lat="45.8503610" lon="9.3183560">
	<ele>1208.00</ele>
	<time>2024-03-25T10:11:17.000Z</time>
</trkpt>
<trkpt lat="45.8503610" lon="9.3183560">
	<ele>1208.00</ele>
	<time>2024-03-25T10:11:18.000Z</time>
</trkpt>
<trkpt lat="45.8503610" lon="9.3183560">
	<ele>1208.00</ele>
	<time>2024-03-25T10:11:19.000Z</time>
</trkpt>
<trkpt lat="45.8503610" lon="9.3183560">
	<ele>1208.00</ele>
	<time>2024-03-25T10:11:20.000Z</time>
</trkpt>
<trkpt lat="45.8503610" lon="9.3183560">
	<ele>1207.80</ele>
	<time>2024-03-25T10:11:21.000Z</time>
</trkpt>
<trkpt lat="45.8503610" lon="9.3183560">
	<ele>1207.80</ele>
	<time>2024-03-25T10:11:22.000Z</time>
</trkpt>
<trkpt lat="45.8503610" lon="9.3183560">
	<ele>1207.80</ele>
	<time>2024-03-25T10:11:23.000Z</time>
</trkpt>
<trkpt lat="45.8503610" lon="9.3183560">
	<ele>1207.80</ele>
	<time>2024-03-25T10:11:24.000Z</time>
</trkpt>
<trkpt lat="45.8503610" lon="9.3183560">
	<ele>1207.80</ele>
	<time>2024-03-25T10:11:25.000Z</time>
</trkpt>
<trkpt lat="45.8503610" lon="9.3183560">
	<ele>1207.80</ele>
	<time>2024-03-25T10:11:26.000Z</time>
</trkpt>
<trkpt lat="45.8503610" lon="9.3183560">
	<ele>1207.80</ele>
	<time>2024-03-25T10:11:27.000Z</time>
</trkpt>
<trkpt lat="45.8503610" lon="9.3183560">
	<ele>1207.80</ele>
	<time>2024-03-25T10:11:28.000Z</time>
</trkpt>
<trkpt lat="45.8503610" lon="9.3183560">
	<ele>1208.00</ele>
	<time>2024-03-25T10:11:29.000Z</time>
</trkpt>
<trkpt lat="45.8503610" lon="9.3183560">
	<ele>1208.00</ele>
	<time>2024-03-25T10:11:30.000Z</time>
</trkpt>
<trkpt lat="45.8503610" lon="9.3183560">
	<ele>1208.00</ele>
	<time>2024-03-25T10:11:31.000Z</time>
</trkpt>
<trkpt lat="45.8503610" lon="9.3183560">
	<ele>1208.20</ele>
	<time>2024-03-25T10:11:32.000Z</time>
</trkpt>
<trkpt lat="45.8503610" lon="9.3183560">
	<ele>1208.60</ele>
	<time>2024-03-25T10:11:33.000Z</time>
</trkpt>
<trkpt lat="45.8503610" lon="9.3183560">
	<ele>1208.80</ele>
	<time>2024-03-25T10:11:34.000Z</time>
</trkpt>
<trkpt lat="45.8503600" lon="9.3183560">
	<ele>1208.80</ele>
	<time>2024-03-25T10:11:35.000Z</time>
</trkpt>
<trkpt lat="45.8503590" lon="9.3183560">
	<ele>1208.80</ele>
	<time>2024-03-25T10:11:36.000Z</time>
</trkpt>
<trkpt lat="45.8503590" lon="9.3183560">
	<ele>1208.80</ele>
	<time>2024-03-25T10:11:37.000Z</time>
</trkpt>
<trkpt lat="45.8503580" lon="9.3183550">
	<ele>1209.00</ele>
	<time>2024-03-25T10:11:38.000Z</time>
</trkpt>
<trkpt lat="45.8503570" lon="9.3183550">
	<ele>1208.80</ele>
	<time>2024-03-25T10:11:39.000Z</time>
</trkpt>
<trkpt lat="45.8503540" lon="9.3183550">
	<ele>1208.80</ele>
	<time>2024-03-25T10:11:40.000Z</time>
</trkpt>
<trkpt lat="45.8503520" lon="9.3183550">
	<ele>1208.80</ele>
	<time>2024-03-25T10:11:41.000Z</time>
</trkpt>
<trkpt lat="45.8503520" lon="9.3183540">
	<ele>1209.00</ele>
	<time>2024-03-25T10:11:42.000Z</time>
</trkpt>
<trkpt lat="45.8503520" lon="9.3183540">
	<ele>1209.00</ele>
	<time>2024-03-25T10:11:43.000Z</time>
</trkpt>
<trkpt lat="45.8503520" lon="9.3183530">
	<ele>1209.00</ele>
	<time>2024-03-25T10:11:44.000Z</time>
</trkpt>
<trkpt lat="45.8503520" lon="9.3183530">
	<ele>1209.00</ele>
	<time>2024-03-25T10:11:45.000Z</time>
</trkpt>
<trkpt lat="45.8503520" lon="9.3183530">
	<ele>1209.20</ele>
	<time>2024-03-25T10:11:46.000Z</time>
</trkpt>
<trkpt lat="45.8503520" lon="9.3183520">
	<ele>1209.20</ele>
	<time>2024-03-25T10:11:47.000Z</time>
</trkpt>
<trkpt lat="45.8503520" lon="9.3183510">
	<ele>1209.20</ele>
	<time>2024-03-25T10:11:48.000Z</time>
</trkpt>
<trkpt lat="45.8503520" lon="9.3183460">
	<ele>1209.00</ele>
	<time>2024-03-25T10:11:49.000Z</time>
</trkpt>
<trkpt lat="45.8503520" lon="9.3183420">
	<ele>1209.00</ele>
	<time>2024-03-25T10:11:50.000Z</time>
</trkpt>
<trkpt lat="45.8503520" lon="9.3183400">
	<ele>1209.00</ele>
	<time>2024-03-25T10:11:51.000Z</time>
</trkpt>
<trkpt lat="45.8503520" lon="9.3183380">
	<ele>1209.00</ele>
	<time>2024-03-25T10:11:52.000Z</time>
</trkpt>
<trkpt lat="45.8503520" lon="9.3183370">
	<ele>1209.00</ele>
	<time>2024-03-25T10:11:53.000Z</time>
</trkpt>
<trkpt lat="45.8503520" lon="9.3183370">
	<ele>1209.20</ele>
	<time>2024-03-25T10:11:54.000Z</time>
</trkpt>
<trkpt lat="45.8503520" lon="9.3183370">
	<ele>1209.20</ele>
	<time>2024-03-25T10:11:55.000Z</time>
</trkpt>
<trkpt lat="45.8503520" lon="9.3183370">
	<ele>1209.20</ele>
	<time>2024-03-25T10:11:56.000Z</time>
</trkpt>
<trkpt lat="45.8503520" lon="9.3183370">
	<ele>1209.20</ele>
	<time>2024-03-25T10:11:57.000Z</time>
</trkpt>
<trkpt lat="45.8503520" lon="9.3183370">
	<ele>1209.40</ele>
	<time>2024-03-25T10:11:58.000Z</time>
</trkpt>
<trkpt lat="45.8503520" lon="9.3183370">
	<ele>1209.40</ele>
	<time>2024-03-25T10:11:59.000Z</time>
</trkpt>
<trkpt lat="45.8503520" lon="9.3183370">
	<ele>1209.40</ele>
	<time>2024-03-25T10:12:00.000Z</time>
</trkpt>
<trkpt lat="45.8503520" lon="9.3183370">
	<ele>1209.20</ele>
	<time>2024-03-25T10:12:01.000Z</time>
</trkpt>
<trkpt lat="45.8503520" lon="9.3183370">
	<ele>1209.20</ele>
	<time>2024-03-25T10:12:02.000Z</time>
</trkpt>
<trkpt lat="45.8503520" lon="9.3183370">
	<ele>1209.00</ele>
	<time>2024-03-25T10:12:03.000Z</time>
</trkpt>
<trkpt lat="45.8503520" lon="9.3183370">
	<ele>1209.00</ele>
	<time>2024-03-25T10:12:04.000Z</time>
</trkpt>
<trkpt lat="45.8503520" lon="9.3183370">
	<ele>1209.00</ele>
	<time>2024-03-25T10:12:05.000Z</time>
</trkpt>
<trkpt lat="45.8503520" lon="9.3183370">
	<ele>1209.00</ele>
	<time>2024-03-25T10:12:06.000Z</time>
</trkpt>
<trkpt lat="45.8503520" lon="9.3183380">
	<ele>1209.00</ele>
	<time>2024-03-25T10:12:07.000Z</time>
</trkpt>
<trkpt lat="45.8503520" lon="9.3183380">
	<ele>1209.20</ele>
	<time>2024-03-25T10:12:08.000Z</time>
</trkpt>
<trkpt lat="45.8503520" lon="9.3183390">
	<ele>1209.20</ele>
	<time>2024-03-25T10:12:09.000Z</time>
</trkpt>
<trkpt lat="45.8503520" lon="9.3183390">
	<ele>1209.20</ele>
	<time>2024-03-25T10:12:10.000Z</time>
</trkpt>
<trkpt lat="45.8503500" lon="9.3183390">
	<ele>1209.40</ele>
	<time>2024-03-25T10:12:11.000Z</time>
</trkpt>
<trkpt lat="45.8503490" lon="9.3183390">
	<ele>1209.20</ele>
	<time>2024-03-25T10:12:12.000Z</time>
</trkpt>
<trkpt lat="45.8503480" lon="9.3183390">
	<ele>1209.20</ele>
	<time>2024-03-25T10:12:13.000Z</time>
</trkpt>
<trkpt lat="45.8503470" lon="9.3183390">
	<ele>1209.20</ele>
	<time>2024-03-25T10:12:14.000Z</time>
</trkpt>
<trkpt lat="45.8503470" lon="9.3183390">
	<ele>1209.40</ele>
	<time>2024-03-25T10:12:15.000Z</time>
</trkpt>
<trkpt lat="45.8503470" lon="9.3183390">
	<ele>1209.40</ele>
	<time>2024-03-25T10:12:16.000Z</time>
</trkpt>
<trkpt lat="45.8503470" lon="9.3183390">
	<ele>1209.40</ele>
	<time>2024-03-25T10:12:17.000Z</time>
</trkpt>
<trkpt lat="45.8503470" lon="9.3183390">
	<ele>1209.40</ele>
	<time>2024-03-25T10:12:18.000Z</time>
</trkpt>
<trkpt lat="45.8503470" lon="9.3183390">
	<ele>1209.60</ele>
	<time>2024-03-25T10:12:19.000Z</time>
</trkpt>
<trkpt lat="45.8503460" lon="9.3183390">
	<ele>1209.80</ele>
	<time>2024-03-25T10:12:20.000Z</time>
</trkpt>
<trkpt lat="45.8503460" lon="9.3183390">
	<ele>1209.80</ele>
	<time>2024-03-25T10:12:21.000Z</time>
</trkpt>
<trkpt lat="45.8503460" lon="9.3183390">
	<ele>1210.20</ele>
	<time>2024-03-25T10:12:22.000Z</time>
</trkpt>
<trkpt lat="45.8503460" lon="9.3183390">
	<ele>1210.60</ele>
	<time>2024-03-25T10:12:23.000Z</time>
</trkpt>
<trkpt lat="45.8503450" lon="9.3183390">
	<ele>1210.80</ele>
	<time>2024-03-25T10:12:24.000Z</time>
</trkpt>
<trkpt lat="45.8503440" lon="9.3183390">
	<ele>1211.00</ele>
	<time>2024-03-25T10:12:25.000Z</time>
</trkpt>
<trkpt lat="45.8503440" lon="9.3183380">
	<ele>1211.00</ele>
	<time>2024-03-25T10:12:26.000Z</time>
</trkpt>
<trkpt lat="45.8503440" lon="9.3183370">
	<ele>1211.20</ele>
	<time>2024-03-25T10:12:27.000Z</time>
</trkpt>
<trkpt lat="45.8503410" lon="9.3183350">
	<ele>1211.60</ele>
	<time>2024-03-25T10:12:28.000Z</time>
</trkpt>
<trkpt lat="45.8503390" lon="9.3183290">
	<ele>1211.80</ele>
	<time>2024-03-25T10:12:29.000Z</time>
</trkpt>
<trkpt lat="45.8503340" lon="9.3183250">
	<ele>1212.00</ele>
	<time>2024-03-25T10:12:30.000Z</time>
</trkpt>
<trkpt lat="45.8503290" lon="9.3183240">
	<ele>1212.20</ele>
	<time>2024-03-25T10:12:31.000Z</time>
</trkpt>
<trkpt lat="45.8503220" lon="9.3183230">
	<ele>1212.60</ele>
	<time>2024-03-25T10:12:32.000Z</time>
</trkpt>
<trkpt lat="45.8503170" lon="9.3183230">
	<ele>1212.80</ele>
	<time>2024-03-25T10:12:33.000Z</time>
</trkpt>
<trkpt lat="45.8503140" lon="9.3183230">
	<ele>1213.00</ele>
	<time>2024-03-25T10:12:34.000Z</time>
</trkpt>
<trkpt lat="45.8503100" lon="9.3183230">
	<ele>1213.40</ele>
	<time>2024-03-25T10:12:35.000Z</time>
</trkpt>
<trkpt lat="45.8503060" lon="9.3183230">
	<ele>1213.40</ele>
	<time>2024-03-25T10:12:36.000Z</time>
</trkpt>
<trkpt lat="45.8503010" lon="9.3183230">
	<ele>1213.60</ele>
	<time>2024-03-25T10:12:37.000Z</time>
</trkpt>
<trkpt lat="45.8502960" lon="9.3183230">
	<ele>1214.00</ele>
	<time>2024-03-25T10:12:38.000Z</time>
</trkpt>
<trkpt lat="45.8502900" lon="9.3183230">
	<ele>1214.20</ele>
	<time>2024-03-25T10:12:39.000Z</time>
</trkpt>
<trkpt lat="45.8502840" lon="9.3183230">
	<ele>1214.40</ele>
	<time>2024-03-25T10:12:40.000Z</time>
</trkpt>
<trkpt lat="45.8502790" lon="9.3183230">
	<ele>1214.60</ele>
	<time>2024-03-25T10:12:41.000Z</time>
</trkpt>
<trkpt lat="45.8502750" lon="9.3183230">
	<ele>1215.00</ele>
	<time>2024-03-25T10:12:42.000Z</time>
</trkpt>
<trkpt lat="45.8502710" lon="9.3183230">
	<ele>1215.20</ele>
	<time>2024-03-25T10:12:43.000Z</time>
</trkpt>
<trkpt lat="45.8502670" lon="9.3183230">
	<ele>1215.60</ele>
	<time>2024-03-25T10:12:44.000Z</time>
</trkpt>
<trkpt lat="45.8502630" lon="9.3183250">
	<ele>1215.80</ele>
	<time>2024-03-25T10:12:45.000Z</time>
</trkpt>
<trkpt lat="45.8502580" lon="9.3183310">
	<ele>1216.00</ele>
	<time>2024-03-25T10:12:46.000Z</time>
</trkpt>
<trkpt lat="45.8502530" lon="9.3183380">
	<ele>1216.40</ele>
	<time>2024-03-25T10:12:47.000Z</time>
</trkpt>
<trkpt lat="45.8502470" lon="9.3183440">
	<ele>1216.40</ele>
	<time>2024-03-25T10:12:48.000Z</time>
</trkpt>
<trkpt lat="45.8502420" lon="9.3183510">
	<ele>1216.60</ele>
	<time>2024-03-25T10:12:49.000Z</time>
</trkpt>
<trkpt lat="45.8502380" lon="9.3183560">
	<ele>1216.60</ele>
	<time>2024-03-25T10:12:50.000Z</time>
</trkpt>
<trkpt lat="45.8502320" lon="9.3183600">
	<ele>1216.60</ele>
	<time>2024-03-25T10:12:51.000Z</time>
</trkpt>
<trkpt lat="45.8502280" lon="9.3183640">
	<ele>1216.60</ele>
	<time>2024-03-25T10:12:52.000Z</time>
</trkpt>
<trkpt lat="45.8502240" lon="9.3183680">
	<ele>1216.80</ele>
	<time>2024-03-25T10:12:53.000Z</time>
</trkpt>
<trkpt lat="45.8502200" lon="9.3183730">
	<ele>1216.80</ele>
	<time>2024-03-25T10:12:54.000Z</time>
</trkpt>
<trkpt lat="45.8502140" lon="9.3183800">
	<ele>1216.80</ele>
	<time>2024-03-25T10:12:55.000Z</time>
</trkpt>
<trkpt lat="45.8502100" lon="9.3183860">
	<ele>1216.80</ele>
	<time>2024-03-25T10:12:56.000Z</time>
</trkpt>
<trkpt lat="45.8502060" lon="9.3183910">
	<ele>1216.80</ele>
	<time>2024-03-25T10:12:57.000Z</time>
</trkpt>
<trkpt lat="45.8502030" lon="9.3183960">
	<ele>1217.00</ele>
	<time>2024-03-25T10:12:58.000Z</time>
</trkpt>
<trkpt lat="45.8502000" lon="9.3184000">
	<ele>1217.00</ele>
	<time>2024-03-25T10:12:59.000Z</time>
</trkpt>
<trkpt lat="45.8501970" lon="9.3184030">
	<ele>1217.20</ele>
	<time>2024-03-25T10:13:00.000Z</time>
</trkpt>
<trkpt lat="45.8501950" lon="9.3184050">
	<ele>1217.20</ele>
	<time>2024-03-25T10:13:01.000Z</time>
</trkpt>
<trkpt lat="45.8501940" lon="9.3184060">
	<ele>1217.20</ele>
	<time>2024-03-25T10:13:02.000Z</time>
</trkpt>
<trkpt lat="45.8501930" lon="9.3184060">
	<ele>1217.20</ele>
	<time>2024-03-25T10:13:03.000Z</time>
</trkpt>
<trkpt lat="45.8501930" lon="9.3184070">
	<ele>1217.20</ele>
	<time>2024-03-25T10:13:04.000Z</time>
</trkpt>
<trkpt lat="45.8501930" lon="9.3184070">
	<ele>1217.20</ele>
	<time>2024-03-25T10:13:05.000Z</time>
</trkpt>
<trkpt lat="45.8501930" lon="9.3184080">
	<ele>1217.20</ele>
	<time>2024-03-25T10:13:06.000Z</time>
</trkpt>
<trkpt lat="45.8501930" lon="9.3184080">
	<ele>1217.20</ele>
	<time>2024-03-25T10:13:07.000Z</time>
</trkpt>
<trkpt lat="45.8501930" lon="9.3184080">
	<ele>1217.00</ele>
	<time>2024-03-25T10:13:08.000Z</time>
</trkpt>
<trkpt lat="45.8501930" lon="9.3184080">
	<ele>1217.00</ele>
	<time>2024-03-25T10:13:09.000Z</time>
</trkpt>
<trkpt lat="45.8501930" lon="9.3184080">
	<ele>1217.00</ele>
	<time>2024-03-25T10:13:10.000Z</time>
</trkpt>
<trkpt lat="45.8501930" lon="9.3184080">
	<ele>1217.00</ele>
	<time>2024-03-25T10:13:11.000Z</time>
</trkpt>
<trkpt lat="45.8501930" lon="9.3184080">
	<ele>1217.20</ele>
	<time>2024-03-25T10:13:12.000Z</time>
</trkpt>
<trkpt lat="45.8501930" lon="9.3184080">
	<ele>1217.40</ele>
	<time>2024-03-25T10:13:13.000Z</time>
</trkpt>
<trkpt lat="45.8501930" lon="9.3184080">
	<ele>1217.40</ele>
	<time>2024-03-25T10:13:14.000Z</time>
</trkpt>
<trkpt lat="45.8501930" lon="9.3184080">
	<ele>1217.40</ele>
	<time>2024-03-25T10:13:15.000Z</time>
</trkpt>
<trkpt lat="45.8501930" lon="9.3184080">
	<ele>1217.40</ele>
	<time>2024-03-25T10:13:16.000Z</time>
</trkpt>
<trkpt lat="45.8501940" lon="9.3184080">
	<ele>1217.40</ele>
	<time>2024-03-25T10:13:17.000Z</time>
</trkpt>
<trkpt lat="45.8501950" lon="9.3184070">
	<ele>1217.40</ele>
	<time>2024-03-25T10:13:18.000Z</time>
</trkpt>
<trkpt lat="45.8501960" lon="9.3184070">
	<ele>1217.40</ele>
	<time>2024-03-25T10:13:19.000Z</time>
</trkpt>
<trkpt lat="45.8501960" lon="9.3184070">
	<ele>1217.40</ele>
	<time>2024-03-25T10:13:20.000Z</time>
</trkpt>
<trkpt lat="45.8501970" lon="9.3184070">
	<ele>1217.40</ele>
	<time>2024-03-25T10:13:21.000Z</time>
</trkpt>
<trkpt lat="45.8501980" lon="9.3184070">
	<ele>1217.40</ele>
	<time>2024-03-25T10:13:22.000Z</time>
</trkpt>
<trkpt lat="45.8501990" lon="9.3184070">
	<ele>1217.40</ele>
	<time>2024-03-25T10:13:23.000Z</time>
</trkpt>
<trkpt lat="45.8501990" lon="9.3184060">
	<ele>1217.40</ele>
	<time>2024-03-25T10:13:24.000Z</time>
</trkpt>
<trkpt lat="45.8501990" lon="9.3184050">
	<ele>1217.40</ele>
	<time>2024-03-25T10:13:25.000Z</time>
</trkpt>
<trkpt lat="45.8502000" lon="9.3184040">
	<ele>1217.40</ele>
	<time>2024-03-25T10:13:26.000Z</time>
</trkpt>
<trkpt lat="45.8502000" lon="9.3184030">
	<ele>1217.40</ele>
	<time>2024-03-25T10:13:27.000Z</time>
</trkpt>
<trkpt lat="45.8502000" lon="9.3184020">
	<ele>1217.40</ele>
	<time>2024-03-25T10:13:28.000Z</time>
</trkpt>
<trkpt lat="45.8502010" lon="9.3184020">
	<ele>1217.40</ele>
	<time>2024-03-25T10:13:29.000Z</time>
</trkpt>
<trkpt lat="45.8502010" lon="9.3184010">
	<ele>1217.40</ele>
	<time>2024-03-25T10:13:30.000Z</time>
</trkpt>
<trkpt lat="45.8502010" lon="9.3184010">
	<ele>1217.40</ele>
	<time>2024-03-25T10:13:31.000Z</time>
</trkpt>
<trkpt lat="45.8502020" lon="9.3184000">
	<ele>1217.40</ele>
	<time>2024-03-25T10:13:32.000Z</time>
</trkpt>
<trkpt lat="45.8502020" lon="9.3184000">
	<ele>1217.60</ele>
	<time>2024-03-25T10:13:33.000Z</time>
</trkpt>
<trkpt lat="45.8502020" lon="9.3184000">
	<ele>1217.60</ele>
	<time>2024-03-25T10:13:34.000Z</time>
</trkpt>
<trkpt lat="45.8502020" lon="9.3184000">
	<ele>1217.60</ele>
	<time>2024-03-25T10:13:35.000Z</time>
</trkpt>
<trkpt lat="45.8502030" lon="9.3184000">
	<ele>1217.60</ele>
	<time>2024-03-25T10:13:36.000Z</time>
</trkpt>
<trkpt lat="45.8502030" lon="9.3183990">
	<ele>1217.60</ele>
	<time>2024-03-25T10:13:37.000Z</time>
</trkpt>
<trkpt lat="45.8502030" lon="9.3183990">
	<ele>1217.80</ele>
	<time>2024-03-25T10:13:38.000Z</time>
</trkpt>
<trkpt lat="45.8502030" lon="9.3183990">
	<ele>1217.80</ele>
	<time>2024-03-25T10:13:39.000Z</time>
</trkpt>
<trkpt lat="45.8502040" lon="9.3183980">
	<ele>1217.80</ele>
	<time>2024-03-25T10:13:40.000Z</time>
</trkpt>
<trkpt lat="45.8502040" lon="9.3183980">
	<ele>1217.80</ele>
	<time>2024-03-25T10:13:41.000Z</time>
</trkpt>
<trkpt lat="45.8502040" lon="9.3183970">
	<ele>1217.80</ele>
	<time>2024-03-25T10:13:42.000Z</time>
</trkpt>
<trkpt lat="45.8502040" lon="9.3183970">
	<ele>1217.80</ele>
	<time>2024-03-25T10:13:43.000Z</time>
</trkpt>
<trkpt lat="45.8502040" lon="9.3183970">
	<ele>1217.80</ele>
	<time>2024-03-25T10:13:44.000Z</time>
</trkpt>
<trkpt lat="45.8502040" lon="9.3183970">
	<ele>1217.80</ele>
	<time>2024-03-25T10:13:45.000Z</time>
</trkpt>
<trkpt lat="45.8502050" lon="9.3183960">
	<ele>1217.80</ele>
	<time>2024-03-25T10:13:46.000Z</time>
</trkpt>
<trkpt lat="45.8502060" lon="9.3183960">
	<ele>1217.60</ele>
	<time>2024-03-25T10:13:47.000Z</time>
</trkpt>
<trkpt lat="45.8502070" lon="9.3183960">
	<ele>1217.60</ele>
	<time>2024-03-25T10:13:48.000Z</time>
</trkpt>
<trkpt lat="45.8502090" lon="9.3183950">
	<ele>1217.60</ele>
	<time>2024-03-25T10:13:49.000Z</time>
</trkpt>
<trkpt lat="45.8502100" lon="9.3183940">
	<ele>1217.60</ele>
	<time>2024-03-25T10:13:50.000Z</time>
</trkpt>
<trkpt lat="45.8502120" lon="9.3183940">
	<ele>1217.60</ele>
	<time>2024-03-25T10:13:51.000Z</time>
</trkpt>
<trkpt lat="45.8502130" lon="9.3183930">
	<ele>1217.60</ele>
	<time>2024-03-25T10:13:52.000Z</time>
</trkpt>
<trkpt lat="45.8502140" lon="9.3183930">
	<ele>1217.60</ele>
	<time>2024-03-25T10:13:53.000Z</time>
</trkpt>
<trkpt lat="45.8502150" lon="9.3183920">
	<ele>1217.60</ele>
	<time>2024-03-25T10:13:54.000Z</time>
</trkpt>
<trkpt lat="45.8502170" lon="9.3183920">
	<ele>1217.60</ele>
	<time>2024-03-25T10:13:55.000Z</time>
</trkpt>
<trkpt lat="45.8502180" lon="9.3183920">
	<ele>1217.60</ele>
	<time>2024-03-25T10:13:56.000Z</time>
</trkpt>
<trkpt lat="45.8502190" lon="9.3183910">
	<ele>1217.60</ele>
	<time>2024-03-25T10:13:57.000Z</time>
</trkpt>
<trkpt lat="45.8502210" lon="9.3183910">
	<ele>1217.60</ele>
	<time>2024-03-25T10:13:58.000Z</time>
</trkpt>
<trkpt lat="45.8502220" lon="9.3183910">
	<ele>1217.80</ele>
	<time>2024-03-25T10:13:59.000Z</time>
</trkpt>
<trkpt lat="45.8502230" lon="9.3183910">
	<ele>1217.80</ele>
	<time>2024-03-25T10:14:00.000Z</time>
</trkpt>
<trkpt lat="45.8502230" lon="9.3183900">
	<ele>1217.80</ele>
	<time>2024-03-25T10:14:01.000Z</time>
</trkpt>
<trkpt lat="45.8502240" lon="9.3183900">
	<ele>1217.80</ele>
	<time>2024-03-25T10:14:02.000Z</time>
</trkpt>
<trkpt lat="45.8502250" lon="9.3183900">
	<ele>1218.00</ele>
	<time>2024-03-25T10:14:03.000Z</time>
</trkpt>
<trkpt lat="45.8502250" lon="9.3183900">
	<ele>1218.00</ele>
	<time>2024-03-25T10:14:04.000Z</time>
</trkpt>
<trkpt lat="45.8502250" lon="9.3183900">
	<ele>1218.20</ele>
	<time>2024-03-25T10:14:05.000Z</time>
</trkpt>
<trkpt lat="45.8502260" lon="9.3183900">
	<ele>1218.60</ele>
	<time>2024-03-25T10:14:06.000Z</time>
</trkpt>
<trkpt lat="45.8502260" lon="9.3183900">
	<ele>1218.80</ele>
	<time>2024-03-25T10:14:07.000Z</time>
</trkpt>
<trkpt lat="45.8502260" lon="9.3183900">
	<ele>1219.00</ele>
	<time>2024-03-25T10:14:08.000Z</time>
</trkpt>
<trkpt lat="45.8502260" lon="9.3183900">
	<ele>1219.60</ele>
	<time>2024-03-25T10:14:09.000Z</time>
</trkpt>
<trkpt lat="45.8502270" lon="9.3183900">
	<ele>1219.80</ele>
	<time>2024-03-25T10:14:10.000Z</time>
</trkpt>
<trkpt lat="45.8502270" lon="9.3183900">
	<ele>1220.00</ele>
	<time>2024-03-25T10:14:11.000Z</time>
</trkpt>
<trkpt lat="45.8502270" lon="9.3183900">
	<ele>1220.20</ele>
	<time>2024-03-25T10:14:12.000Z</time>
</trkpt>
<trkpt lat="45.8502270" lon="9.3183900">
	<ele>1220.40</ele>
	<time>2024-03-25T10:14:13.000Z</time>
</trkpt>
<trkpt lat="45.8502270" lon="9.3183910">
	<ele>1220.60</ele>
	<time>2024-03-25T10:14:14.000Z</time>
</trkpt>
<trkpt lat="45.8502270" lon="9.3183920">
	<ele>1220.80</ele>
	<time>2024-03-25T10:14:15.000Z</time>
</trkpt>
<trkpt lat="45.8502270" lon="9.3183940">
	<ele>1221.00</ele>
	<time>2024-03-25T10:14:16.000Z</time>
</trkpt>
<trkpt lat="45.8502260" lon="9.3183960">
	<ele>1221.20</ele>
	<time>2024-03-25T10:14:17.000Z</time>
</trkpt>
<trkpt lat="45.8502250" lon="9.3183980">
	<ele>1221.80</ele>
	<time>2024-03-25T10:14:18.000Z</time>
</trkpt>
<trkpt lat="45.8502240" lon="9.3184010">
	<ele>1222.00</ele>
	<time>2024-03-25T10:14:19.000Z</time>
</trkpt>
<trkpt lat="45.8502230" lon="9.3184030">
	<ele>1222.20</ele>
	<time>2024-03-25T10:14:20.000Z</time>
</trkpt>
<trkpt lat="45.8502220" lon="9.3184060">
	<ele>1222.40</ele>
	<time>2024-03-25T10:14:21.000Z</time>
</trkpt>
<trkpt lat="45.8502200" lon="9.3184080">
	<ele>1222.80</ele>
	<time>2024-03-25T10:14:22.000Z</time>
</trkpt>
<trkpt lat="45.8502190" lon="9.3184100">
	<ele>1223.00</ele>
	<time>2024-03-25T10:14:23.000Z</time>
</trkpt>
<trkpt lat="45.8502180" lon="9.3184120">
	<ele>1223.20</ele>
	<time>2024-03-25T10:14:24.000Z</time>
</trkpt>
<trkpt lat="45.8502170" lon="9.3184140">
	<ele>1223.40</ele>
	<time>2024-03-25T10:14:25.000Z</time>
</trkpt>
<trkpt lat="45.8502160" lon="9.3184150">
	<ele>1223.40</ele>
	<time>2024-03-25T10:14:26.000Z</time>
</trkpt>
<trkpt lat="45.8502150" lon="9.3184170">
	<ele>1223.40</ele>
	<time>2024-03-25T10:14:27.000Z</time>
</trkpt>
<trkpt lat="45.8502140" lon="9.3184180">
	<ele>1223.40</ele>
	<time>2024-03-25T10:14:28.000Z</time>
</trkpt>
<trkpt lat="45.8502140" lon="9.3184180">
	<ele>1223.60</ele>
	<time>2024-03-25T10:14:29.000Z</time>
</trkpt>
<trkpt lat="45.8502130" lon="9.3184180">
	<ele>1223.60</ele>
	<time>2024-03-25T10:14:30.000Z</time>
</trkpt>
<trkpt lat="45.8502130" lon="9.3184190">
	<ele>1223.60</ele>
	<time>2024-03-25T10:14:31.000Z</time>
</trkpt>
<trkpt lat="45.8502130" lon="9.3184190">
	<ele>1223.60</ele>
	<time>2024-03-25T10:14:32.000Z</time>
</trkpt>
<trkpt lat="45.8502130" lon="9.3184190">
	<ele>1223.80</ele>
	<time>2024-03-25T10:14:33.000Z</time>
</trkpt>
<trkpt lat="45.8502120" lon="9.3184190">
	<ele>1223.80</ele>
	<time>2024-03-25T10:14:34.000Z</time>
</trkpt>
<trkpt lat="45.8502120" lon="9.3184200">
	<ele>1223.80</ele>
	<time>2024-03-25T10:14:35.000Z</time>
</trkpt>
<trkpt lat="45.8502120" lon="9.3184200">
	<ele>1223.80</ele>
	<time>2024-03-25T10:14:36.000Z</time>
</trkpt>
<trkpt lat="45.8502120" lon="9.3184200">
	<ele>1223.80</ele>
	<time>2024-03-25T10:14:37.000Z</time>
</trkpt>
<trkpt lat="45.8502110" lon="9.3184200">
	<ele>1223.80</ele>
	<time>2024-03-25T10:14:38.000Z</time>
</trkpt>
<trkpt lat="45.8502110" lon="9.3184210">
	<ele>1223.80</ele>
	<time>2024-03-25T10:14:39.000Z</time>
</trkpt>
<trkpt lat="45.8502110" lon="9.3184210">
	<ele>1224.20</ele>
	<time>2024-03-25T10:14:40.000Z</time>
</trkpt>
<trkpt lat="45.8502100" lon="9.3184210">
	<ele>1224.40</ele>
	<time>2024-03-25T10:14:41.000Z</time>
</trkpt>
<trkpt lat="45.8502100" lon="9.3184210">
	<ele>1224.60</ele>
	<time>2024-03-25T10:14:42.000Z</time>
</trkpt>
<trkpt lat="45.8502100" lon="9.3184210">
	<ele>1224.60</ele>
	<time>2024-03-25T10:14:43.000Z</time>
</trkpt>
<trkpt lat="45.8502100" lon="9.3184220">
	<ele>1224.60</ele>
	<time>2024-03-25T10:14:44.000Z</time>
</trkpt>
<trkpt lat="45.8501940" lon="9.3184350">
	<ele>1224.60</ele>
	<time>2024-03-25T10:14:45.000Z</time>
</trkpt>
<trkpt lat="45.8501680" lon="9.3184500">
	<ele>1224.60</ele>
	<time>2024-03-25T10:14:46.000Z</time>
</trkpt>
<trkpt lat="45.8501450" lon="9.3184660">
	<ele>1224.60</ele>
	<time>2024-03-25T10:14:47.000Z</time>
</trkpt>
<trkpt lat="45.8501240" lon="9.3184810">
	<ele>1224.80</ele>
	<time>2024-03-25T10:14:48.000Z</time>
</trkpt>
<trkpt lat="45.8500980" lon="9.3184920">
	<ele>1225.00</ele>
	<time>2024-03-25T10:14:49.000Z</time>
</trkpt>
<trkpt lat="45.8500730" lon="9.3185010">
	<ele>1225.00</ele>
	<time>2024-03-25T10:14:50.000Z</time>
</trkpt>
<trkpt lat="45.8500480" lon="9.3185070">
	<ele>1225.40</ele>
	<time>2024-03-25T10:14:51.000Z</time>
</trkpt>
<trkpt lat="45.8500240" lon="9.3185160">
	<ele>1225.60</ele>
	<time>2024-03-25T10:14:52.000Z</time>
</trkpt>
<trkpt lat="45.8500020" lon="9.3185280">
	<ele>1225.80</ele>
	<time>2024-03-25T10:14:53.000Z</time>
</trkpt>
<trkpt lat="45.8499790" lon="9.3185390">
	<ele>1226.00</ele>
	<time>2024-03-25T10:14:54.000Z</time>
</trkpt>
<trkpt lat="45.8499670" lon="9.3185380">
	<ele>1226.00</ele>
	<time>2024-03-25T10:14:55.000Z</time>
</trkpt>
<trkpt lat="45.8499580" lon="9.3185380">
	<ele>1226.20</ele>
	<time>2024-03-25T10:14:56.000Z</time>
</trkpt>
<trkpt lat="45.8499490" lon="9.3185370">
	<ele>1226.40</ele>
	<time>2024-03-25T10:14:57.000Z</time>
</trkpt>
<trkpt lat="45.8499400" lon="9.3185390">
	<ele>1226.40</ele>
	<time>2024-03-25T10:14:58.000Z</time>
</trkpt>
<trkpt lat="45.8499340" lon="9.3185410">
	<ele>1226.60</ele>
	<time>2024-03-25T10:14:59.000Z</time>
</trkpt>
<trkpt lat="45.8499260" lon="9.3185410">
	<ele>1226.80</ele>
	<time>2024-03-25T10:15:00.000Z</time>
</trkpt>
<trkpt lat="45.8499170" lon="9.3185400">
	<ele>1227.00</ele>
	<time>2024-03-25T10:15:01.000Z</time>
</trkpt>
<trkpt lat="45.8499100" lon="9.3185390">
	<ele>1227.40</ele>
	<time>2024-03-25T10:15:02.000Z</time>
</trkpt>
<trkpt lat="45.8499000" lon="9.3185410">
	<ele>1227.40</ele>
	<time>2024-03-25T10:15:03.000Z</time>
</trkpt>
<trkpt lat="45.8498920" lon="9.3185420">
	<ele>1227.60</ele>
	<time>2024-03-25T10:15:04.000Z</time>
</trkpt>
<trkpt lat="45.8498870" lon="9.3185400">
	<ele>1228.00</ele>
	<time>2024-03-25T10:15:05.000Z</time>
</trkpt>
<trkpt lat="45.8498790" lon="9.3185380">
	<ele>1228.20</ele>
	<time>2024-03-25T10:15:06.000Z</time>
</trkpt>
<trkpt lat="45.8498690" lon="9.3185350">
	<ele>1228.40</ele>
	<time>2024-03-25T10:15:07.000Z</time>
</trkpt>
<trkpt lat="45.8498610" lon="9.3185360">
	<ele>1228.80</ele>
	<time>2024-03-25T10:15:08.000Z</time>
</trkpt>
<trkpt lat="45.8498540" lon="9.3185400">
	<ele>1229.00</ele>
	<time>2024-03-25T10:15:09.000Z</time>
</trkpt>
<trkpt lat="45.8498480" lon="9.3185420">
	<ele>1229.20</ele>
	<time>2024-03-25T10:15:10.000Z</time>
</trkpt>
<trkpt lat="45.8498430" lon="9.3185430">
	<ele>1229.60</ele>
	<time>2024-03-25T10:15:11.000Z</time>
</trkpt>
<trkpt lat="45.8498350" lon="9.3185460">
	<ele>1229.80</ele>
	<time>2024-03-25T10:15:12.000Z</time>
</trkpt>
<trkpt lat="45.8498310" lon="9.3185460">
	<ele>1230.20</ele>
	<time>2024-03-25T10:15:13.000Z</time>
</trkpt>
<trkpt lat="45.8498270" lon="9.3185450">
	<ele>1230.40</ele>
	<time>2024-03-25T10:15:14.000Z</time>
</trkpt>
<trkpt lat="45.8498220" lon="9.3185480">
	<ele>1230.60</ele>
	<time>2024-03-25T10:15:15.000Z</time>
</trkpt>
<trkpt lat="45.8498190" lon="9.3185520">
	<ele>1230.80</ele>
	<time>2024-03-25T10:15:16.000Z</time>
</trkpt>
<trkpt lat="45.8498140" lon="9.3185560">
	<ele>1231.20</ele>
	<time>2024-03-25T10:15:17.000Z</time>
</trkpt>
<trkpt lat="45.8498060" lon="9.3185620">
	<ele>1231.60</ele>
	<time>2024-03-25T10:15:18.000Z</time>
</trkpt>
<trkpt lat="45.8498030" lon="9.3185660">
	<ele>1231.80</ele>
	<time>2024-03-25T10:15:19.000Z</time>
</trkpt>
<trkpt lat="45.8497980" lon="9.3185650">
	<ele>1231.80</ele>
	<time>2024-03-25T10:15:20.000Z</time>
</trkpt>
<trkpt lat="45.8497930" lon="9.3185600">
	<ele>1232.00</ele>
	<time>2024-03-25T10:15:21.000Z</time>
</trkpt>
<trkpt lat="45.8497860" lon="9.3185550">
	<ele>1232.20</ele>
	<time>2024-03-25T10:15:22.000Z</time>
</trkpt>
<trkpt lat="45.8497770" lon="9.3185500">
	<ele>1232.40</ele>
	<time>2024-03-25T10:15:23.000Z</time>
</trkpt>
<trkpt lat="45.8497660" lon="9.3185460">
	<ele>1232.40</ele>
	<time>2024-03-25T10:15:24.000Z</time>
</trkpt>
<trkpt lat="45.8497600" lon="9.3185420">
	<ele>1232.60</ele>
	<time>2024-03-25T10:15:25.000Z</time>
</trkpt>
<trkpt lat="45.8497560" lon="9.3185370">
	<ele>1232.60</ele>
	<time>2024-03-25T10:15:26.000Z</time>
</trkpt>
<trkpt lat="45.8497540" lon="9.3185300">
	<ele>1232.80</ele>
	<time>2024-03-25T10:15:27.000Z</time>
</trkpt>
<trkpt lat="45.8497510" lon="9.3185240">
	<ele>1233.20</ele>
	<time>2024-03-25T10:15:28.000Z</time>
</trkpt>
<trkpt lat="45.8497470" lon="9.3185210">
	<ele>1233.80</ele>
	<time>2024-03-25T10:15:29.000Z</time>
</trkpt>
<trkpt lat="45.8497390" lon="9.3185190">
	<ele>1234.00</ele>
	<time>2024-03-25T10:15:30.000Z</time>
</trkpt>
<trkpt lat="45.8497310" lon="9.3185190">
	<ele>1234.20</ele>
	<time>2024-03-25T10:15:31.000Z</time>
</trkpt>
<trkpt lat="45.8497240" lon="9.3185230">
	<ele>1234.20</ele>
	<time>2024-03-25T10:15:32.000Z</time>
</trkpt>
<trkpt lat="45.8497180" lon="9.3185270">
	<ele>1234.40</ele>
	<time>2024-03-25T10:15:33.000Z</time>
</trkpt>
<trkpt lat="45.8497160" lon="9.3185330">
	<ele>1234.40</ele>
	<time>2024-03-25T10:15:34.000Z</time>
</trkpt>
<trkpt lat="45.8497120" lon="9.3185330">
	<ele>1234.40</ele>
	<time>2024-03-25T10:15:35.000Z</time>
</trkpt>
<trkpt lat="45.8497070" lon="9.3185310">
	<ele>1234.40</ele>
	<time>2024-03-25T10:15:36.000Z</time>
</trkpt>
<trkpt lat="45.8497020" lon="9.3185270">
	<ele>1234.60</ele>
	<time>2024-03-25T10:15:37.000Z</time>
</trkpt>
<trkpt lat="45.8496960" lon="9.3185240">
	<ele>1234.60</ele>
	<time>2024-03-25T10:15:38.000Z</time>
</trkpt>
<trkpt lat="45.8496900" lon="9.3185220">
	<ele>1234.80</ele>
	<time>2024-03-25T10:15:39.000Z</time>
</trkpt>
<trkpt lat="45.8496840" lon="9.3185210">
	<ele>1235.00</ele>
	<time>2024-03-25T10:15:40.000Z</time>
</trkpt>
<trkpt lat="45.8496770" lon="9.3185250">
	<ele>1235.20</ele>
	<time>2024-03-25T10:15:41.000Z</time>
</trkpt>
<trkpt lat="45.8496710" lon="9.3185290">
	<ele>1235.40</ele>
	<time>2024-03-25T10:15:42.000Z</time>
</trkpt>
<trkpt lat="45.8496660" lon="9.3185330">
	<ele>1235.60</ele>
	<time>2024-03-25T10:15:43.000Z</time>
</trkpt>
<trkpt lat="45.8496620" lon="9.3185350">
	<ele>1236.00</ele>
	<time>2024-03-25T10:15:44.000Z</time>
</trkpt>
<trkpt lat="45.8496600" lon="9.3185390">
	<ele>1236.20</ele>
	<time>2024-03-25T10:15:45.000Z</time>
</trkpt>
<trkpt lat="45.8496520" lon="9.3185400">
	<ele>1236.20</ele>
	<time>2024-03-25T10:15:46.000Z</time>
</trkpt>
<trkpt lat="45.8496470" lon="9.3185430">
	<ele>1236.40</ele>
	<time>2024-03-25T10:15:47.000Z</time>
</trkpt>
<trkpt lat="45.8496440" lon="9.3185400">
	<ele>1236.60</ele>
	<time>2024-03-25T10:15:48.000Z</time>
</trkpt>
<trkpt lat="45.8496420" lon="9.3185430">
	<ele>1236.80</ele>
	<time>2024-03-25T10:15:49.000Z</time>
</trkpt>
<trkpt lat="45.8496350" lon="9.3185450">
	<ele>1236.80</ele>
	<time>2024-03-25T10:15:50.000Z</time>
</trkpt>
<trkpt lat="45.8496300" lon="9.3185480">
	<ele>1237.00</ele>
	<time>2024-03-25T10:15:51.000Z</time>
</trkpt>
<trkpt lat="45.8496280" lon="9.3185500">
	<ele>1237.40</ele>
	<time>2024-03-25T10:15:52.000Z</time>
</trkpt>
<trkpt lat="45.8496270" lon="9.3185510">
	<ele>1237.60</ele>
	<time>2024-03-25T10:15:53.000Z</time>
</trkpt>
<trkpt lat="45.8496270" lon="9.3185540">
	<ele>1237.80</ele>
	<time>2024-03-25T10:15:54.000Z</time>
</trkpt>
<trkpt lat="45.8496220" lon="9.3185540">
	<ele>1238.00</ele>
	<time>2024-03-25T10:15:55.000Z</time>
</trkpt>
<trkpt lat="45.8496190" lon="9.3185560">
	<ele>1238.00</ele>
	<time>2024-03-25T10:15:56.000Z</time>
</trkpt>
<trkpt lat="45.8496170" lon="9.3185570">
	<ele>1238.20</ele>
	<time>2024-03-25T10:15:57.000Z</time>
</trkpt>
<trkpt lat="45.8496120" lon="9.3185580">
	<ele>1238.60</ele>
	<time>2024-03-25T10:15:58.000Z</time>
</trkpt>
<trkpt lat="45.8496080" lon="9.3185590">
	<ele>1238.80</ele>
	<time>2024-03-25T10:15:59.000Z</time>
</trkpt>
<trkpt lat="45.8496080" lon="9.3185610">
	<ele>1239.00</ele>
	<time>2024-03-25T10:16:00.000Z</time>
</trkpt>
<trkpt lat="45.8496070" lon="9.3185620">
	<ele>1239.00</ele>
	<time>2024-03-25T10:16:01.000Z</time>
</trkpt>
<trkpt lat="45.8496040" lon="9.3185630">
	<ele>1239.20</ele>
	<time>2024-03-25T10:16:02.000Z</time>
</trkpt>
<trkpt lat="45.8496000" lon="9.3185620">
	<ele>1239.20</ele>
	<time>2024-03-25T10:16:03.000Z</time>
</trkpt>
<trkpt lat="45.8495960" lon="9.3185610">
	<ele>1239.40</ele>
	<time>2024-03-25T10:16:04.000Z</time>
</trkpt>
<trkpt lat="45.8495920" lon="9.3185600">
	<ele>1239.40</ele>
	<time>2024-03-25T10:16:05.000Z</time>
</trkpt>
<trkpt lat="45.8495880" lon="9.3185620">
	<ele>1239.60</ele>
	<time>2024-03-25T10:16:06.000Z</time>
</trkpt>
<trkpt lat="45.8495820" lon="9.3185660">
	<ele>1240.00</ele>
	<time>2024-03-25T10:16:07.000Z</time>
</trkpt>
<trkpt lat="45.8495770" lon="9.3185670">
	<ele>1240.40</ele>
	<time>2024-03-25T10:16:08.000Z</time>
</trkpt>
<trkpt lat="45.8495720" lon="9.3185660">
	<ele>1240.40</ele>
	<time>2024-03-25T10:16:09.000Z</time>
</trkpt>
<trkpt lat="45.8495670" lon="9.3185660">
	<ele>1240.60</ele>
	<time>2024-03-25T10:16:10.000Z</time>
</trkpt>
<trkpt lat="45.8495660" lon="9.3185680">
	<ele>1240.60</ele>
	<time>2024-03-25T10:16:11.000Z</time>
</trkpt>
<trkpt lat="45.8495620" lon="9.3185680">
	<ele>1240.60</ele>
	<time>2024-03-25T10:16:12.000Z</time>
</trkpt>
<trkpt lat="45.8495560" lon="9.3185740">
	<ele>1240.80</ele>
	<time>2024-03-25T10:16:13.000Z</time>
</trkpt>
<trkpt lat="45.8495500" lon="9.3185770">
	<ele>1240.80</ele>
	<time>2024-03-25T10:16:14.000Z</time>
</trkpt>
<trkpt lat="45.8495430" lon="9.3185820">
	<ele>1241.00</ele>
	<time>2024-03-25T10:16:15.000Z</time>
</trkpt>
<trkpt lat="45.8495360" lon="9.3185860">
	<ele>1241.20</ele>
	<time>2024-03-25T10:16:16.000Z</time>
</trkpt>
<trkpt lat="45.8495300" lon="9.3185930">
	<ele>1241.40</ele>
	<time>2024-03-25T10:16:17.000Z</time>
</trkpt>
<trkpt lat="45.8495260" lon="9.3185950">
	<ele>1241.60</ele>
	<time>2024-03-25T10:16:18.000Z</time>
</trkpt>
<trkpt lat="45.8495230" lon="9.3185960">
	<ele>1241.80</ele>
	<time>2024-03-25T10:16:19.000Z</time>
</trkpt>
<trkpt lat="45.8495200" lon="9.3185970">
	<ele>1242.20</ele>
	<time>2024-03-25T10:16:20.000Z</time>
</trkpt>
<trkpt lat="45.8495150" lon="9.3185990">
	<ele>1242.40</ele>
	<time>2024-03-25T10:16:21.000Z</time>
</trkpt>
<trkpt lat="45.8495080" lon="9.3186000">
	<ele>1242.40</ele>
	<time>2024-03-25T10:16:22.000Z</time>
</trkpt>
<trkpt lat="45.8495010" lon="9.3186020">
	<ele>1242.60</ele>
	<time>2024-03-25T10:16:23.000Z</time>
</trkpt>
<trkpt lat="45.8494970" lon="9.3186040">
	<ele>1242.80</ele>
	<time>2024-03-25T10:16:24.000Z</time>
</trkpt>
<trkpt lat="45.8494950" lon="9.3186040">
	<ele>1243.00</ele>
	<time>2024-03-25T10:16:25.000Z</time>
</trkpt>
<trkpt lat="45.8494920" lon="9.3186060">
	<ele>1243.20</ele>
	<time>2024-03-25T10:16:26.000Z</time>
</trkpt>
<trkpt lat="45.8494890" lon="9.3186070">
	<ele>1243.40</ele>
	<time>2024-03-25T10:16:27.000Z</time>
</trkpt>
<trkpt lat="45.8494860" lon="9.3186110">
	<ele>1243.40</ele>
	<time>2024-03-25T10:16:28.000Z</time>
</trkpt>
<trkpt lat="45.8494830" lon="9.3186160">
	<ele>1243.60</ele>
	<time>2024-03-25T10:16:29.000Z</time>
</trkpt>
<trkpt lat="45.8494780" lon="9.3186210">
	<ele>1243.80</ele>
	<time>2024-03-25T10:16:30.000Z</time>
</trkpt>
<trkpt lat="45.8494730" lon="9.3186260">
	<ele>1244.00</ele>
	<time>2024-03-25T10:16:31.000Z</time>
</trkpt>
<trkpt lat="45.8494660" lon="9.3186310">
	<ele>1244.00</ele>
	<time>2024-03-25T10:16:32.000Z</time>
</trkpt>
<trkpt lat="45.8494630" lon="9.3186340">
	<ele>1244.20</ele>
	<time>2024-03-25T10:16:33.000Z</time>
</trkpt>
<trkpt lat="45.8494610" lon="9.3186350">
	<ele>1244.60</ele>
	<time>2024-03-25T10:16:34.000Z</time>
</trkpt>
<trkpt lat="45.8494620" lon="9.3186360">
	<ele>1244.80</ele>
	<time>2024-03-25T10:16:35.000Z</time>
</trkpt>
<trkpt lat="45.8494610" lon="9.3186340">
	<ele>1245.00</ele>
	<time>2024-03-25T10:16:36.000Z</time>
</trkpt>
<trkpt lat="45.8494590" lon="9.3186310">
	<ele>1245.00</ele>
	<time>2024-03-25T10:16:37.000Z</time>
</trkpt>
<trkpt lat="45.8494520" lon="9.3186290">
	<ele>1245.20</ele>
	<time>2024-03-25T10:16:38.000Z</time>
</trkpt>
<trkpt lat="45.8494430" lon="9.3186220">
	<ele>1245.20</ele>
	<time>2024-03-25T10:16:39.000Z</time>
</trkpt>
<trkpt lat="45.8494370" lon="9.3186170">
	<ele>1245.40</ele>
	<time>2024-03-25T10:16:40.000Z</time>
</trkpt>
<trkpt lat="45.8494320" lon="9.3186140">
	<ele>1245.60</ele>
	<time>2024-03-25T10:16:41.000Z</time>
</trkpt>
<trkpt lat="45.8494270" lon="9.3186110">
	<ele>1245.80</ele>
	<time>2024-03-25T10:16:42.000Z</time>
</trkpt>
<trkpt lat="45.8494220" lon="9.3186080">
	<ele>1246.00</ele>
	<time>2024-03-25T10:16:43.000Z</time>
</trkpt>
<trkpt lat="45.8494150" lon="9.3186040">
	<ele>1246.00</ele>
	<time>2024-03-25T10:16:44.000Z</time>
</trkpt>
<trkpt lat="45.8494070" lon="9.3185980">
	<ele>1245.80</ele>
	<time>2024-03-25T10:16:45.000Z</time>
</trkpt>
<trkpt lat="45.8493980" lon="9.3185920">
	<ele>1245.80</ele>
	<time>2024-03-25T10:16:46.000Z</time>
</trkpt>
<trkpt lat="45.8493900" lon="9.3185890">
	<ele>1245.80</ele>
	<time>2024-03-25T10:16:47.000Z</time>
</trkpt>
<trkpt lat="45.8493810" lon="9.3185860">
	<ele>1245.80</ele>
	<time>2024-03-25T10:16:48.000Z</time>
</trkpt>
<trkpt lat="45.8493710" lon="9.3185830">
	<ele>1245.60</ele>
	<time>2024-03-25T10:16:49.000Z</time>
</trkpt>
<trkpt lat="45.8493600" lon="9.3185820">
	<ele>1245.60</ele>
	<time>2024-03-25T10:16:50.000Z</time>
</trkpt>
<trkpt lat="45.8493550" lon="9.3185800">
	<ele>1245.80</ele>
	<time>2024-03-25T10:16:51.000Z</time>
</trkpt>
<trkpt lat="45.8493490" lon="9.3185750">
	<ele>1245.80</ele>
	<time>2024-03-25T10:16:52.000Z</time>
</trkpt>
<trkpt lat="45.8493450" lon="9.3185710">
	<ele>1245.80</ele>
	<time>2024-03-25T10:16:53.000Z</time>
</trkpt>
<trkpt lat="45.8493420" lon="9.3185670">
	<ele>1245.80</ele>
	<time>2024-03-25T10:16:54.000Z</time>
</trkpt>
<trkpt lat="45.8493370" lon="9.3185680">
	<ele>1245.80</ele>
	<time>2024-03-25T10:16:55.000Z</time>
</trkpt>
<trkpt lat="45.8493300" lon="9.3185690">
	<ele>1246.20</ele>
	<time>2024-03-25T10:16:56.000Z</time>
</trkpt>
<trkpt lat="45.8493320" lon="9.3185710">
	<ele>1246.20</ele>
	<time>2024-03-25T10:16:57.000Z</time>
</trkpt>
<trkpt lat="45.8493280" lon="9.3185710">
	<ele>1246.40</ele>
	<time>2024-03-25T10:16:58.000Z</time>
</trkpt>
<trkpt lat="45.8493250" lon="9.3185670">
	<ele>1246.60</ele>
	<time>2024-03-25T10:16:59.000Z</time>
</trkpt>
<trkpt lat="45.8493200" lon="9.3185640">
	<ele>1246.60</ele>
	<time>2024-03-25T10:17:00.000Z</time>
</trkpt>
<trkpt lat="45.8493120" lon="9.3185600">
	<ele>1246.80</ele>
	<time>2024-03-25T10:17:01.000Z</time>
</trkpt>
<trkpt lat="45.8493010" lon="9.3185560">
	<ele>1247.00</ele>
	<time>2024-03-25T10:17:02.000Z</time>
</trkpt>
<trkpt lat="45.8492980" lon="9.3185530">
	<ele>1247.20</ele>
	<time>2024-03-25T10:17:03.000Z</time>
</trkpt>
<trkpt lat="45.8492970" lon="9.3185470">
	<ele>1247.40</ele>
	<time>2024-03-25T10:17:04.000Z</time>
</trkpt>
<trkpt lat="45.8492930" lon="9.3185440">
	<ele>1247.40</ele>
	<time>2024-03-25T10:17:05.000Z</time>
</trkpt>
<trkpt lat="45.8492840" lon="9.3185410">
	<ele>1247.80</ele>
	<time>2024-03-25T10:17:06.000Z</time>
</trkpt>
<trkpt lat="45.8492750" lon="9.3185370">
	<ele>1247.80</ele>
	<time>2024-03-25T10:17:07.000Z</time>
</trkpt>
<trkpt lat="45.8492700" lon="9.3185400">
	<ele>1248.00</ele>
	<time>2024-03-25T10:17:08.000Z</time>
</trkpt>
<trkpt lat="45.8492620" lon="9.3185370">
	<ele>1248.20</ele>
	<time>2024-03-25T10:17:09.000Z</time>
</trkpt>
<trkpt lat="45.8492550" lon="9.3185390">
	<ele>1248.20</ele>
	<time>2024-03-25T10:17:10.000Z</time>
</trkpt>
<trkpt lat="45.8492450" lon="9.3185410">
	<ele>1248.40</ele>
	<time>2024-03-25T10:17:11.000Z</time>
</trkpt>
<trkpt lat="45.8492340" lon="9.3185410">
	<ele>1248.60</ele>
	<time>2024-03-25T10:17:12.000Z</time>
</trkpt>
<trkpt lat="45.8492240" lon="9.3185420">
	<ele>1248.60</ele>
	<time>2024-03-25T10:17:13.000Z</time>
</trkpt>
<trkpt lat="45.8492160" lon="9.3185410">
	<ele>1248.60</ele>
	<time>2024-03-25T10:17:14.000Z</time>
</trkpt>
<trkpt lat="45.8492080" lon="9.3185380">
	<ele>1248.80</ele>
	<time>2024-03-25T10:17:15.000Z</time>
</trkpt>
<trkpt lat="45.8491980" lon="9.3185380">
	<ele>1248.80</ele>
	<time>2024-03-25T10:17:16.000Z</time>
</trkpt>
<trkpt lat="45.8491880" lon="9.3185400">
	<ele>1249.00</ele>
	<time>2024-03-25T10:17:17.000Z</time>
</trkpt>
<trkpt lat="45.8491830" lon="9.3185390">
	<ele>1249.00</ele>
	<time>2024-03-25T10:17:18.000Z</time>
</trkpt>
<trkpt lat="45.8491810" lon="9.3185410">
	<ele>1249.00</ele>
	<time>2024-03-25T10:17:19.000Z</time>
</trkpt>
<trkpt lat="45.8491800" lon="9.3185400">
	<ele>1249.20</ele>
	<time>2024-03-25T10:17:20.000Z</time>
</trkpt>
<trkpt lat="45.8491780" lon="9.3185410">
	<ele>1249.20</ele>
	<time>2024-03-25T10:17:21.000Z</time>
</trkpt>
<trkpt lat="45.8491780" lon="9.3185410">
	<ele>1249.40</ele>
	<time>2024-03-25T10:17:22.000Z</time>
</trkpt>
<trkpt lat="45.8491760" lon="9.3185420">
	<ele>1249.40</ele>
	<time>2024-03-25T10:17:23.000Z</time>
</trkpt>
<trkpt lat="45.8491730" lon="9.3185420">
	<ele>1249.40</ele>
	<time>2024-03-25T10:17:24.000Z</time>
</trkpt>
<trkpt lat="45.8491710" lon="9.3185430">
	<ele>1249.60</ele>
	<time>2024-03-25T10:17:25.000Z</time>
</trkpt>
<trkpt lat="45.8491700" lon="9.3185460">
	<ele>1249.40</ele>
	<time>2024-03-25T10:17:26.000Z</time>
</trkpt>
<trkpt lat="45.8491710" lon="9.3185470">
	<ele>1249.60</ele>
	<time>2024-03-25T10:17:27.000Z</time>
</trkpt>
<trkpt lat="45.8491730" lon="9.3185450">
	<ele>1249.40</ele>
	<time>2024-03-25T10:17:28.000Z</time>
</trkpt>
<trkpt lat="45.8491740" lon="9.3185430">
	<ele>1249.40</ele>
	<time>2024-03-25T10:17:29.000Z</time>
</trkpt>
<trkpt lat="45.8491750" lon="9.3185420">
	<ele>1249.40</ele>
	<time>2024-03-25T10:17:30.000Z</time>
</trkpt>
<trkpt lat="45.8491750" lon="9.3185420">
	<ele>1249.40</ele>
	<time>2024-03-25T10:17:31.000Z</time>
</trkpt>
<trkpt lat="45.8491750" lon="9.3185430">
	<ele>1249.40</ele>
	<time>2024-03-25T10:17:32.000Z</time>
</trkpt>
<trkpt lat="45.8491740" lon="9.3185420">
	<ele>1249.40</ele>
	<time>2024-03-25T10:17:33.000Z</time>
</trkpt>
<trkpt lat="45.8491740" lon="9.3185420">
	<ele>1249.40</ele>
	<time>2024-03-25T10:17:34.000Z</time>
</trkpt>
<trkpt lat="45.8491740" lon="9.3185420">
	<ele>1249.40</ele>
	<time>2024-03-25T10:17:35.000Z</time>
</trkpt>
<trkpt lat="45.8491740" lon="9.3185420">
	<ele>1249.20</ele>
	<time>2024-03-25T10:17:36.000Z</time>
</trkpt>
<trkpt lat="45.8491740" lon="9.3185420">
	<ele>1249.20</ele>
	<time>2024-03-25T10:17:37.000Z</time>
</trkpt>
<trkpt lat="45.8491740" lon="9.3185420">
	<ele>1249.20</ele>
	<time>2024-03-25T10:17:38.000Z</time>
</trkpt>
<trkpt lat="45.8491740" lon="9.3185420">
	<ele>1249.20</ele>
	<time>2024-03-25T10:17:39.000Z</time>
</trkpt>
<trkpt lat="45.8491740" lon="9.3185420">
	<ele>1249.00</ele>
	<time>2024-03-25T10:17:40.000Z</time>
</trkpt>
<trkpt lat="45.8491740" lon="9.3185420">
	<ele>1249.40</ele>
	<time>2024-03-25T10:17:41.000Z</time>
</trkpt>
<trkpt lat="45.8491740" lon="9.3185420">
	<ele>1249.60</ele>
	<time>2024-03-25T10:17:42.000Z</time>
</trkpt>
<trkpt lat="45.8491740" lon="9.3185420">
	<ele>1249.80</ele>
	<time>2024-03-25T10:17:43.000Z</time>
</trkpt>
<trkpt lat="45.8491740" lon="9.3185420">
	<ele>1249.80</ele>
	<time>2024-03-25T10:17:44.000Z</time>
</trkpt>
<trkpt lat="45.8491690" lon="9.3185380">
	<ele>1250.20</ele>
	<time>2024-03-25T10:17:45.000Z</time>
</trkpt>
<trkpt lat="45.8491600" lon="9.3185270">
	<ele>1250.20</ele>
	<time>2024-03-25T10:17:46.000Z</time>
</trkpt>
<trkpt lat="45.8491490" lon="9.3185160">
	<ele>1250.40</ele>
	<time>2024-03-25T10:17:47.000Z</time>
</trkpt>
<trkpt lat="45.8491390" lon="9.3185030">
	<ele>1250.40</ele>
	<time>2024-03-25T10:17:48.000Z</time>
</trkpt>
<trkpt lat="45.8491280" lon="9.3184850">
	<ele>1250.40</ele>
	<time>2024-03-25T10:17:49.000Z</time>
</trkpt>
<trkpt lat="45.8491170" lon="9.3184670">
	<ele>1250.60</ele>
	<time>2024-03-25T10:17:50.000Z</time>
</trkpt>
<trkpt lat="45.8491040" lon="9.3184510">
	<ele>1250.60</ele>
	<time>2024-03-25T10:17:51.000Z</time>
</trkpt>
<trkpt lat="45.8490900" lon="9.3184380">
	<ele>1250.60</ele>
	<time>2024-03-25T10:17:52.000Z</time>
</trkpt>
<trkpt lat="45.8490760" lon="9.3184250">
	<ele>1250.80</ele>
	<time>2024-03-25T10:17:53.000Z</time>
</trkpt>
<trkpt lat="45.8490590" lon="9.3184160">
	<ele>1250.80</ele>
	<time>2024-03-25T10:17:54.000Z</time>
</trkpt>
<trkpt lat="45.8490490" lon="9.3184100">
	<ele>1250.80</ele>
	<time>2024-03-25T10:17:55.000Z</time>
</trkpt>
<trkpt lat="45.8490380" lon="9.3184040">
	<ele>1251.00</ele>
	<time>2024-03-25T10:17:56.000Z</time>
</trkpt>
<trkpt lat="45.8490240" lon="9.3184000">
	<ele>1251.00</ele>
	<time>2024-03-25T10:17:57.000Z</time>
</trkpt>
<trkpt lat="45.8490150" lon="9.3183950">
	<ele>1251.20</ele>
	<time>2024-03-25T10:17:58.000Z</time>
</trkpt>
<trkpt lat="45.8490060" lon="9.3183900">
	<ele>1251.20</ele>
	<time>2024-03-25T10:17:59.000Z</time>
</trkpt>
<trkpt lat="45.8490010" lon="9.3183840">
	<ele>1251.20</ele>
	<time>2024-03-25T10:18:00.000Z</time>
</trkpt>
<trkpt lat="45.8489910" lon="9.3183810">
	<ele>1251.40</ele>
	<time>2024-03-25T10:18:01.000Z</time>
</trkpt>
<trkpt lat="45.8489830" lon="9.3183800">
	<ele>1251.60</ele>
	<time>2024-03-25T10:18:02.000Z</time>
</trkpt>
<trkpt lat="45.8489790" lon="9.3183800">
	<ele>1251.60</ele>
	<time>2024-03-25T10:18:03.000Z</time>
</trkpt>
<trkpt lat="45.8489760" lon="9.3183800">
	<ele>1251.60</ele>
	<time>2024-03-25T10:18:04.000Z</time>
</trkpt>
<trkpt lat="45.8489740" lon="9.3183770">
	<ele>1251.80</ele>
	<time>2024-03-25T10:18:05.000Z</time>
</trkpt>
<trkpt lat="45.8489700" lon="9.3183700">
	<ele>1251.60</ele>
	<time>2024-03-25T10:18:06.000Z</time>
</trkpt>
<trkpt lat="45.8489650" lon="9.3183600">
	<ele>1251.60</ele>
	<time>2024-03-25T10:18:07.000Z</time>
</trkpt>
<trkpt lat="45.8489600" lon="9.3183490">
	<ele>1251.40</ele>
	<time>2024-03-25T10:18:08.000Z</time>
</trkpt>
<trkpt lat="45.8489540" lon="9.3183410">
	<ele>1251.20</ele>
	<time>2024-03-25T10:18:09.000Z</time>
</trkpt>
<trkpt lat="45.8489420" lon="9.3183330">
	<ele>1251.20</ele>
	<time>2024-03-25T10:18:10.000Z</time>
</trkpt>
<trkpt lat="45.8489370" lon="9.3183260">
	<ele>1251.00</ele>
	<time>2024-03-25T10:18:11.000Z</time>
</trkpt>
<trkpt lat="45.8489290" lon="9.3183180">
	<ele>1250.80</ele>
	<time>2024-03-25T10:18:12.000Z</time>
</trkpt>
<trkpt lat="45.8489220" lon="9.3183130">
	<ele>1250.40</ele>
	<time>2024-03-25T10:18:13.000Z</time>
</trkpt>
<trkpt lat="45.8489160" lon="9.3183010">
	<ele>1250.40</ele>
	<time>2024-03-25T10:18:14.000Z</time>
</trkpt>
<trkpt lat="45.8488970" lon="9.3182930">
	<ele>1250.20</ele>
	<time>2024-03-25T10:18:15.000Z</time>
</trkpt>
<trkpt lat="45.8488860" lon="9.3182880">
	<ele>1250.00</ele>
	<time>2024-03-25T10:18:16.000Z</time>
</trkpt>
<trkpt lat="45.8488810" lon="9.3182840">
	<ele>1249.80</ele>
	<time>2024-03-25T10:18:17.000Z</time>
</trkpt>
<trkpt lat="45.8488700" lon="9.3182780">
	<ele>1249.80</ele>
	<time>2024-03-25T10:18:18.000Z</time>
</trkpt>
<trkpt lat="45.8488670" lon="9.3182730">
	<ele>1249.60</ele>
	<time>2024-03-25T10:18:19.000Z</time>
</trkpt>
<trkpt lat="45.8488570" lon="9.3182730">
	<ele>1249.60</ele>
	<time>2024-03-25T10:18:20.000Z</time>
</trkpt>
<trkpt lat="45.8488380" lon="9.3182670">
	<ele>1249.60</ele>
	<time>2024-03-25T10:18:21.000Z</time>
</trkpt>
<trkpt lat="45.8488200" lon="9.3182570">
	<ele>1249.60</ele>
	<time>2024-03-25T10:18:22.000Z</time>
</trkpt>
<trkpt lat="45.8488140" lon="9.3182480">
	<ele>1249.60</ele>
	<time>2024-03-25T10:18:23.000Z</time>
</trkpt>
<trkpt lat="45.8488070" lon="9.3182430">
	<ele>1249.60</ele>
	<time>2024-03-25T10:18:24.000Z</time>
</trkpt>
<trkpt lat="45.8488020" lon="9.3182380">
	<ele>1249.80</ele>
	<time>2024-03-25T10:18:25.000Z</time>
</trkpt>
<trkpt lat="45.8487950" lon="9.3182310">
	<ele>1249.80</ele>
	<time>2024-03-25T10:18:26.000Z</time>
</trkpt>
<trkpt lat="45.8487850" lon="9.3182250">
	<ele>1249.80</ele>
	<time>2024-03-25T10:18:27.000Z</time>
</trkpt>
<trkpt lat="45.8487830" lon="9.3182160">
	<ele>1250.00</ele>
	<time>2024-03-25T10:18:28.000Z</time>
</trkpt>
<trkpt lat="45.8487780" lon="9.3182110">
	<ele>1250.00</ele>
	<time>2024-03-25T10:18:29.000Z</time>
</trkpt>
<trkpt lat="45.8487740" lon="9.3182060">
	<ele>1250.00</ele>
	<time>2024-03-25T10:18:30.000Z</time>
</trkpt>
<trkpt lat="45.8487680" lon="9.3181970">
	<ele>1250.00</ele>
	<time>2024-03-25T10:18:31.000Z</time>
</trkpt>
<trkpt lat="45.8487580" lon="9.3181890">
	<ele>1250.00</ele>
	<time>2024-03-25T10:18:32.000Z</time>
</trkpt>
<trkpt lat="45.8487520" lon="9.3181870">
	<ele>1250.00</ele>
	<time>2024-03-25T10:18:33.000Z</time>
</trkpt>
<trkpt lat="45.8487450" lon="9.3181860">
	<ele>1250.00</ele>
	<time>2024-03-25T10:18:34.000Z</time>
</trkpt>
<trkpt lat="45.8487430" lon="9.3181820">
	<ele>1250.00</ele>
	<time>2024-03-25T10:18:35.000Z</time>
</trkpt>
<trkpt lat="45.8487400" lon="9.3181730">
	<ele>1249.80</ele>
	<time>2024-03-25T10:18:36.000Z</time>
</trkpt>
<trkpt lat="45.8487280" lon="9.3181690">
	<ele>1249.60</ele>
	<time>2024-03-25T10:18:37.000Z</time>
</trkpt>
<trkpt lat="45.8487140" lon="9.3181670">
	<ele>1249.40</ele>
	<time>2024-03-25T10:18:38.000Z</time>
</trkpt>
<trkpt lat="45.8486980" lon="9.3181620">
	<ele>1249.20</ele>
	<time>2024-03-25T10:18:39.000Z</time>
</trkpt>
<trkpt lat="45.8486800" lon="9.3181530">
	<ele>1249.00</ele>
	<time>2024-03-25T10:18:40.000Z</time>
</trkpt>
<trkpt lat="45.8486610" lon="9.3181500">
	<ele>1249.00</ele>
	<time>2024-03-25T10:18:41.000Z</time>
</trkpt>
<trkpt lat="45.8486470" lon="9.3181520">
	<ele>1248.80</ele>
	<time>2024-03-25T10:18:42.000Z</time>
</trkpt>
<trkpt lat="45.8486300" lon="9.3181540">
	<ele>1248.80</ele>
	<time>2024-03-25T10:18:43.000Z</time>
</trkpt>
<trkpt lat="45.8486150" lon="9.3181530">
	<ele>1248.60</ele>
	<time>2024-03-25T10:18:44.000Z</time>
</trkpt>
<trkpt lat="45.8486050" lon="9.3181550">
	<ele>1248.60</ele>
	<time>2024-03-25T10:18:45.000Z</time>
</trkpt>
<trkpt lat="45.8485960" lon="9.3181560">
	<ele>1248.60</ele>
	<time>2024-03-25T10:18:46.000Z</time>
</trkpt>
<trkpt lat="45.8485880" lon="9.3181560">
	<ele>1248.80</ele>
	<time>2024-03-25T10:18:47.000Z</time>
</trkpt>
<trkpt lat="45.8485770" lon="9.3181570">
	<ele>1248.80</ele>
	<time>2024-03-25T10:18:48.000Z</time>
</trkpt>
<trkpt lat="45.8485710" lon="9.3181570">
	<ele>1248.80</ele>
	<time>2024-03-25T10:18:49.000Z</time>
</trkpt>
<trkpt lat="45.8485680" lon="9.3181550">
	<ele>1248.80</ele>
	<time>2024-03-25T10:18:50.000Z</time>
</trkpt>
<trkpt lat="45.8485670" lon="9.3181540">
	<ele>1249.00</ele>
	<time>2024-03-25T10:18:51.000Z</time>
</trkpt>
<trkpt lat="45.8485660" lon="9.3181540">
	<ele>1249.00</ele>
	<time>2024-03-25T10:18:52.000Z</time>
</trkpt>
<trkpt lat="45.8485660" lon="9.3181540">
	<ele>1249.00</ele>
	<time>2024-03-25T10:18:53.000Z</time>
</trkpt>
<trkpt lat="45.8485660" lon="9.3181540">
	<ele>1249.20</ele>
	<time>2024-03-25T10:18:54.000Z</time>
</trkpt>
<trkpt lat="45.8485670" lon="9.3181530">
	<ele>1249.20</ele>
	<time>2024-03-25T10:18:55.000Z</time>
</trkpt>
<trkpt lat="45.8485670" lon="9.3181530">
	<ele>1249.20</ele>
	<time>2024-03-25T10:18:56.000Z</time>
</trkpt>
<trkpt lat="45.8485670" lon="9.3181530">
	<ele>1249.40</ele>
	<time>2024-03-25T10:18:57.000Z</time>
</trkpt>
<trkpt lat="45.8485690" lon="9.3181530">
	<ele>1249.40</ele>
	<time>2024-03-25T10:18:58.000Z</time>
</trkpt>
<trkpt lat="45.8485710" lon="9.3181530">
	<ele>1249.40</ele>
	<time>2024-03-25T10:18:59.000Z</time>
</trkpt>
<trkpt lat="45.8485730" lon="9.3181530">
	<ele>1249.40</ele>
	<time>2024-03-25T10:19:00.000Z</time>
</trkpt>
<trkpt lat="45.8485730" lon="9.3181530">
	<ele>1249.40</ele>
	<time>2024-03-25T10:19:01.000Z</time>
</trkpt>
<trkpt lat="45.8485730" lon="9.3181530">
	<ele>1249.40</ele>
	<time>2024-03-25T10:19:02.000Z</time>
</trkpt>
<trkpt lat="45.8485730" lon="9.3181530">
	<ele>1249.40</ele>
	<time>2024-03-25T10:19:03.000Z</time>
</trkpt>
<trkpt lat="45.8485730" lon="9.3181530">
	<ele>1249.40</ele>
	<time>2024-03-25T10:19:04.000Z</time>
</trkpt>
<trkpt lat="45.8485730" lon="9.3181530">
	<ele>1249.40</ele>
	<time>2024-03-25T10:19:05.000Z</time>
</trkpt>
<trkpt lat="45.8485730" lon="9.3181530">
	<ele>1249.40</ele>
	<time>2024-03-25T10:19:06.000Z</time>
</trkpt>
<trkpt lat="45.8485730" lon="9.3181530">
	<ele>1249.40</ele>
	<time>2024-03-25T10:19:07.000Z</time>
</trkpt>
<trkpt lat="45.8485680" lon="9.3181520">
	<ele>1249.40</ele>
	<time>2024-03-25T10:19:08.000Z</time>
</trkpt>
<trkpt lat="45.8485500" lon="9.3181550">
	<ele>1249.40</ele>
	<time>2024-03-25T10:19:09.000Z</time>
</trkpt>
<trkpt lat="45.8485320" lon="9.3181590">
	<ele>1249.40</ele>
	<time>2024-03-25T10:19:10.000Z</time>
</trkpt>
<trkpt lat="45.8485150" lon="9.3181640">
	<ele>1249.40</ele>
	<time>2024-03-25T10:19:11.000Z</time>
</trkpt>
<trkpt lat="45.8484970" lon="9.3181650">
	<ele>1249.40</ele>
	<time>2024-03-25T10:19:12.000Z</time>
</trkpt>
<trkpt lat="45.8484760" lon="9.3181640">
	<ele>1249.40</ele>
	<time>2024-03-25T10:19:13.000Z</time>
</trkpt>
<trkpt lat="45.8484610" lon="9.3181650">
	<ele>1249.40</ele>
	<time>2024-03-25T10:19:14.000Z</time>
</trkpt>
<trkpt lat="45.8484440" lon="9.3181620">
	<ele>1249.40</ele>
	<time>2024-03-25T10:19:15.000Z</time>
</trkpt>
<trkpt lat="45.8484230" lon="9.3181510">
	<ele>1249.40</ele>
	<time>2024-03-25T10:19:16.000Z</time>
</trkpt>
<trkpt lat="45.8484020" lon="9.3181410">
	<ele>1249.40</ele>
	<time>2024-03-25T10:19:17.000Z</time>
</trkpt>
<trkpt lat="45.8483880" lon="9.3181390">
	<ele>1249.40</ele>
	<time>2024-03-25T10:19:18.000Z</time>
</trkpt>
<trkpt lat="45.8483740" lon="9.3181370">
	<ele>1249.20</ele>
	<time>2024-03-25T10:19:19.000Z</time>
</trkpt>
<trkpt lat="45.8483620" lon="9.3181390">
	<ele>1249.00</ele>
	<time>2024-03-25T10:19:20.000Z</time>
</trkpt>
<trkpt lat="45.8483510" lon="9.3181400">
	<ele>1248.60</ele>
	<time>2024-03-25T10:19:21.000Z</time>
</trkpt>
<trkpt lat="45.8483420" lon="9.3181390">
	<ele>1248.60</ele>
	<time>2024-03-25T10:19:22.000Z</time>
</trkpt>
<trkpt lat="45.8483350" lon="9.3181370">
	<ele>1248.20</ele>
	<time>2024-03-25T10:19:23.000Z</time>
</trkpt>
<trkpt lat="45.8483270" lon="9.3181370">
	<ele>1248.00</ele>
	<time>2024-03-25T10:19:24.000Z</time>
</trkpt>
<trkpt lat="45.8483190" lon="9.3181410">
	<ele>1247.80</ele>
	<time>2024-03-25T10:19:25.000Z</time>
</trkpt>
<trkpt lat="45.8483110" lon="9.3181470">
	<ele>1247.60</ele>
	<time>2024-03-25T10:19:26.000Z</time>
</trkpt>
<trkpt lat="45.8483020" lon="9.3181510">
	<ele>1247.60</ele>
	<time>2024-03-25T10:19:27.000Z</time>
</trkpt>
<trkpt lat="45.8482890" lon="9.3181520">
	<ele>1247.20</ele>
	<time>2024-03-25T10:19:28.000Z</time>
</trkpt>
<trkpt lat="45.8482760" lon="9.3181490">
	<ele>1247.00</ele>
	<time>2024-03-25T10:19:29.000Z</time>
</trkpt>
<trkpt lat="45.8482620" lon="9.3181480">
	<ele>1246.80</ele>
	<time>2024-03-25T10:19:30.000Z</time>
</trkpt>
<trkpt lat="45.8482500" lon="9.3181450">
	<ele>1246.60</ele>
	<time>2024-03-25T10:19:31.000Z</time>
</trkpt>
<trkpt lat="45.8482380" lon="9.3181400">
	<ele>1246.60</ele>
	<time>2024-03-25T10:19:32.000Z</time>
</trkpt>
<trkpt lat="45.8482230" lon="9.3181360">
	<ele>1246.40</ele>
	<time>2024-03-25T10:19:33.000Z</time>
</trkpt>
<trkpt lat="45.8482060" lon="9.3181300">
	<ele>1246.20</ele>
	<time>2024-03-25T10:19:34.000Z</time>
</trkpt>
<trkpt lat="45.8481930" lon="9.3181240">
	<ele>1246.00</ele>
	<time>2024-03-25T10:19:35.000Z</time>
</trkpt>
<trkpt lat="45.8481810" lon="9.3181170">
	<ele>1246.00</ele>
	<time>2024-03-25T10:19:36.000Z</time>
</trkpt>
<trkpt lat="45.8481700" lon="9.3181090">
	<ele>1245.80</ele>
	<time>2024-03-25T10:19:37.000Z</time>
</trkpt>
<trkpt lat="45.8481600" lon="9.3180990">
	<ele>1245.80</ele>
	<time>2024-03-25T10:19:38.000Z</time>
</trkpt>
<trkpt lat="45.8481540" lon="9.3180930">
	<ele>1245.80</ele>
	<time>2024-03-25T10:19:39.000Z</time>
</trkpt>
<trkpt lat="45.8481500" lon="9.3180930">
	<ele>1245.80</ele>
	<time>2024-03-25T10:19:40.000Z</time>
</trkpt>
<trkpt lat="45.8481490" lon="9.3180940">
	<ele>1245.80</ele>
	<time>2024-03-25T10:19:41.000Z</time>
</trkpt>
<trkpt lat="45.8481490" lon="9.3180930">
	<ele>1245.80</ele>
	<time>2024-03-25T10:19:42.000Z</time>
</trkpt>
<trkpt lat="45.8481480" lon="9.3180930">
	<ele>1245.80</ele>
	<time>2024-03-25T10:19:43.000Z</time>
</trkpt>
<trkpt lat="45.8481470" lon="9.3180930">
	<ele>1245.80</ele>
	<time>2024-03-25T10:19:44.000Z</time>
</trkpt>
<trkpt lat="45.8481410" lon="9.3180950">
	<ele>1245.80</ele>
	<time>2024-03-25T10:19:45.000Z</time>
</trkpt>
<trkpt lat="45.8481360" lon="9.3180920">
	<ele>1245.80</ele>
	<time>2024-03-25T10:19:46.000Z</time>
</trkpt>
<trkpt lat="45.8481300" lon="9.3180840">
	<ele>1245.80</ele>
	<time>2024-03-25T10:19:47.000Z</time>
</trkpt>
<trkpt lat="45.8481230" lon="9.3180730">
	<ele>1246.00</ele>
	<time>2024-03-25T10:19:48.000Z</time>
</trkpt>
<trkpt lat="45.8481140" lon="9.3180650">
	<ele>1246.00</ele>
	<time>2024-03-25T10:19:49.000Z</time>
</trkpt>
<trkpt lat="45.8481060" lon="9.3180590">
	<ele>1246.00</ele>
	<time>2024-03-25T10:19:50.000Z</time>
</trkpt>
<trkpt lat="45.8480950" lon="9.3180530">
	<ele>1246.20</ele>
	<time>2024-03-25T10:19:51.000Z</time>
</trkpt>
<trkpt lat="45.8480860" lon="9.3180480">
	<ele>1246.20</ele>
	<time>2024-03-25T10:19:52.000Z</time>
</trkpt>
<trkpt lat="45.8480720" lon="9.3180400">
	<ele>1246.40</ele>
	<time>2024-03-25T10:19:53.000Z</time>
</trkpt>
<trkpt lat="45.8480630" lon="9.3180330">
	<ele>1246.40</ele>
	<time>2024-03-25T10:19:54.000Z</time>
</trkpt>
<trkpt lat="45.8480570" lon="9.3180260">
	<ele>1246.80</ele>
	<time>2024-03-25T10:19:55.000Z</time>
</trkpt>
<trkpt lat="45.8480490" lon="9.3180200">
	<ele>1247.00</ele>
	<time>2024-03-25T10:19:56.000Z</time>
</trkpt>
<trkpt lat="45.8480410" lon="9.3180130">
	<ele>1247.00</ele>
	<time>2024-03-25T10:19:57.000Z</time>
</trkpt>
<trkpt lat="45.8480330" lon="9.3180050">
	<ele>1247.20</ele>
	<time>2024-03-25T10:19:58.000Z</time>
</trkpt>
<trkpt lat="45.8480250" lon="9.3179980">
	<ele>1247.40</ele>
	<time>2024-03-25T10:19:59.000Z</time>
</trkpt>
<trkpt lat="45.8480160" lon="9.3179930">
	<ele>1247.60</ele>
	<time>2024-03-25T10:20:00.000Z</time>
</trkpt>
<trkpt lat="45.8480100" lon="9.3179850">
	<ele>1247.80</ele>
	<time>2024-03-25T10:20:01.000Z</time>
</trkpt>
<trkpt lat="45.8480040" lon="9.3179760">
	<ele>1248.00</ele>
	<time>2024-03-25T10:20:02.000Z</time>
</trkpt>
<trkpt lat="45.8480020" lon="9.3179690">
	<ele>1248.20</ele>
	<time>2024-03-25T10:20:03.000Z</time>
</trkpt>
<trkpt lat="45.8479990" lon="9.3179620">
	<ele>1248.40</ele>
	<time>2024-03-25T10:20:04.000Z</time>
</trkpt>
<trkpt lat="45.8479960" lon="9.3179520">
	<ele>1248.40</ele>
	<time>2024-03-25T10:20:05.000Z</time>
</trkpt>
<trkpt lat="45.8479930" lon="9.3179390">
	<ele>1248.60</ele>
	<time>2024-03-25T10:20:06.000Z</time>
</trkpt>
<trkpt lat="45.8479880" lon="9.3179260">
	<ele>1248.60</ele>
	<time>2024-03-25T10:20:07.000Z</time>
</trkpt>
<trkpt lat="45.8479820" lon="9.3179140">
	<ele>1248.80</ele>
	<time>2024-03-25T10:20:08.000Z</time>
</trkpt>
<trkpt lat="45.8479740" lon="9.3179030">
	<ele>1248.80</ele>
	<time>2024-03-25T10:20:09.000Z</time>
</trkpt>
<trkpt lat="45.8479660" lon="9.3178940">
	<ele>1249.00</ele>
	<time>2024-03-25T10:20:10.000Z</time>
</trkpt>
<trkpt lat="45.8479630" lon="9.3178860">
	<ele>1249.00</ele>
	<time>2024-03-25T10:20:11.000Z</time>
</trkpt>
<trkpt lat="45.8479580" lon="9.3178800">
	<ele>1249.40</ele>
	<time>2024-03-25T10:20:12.000Z</time>
</trkpt>
<trkpt lat="45.8479540" lon="9.3178720">
	<ele>1249.40</ele>
	<time>2024-03-25T10:20:13.000Z</time>
</trkpt>
<trkpt lat="45.8479480" lon="9.3178660">
	<ele>1249.80</ele>
	<time>2024-03-25T10:20:14.000Z</time>
</trkpt>
<trkpt lat="45.8479440" lon="9.3178610">
	<ele>1249.80</ele>
	<time>2024-03-25T10:20:15.000Z</time>
</trkpt>
<trkpt lat="45.8479380" lon="9.3178550">
	<ele>1250.00</ele>
	<time>2024-03-25T10:20:16.000Z</time>
</trkpt>
<trkpt lat="45.8479330" lon="9.3178490">
	<ele>1250.40</ele>
	<time>2024-03-25T10:20:17.000Z</time>
</trkpt>
<trkpt lat="45.8479260" lon="9.3178410">
	<ele>1250.40</ele>
	<time>2024-03-25T10:20:18.000Z</time>
</trkpt>
<trkpt lat="45.8479140" lon="9.3178330">
	<ele>1250.60</ele>
	<time>2024-03-25T10:20:19.000Z</time>
</trkpt>
<trkpt lat="45.8479060" lon="9.3178290">
	<ele>1250.80</ele>
	<time>2024-03-25T10:20:20.000Z</time>
</trkpt>
<trkpt lat="45.8478990" lon="9.3178280">
	<ele>1250.80</ele>
	<time>2024-03-25T10:20:21.000Z</time>
</trkpt>
<trkpt lat="45.8478920" lon="9.3178260">
	<ele>1251.00</ele>
	<time>2024-03-25T10:20:22.000Z</time>
</trkpt>
<trkpt lat="45.8478890" lon="9.3178260">
	<ele>1251.20</ele>
	<time>2024-03-25T10:20:23.000Z</time>
</trkpt>
<trkpt lat="45.8478790" lon="9.3178220">
	<ele>1251.40</ele>
	<time>2024-03-25T10:20:24.000Z</time>
</trkpt>
<trkpt lat="45.8478700" lon="9.3178220">
	<ele>1251.60</ele>
	<time>2024-03-25T10:20:25.000Z</time>
</trkpt>
<trkpt lat="45.8478630" lon="9.3178240">
	<ele>1251.80</ele>
	<time>2024-03-25T10:20:26.000Z</time>
</trkpt>
<trkpt lat="45.8478570" lon="9.3178240">
	<ele>1252.00</ele>
	<time>2024-03-25T10:20:27.000Z</time>
</trkpt>
<trkpt lat="45.8478500" lon="9.3178280">
	<ele>1252.40</ele>
	<time>2024-03-25T10:20:28.000Z</time>
</trkpt>
<trkpt lat="45.8478440" lon="9.3178300">
	<ele>1252.60</ele>
	<time>2024-03-25T10:20:29.000Z</time>
</trkpt>
<trkpt lat="45.8478390" lon="9.3178300">
	<ele>1252.80</ele>
	<time>2024-03-25T10:20:30.000Z</time>
</trkpt>
<trkpt lat="45.8478370" lon="9.3178290">
	<ele>1253.00</ele>
	<time>2024-03-25T10:20:31.000Z</time>
</trkpt>
<trkpt lat="45.8478350" lon="9.3178280">
	<ele>1253.00</ele>
	<time>2024-03-25T10:20:32.000Z</time>
</trkpt>
<trkpt lat="45.8478330" lon="9.3178300">
	<ele>1253.20</ele>
	<time>2024-03-25T10:20:33.000Z</time>
</trkpt>
<trkpt lat="45.8478280" lon="9.3178290">
	<ele>1253.20</ele>
	<time>2024-03-25T10:20:34.000Z</time>
</trkpt>
<trkpt lat="45.8478250" lon="9.3178300">
	<ele>1253.40</ele>
	<time>2024-03-25T10:20:35.000Z</time>
</trkpt>
<trkpt lat="45.8478250" lon="9.3178280">
	<ele>1253.60</ele>
	<time>2024-03-25T10:20:36.000Z</time>
</trkpt>
<trkpt lat="45.8478260" lon="9.3178250">
	<ele>1253.80</ele>
	<time>2024-03-25T10:20:37.000Z</time>
</trkpt>
<trkpt lat="45.8478260" lon="9.3178220">
	<ele>1254.00</ele>
	<time>2024-03-25T10:20:38.000Z</time>
</trkpt>
<trkpt lat="45.8478260" lon="9.3178200">
	<ele>1254.20</ele>
	<time>2024-03-25T10:20:39.000Z</time>
</trkpt>
<trkpt lat="45.8478270" lon="9.3178170">
	<ele>1254.20</ele>
	<time>2024-03-25T10:20:40.000Z</time>
</trkpt>
<trkpt lat="45.8478280" lon="9.3178090">
	<ele>1254.20</ele>
	<time>2024-03-25T10:20:41.000Z</time>
</trkpt>
<trkpt lat="45.8478290" lon="9.3178060">
	<ele>1254.20</ele>
	<time>2024-03-25T10:20:42.000Z</time>
</trkpt>
<trkpt lat="45.8478280" lon="9.3178040">
	<ele>1254.40</ele>
	<time>2024-03-25T10:20:43.000Z</time>
</trkpt>
<trkpt lat="45.8478270" lon="9.3178050">
	<ele>1254.40</ele>
	<time>2024-03-25T10:20:44.000Z</time>
</trkpt>
<trkpt lat="45.8478280" lon="9.3178070">
	<ele>1254.40</ele>
	<time>2024-03-25T10:20:45.000Z</time>
</trkpt>
<trkpt lat="45.8478280" lon="9.3178070">
	<ele>1254.40</ele>
	<time>2024-03-25T10:20:46.000Z</time>
</trkpt>
<trkpt lat="45.8478280" lon="9.3178070">
	<ele>1254.40</ele>
	<time>2024-03-25T10:20:47.000Z</time>
</trkpt>
<trkpt lat="45.8478280" lon="9.3178070">
	<ele>1254.40</ele>
	<time>2024-03-25T10:20:48.000Z</time>
</trkpt>
<trkpt lat="45.8478280" lon="9.3178070">
	<ele>1254.40</ele>
	<time>2024-03-25T10:20:49.000Z</time>
</trkpt>
<trkpt lat="45.8478280" lon="9.3178070">
	<ele>1254.20</ele>
	<time>2024-03-25T10:20:50.000Z</time>
</trkpt>
<trkpt lat="45.8478280" lon="9.3178070">
	<ele>1254.20</ele>
	<time>2024-03-25T10:20:51.000Z</time>
</trkpt>
<trkpt lat="45.8478280" lon="9.3178070">
	<ele>1254.20</ele>
	<time>2024-03-25T10:20:52.000Z</time>
</trkpt>
<trkpt lat="45.8478280" lon="9.3178070">
	<ele>1254.00</ele>
	<time>2024-03-25T10:20:53.000Z</time>
</trkpt>
<trkpt lat="45.8478280" lon="9.3178070">
	<ele>1254.00</ele>
	<time>2024-03-25T10:20:54.000Z</time>
</trkpt>
<trkpt lat="45.8478280" lon="9.3178070">
	<ele>1254.00</ele>
	<time>2024-03-25T10:20:55.000Z</time>
</trkpt>
<trkpt lat="45.8478280" lon="9.3178070">
	<ele>1254.00</ele>
	<time>2024-03-25T10:20:56.000Z</time>
</trkpt>
<trkpt lat="45.8478280" lon="9.3178070">
	<ele>1254.00</ele>
	<time>2024-03-25T10:20:57.000Z</time>
</trkpt>
<trkpt lat="45.8478280" lon="9.3178070">
	<ele>1254.00</ele>
	<time>2024-03-25T10:20:58.000Z</time>
</trkpt>
<trkpt lat="45.8478280" lon="9.3178070">
	<ele>1253.80</ele>
	<time>2024-03-25T10:20:59.000Z</time>
</trkpt>
<trkpt lat="45.8478280" lon="9.3178070">
	<ele>1253.80</ele>
	<time>2024-03-25T10:21:00.000Z</time>
</trkpt>
<trkpt lat="45.8478280" lon="9.3178070">
	<ele>1253.80</ele>
	<time>2024-03-25T10:21:01.000Z</time>
</trkpt>
<trkpt lat="45.8478280" lon="9.3178070">
	<ele>1253.80</ele>
	<time>2024-03-25T10:21:02.000Z</time>
</trkpt>
<trkpt lat="45.8478280" lon="9.3178070">
	<ele>1253.80</ele>
	<time>2024-03-25T10:21:03.000Z</time>
</trkpt>
<trkpt lat="45.8478280" lon="9.3178070">
	<ele>1254.20</ele>
	<time>2024-03-25T10:21:04.000Z</time>
</trkpt>
<trkpt lat="45.8478270" lon="9.3178070">
	<ele>1254.40</ele>
	<time>2024-03-25T10:21:05.000Z</time>
</trkpt>
<trkpt lat="45.8478270" lon="9.3178070">
	<ele>1254.40</ele>
	<time>2024-03-25T10:21:06.000Z</time>
</trkpt>
<trkpt lat="45.8478270" lon="9.3178070">
	<ele>1254.60</ele>
	<time>2024-03-25T10:21:07.000Z</time>
</trkpt>
<trkpt lat="45.8478260" lon="9.3178070">
	<ele>1254.80</ele>
	<time>2024-03-25T10:21:08.000Z</time>
</trkpt>
<trkpt lat="45.8478260" lon="9.3178070">
	<ele>1254.80</ele>
	<time>2024-03-25T10:21:09.000Z</time>
</trkpt>
<trkpt lat="45.8478260" lon="9.3178070">
	<ele>1254.80</ele>
	<time>2024-03-25T10:21:10.000Z</time>
</trkpt>
<trkpt lat="45.8478250" lon="9.3178070">
	<ele>1254.80</ele>
	<time>2024-03-25T10:21:11.000Z</time>
</trkpt>
<trkpt lat="45.8478250" lon="9.3178070">
	<ele>1254.80</ele>
	<time>2024-03-25T10:21:12.000Z</time>
</trkpt>
<trkpt lat="45.8478250" lon="9.3178080">
	<ele>1254.60</ele>
	<time>2024-03-25T10:21:13.000Z</time>
</trkpt>
<trkpt lat="45.8478240" lon="9.3178100">
	<ele>1254.60</ele>
	<time>2024-03-25T10:21:14.000Z</time>
</trkpt>
<trkpt lat="45.8478230" lon="9.3178100">
	<ele>1254.60</ele>
	<time>2024-03-25T10:21:15.000Z</time>
</trkpt>
<trkpt lat="45.8478230" lon="9.3178110">
	<ele>1254.40</ele>
	<time>2024-03-25T10:21:16.000Z</time>
</trkpt>
<trkpt lat="45.8478230" lon="9.3178140">
	<ele>1254.40</ele>
	<time>2024-03-25T10:21:17.000Z</time>
</trkpt>
<trkpt lat="45.8478230" lon="9.3178170">
	<ele>1254.40</ele>
	<time>2024-03-25T10:21:18.000Z</time>
</trkpt>
<trkpt lat="45.8478230" lon="9.3178220">
	<ele>1254.40</ele>
	<time>2024-03-25T10:21:19.000Z</time>
</trkpt>
<trkpt lat="45.8478230" lon="9.3178280">
	<ele>1254.40</ele>
	<time>2024-03-25T10:21:20.000Z</time>
</trkpt>
<trkpt lat="45.8478220" lon="9.3178310">
	<ele>1254.40</ele>
	<time>2024-03-25T10:21:21.000Z</time>
</trkpt>
<trkpt lat="45.8478220" lon="9.3178330">
	<ele>1254.40</ele>
	<time>2024-03-25T10:21:22.000Z</time>
</trkpt>
<trkpt lat="45.8478210" lon="9.3178340">
	<ele>1254.60</ele>
	<time>2024-03-25T10:21:23.000Z</time>
</trkpt>
<trkpt lat="45.8478190" lon="9.3178340">
	<ele>1254.60</ele>
	<time>2024-03-25T10:21:24.000Z</time>
</trkpt>
<trkpt lat="45.8478190" lon="9.3178360">
	<ele>1254.60</ele>
	<time>2024-03-25T10:21:25.000Z</time>
</trkpt>
<trkpt lat="45.8478170" lon="9.3178360">
	<ele>1254.80</ele>
	<time>2024-03-25T10:21:26.000Z</time>
</trkpt>
<trkpt lat="45.8478170" lon="9.3178360">
	<ele>1254.80</ele>
	<time>2024-03-25T10:21:27.000Z</time>
</trkpt>
<trkpt lat="45.8478150" lon="9.3178360">
	<ele>1254.80</ele>
	<time>2024-03-25T10:21:28.000Z</time>
</trkpt>
<trkpt lat="45.8478140" lon="9.3178360">
	<ele>1254.80</ele>
	<time>2024-03-25T10:21:29.000Z</time>
</trkpt>
<trkpt lat="45.8478130" lon="9.3178360">
	<ele>1254.80</ele>
	<time>2024-03-25T10:21:30.000Z</time>
</trkpt>
<trkpt lat="45.8478130" lon="9.3178360">
	<ele>1254.60</ele>
	<time>2024-03-25T10:21:31.000Z</time>
</trkpt>
<trkpt lat="45.8478130" lon="9.3178360">
	<ele>1254.40</ele>
	<time>2024-03-25T10:21:32.000Z</time>
</trkpt>
<trkpt lat="45.8478130" lon="9.3178360">
	<ele>1254.40</ele>
	<time>2024-03-25T10:21:33.000Z</time>
</trkpt>
<trkpt lat="45.8478130" lon="9.3178360">
	<ele>1254.20</ele>
	<time>2024-03-25T10:21:34.000Z</time>
</trkpt>
<trkpt lat="45.8478130" lon="9.3178360">
	<ele>1253.80</ele>
	<time>2024-03-25T10:21:35.000Z</time>
</trkpt>
<trkpt lat="45.8478130" lon="9.3178370">
	<ele>1253.60</ele>
	<time>2024-03-25T10:21:36.000Z</time>
</trkpt>
<trkpt lat="45.8478130" lon="9.3178380">
	<ele>1253.20</ele>
	<time>2024-03-25T10:21:37.000Z</time>
</trkpt>
<trkpt lat="45.8478090" lon="9.3178380">
	<ele>1252.80</ele>
	<time>2024-03-25T10:21:38.000Z</time>
</trkpt>
<trkpt lat="45.8478050" lon="9.3178390">
	<ele>1252.60</ele>
	<time>2024-03-25T10:21:39.000Z</time>
</trkpt>
<trkpt lat="45.8478020" lon="9.3178400">
	<ele>1252.40</ele>
	<time>2024-03-25T10:21:40.000Z</time>
</trkpt>
<trkpt lat="45.8478000" lon="9.3178410">
	<ele>1252.40</ele>
	<time>2024-03-25T10:21:41.000Z</time>
</trkpt>
<trkpt lat="45.8477960" lon="9.3178410">
	<ele>1252.20</ele>
	<time>2024-03-25T10:21:42.000Z</time>
</trkpt>
<trkpt lat="45.8477940" lon="9.3178410">
	<ele>1252.20</ele>
	<time>2024-03-25T10:21:43.000Z</time>
</trkpt>
<trkpt lat="45.8477920" lon="9.3178410">
	<ele>1252.20</ele>
	<time>2024-03-25T10:21:44.000Z</time>
</trkpt>
<trkpt lat="45.8477910" lon="9.3178410">
	<ele>1252.00</ele>
	<time>2024-03-25T10:21:45.000Z</time>
</trkpt>
<trkpt lat="45.8477900" lon="9.3178410">
	<ele>1251.80</ele>
	<time>2024-03-25T10:21:46.000Z</time>
</trkpt>
<trkpt lat="45.8477880" lon="9.3178410">
	<ele>1251.60</ele>
	<time>2024-03-25T10:21:47.000Z</time>
</trkpt>
<trkpt lat="45.8477830" lon="9.3178410">
	<ele>1251.40</ele>
	<time>2024-03-25T10:21:48.000Z</time>
</trkpt>
<trkpt lat="45.8477780" lon="9.3178410">
	<ele>1251.20</ele>
	<time>2024-03-25T10:21:49.000Z</time>
</trkpt>
<trkpt lat="45.8477740" lon="9.3178410">
	<ele>1251.00</ele>
	<time>2024-03-25T10:21:50.000Z</time>
</trkpt>
<trkpt lat="45.8477720" lon="9.3178410">
	<ele>1250.80</ele>
	<time>2024-03-25T10:21:51.000Z</time>
</trkpt>
<trkpt lat="45.8477700" lon="9.3178410">
	<ele>1250.60</ele>
	<time>2024-03-25T10:21:52.000Z</time>
</trkpt>
<trkpt lat="45.8477680" lon="9.3178410">
	<ele>1250.40</ele>
	<time>2024-03-25T10:21:53.000Z</time>
</trkpt>
<trkpt lat="45.8477670" lon="9.3178410">
	<ele>1250.20</ele>
	<time>2024-03-25T10:21:54.000Z</time>
</trkpt>
<trkpt lat="45.8477670" lon="9.3178420">
	<ele>1249.80</ele>
	<time>2024-03-25T10:21:55.000Z</time>
</trkpt>
<trkpt lat="45.8477660" lon="9.3178440">
	<ele>1249.80</ele>
	<time>2024-03-25T10:21:56.000Z</time>
</trkpt>
<trkpt lat="45.8477660" lon="9.3178450">
	<ele>1249.40</ele>
	<time>2024-03-25T10:21:57.000Z</time>
</trkpt>
<trkpt lat="45.8477660" lon="9.3178460">
	<ele>1249.20</ele>
	<time>2024-03-25T10:21:58.000Z</time>
</trkpt>
<trkpt lat="45.8477650" lon="9.3178460">
	<ele>1249.00</ele>
	<time>2024-03-25T10:21:59.000Z</time>
</trkpt>
<trkpt lat="45.8477620" lon="9.3178460">
	<ele>1248.80</ele>
	<time>2024-03-25T10:22:00.000Z</time>
</trkpt>
<trkpt lat="45.8477590" lon="9.3178460">
	<ele>1248.60</ele>
	<time>2024-03-25T10:22:01.000Z</time>
</trkpt>
<trkpt lat="45.8477550" lon="9.3178460">
	<ele>1248.40</ele>
	<time>2024-03-25T10:22:02.000Z</time>
</trkpt>
<trkpt lat="45.8477500" lon="9.3178470">
	<ele>1248.20</ele>
	<time>2024-03-25T10:22:03.000Z</time>
</trkpt>
<trkpt lat="45.8477440" lon="9.3178470">
	<ele>1248.20</ele>
	<time>2024-03-25T10:22:04.000Z</time>
</trkpt>
<trkpt lat="45.8477370" lon="9.3178480">
	<ele>1248.20</ele>
	<time>2024-03-25T10:22:05.000Z</time>
</trkpt>
<trkpt lat="45.8477330" lon="9.3178490">
	<ele>1248.00</ele>
	<time>2024-03-25T10:22:06.000Z</time>
</trkpt>
<trkpt lat="45.8477270" lon="9.3178500">
	<ele>1248.00</ele>
	<time>2024-03-25T10:22:07.000Z</time>
</trkpt>
<trkpt lat="45.8477220" lon="9.3178500">
	<ele>1248.00</ele>
	<time>2024-03-25T10:22:08.000Z</time>
</trkpt>
<trkpt lat="45.8477170" lon="9.3178510">
	<ele>1247.60</ele>
	<time>2024-03-25T10:22:09.000Z</time>
</trkpt>
<trkpt lat="45.8477090" lon="9.3178510">
	<ele>1247.40</ele>
	<time>2024-03-25T10:22:10.000Z</time>
</trkpt>
<trkpt lat="45.8477050" lon="9.3178510">
	<ele>1247.20</ele>
	<time>2024-03-25T10:22:11.000Z</time>
</trkpt>
<trkpt lat="45.8477000" lon="9.3178510">
	<ele>1246.80</ele>
	<time>2024-03-25T10:22:12.000Z</time>
</trkpt>
<trkpt lat="45.8476970" lon="9.3178510">
	<ele>1246.60</ele>
	<time>2024-03-25T10:22:13.000Z</time>
</trkpt>
<trkpt lat="45.8476960" lon="9.3178510">
	<ele>1246.40</ele>
	<time>2024-03-25T10:22:14.000Z</time>
</trkpt>
<trkpt lat="45.8476930" lon="9.3178510">
	<ele>1246.20</ele>
	<time>2024-03-25T10:22:15.000Z</time>
</trkpt>
<trkpt lat="45.8476900" lon="9.3178510">
	<ele>1245.80</ele>
	<time>2024-03-25T10:22:16.000Z</time>
</trkpt>
<trkpt lat="45.8476860" lon="9.3178510">
	<ele>1245.80</ele>
	<time>2024-03-25T10:22:17.000Z</time>
</trkpt>
<trkpt lat="45.8476820" lon="9.3178510">
	<ele>1245.60</ele>
	<time>2024-03-25T10:22:18.000Z</time>
</trkpt>
<trkpt lat="45.8476810" lon="9.3178500">
	<ele>1245.40</ele>
	<time>2024-03-25T10:22:19.000Z</time>
</trkpt>
<trkpt lat="45.8476800" lon="9.3178500">
	<ele>1245.40</ele>
	<time>2024-03-25T10:22:20.000Z</time>
</trkpt>
<trkpt lat="45.8476790" lon="9.3178490">
	<ele>1245.20</ele>
	<time>2024-03-25T10:22:21.000Z</time>
</trkpt>
<trkpt lat="45.8476790" lon="9.3178490">
	<ele>1245.20</ele>
	<time>2024-03-25T10:22:22.000Z</time>
</trkpt>
<trkpt lat="45.8476780" lon="9.3178490">
	<ele>1245.00</ele>
	<time>2024-03-25T10:22:23.000Z</time>
</trkpt>
<trkpt lat="45.8476780" lon="9.3178490">
	<ele>1244.60</ele>
	<time>2024-03-25T10:22:24.000Z</time>
</trkpt>
<trkpt lat="45.8476770" lon="9.3178490">
	<ele>1244.40</ele>
	<time>2024-03-25T10:22:25.000Z</time>
</trkpt>
<trkpt lat="45.8476750" lon="9.3178480">
	<ele>1244.00</ele>
	<time>2024-03-25T10:22:26.000Z</time>
</trkpt>
<trkpt lat="45.8476730" lon="9.3178480">
	<ele>1243.80</ele>
	<time>2024-03-25T10:22:27.000Z</time>
</trkpt>
<trkpt lat="45.8476720" lon="9.3178480">
	<ele>1243.60</ele>
	<time>2024-03-25T10:22:28.000Z</time>
</trkpt>
<trkpt lat="45.8476700" lon="9.3178480">
	<ele>1243.40</ele>
	<time>2024-03-25T10:22:29.000Z</time>
</trkpt>
<trkpt lat="45.8476690" lon="9.3178480">
	<ele>1243.20</ele>
	<time>2024-03-25T10:22:30.000Z</time>
</trkpt>
<trkpt lat="45.8476670" lon="9.3178440">
	<ele>1243.00</ele>
	<time>2024-03-25T10:22:31.000Z</time>
</trkpt>
<trkpt lat="45.8476650" lon="9.3178400">
	<ele>1242.60</ele>
	<time>2024-03-25T10:22:32.000Z</time>
</trkpt>
<trkpt lat="45.8476630" lon="9.3178350">
	<ele>1242.40</ele>
	<time>2024-03-25T10:22:33.000Z</time>
</trkpt>
<trkpt lat="45.8476620" lon="9.3178300">
	<ele>1242.20</ele>
	<time>2024-03-25T10:22:34.000Z</time>
</trkpt>
<trkpt lat="45.8476620" lon="9.3178270">
	<ele>1242.20</ele>
	<time>2024-03-25T10:22:35.000Z</time>
</trkpt>
<trkpt lat="45.8476610" lon="9.3178260">
	<ele>1242.00</ele>
	<time>2024-03-25T10:22:36.000Z</time>
</trkpt>
<trkpt lat="45.8476600" lon="9.3178250">
	<ele>1242.00</ele>
	<time>2024-03-25T10:22:37.000Z</time>
</trkpt>
<trkpt lat="45.8476590" lon="9.3178250">
	<ele>1241.80</ele>
	<time>2024-03-25T10:22:38.000Z</time>
</trkpt>
<trkpt lat="45.8476580" lon="9.3178250">
	<ele>1241.60</ele>
	<time>2024-03-25T10:22:39.000Z</time>
</trkpt>
<trkpt lat="45.8476550" lon="9.3178240">
	<ele>1241.20</ele>
	<time>2024-03-25T10:22:40.000Z</time>
</trkpt>
<trkpt lat="45.8476520" lon="9.3178240">
	<ele>1241.00</ele>
	<time>2024-03-25T10:22:41.000Z</time>
</trkpt>
<trkpt lat="45.8476480" lon="9.3178240">
	<ele>1240.80</ele>
	<time>2024-03-25T10:22:42.000Z</time>
</trkpt>
<trkpt lat="45.8476450" lon="9.3178240">
	<ele>1240.80</ele>
	<time>2024-03-25T10:22:43.000Z</time>
</trkpt>
<trkpt lat="45.8476420" lon="9.3178240">
	<ele>1240.40</ele>
	<time>2024-03-25T10:22:44.000Z</time>
</trkpt>
<trkpt lat="45.8476390" lon="9.3178240">
	<ele>1240.00</ele>
	<time>2024-03-25T10:22:45.000Z</time>
</trkpt>
<trkpt lat="45.8476370" lon="9.3178240">
	<ele>1240.00</ele>
	<time>2024-03-25T10:22:46.000Z</time>
</trkpt>
<trkpt lat="45.8476340" lon="9.3178240">
	<ele>1239.80</ele>
	<time>2024-03-25T10:22:47.000Z</time>
</trkpt>
<trkpt lat="45.8476310" lon="9.3178240">
	<ele>1239.60</ele>
	<time>2024-03-25T10:22:48.000Z</time>
</trkpt>
<trkpt lat="45.8476280" lon="9.3178240">
	<ele>1239.20</ele>
	<time>2024-03-25T10:22:49.000Z</time>
</trkpt>
<trkpt lat="45.8476230" lon="9.3178250">
	<ele>1239.00</ele>
	<time>2024-03-25T10:22:50.000Z</time>
</trkpt>
<trkpt lat="45.8476190" lon="9.3178260">
	<ele>1238.80</ele>
	<time>2024-03-25T10:22:51.000Z</time>
</trkpt>
<trkpt lat="45.8476150" lon="9.3178270">
	<ele>1238.80</ele>
	<time>2024-03-25T10:22:52.000Z</time>
</trkpt>
<trkpt lat="45.8476100" lon="9.3178280">
	<ele>1238.60</ele>
	<time>2024-03-25T10:22:53.000Z</time>
</trkpt>
<trkpt lat="45.8476040" lon="9.3178290">
	<ele>1238.40</ele>
	<time>2024-03-25T10:22:54.000Z</time>
</trkpt>
<trkpt lat="45.8475900" lon="9.3178290">
	<ele>1238.20</ele>
	<time>2024-03-25T10:22:55.000Z</time>
</trkpt>
<trkpt lat="45.8475710" lon="9.3178310">
	<ele>1238.00</ele>
	<time>2024-03-25T10:22:56.000Z</time>
</trkpt>
<trkpt lat="45.8475510" lon="9.3178310">
	<ele>1237.20</ele>
	<time>2024-03-25T10:22:57.000Z</time>
</trkpt>
<trkpt lat="45.8475300" lon="9.3178310">
	<ele>1237.00</ele>
	<time>2024-03-25T10:22:58.000Z</time>
</trkpt>
<trkpt lat="45.8475070" lon="9.3178260">
	<ele>1236.60</ele>
	<time>2024-03-25T10:22:59.000Z</time>
</trkpt>
<trkpt lat="45.8474790" lon="9.3178170">
	<ele>1236.40</ele>
	<time>2024-03-25T10:23:00.000Z</time>
</trkpt>
<trkpt lat="45.8474540" lon="9.3178110">
	<ele>1236.40</ele>
	<time>2024-03-25T10:23:01.000Z</time>
</trkpt>
<trkpt lat="45.8474230" lon="9.3178030">
	<ele>1236.20</ele>
	<time>2024-03-25T10:23:02.000Z</time>
</trkpt>
<trkpt lat="45.8473930" lon="9.3177970">
	<ele>1235.80</ele>
	<time>2024-03-25T10:23:03.000Z</time>
</trkpt>
<trkpt lat="45.8473700" lon="9.3177930">
	<ele>1235.60</ele>
	<time>2024-03-25T10:23:04.000Z</time>
</trkpt>
<trkpt lat="45.8473580" lon="9.3177930">
	<ele>1235.40</ele>
	<time>2024-03-25T10:23:05.000Z</time>
</trkpt>
<trkpt lat="45.8473460" lon="9.3177910">
	<ele>1235.00</ele>
	<time>2024-03-25T10:23:06.000Z</time>
</trkpt>
<trkpt lat="45.8473430" lon="9.3177930">
	<ele>1234.80</ele>
	<time>2024-03-25T10:23:07.000Z</time>
</trkpt>
<trkpt lat="45.8473380" lon="9.3177960">
	<ele>1234.60</ele>
	<time>2024-03-25T10:23:08.000Z</time>
</trkpt>
<trkpt lat="45.8473340" lon="9.3177960">
	<ele>1234.40</ele>
	<time>2024-03-25T10:23:09.000Z</time>
</trkpt>
<trkpt lat="45.8473370" lon="9.3177990">
	<ele>1234.20</ele>
	<time>2024-03-25T10:23:10.000Z</time>
</trkpt>
<trkpt lat="45.8473370" lon="9.3177990">
	<ele>1234.20</ele>
	<time>2024-03-25T10:23:11.000Z</time>
</trkpt>
<trkpt lat="45.8473360" lon="9.3177970">
	<ele>1234.20</ele>
	<time>2024-03-25T10:23:12.000Z</time>
</trkpt>
<trkpt lat="45.8473340" lon="9.3177910">
	<ele>1234.00</ele>
	<time>2024-03-25T10:23:13.000Z</time>
</trkpt>
<trkpt lat="45.8473340" lon="9.3177900">
	<ele>1234.00</ele>
	<time>2024-03-25T10:23:14.000Z</time>
</trkpt>
<trkpt lat="45.8473340" lon="9.3177910">
	<ele>1233.60</ele>
	<time>2024-03-25T10:23:15.000Z</time>
</trkpt>
<trkpt lat="45.8473310" lon="9.3177910">
	<ele>1233.40</ele>
	<time>2024-03-25T10:23:16.000Z</time>
</trkpt>
<trkpt lat="45.8473300" lon="9.3177890">
	<ele>1233.20</ele>
	<time>2024-03-25T10:23:17.000Z</time>
</trkpt>
<trkpt lat="45.8473320" lon="9.3177850">
	<ele>1233.00</ele>
	<time>2024-03-25T10:23:18.000Z</time>
</trkpt>
<trkpt lat="45.8473320" lon="9.3177820">
	<ele>1232.80</ele>
	<time>2024-03-25T10:23:19.000Z</time>
</trkpt>
<trkpt lat="45.8473310" lon="9.3177780">
	<ele>1232.60</ele>
	<time>2024-03-25T10:23:20.000Z</time>
</trkpt>
<trkpt lat="45.8473280" lon="9.3177810">
	<ele>1232.40</ele>
	<time>2024-03-25T10:23:21.000Z</time>
</trkpt>
<trkpt lat="45.8473270" lon="9.3177830">
	<ele>1232.20</ele>
	<time>2024-03-25T10:23:22.000Z</time>
</trkpt>
<trkpt lat="45.8473230" lon="9.3177850">
	<ele>1232.00</ele>
	<time>2024-03-25T10:23:23.000Z</time>
</trkpt>
<trkpt lat="45.8473200" lon="9.3177870">
	<ele>1232.00</ele>
	<time>2024-03-25T10:23:24.000Z</time>
</trkpt>
<trkpt lat="45.8473130" lon="9.3177840">
	<ele>1231.60</ele>
	<time>2024-03-25T10:23:25.000Z</time>
</trkpt>
<trkpt lat="45.8473090" lon="9.3177840">
	<ele>1231.20</ele>
	<time>2024-03-25T10:23:26.000Z</time>
</trkpt>
<trkpt lat="45.8473000" lon="9.3177830">
	<ele>1231.00</ele>
	<time>2024-03-25T10:23:27.000Z</time>
</trkpt>
<trkpt lat="45.8472880" lon="9.3177850">
	<ele>1230.80</ele>
	<time>2024-03-25T10:23:28.000Z</time>
</trkpt>
<trkpt lat="45.8472820" lon="9.3177880">
	<ele>1230.60</ele>
	<time>2024-03-25T10:23:29.000Z</time>
</trkpt>
<trkpt lat="45.8472740" lon="9.3177920">
	<ele>1230.40</ele>
	<time>2024-03-25T10:23:30.000Z</time>
</trkpt>
<trkpt lat="45.8472700" lon="9.3177960">
	<ele>1230.40</ele>
	<time>2024-03-25T10:23:31.000Z</time>
</trkpt>
<trkpt lat="45.8472670" lon="9.3177980">
	<ele>1230.20</ele>
	<time>2024-03-25T10:23:32.000Z</time>
</trkpt>
<trkpt lat="45.8472600" lon="9.3177930">
	<ele>1230.00</ele>
	<time>2024-03-25T10:23:33.000Z</time>
</trkpt>
<trkpt lat="45.8472500" lon="9.3177910">
	<ele>1229.80</ele>
	<time>2024-03-25T10:23:34.000Z</time>
</trkpt>
<trkpt lat="45.8472380" lon="9.3177940">
	<ele>1229.40</ele>
	<time>2024-03-25T10:23:35.000Z</time>
</trkpt>
<trkpt lat="45.8472250" lon="9.3178000">
	<ele>1229.20</ele>
	<time>2024-03-25T10:23:36.000Z</time>
</trkpt>
<trkpt lat="45.8472140" lon="9.3178070">
	<ele>1229.00</ele>
	<time>2024-03-25T10:23:37.000Z</time>
</trkpt>
<trkpt lat="45.8472040" lon="9.3178120">
	<ele>1228.80</ele>
	<time>2024-03-25T10:23:38.000Z</time>
</trkpt>
<trkpt lat="45.8471990" lon="9.3178160">
	<ele>1228.80</ele>
	<time>2024-03-25T10:23:39.000Z</time>
</trkpt>
<trkpt lat="45.8471950" lon="9.3178160">
	<ele>1228.60</ele>
	<time>2024-03-25T10:23:40.000Z</time>
</trkpt>
<trkpt lat="45.8471890" lon="9.3178090">
	<ele>1228.60</ele>
	<time>2024-03-25T10:23:41.000Z</time>
</trkpt>
<trkpt lat="45.8471800" lon="9.3177990">
	<ele>1228.40</ele>
	<time>2024-03-25T10:23:42.000Z</time>
</trkpt>
<trkpt lat="45.8471740" lon="9.3177950">
	<ele>1228.00</ele>
	<time>2024-03-25T10:23:43.000Z</time>
</trkpt>
<trkpt lat="45.8471730" lon="9.3177920">
	<ele>1227.80</ele>
	<time>2024-03-25T10:23:44.000Z</time>
</trkpt>
<trkpt lat="45.8471730" lon="9.3177910">
	<ele>1227.80</ele>
	<time>2024-03-25T10:23:45.000Z</time>
</trkpt>
<trkpt lat="45.8471730" lon="9.3177880">
	<ele>1227.80</ele>
	<time>2024-03-25T10:23:46.000Z</time>
</trkpt>
<trkpt lat="45.8471720" lon="9.3177860">
	<ele>1227.80</ele>
	<time>2024-03-25T10:23:47.000Z</time>
</trkpt>
<trkpt lat="45.8471710" lon="9.3177870">
	<ele>1227.60</ele>
	<time>2024-03-25T10:23:48.000Z</time>
</trkpt>
<trkpt lat="45.8471720" lon="9.3177860">
	<ele>1227.60</ele>
	<time>2024-03-25T10:23:49.000Z</time>
</trkpt>
<trkpt lat="45.8471730" lon="9.3177860">
	<ele>1227.80</ele>
	<time>2024-03-25T10:23:50.000Z</time>
</trkpt>
<trkpt lat="45.8471720" lon="9.3177840">
	<ele>1227.80</ele>
	<time>2024-03-25T10:23:51.000Z</time>
</trkpt>
<trkpt lat="45.8471710" lon="9.3177840">
	<ele>1227.80</ele>
	<time>2024-03-25T10:23:52.000Z</time>
</trkpt>
<trkpt lat="45.8471690" lon="9.3177850">
	<ele>1227.80</ele>
	<time>2024-03-25T10:23:53.000Z</time>
</trkpt>
<trkpt lat="45.8471660" lon="9.3177840">
	<ele>1227.60</ele>
	<time>2024-03-25T10:23:54.000Z</time>
</trkpt>
<trkpt lat="45.8471630" lon="9.3177860">
	<ele>1227.40</ele>
	<time>2024-03-25T10:23:55.000Z</time>
</trkpt>
<trkpt lat="45.8471560" lon="9.3177910">
	<ele>1227.40</ele>
	<time>2024-03-25T10:23:56.000Z</time>
</trkpt>
<trkpt lat="45.8471530" lon="9.3177920">
	<ele>1227.20</ele>
	<time>2024-03-25T10:23:57.000Z</time>
</trkpt>
<trkpt lat="45.8471480" lon="9.3177930">
	<ele>1227.20</ele>
	<time>2024-03-25T10:23:58.000Z</time>
</trkpt>
<trkpt lat="45.8471450" lon="9.3177940">
	<ele>1227.00</ele>
	<time>2024-03-25T10:23:59.000Z</time>
</trkpt>
<trkpt lat="45.8471390" lon="9.3177990">
	<ele>1227.00</ele>
	<time>2024-03-25T10:24:00.000Z</time>
</trkpt>
<trkpt lat="45.8471350" lon="9.3178060">
	<ele>1227.00</ele>
	<time>2024-03-25T10:24:01.000Z</time>
</trkpt>
<trkpt lat="45.8471310" lon="9.3178120">
	<ele>1226.80</ele>
	<time>2024-03-25T10:24:02.000Z</time>
</trkpt>
<trkpt lat="45.8471230" lon="9.3178110">
	<ele>1226.60</ele>
	<time>2024-03-25T10:24:03.000Z</time>
</trkpt>
<trkpt lat="45.8471190" lon="9.3178130">
	<ele>1226.60</ele>
	<time>2024-03-25T10:24:04.000Z</time>
</trkpt>
<trkpt lat="45.8471140" lon="9.3178100">
	<ele>1226.40</ele>
	<time>2024-03-25T10:24:05.000Z</time>
</trkpt>
<trkpt lat="45.8471100" lon="9.3178140">
	<ele>1226.40</ele>
	<time>2024-03-25T10:24:06.000Z</time>
</trkpt>
<trkpt lat="45.8471090" lon="9.3178150">
	<ele>1226.20</ele>
	<time>2024-03-25T10:24:07.000Z</time>
</trkpt>
<trkpt lat="45.8471070" lon="9.3178140">
	<ele>1226.20</ele>
	<time>2024-03-25T10:24:08.000Z</time>
</trkpt>
<trkpt lat="45.8471010" lon="9.3178190">
	<ele>1226.20</ele>
	<time>2024-03-25T10:24:09.000Z</time>
</trkpt>
<trkpt lat="45.8471000" lon="9.3178210">
	<ele>1226.00</ele>
	<time>2024-03-25T10:24:10.000Z</time>
</trkpt>
<trkpt lat="45.8470950" lon="9.3178250">
	<ele>1226.00</ele>
	<time>2024-03-25T10:24:11.000Z</time>
</trkpt>
<trkpt lat="45.8470920" lon="9.3178260">
	<ele>1225.80</ele>
	<time>2024-03-25T10:24:12.000Z</time>
</trkpt>
<trkpt lat="45.8470820" lon="9.3178250">
	<ele>1225.40</ele>
	<time>2024-03-25T10:24:13.000Z</time>
</trkpt>
<trkpt lat="45.8470800" lon="9.3178290">
	<ele>1225.20</ele>
	<time>2024-03-25T10:24:14.000Z</time>
</trkpt>
<trkpt lat="45.8470780" lon="9.3178210">
	<ele>1225.00</ele>
	<time>2024-03-25T10:24:15.000Z</time>
</trkpt>
<trkpt lat="45.8470760" lon="9.3178150">
	<ele>1224.80</ele>
	<time>2024-03-25T10:24:16.000Z</time>
</trkpt>
<trkpt lat="45.8470740" lon="9.3178090">
	<ele>1224.60</ele>
	<time>2024-03-25T10:24:17.000Z</time>
</trkpt>
<trkpt lat="45.8470690" lon="9.3178030">
	<ele>1224.40</ele>
	<time>2024-03-25T10:24:18.000Z</time>
</trkpt>
<trkpt lat="45.8470630" lon="9.3178030">
	<ele>1224.20</ele>
	<time>2024-03-25T10:24:19.000Z</time>
</trkpt>
<trkpt lat="45.8470600" lon="9.3178030">
	<ele>1224.00</ele>
	<time>2024-03-25T10:24:20.000Z</time>
</trkpt>
<trkpt lat="45.8470550" lon="9.3177980">
	<ele>1223.80</ele>
	<time>2024-03-25T10:24:21.000Z</time>
</trkpt>
<trkpt lat="45.8470500" lon="9.3177950">
	<ele>1223.60</ele>
	<time>2024-03-25T10:24:22.000Z</time>
</trkpt>
<trkpt lat="45.8470480" lon="9.3177990">
	<ele>1223.40</ele>
	<time>2024-03-25T10:24:23.000Z</time>
</trkpt>
<trkpt lat="45.8470390" lon="9.3178020">
	<ele>1223.20</ele>
	<time>2024-03-25T10:24:24.000Z</time>
</trkpt>
<trkpt lat="45.8470320" lon="9.3178060">
	<ele>1223.00</ele>
	<time>2024-03-25T10:24:25.000Z</time>
</trkpt>
<trkpt lat="45.8470280" lon="9.3178100">
	<ele>1222.80</ele>
	<time>2024-03-25T10:24:26.000Z</time>
</trkpt>
<trkpt lat="45.8470250" lon="9.3178140">
	<ele>1222.60</ele>
	<time>2024-03-25T10:24:27.000Z</time>
</trkpt>
<trkpt lat="45.8470220" lon="9.3178170">
	<ele>1222.40</ele>
	<time>2024-03-25T10:24:28.000Z</time>
</trkpt>
<trkpt lat="45.8470190" lon="9.3178190">
	<ele>1222.20</ele>
	<time>2024-03-25T10:24:29.000Z</time>
</trkpt>
<trkpt lat="45.8470160" lon="9.3178240">
	<ele>1222.00</ele>
	<time>2024-03-25T10:24:30.000Z</time>
</trkpt>
<trkpt lat="45.8470060" lon="9.3178280">
	<ele>1221.80</ele>
	<time>2024-03-25T10:24:31.000Z</time>
</trkpt>
<trkpt lat="45.8470040" lon="9.3178330">
	<ele>1221.40</ele>
	<time>2024-03-25T10:24:32.000Z</time>
</trkpt>
<trkpt lat="45.8469970" lon="9.3178360">
	<ele>1221.20</ele>
	<time>2024-03-25T10:24:33.000Z</time>
</trkpt>
<trkpt lat="45.8469890" lon="9.3178370">
	<ele>1220.80</ele>
	<time>2024-03-25T10:24:34.000Z</time>
</trkpt>
<trkpt lat="45.8469860" lon="9.3178380">
	<ele>1220.80</ele>
	<time>2024-03-25T10:24:35.000Z</time>
</trkpt>
<trkpt lat="45.8469830" lon="9.3178380">
	<ele>1220.40</ele>
	<time>2024-03-25T10:24:36.000Z</time>
</trkpt>
<trkpt lat="45.8469780" lon="9.3178350">
	<ele>1220.20</ele>
	<time>2024-03-25T10:24:37.000Z</time>
</trkpt>
<trkpt lat="45.8469750" lon="9.3178330">
	<ele>1220.00</ele>
	<time>2024-03-25T10:24:38.000Z</time>
</trkpt>
<trkpt lat="45.8469680" lon="9.3178280">
	<ele>1219.80</ele>
	<time>2024-03-25T10:24:39.000Z</time>
</trkpt>
<trkpt lat="45.8469640" lon="9.3178240">
	<ele>1219.60</ele>
	<time>2024-03-25T10:24:40.000Z</time>
</trkpt>
<trkpt lat="45.8469600" lon="9.3178210">
	<ele>1219.40</ele>
	<time>2024-03-25T10:24:41.000Z</time>
</trkpt>
<trkpt lat="45.8469570" lon="9.3178200">
	<ele>1219.40</ele>
	<time>2024-03-25T10:24:42.000Z</time>
</trkpt>
<trkpt lat="45.8469510" lon="9.3178200">
	<ele>1219.20</ele>
	<time>2024-03-25T10:24:43.000Z</time>
</trkpt>
<trkpt lat="45.8469430" lon="9.3178190">
	<ele>1218.80</ele>
	<time>2024-03-25T10:24:44.000Z</time>
</trkpt>
<trkpt lat="45.8469410" lon="9.3178230">
	<ele>1218.60</ele>
	<time>2024-03-25T10:24:45.000Z</time>
</trkpt>
<trkpt lat="45.8469390" lon="9.3178260">
	<ele>1218.40</ele>
	<time>2024-03-25T10:24:46.000Z</time>
</trkpt>
<trkpt lat="45.8469380" lon="9.3178270">
	<ele>1218.00</ele>
	<time>2024-03-25T10:24:47.000Z</time>
</trkpt>
<trkpt lat="45.8469360" lon="9.3178290">
	<ele>1217.60</ele>
	<time>2024-03-25T10:24:48.000Z</time>
</trkpt>
<trkpt lat="45.8469340" lon="9.3178310">
	<ele>1217.60</ele>
	<time>2024-03-25T10:24:49.000Z</time>
</trkpt>
<trkpt lat="45.8469330" lon="9.3178310">
	<ele>1217.40</ele>
	<time>2024-03-25T10:24:50.000Z</time>
</trkpt>
<trkpt lat="45.8469320" lon="9.3178310">
	<ele>1217.40</ele>
	<time>2024-03-25T10:24:51.000Z</time>
</trkpt>
<trkpt lat="45.8469320" lon="9.3178320">
	<ele>1217.20</ele>
	<time>2024-03-25T10:24:52.000Z</time>
</trkpt>
<trkpt lat="45.8469340" lon="9.3178320">
	<ele>1217.20</ele>
	<time>2024-03-25T10:24:53.000Z</time>
</trkpt>
<trkpt lat="45.8469340" lon="9.3178320">
	<ele>1217.20</ele>
	<time>2024-03-25T10:24:54.000Z</time>
</trkpt>
<trkpt lat="45.8469340" lon="9.3178320">
	<ele>1217.20</ele>
	<time>2024-03-25T10:24:55.000Z</time>
</trkpt>
<trkpt lat="45.8469340" lon="9.3178320">
	<ele>1217.20</ele>
	<time>2024-03-25T10:24:56.000Z</time>
</trkpt>
<trkpt lat="45.8469340" lon="9.3178320">
	<ele>1217.20</ele>
	<time>2024-03-25T10:24:57.000Z</time>
</trkpt>
<trkpt lat="45.8469340" lon="9.3178320">
	<ele>1217.20</ele>
	<time>2024-03-25T10:24:58.000Z</time>
</trkpt>
<trkpt lat="45.8469340" lon="9.3178320">
	<ele>1217.20</ele>
	<time>2024-03-25T10:24:59.000Z</time>
</trkpt>
<trkpt lat="45.8469340" lon="9.3178320">
	<ele>1217.20</ele>
	<time>2024-03-25T10:25:00.000Z</time>
</trkpt>
<trkpt lat="45.8469340" lon="9.3178320">
	<ele>1217.20</ele>
	<time>2024-03-25T10:25:01.000Z</time>
</trkpt>
<trkpt lat="45.8469340" lon="9.3178320">
	<ele>1217.20</ele>
	<time>2024-03-25T10:25:02.000Z</time>
</trkpt>
<trkpt lat="45.8469340" lon="9.3178320">
	<ele>1216.80</ele>
	<time>2024-03-25T10:25:03.000Z</time>
</trkpt>
<trkpt lat="45.8469340" lon="9.3178320">
	<ele>1216.60</ele>
	<time>2024-03-25T10:25:04.000Z</time>
</trkpt>
<trkpt lat="45.8469340" lon="9.3178320">
	<ele>1216.20</ele>
	<time>2024-03-25T10:25:05.000Z</time>
</trkpt>
<trkpt lat="45.8469340" lon="9.3178320">
	<ele>1216.20</ele>
	<time>2024-03-25T10:25:06.000Z</time>
</trkpt>
<trkpt lat="45.8469340" lon="9.3178320">
	<ele>1216.00</ele>
	<time>2024-03-25T10:25:07.000Z</time>
</trkpt>
<trkpt lat="45.8469330" lon="9.3178310">
	<ele>1215.80</ele>
	<time>2024-03-25T10:25:08.000Z</time>
</trkpt>
<trkpt lat="45.8469320" lon="9.3178310">
	<ele>1215.80</ele>
	<time>2024-03-25T10:25:09.000Z</time>
</trkpt>
<trkpt lat="45.8469320" lon="9.3178310">
	<ele>1215.60</ele>
	<time>2024-03-25T10:25:10.000Z</time>
</trkpt>
<trkpt lat="45.8469320" lon="9.3178300">
	<ele>1215.40</ele>
	<time>2024-03-25T10:25:11.000Z</time>
</trkpt>
<trkpt lat="45.8469260" lon="9.3178280">
	<ele>1215.00</ele>
	<time>2024-03-25T10:25:12.000Z</time>
</trkpt>
<trkpt lat="45.8469230" lon="9.3178270">
	<ele>1214.80</ele>
	<time>2024-03-25T10:25:13.000Z</time>
</trkpt>
<trkpt lat="45.8469190" lon="9.3178270">
	<ele>1214.60</ele>
	<time>2024-03-25T10:25:14.000Z</time>
</trkpt>
<trkpt lat="45.8469110" lon="9.3178270">
	<ele>1214.20</ele>
	<time>2024-03-25T10:25:15.000Z</time>
</trkpt>
<trkpt lat="45.8469080" lon="9.3178270">
	<ele>1214.00</ele>
	<time>2024-03-25T10:25:16.000Z</time>
</trkpt>
<trkpt lat="45.8469000" lon="9.3178210">
	<ele>1213.80</ele>
	<time>2024-03-25T10:25:17.000Z</time>
</trkpt>
<trkpt lat="45.8468870" lon="9.3178030">
	<ele>1213.60</ele>
	<time>2024-03-25T10:25:18.000Z</time>
</trkpt>
<trkpt lat="45.8468670" lon="9.3177850">
	<ele>1213.20</ele>
	<time>2024-03-25T10:25:19.000Z</time>
</trkpt>
<trkpt lat="45.8468440" lon="9.3177740">
	<ele>1213.00</ele>
	<time>2024-03-25T10:25:20.000Z</time>
</trkpt>
<trkpt lat="45.8468270" lon="9.3177700">
	<ele>1212.80</ele>
	<time>2024-03-25T10:25:21.000Z</time>
</trkpt>
<trkpt lat="45.8468100" lon="9.3177720">
	<ele>1212.60</ele>
	<time>2024-03-25T10:25:22.000Z</time>
</trkpt>
<trkpt lat="45.8467960" lon="9.3177720">
	<ele>1212.40</ele>
	<time>2024-03-25T10:25:23.000Z</time>
</trkpt>
<trkpt lat="45.8467780" lon="9.3177730">
	<ele>1212.20</ele>
	<time>2024-03-25T10:25:24.000Z</time>
</trkpt>
<trkpt lat="45.8467590" lon="9.3177730">
	<ele>1212.00</ele>
	<time>2024-03-25T10:25:25.000Z</time>
</trkpt>
<trkpt lat="45.8467400" lon="9.3177710">
	<ele>1212.00</ele>
	<time>2024-03-25T10:25:26.000Z</time>
</trkpt>
<trkpt lat="45.8467290" lon="9.3177750">
	<ele>1211.80</ele>
	<time>2024-03-25T10:25:27.000Z</time>
</trkpt>
<trkpt lat="45.8467160" lon="9.3177770">
	<ele>1211.80</ele>
	<time>2024-03-25T10:25:28.000Z</time>
</trkpt>
<trkpt lat="45.8467000" lon="9.3177800">
	<ele>1211.60</ele>
	<time>2024-03-25T10:25:29.000Z</time>
</trkpt>
<trkpt lat="45.8466820" lon="9.3177830">
	<ele>1211.20</ele>
	<time>2024-03-25T10:25:30.000Z</time>
</trkpt>
<trkpt lat="45.8466670" lon="9.3177890">
	<ele>1211.00</ele>
	<time>2024-03-25T10:25:31.000Z</time>
</trkpt>
<trkpt lat="45.8466560" lon="9.3177910">
	<ele>1211.00</ele>
	<time>2024-03-25T10:25:32.000Z</time>
</trkpt>
<trkpt lat="45.8466470" lon="9.3177920">
	<ele>1210.80</ele>
	<time>2024-03-25T10:25:33.000Z</time>
</trkpt>
<trkpt lat="45.8466420" lon="9.3177950">
	<ele>1210.80</ele>
	<time>2024-03-25T10:25:34.000Z</time>
</trkpt>
<trkpt lat="45.8466320" lon="9.3178010">
	<ele>1210.60</ele>
	<time>2024-03-25T10:25:35.000Z</time>
</trkpt>
<trkpt lat="45.8466190" lon="9.3178010">
	<ele>1210.60</ele>
	<time>2024-03-25T10:25:36.000Z</time>
</trkpt>
<trkpt lat="45.8466150" lon="9.3178070">
	<ele>1210.60</ele>
	<time>2024-03-25T10:25:37.000Z</time>
</trkpt>
<trkpt lat="45.8466070" lon="9.3178210">
	<ele>1210.40</ele>
	<time>2024-03-25T10:25:38.000Z</time>
</trkpt>
<trkpt lat="45.8466060" lon="9.3178420">
	<ele>1210.40</ele>
	<time>2024-03-25T10:25:39.000Z</time>
</trkpt>
<trkpt lat="45.8466020" lon="9.3178620">
	<ele>1210.20</ele>
	<time>2024-03-25T10:25:40.000Z</time>
</trkpt>
<trkpt lat="45.8465930" lon="9.3178770">
	<ele>1210.00</ele>
	<time>2024-03-25T10:25:41.000Z</time>
</trkpt>
<trkpt lat="45.8465790" lon="9.3178880">
	<ele>1209.80</ele>
	<time>2024-03-25T10:25:42.000Z</time>
</trkpt>
<trkpt lat="45.8465670" lon="9.3178970">
	<ele>1209.60</ele>
	<time>2024-03-25T10:25:43.000Z</time>
</trkpt>
<trkpt lat="45.8465630" lon="9.3179020">
	<ele>1209.40</ele>
	<time>2024-03-25T10:25:44.000Z</time>
</trkpt>
<trkpt lat="45.8465620" lon="9.3179050">
	<ele>1209.20</ele>
	<time>2024-03-25T10:25:45.000Z</time>
</trkpt>
<trkpt lat="45.8465610" lon="9.3179070">
	<ele>1209.00</ele>
	<time>2024-03-25T10:25:46.000Z</time>
</trkpt>
<trkpt lat="45.8465520" lon="9.3179090">
	<ele>1208.80</ele>
	<time>2024-03-25T10:25:47.000Z</time>
</trkpt>
<trkpt lat="45.8465410" lon="9.3179140">
	<ele>1208.60</ele>
	<time>2024-03-25T10:25:48.000Z</time>
</trkpt>
<trkpt lat="45.8465270" lon="9.3179140">
	<ele>1208.40</ele>
	<time>2024-03-25T10:25:49.000Z</time>
</trkpt>
<trkpt lat="45.8465150" lon="9.3179140">
	<ele>1208.20</ele>
	<time>2024-03-25T10:25:50.000Z</time>
</trkpt>
<trkpt lat="45.8465010" lon="9.3179090">
	<ele>1208.20</ele>
	<time>2024-03-25T10:25:51.000Z</time>
</trkpt>
<trkpt lat="45.8464870" lon="9.3179050">
	<ele>1208.00</ele>
	<time>2024-03-25T10:25:52.000Z</time>
</trkpt>
<trkpt lat="45.8464780" lon="9.3179040">
	<ele>1207.60</ele>
	<time>2024-03-25T10:25:53.000Z</time>
</trkpt>
<trkpt lat="45.8464650" lon="9.3179050">
	<ele>1207.60</ele>
	<time>2024-03-25T10:25:54.000Z</time>
</trkpt>
<trkpt lat="45.8464520" lon="9.3179040">
	<ele>1207.20</ele>
	<time>2024-03-25T10:25:55.000Z</time>
</trkpt>
<trkpt lat="45.8464370" lon="9.3179030">
	<ele>1207.00</ele>
	<time>2024-03-25T10:25:56.000Z</time>
</trkpt>
<trkpt lat="45.8464260" lon="9.3179070">
	<ele>1206.80</ele>
	<time>2024-03-25T10:25:57.000Z</time>
</trkpt>
<trkpt lat="45.8464140" lon="9.3179180">
	<ele>1206.80</ele>
	<time>2024-03-25T10:25:58.000Z</time>
</trkpt>
<trkpt lat="45.8464000" lon="9.3179290">
	<ele>1206.60</ele>
	<time>2024-03-25T10:25:59.000Z</time>
</trkpt>
<trkpt lat="45.8463840" lon="9.3179390">
	<ele>1206.60</ele>
	<time>2024-03-25T10:26:00.000Z</time>
</trkpt>
<trkpt lat="45.8463640" lon="9.3179440">
	<ele>1206.40</ele>
	<time>2024-03-25T10:26:01.000Z</time>
</trkpt>
<trkpt lat="45.8463450" lon="9.3179460">
	<ele>1206.40</ele>
	<time>2024-03-25T10:26:02.000Z</time>
</trkpt>
<trkpt lat="45.8463350" lon="9.3179410">
	<ele>1206.40</ele>
	<time>2024-03-25T10:26:03.000Z</time>
</trkpt>
<trkpt lat="45.8463270" lon="9.3179410">
	<ele>1206.40</ele>
	<time>2024-03-25T10:26:04.000Z</time>
</trkpt>
<trkpt lat="45.8463170" lon="9.3179420">
	<ele>1206.60</ele>
	<time>2024-03-25T10:26:05.000Z</time>
</trkpt>
<trkpt lat="45.8463120" lon="9.3179450">
	<ele>1206.60</ele>
	<time>2024-03-25T10:26:06.000Z</time>
</trkpt>
<trkpt lat="45.8463090" lon="9.3179500">
	<ele>1206.80</ele>
	<time>2024-03-25T10:26:07.000Z</time>
</trkpt>
<trkpt lat="45.8463060" lon="9.3179580">
	<ele>1206.80</ele>
	<time>2024-03-25T10:26:08.000Z</time>
</trkpt>
<trkpt lat="45.8462960" lon="9.3179610">
	<ele>1206.60</ele>
	<time>2024-03-25T10:26:09.000Z</time>
</trkpt>
<trkpt lat="45.8462850" lon="9.3179630">
	<ele>1206.40</ele>
	<time>2024-03-25T10:26:10.000Z</time>
</trkpt>
<trkpt lat="45.8462750" lon="9.3179610">
	<ele>1206.40</ele>
	<time>2024-03-25T10:26:11.000Z</time>
</trkpt>
<trkpt lat="45.8462600" lon="9.3179560">
	<ele>1206.20</ele>
	<time>2024-03-25T10:26:12.000Z</time>
</trkpt>
<trkpt lat="45.8462490" lon="9.3179580">
	<ele>1206.00</ele>
	<time>2024-03-25T10:26:13.000Z</time>
</trkpt>
<trkpt lat="45.8462390" lon="9.3179630">
	<ele>1205.80</ele>
	<time>2024-03-25T10:26:14.000Z</time>
</trkpt>
<trkpt lat="45.8462240" lon="9.3179690">
	<ele>1205.80</ele>
	<time>2024-03-25T10:26:15.000Z</time>
</trkpt>
<trkpt lat="45.8462110" lon="9.3179670">
	<ele>1205.60</ele>
	<time>2024-03-25T10:26:16.000Z</time>
</trkpt>
<trkpt lat="45.8462000" lon="9.3179620">
	<ele>1205.60</ele>
	<time>2024-03-25T10:26:17.000Z</time>
</trkpt>
<trkpt lat="45.8461870" lon="9.3179570">
	<ele>1205.40</ele>
	<time>2024-03-25T10:26:18.000Z</time>
</trkpt>
<trkpt lat="45.8461730" lon="9.3179550">
	<ele>1205.20</ele>
	<time>2024-03-25T10:26:19.000Z</time>
</trkpt>
<trkpt lat="45.8461590" lon="9.3179540">
	<ele>1205.00</ele>
	<time>2024-03-25T10:26:20.000Z</time>
</trkpt>
<trkpt lat="45.8461440" lon="9.3179550">
	<ele>1205.00</ele>
	<time>2024-03-25T10:26:21.000Z</time>
</trkpt>
<trkpt lat="45.8461310" lon="9.3179550">
	<ele>1204.80</ele>
	<time>2024-03-25T10:26:22.000Z</time>
</trkpt>
<trkpt lat="45.8461140" lon="9.3179570">
	<ele>1204.60</ele>
	<time>2024-03-25T10:26:23.000Z</time>
</trkpt>
<trkpt lat="45.8461040" lon="9.3179660">
	<ele>1204.40</ele>
	<time>2024-03-25T10:26:24.000Z</time>
</trkpt>
<trkpt lat="45.8461030" lon="9.3179690">
	<ele>1204.20</ele>
	<time>2024-03-25T10:26:25.000Z</time>
</trkpt>
<trkpt lat="45.8461040" lon="9.3179720">
	<ele>1204.20</ele>
	<time>2024-03-25T10:26:26.000Z</time>
</trkpt>
<trkpt lat="45.8461060" lon="9.3179770">
	<ele>1204.00</ele>
	<time>2024-03-25T10:26:27.000Z</time>
</trkpt>
<trkpt lat="45.8461070" lon="9.3179810">
	<ele>1204.00</ele>
	<time>2024-03-25T10:26:28.000Z</time>
</trkpt>
<trkpt lat="45.8461050" lon="9.3179910">
	<ele>1203.80</ele>
	<time>2024-03-25T10:26:29.000Z</time>
</trkpt>
<trkpt lat="45.8461020" lon="9.3180010">
	<ele>1203.60</ele>
	<time>2024-03-25T10:26:30.000Z</time>
</trkpt>
<trkpt lat="45.8460860" lon="9.3180200">
	<ele>1203.40</ele>
	<time>2024-03-25T10:26:31.000Z</time>
</trkpt>
<trkpt lat="45.8460770" lon="9.3180330">
	<ele>1203.40</ele>
	<time>2024-03-25T10:26:32.000Z</time>
</trkpt>
<trkpt lat="45.8460690" lon="9.3180490">
	<ele>1203.20</ele>
	<time>2024-03-25T10:26:33.000Z</time>
</trkpt>
<trkpt lat="45.8460630" lon="9.3180600">
	<ele>1203.00</ele>
	<time>2024-03-25T10:26:34.000Z</time>
</trkpt>
<trkpt lat="45.8460560" lon="9.3180660">
	<ele>1203.00</ele>
	<time>2024-03-25T10:26:35.000Z</time>
</trkpt>
<trkpt lat="45.8460460" lon="9.3180720">
	<ele>1202.80</ele>
	<time>2024-03-25T10:26:36.000Z</time>
</trkpt>
<trkpt lat="45.8460370" lon="9.3180810">
	<ele>1202.60</ele>
	<time>2024-03-25T10:26:37.000Z</time>
</trkpt>
<trkpt lat="45.8460300" lon="9.3180900">
	<ele>1202.40</ele>
	<time>2024-03-25T10:26:38.000Z</time>
</trkpt>
<trkpt lat="45.8460200" lon="9.3180990">
	<ele>1202.20</ele>
	<time>2024-03-25T10:26:39.000Z</time>
</trkpt>
<trkpt lat="45.8460160" lon="9.3181030">
	<ele>1202.00</ele>
	<time>2024-03-25T10:26:40.000Z</time>
</trkpt>
<trkpt lat="45.8460060" lon="9.3181070">
	<ele>1201.80</ele>
	<time>2024-03-25T10:26:41.000Z</time>
</trkpt>
<trkpt lat="45.8460010" lon="9.3181150">
	<ele>1201.40</ele>
	<time>2024-03-25T10:26:42.000Z</time>
</trkpt>
<trkpt lat="45.8459980" lon="9.3181180">
	<ele>1201.20</ele>
	<time>2024-03-25T10:26:43.000Z</time>
</trkpt>
<trkpt lat="45.8459950" lon="9.3181210">
	<ele>1201.00</ele>
	<time>2024-03-25T10:26:44.000Z</time>
</trkpt>
<trkpt lat="45.8459910" lon="9.3181320">
	<ele>1200.80</ele>
	<time>2024-03-25T10:26:45.000Z</time>
</trkpt>
<trkpt lat="45.8459780" lon="9.3181330">
	<ele>1200.80</ele>
	<time>2024-03-25T10:26:46.000Z</time>
</trkpt>
<trkpt lat="45.8459770" lon="9.3181340">
	<ele>1200.80</ele>
	<time>2024-03-25T10:26:47.000Z</time>
</trkpt>
<trkpt lat="45.8459750" lon="9.3181350">
	<ele>1200.60</ele>
	<time>2024-03-25T10:26:48.000Z</time>
</trkpt>
<trkpt lat="45.8459640" lon="9.3181300">
	<ele>1200.60</ele>
	<time>2024-03-25T10:26:49.000Z</time>
</trkpt>
<trkpt lat="45.8459600" lon="9.3181290">
	<ele>1200.60</ele>
	<time>2024-03-25T10:26:50.000Z</time>
</trkpt>
<trkpt lat="45.8459470" lon="9.3181410">
	<ele>1200.60</ele>
	<time>2024-03-25T10:26:51.000Z</time>
</trkpt>
<trkpt lat="45.8459430" lon="9.3181420">
	<ele>1200.40</ele>
	<time>2024-03-25T10:26:52.000Z</time>
</trkpt>
<trkpt lat="45.8459410" lon="9.3181420">
	<ele>1200.20</ele>
	<time>2024-03-25T10:26:53.000Z</time>
</trkpt>
<trkpt lat="45.8459220" lon="9.3181520">
	<ele>1200.00</ele>
	<time>2024-03-25T10:26:54.000Z</time>
</trkpt>
<trkpt lat="45.8459130" lon="9.3181560">
	<ele>1200.00</ele>
	<time>2024-03-25T10:26:55.000Z</time>
</trkpt>
<trkpt lat="45.8459110" lon="9.3181580">
	<ele>1199.80</ele>
	<time>2024-03-25T10:26:56.000Z</time>
</trkpt>
<trkpt lat="45.8459030" lon="9.3181630">
	<ele>1199.60</ele>
	<time>2024-03-25T10:26:57.000Z</time>
</trkpt>
<trkpt lat="45.8458950" lon="9.3181680">
	<ele>1199.40</ele>
	<time>2024-03-25T10:26:58.000Z</time>
</trkpt>
<trkpt lat="45.8458890" lon="9.3181680">
	<ele>1199.20</ele>
	<time>2024-03-25T10:26:59.000Z</time>
</trkpt>
<trkpt lat="45.8458800" lon="9.3181680">
	<ele>1199.00</ele>
	<time>2024-03-25T10:27:00.000Z</time>
</trkpt>
<trkpt lat="45.8458680" lon="9.3181670">
	<ele>1198.80</ele>
	<time>2024-03-25T10:27:01.000Z</time>
</trkpt>
<trkpt lat="45.8458580" lon="9.3181660">
	<ele>1198.60</ele>
	<time>2024-03-25T10:27:02.000Z</time>
</trkpt>
<trkpt lat="45.8458470" lon="9.3181660">
	<ele>1198.40</ele>
	<time>2024-03-25T10:27:03.000Z</time>
</trkpt>
<trkpt lat="45.8458340" lon="9.3181660">
	<ele>1198.20</ele>
	<time>2024-03-25T10:27:04.000Z</time>
</trkpt>
<trkpt lat="45.8458290" lon="9.3181650">
	<ele>1198.20</ele>
	<time>2024-03-25T10:27:05.000Z</time>
</trkpt>
<trkpt lat="45.8458220" lon="9.3181670">
	<ele>1198.20</ele>
	<time>2024-03-25T10:27:06.000Z</time>
</trkpt>
<trkpt lat="45.8458120" lon="9.3181700">
	<ele>1198.00</ele>
	<time>2024-03-25T10:27:07.000Z</time>
</trkpt>
<trkpt lat="45.8458020" lon="9.3181750">
	<ele>1198.00</ele>
	<time>2024-03-25T10:27:08.000Z</time>
</trkpt>
<trkpt lat="45.8457920" lon="9.3181810">
	<ele>1197.80</ele>
	<time>2024-03-25T10:27:09.000Z</time>
</trkpt>
<trkpt lat="45.8457840" lon="9.3181870">
	<ele>1197.80</ele>
	<time>2024-03-25T10:27:10.000Z</time>
</trkpt>
<trkpt lat="45.8457770" lon="9.3181950">
	<ele>1197.80</ele>
	<time>2024-03-25T10:27:11.000Z</time>
</trkpt>
<trkpt lat="45.8457690" lon="9.3182050">
	<ele>1197.60</ele>
	<time>2024-03-25T10:27:12.000Z</time>
</trkpt>
<trkpt lat="45.8457650" lon="9.3182200">
	<ele>1197.40</ele>
	<time>2024-03-25T10:27:13.000Z</time>
</trkpt>
<trkpt lat="45.8457640" lon="9.3182320">
	<ele>1197.20</ele>
	<time>2024-03-25T10:27:14.000Z</time>
</trkpt>
<trkpt lat="45.8457610" lon="9.3182460">
	<ele>1197.00</ele>
	<time>2024-03-25T10:27:15.000Z</time>
</trkpt>
<trkpt lat="45.8457540" lon="9.3182580">
	<ele>1197.00</ele>
	<time>2024-03-25T10:27:16.000Z</time>
</trkpt>
<trkpt lat="45.8457470" lon="9.3182670">
	<ele>1196.80</ele>
	<time>2024-03-25T10:27:17.000Z</time>
</trkpt>
<trkpt lat="45.8457410" lon="9.3182760">
	<ele>1196.80</ele>
	<time>2024-03-25T10:27:18.000Z</time>
</trkpt>
<trkpt lat="45.8457330" lon="9.3182830">
	<ele>1196.80</ele>
	<time>2024-03-25T10:27:19.000Z</time>
</trkpt>
<trkpt lat="45.8457180" lon="9.3182890">
	<ele>1196.80</ele>
	<time>2024-03-25T10:27:20.000Z</time>
</trkpt>
<trkpt lat="45.8457060" lon="9.3182980">
	<ele>1197.00</ele>
	<time>2024-03-25T10:27:21.000Z</time>
</trkpt>
<trkpt lat="45.8456930" lon="9.3183020">
	<ele>1197.00</ele>
	<time>2024-03-25T10:27:22.000Z</time>
</trkpt>
<trkpt lat="45.8456810" lon="9.3183020">
	<ele>1197.00</ele>
	<time>2024-03-25T10:27:23.000Z</time>
</trkpt>
<trkpt lat="45.8456700" lon="9.3183030">
	<ele>1197.20</ele>
	<time>2024-03-25T10:27:24.000Z</time>
</trkpt>
<trkpt lat="45.8456580" lon="9.3183060">
	<ele>1197.20</ele>
	<time>2024-03-25T10:27:25.000Z</time>
</trkpt>
<trkpt lat="45.8456500" lon="9.3183130">
	<ele>1197.40</ele>
	<time>2024-03-25T10:27:26.000Z</time>
</trkpt>
<trkpt lat="45.8456410" lon="9.3183240">
	<ele>1197.60</ele>
	<time>2024-03-25T10:27:27.000Z</time>
</trkpt>
<trkpt lat="45.8456280" lon="9.3183380">
	<ele>1197.60</ele>
	<time>2024-03-25T10:27:28.000Z</time>
</trkpt>
<trkpt lat="45.8456170" lon="9.3183520">
	<ele>1197.80</ele>
	<time>2024-03-25T10:27:29.000Z</time>
</trkpt>
<trkpt lat="45.8456060" lon="9.3183600">
	<ele>1197.80</ele>
	<time>2024-03-25T10:27:30.000Z</time>
</trkpt>
<trkpt lat="45.8455990" lon="9.3183700">
	<ele>1198.00</ele>
	<time>2024-03-25T10:27:31.000Z</time>
</trkpt>
<trkpt lat="45.8455900" lon="9.3183870">
	<ele>1198.00</ele>
	<time>2024-03-25T10:27:32.000Z</time>
</trkpt>
<trkpt lat="45.8455790" lon="9.3184040">
	<ele>1198.00</ele>
	<time>2024-03-25T10:27:33.000Z</time>
</trkpt>
<trkpt lat="45.8455730" lon="9.3184160">
	<ele>1198.00</ele>
	<time>2024-03-25T10:27:34.000Z</time>
</trkpt>
<trkpt lat="45.8455710" lon="9.3184320">
	<ele>1197.80</ele>
	<time>2024-03-25T10:27:35.000Z</time>
</trkpt>
<trkpt lat="45.8455660" lon="9.3184480">
	<ele>1197.80</ele>
	<time>2024-03-25T10:27:36.000Z</time>
</trkpt>
<trkpt lat="45.8455540" lon="9.3184610">
	<ele>1197.60</ele>
	<time>2024-03-25T10:27:37.000Z</time>
</trkpt>
<trkpt lat="45.8455370" lon="9.3184680">
	<ele>1197.40</ele>
	<time>2024-03-25T10:27:38.000Z</time>
</trkpt>
<trkpt lat="45.8455330" lon="9.3184720">
	<ele>1197.40</ele>
	<time>2024-03-25T10:27:39.000Z</time>
</trkpt>
<trkpt lat="45.8455320" lon="9.3184770">
	<ele>1197.20</ele>
	<time>2024-03-25T10:27:40.000Z</time>
</trkpt>
<trkpt lat="45.8455340" lon="9.3184800">
	<ele>1197.00</ele>
	<time>2024-03-25T10:27:41.000Z</time>
</trkpt>
<trkpt lat="45.8455370" lon="9.3184800">
	<ele>1196.80</ele>
	<time>2024-03-25T10:27:42.000Z</time>
</trkpt>
<trkpt lat="45.8455400" lon="9.3184810">
	<ele>1196.80</ele>
	<time>2024-03-25T10:27:43.000Z</time>
</trkpt>
<trkpt lat="45.8455370" lon="9.3184860">
	<ele>1196.60</ele>
	<time>2024-03-25T10:27:44.000Z</time>
</trkpt>
<trkpt lat="45.8455390" lon="9.3184890">
	<ele>1196.60</ele>
	<time>2024-03-25T10:27:45.000Z</time>
</trkpt>
<trkpt lat="45.8455390" lon="9.3184910">
	<ele>1196.60</ele>
	<time>2024-03-25T10:27:46.000Z</time>
</trkpt>
<trkpt lat="45.8455280" lon="9.3184900">
	<ele>1196.60</ele>
	<time>2024-03-25T10:27:47.000Z</time>
</trkpt>
<trkpt lat="45.8455250" lon="9.3184920">
	<ele>1196.60</ele>
	<time>2024-03-25T10:27:48.000Z</time>
</trkpt>
<trkpt lat="45.8455250" lon="9.3184950">
	<ele>1196.60</ele>
	<time>2024-03-25T10:27:49.000Z</time>
</trkpt>
<trkpt lat="45.8455250" lon="9.3184970">
	<ele>1196.60</ele>
	<time>2024-03-25T10:27:50.000Z</time>
</trkpt>
<trkpt lat="45.8455260" lon="9.3184950">
	<ele>1196.80</ele>
	<time>2024-03-25T10:27:51.000Z</time>
</trkpt>
<trkpt lat="45.8455270" lon="9.3184940">
	<ele>1196.80</ele>
	<time>2024-03-25T10:27:52.000Z</time>
</trkpt>
<trkpt lat="45.8455270" lon="9.3184930">
	<ele>1196.80</ele>
	<time>2024-03-25T10:27:53.000Z</time>
</trkpt>
<trkpt lat="45.8455290" lon="9.3184970">
	<ele>1196.80</ele>
	<time>2024-03-25T10:27:54.000Z</time>
</trkpt>
<trkpt lat="45.8455290" lon="9.3184960">
	<ele>1196.80</ele>
	<time>2024-03-25T10:27:55.000Z</time>
</trkpt>
<trkpt lat="45.8455290" lon="9.3184960">
	<ele>1196.80</ele>
	<time>2024-03-25T10:27:56.000Z</time>
</trkpt>
<trkpt lat="45.8455300" lon="9.3184970">
	<ele>1196.80</ele>
	<time>2024-03-25T10:27:57.000Z</time>
</trkpt>
<trkpt lat="45.8455330" lon="9.3184970">
	<ele>1196.60</ele>
	<time>2024-03-25T10:27:58.000Z</time>
</trkpt>
<trkpt lat="45.8455330" lon="9.3184970">
	<ele>1196.60</ele>
	<time>2024-03-25T10:27:59.000Z</time>
</trkpt>
<trkpt lat="45.8455330" lon="9.3184960">
	<ele>1196.60</ele>
	<time>2024-03-25T10:28:00.000Z</time>
</trkpt>
<trkpt lat="45.8455330" lon="9.3184960">
	<ele>1196.60</ele>
	<time>2024-03-25T10:28:01.000Z</time>
</trkpt>
<trkpt lat="45.8455330" lon="9.3184960">
	<ele>1196.60</ele>
	<time>2024-03-25T10:28:02.000Z</time>
</trkpt>
<trkpt lat="45.8455330" lon="9.3184960">
	<ele>1196.60</ele>
	<time>2024-03-25T10:28:03.000Z</time>
</trkpt>
<trkpt lat="45.8455330" lon="9.3184960">
	<ele>1196.40</ele>
	<time>2024-03-25T10:28:04.000Z</time>
</trkpt>
<trkpt lat="45.8455330" lon="9.3184960">
	<ele>1196.40</ele>
	<time>2024-03-25T10:28:05.000Z</time>
</trkpt>
<trkpt lat="45.8455330" lon="9.3184960">
	<ele>1196.40</ele>
	<time>2024-03-25T10:28:06.000Z</time>
</trkpt>
<trkpt lat="45.8455330" lon="9.3184960">
	<ele>1196.40</ele>
	<time>2024-03-25T10:28:07.000Z</time>
</trkpt>
<trkpt lat="45.8455330" lon="9.3184960">
	<ele>1196.40</ele>
	<time>2024-03-25T10:28:08.000Z</time>
</trkpt>
<trkpt lat="45.8455330" lon="9.3184960">
	<ele>1196.20</ele>
	<time>2024-03-25T10:28:09.000Z</time>
</trkpt>
<trkpt lat="45.8455330" lon="9.3184960">
	<ele>1196.00</ele>
	<time>2024-03-25T10:28:10.000Z</time>
</trkpt>
<trkpt lat="45.8455330" lon="9.3184960">
	<ele>1196.00</ele>
	<time>2024-03-25T10:28:11.000Z</time>
</trkpt>
<trkpt lat="45.8455330" lon="9.3184960">
	<ele>1196.00</ele>
	<time>2024-03-25T10:28:12.000Z</time>
</trkpt>
<trkpt lat="45.8455330" lon="9.3184960">
	<ele>1196.00</ele>
	<time>2024-03-25T10:28:13.000Z</time>
</trkpt>
<trkpt lat="45.8455330" lon="9.3184970">
	<ele>1196.00</ele>
	<time>2024-03-25T10:28:14.000Z</time>
</trkpt>
<trkpt lat="45.8455330" lon="9.3184970">
	<ele>1196.00</ele>
	<time>2024-03-25T10:28:15.000Z</time>
</trkpt>
<trkpt lat="45.8455360" lon="9.3184970">
	<ele>1196.00</ele>
	<time>2024-03-25T10:28:16.000Z</time>
</trkpt>
<trkpt lat="45.8455430" lon="9.3184970">
	<ele>1196.20</ele>
	<time>2024-03-25T10:28:17.000Z</time>
</trkpt>
<trkpt lat="45.8455460" lon="9.3184980">
	<ele>1196.20</ele>
	<time>2024-03-25T10:28:18.000Z</time>
</trkpt>
<trkpt lat="45.8455490" lon="9.3184990">
	<ele>1196.00</ele>
	<time>2024-03-25T10:28:19.000Z</time>
</trkpt>
<trkpt lat="45.8455510" lon="9.3185010">
	<ele>1196.00</ele>
	<time>2024-03-25T10:28:20.000Z</time>
</trkpt>
<trkpt lat="45.8455510" lon="9.3185020">
	<ele>1196.00</ele>
	<time>2024-03-25T10:28:21.000Z</time>
</trkpt>
<trkpt lat="45.8455560" lon="9.3185020">
	<ele>1196.20</ele>
	<time>2024-03-25T10:28:22.000Z</time>
</trkpt>
<trkpt lat="45.8455600" lon="9.3185020">
	<ele>1196.20</ele>
	<time>2024-03-25T10:28:23.000Z</time>
</trkpt>
<trkpt lat="45.8455640" lon="9.3185020">
	<ele>1196.00</ele>
	<time>2024-03-25T10:28:24.000Z</time>
</trkpt>
<trkpt lat="45.8455670" lon="9.3185020">
	<ele>1196.20</ele>
	<time>2024-03-25T10:28:25.000Z</time>
</trkpt>
<trkpt lat="45.8455680" lon="9.3185020">
	<ele>1196.20</ele>
	<time>2024-03-25T10:28:26.000Z</time>
</trkpt>
<trkpt lat="45.8455690" lon="9.3185020">
	<ele>1196.20</ele>
	<time>2024-03-25T10:28:27.000Z</time>
</trkpt>
<trkpt lat="45.8455690" lon="9.3185020">
	<ele>1196.20</ele>
	<time>2024-03-25T10:28:28.000Z</time>
</trkpt>
<trkpt lat="45.8455710" lon="9.3185020">
	<ele>1196.20</ele>
	<time>2024-03-25T10:28:29.000Z</time>
</trkpt>
<trkpt lat="45.8455740" lon="9.3185020">
	<ele>1196.20</ele>
	<time>2024-03-25T10:28:30.000Z</time>
</trkpt>
<trkpt lat="45.8455750" lon="9.3185020">
	<ele>1196.40</ele>
	<time>2024-03-25T10:28:31.000Z</time>
</trkpt>
<trkpt lat="45.8455760" lon="9.3185020">
	<ele>1196.40</ele>
	<time>2024-03-25T10:28:32.000Z</time>
</trkpt>
<trkpt lat="45.8455760" lon="9.3185020">
	<ele>1196.60</ele>
	<time>2024-03-25T10:28:33.000Z</time>
</trkpt>
<trkpt lat="45.8455760" lon="9.3185020">
	<ele>1196.60</ele>
	<time>2024-03-25T10:28:34.000Z</time>
</trkpt>
<trkpt lat="45.8455760" lon="9.3185020">
	<ele>1196.60</ele>
	<time>2024-03-25T10:28:35.000Z</time>
</trkpt>
<trkpt lat="45.8455770" lon="9.3185020">
	<ele>1196.40</ele>
	<time>2024-03-25T10:28:36.000Z</time>
</trkpt>
<trkpt lat="45.8455770" lon="9.3185020">
	<ele>1196.40</ele>
	<time>2024-03-25T10:28:37.000Z</time>
</trkpt>
<trkpt lat="45.8455770" lon="9.3185020">
	<ele>1196.40</ele>
	<time>2024-03-25T10:28:38.000Z</time>
</trkpt>
<trkpt lat="45.8455770" lon="9.3185010">
	<ele>1196.60</ele>
	<time>2024-03-25T10:28:39.000Z</time>
</trkpt>
<trkpt lat="45.8455770" lon="9.3185010">
	<ele>1196.60</ele>
	<time>2024-03-25T10:28:40.000Z</time>
</trkpt>
<trkpt lat="45.8455770" lon="9.3185000">
	<ele>1196.60</ele>
	<time>2024-03-25T10:28:41.000Z</time>
</trkpt>
<trkpt lat="45.8455770" lon="9.3185000">
	<ele>1196.60</ele>
	<time>2024-03-25T10:28:42.000Z</time>
</trkpt>
<trkpt lat="45.8455770" lon="9.3185000">
	<ele>1196.60</ele>
	<time>2024-03-25T10:28:43.000Z</time>
</trkpt>
<trkpt lat="45.8455770" lon="9.3184990">
	<ele>1196.60</ele>
	<time>2024-03-25T10:28:44.000Z</time>
</trkpt>
<trkpt lat="45.8455770" lon="9.3184990">
	<ele>1196.60</ele>
	<time>2024-03-25T10:28:45.000Z</time>
</trkpt>
<trkpt lat="45.8455770" lon="9.3184990">
	<ele>1196.60</ele>
	<time>2024-03-25T10:28:46.000Z</time>
</trkpt>
<trkpt lat="45.8455780" lon="9.3184990">
	<ele>1196.80</ele>
	<time>2024-03-25T10:28:47.000Z</time>
</trkpt>
<trkpt lat="45.8455780" lon="9.3184990">
	<ele>1196.80</ele>
	<time>2024-03-25T10:28:48.000Z</time>
</trkpt>
<trkpt lat="45.8455780" lon="9.3184990">
	<ele>1196.80</ele>
	<time>2024-03-25T10:28:49.000Z</time>
</trkpt>
<trkpt lat="45.8455780" lon="9.3184990">
	<ele>1196.80</ele>
	<time>2024-03-25T10:28:50.000Z</time>
</trkpt>
<trkpt lat="45.8455780" lon="9.3184990">
	<ele>1196.80</ele>
	<time>2024-03-25T10:28:51.000Z</time>
</trkpt>
<trkpt lat="45.8455780" lon="9.3184990">
	<ele>1196.80</ele>
	<time>2024-03-25T10:28:52.000Z</time>
</trkpt>
<trkpt lat="45.8455770" lon="9.3184990">
	<ele>1196.80</ele>
	<time>2024-03-25T10:28:53.000Z</time>
</trkpt>
<trkpt lat="45.8455770" lon="9.3184990">
	<ele>1196.80</ele>
	<time>2024-03-25T10:28:54.000Z</time>
</trkpt>
<trkpt lat="45.8455770" lon="9.3184980">
	<ele>1197.00</ele>
	<time>2024-03-25T10:28:55.000Z</time>
</trkpt>
<trkpt lat="45.8455770" lon="9.3184980">
	<ele>1197.00</ele>
	<time>2024-03-25T10:28:56.000Z</time>
</trkpt>
<trkpt lat="45.8455770" lon="9.3184980">
	<ele>1197.00</ele>
	<time>2024-03-25T10:28:57.000Z</time>
</trkpt>
<trkpt lat="45.8455770" lon="9.3184980">
	<ele>1197.20</ele>
	<time>2024-03-25T10:28:58.000Z</time>
</trkpt>
<trkpt lat="45.8455770" lon="9.3184970">
	<ele>1197.20</ele>
	<time>2024-03-25T10:28:59.000Z</time>
</trkpt>
<trkpt lat="45.8455770" lon="9.3184970">
	<ele>1197.40</ele>
	<time>2024-03-25T10:29:00.000Z</time>
</trkpt>
<trkpt lat="45.8455770" lon="9.3184970">
	<ele>1197.40</ele>
	<time>2024-03-25T10:29:01.000Z</time>
</trkpt>
<trkpt lat="45.8455770" lon="9.3184970">
	<ele>1197.20</ele>
	<time>2024-03-25T10:29:02.000Z</time>
</trkpt>
<trkpt lat="45.8455770" lon="9.3184970">
	<ele>1197.20</ele>
	<time>2024-03-25T10:29:03.000Z</time>
</trkpt>
<trkpt lat="45.8455770" lon="9.3184960">
	<ele>1197.20</ele>
	<time>2024-03-25T10:29:04.000Z</time>
</trkpt>
<trkpt lat="45.8455770" lon="9.3184950">
	<ele>1197.20</ele>
	<time>2024-03-25T10:29:05.000Z</time>
</trkpt>
<trkpt lat="45.8455770" lon="9.3184920">
	<ele>1197.20</ele>
	<time>2024-03-25T10:29:06.000Z</time>
</trkpt>
<trkpt lat="45.8455770" lon="9.3184910">
	<ele>1197.20</ele>
	<time>2024-03-25T10:29:07.000Z</time>
</trkpt>
<trkpt lat="45.8455770" lon="9.3184910">
	<ele>1197.20</ele>
	<time>2024-03-25T10:29:08.000Z</time>
</trkpt>
<trkpt lat="45.8455780" lon="9.3184910">
	<ele>1197.00</ele>
	<time>2024-03-25T10:29:09.000Z</time>
</trkpt>
<trkpt lat="45.8455780" lon="9.3184910">
	<ele>1197.00</ele>
	<time>2024-03-25T10:29:10.000Z</time>
</trkpt>
<trkpt lat="45.8455780" lon="9.3184900">
	<ele>1197.00</ele>
	<time>2024-03-25T10:29:11.000Z</time>
</trkpt>
<trkpt lat="45.8455780" lon="9.3184900">
	<ele>1197.00</ele>
	<time>2024-03-25T10:29:12.000Z</time>
</trkpt>
<trkpt lat="45.8455780" lon="9.3184900">
	<ele>1196.80</ele>
	<time>2024-03-25T10:29:13.000Z</time>
</trkpt>
<trkpt lat="45.8455790" lon="9.3184900">
	<ele>1196.80</ele>
	<time>2024-03-25T10:29:14.000Z</time>
</trkpt>
<trkpt lat="45.8455790" lon="9.3184900">
	<ele>1197.00</ele>
	<time>2024-03-25T10:29:15.000Z</time>
</trkpt>
<trkpt lat="45.8455790" lon="9.3184900">
	<ele>1197.00</ele>
	<time>2024-03-25T10:29:16.000Z</time>
</trkpt>
<trkpt lat="45.8455790" lon="9.3184900">
	<ele>1197.00</ele>
	<time>2024-03-25T10:29:17.000Z</time>
</trkpt>
<trkpt lat="45.8455790" lon="9.3184900">
	<ele>1196.80</ele>
	<time>2024-03-25T10:29:18.000Z</time>
</trkpt>
<trkpt lat="45.8455790" lon="9.3184900">
	<ele>1196.80</ele>
	<time>2024-03-25T10:29:19.000Z</time>
</trkpt>
<trkpt lat="45.8455790" lon="9.3184900">
	<ele>1196.80</ele>
	<time>2024-03-25T10:29:20.000Z</time>
</trkpt>
<trkpt lat="45.8455790" lon="9.3184900">
	<ele>1196.80</ele>
	<time>2024-03-25T10:29:21.000Z</time>
</trkpt>
<trkpt lat="45.8455790" lon="9.3184910">
	<ele>1196.80</ele>
	<time>2024-03-25T10:29:22.000Z</time>
</trkpt>
<trkpt lat="45.8455790" lon="9.3184920">
	<ele>1196.80</ele>
	<time>2024-03-25T10:29:23.000Z</time>
</trkpt>
<trkpt lat="45.8455790" lon="9.3184930">
	<ele>1196.80</ele>
	<time>2024-03-25T10:29:24.000Z</time>
</trkpt>
<trkpt lat="45.8455790" lon="9.3184940">
	<ele>1196.80</ele>
	<time>2024-03-25T10:29:25.000Z</time>
</trkpt>
<trkpt lat="45.8455790" lon="9.3184960">
	<ele>1197.00</ele>
	<time>2024-03-25T10:29:26.000Z</time>
</trkpt>
<trkpt lat="45.8455790" lon="9.3184980">
	<ele>1197.00</ele>
	<time>2024-03-25T10:29:27.000Z</time>
</trkpt>
<trkpt lat="45.8455770" lon="9.3185010">
	<ele>1197.00</ele>
	<time>2024-03-25T10:29:28.000Z</time>
</trkpt>
<trkpt lat="45.8455760" lon="9.3185030">
	<ele>1197.20</ele>
	<time>2024-03-25T10:29:29.000Z</time>
</trkpt>
<trkpt lat="45.8455740" lon="9.3185060">
	<ele>1197.20</ele>
	<time>2024-03-25T10:29:30.000Z</time>
</trkpt>
<trkpt lat="45.8455650" lon="9.3185130">
	<ele>1197.20</ele>
	<time>2024-03-25T10:29:31.000Z</time>
</trkpt>
<trkpt lat="45.8455410" lon="9.3185370">
	<ele>1197.20</ele>
	<time>2024-03-25T10:29:32.000Z</time>
</trkpt>
<trkpt lat="45.8455280" lon="9.3185630">
	<ele>1197.40</ele>
	<time>2024-03-25T10:29:33.000Z</time>
</trkpt>
<trkpt lat="45.8455150" lon="9.3185940">
	<ele>1197.40</ele>
	<time>2024-03-25T10:29:34.000Z</time>
</trkpt>
<trkpt lat="45.8455040" lon="9.3186200">
	<ele>1197.40</ele>
	<time>2024-03-25T10:29:35.000Z</time>
</trkpt>
<trkpt lat="45.8454880" lon="9.3186480">
	<ele>1197.60</ele>
	<time>2024-03-25T10:29:36.000Z</time>
</trkpt>
<trkpt lat="45.8454690" lon="9.3186720">
	<ele>1197.60</ele>
	<time>2024-03-25T10:29:37.000Z</time>
</trkpt>
<trkpt lat="45.8454540" lon="9.3186930">
	<ele>1197.60</ele>
	<time>2024-03-25T10:29:38.000Z</time>
</trkpt>
<trkpt lat="45.8454380" lon="9.3187090">
	<ele>1197.60</ele>
	<time>2024-03-25T10:29:39.000Z</time>
</trkpt>
<trkpt lat="45.8454210" lon="9.3187280">
	<ele>1197.60</ele>
	<time>2024-03-25T10:29:40.000Z</time>
</trkpt>
<trkpt lat="45.8454080" lon="9.3187370">
	<ele>1197.80</ele>
	<time>2024-03-25T10:29:41.000Z</time>
</trkpt>
<trkpt lat="45.8454010" lon="9.3187530">
	<ele>1197.80</ele>
	<time>2024-03-25T10:29:42.000Z</time>
</trkpt>
<trkpt lat="45.8454000" lon="9.3187690">
	<ele>1198.00</ele>
	<time>2024-03-25T10:29:43.000Z</time>
</trkpt>
<trkpt lat="45.8453920" lon="9.3187840">
	<ele>1198.20</ele>
	<time>2024-03-25T10:29:44.000Z</time>
</trkpt>
<trkpt lat="45.8453900" lon="9.3187910">
	<ele>1198.40</ele>
	<time>2024-03-25T10:29:45.000Z</time>
</trkpt>
<trkpt lat="45.8453910" lon="9.3187950">
	<ele>1198.60</ele>
	<time>2024-03-25T10:29:46.000Z</time>
</trkpt>
<trkpt lat="45.8453880" lon="9.3188010">
	<ele>1198.80</ele>
	<time>2024-03-25T10:29:47.000Z</time>
</trkpt>
<trkpt lat="45.8453900" lon="9.3187990">
	<ele>1199.00</ele>
	<time>2024-03-25T10:29:48.000Z</time>
</trkpt>
<trkpt lat="45.8453940" lon="9.3187980">
	<ele>1199.00</ele>
	<time>2024-03-25T10:29:49.000Z</time>
</trkpt>
<trkpt lat="45.8454010" lon="9.3188010">
	<ele>1199.20</ele>
	<time>2024-03-25T10:29:50.000Z</time>
</trkpt>
<trkpt lat="45.8454050" lon="9.3188020">
	<ele>1199.20</ele>
	<time>2024-03-25T10:29:51.000Z</time>
</trkpt>
<trkpt lat="45.8454120" lon="9.3188050">
	<ele>1199.20</ele>
	<time>2024-03-25T10:29:52.000Z</time>
</trkpt>
<trkpt lat="45.8454180" lon="9.3188100">
	<ele>1199.20</ele>
	<time>2024-03-25T10:29:53.000Z</time>
</trkpt>
<trkpt lat="45.8454210" lon="9.3188130">
	<ele>1199.20</ele>
	<time>2024-03-25T10:29:54.000Z</time>
</trkpt>
<trkpt lat="45.8454210" lon="9.3188150">
	<ele>1199.20</ele>
	<time>2024-03-25T10:29:55.000Z</time>
</trkpt>
<trkpt lat="45.8454190" lon="9.3188170">
	<ele>1199.20</ele>
	<time>2024-03-25T10:29:56.000Z</time>
</trkpt>
<trkpt lat="45.8454100" lon="9.3188160">
	<ele>1199.40</ele>
	<time>2024-03-25T10:29:57.000Z</time>
</trkpt>
<trkpt lat="45.8454000" lon="9.3188120">
	<ele>1199.40</ele>
	<time>2024-03-25T10:29:58.000Z</time>
</trkpt>
<trkpt lat="45.8453900" lon="9.3188100">
	<ele>1199.60</ele>
	<time>2024-03-25T10:29:59.000Z</time>
</trkpt>
<trkpt lat="45.8453880" lon="9.3188130">
	<ele>1199.60</ele>
	<time>2024-03-25T10:30:00.000Z</time>
</trkpt>
<trkpt lat="45.8453870" lon="9.3188170">
	<ele>1199.60</ele>
	<time>2024-03-25T10:30:01.000Z</time>
</trkpt>
<trkpt lat="45.8453780" lon="9.3188250">
	<ele>1199.60</ele>
	<time>2024-03-25T10:30:02.000Z</time>
</trkpt>
<trkpt lat="45.8453670" lon="9.3188280">
	<ele>1199.80</ele>
	<time>2024-03-25T10:30:03.000Z</time>
</trkpt>
<trkpt lat="45.8453500" lon="9.3188270">
	<ele>1199.80</ele>
	<time>2024-03-25T10:30:04.000Z</time>
</trkpt>
<trkpt lat="45.8453330" lon="9.3188220">
	<ele>1199.80</ele>
	<time>2024-03-25T10:30:05.000Z</time>
</trkpt>
<trkpt lat="45.8453200" lon="9.3188200">
	<ele>1199.80</ele>
	<time>2024-03-25T10:30:06.000Z</time>
</trkpt>
<trkpt lat="45.8453090" lon="9.3188220">
	<ele>1200.00</ele>
	<time>2024-03-25T10:30:07.000Z</time>
</trkpt>
<trkpt lat="45.8453010" lon="9.3188300">
	<ele>1200.00</ele>
	<time>2024-03-25T10:30:08.000Z</time>
</trkpt>
<trkpt lat="45.8452910" lon="9.3188380">
	<ele>1200.20</ele>
	<time>2024-03-25T10:30:09.000Z</time>
</trkpt>
<trkpt lat="45.8452800" lon="9.3188440">
	<ele>1200.40</ele>
	<time>2024-03-25T10:30:10.000Z</time>
</trkpt>
<trkpt lat="45.8452740" lon="9.3188560">
	<ele>1200.40</ele>
	<time>2024-03-25T10:30:11.000Z</time>
</trkpt>
<trkpt lat="45.8452640" lon="9.3188640">
	<ele>1200.60</ele>
	<time>2024-03-25T10:30:12.000Z</time>
</trkpt>
<trkpt lat="45.8452550" lon="9.3188730">
	<ele>1200.80</ele>
	<time>2024-03-25T10:30:13.000Z</time>
</trkpt>
<trkpt lat="45.8452480" lon="9.3188820">
	<ele>1201.00</ele>
	<time>2024-03-25T10:30:14.000Z</time>
</trkpt>
<trkpt lat="45.8452430" lon="9.3188900">
	<ele>1201.20</ele>
	<time>2024-03-25T10:30:15.000Z</time>
</trkpt>
<trkpt lat="45.8452360" lon="9.3188920">
	<ele>1201.40</ele>
	<time>2024-03-25T10:30:16.000Z</time>
</trkpt>
<trkpt lat="45.8452350" lon="9.3189030">
	<ele>1201.40</ele>
	<time>2024-03-25T10:30:17.000Z</time>
</trkpt>
<trkpt lat="45.8452270" lon="9.3189080">
	<ele>1201.80</ele>
	<time>2024-03-25T10:30:18.000Z</time>
</trkpt>
<trkpt lat="45.8452230" lon="9.3189150">
	<ele>1202.00</ele>
	<time>2024-03-25T10:30:19.000Z</time>
</trkpt>
<trkpt lat="45.8452220" lon="9.3189210">
	<ele>1202.20</ele>
	<time>2024-03-25T10:30:20.000Z</time>
</trkpt>
<trkpt lat="45.8452230" lon="9.3189260">
	<ele>1202.40</ele>
	<time>2024-03-25T10:30:21.000Z</time>
</trkpt>
<trkpt lat="45.8452250" lon="9.3189290">
	<ele>1202.60</ele>
	<time>2024-03-25T10:30:22.000Z</time>
</trkpt>
<trkpt lat="45.8452240" lon="9.3189310">
	<ele>1202.60</ele>
	<time>2024-03-25T10:30:23.000Z</time>
</trkpt>
<trkpt lat="45.8452230" lon="9.3189340">
	<ele>1202.60</ele>
	<time>2024-03-25T10:30:24.000Z</time>
</trkpt>
<trkpt lat="45.8452210" lon="9.3189360">
	<ele>1202.80</ele>
	<time>2024-03-25T10:30:25.000Z</time>
</trkpt>
<trkpt lat="45.8452230" lon="9.3189440">
	<ele>1202.80</ele>
	<time>2024-03-25T10:30:26.000Z</time>
</trkpt>
<trkpt lat="45.8452250" lon="9.3189480">
	<ele>1203.20</ele>
	<time>2024-03-25T10:30:27.000Z</time>
</trkpt>
<trkpt lat="45.8452180" lon="9.3189560">
	<ele>1203.40</ele>
	<time>2024-03-25T10:30:28.000Z</time>
</trkpt>
<trkpt lat="45.8452180" lon="9.3189620">
	<ele>1203.60</ele>
	<time>2024-03-25T10:30:29.000Z</time>
</trkpt>
<trkpt lat="45.8452120" lon="9.3189630">
	<ele>1203.80</ele>
	<time>2024-03-25T10:30:30.000Z</time>
</trkpt>
<trkpt lat="45.8452040" lon="9.3189660">
	<ele>1204.00</ele>
	<time>2024-03-25T10:30:31.000Z</time>
</trkpt>
<trkpt lat="45.8452020" lon="9.3189690">
	<ele>1204.20</ele>
	<time>2024-03-25T10:30:32.000Z</time>
</trkpt>
<trkpt lat="45.8451940" lon="9.3189720">
	<ele>1204.40</ele>
	<time>2024-03-25T10:30:33.000Z</time>
</trkpt>
<trkpt lat="45.8451870" lon="9.3189710">
	<ele>1204.60</ele>
	<time>2024-03-25T10:30:34.000Z</time>
</trkpt>
<trkpt lat="45.8451730" lon="9.3189680">
	<ele>1204.60</ele>
	<time>2024-03-25T10:30:35.000Z</time>
</trkpt>
<trkpt lat="45.8451570" lon="9.3189640">
	<ele>1204.80</ele>
	<time>2024-03-25T10:30:36.000Z</time>
</trkpt>
<trkpt lat="45.8451410" lon="9.3189680">
	<ele>1205.00</ele>
	<time>2024-03-25T10:30:37.000Z</time>
</trkpt>
<trkpt lat="45.8451320" lon="9.3189760">
	<ele>1205.20</ele>
	<time>2024-03-25T10:30:38.000Z</time>
</trkpt>
<trkpt lat="45.8451240" lon="9.3189830">
	<ele>1205.40</ele>
	<time>2024-03-25T10:30:39.000Z</time>
</trkpt>
<trkpt lat="45.8451180" lon="9.3189890">
	<ele>1205.80</ele>
	<time>2024-03-25T10:30:40.000Z</time>
</trkpt>
<trkpt lat="45.8451160" lon="9.3189920">
	<ele>1205.80</ele>
	<time>2024-03-25T10:30:41.000Z</time>
</trkpt>
<trkpt lat="45.8451060" lon="9.3189950">
	<ele>1206.00</ele>
	<time>2024-03-25T10:30:42.000Z</time>
</trkpt>
<trkpt lat="45.8451000" lon="9.3189990">
	<ele>1206.20</ele>
	<time>2024-03-25T10:30:43.000Z</time>
</trkpt>
<trkpt lat="45.8450900" lon="9.3190030">
	<ele>1206.40</ele>
	<time>2024-03-25T10:30:44.000Z</time>
</trkpt>
<trkpt lat="45.8450850" lon="9.3190080">
	<ele>1206.60</ele>
	<time>2024-03-25T10:30:45.000Z</time>
</trkpt>
<trkpt lat="45.8450780" lon="9.3190150">
	<ele>1206.80</ele>
	<time>2024-03-25T10:30:46.000Z</time>
</trkpt>
<trkpt lat="45.8450780" lon="9.3190230">
	<ele>1207.00</ele>
	<time>2024-03-25T10:30:47.000Z</time>
</trkpt>
<trkpt lat="45.8450790" lon="9.3190350">
	<ele>1207.20</ele>
	<time>2024-03-25T10:30:48.000Z</time>
</trkpt>
<trkpt lat="45.8450750" lon="9.3190470">
	<ele>1207.40</ele>
	<time>2024-03-25T10:30:49.000Z</time>
</trkpt>
<trkpt lat="45.8450730" lon="9.3190540">
	<ele>1207.60</ele>
	<time>2024-03-25T10:30:50.000Z</time>
</trkpt>
<trkpt lat="45.8450640" lon="9.3190580">
	<ele>1207.80</ele>
	<time>2024-03-25T10:30:51.000Z</time>
</trkpt>
<trkpt lat="45.8450550" lon="9.3190650">
	<ele>1207.80</ele>
	<time>2024-03-25T10:30:52.000Z</time>
</trkpt>
<trkpt lat="45.8450480" lon="9.3190710">
	<ele>1208.00</ele>
	<time>2024-03-25T10:30:53.000Z</time>
</trkpt>
<trkpt lat="45.8450420" lon="9.3190770">
	<ele>1208.20</ele>
	<time>2024-03-25T10:30:54.000Z</time>
</trkpt>
<trkpt lat="45.8450330" lon="9.3190830">
	<ele>1208.20</ele>
	<time>2024-03-25T10:30:55.000Z</time>
</trkpt>
<trkpt lat="45.8450290" lon="9.3190870">
	<ele>1208.40</ele>
	<time>2024-03-25T10:30:56.000Z</time>
</trkpt>
<trkpt lat="45.8450250" lon="9.3190960">
	<ele>1208.40</ele>
	<time>2024-03-25T10:30:57.000Z</time>
</trkpt>
<trkpt lat="45.8450180" lon="9.3191040">
	<ele>1208.60</ele>
	<time>2024-03-25T10:30:58.000Z</time>
</trkpt>
<trkpt lat="45.8450180" lon="9.3191100">
	<ele>1208.80</ele>
	<time>2024-03-25T10:30:59.000Z</time>
</trkpt>
<trkpt lat="45.8450180" lon="9.3191130">
	<ele>1208.80</ele>
	<time>2024-03-25T10:31:00.000Z</time>
</trkpt>
<trkpt lat="45.8450170" lon="9.3191140">
	<ele>1208.80</ele>
	<time>2024-03-25T10:31:01.000Z</time>
</trkpt>
<trkpt lat="45.8450070" lon="9.3191150">
	<ele>1209.00</ele>
	<time>2024-03-25T10:31:02.000Z</time>
</trkpt>
<trkpt lat="45.8450020" lon="9.3191120">
	<ele>1209.20</ele>
	<time>2024-03-25T10:31:03.000Z</time>
</trkpt>
<trkpt lat="45.8449990" lon="9.3191100">
	<ele>1209.20</ele>
	<time>2024-03-25T10:31:04.000Z</time>
</trkpt>
<trkpt lat="45.8449970" lon="9.3191100">
	<ele>1209.40</ele>
	<time>2024-03-25T10:31:05.000Z</time>
</trkpt>
<trkpt lat="45.8449970" lon="9.3191110">
	<ele>1209.40</ele>
	<time>2024-03-25T10:31:06.000Z</time>
</trkpt>
<trkpt lat="45.8449970" lon="9.3191120">
	<ele>1209.40</ele>
	<time>2024-03-25T10:31:07.000Z</time>
</trkpt>
<trkpt lat="45.8449960" lon="9.3191120">
	<ele>1209.40</ele>
	<time>2024-03-25T10:31:08.000Z</time>
</trkpt>
<trkpt lat="45.8449890" lon="9.3191200">
	<ele>1209.40</ele>
	<time>2024-03-25T10:31:09.000Z</time>
</trkpt>
<trkpt lat="45.8449900" lon="9.3191210">
	<ele>1209.40</ele>
	<time>2024-03-25T10:31:10.000Z</time>
</trkpt>
<trkpt lat="45.8449820" lon="9.3191250">
	<ele>1209.40</ele>
	<time>2024-03-25T10:31:11.000Z</time>
</trkpt>
<trkpt lat="45.8449830" lon="9.3191310">
	<ele>1209.40</ele>
	<time>2024-03-25T10:31:12.000Z</time>
</trkpt>
<trkpt lat="45.8449740" lon="9.3191350">
	<ele>1209.40</ele>
	<time>2024-03-25T10:31:13.000Z</time>
</trkpt>
<trkpt lat="45.8449660" lon="9.3191490">
	<ele>1209.20</ele>
	<time>2024-03-25T10:31:14.000Z</time>
</trkpt>
<trkpt lat="45.8449640" lon="9.3191600">
	<ele>1209.40</ele>
	<time>2024-03-25T10:31:15.000Z</time>
</trkpt>
<trkpt lat="45.8449620" lon="9.3191680">
	<ele>1209.60</ele>
	<time>2024-03-25T10:31:16.000Z</time>
</trkpt>
<trkpt lat="45.8449620" lon="9.3191740">
	<ele>1209.60</ele>
	<time>2024-03-25T10:31:17.000Z</time>
</trkpt>
<trkpt lat="45.8449610" lon="9.3191770">
	<ele>1209.80</ele>
	<time>2024-03-25T10:31:18.000Z</time>
</trkpt>
<trkpt lat="45.8449590" lon="9.3191780">
	<ele>1210.20</ele>
	<time>2024-03-25T10:31:19.000Z</time>
</trkpt>
<trkpt lat="45.8449560" lon="9.3191750">
	<ele>1210.40</ele>
	<time>2024-03-25T10:31:20.000Z</time>
</trkpt>
<trkpt lat="45.8449510" lon="9.3191700">
	<ele>1210.60</ele>
	<time>2024-03-25T10:31:21.000Z</time>
</trkpt>
<trkpt lat="45.8449400" lon="9.3191670">
	<ele>1210.80</ele>
	<time>2024-03-25T10:31:22.000Z</time>
</trkpt>
<trkpt lat="45.8449240" lon="9.3191680">
	<ele>1211.00</ele>
	<time>2024-03-25T10:31:23.000Z</time>
</trkpt>
<trkpt lat="45.8449110" lon="9.3191720">
	<ele>1211.20</ele>
	<time>2024-03-25T10:31:24.000Z</time>
</trkpt>
<trkpt lat="45.8448990" lon="9.3191750">
	<ele>1211.20</ele>
	<time>2024-03-25T10:31:25.000Z</time>
</trkpt>
<trkpt lat="45.8448940" lon="9.3191780">
	<ele>1211.40</ele>
	<time>2024-03-25T10:31:26.000Z</time>
</trkpt>
<trkpt lat="45.8448910" lon="9.3191780">
	<ele>1211.80</ele>
	<time>2024-03-25T10:31:27.000Z</time>
</trkpt>
<trkpt lat="45.8448870" lon="9.3191790">
	<ele>1212.00</ele>
	<time>2024-03-25T10:31:28.000Z</time>
</trkpt>
<trkpt lat="45.8448850" lon="9.3191850">
	<ele>1212.00</ele>
	<time>2024-03-25T10:31:29.000Z</time>
</trkpt>
<trkpt lat="45.8448770" lon="9.3191890">
	<ele>1212.20</ele>
	<time>2024-03-25T10:31:30.000Z</time>
</trkpt>
<trkpt lat="45.8448780" lon="9.3191940">
	<ele>1212.40</ele>
	<time>2024-03-25T10:31:31.000Z</time>
</trkpt>
<trkpt lat="45.8448810" lon="9.3192010">
	<ele>1212.40</ele>
	<time>2024-03-25T10:31:32.000Z</time>
</trkpt>
<trkpt lat="45.8448750" lon="9.3192040">
	<ele>1212.60</ele>
	<time>2024-03-25T10:31:33.000Z</time>
</trkpt>
<trkpt lat="45.8448650" lon="9.3192070">
	<ele>1212.60</ele>
	<time>2024-03-25T10:31:34.000Z</time>
</trkpt>
<trkpt lat="45.8448560" lon="9.3192120">
	<ele>1212.80</ele>
	<time>2024-03-25T10:31:35.000Z</time>
</trkpt>
<trkpt lat="45.8448450" lon="9.3192170">
	<ele>1213.00</ele>
	<time>2024-03-25T10:31:36.000Z</time>
</trkpt>
<trkpt lat="45.8448380" lon="9.3192260">
	<ele>1213.00</ele>
	<time>2024-03-25T10:31:37.000Z</time>
</trkpt>
<trkpt lat="45.8448320" lon="9.3192370">
	<ele>1213.20</ele>
	<time>2024-03-25T10:31:38.000Z</time>
</trkpt>
<trkpt lat="45.8448300" lon="9.3192430">
	<ele>1213.40</ele>
	<time>2024-03-25T10:31:39.000Z</time>
</trkpt>
<trkpt lat="45.8448260" lon="9.3192420">
	<ele>1213.40</ele>
	<time>2024-03-25T10:31:40.000Z</time>
</trkpt>
<trkpt lat="45.8448130" lon="9.3192450">
	<ele>1213.60</ele>
	<time>2024-03-25T10:31:41.000Z</time>
</trkpt>
<trkpt lat="45.8448020" lon="9.3192480">
	<ele>1213.80</ele>
	<time>2024-03-25T10:31:42.000Z</time>
</trkpt>
<trkpt lat="45.8447890" lon="9.3192520">
	<ele>1213.80</ele>
	<time>2024-03-25T10:31:43.000Z</time>
</trkpt>
<trkpt lat="45.8447790" lon="9.3192520">
	<ele>1214.20</ele>
	<time>2024-03-25T10:31:44.000Z</time>
</trkpt>
<trkpt lat="45.8447670" lon="9.3192550">
	<ele>1214.40</ele>
	<time>2024-03-25T10:31:45.000Z</time>
</trkpt>
<trkpt lat="45.8447600" lon="9.3192600">
	<ele>1214.40</ele>
	<time>2024-03-25T10:31:46.000Z</time>
</trkpt>
<trkpt lat="45.8447510" lon="9.3192630">
	<ele>1214.60</ele>
	<time>2024-03-25T10:31:47.000Z</time>
</trkpt>
<trkpt lat="45.8447400" lon="9.3192690">
	<ele>1215.00</ele>
	<time>2024-03-25T10:31:48.000Z</time>
</trkpt>
<trkpt lat="45.8447330" lon="9.3192780">
	<ele>1215.20</ele>
	<time>2024-03-25T10:31:49.000Z</time>
</trkpt>
<trkpt lat="45.8447220" lon="9.3192890">
	<ele>1215.40</ele>
	<time>2024-03-25T10:31:50.000Z</time>
</trkpt>
<trkpt lat="45.8447190" lon="9.3192950">
	<ele>1215.60</ele>
	<time>2024-03-25T10:31:51.000Z</time>
</trkpt>
<trkpt lat="45.8447050" lon="9.3192940">
	<ele>1215.60</ele>
	<time>2024-03-25T10:31:52.000Z</time>
</trkpt>
<trkpt lat="45.8446980" lon="9.3192960">
	<ele>1215.80</ele>
	<time>2024-03-25T10:31:53.000Z</time>
</trkpt>
<trkpt lat="45.8446920" lon="9.3192980">
	<ele>1215.80</ele>
	<time>2024-03-25T10:31:54.000Z</time>
</trkpt>
<trkpt lat="45.8446930" lon="9.3193060">
	<ele>1215.80</ele>
	<time>2024-03-25T10:31:55.000Z</time>
</trkpt>
<trkpt lat="45.8446900" lon="9.3193160">
	<ele>1216.00</ele>
	<time>2024-03-25T10:31:56.000Z</time>
</trkpt>
<trkpt lat="45.8446840" lon="9.3193260">
	<ele>1216.00</ele>
	<time>2024-03-25T10:31:57.000Z</time>
</trkpt>
<trkpt lat="45.8446680" lon="9.3193370">
	<ele>1216.00</ele>
	<time>2024-03-25T10:31:58.000Z</time>
</trkpt>
<trkpt lat="45.8446570" lon="9.3193470">
	<ele>1216.20</ele>
	<time>2024-03-25T10:31:59.000Z</time>
</trkpt>
<trkpt lat="45.8446460" lon="9.3193600">
	<ele>1216.40</ele>
	<time>2024-03-25T10:32:00.000Z</time>
</trkpt>
<trkpt lat="45.8446400" lon="9.3193690">
	<ele>1216.60</ele>
	<time>2024-03-25T10:32:01.000Z</time>
</trkpt>
<trkpt lat="45.8446340" lon="9.3193780">
	<ele>1216.80</ele>
	<time>2024-03-25T10:32:02.000Z</time>
</trkpt>
<trkpt lat="45.8446270" lon="9.3193840">
	<ele>1217.00</ele>
	<time>2024-03-25T10:32:03.000Z</time>
</trkpt>
<trkpt lat="45.8446260" lon="9.3193930">
	<ele>1217.20</ele>
	<time>2024-03-25T10:32:04.000Z</time>
</trkpt>
<trkpt lat="45.8446250" lon="9.3194010">
	<ele>1217.20</ele>
	<time>2024-03-25T10:32:05.000Z</time>
</trkpt>
<trkpt lat="45.8446220" lon="9.3194080">
	<ele>1217.20</ele>
	<time>2024-03-25T10:32:06.000Z</time>
</trkpt>
<trkpt lat="45.8446190" lon="9.3194130">
	<ele>1217.40</ele>
	<time>2024-03-25T10:32:07.000Z</time>
</trkpt>
<trkpt lat="45.8446150" lon="9.3194190">
	<ele>1217.40</ele>
	<time>2024-03-25T10:32:08.000Z</time>
</trkpt>
<trkpt lat="45.8446110" lon="9.3194230">
	<ele>1217.60</ele>
	<time>2024-03-25T10:32:09.000Z</time>
</trkpt>
<trkpt lat="45.8446060" lon="9.3194290">
	<ele>1217.80</ele>
	<time>2024-03-25T10:32:10.000Z</time>
</trkpt>
<trkpt lat="45.8446010" lon="9.3194300">
	<ele>1217.80</ele>
	<time>2024-03-25T10:32:11.000Z</time>
</trkpt>
<trkpt lat="45.8446000" lon="9.3194300">
	<ele>1217.80</ele>
	<time>2024-03-25T10:32:12.000Z</time>
</trkpt>
<trkpt lat="45.8445960" lon="9.3194280">
	<ele>1218.20</ele>
	<time>2024-03-25T10:32:13.000Z</time>
</trkpt>
<trkpt lat="45.8445910" lon="9.3194240">
	<ele>1218.40</ele>
	<time>2024-03-25T10:32:14.000Z</time>
</trkpt>
<trkpt lat="45.8445870" lon="9.3194200">
	<ele>1218.60</ele>
	<time>2024-03-25T10:32:15.000Z</time>
</trkpt>
<trkpt lat="45.8445840" lon="9.3194150">
	<ele>1218.60</ele>
	<time>2024-03-25T10:32:16.000Z</time>
</trkpt>
<trkpt lat="45.8445810" lon="9.3194170">
	<ele>1218.80</ele>
	<time>2024-03-25T10:32:17.000Z</time>
</trkpt>
<trkpt lat="45.8445770" lon="9.3194180">
	<ele>1219.00</ele>
	<time>2024-03-25T10:32:18.000Z</time>
</trkpt>
<trkpt lat="45.8445700" lon="9.3194160">
	<ele>1219.20</ele>
	<time>2024-03-25T10:32:19.000Z</time>
</trkpt>
<trkpt lat="45.8445650" lon="9.3194160">
	<ele>1219.40</ele>
	<time>2024-03-25T10:32:20.000Z</time>
</trkpt>
<trkpt lat="45.8445600" lon="9.3194120">
	<ele>1219.60</ele>
	<time>2024-03-25T10:32:21.000Z</time>
</trkpt>
<trkpt lat="45.8445550" lon="9.3194110">
	<ele>1220.00</ele>
	<time>2024-03-25T10:32:22.000Z</time>
</trkpt>
<trkpt lat="45.8445530" lon="9.3194130">
	<ele>1220.20</ele>
	<time>2024-03-25T10:32:23.000Z</time>
</trkpt>
<trkpt lat="45.8445490" lon="9.3194170">
	<ele>1220.40</ele>
	<time>2024-03-25T10:32:24.000Z</time>
</trkpt>
<trkpt lat="45.8445440" lon="9.3194190">
	<ele>1220.60</ele>
	<time>2024-03-25T10:32:25.000Z</time>
</trkpt>
<trkpt lat="45.8445390" lon="9.3194190">
	<ele>1220.60</ele>
	<time>2024-03-25T10:32:26.000Z</time>
</trkpt>
<trkpt lat="45.8445320" lon="9.3194160">
	<ele>1220.80</ele>
	<time>2024-03-25T10:32:27.000Z</time>
</trkpt>
<trkpt lat="45.8445270" lon="9.3194160">
	<ele>1221.00</ele>
	<time>2024-03-25T10:32:28.000Z</time>
</trkpt>
<trkpt lat="45.8445220" lon="9.3194120">
	<ele>1221.00</ele>
	<time>2024-03-25T10:32:29.000Z</time>
</trkpt>
<trkpt lat="45.8445170" lon="9.3194110">
	<ele>1221.20</ele>
	<time>2024-03-25T10:32:30.000Z</time>
</trkpt>
<trkpt lat="45.8445110" lon="9.3194110">
	<ele>1221.20</ele>
	<time>2024-03-25T10:32:31.000Z</time>
</trkpt>
<trkpt lat="45.8444990" lon="9.3194100">
	<ele>1221.40</ele>
	<time>2024-03-25T10:32:32.000Z</time>
</trkpt>
<trkpt lat="45.8444900" lon="9.3194140">
	<ele>1221.60</ele>
	<time>2024-03-25T10:32:33.000Z</time>
</trkpt>
<trkpt lat="45.8444850" lon="9.3194240">
	<ele>1221.60</ele>
	<time>2024-03-25T10:32:34.000Z</time>
</trkpt>
<trkpt lat="45.8444800" lon="9.3194350">
	<ele>1222.00</ele>
	<time>2024-03-25T10:32:35.000Z</time>
</trkpt>
<trkpt lat="45.8444730" lon="9.3194510">
	<ele>1222.20</ele>
	<time>2024-03-25T10:32:36.000Z</time>
</trkpt>
<trkpt lat="45.8444690" lon="9.3194670">
	<ele>1222.40</ele>
	<time>2024-03-25T10:32:37.000Z</time>
</trkpt>
<trkpt lat="45.8444650" lon="9.3194760">
	<ele>1222.40</ele>
	<time>2024-03-25T10:32:38.000Z</time>
</trkpt>
<trkpt lat="45.8444600" lon="9.3194810">
	<ele>1222.60</ele>
	<time>2024-03-25T10:32:39.000Z</time>
</trkpt>
<trkpt lat="45.8444510" lon="9.3194780">
	<ele>1222.80</ele>
	<time>2024-03-25T10:32:40.000Z</time>
</trkpt>
<trkpt lat="45.8444430" lon="9.3194850">
	<ele>1222.80</ele>
	<time>2024-03-25T10:32:41.000Z</time>
</trkpt>
<trkpt lat="45.8444400" lon="9.3194870">
	<ele>1223.00</ele>
	<time>2024-03-25T10:32:42.000Z</time>
</trkpt>
<trkpt lat="45.8444330" lon="9.3194940">
	<ele>1223.00</ele>
	<time>2024-03-25T10:32:43.000Z</time>
</trkpt>
<trkpt lat="45.8444280" lon="9.3194970">
	<ele>1223.20</ele>
	<time>2024-03-25T10:32:44.000Z</time>
</trkpt>
<trkpt lat="45.8444220" lon="9.3195010">
	<ele>1223.20</ele>
	<time>2024-03-25T10:32:45.000Z</time>
</trkpt>
<trkpt lat="45.8444140" lon="9.3195060">
	<ele>1223.40</ele>
	<time>2024-03-25T10:32:46.000Z</time>
</trkpt>
<trkpt lat="45.8444070" lon="9.3195090">
	<ele>1223.40</ele>
	<time>2024-03-25T10:32:47.000Z</time>
</trkpt>
<trkpt lat="45.8444010" lon="9.3195100">
	<ele>1223.60</ele>
	<time>2024-03-25T10:32:48.000Z</time>
</trkpt>
<trkpt lat="45.8443960" lon="9.3195050">
	<ele>1223.60</ele>
	<time>2024-03-25T10:32:49.000Z</time>
</trkpt>
<trkpt lat="45.8443880" lon="9.3194960">
	<ele>1224.00</ele>
	<time>2024-03-25T10:32:50.000Z</time>
</trkpt>
<trkpt lat="45.8443840" lon="9.3194940">
	<ele>1224.20</ele>
	<time>2024-03-25T10:32:51.000Z</time>
</trkpt>
<trkpt lat="45.8443790" lon="9.3194900">
	<ele>1224.20</ele>
	<time>2024-03-25T10:32:52.000Z</time>
</trkpt>
<trkpt lat="45.8443740" lon="9.3194900">
	<ele>1224.40</ele>
	<time>2024-03-25T10:32:53.000Z</time>
</trkpt>
<trkpt lat="45.8443680" lon="9.3194900">
	<ele>1224.40</ele>
	<time>2024-03-25T10:32:54.000Z</time>
</trkpt>
<trkpt lat="45.8443600" lon="9.3194940">
	<ele>1224.40</ele>
	<time>2024-03-25T10:32:55.000Z</time>
</trkpt>
<trkpt lat="45.8443570" lon="9.3195000">
	<ele>1224.60</ele>
	<time>2024-03-25T10:32:56.000Z</time>
</trkpt>
<trkpt lat="45.8443540" lon="9.3195040">
	<ele>1225.00</ele>
	<time>2024-03-25T10:32:57.000Z</time>
</trkpt>
<trkpt lat="45.8443510" lon="9.3195070">
	<ele>1225.20</ele>
	<time>2024-03-25T10:32:58.000Z</time>
</trkpt>
<trkpt lat="45.8443480" lon="9.3195100">
	<ele>1225.40</ele>
	<time>2024-03-25T10:32:59.000Z</time>
</trkpt>
<trkpt lat="45.8443440" lon="9.3195150">
	<ele>1225.60</ele>
	<time>2024-03-25T10:33:00.000Z</time>
</trkpt>
<trkpt lat="45.8443390" lon="9.3195180">
	<ele>1225.60</ele>
	<time>2024-03-25T10:33:01.000Z</time>
</trkpt>
<trkpt lat="45.8443330" lon="9.3195220">
	<ele>1225.80</ele>
	<time>2024-03-25T10:33:02.000Z</time>
</trkpt>
<trkpt lat="45.8443290" lon="9.3195240">
	<ele>1225.80</ele>
	<time>2024-03-25T10:33:03.000Z</time>
</trkpt>
<trkpt lat="45.8443270" lon="9.3195260">
	<ele>1226.00</ele>
	<time>2024-03-25T10:33:04.000Z</time>
</trkpt>
<trkpt lat="45.8443250" lon="9.3195340">
	<ele>1226.00</ele>
	<time>2024-03-25T10:33:05.000Z</time>
</trkpt>
<trkpt lat="45.8443190" lon="9.3195380">
	<ele>1226.20</ele>
	<time>2024-03-25T10:33:06.000Z</time>
</trkpt>
<trkpt lat="45.8443130" lon="9.3195460">
	<ele>1226.20</ele>
	<time>2024-03-25T10:33:07.000Z</time>
</trkpt>
<trkpt lat="45.8443090" lon="9.3195520">
	<ele>1226.60</ele>
	<time>2024-03-25T10:33:08.000Z</time>
</trkpt>
<trkpt lat="45.8443050" lon="9.3195590">
	<ele>1226.80</ele>
	<time>2024-03-25T10:33:09.000Z</time>
</trkpt>
<trkpt lat="45.8443040" lon="9.3195680">
	<ele>1226.80</ele>
	<time>2024-03-25T10:33:10.000Z</time>
</trkpt>
<trkpt lat="45.8443040" lon="9.3195750">
	<ele>1227.00</ele>
	<time>2024-03-25T10:33:11.000Z</time>
</trkpt>
<trkpt lat="45.8443010" lon="9.3195840">
	<ele>1227.00</ele>
	<time>2024-03-25T10:33:12.000Z</time>
</trkpt>
<trkpt lat="45.8442980" lon="9.3195910">
	<ele>1227.20</ele>
	<time>2024-03-25T10:33:13.000Z</time>
</trkpt>
<trkpt lat="45.8442950" lon="9.3195970">
	<ele>1227.40</ele>
	<time>2024-03-25T10:33:14.000Z</time>
</trkpt>
<trkpt lat="45.8442900" lon="9.3195990">
	<ele>1227.60</ele>
	<time>2024-03-25T10:33:15.000Z</time>
</trkpt>
<trkpt lat="45.8442860" lon="9.3196010">
	<ele>1227.60</ele>
	<time>2024-03-25T10:33:16.000Z</time>
</trkpt>
<trkpt lat="45.8442800" lon="9.3196040">
	<ele>1227.80</ele>
	<time>2024-03-25T10:33:17.000Z</time>
</trkpt>
<trkpt lat="45.8442730" lon="9.3196080">
	<ele>1227.80</ele>
	<time>2024-03-25T10:33:18.000Z</time>
</trkpt>
<trkpt lat="45.8442660" lon="9.3196150">
	<ele>1228.00</ele>
	<time>2024-03-25T10:33:19.000Z</time>
</trkpt>
<trkpt lat="45.8442600" lon="9.3196270">
	<ele>1228.00</ele>
	<time>2024-03-25T10:33:20.000Z</time>
</trkpt>
<trkpt lat="45.8442560" lon="9.3196390">
	<ele>1228.20</ele>
	<time>2024-03-25T10:33:21.000Z</time>
</trkpt>
<trkpt lat="45.8442500" lon="9.3196490">
	<ele>1228.40</ele>
	<time>2024-03-25T10:33:22.000Z</time>
</trkpt>
<trkpt lat="45.8442470" lon="9.3196560">
	<ele>1228.60</ele>
	<time>2024-03-25T10:33:23.000Z</time>
</trkpt>
<trkpt lat="45.8442420" lon="9.3196630">
	<ele>1228.80</ele>
	<time>2024-03-25T10:33:24.000Z</time>
</trkpt>
<trkpt lat="45.8442400" lon="9.3196690">
	<ele>1229.00</ele>
	<time>2024-03-25T10:33:25.000Z</time>
</trkpt>
<trkpt lat="45.8442380" lon="9.3196720">
	<ele>1229.20</ele>
	<time>2024-03-25T10:33:26.000Z</time>
</trkpt>
<trkpt lat="45.8442330" lon="9.3196740">
	<ele>1229.40</ele>
	<time>2024-03-25T10:33:27.000Z</time>
</trkpt>
<trkpt lat="45.8442320" lon="9.3196830">
	<ele>1229.40</ele>
	<time>2024-03-25T10:33:28.000Z</time>
</trkpt>
<trkpt lat="45.8442280" lon="9.3196890">
	<ele>1229.60</ele>
	<time>2024-03-25T10:33:29.000Z</time>
</trkpt>
<trkpt lat="45.8442210" lon="9.3196930">
	<ele>1229.60</ele>
	<time>2024-03-25T10:33:30.000Z</time>
</trkpt>
<trkpt lat="45.8442140" lon="9.3196980">
	<ele>1229.80</ele>
	<time>2024-03-25T10:33:31.000Z</time>
</trkpt>
<trkpt lat="45.8442100" lon="9.3197030">
	<ele>1230.00</ele>
	<time>2024-03-25T10:33:32.000Z</time>
</trkpt>
<trkpt lat="45.8442080" lon="9.3197040">
	<ele>1230.40</ele>
	<time>2024-03-25T10:33:33.000Z</time>
</trkpt>
<trkpt lat="45.8442020" lon="9.3197040">
	<ele>1230.60</ele>
	<time>2024-03-25T10:33:34.000Z</time>
</trkpt>
<trkpt lat="45.8442000" lon="9.3197080">
	<ele>1230.60</ele>
	<time>2024-03-25T10:33:35.000Z</time>
</trkpt>
<trkpt lat="45.8441970" lon="9.3197110">
	<ele>1230.80</ele>
	<time>2024-03-25T10:33:36.000Z</time>
</trkpt>
<trkpt lat="45.8441900" lon="9.3197120">
	<ele>1231.00</ele>
	<time>2024-03-25T10:33:37.000Z</time>
</trkpt>
<trkpt lat="45.8441850" lon="9.3197160">
	<ele>1231.00</ele>
	<time>2024-03-25T10:33:38.000Z</time>
</trkpt>
<trkpt lat="45.8441810" lon="9.3197160">
	<ele>1231.20</ele>
	<time>2024-03-25T10:33:39.000Z</time>
</trkpt>
<trkpt lat="45.8441760" lon="9.3197170">
	<ele>1231.40</ele>
	<time>2024-03-25T10:33:40.000Z</time>
</trkpt>
<trkpt lat="45.8441700" lon="9.3197140">
	<ele>1231.40</ele>
	<time>2024-03-25T10:33:41.000Z</time>
</trkpt>
<trkpt lat="45.8441650" lon="9.3197130">
	<ele>1231.60</ele>
	<time>2024-03-25T10:33:42.000Z</time>
</trkpt>
<trkpt lat="45.8441600" lon="9.3197110">
	<ele>1231.80</ele>
	<time>2024-03-25T10:33:43.000Z</time>
</trkpt>
<trkpt lat="45.8441530" lon="9.3197060">
	<ele>1232.00</ele>
	<time>2024-03-25T10:33:44.000Z</time>
</trkpt>
<trkpt lat="45.8441430" lon="9.3197050">
	<ele>1232.20</ele>
	<time>2024-03-25T10:33:45.000Z</time>
</trkpt>
<trkpt lat="45.8441370" lon="9.3197070">
	<ele>1232.40</ele>
	<time>2024-03-25T10:33:46.000Z</time>
</trkpt>
<trkpt lat="45.8441310" lon="9.3197080">
	<ele>1232.40</ele>
	<time>2024-03-25T10:33:47.000Z</time>
</trkpt>
<trkpt lat="45.8441250" lon="9.3197060">
	<ele>1232.60</ele>
	<time>2024-03-25T10:33:48.000Z</time>
</trkpt>
<trkpt lat="45.8441150" lon="9.3197030">
	<ele>1232.80</ele>
	<time>2024-03-25T10:33:49.000Z</time>
</trkpt>
<trkpt lat="45.8441100" lon="9.3197010">
	<ele>1233.00</ele>
	<time>2024-03-25T10:33:50.000Z</time>
</trkpt>
<trkpt lat="45.8441050" lon="9.3196950">
	<ele>1233.20</ele>
	<time>2024-03-25T10:33:51.000Z</time>
</trkpt>
<trkpt lat="45.8440990" lon="9.3196910">
	<ele>1233.40</ele>
	<time>2024-03-25T10:33:52.000Z</time>
</trkpt>
<trkpt lat="45.8440950" lon="9.3196920">
	<ele>1233.60</ele>
	<time>2024-03-25T10:33:53.000Z</time>
</trkpt>
<trkpt lat="45.8440920" lon="9.3196920">
	<ele>1233.80</ele>
	<time>2024-03-25T10:33:54.000Z</time>
</trkpt>
<trkpt lat="45.8440890" lon="9.3196970">
	<ele>1234.00</ele>
	<time>2024-03-25T10:33:55.000Z</time>
</trkpt>
<trkpt lat="45.8440840" lon="9.3197030">
	<ele>1234.20</ele>
	<time>2024-03-25T10:33:56.000Z</time>
</trkpt>
<trkpt lat="45.8440800" lon="9.3197090">
	<ele>1234.40</ele>
	<time>2024-03-25T10:33:57.000Z</time>
</trkpt>
<trkpt lat="45.8440740" lon="9.3197160">
	<ele>1234.40</ele>
	<time>2024-03-25T10:33:58.000Z</time>
</trkpt>
<trkpt lat="45.8440730" lon="9.3197200">
	<ele>1234.60</ele>
	<time>2024-03-25T10:33:59.000Z</time>
</trkpt>
<trkpt lat="45.8440710" lon="9.3197280">
	<ele>1234.60</ele>
	<time>2024-03-25T10:34:00.000Z</time>
</trkpt>
<trkpt lat="45.8440660" lon="9.3197340">
	<ele>1234.80</ele>
	<time>2024-03-25T10:34:01.000Z</time>
</trkpt>
<trkpt lat="45.8440600" lon="9.3197330">
	<ele>1234.80</ele>
	<time>2024-03-25T10:34:02.000Z</time>
</trkpt>
<trkpt lat="45.8440530" lon="9.3197370">
	<ele>1235.00</ele>
	<time>2024-03-25T10:34:03.000Z</time>
</trkpt>
<trkpt lat="45.8440500" lon="9.3197410">
	<ele>1235.00</ele>
	<time>2024-03-25T10:34:04.000Z</time>
</trkpt>
<trkpt lat="45.8440500" lon="9.3197430">
	<ele>1235.00</ele>
	<time>2024-03-25T10:34:05.000Z</time>
</trkpt>
<trkpt lat="45.8440520" lon="9.3197450">
	<ele>1235.00</ele>
	<time>2024-03-25T10:34:06.000Z</time>
</trkpt>
<trkpt lat="45.8440520" lon="9.3197460">
	<ele>1235.20</ele>
	<time>2024-03-25T10:34:07.000Z</time>
</trkpt>
<trkpt lat="45.8440460" lon="9.3197440">
	<ele>1235.20</ele>
	<time>2024-03-25T10:34:08.000Z</time>
</trkpt>
<trkpt lat="45.8440450" lon="9.3197430">
	<ele>1235.40</ele>
	<time>2024-03-25T10:34:09.000Z</time>
</trkpt>
<trkpt lat="45.8440450" lon="9.3197430">
	<ele>1235.40</ele>
	<time>2024-03-25T10:34:10.000Z</time>
</trkpt>
<trkpt lat="45.8440440" lon="9.3197440">
	<ele>1235.40</ele>
	<time>2024-03-25T10:34:11.000Z</time>
</trkpt>
<trkpt lat="45.8440450" lon="9.3197450">
	<ele>1235.40</ele>
	<time>2024-03-25T10:34:12.000Z</time>
</trkpt>
<trkpt lat="45.8440450" lon="9.3197450">
	<ele>1235.40</ele>
	<time>2024-03-25T10:34:13.000Z</time>
</trkpt>
<trkpt lat="45.8440450" lon="9.3197450">
	<ele>1235.40</ele>
	<time>2024-03-25T10:34:14.000Z</time>
</trkpt>
<trkpt lat="45.8440450" lon="9.3197450">
	<ele>1235.80</ele>
	<time>2024-03-25T10:34:15.000Z</time>
</trkpt>
<trkpt lat="45.8440450" lon="9.3197450">
	<ele>1236.00</ele>
	<time>2024-03-25T10:34:16.000Z</time>
</trkpt>
<trkpt lat="45.8440450" lon="9.3197450">
	<ele>1235.80</ele>
	<time>2024-03-25T10:34:17.000Z</time>
</trkpt>
<trkpt lat="45.8440450" lon="9.3197450">
	<ele>1235.80</ele>
	<time>2024-03-25T10:34:18.000Z</time>
</trkpt>
<trkpt lat="45.8440450" lon="9.3197450">
	<ele>1236.00</ele>
	<time>2024-03-25T10:34:19.000Z</time>
</trkpt>
<trkpt lat="45.8440450" lon="9.3197450">
	<ele>1236.00</ele>
	<time>2024-03-25T10:34:20.000Z</time>
</trkpt>
<trkpt lat="45.8440450" lon="9.3197450">
	<ele>1236.20</ele>
	<time>2024-03-25T10:34:21.000Z</time>
</trkpt>
<trkpt lat="45.8440450" lon="9.3197450">
	<ele>1236.20</ele>
	<time>2024-03-25T10:34:22.000Z</time>
</trkpt>
<trkpt lat="45.8440450" lon="9.3197450">
	<ele>1236.40</ele>
	<time>2024-03-25T10:34:23.000Z</time>
</trkpt>
<trkpt lat="45.8440450" lon="9.3197450">
	<ele>1236.40</ele>
	<time>2024-03-25T10:34:24.000Z</time>
</trkpt>
<trkpt lat="45.8440450" lon="9.3197450">
	<ele>1236.40</ele>
	<time>2024-03-25T10:34:25.000Z</time>
</trkpt>
<trkpt lat="45.8440450" lon="9.3197450">
	<ele>1236.60</ele>
	<time>2024-03-25T10:34:26.000Z</time>
</trkpt>
<trkpt lat="45.8440450" lon="9.3197450">
	<ele>1236.80</ele>
	<time>2024-03-25T10:34:27.000Z</time>
</trkpt>
<trkpt lat="45.8440450" lon="9.3197450">
	<ele>1237.00</ele>
	<time>2024-03-25T10:34:28.000Z</time>
</trkpt>
<trkpt lat="45.8440450" lon="9.3197450">
	<ele>1237.20</ele>
	<time>2024-03-25T10:34:29.000Z</time>
</trkpt>
<trkpt lat="45.8440450" lon="9.3197450">
	<ele>1237.60</ele>
	<time>2024-03-25T10:34:30.000Z</time>
</trkpt>
<trkpt lat="45.8440450" lon="9.3197450">
	<ele>1237.80</ele>
	<time>2024-03-25T10:34:31.000Z</time>
</trkpt>
<trkpt lat="45.8440450" lon="9.3197460">
	<ele>1237.80</ele>
	<time>2024-03-25T10:34:32.000Z</time>
</trkpt>
<trkpt lat="45.8440430" lon="9.3197470">
	<ele>1238.20</ele>
	<time>2024-03-25T10:34:33.000Z</time>
</trkpt>
<trkpt lat="45.8440390" lon="9.3197530">
	<ele>1238.40</ele>
	<time>2024-03-25T10:34:34.000Z</time>
</trkpt>
<trkpt lat="45.8440360" lon="9.3197600">
	<ele>1238.60</ele>
	<time>2024-03-25T10:34:35.000Z</time>
</trkpt>
<trkpt lat="45.8440340" lon="9.3197620">
	<ele>1238.60</ele>
	<time>2024-03-25T10:34:36.000Z</time>
</trkpt>
<trkpt lat="45.8440320" lon="9.3197660">
	<ele>1238.80</ele>
	<time>2024-03-25T10:34:37.000Z</time>
</trkpt>
<trkpt lat="45.8440290" lon="9.3197690">
	<ele>1238.80</ele>
	<time>2024-03-25T10:34:38.000Z</time>
</trkpt>
<trkpt lat="45.8440280" lon="9.3197750">
	<ele>1239.00</ele>
	<time>2024-03-25T10:34:39.000Z</time>
</trkpt>
<trkpt lat="45.8440270" lon="9.3197820">
	<ele>1239.20</ele>
	<time>2024-03-25T10:34:40.000Z</time>
</trkpt>
<trkpt lat="45.8440270" lon="9.3197840">
	<ele>1239.40</ele>
	<time>2024-03-25T10:34:41.000Z</time>
</trkpt>
<trkpt lat="45.8440250" lon="9.3197910">
	<ele>1239.60</ele>
	<time>2024-03-25T10:34:42.000Z</time>
</trkpt>
<trkpt lat="45.8440230" lon="9.3198020">
	<ele>1239.80</ele>
	<time>2024-03-25T10:34:43.000Z</time>
</trkpt>
<trkpt lat="45.8440220" lon="9.3198080">
	<ele>1239.80</ele>
	<time>2024-03-25T10:34:44.000Z</time>
</trkpt>
<trkpt lat="45.8440210" lon="9.3198140">
	<ele>1240.00</ele>
	<time>2024-03-25T10:34:45.000Z</time>
</trkpt>
<trkpt lat="45.8440190" lon="9.3198190">
	<ele>1240.20</ele>
	<time>2024-03-25T10:34:46.000Z</time>
</trkpt>
<trkpt lat="45.8440110" lon="9.3198240">
	<ele>1240.20</ele>
	<time>2024-03-25T10:34:47.000Z</time>
</trkpt>
<trkpt lat="45.8440000" lon="9.3198310">
	<ele>1240.40</ele>
	<time>2024-03-25T10:34:48.000Z</time>
</trkpt>
<trkpt lat="45.8439890" lon="9.3198400">
	<ele>1240.60</ele>
	<time>2024-03-25T10:34:49.000Z</time>
</trkpt>
<trkpt lat="45.8439780" lon="9.3198520">
	<ele>1240.60</ele>
	<time>2024-03-25T10:34:50.000Z</time>
</trkpt>
<trkpt lat="45.8439650" lon="9.3198670">
	<ele>1240.80</ele>
	<time>2024-03-25T10:34:51.000Z</time>
</trkpt>
<trkpt lat="45.8439570" lon="9.3198820">
	<ele>1241.00</ele>
	<time>2024-03-25T10:34:52.000Z</time>
</trkpt>
<trkpt lat="45.8439490" lon="9.3198970">
	<ele>1241.20</ele>
	<time>2024-03-25T10:34:53.000Z</time>
</trkpt>
<trkpt lat="45.8439420" lon="9.3199050">
	<ele>1241.40</ele>
	<time>2024-03-25T10:34:54.000Z</time>
</trkpt>
<trkpt lat="45.8439330" lon="9.3199140">
	<ele>1241.60</ele>
	<time>2024-03-25T10:34:55.000Z</time>
</trkpt>
<trkpt lat="45.8439240" lon="9.3199250">
	<ele>1241.80</ele>
	<time>2024-03-25T10:34:56.000Z</time>
</trkpt>
<trkpt lat="45.8439230" lon="9.3199320">
	<ele>1241.80</ele>
	<time>2024-03-25T10:34:57.000Z</time>
</trkpt>
<trkpt lat="45.8439190" lon="9.3199340">
	<ele>1242.00</ele>
	<time>2024-03-25T10:34:58.000Z</time>
</trkpt>
<trkpt lat="45.8439130" lon="9.3199320">
	<ele>1242.40</ele>
	<time>2024-03-25T10:34:59.000Z</time>
</trkpt>
<trkpt lat="45.8439060" lon="9.3199300">
	<ele>1242.60</ele>
	<time>2024-03-25T10:35:00.000Z</time>
</trkpt>
<trkpt lat="45.8438980" lon="9.3199290">
	<ele>1242.60</ele>
	<time>2024-03-25T10:35:01.000Z</time>
</trkpt>
<trkpt lat="45.8438910" lon="9.3199320">
	<ele>1242.80</ele>
	<time>2024-03-25T10:35:02.000Z</time>
</trkpt>
<trkpt lat="45.8438850" lon="9.3199360">
	<ele>1242.80</ele>
	<time>2024-03-25T10:35:03.000Z</time>
</trkpt>
<trkpt lat="45.8438810" lon="9.3199410">
	<ele>1243.00</ele>
	<time>2024-03-25T10:35:04.000Z</time>
</trkpt>
<trkpt lat="45.8438760" lon="9.3199480">
	<ele>1243.00</ele>
	<time>2024-03-25T10:35:05.000Z</time>
</trkpt>
<trkpt lat="45.8438700" lon="9.3199530">
	<ele>1243.20</ele>
	<time>2024-03-25T10:35:06.000Z</time>
</trkpt>
<trkpt lat="45.8438640" lon="9.3199610">
	<ele>1243.20</ele>
	<time>2024-03-25T10:35:07.000Z</time>
</trkpt>
<trkpt lat="45.8438610" lon="9.3199670">
	<ele>1243.40</ele>
	<time>2024-03-25T10:35:08.000Z</time>
</trkpt>
<trkpt lat="45.8438570" lon="9.3199690">
	<ele>1243.60</ele>
	<time>2024-03-25T10:35:09.000Z</time>
</trkpt>
<trkpt lat="45.8438510" lon="9.3199700">
	<ele>1243.60</ele>
	<time>2024-03-25T10:35:10.000Z</time>
</trkpt>
<trkpt lat="45.8438430" lon="9.3199710">
	<ele>1244.00</ele>
	<time>2024-03-25T10:35:11.000Z</time>
</trkpt>
<trkpt lat="45.8438410" lon="9.3199770">
	<ele>1244.00</ele>
	<time>2024-03-25T10:35:12.000Z</time>
</trkpt>
<trkpt lat="45.8438380" lon="9.3199880">
	<ele>1244.40</ele>
	<time>2024-03-25T10:35:13.000Z</time>
</trkpt>
<trkpt lat="45.8438330" lon="9.3200000">
	<ele>1244.60</ele>
	<time>2024-03-25T10:35:14.000Z</time>
</trkpt>
<trkpt lat="45.8438280" lon="9.3200090">
	<ele>1244.60</ele>
	<time>2024-03-25T10:35:15.000Z</time>
</trkpt>
<trkpt lat="45.8438230" lon="9.3200160">
	<ele>1244.80</ele>
	<time>2024-03-25T10:35:16.000Z</time>
</trkpt>
<trkpt lat="45.8438190" lon="9.3200270">
	<ele>1245.00</ele>
	<time>2024-03-25T10:35:17.000Z</time>
</trkpt>
<trkpt lat="45.8438150" lon="9.3200400">
	<ele>1245.00</ele>
	<time>2024-03-25T10:35:18.000Z</time>
</trkpt>
<trkpt lat="45.8438130" lon="9.3200480">
	<ele>1245.40</ele>
	<time>2024-03-25T10:35:19.000Z</time>
</trkpt>
<trkpt lat="45.8438080" lon="9.3200540">
	<ele>1245.40</ele>
	<time>2024-03-25T10:35:20.000Z</time>
</trkpt>
<trkpt lat="45.8438010" lon="9.3200610">
	<ele>1245.80</ele>
	<time>2024-03-25T10:35:21.000Z</time>
</trkpt>
<trkpt lat="45.8437940" lon="9.3200680">
	<ele>1246.20</ele>
	<time>2024-03-25T10:35:22.000Z</time>
</trkpt>
<trkpt lat="45.8437880" lon="9.3200760">
	<ele>1246.40</ele>
	<time>2024-03-25T10:35:23.000Z</time>
</trkpt>
<trkpt lat="45.8437840" lon="9.3200850">
	<ele>1246.40</ele>
	<time>2024-03-25T10:35:24.000Z</time>
</trkpt>
<trkpt lat="45.8437810" lon="9.3200920">
	<ele>1246.60</ele>
	<time>2024-03-25T10:35:25.000Z</time>
</trkpt>
<trkpt lat="45.8437780" lon="9.3200980">
	<ele>1246.60</ele>
	<time>2024-03-25T10:35:26.000Z</time>
</trkpt>
<trkpt lat="45.8437740" lon="9.3201090">
	<ele>1246.80</ele>
	<time>2024-03-25T10:35:27.000Z</time>
</trkpt>
<trkpt lat="45.8437730" lon="9.3201250">
	<ele>1246.80</ele>
	<time>2024-03-25T10:35:28.000Z</time>
</trkpt>
<trkpt lat="45.8437730" lon="9.3201380">
	<ele>1247.00</ele>
	<time>2024-03-25T10:35:29.000Z</time>
</trkpt>
<trkpt lat="45.8437710" lon="9.3201510">
	<ele>1247.00</ele>
	<time>2024-03-25T10:35:30.000Z</time>
</trkpt>
<trkpt lat="45.8437690" lon="9.3201640">
	<ele>1247.20</ele>
	<time>2024-03-25T10:35:31.000Z</time>
</trkpt>
<trkpt lat="45.8437660" lon="9.3201770">
	<ele>1247.20</ele>
	<time>2024-03-25T10:35:32.000Z</time>
</trkpt>
<trkpt lat="45.8437610" lon="9.3201890">
	<ele>1247.20</ele>
	<time>2024-03-25T10:35:33.000Z</time>
</trkpt>
<trkpt lat="45.8437610" lon="9.3201950">
	<ele>1247.40</ele>
	<time>2024-03-25T10:35:34.000Z</time>
</trkpt>
<trkpt lat="45.8437570" lon="9.3202010">
	<ele>1247.40</ele>
	<time>2024-03-25T10:35:35.000Z</time>
</trkpt>
<trkpt lat="45.8437510" lon="9.3202090">
	<ele>1247.60</ele>
	<time>2024-03-25T10:35:36.000Z</time>
</trkpt>
<trkpt lat="45.8437470" lon="9.3202190">
	<ele>1247.80</ele>
	<time>2024-03-25T10:35:37.000Z</time>
</trkpt>
<trkpt lat="45.8437460" lon="9.3202330">
	<ele>1247.80</ele>
	<time>2024-03-25T10:35:38.000Z</time>
</trkpt>
<trkpt lat="45.8437440" lon="9.3202420">
	<ele>1248.00</ele>
	<time>2024-03-25T10:35:39.000Z</time>
</trkpt>
<trkpt lat="45.8437450" lon="9.3202480">
	<ele>1248.20</ele>
	<time>2024-03-25T10:35:40.000Z</time>
</trkpt>
<trkpt lat="45.8437450" lon="9.3202570">
	<ele>1248.40</ele>
	<time>2024-03-25T10:35:41.000Z</time>
</trkpt>
<trkpt lat="45.8437410" lon="9.3202650">
	<ele>1248.60</ele>
	<time>2024-03-25T10:35:42.000Z</time>
</trkpt>
<trkpt lat="45.8437400" lon="9.3202700">
	<ele>1248.60</ele>
	<time>2024-03-25T10:35:43.000Z</time>
</trkpt>
<trkpt lat="45.8437370" lon="9.3202740">
	<ele>1249.00</ele>
	<time>2024-03-25T10:35:44.000Z</time>
</trkpt>
<trkpt lat="45.8437350" lon="9.3202810">
	<ele>1249.00</ele>
	<time>2024-03-25T10:35:45.000Z</time>
</trkpt>
<trkpt lat="45.8437320" lon="9.3202870">
	<ele>1249.20</ele>
	<time>2024-03-25T10:35:46.000Z</time>
</trkpt>
<trkpt lat="45.8437280" lon="9.3202940">
	<ele>1249.60</ele>
	<time>2024-03-25T10:35:47.000Z</time>
</trkpt>
<trkpt lat="45.8437260" lon="9.3203070">
	<ele>1249.60</ele>
	<time>2024-03-25T10:35:48.000Z</time>
</trkpt>
<trkpt lat="45.8437240" lon="9.3203150">
	<ele>1249.80</ele>
	<time>2024-03-25T10:35:49.000Z</time>
</trkpt>
<trkpt lat="45.8437220" lon="9.3203210">
	<ele>1250.20</ele>
	<time>2024-03-25T10:35:50.000Z</time>
</trkpt>
<trkpt lat="45.8437170" lon="9.3203250">
	<ele>1250.40</ele>
	<time>2024-03-25T10:35:51.000Z</time>
</trkpt>
<trkpt lat="45.8437110" lon="9.3203310">
	<ele>1250.60</ele>
	<time>2024-03-25T10:35:52.000Z</time>
</trkpt>
<trkpt lat="45.8437080" lon="9.3203360">
	<ele>1250.60</ele>
	<time>2024-03-25T10:35:53.000Z</time>
</trkpt>
<trkpt lat="45.8437040" lon="9.3203410">
	<ele>1250.80</ele>
	<time>2024-03-25T10:35:54.000Z</time>
</trkpt>
<trkpt lat="45.8437000" lon="9.3203460">
	<ele>1251.00</ele>
	<time>2024-03-25T10:35:55.000Z</time>
</trkpt>
<trkpt lat="45.8436960" lon="9.3203490">
	<ele>1251.00</ele>
	<time>2024-03-25T10:35:56.000Z</time>
</trkpt>
<trkpt lat="45.8436940" lon="9.3203580">
	<ele>1251.40</ele>
	<time>2024-03-25T10:35:57.000Z</time>
</trkpt>
<trkpt lat="45.8436880" lon="9.3203640">
	<ele>1251.60</ele>
	<time>2024-03-25T10:35:58.000Z</time>
</trkpt>
<trkpt lat="45.8436830" lon="9.3203690">
	<ele>1251.80</ele>
	<time>2024-03-25T10:35:59.000Z</time>
</trkpt>
<trkpt lat="45.8436780" lon="9.3203710">
	<ele>1252.00</ele>
	<time>2024-03-25T10:36:00.000Z</time>
</trkpt>
<trkpt lat="45.8436740" lon="9.3203740">
	<ele>1252.40</ele>
	<time>2024-03-25T10:36:01.000Z</time>
</trkpt>
<trkpt lat="45.8436710" lon="9.3203760">
	<ele>1252.60</ele>
	<time>2024-03-25T10:36:02.000Z</time>
</trkpt>
<trkpt lat="45.8436690" lon="9.3203790">
	<ele>1252.80</ele>
	<time>2024-03-25T10:36:03.000Z</time>
</trkpt>
<trkpt lat="45.8436670" lon="9.3203860">
	<ele>1253.00</ele>
	<time>2024-03-25T10:36:04.000Z</time>
</trkpt>
<trkpt lat="45.8436640" lon="9.3203900">
	<ele>1253.00</ele>
	<time>2024-03-25T10:36:05.000Z</time>
</trkpt>
<trkpt lat="45.8436600" lon="9.3203950">
	<ele>1253.20</ele>
	<time>2024-03-25T10:36:06.000Z</time>
</trkpt>
<trkpt lat="45.8436590" lon="9.3203980">
	<ele>1253.40</ele>
	<time>2024-03-25T10:36:07.000Z</time>
</trkpt>
<trkpt lat="45.8436560" lon="9.3204000">
	<ele>1253.60</ele>
	<time>2024-03-25T10:36:08.000Z</time>
</trkpt>
<trkpt lat="45.8436520" lon="9.3204010">
	<ele>1254.00</ele>
	<time>2024-03-25T10:36:09.000Z</time>
</trkpt>
<trkpt lat="45.8436450" lon="9.3204010">
	<ele>1254.20</ele>
	<time>2024-03-25T10:36:10.000Z</time>
</trkpt>
<trkpt lat="45.8436380" lon="9.3204030">
	<ele>1254.40</ele>
	<time>2024-03-25T10:36:11.000Z</time>
</trkpt>
<trkpt lat="45.8436330" lon="9.3204050">
	<ele>1254.60</ele>
	<time>2024-03-25T10:36:12.000Z</time>
</trkpt>
<trkpt lat="45.8436290" lon="9.3204080">
	<ele>1254.80</ele>
	<time>2024-03-25T10:36:13.000Z</time>
</trkpt>
<trkpt lat="45.8436260" lon="9.3204090">
	<ele>1255.00</ele>
	<time>2024-03-25T10:36:14.000Z</time>
</trkpt>
<trkpt lat="45.8436210" lon="9.3204060">
	<ele>1255.00</ele>
	<time>2024-03-25T10:36:15.000Z</time>
</trkpt>
<trkpt lat="45.8436140" lon="9.3204060">
	<ele>1255.00</ele>
	<time>2024-03-25T10:36:16.000Z</time>
</trkpt>
<trkpt lat="45.8436080" lon="9.3204060">
	<ele>1255.20</ele>
	<time>2024-03-25T10:36:17.000Z</time>
</trkpt>
<trkpt lat="45.8436030" lon="9.3204090">
	<ele>1255.40</ele>
	<time>2024-03-25T10:36:18.000Z</time>
</trkpt>
<trkpt lat="45.8435990" lon="9.3204130">
	<ele>1255.40</ele>
	<time>2024-03-25T10:36:19.000Z</time>
</trkpt>
<trkpt lat="45.8435930" lon="9.3204170">
	<ele>1255.60</ele>
	<time>2024-03-25T10:36:20.000Z</time>
</trkpt>
<trkpt lat="45.8435890" lon="9.3204230">
	<ele>1256.00</ele>
	<time>2024-03-25T10:36:21.000Z</time>
</trkpt>
<trkpt lat="45.8435850" lon="9.3204290">
	<ele>1256.20</ele>
	<time>2024-03-25T10:36:22.000Z</time>
</trkpt>
<trkpt lat="45.8435840" lon="9.3204350">
	<ele>1256.40</ele>
	<time>2024-03-25T10:36:23.000Z</time>
</trkpt>
<trkpt lat="45.8435820" lon="9.3204400">
	<ele>1256.80</ele>
	<time>2024-03-25T10:36:24.000Z</time>
</trkpt>
<trkpt lat="45.8435790" lon="9.3204450">
	<ele>1256.80</ele>
	<time>2024-03-25T10:36:25.000Z</time>
</trkpt>
<trkpt lat="45.8435780" lon="9.3204490">
	<ele>1257.00</ele>
	<time>2024-03-25T10:36:26.000Z</time>
</trkpt>
<trkpt lat="45.8435780" lon="9.3204530">
	<ele>1257.20</ele>
	<time>2024-03-25T10:36:27.000Z</time>
</trkpt>
<trkpt lat="45.8435770" lon="9.3204610">
	<ele>1257.40</ele>
	<time>2024-03-25T10:36:28.000Z</time>
</trkpt>
<trkpt lat="45.8435770" lon="9.3204730">
	<ele>1257.60</ele>
	<time>2024-03-25T10:36:29.000Z</time>
</trkpt>
<trkpt lat="45.8435770" lon="9.3204800">
	<ele>1257.80</ele>
	<time>2024-03-25T10:36:30.000Z</time>
</trkpt>
<trkpt lat="45.8435760" lon="9.3204830">
	<ele>1258.00</ele>
	<time>2024-03-25T10:36:31.000Z</time>
</trkpt>
<trkpt lat="45.8435740" lon="9.3204880">
	<ele>1258.20</ele>
	<time>2024-03-25T10:36:32.000Z</time>
</trkpt>
<trkpt lat="45.8435710" lon="9.3204930">
	<ele>1258.40</ele>
	<time>2024-03-25T10:36:33.000Z</time>
</trkpt>
<trkpt lat="45.8435690" lon="9.3204970">
	<ele>1258.40</ele>
	<time>2024-03-25T10:36:34.000Z</time>
</trkpt>
<trkpt lat="45.8435680" lon="9.3204990">
	<ele>1258.60</ele>
	<time>2024-03-25T10:36:35.000Z</time>
</trkpt>
<trkpt lat="45.8435650" lon="9.3205000">
	<ele>1258.60</ele>
	<time>2024-03-25T10:36:36.000Z</time>
</trkpt>
<trkpt lat="45.8435590" lon="9.3205000">
	<ele>1258.80</ele>
	<time>2024-03-25T10:36:37.000Z</time>
</trkpt>
<trkpt lat="45.8435540" lon="9.3204990">
	<ele>1258.80</ele>
	<time>2024-03-25T10:36:38.000Z</time>
</trkpt>
<trkpt lat="45.8435500" lon="9.3205020">
	<ele>1259.00</ele>
	<time>2024-03-25T10:36:39.000Z</time>
</trkpt>
<trkpt lat="45.8435460" lon="9.3205060">
	<ele>1259.00</ele>
	<time>2024-03-25T10:36:40.000Z</time>
</trkpt>
<trkpt lat="45.8435430" lon="9.3205120">
	<ele>1259.20</ele>
	<time>2024-03-25T10:36:41.000Z</time>
</trkpt>
<trkpt lat="45.8435400" lon="9.3205150">
	<ele>1259.60</ele>
	<time>2024-03-25T10:36:42.000Z</time>
</trkpt>
<trkpt lat="45.8435370" lon="9.3205180">
	<ele>1259.80</ele>
	<time>2024-03-25T10:36:43.000Z</time>
</trkpt>
<trkpt lat="45.8435350" lon="9.3205230">
	<ele>1259.80</ele>
	<time>2024-03-25T10:36:44.000Z</time>
</trkpt>
<trkpt lat="45.8435330" lon="9.3205270">
	<ele>1260.00</ele>
	<time>2024-03-25T10:36:45.000Z</time>
</trkpt>
<trkpt lat="45.8435300" lon="9.3205320">
	<ele>1260.00</ele>
	<time>2024-03-25T10:36:46.000Z</time>
</trkpt>
<trkpt lat="45.8435270" lon="9.3205370">
	<ele>1260.20</ele>
	<time>2024-03-25T10:36:47.000Z</time>
</trkpt>
<trkpt lat="45.8435240" lon="9.3205410">
	<ele>1260.20</ele>
	<time>2024-03-25T10:36:48.000Z</time>
</trkpt>
<trkpt lat="45.8435220" lon="9.3205470">
	<ele>1260.60</ele>
	<time>2024-03-25T10:36:49.000Z</time>
</trkpt>
<trkpt lat="45.8435220" lon="9.3205550">
	<ele>1260.60</ele>
	<time>2024-03-25T10:36:50.000Z</time>
</trkpt>
<trkpt lat="45.8435200" lon="9.3205630">
	<ele>1260.80</ele>
	<time>2024-03-25T10:36:51.000Z</time>
</trkpt>
<trkpt lat="45.8435180" lon="9.3205690">
	<ele>1260.80</ele>
	<time>2024-03-25T10:36:52.000Z</time>
</trkpt>
<trkpt lat="45.8435150" lon="9.3205750">
	<ele>1261.00</ele>
	<time>2024-03-25T10:36:53.000Z</time>
</trkpt>
<trkpt lat="45.8435110" lon="9.3205830">
	<ele>1261.00</ele>
	<time>2024-03-25T10:36:54.000Z</time>
</trkpt>
<trkpt lat="45.8435090" lon="9.3205920">
	<ele>1261.20</ele>
	<time>2024-03-25T10:36:55.000Z</time>
</trkpt>
<trkpt lat="45.8435090" lon="9.3206010">
	<ele>1261.20</ele>
	<time>2024-03-25T10:36:56.000Z</time>
</trkpt>
<trkpt lat="45.8435090" lon="9.3206070">
	<ele>1261.60</ele>
	<time>2024-03-25T10:36:57.000Z</time>
</trkpt>
<trkpt lat="45.8435080" lon="9.3206140">
	<ele>1261.80</ele>
	<time>2024-03-25T10:36:58.000Z</time>
</trkpt>
<trkpt lat="45.8435060" lon="9.3206230">
	<ele>1262.00</ele>
	<time>2024-03-25T10:36:59.000Z</time>
</trkpt>
<trkpt lat="45.8435050" lon="9.3206320">
	<ele>1262.00</ele>
	<time>2024-03-25T10:37:00.000Z</time>
</trkpt>
<trkpt lat="45.8435020" lon="9.3206410">
	<ele>1262.20</ele>
	<time>2024-03-25T10:37:01.000Z</time>
</trkpt>
<trkpt lat="45.8435010" lon="9.3206470">
	<ele>1262.40</ele>
	<time>2024-03-25T10:37:02.000Z</time>
</trkpt>
<trkpt lat="45.8434980" lon="9.3206550">
	<ele>1262.60</ele>
	<time>2024-03-25T10:37:03.000Z</time>
</trkpt>
<trkpt lat="45.8434960" lon="9.3206630">
	<ele>1262.80</ele>
	<time>2024-03-25T10:37:04.000Z</time>
</trkpt>
<trkpt lat="45.8434960" lon="9.3206720">
	<ele>1262.80</ele>
	<time>2024-03-25T10:37:05.000Z</time>
</trkpt>
<trkpt lat="45.8434960" lon="9.3206850">
	<ele>1263.00</ele>
	<time>2024-03-25T10:37:06.000Z</time>
</trkpt>
<trkpt lat="45.8434950" lon="9.3206990">
	<ele>1263.00</ele>
	<time>2024-03-25T10:37:07.000Z</time>
</trkpt>
<trkpt lat="45.8434950" lon="9.3207080">
	<ele>1263.40</ele>
	<time>2024-03-25T10:37:08.000Z</time>
</trkpt>
<trkpt lat="45.8434940" lon="9.3207160">
	<ele>1263.60</ele>
	<time>2024-03-25T10:37:09.000Z</time>
</trkpt>
<trkpt lat="45.8434940" lon="9.3207240">
	<ele>1263.80</ele>
	<time>2024-03-25T10:37:10.000Z</time>
</trkpt>
<trkpt lat="45.8434940" lon="9.3207350">
	<ele>1264.00</ele>
	<time>2024-03-25T10:37:11.000Z</time>
</trkpt>
<trkpt lat="45.8434920" lon="9.3207460">
	<ele>1264.00</ele>
	<time>2024-03-25T10:37:12.000Z</time>
</trkpt>
<trkpt lat="45.8434910" lon="9.3207570">
	<ele>1264.00</ele>
	<time>2024-03-25T10:37:13.000Z</time>
</trkpt>
<trkpt lat="45.8434900" lon="9.3207630">
	<ele>1264.00</ele>
	<time>2024-03-25T10:37:14.000Z</time>
</trkpt>
<trkpt lat="45.8434900" lon="9.3207690">
	<ele>1264.20</ele>
	<time>2024-03-25T10:37:15.000Z</time>
</trkpt>
<trkpt lat="45.8434880" lon="9.3207730">
	<ele>1264.40</ele>
	<time>2024-03-25T10:37:16.000Z</time>
</trkpt>
<trkpt lat="45.8434860" lon="9.3207830">
	<ele>1264.40</ele>
	<time>2024-03-25T10:37:17.000Z</time>
</trkpt>
<trkpt lat="45.8434840" lon="9.3207920">
	<ele>1264.60</ele>
	<time>2024-03-25T10:37:18.000Z</time>
</trkpt>
<trkpt lat="45.8434820" lon="9.3207960">
	<ele>1264.60</ele>
	<time>2024-03-25T10:37:19.000Z</time>
</trkpt>
<trkpt lat="45.8434800" lon="9.3208050">
	<ele>1264.80</ele>
	<time>2024-03-25T10:37:20.000Z</time>
</trkpt>
<trkpt lat="45.8434790" lon="9.3208160">
	<ele>1265.00</ele>
	<time>2024-03-25T10:37:21.000Z</time>
</trkpt>
<trkpt lat="45.8434780" lon="9.3208300">
	<ele>1265.20</ele>
	<time>2024-03-25T10:37:22.000Z</time>
</trkpt>
<trkpt lat="45.8434750" lon="9.3208440">
	<ele>1265.40</ele>
	<time>2024-03-25T10:37:23.000Z</time>
</trkpt>
<trkpt lat="45.8434740" lon="9.3208520">
	<ele>1265.60</ele>
	<time>2024-03-25T10:37:24.000Z</time>
</trkpt>
<trkpt lat="45.8434720" lon="9.3208620">
	<ele>1265.60</ele>
	<time>2024-03-25T10:37:25.000Z</time>
</trkpt>
<trkpt lat="45.8434730" lon="9.3208730">
	<ele>1265.80</ele>
	<time>2024-03-25T10:37:26.000Z</time>
</trkpt>
<trkpt lat="45.8434700" lon="9.3208820">
	<ele>1266.00</ele>
	<time>2024-03-25T10:37:27.000Z</time>
</trkpt>
<trkpt lat="45.8434680" lon="9.3208880">
	<ele>1266.00</ele>
	<time>2024-03-25T10:37:28.000Z</time>
</trkpt>
<trkpt lat="45.8434660" lon="9.3208950">
	<ele>1266.20</ele>
	<time>2024-03-25T10:37:29.000Z</time>
</trkpt>
<trkpt lat="45.8434650" lon="9.3209040">
	<ele>1266.20</ele>
	<time>2024-03-25T10:37:30.000Z</time>
</trkpt>
<trkpt lat="45.8434600" lon="9.3209100">
	<ele>1266.40</ele>
	<time>2024-03-25T10:37:31.000Z</time>
</trkpt>
<trkpt lat="45.8434550" lon="9.3209160">
	<ele>1266.40</ele>
	<time>2024-03-25T10:37:32.000Z</time>
</trkpt>
<trkpt lat="45.8434500" lon="9.3209220">
	<ele>1266.40</ele>
	<time>2024-03-25T10:37:33.000Z</time>
</trkpt>
<trkpt lat="45.8434460" lon="9.3209280">
	<ele>1266.60</ele>
	<time>2024-03-25T10:37:34.000Z</time>
</trkpt>
<trkpt lat="45.8434440" lon="9.3209340">
	<ele>1266.80</ele>
	<time>2024-03-25T10:37:35.000Z</time>
</trkpt>
<trkpt lat="45.8434410" lon="9.3209400">
	<ele>1267.20</ele>
	<time>2024-03-25T10:37:36.000Z</time>
</trkpt>
<trkpt lat="45.8434370" lon="9.3209450">
	<ele>1267.20</ele>
	<time>2024-03-25T10:37:37.000Z</time>
</trkpt>
<trkpt lat="45.8434340" lon="9.3209480">
	<ele>1267.40</ele>
	<time>2024-03-25T10:37:38.000Z</time>
</trkpt>
<trkpt lat="45.8434310" lon="9.3209480">
	<ele>1267.60</ele>
	<time>2024-03-25T10:37:39.000Z</time>
</trkpt>
<trkpt lat="45.8434290" lon="9.3209500">
	<ele>1267.80</ele>
	<time>2024-03-25T10:37:40.000Z</time>
</trkpt>
<trkpt lat="45.8434290" lon="9.3209520">
	<ele>1267.80</ele>
	<time>2024-03-25T10:37:41.000Z</time>
</trkpt>
<trkpt lat="45.8434280" lon="9.3209520">
	<ele>1268.20</ele>
	<time>2024-03-25T10:37:42.000Z</time>
</trkpt>
<trkpt lat="45.8434270" lon="9.3209490">
	<ele>1268.40</ele>
	<time>2024-03-25T10:37:43.000Z</time>
</trkpt>
<trkpt lat="45.8434270" lon="9.3209440">
	<ele>1268.60</ele>
	<time>2024-03-25T10:37:44.000Z</time>
</trkpt>
<trkpt lat="45.8434270" lon="9.3209400">
	<ele>1268.80</ele>
	<time>2024-03-25T10:37:45.000Z</time>
</trkpt>
<trkpt lat="45.8434270" lon="9.3209400">
	<ele>1268.80</ele>
	<time>2024-03-25T10:37:46.000Z</time>
</trkpt>
<trkpt lat="45.8434290" lon="9.3209420">
	<ele>1268.80</ele>
	<time>2024-03-25T10:37:47.000Z</time>
</trkpt>
<trkpt lat="45.8434300" lon="9.3209450">
	<ele>1268.80</ele>
	<time>2024-03-25T10:37:48.000Z</time>
</trkpt>
<trkpt lat="45.8434310" lon="9.3209480">
	<ele>1268.80</ele>
	<time>2024-03-25T10:37:49.000Z</time>
</trkpt>
<trkpt lat="45.8434320" lon="9.3209490">
	<ele>1268.80</ele>
	<time>2024-03-25T10:37:50.000Z</time>
</trkpt>
<trkpt lat="45.8434320" lon="9.3209490">
	<ele>1268.80</ele>
	<time>2024-03-25T10:37:51.000Z</time>
</trkpt>
<trkpt lat="45.8434320" lon="9.3209490">
	<ele>1268.80</ele>
	<time>2024-03-25T10:37:52.000Z</time>
</trkpt>
<trkpt lat="45.8434320" lon="9.3209490">
	<ele>1268.80</ele>
	<time>2024-03-25T10:37:53.000Z</time>
</trkpt>
<trkpt lat="45.8434320" lon="9.3209490">
	<ele>1268.80</ele>
	<time>2024-03-25T10:37:54.000Z</time>
</trkpt>
<trkpt lat="45.8434320" lon="9.3209490">
	<ele>1268.80</ele>
	<time>2024-03-25T10:37:55.000Z</time>
</trkpt>
<trkpt lat="45.8434320" lon="9.3209490">
	<ele>1268.80</ele>
	<time>2024-03-25T10:37:56.000Z</time>
</trkpt>
<trkpt lat="45.8434320" lon="9.3209490">
	<ele>1268.80</ele>
	<time>2024-03-25T10:37:57.000Z</time>
</trkpt>
<trkpt lat="45.8434310" lon="9.3209490">
	<ele>1268.80</ele>
	<time>2024-03-25T10:37:58.000Z</time>
</trkpt>
<trkpt lat="45.8434310" lon="9.3209490">
	<ele>1268.60</ele>
	<time>2024-03-25T10:37:59.000Z</time>
</trkpt>
<trkpt lat="45.8434300" lon="9.3209490">
	<ele>1268.80</ele>
	<time>2024-03-25T10:38:00.000Z</time>
</trkpt>
<trkpt lat="45.8434300" lon="9.3209490">
	<ele>1268.80</ele>
	<time>2024-03-25T10:38:01.000Z</time>
</trkpt>
<trkpt lat="45.8434300" lon="9.3209490">
	<ele>1268.80</ele>
	<time>2024-03-25T10:38:02.000Z</time>
</trkpt>
<trkpt lat="45.8434300" lon="9.3209490">
	<ele>1268.80</ele>
	<time>2024-03-25T10:38:03.000Z</time>
</trkpt>
<trkpt lat="45.8434300" lon="9.3209490">
	<ele>1268.80</ele>
	<time>2024-03-25T10:38:04.000Z</time>
</trkpt>
<trkpt lat="45.8434300" lon="9.3209490">
	<ele>1268.80</ele>
	<time>2024-03-25T10:38:05.000Z</time>
</trkpt>
<trkpt lat="45.8434300" lon="9.3209480">
	<ele>1268.80</ele>
	<time>2024-03-25T10:38:06.000Z</time>
</trkpt>
<trkpt lat="45.8434300" lon="9.3209480">
	<ele>1268.80</ele>
	<time>2024-03-25T10:38:07.000Z</time>
</trkpt>
<trkpt lat="45.8434300" lon="9.3209480">
	<ele>1269.00</ele>
	<time>2024-03-25T10:38:08.000Z</time>
</trkpt>
<trkpt lat="45.8434300" lon="9.3209470">
	<ele>1269.20</ele>
	<time>2024-03-25T10:38:09.000Z</time>
</trkpt>
<trkpt lat="45.8434300" lon="9.3209470">
	<ele>1269.20</ele>
	<time>2024-03-25T10:38:10.000Z</time>
</trkpt>
<trkpt lat="45.8434300" lon="9.3209470">
	<ele>1269.20</ele>
	<time>2024-03-25T10:38:11.000Z</time>
</trkpt>
<trkpt lat="45.8434300" lon="9.3209470">
	<ele>1269.20</ele>
	<time>2024-03-25T10:38:12.000Z</time>
</trkpt>
<trkpt lat="45.8434310" lon="9.3209460">
	<ele>1269.40</ele>
	<time>2024-03-25T10:38:13.000Z</time>
</trkpt>
<trkpt lat="45.8434310" lon="9.3209460">
	<ele>1269.40</ele>
	<time>2024-03-25T10:38:14.000Z</time>
</trkpt>
<trkpt lat="45.8434320" lon="9.3209460">
	<ele>1269.40</ele>
	<time>2024-03-25T10:38:15.000Z</time>
</trkpt>
<trkpt lat="45.8434320" lon="9.3209460">
	<ele>1269.40</ele>
	<time>2024-03-25T10:38:16.000Z</time>
</trkpt>
<trkpt lat="45.8434320" lon="9.3209460">
	<ele>1269.40</ele>
	<time>2024-03-25T10:38:17.000Z</time>
</trkpt>
<trkpt lat="45.8434320" lon="9.3209460">
	<ele>1269.40</ele>
	<time>2024-03-25T10:38:18.000Z</time>
</trkpt>
<trkpt lat="45.8434330" lon="9.3209460">
	<ele>1269.40</ele>
	<time>2024-03-25T10:38:19.000Z</time>
</trkpt>
<trkpt lat="45.8434330" lon="9.3209460">
	<ele>1269.40</ele>
	<time>2024-03-25T10:38:20.000Z</time>
</trkpt>
<trkpt lat="45.8434340" lon="9.3209450">
	<ele>1269.40</ele>
	<time>2024-03-25T10:38:21.000Z</time>
</trkpt>
<trkpt lat="45.8434340" lon="9.3209450">
	<ele>1269.40</ele>
	<time>2024-03-25T10:38:22.000Z</time>
</trkpt>
<trkpt lat="45.8434350" lon="9.3209450">
	<ele>1269.60</ele>
	<time>2024-03-25T10:38:23.000Z</time>
</trkpt>
<trkpt lat="45.8434350" lon="9.3209450">
	<ele>1269.60</ele>
	<time>2024-03-25T10:38:24.000Z</time>
</trkpt>
<trkpt lat="45.8434360" lon="9.3209450">
	<ele>1269.80</ele>
	<time>2024-03-25T10:38:25.000Z</time>
</trkpt>
<trkpt lat="45.8434360" lon="9.3209450">
	<ele>1270.00</ele>
	<time>2024-03-25T10:38:26.000Z</time>
</trkpt>
<trkpt lat="45.8434370" lon="9.3209460">
	<ele>1270.00</ele>
	<time>2024-03-25T10:38:27.000Z</time>
</trkpt>
<trkpt lat="45.8434380" lon="9.3209460">
	<ele>1270.00</ele>
	<time>2024-03-25T10:38:28.000Z</time>
</trkpt>
<trkpt lat="45.8434390" lon="9.3209460">
	<ele>1270.00</ele>
	<time>2024-03-25T10:38:29.000Z</time>
</trkpt>
<trkpt lat="45.8434390" lon="9.3209460">
	<ele>1270.00</ele>
	<time>2024-03-25T10:38:30.000Z</time>
</trkpt>
<trkpt lat="45.8434400" lon="9.3209460">
	<ele>1269.60</ele>
	<time>2024-03-25T10:38:31.000Z</time>
</trkpt>
<trkpt lat="45.8434400" lon="9.3209460">
	<ele>1269.40</ele>
	<time>2024-03-25T10:38:32.000Z</time>
</trkpt>
<trkpt lat="45.8434400" lon="9.3209460">
	<ele>1269.40</ele>
	<time>2024-03-25T10:38:33.000Z</time>
</trkpt>
<trkpt lat="45.8434400" lon="9.3209460">
	<ele>1269.20</ele>
	<time>2024-03-25T10:38:34.000Z</time>
</trkpt>
<trkpt lat="45.8434400" lon="9.3209460">
	<ele>1269.20</ele>
	<time>2024-03-25T10:38:35.000Z</time>
</trkpt>
<trkpt lat="45.8434400" lon="9.3209460">
	<ele>1269.20</ele>
	<time>2024-03-25T10:38:36.000Z</time>
</trkpt>
<trkpt lat="45.8434400" lon="9.3209460">
	<ele>1269.20</ele>
	<time>2024-03-25T10:38:37.000Z</time>
</trkpt>
<trkpt lat="45.8434400" lon="9.3209460">
	<ele>1269.20</ele>
	<time>2024-03-25T10:38:38.000Z</time>
</trkpt>
<trkpt lat="45.8434400" lon="9.3209460">
	<ele>1269.20</ele>
	<time>2024-03-25T10:38:39.000Z</time>
</trkpt>
<trkpt lat="45.8434400" lon="9.3209460">
	<ele>1269.20</ele>
	<time>2024-03-25T10:38:40.000Z</time>
</trkpt>
<trkpt lat="45.8434400" lon="9.3209460">
	<ele>1269.20</ele>
	<time>2024-03-25T10:38:41.000Z</time>
</trkpt>
<trkpt lat="45.8434400" lon="9.3209460">
	<ele>1269.20</ele>
	<time>2024-03-25T10:38:42.000Z</time>
</trkpt>
<trkpt lat="45.8434400" lon="9.3209460">
	<ele>1269.20</ele>
	<time>2024-03-25T10:38:43.000Z</time>
</trkpt>
<trkpt lat="45.8434400" lon="9.3209460">
	<ele>1269.20</ele>
	<time>2024-03-25T10:38:44.000Z</time>
</trkpt>
<trkpt lat="45.8434370" lon="9.3209470">
	<ele>1269.20</ele>
	<time>2024-03-25T10:38:45.000Z</time>
</trkpt>
<trkpt lat="45.8434360" lon="9.3209470">
	<ele>1269.40</ele>
	<time>2024-03-25T10:38:46.000Z</time>
</trkpt>
<trkpt lat="45.8434360" lon="9.3209470">
	<ele>1269.40</ele>
	<time>2024-03-25T10:38:47.000Z</time>
</trkpt>
<trkpt lat="45.8434350" lon="9.3209470">
	<ele>1269.40</ele>
	<time>2024-03-25T10:38:48.000Z</time>
</trkpt>
<trkpt lat="45.8434350" lon="9.3209470">
	<ele>1269.40</ele>
	<time>2024-03-25T10:38:49.000Z</time>
</trkpt>
<trkpt lat="45.8434340" lon="9.3209470">
	<ele>1269.60</ele>
	<time>2024-03-25T10:38:50.000Z</time>
</trkpt>
<trkpt lat="45.8434330" lon="9.3209470">
	<ele>1269.40</ele>
	<time>2024-03-25T10:38:51.000Z</time>
</trkpt>
<trkpt lat="45.8434320" lon="9.3209470">
	<ele>1269.60</ele>
	<time>2024-03-25T10:38:52.000Z</time>
</trkpt>
<trkpt lat="45.8434300" lon="9.3209470">
	<ele>1269.60</ele>
	<time>2024-03-25T10:38:53.000Z</time>
</trkpt>
<trkpt lat="45.8434280" lon="9.3209470">
	<ele>1269.60</ele>
	<time>2024-03-25T10:38:54.000Z</time>
</trkpt>
<trkpt lat="45.8434260" lon="9.3209470">
	<ele>1269.40</ele>
	<time>2024-03-25T10:38:55.000Z</time>
</trkpt>
<trkpt lat="45.8434240" lon="9.3209470">
	<ele>1269.40</ele>
	<time>2024-03-25T10:38:56.000Z</time>
</trkpt>
<trkpt lat="45.8434210" lon="9.3209460">
	<ele>1269.40</ele>
	<time>2024-03-25T10:38:57.000Z</time>
</trkpt>
<trkpt lat="45.8434200" lon="9.3209460">
	<ele>1269.40</ele>
	<time>2024-03-25T10:38:58.000Z</time>
</trkpt>
<trkpt lat="45.8434190" lon="9.3209460">
	<ele>1269.40</ele>
	<time>2024-03-25T10:38:59.000Z</time>
</trkpt>
<trkpt lat="45.8434180" lon="9.3209460">
	<ele>1269.40</ele>
	<time>2024-03-25T10:39:00.000Z</time>
</trkpt>
<trkpt lat="45.8434180" lon="9.3209460">
	<ele>1269.40</ele>
	<time>2024-03-25T10:39:01.000Z</time>
</trkpt>
<trkpt lat="45.8434180" lon="9.3209460">
	<ele>1269.40</ele>
	<time>2024-03-25T10:39:02.000Z</time>
</trkpt>
<trkpt lat="45.8434170" lon="9.3209460">
	<ele>1269.60</ele>
	<time>2024-03-25T10:39:03.000Z</time>
</trkpt>
<trkpt lat="45.8434170" lon="9.3209460">
	<ele>1269.60</ele>
	<time>2024-03-25T10:39:04.000Z</time>
</trkpt>
<trkpt lat="45.8434160" lon="9.3209460">
	<ele>1269.60</ele>
	<time>2024-03-25T10:39:05.000Z</time>
</trkpt>
<trkpt lat="45.8434160" lon="9.3209460">
	<ele>1269.80</ele>
	<time>2024-03-25T10:39:06.000Z</time>
</trkpt>
<trkpt lat="45.8434160" lon="9.3209460">
	<ele>1269.80</ele>
	<time>2024-03-25T10:39:07.000Z</time>
</trkpt>
<trkpt lat="45.8434140" lon="9.3209460">
	<ele>1269.80</ele>
	<time>2024-03-25T10:39:08.000Z</time>
</trkpt>
<trkpt lat="45.8434120" lon="9.3209460">
	<ele>1269.80</ele>
	<time>2024-03-25T10:39:09.000Z</time>
</trkpt>
<trkpt lat="45.8434100" lon="9.3209460">
	<ele>1269.80</ele>
	<time>2024-03-25T10:39:10.000Z</time>
</trkpt>
<trkpt lat="45.8434090" lon="9.3209460">
	<ele>1270.00</ele>
	<time>2024-03-25T10:39:11.000Z</time>
</trkpt>
<trkpt lat="45.8434080" lon="9.3209460">
	<ele>1270.20</ele>
	<time>2024-03-25T10:39:12.000Z</time>
</trkpt>
<trkpt lat="45.8434080" lon="9.3209460">
	<ele>1270.40</ele>
	<time>2024-03-25T10:39:13.000Z</time>
</trkpt>
<trkpt lat="45.8434080" lon="9.3209450">
	<ele>1270.40</ele>
	<time>2024-03-25T10:39:14.000Z</time>
</trkpt>
<trkpt lat="45.8434080" lon="9.3209450">
	<ele>1270.60</ele>
	<time>2024-03-25T10:39:15.000Z</time>
</trkpt>
<trkpt lat="45.8434080" lon="9.3209450">
	<ele>1270.60</ele>
	<time>2024-03-25T10:39:16.000Z</time>
</trkpt>
<trkpt lat="45.8434080" lon="9.3209450">
	<ele>1270.60</ele>
	<time>2024-03-25T10:39:17.000Z</time>
</trkpt>
<trkpt lat="45.8434080" lon="9.3209450">
	<ele>1270.80</ele>
	<time>2024-03-25T10:39:18.000Z</time>
</trkpt>
<trkpt lat="45.8434080" lon="9.3209440">
	<ele>1270.80</ele>
	<time>2024-03-25T10:39:19.000Z</time>
</trkpt>
<trkpt lat="45.8434070" lon="9.3209430">
	<ele>1270.80</ele>
	<time>2024-03-25T10:39:20.000Z</time>
</trkpt>
<trkpt lat="45.8434070" lon="9.3209420">
	<ele>1271.00</ele>
	<time>2024-03-25T10:39:21.000Z</time>
</trkpt>
<trkpt lat="45.8434070" lon="9.3209420">
	<ele>1271.00</ele>
	<time>2024-03-25T10:39:22.000Z</time>
</trkpt>
<trkpt lat="45.8434070" lon="9.3209420">
	<ele>1271.00</ele>
	<time>2024-03-25T10:39:23.000Z</time>
</trkpt>
<trkpt lat="45.8434070" lon="9.3209410">
	<ele>1271.00</ele>
	<time>2024-03-25T10:39:24.000Z</time>
</trkpt>
<trkpt lat="45.8434070" lon="9.3209410">
	<ele>1271.00</ele>
	<time>2024-03-25T10:39:25.000Z</time>
</trkpt>
<trkpt lat="45.8434070" lon="9.3209410">
	<ele>1271.20</ele>
	<time>2024-03-25T10:39:26.000Z</time>
</trkpt>
<trkpt lat="45.8434070" lon="9.3209410">
	<ele>1271.00</ele>
	<time>2024-03-25T10:39:27.000Z</time>
</trkpt>
<trkpt lat="45.8434070" lon="9.3209410">
	<ele>1271.00</ele>
	<time>2024-03-25T10:39:28.000Z</time>
</trkpt>
<trkpt lat="45.8434070" lon="9.3209410">
	<ele>1271.00</ele>
	<time>2024-03-25T10:39:29.000Z</time>
</trkpt>
<trkpt lat="45.8434070" lon="9.3209410">
	<ele>1270.80</ele>
	<time>2024-03-25T10:39:30.000Z</time>
</trkpt>
<trkpt lat="45.8434070" lon="9.3209410">
	<ele>1270.80</ele>
	<time>2024-03-25T10:39:31.000Z</time>
</trkpt>
<trkpt lat="45.8434070" lon="9.3209400">
	<ele>1270.80</ele>
	<time>2024-03-25T10:39:32.000Z</time>
</trkpt>
<trkpt lat="45.8434070" lon="9.3209400">
	<ele>1270.60</ele>
	<time>2024-03-25T10:39:33.000Z</time>
</trkpt>
<trkpt lat="45.8434070" lon="9.3209400">
	<ele>1270.60</ele>
	<time>2024-03-25T10:39:34.000Z</time>
</trkpt>
<trkpt lat="45.8434070" lon="9.3209390">
	<ele>1270.60</ele>
	<time>2024-03-25T10:39:35.000Z</time>
</trkpt>
<trkpt lat="45.8434070" lon="9.3209390">
	<ele>1270.60</ele>
	<time>2024-03-25T10:39:36.000Z</time>
</trkpt>
<trkpt lat="45.8434070" lon="9.3209390">
	<ele>1270.60</ele>
	<time>2024-03-25T10:39:37.000Z</time>
</trkpt>
<trkpt lat="45.8434070" lon="9.3209390">
	<ele>1270.40</ele>
	<time>2024-03-25T10:39:38.000Z</time>
</trkpt>
<trkpt lat="45.8434070" lon="9.3209390">
	<ele>1270.40</ele>
	<time>2024-03-25T10:39:39.000Z</time>
</trkpt>
<trkpt lat="45.8434060" lon="9.3209390">
	<ele>1270.40</ele>
	<time>2024-03-25T10:39:40.000Z</time>
</trkpt>
<trkpt lat="45.8434060" lon="9.3209390">
	<ele>1270.40</ele>
	<time>2024-03-25T10:39:41.000Z</time>
</trkpt>
<trkpt lat="45.8434060" lon="9.3209390">
	<ele>1270.20</ele>
	<time>2024-03-25T10:39:42.000Z</time>
</trkpt>
<trkpt lat="45.8434050" lon="9.3209380">
	<ele>1270.20</ele>
	<time>2024-03-25T10:39:43.000Z</time>
</trkpt>
<trkpt lat="45.8434050" lon="9.3209380">
	<ele>1270.20</ele>
	<time>2024-03-25T10:39:44.000Z</time>
</trkpt>
<trkpt lat="45.8434050" lon="9.3209380">
	<ele>1270.20</ele>
	<time>2024-03-25T10:39:45.000Z</time>
</trkpt>
<trkpt lat="45.8434050" lon="9.3209380">
	<ele>1270.00</ele>
	<time>2024-03-25T10:39:46.000Z</time>
</trkpt>
<trkpt lat="45.8434050" lon="9.3209380">
	<ele>1270.00</ele>
	<time>2024-03-25T10:39:47.000Z</time>
</trkpt>
<trkpt lat="45.8434040" lon="9.3209380">
	<ele>1270.00</ele>
	<time>2024-03-25T10:39:48.000Z</time>
</trkpt>
<trkpt lat="45.8434040" lon="9.3209380">
	<ele>1269.80</ele>
	<time>2024-03-25T10:39:49.000Z</time>
</trkpt>
<trkpt lat="45.8434040" lon="9.3209380">
	<ele>1270.00</ele>
	<time>2024-03-25T10:39:50.000Z</time>
</trkpt>
<trkpt lat="45.8434040" lon="9.3209380">
	<ele>1270.00</ele>
	<time>2024-03-25T10:39:51.000Z</time>
</trkpt>
<trkpt lat="45.8434040" lon="9.3209380">
	<ele>1270.00</ele>
	<time>2024-03-25T10:39:52.000Z</time>
</trkpt>
<trkpt lat="45.8434030" lon="9.3209380">
	<ele>1270.00</ele>
	<time>2024-03-25T10:39:53.000Z</time>
</trkpt>
<trkpt lat="45.8434020" lon="9.3209380">
	<ele>1270.00</ele>
	<time>2024-03-25T10:39:54.000Z</time>
</trkpt>
<trkpt lat="45.8434020" lon="9.3209380">
	<ele>1270.00</ele>
	<time>2024-03-25T10:39:55.000Z</time>
</trkpt>
<trkpt lat="45.8434010" lon="9.3209390">
	<ele>1270.00</ele>
	<time>2024-03-25T10:39:56.000Z</time>
</trkpt>
<trkpt lat="45.8434010" lon="9.3209390">
	<ele>1270.00</ele>
	<time>2024-03-25T10:39:57.000Z</time>
</trkpt>
<trkpt lat="45.8434010" lon="9.3209390">
	<ele>1270.00</ele>
	<time>2024-03-25T10:39:58.000Z</time>
</trkpt>
<trkpt lat="45.8434000" lon="9.3209390">
	<ele>1270.00</ele>
	<time>2024-03-25T10:39:59.000Z</time>
</trkpt>
<trkpt lat="45.8434000" lon="9.3209390">
	<ele>1269.80</ele>
	<time>2024-03-25T10:40:00.000Z</time>
</trkpt>
<trkpt lat="45.8434000" lon="9.3209390">
	<ele>1269.80</ele>
	<time>2024-03-25T10:40:01.000Z</time>
</trkpt>
<trkpt lat="45.8433990" lon="9.3209390">
	<ele>1269.60</ele>
	<time>2024-03-25T10:40:02.000Z</time>
</trkpt>
<trkpt lat="45.8433990" lon="9.3209400">
	<ele>1269.60</ele>
	<time>2024-03-25T10:40:03.000Z</time>
</trkpt>
<trkpt lat="45.8433990" lon="9.3209400">
	<ele>1269.60</ele>
	<time>2024-03-25T10:40:04.000Z</time>
</trkpt>
<trkpt lat="45.8433980" lon="9.3209400">
	<ele>1269.60</ele>
	<time>2024-03-25T10:40:05.000Z</time>
</trkpt>
<trkpt lat="45.8433980" lon="9.3209400">
	<ele>1269.60</ele>
	<time>2024-03-25T10:40:06.000Z</time>
</trkpt>
<trkpt lat="45.8433980" lon="9.3209400">
	<ele>1269.60</ele>
	<time>2024-03-25T10:40:07.000Z</time>
</trkpt>
<trkpt lat="45.8433980" lon="9.3209410">
	<ele>1269.60</ele>
	<time>2024-03-25T10:40:08.000Z</time>
</trkpt>
<trkpt lat="45.8433980" lon="9.3209410">
	<ele>1269.60</ele>
	<time>2024-03-25T10:40:09.000Z</time>
</trkpt>
<trkpt lat="45.8433970" lon="9.3209410">
	<ele>1269.80</ele>
	<time>2024-03-25T10:40:10.000Z</time>
</trkpt>
<trkpt lat="45.8433970" lon="9.3209410">
	<ele>1269.80</ele>
	<time>2024-03-25T10:40:11.000Z</time>
</trkpt>
<trkpt lat="45.8433960" lon="9.3209430">
	<ele>1269.80</ele>
	<time>2024-03-25T10:40:12.000Z</time>
</trkpt>
<trkpt lat="45.8433950" lon="9.3209450">
	<ele>1269.80</ele>
	<time>2024-03-25T10:40:13.000Z</time>
</trkpt>
<trkpt lat="45.8433940" lon="9.3209480">
	<ele>1270.00</ele>
	<time>2024-03-25T10:40:14.000Z</time>
</trkpt>
<trkpt lat="45.8433930" lon="9.3209510">
	<ele>1270.20</ele>
	<time>2024-03-25T10:40:15.000Z</time>
</trkpt>
<trkpt lat="45.8433920" lon="9.3209550">
	<ele>1270.20</ele>
	<time>2024-03-25T10:40:16.000Z</time>
</trkpt>
<trkpt lat="45.8433910" lon="9.3209600">
	<ele>1270.20</ele>
	<time>2024-03-25T10:40:17.000Z</time>
</trkpt>
<trkpt lat="45.8433900" lon="9.3209630">
	<ele>1270.20</ele>
	<time>2024-03-25T10:40:18.000Z</time>
</trkpt>
<trkpt lat="45.8433900" lon="9.3209660">
	<ele>1270.20</ele>
	<time>2024-03-25T10:40:19.000Z</time>
</trkpt>
<trkpt lat="45.8433890" lon="9.3209690">
	<ele>1270.20</ele>
	<time>2024-03-25T10:40:20.000Z</time>
</trkpt>
<trkpt lat="45.8433890" lon="9.3209700">
	<ele>1270.20</ele>
	<time>2024-03-25T10:40:21.000Z</time>
</trkpt>
<trkpt lat="45.8433890" lon="9.3209720">
	<ele>1270.20</ele>
	<time>2024-03-25T10:40:22.000Z</time>
</trkpt>
<trkpt lat="45.8433910" lon="9.3209790">
	<ele>1270.20</ele>
	<time>2024-03-25T10:40:23.000Z</time>
</trkpt>
<trkpt lat="45.8434000" lon="9.3209970">
	<ele>1270.20</ele>
	<time>2024-03-25T10:40:24.000Z</time>
</trkpt>
<trkpt lat="45.8434090" lon="9.3210140">
	<ele>1270.20</ele>
	<time>2024-03-25T10:40:25.000Z</time>
</trkpt>
<trkpt lat="45.8434180" lon="9.3210320">
	<ele>1270.20</ele>
	<time>2024-03-25T10:40:26.000Z</time>
</trkpt>
<trkpt lat="45.8434270" lon="9.3210470">
	<ele>1270.20</ele>
	<time>2024-03-25T10:40:27.000Z</time>
</trkpt>
<trkpt lat="45.8434330" lon="9.3210610">
	<ele>1270.20</ele>
	<time>2024-03-25T10:40:28.000Z</time>
</trkpt>
<trkpt lat="45.8434360" lon="9.3210720">
	<ele>1270.20</ele>
	<time>2024-03-25T10:40:29.000Z</time>
</trkpt>
<trkpt lat="45.8434380" lon="9.3210820">
	<ele>1270.40</ele>
	<time>2024-03-25T10:40:30.000Z</time>
</trkpt>
<trkpt lat="45.8434410" lon="9.3210890">
	<ele>1270.40</ele>
	<time>2024-03-25T10:40:31.000Z</time>
</trkpt>
<trkpt lat="45.8434430" lon="9.3210940">
	<ele>1270.40</ele>
	<time>2024-03-25T10:40:32.000Z</time>
</trkpt>
<trkpt lat="45.8434430" lon="9.3210930">
	<ele>1270.40</ele>
	<time>2024-03-25T10:40:33.000Z</time>
</trkpt>
<trkpt lat="45.8434430" lon="9.3210910">
	<ele>1270.40</ele>
	<time>2024-03-25T10:40:34.000Z</time>
</trkpt>
<trkpt lat="45.8434420" lon="9.3210920">
	<ele>1270.60</ele>
	<time>2024-03-25T10:40:35.000Z</time>
</trkpt>
<trkpt lat="45.8434420" lon="9.3210920">
	<ele>1270.60</ele>
	<time>2024-03-25T10:40:36.000Z</time>
</trkpt>
<trkpt lat="45.8434440" lon="9.3210920">
	<ele>1270.60</ele>
	<time>2024-03-25T10:40:37.000Z</time>
</trkpt>
<trkpt lat="45.8434450" lon="9.3210930">
	<ele>1270.40</ele>
	<time>2024-03-25T10:40:38.000Z</time>
</trkpt>
<trkpt lat="45.8434460" lon="9.3210920">
	<ele>1270.40</ele>
	<time>2024-03-25T10:40:39.000Z</time>
</trkpt>
<trkpt lat="45.8434470" lon="9.3210930">
	<ele>1270.40</ele>
	<time>2024-03-25T10:40:40.000Z</time>
</trkpt>
<trkpt lat="45.8434470" lon="9.3210930">
	<ele>1270.40</ele>
	<time>2024-03-25T10:40:41.000Z</time>
</trkpt>
<trkpt lat="45.8434470" lon="9.3210930">
	<ele>1270.40</ele>
	<time>2024-03-25T10:40:42.000Z</time>
</trkpt>
<trkpt lat="45.8434470" lon="9.3210930">
	<ele>1270.40</ele>
	<time>2024-03-25T10:40:43.000Z</time>
</trkpt>
<trkpt lat="45.8434470" lon="9.3210930">
	<ele>1270.40</ele>
	<time>2024-03-25T10:40:44.000Z</time>
</trkpt>
<trkpt lat="45.8434470" lon="9.3210930">
	<ele>1270.40</ele>
	<time>2024-03-25T10:40:45.000Z</time>
</trkpt>
<trkpt lat="45.8434470" lon="9.3210930">
	<ele>1270.40</ele>
	<time>2024-03-25T10:40:46.000Z</time>
</trkpt>
<trkpt lat="45.8434470" lon="9.3210930">
	<ele>1270.40</ele>
	<time>2024-03-25T10:40:47.000Z</time>
</trkpt>
<trkpt lat="45.8434470" lon="9.3210930">
	<ele>1270.40</ele>
	<time>2024-03-25T10:40:48.000Z</time>
</trkpt>
<trkpt lat="45.8434470" lon="9.3210930">
	<ele>1270.40</ele>
	<time>2024-03-25T10:40:49.000Z</time>
</trkpt>
<trkpt lat="45.8434460" lon="9.3210930">
	<ele>1270.40</ele>
	<time>2024-03-25T10:40:50.000Z</time>
</trkpt>
<trkpt lat="45.8434460" lon="9.3210930">
	<ele>1270.40</ele>
	<time>2024-03-25T10:40:51.000Z</time>
</trkpt>
<trkpt lat="45.8434450" lon="9.3210930">
	<ele>1270.40</ele>
	<time>2024-03-25T10:40:52.000Z</time>
</trkpt>
<trkpt lat="45.8434450" lon="9.3210930">
	<ele>1270.60</ele>
	<time>2024-03-25T10:40:53.000Z</time>
</trkpt>
<trkpt lat="45.8434450" lon="9.3210930">
	<ele>1270.60</ele>
	<time>2024-03-25T10:40:54.000Z</time>
</trkpt>
<trkpt lat="45.8434440" lon="9.3210940">
	<ele>1270.40</ele>
	<time>2024-03-25T10:40:55.000Z</time>
</trkpt>
<trkpt lat="45.8434440" lon="9.3210940">
	<ele>1270.40</ele>
	<time>2024-03-25T10:40:56.000Z</time>
</trkpt>
<trkpt lat="45.8434440" lon="9.3210950">
	<ele>1270.40</ele>
	<time>2024-03-25T10:40:57.000Z</time>
</trkpt>
<trkpt lat="45.8434430" lon="9.3210950">
	<ele>1270.40</ele>
	<time>2024-03-25T10:40:58.000Z</time>
</trkpt>
<trkpt lat="45.8434430" lon="9.3210980">
	<ele>1270.40</ele>
	<time>2024-03-25T10:40:59.000Z</time>
</trkpt>
<trkpt lat="45.8434430" lon="9.3210980">
	<ele>1270.40</ele>
	<time>2024-03-25T10:41:00.000Z</time>
</trkpt>
<trkpt lat="45.8434430" lon="9.3210990">
	<ele>1270.40</ele>
	<time>2024-03-25T10:41:01.000Z</time>
</trkpt>
<trkpt lat="45.8434430" lon="9.3210990">
	<ele>1270.40</ele>
	<time>2024-03-25T10:41:02.000Z</time>
</trkpt>
<trkpt lat="45.8434430" lon="9.3211000">
	<ele>1270.40</ele>
	<time>2024-03-25T10:41:03.000Z</time>
</trkpt>
<trkpt lat="45.8434420" lon="9.3211000">
	<ele>1270.40</ele>
	<time>2024-03-25T10:41:04.000Z</time>
</trkpt>
<trkpt lat="45.8434420" lon="9.3211000">
	<ele>1270.40</ele>
	<time>2024-03-25T10:41:05.000Z</time>
</trkpt>
<trkpt lat="45.8434420" lon="9.3211000">
	<ele>1270.40</ele>
	<time>2024-03-25T10:41:06.000Z</time>
</trkpt>
<trkpt lat="45.8434420" lon="9.3211000">
	<ele>1270.40</ele>
	<time>2024-03-25T10:41:07.000Z</time>
</trkpt>
<trkpt lat="45.8434420" lon="9.3211000">
	<ele>1270.40</ele>
	<time>2024-03-25T10:41:08.000Z</time>
</trkpt>
<trkpt lat="45.8434400" lon="9.3211000">
	<ele>1270.40</ele>
	<time>2024-03-25T10:41:09.000Z</time>
</trkpt>
<trkpt lat="45.8434380" lon="9.3211000">
	<ele>1270.40</ele>
	<time>2024-03-25T10:41:10.000Z</time>
</trkpt>
<trkpt lat="45.8434360" lon="9.3211000">
	<ele>1270.40</ele>
	<time>2024-03-25T10:41:11.000Z</time>
</trkpt>
<trkpt lat="45.8434360" lon="9.3211000">
	<ele>1270.40</ele>
	<time>2024-03-25T10:41:12.000Z</time>
</trkpt>
<trkpt lat="45.8434350" lon="9.3211000">
	<ele>1270.40</ele>
	<time>2024-03-25T10:41:13.000Z</time>
</trkpt>
<trkpt lat="45.8434350" lon="9.3211000">
	<ele>1270.40</ele>
	<time>2024-03-25T10:41:14.000Z</time>
</trkpt>
<trkpt lat="45.8434350" lon="9.3211000">
	<ele>1270.40</ele>
	<time>2024-03-25T10:41:15.000Z</time>
</trkpt>
<trkpt lat="45.8434350" lon="9.3211000">
	<ele>1270.40</ele>
	<time>2024-03-25T10:41:16.000Z</time>
</trkpt>
<trkpt lat="45.8434320" lon="9.3210920">
	<ele>1270.40</ele>
	<time>2024-03-25T10:41:17.000Z</time>
</trkpt>
<trkpt lat="45.8434260" lon="9.3210760">
	<ele>1270.40</ele>
	<time>2024-03-25T10:41:18.000Z</time>
</trkpt>
<trkpt lat="45.8434250" lon="9.3210620">
	<ele>1270.40</ele>
	<time>2024-03-25T10:41:19.000Z</time>
</trkpt>
<trkpt lat="45.8434220" lon="9.3210480">
	<ele>1270.40</ele>
	<time>2024-03-25T10:41:20.000Z</time>
</trkpt>
<trkpt lat="45.8434180" lon="9.3210330">
	<ele>1270.40</ele>
	<time>2024-03-25T10:41:21.000Z</time>
</trkpt>
<trkpt lat="45.8434160" lon="9.3210150">
	<ele>1270.40</ele>
	<time>2024-03-25T10:41:22.000Z</time>
</trkpt>
<trkpt lat="45.8434150" lon="9.3210000">
	<ele>1270.40</ele>
	<time>2024-03-25T10:41:23.000Z</time>
</trkpt>
<trkpt lat="45.8434150" lon="9.3209880">
	<ele>1270.40</ele>
	<time>2024-03-25T10:41:24.000Z</time>
</trkpt>
<trkpt lat="45.8434160" lon="9.3209720">
	<ele>1270.40</ele>
	<time>2024-03-25T10:41:25.000Z</time>
</trkpt>
<trkpt lat="45.8434140" lon="9.3209550">
	<ele>1270.40</ele>
	<time>2024-03-25T10:41:26.000Z</time>
</trkpt>
<trkpt lat="45.8434160" lon="9.3209470">
	<ele>1270.40</ele>
	<time>2024-03-25T10:41:27.000Z</time>
</trkpt>
<trkpt lat="45.8434170" lon="9.3209360">
	<ele>1270.40</ele>
	<time>2024-03-25T10:41:28.000Z</time>
</trkpt>
<trkpt lat="45.8434170" lon="9.3209250">
	<ele>1270.40</ele>
	<time>2024-03-25T10:41:29.000Z</time>
</trkpt>
<trkpt lat="45.8434160" lon="9.3209210">
	<ele>1270.40</ele>
	<time>2024-03-25T10:41:30.000Z</time>
</trkpt>
<trkpt lat="45.8434170" lon="9.3209200">
	<ele>1270.40</ele>
	<time>2024-03-25T10:41:31.000Z</time>
</trkpt>
<trkpt lat="45.8434180" lon="9.3209210">
	<ele>1270.40</ele>
	<time>2024-03-25T10:41:32.000Z</time>
</trkpt>
<trkpt lat="45.8434190" lon="9.3209210">
	<ele>1270.40</ele>
	<time>2024-03-25T10:41:33.000Z</time>
</trkpt>
<trkpt lat="45.8434190" lon="9.3209210">
	<ele>1270.40</ele>
	<time>2024-03-25T10:41:34.000Z</time>
</trkpt>
<trkpt lat="45.8434180" lon="9.3209210">
	<ele>1270.40</ele>
	<time>2024-03-25T10:41:35.000Z</time>
</trkpt>
<trkpt lat="45.8434170" lon="9.3209210">
	<ele>1270.40</ele>
	<time>2024-03-25T10:41:36.000Z</time>
</trkpt>
<trkpt lat="45.8434150" lon="9.3209210">
	<ele>1270.40</ele>
	<time>2024-03-25T10:41:37.000Z</time>
</trkpt>
<trkpt lat="45.8434140" lon="9.3209190">
	<ele>1270.40</ele>
	<time>2024-03-25T10:41:38.000Z</time>
</trkpt>
<trkpt lat="45.8434140" lon="9.3209180">
	<ele>1270.40</ele>
	<time>2024-03-25T10:41:39.000Z</time>
</trkpt>
<trkpt lat="45.8434140" lon="9.3209180">
	<ele>1270.40</ele>
	<time>2024-03-25T10:41:40.000Z</time>
</trkpt>
<trkpt lat="45.8434140" lon="9.3209180">
	<ele>1270.40</ele>
	<time>2024-03-25T10:41:41.000Z</time>
</trkpt>
<trkpt lat="45.8434140" lon="9.3209180">
	<ele>1270.40</ele>
	<time>2024-03-25T10:41:42.000Z</time>
</trkpt>
<trkpt lat="45.8434140" lon="9.3209180">
	<ele>1270.40</ele>
	<time>2024-03-25T10:41:43.000Z</time>
</trkpt>
<trkpt lat="45.8434140" lon="9.3209180">
	<ele>1270.40</ele>
	<time>2024-03-25T10:41:44.000Z</time>
</trkpt>
<trkpt lat="45.8434140" lon="9.3209180">
	<ele>1270.40</ele>
	<time>2024-03-25T10:41:45.000Z</time>
</trkpt>
<trkpt lat="45.8434140" lon="9.3209180">
	<ele>1270.40</ele>
	<time>2024-03-25T10:41:46.000Z</time>
</trkpt>
<trkpt lat="45.8434140" lon="9.3209180">
	<ele>1270.40</ele>
	<time>2024-03-25T10:41:47.000Z</time>
</trkpt>
<trkpt lat="45.8434150" lon="9.3209180">
	<ele>1270.40</ele>
	<time>2024-03-25T10:41:48.000Z</time>
</trkpt>
<trkpt lat="45.8434150" lon="9.3209180">
	<ele>1270.40</ele>
	<time>2024-03-25T10:41:49.000Z</time>
</trkpt>
<trkpt lat="45.8434160" lon="9.3209180">
	<ele>1270.40</ele>
	<time>2024-03-25T10:41:50.000Z</time>
</trkpt>
<trkpt lat="45.8434160" lon="9.3209180">
	<ele>1270.40</ele>
	<time>2024-03-25T10:41:51.000Z</time>
</trkpt>
<trkpt lat="45.8434170" lon="9.3209190">
	<ele>1270.40</ele>
	<time>2024-03-25T10:41:52.000Z</time>
</trkpt>
<trkpt lat="45.8434170" lon="9.3209190">
	<ele>1270.40</ele>
	<time>2024-03-25T10:41:53.000Z</time>
</trkpt>
<trkpt lat="45.8434170" lon="9.3209200">
	<ele>1270.40</ele>
	<time>2024-03-25T10:41:54.000Z</time>
</trkpt>
<trkpt lat="45.8434170" lon="9.3209200">
	<ele>1270.40</ele>
	<time>2024-03-25T10:41:55.000Z</time>
</trkpt>
<trkpt lat="45.8434170" lon="9.3209200">
	<ele>1270.40</ele>
	<time>2024-03-25T10:41:56.000Z</time>
</trkpt>
<trkpt lat="45.8434170" lon="9.3209200">
	<ele>1270.40</ele>
	<time>2024-03-25T10:41:57.000Z</time>
</trkpt>
<trkpt lat="45.8434180" lon="9.3209200">
	<ele>1270.40</ele>
	<time>2024-03-25T10:41:58.000Z</time>
</trkpt>
<trkpt lat="45.8434180" lon="9.3209200">
	<ele>1270.40</ele>
	<time>2024-03-25T10:41:59.000Z</time>
</trkpt>
<trkpt lat="45.8434190" lon="9.3209200">
	<ele>1270.40</ele>
	<time>2024-03-25T10:42:00.000Z</time>
</trkpt>
<trkpt lat="45.8434190" lon="9.3209190">
	<ele>1270.40</ele>
	<time>2024-03-25T10:42:01.000Z</time>
</trkpt>
<trkpt lat="45.8434200" lon="9.3209190">
	<ele>1270.40</ele>
	<time>2024-03-25T10:42:02.000Z</time>
</trkpt>
<trkpt lat="45.8434200" lon="9.3209180">
	<ele>1270.40</ele>
	<time>2024-03-25T10:42:03.000Z</time>
</trkpt>
<trkpt lat="45.8434210" lon="9.3209180">
	<ele>1270.40</ele>
	<time>2024-03-25T10:42:04.000Z</time>
</trkpt>
<trkpt lat="45.8434210" lon="9.3209170">
	<ele>1270.40</ele>
	<time>2024-03-25T10:42:05.000Z</time>
</trkpt>
<trkpt lat="45.8434210" lon="9.3209170">
	<ele>1270.40</ele>
	<time>2024-03-25T10:42:06.000Z</time>
</trkpt>
<trkpt lat="45.8434210" lon="9.3209150">
	<ele>1270.40</ele>
	<time>2024-03-25T10:42:07.000Z</time>
</trkpt>
<trkpt lat="45.8434210" lon="9.3209150">
	<ele>1270.40</ele>
	<time>2024-03-25T10:42:08.000Z</time>
</trkpt>
<trkpt lat="45.8434210" lon="9.3209150">
	<ele>1270.40</ele>
	<time>2024-03-25T10:42:09.000Z</time>
</trkpt>
<trkpt lat="45.8434220" lon="9.3209150">
	<ele>1270.40</ele>
	<time>2024-03-25T10:42:10.000Z</time>
</trkpt>
<trkpt lat="45.8434220" lon="9.3209120">
	<ele>1270.40</ele>
	<time>2024-03-25T10:42:11.000Z</time>
</trkpt>
<trkpt lat="45.8434220" lon="9.3209050">
	<ele>1270.40</ele>
	<time>2024-03-25T10:42:12.000Z</time>
</trkpt>
<trkpt lat="45.8434220" lon="9.3208980">
	<ele>1270.40</ele>
	<time>2024-03-25T10:42:13.000Z</time>
</trkpt>
<trkpt lat="45.8434240" lon="9.3208930">
	<ele>1270.40</ele>
	<time>2024-03-25T10:42:14.000Z</time>
</trkpt>
<trkpt lat="45.8434250" lon="9.3208900">
	<ele>1270.40</ele>
	<time>2024-03-25T10:42:15.000Z</time>
</trkpt>
<trkpt lat="45.8434260" lon="9.3208900">
	<ele>1270.40</ele>
	<time>2024-03-25T10:42:16.000Z</time>
</trkpt>
<trkpt lat="45.8434270" lon="9.3208900">
	<ele>1270.40</ele>
	<time>2024-03-25T10:42:17.000Z</time>
</trkpt>
<trkpt lat="45.8434270" lon="9.3208900">
	<ele>1270.40</ele>
	<time>2024-03-25T10:42:18.000Z</time>
</trkpt>
<trkpt lat="45.8434270" lon="9.3208900">
	<ele>1270.40</ele>
	<time>2024-03-25T10:42:19.000Z</time>
</trkpt>
<trkpt lat="45.8434270" lon="9.3208900">
	<ele>1270.40</ele>
	<time>2024-03-25T10:42:20.000Z</time>
</trkpt>
<trkpt lat="45.8434270" lon="9.3208900">
	<ele>1270.40</ele>
	<time>2024-03-25T10:42:21.000Z</time>
</trkpt>
<trkpt lat="45.8434270" lon="9.3208900">
	<ele>1270.40</ele>
	<time>2024-03-25T10:42:22.000Z</time>
</trkpt>
<trkpt lat="45.8434270" lon="9.3208900">
	<ele>1270.40</ele>
	<time>2024-03-25T10:42:23.000Z</time>
</trkpt>
<trkpt lat="45.8434270" lon="9.3208900">
	<ele>1270.40</ele>
	<time>2024-03-25T10:42:24.000Z</time>
</trkpt>
<trkpt lat="45.8434270" lon="9.3208900">
	<ele>1270.40</ele>
	<time>2024-03-25T10:42:25.000Z</time>
</trkpt>
<trkpt lat="45.8434270" lon="9.3208900">
	<ele>1270.40</ele>
	<time>2024-03-25T10:42:26.000Z</time>
</trkpt>
<trkpt lat="45.8434270" lon="9.3208900">
	<ele>1270.40</ele>
	<time>2024-03-25T10:42:27.000Z</time>
</trkpt>
<trkpt lat="45.8434270" lon="9.3208900">
	<ele>1270.40</ele>
	<time>2024-03-25T10:42:28.000Z</time>
</trkpt>
<trkpt lat="45.8434270" lon="9.3208890">
	<ele>1270.40</ele>
	<time>2024-03-25T10:42:29.000Z</time>
</trkpt>
<trkpt lat="45.8434270" lon="9.3208880">
	<ele>1270.40</ele>
	<time>2024-03-25T10:42:30.000Z</time>
</trkpt>
<trkpt lat="45.8434270" lon="9.3208880">
	<ele>1270.40</ele>
	<time>2024-03-25T10:42:31.000Z</time>
</trkpt>
<trkpt lat="45.8434270" lon="9.3208880">
	<ele>1270.40</ele>
	<time>2024-03-25T10:42:32.000Z</time>
</trkpt>
<trkpt lat="45.8434270" lon="9.3208880">
	<ele>1270.40</ele>
	<time>2024-03-25T10:42:33.000Z</time>
</trkpt>
<trkpt lat="45.8434270" lon="9.3208880">
	<ele>1270.40</ele>
	<time>2024-03-25T10:42:34.000Z</time>
</trkpt>
<trkpt lat="45.8434260" lon="9.3208880">
	<ele>1270.40</ele>
	<time>2024-03-25T10:42:35.000Z</time>
</trkpt>
<trkpt lat="45.8434260" lon="9.3208880">
	<ele>1270.40</ele>
	<time>2024-03-25T10:42:36.000Z</time>
</trkpt>
<trkpt lat="45.8434260" lon="9.3208880">
	<ele>1270.40</ele>
	<time>2024-03-25T10:42:37.000Z</time>
</trkpt>
<trkpt lat="45.8434260" lon="9.3208880">
	<ele>1270.40</ele>
	<time>2024-03-25T10:42:38.000Z</time>
</trkpt>
<trkpt lat="45.8434260" lon="9.3208880">
	<ele>1270.40</ele>
	<time>2024-03-25T10:42:39.000Z</time>
</trkpt>
<trkpt lat="45.8434260" lon="9.3208880">
	<ele>1270.40</ele>
	<time>2024-03-25T10:42:40.000Z</time>
</trkpt>
<trkpt lat="45.8434250" lon="9.3208890">
	<ele>1270.40</ele>
	<time>2024-03-25T10:42:41.000Z</time>
</trkpt>
<trkpt lat="45.8434250" lon="9.3208900">
	<ele>1270.40</ele>
	<time>2024-03-25T10:42:42.000Z</time>
</trkpt>
<trkpt lat="45.8434250" lon="9.3208900">
	<ele>1270.40</ele>
	<time>2024-03-25T10:42:43.000Z</time>
</trkpt>
<trkpt lat="45.8434250" lon="9.3208910">
	<ele>1270.40</ele>
	<time>2024-03-25T10:42:44.000Z</time>
</trkpt>
<trkpt lat="45.8434240" lon="9.3208920">
	<ele>1270.40</ele>
	<time>2024-03-25T10:42:45.000Z</time>
</trkpt>
<trkpt lat="45.8434240" lon="9.3208920">
	<ele>1270.40</ele>
	<time>2024-03-25T10:42:46.000Z</time>
</trkpt>
<trkpt lat="45.8434240" lon="9.3208920">
	<ele>1270.40</ele>
	<time>2024-03-25T10:42:47.000Z</time>
</trkpt>
<trkpt lat="45.8434240" lon="9.3208920">
	<ele>1270.40</ele>
	<time>2024-03-25T10:42:48.000Z</time>
</trkpt>
<trkpt lat="45.8434230" lon="9.3208930">
	<ele>1270.40</ele>
	<time>2024-03-25T10:42:49.000Z</time>
</trkpt>
<trkpt lat="45.8434230" lon="9.3208930">
	<ele>1270.40</ele>
	<time>2024-03-25T10:42:50.000Z</time>
</trkpt>
<trkpt lat="45.8434230" lon="9.3208930">
	<ele>1270.40</ele>
	<time>2024-03-25T10:42:51.000Z</time>
</trkpt>
<trkpt lat="45.8434230" lon="9.3208930">
	<ele>1270.40</ele>
	<time>2024-03-25T10:42:52.000Z</time>
</trkpt>
<trkpt lat="45.8434220" lon="9.3208930">
	<ele>1270.40</ele>
	<time>2024-03-25T10:42:53.000Z</time>
</trkpt>
<trkpt lat="45.8434220" lon="9.3208930">
	<ele>1270.40</ele>
	<time>2024-03-25T10:42:54.000Z</time>
</trkpt>
<trkpt lat="45.8434220" lon="9.3208930">
	<ele>1270.40</ele>
	<time>2024-03-25T10:42:55.000Z</time>
</trkpt>
<trkpt lat="45.8434220" lon="9.3208930">
	<ele>1270.40</ele>
	<time>2024-03-25T10:42:56.000Z</time>
</trkpt>
<trkpt lat="45.8434220" lon="9.3208940">
	<ele>1270.40</ele>
	<time>2024-03-25T10:42:57.000Z</time>
</trkpt>
<trkpt lat="45.8434220" lon="9.3208960">
	<ele>1270.40</ele>
	<time>2024-03-25T10:42:58.000Z</time>
</trkpt>
<trkpt lat="45.8434220" lon="9.3208970">
	<ele>1270.40</ele>
	<time>2024-03-25T10:42:59.000Z</time>
</trkpt>
<trkpt lat="45.8434220" lon="9.3208980">
	<ele>1270.40</ele>
	<time>2024-03-25T10:43:00.000Z</time>
</trkpt>
<trkpt lat="45.8434220" lon="9.3208990">
	<ele>1270.40</ele>
	<time>2024-03-25T10:43:01.000Z</time>
</trkpt>
<trkpt lat="45.8434220" lon="9.3208990">
	<ele>1270.40</ele>
	<time>2024-03-25T10:43:02.000Z</time>
</trkpt>
<trkpt lat="45.8434220" lon="9.3208990">
	<ele>1270.40</ele>
	<time>2024-03-25T10:43:03.000Z</time>
</trkpt>
<trkpt lat="45.8434220" lon="9.3208990">
	<ele>1270.40</ele>
	<time>2024-03-25T10:43:04.000Z</time>
</trkpt>
<trkpt lat="45.8434220" lon="9.3208990">
	<ele>1270.40</ele>
	<time>2024-03-25T10:43:05.000Z</time>
</trkpt>
<trkpt lat="45.8434220" lon="9.3208990">
	<ele>1270.40</ele>
	<time>2024-03-25T10:43:06.000Z</time>
</trkpt>
<trkpt lat="45.8434210" lon="9.3209000">
	<ele>1270.40</ele>
	<time>2024-03-25T10:43:07.000Z</time>
</trkpt>
<trkpt lat="45.8434210" lon="9.3209000">
	<ele>1270.40</ele>
	<time>2024-03-25T10:43:08.000Z</time>
</trkpt>
<trkpt lat="45.8434200" lon="9.3209000">
	<ele>1270.40</ele>
	<time>2024-03-25T10:43:09.000Z</time>
</trkpt>
<trkpt lat="45.8434200" lon="9.3209000">
	<ele>1270.40</ele>
	<time>2024-03-25T10:43:10.000Z</time>
</trkpt>
<trkpt lat="45.8434190" lon="9.3209000">
	<ele>1270.40</ele>
	<time>2024-03-25T10:43:11.000Z</time>
</trkpt>
<trkpt lat="45.8434190" lon="9.3209010">
	<ele>1270.40</ele>
	<time>2024-03-25T10:43:12.000Z</time>
</trkpt>
<trkpt lat="45.8434190" lon="9.3209010">
	<ele>1270.40</ele>
	<time>2024-03-25T10:43:13.000Z</time>
</trkpt>
<trkpt lat="45.8434190" lon="9.3209010">
	<ele>1270.40</ele>
	<time>2024-03-25T10:43:14.000Z</time>
</trkpt>
<trkpt lat="45.8434190" lon="9.3209010">
	<ele>1270.40</ele>
	<time>2024-03-25T10:43:15.000Z</time>
</trkpt>
<trkpt lat="45.8434190" lon="9.3209010">
	<ele>1270.40</ele>
	<time>2024-03-25T10:43:16.000Z</time>
</trkpt>
<trkpt lat="45.8434190" lon="9.3209010">
	<ele>1270.40</ele>
	<time>2024-03-25T10:43:17.000Z</time>
</trkpt>
<trkpt lat="45.8434190" lon="9.3209010">
	<ele>1270.40</ele>
	<time>2024-03-25T10:43:18.000Z</time>
</trkpt>
<trkpt lat="45.8434190" lon="9.3209020">
	<ele>1270.40</ele>
	<time>2024-03-25T10:43:19.000Z</time>
</trkpt>
<trkpt lat="45.8434190" lon="9.3209040">
	<ele>1270.40</ele>
	<time>2024-03-25T10:43:20.000Z</time>
</trkpt>
<trkpt lat="45.8434190" lon="9.3209080">
	<ele>1270.40</ele>
	<time>2024-03-25T10:43:21.000Z</time>
</trkpt>
<trkpt lat="45.8434190" lon="9.3209130">
	<ele>1270.40</ele>
	<time>2024-03-25T10:43:22.000Z</time>
</trkpt>
<trkpt lat="45.8434190" lon="9.3209180">
	<ele>1270.40</ele>
	<time>2024-03-25T10:43:23.000Z</time>
</trkpt>
<trkpt lat="45.8434190" lon="9.3209220">
	<ele>1270.40</ele>
	<time>2024-03-25T10:43:24.000Z</time>
</trkpt>
<trkpt lat="45.8434190" lon="9.3209270">
	<ele>1270.40</ele>
	<time>2024-03-25T10:43:25.000Z</time>
</trkpt>
<trkpt lat="45.8434190" lon="9.3209340">
	<ele>1270.40</ele>
	<time>2024-03-25T10:43:26.000Z</time>
</trkpt>
<trkpt lat="45.8434190" lon="9.3209410">
	<ele>1270.40</ele>
	<time>2024-03-25T10:43:27.000Z</time>
</trkpt>
<trkpt lat="45.8434180" lon="9.3209480">
	<ele>1270.40</ele>
	<time>2024-03-25T10:43:28.000Z</time>
</trkpt>
<trkpt lat="45.8434180" lon="9.3209540">
	<ele>1270.40</ele>
	<time>2024-03-25T10:43:29.000Z</time>
</trkpt>
<trkpt lat="45.8434180" lon="9.3209630">
	<ele>1270.40</ele>
	<time>2024-03-25T10:43:30.000Z</time>
</trkpt>
<trkpt lat="45.8434180" lon="9.3209700">
	<ele>1270.40</ele>
	<time>2024-03-25T10:43:31.000Z</time>
</trkpt>
<trkpt lat="45.8434170" lon="9.3209770">
	<ele>1270.40</ele>
	<time>2024-03-25T10:43:32.000Z</time>
</trkpt>
<trkpt lat="45.8434160" lon="9.3209850">
	<ele>1270.40</ele>
	<time>2024-03-25T10:43:33.000Z</time>
</trkpt>
<trkpt lat="45.8434160" lon="9.3209930">
	<ele>1270.40</ele>
	<time>2024-03-25T10:43:34.000Z</time>
</trkpt>
<trkpt lat="45.8434150" lon="9.3210010">
	<ele>1270.40</ele>
	<time>2024-03-25T10:43:35.000Z</time>
</trkpt>
<trkpt lat="45.8434150" lon="9.3210090">
	<ele>1270.40</ele>
	<time>2024-03-25T10:43:36.000Z</time>
</trkpt>
<trkpt lat="45.8434150" lon="9.3210170">
	<ele>1270.40</ele>
	<time>2024-03-25T10:43:37.000Z</time>
</trkpt>
<trkpt lat="45.8434150" lon="9.3210250">
	<ele>1270.40</ele>
	<time>2024-03-25T10:43:38.000Z</time>
</trkpt>
<trkpt lat="45.8434130" lon="9.3210320">
	<ele>1270.40</ele>
	<time>2024-03-25T10:43:39.000Z</time>
</trkpt>
<trkpt lat="45.8434100" lon="9.3210390">
	<ele>1270.40</ele>
	<time>2024-03-25T10:43:40.000Z</time>
</trkpt>
<trkpt lat="45.8434070" lon="9.3210440">
	<ele>1270.40</ele>
	<time>2024-03-25T10:43:41.000Z</time>
</trkpt>
<trkpt lat="45.8434040" lon="9.3210480">
	<ele>1270.40</ele>
	<time>2024-03-25T10:43:42.000Z</time>
</trkpt>
<trkpt lat="45.8434000" lon="9.3210530">
	<ele>1270.40</ele>
	<time>2024-03-25T10:43:43.000Z</time>
</trkpt>
<trkpt lat="45.8433950" lon="9.3210560">
	<ele>1270.40</ele>
	<time>2024-03-25T10:43:44.000Z</time>
</trkpt>
<trkpt lat="45.8433890" lon="9.3210580">
	<ele>1270.40</ele>
	<time>2024-03-25T10:43:45.000Z</time>
</trkpt>
<trkpt lat="45.8433830" lon="9.3210600">
	<ele>1270.40</ele>
	<time>2024-03-25T10:43:46.000Z</time>
</trkpt>
<trkpt lat="45.8433760" lon="9.3210610">
	<ele>1270.40</ele>
	<time>2024-03-25T10:43:47.000Z</time>
</trkpt>
<trkpt lat="45.8433700" lon="9.3210620">
	<ele>1270.40</ele>
	<time>2024-03-25T10:43:48.000Z</time>
</trkpt>
<trkpt lat="45.8433640" lon="9.3210630">
	<ele>1270.40</ele>
	<time>2024-03-25T10:43:49.000Z</time>
</trkpt>
<trkpt lat="45.8433580" lon="9.3210630">
	<ele>1270.40</ele>
	<time>2024-03-25T10:43:50.000Z</time>
</trkpt>
<trkpt lat="45.8433520" lon="9.3210640">
	<ele>1270.40</ele>
	<time>2024-03-25T10:43:51.000Z</time>
</trkpt>
<trkpt lat="45.8433460" lon="9.3210650">
	<ele>1270.40</ele>
	<time>2024-03-25T10:43:52.000Z</time>
</trkpt>
<trkpt lat="45.8433410" lon="9.3210680">
	<ele>1270.40</ele>
	<time>2024-03-25T10:43:53.000Z</time>
</trkpt>
<trkpt lat="45.8433380" lon="9.3210720">
	<ele>1270.40</ele>
	<time>2024-03-25T10:43:54.000Z</time>
</trkpt>
<trkpt lat="45.8433350" lon="9.3210760">
	<ele>1270.40</ele>
	<time>2024-03-25T10:43:55.000Z</time>
</trkpt>
<trkpt lat="45.8433340" lon="9.3210800">
	<ele>1270.40</ele>
	<time>2024-03-25T10:43:56.000Z</time>
</trkpt>
<trkpt lat="45.8433330" lon="9.3210830">
	<ele>1270.40</ele>
	<time>2024-03-25T10:43:57.000Z</time>
</trkpt>
<trkpt lat="45.8433320" lon="9.3210850">
	<ele>1270.40</ele>
	<time>2024-03-25T10:43:58.000Z</time>
</trkpt>
<trkpt lat="45.8433320" lon="9.3210860">
	<ele>1270.40</ele>
	<time>2024-03-25T10:43:59.000Z</time>
</trkpt>
<trkpt lat="45.8433320" lon="9.3210870">
	<ele>1270.40</ele>
	<time>2024-03-25T10:44:00.000Z</time>
</trkpt>
<trkpt lat="45.8433310" lon="9.3210880">
	<ele>1270.40</ele>
	<time>2024-03-25T10:44:01.000Z</time>
</trkpt>
<trkpt lat="45.8433310" lon="9.3210880">
	<ele>1270.40</ele>
	<time>2024-03-25T10:44:02.000Z</time>
</trkpt>
<trkpt lat="45.8433310" lon="9.3210890">
	<ele>1270.40</ele>
	<time>2024-03-25T10:44:03.000Z</time>
</trkpt>
<trkpt lat="45.8433310" lon="9.3210890">
	<ele>1270.40</ele>
	<time>2024-03-25T10:44:04.000Z</time>
</trkpt>
<trkpt lat="45.8433310" lon="9.3210890">
	<ele>1270.40</ele>
	<time>2024-03-25T10:44:05.000Z</time>
</trkpt>
<trkpt lat="45.8433310" lon="9.3210900">
	<ele>1270.40</ele>
	<time>2024-03-25T10:44:06.000Z</time>
</trkpt>
<trkpt lat="45.8433310" lon="9.3210900">
	<ele>1270.40</ele>
	<time>2024-03-25T10:44:07.000Z</time>
</trkpt>
<trkpt lat="45.8433340" lon="9.3210980">
	<ele>1270.40</ele>
	<time>2024-03-25T10:44:08.000Z</time>
</trkpt>
<trkpt lat="45.8433400" lon="9.3211150">
	<ele>1270.40</ele>
	<time>2024-03-25T10:44:09.000Z</time>
</trkpt>
<trkpt lat="45.8433440" lon="9.3211300">
	<ele>1270.40</ele>
	<time>2024-03-25T10:44:10.000Z</time>
</trkpt>
<trkpt lat="45.8433470" lon="9.3211420">
	<ele>1270.40</ele>
	<time>2024-03-25T10:44:11.000Z</time>
</trkpt>
<trkpt lat="45.8433500" lon="9.3211520">
	<ele>1270.40</ele>
	<time>2024-03-25T10:44:12.000Z</time>
</trkpt>
<trkpt lat="45.8433520" lon="9.3211610">
	<ele>1270.40</ele>
	<time>2024-03-25T10:44:13.000Z</time>
</trkpt>
<trkpt lat="45.8433550" lon="9.3211680">
	<ele>1270.40</ele>
	<time>2024-03-25T10:44:14.000Z</time>
</trkpt>
<trkpt lat="45.8433590" lon="9.3211740">
	<ele>1270.40</ele>
	<time>2024-03-25T10:44:15.000Z</time>
</trkpt>
<trkpt lat="45.8433610" lon="9.3211780">
	<ele>1270.40</ele>
	<time>2024-03-25T10:44:16.000Z</time>
</trkpt>
<trkpt lat="45.8433650" lon="9.3211820">
	<ele>1270.40</ele>
	<time>2024-03-25T10:44:17.000Z</time>
</trkpt>
<trkpt lat="45.8433670" lon="9.3211750">
	<ele>1270.40</ele>
	<time>2024-03-25T10:44:18.000Z</time>
</trkpt>
<trkpt lat="45.8433700" lon="9.3211640">
	<ele>1270.40</ele>
	<time>2024-03-25T10:44:19.000Z</time>
</trkpt>
<trkpt lat="45.8433710" lon="9.3211510">
	<ele>1270.40</ele>
	<time>2024-03-25T10:44:20.000Z</time>
</trkpt>
<trkpt lat="45.8433720" lon="9.3211400">
	<ele>1270.40</ele>
	<time>2024-03-25T10:44:21.000Z</time>
</trkpt>
<trkpt lat="45.8433710" lon="9.3211270">
	<ele>1270.40</ele>
	<time>2024-03-25T10:44:22.000Z</time>
</trkpt>
<trkpt lat="45.8433740" lon="9.3211160">
	<ele>1270.40</ele>
	<time>2024-03-25T10:44:23.000Z</time>
</trkpt>
<trkpt lat="45.8433770" lon="9.3211050">
	<ele>1270.40</ele>
	<time>2024-03-25T10:44:24.000Z</time>
</trkpt>
<trkpt lat="45.8433810" lon="9.3210960">
	<ele>1270.40</ele>
	<time>2024-03-25T10:44:25.000Z</time>
</trkpt>
<trkpt lat="45.8433850" lon="9.3210860">
	<ele>1270.40</ele>
	<time>2024-03-25T10:44:26.000Z</time>
</trkpt>
<trkpt lat="45.8433870" lon="9.3210740">
	<ele>1270.40</ele>
	<time>2024-03-25T10:44:27.000Z</time>
</trkpt>
<trkpt lat="45.8433890" lon="9.3210600">
	<ele>1270.40</ele>
	<time>2024-03-25T10:44:28.000Z</time>
</trkpt>
<trkpt lat="45.8433890" lon="9.3210490">
	<ele>1270.40</ele>
	<time>2024-03-25T10:44:29.000Z</time>
</trkpt>
<trkpt lat="45.8433880" lon="9.3210450">
	<ele>1270.40</ele>
	<time>2024-03-25T10:44:30.000Z</time>
</trkpt>
<trkpt lat="45.8433880" lon="9.3210440">
	<ele>1270.40</ele>
	<time>2024-03-25T10:44:31.000Z</time>
</trkpt>
<trkpt lat="45.8433880" lon="9.3210420">
	<ele>1270.40</ele>
	<time>2024-03-25T10:44:32.000Z</time>
</trkpt>
<trkpt lat="45.8433890" lon="9.3210420">
	<ele>1270.40</ele>
	<time>2024-03-25T10:44:33.000Z</time>
</trkpt>
<trkpt lat="45.8433900" lon="9.3210400">
	<ele>1270.40</ele>
	<time>2024-03-25T10:44:34.000Z</time>
</trkpt>
<trkpt lat="45.8433910" lon="9.3210380">
	<ele>1270.40</ele>
	<time>2024-03-25T10:44:35.000Z</time>
</trkpt>
<trkpt lat="45.8433900" lon="9.3210360">
	<ele>1270.40</ele>
	<time>2024-03-25T10:44:36.000Z</time>
</trkpt>
<trkpt lat="45.8433900" lon="9.3210350">
	<ele>1270.40</ele>
	<time>2024-03-25T10:44:37.000Z</time>
</trkpt>
<trkpt lat="45.8433910" lon="9.3210360">
	<ele>1270.40</ele>
	<time>2024-03-25T10:44:38.000Z</time>
</trkpt>
<trkpt lat="45.8433910" lon="9.3210370">
	<ele>1270.40</ele>
	<time>2024-03-25T10:44:39.000Z</time>
</trkpt>
<trkpt lat="45.8433910" lon="9.3210360">
	<ele>1270.40</ele>
	<time>2024-03-25T10:44:40.000Z</time>
</trkpt>
<trkpt lat="45.8433910" lon="9.3210340">
	<ele>1270.40</ele>
	<time>2024-03-25T10:44:41.000Z</time>
</trkpt>
<trkpt lat="45.8433890" lon="9.3210310">
	<ele>1270.40</ele>
	<time>2024-03-25T10:44:42.000Z</time>
</trkpt>
<trkpt lat="45.8433860" lon="9.3210280">
	<ele>1270.40</ele>
	<time>2024-03-25T10:44:43.000Z</time>
</trkpt>
<trkpt lat="45.8433830" lon="9.3210240">
	<ele>1270.40</ele>
	<time>2024-03-25T10:44:44.000Z</time>
</trkpt>
<trkpt lat="45.8433860" lon="9.3210180">
	<ele>1270.40</ele>
	<time>2024-03-25T10:44:45.000Z</time>
</trkpt>
<trkpt lat="45.8433930" lon="9.3210090">
	<ele>1270.40</ele>
	<time>2024-03-25T10:44:46.000Z</time>
</trkpt>
<trkpt lat="45.8433990" lon="9.3209990">
	<ele>1270.40</ele>
	<time>2024-03-25T10:44:47.000Z</time>
</trkpt>
<trkpt lat="45.8434060" lon="9.3209850">
	<ele>1270.40</ele>
	<time>2024-03-25T10:44:48.000Z</time>
</trkpt>
<trkpt lat="45.8434120" lon="9.3209690">
	<ele>1270.40</ele>
	<time>2024-03-25T10:44:49.000Z</time>
</trkpt>
<trkpt lat="45.8434160" lon="9.3209550">
	<ele>1270.40</ele>
	<time>2024-03-25T10:44:50.000Z</time>
</trkpt>
<trkpt lat="45.8434160" lon="9.3209410">
	<ele>1270.40</ele>
	<time>2024-03-25T10:44:51.000Z</time>
</trkpt>
<trkpt lat="45.8434170" lon="9.3209270">
	<ele>1270.40</ele>
	<time>2024-03-25T10:44:52.000Z</time>
</trkpt>
<trkpt lat="45.8434150" lon="9.3209160">
	<ele>1270.40</ele>
	<time>2024-03-25T10:44:53.000Z</time>
</trkpt>
<trkpt lat="45.8434160" lon="9.3209050">
	<ele>1270.40</ele>
	<time>2024-03-25T10:44:54.000Z</time>
</trkpt>
<trkpt lat="45.8434170" lon="9.3208930">
	<ele>1270.40</ele>
	<time>2024-03-25T10:44:55.000Z</time>
</trkpt>
<trkpt lat="45.8434140" lon="9.3208820">
	<ele>1270.40</ele>
	<time>2024-03-25T10:44:56.000Z</time>
</trkpt>
<trkpt lat="45.8434090" lon="9.3208740">
	<ele>1270.40</ele>
	<time>2024-03-25T10:44:57.000Z</time>
</trkpt>
<trkpt lat="45.8434060" lon="9.3208680">
	<ele>1270.40</ele>
	<time>2024-03-25T10:44:58.000Z</time>
</trkpt>
<trkpt lat="45.8434030" lon="9.3208630">
	<ele>1270.40</ele>
	<time>2024-03-25T10:44:59.000Z</time>
</trkpt>
<trkpt lat="45.8434020" lon="9.3208540">
	<ele>1270.40</ele>
	<time>2024-03-25T10:45:00.000Z</time>
</trkpt>
<trkpt lat="45.8434000" lon="9.3208440">
	<ele>1270.40</ele>
	<time>2024-03-25T10:45:01.000Z</time>
</trkpt>
<trkpt lat="45.8434010" lon="9.3208330">
	<ele>1270.40</ele>
	<time>2024-03-25T10:45:02.000Z</time>
</trkpt>
<trkpt lat="45.8434020" lon="9.3208220">
	<ele>1270.40</ele>
	<time>2024-03-25T10:45:03.000Z</time>
</trkpt>
<trkpt lat="45.8434040" lon="9.3208070">
	<ele>1270.40</ele>
	<time>2024-03-25T10:45:04.000Z</time>
</trkpt>
<trkpt lat="45.8434020" lon="9.3207920">
	<ele>1270.40</ele>
	<time>2024-03-25T10:45:05.000Z</time>
</trkpt>
<trkpt lat="45.8433990" lon="9.3207810">
	<ele>1270.40</ele>
	<time>2024-03-25T10:45:06.000Z</time>
</trkpt>
<trkpt lat="45.8433980" lon="9.3207700">
	<ele>1270.40</ele>
	<time>2024-03-25T10:45:07.000Z</time>
</trkpt>
<trkpt lat="45.8433970" lon="9.3207580">
	<ele>1270.40</ele>
	<time>2024-03-25T10:45:08.000Z</time>
</trkpt>
<trkpt lat="45.8433930" lon="9.3207430">
	<ele>1270.40</ele>
	<time>2024-03-25T10:45:09.000Z</time>
</trkpt>
<trkpt lat="45.8433850" lon="9.3207320">
	<ele>1270.20</ele>
	<time>2024-03-25T10:45:10.000Z</time>
</trkpt>
<trkpt lat="45.8433790" lon="9.3207230">
	<ele>1270.00</ele>
	<time>2024-03-25T10:45:11.000Z</time>
</trkpt>
<trkpt lat="45.8433720" lon="9.3207110">
	<ele>1269.40</ele>
	<time>2024-03-25T10:45:12.000Z</time>
</trkpt>
<trkpt lat="45.8433670" lon="9.3207020">
	<ele>1269.20</ele>
	<time>2024-03-25T10:45:13.000Z</time>
</trkpt>
<trkpt lat="45.8433610" lon="9.3206940">
	<ele>1268.80</ele>
	<time>2024-03-25T10:45:14.000Z</time>
</trkpt>
<trkpt lat="45.8433560" lon="9.3206830">
	<ele>1268.60</ele>
	<time>2024-03-25T10:45:15.000Z</time>
</trkpt>
<trkpt lat="45.8433510" lon="9.3206740">
	<ele>1268.60</ele>
	<time>2024-03-25T10:45:16.000Z</time>
</trkpt>
<trkpt lat="45.8433430" lon="9.3206660">
	<ele>1268.40</ele>
	<time>2024-03-25T10:45:17.000Z</time>
</trkpt>
<trkpt lat="45.8433350" lon="9.3206590">
	<ele>1268.20</ele>
	<time>2024-03-25T10:45:18.000Z</time>
</trkpt>
<trkpt lat="45.8433260" lon="9.3206500">
	<ele>1268.00</ele>
	<time>2024-03-25T10:45:19.000Z</time>
</trkpt>
<trkpt lat="45.8433190" lon="9.3206410">
	<ele>1267.40</ele>
	<time>2024-03-25T10:45:20.000Z</time>
</trkpt>
<trkpt lat="45.8433140" lon="9.3206300">
	<ele>1267.20</ele>
	<time>2024-03-25T10:45:21.000Z</time>
</trkpt>
<trkpt lat="45.8433080" lon="9.3206170">
	<ele>1267.00</ele>
	<time>2024-03-25T10:45:22.000Z</time>
</trkpt>
<trkpt lat="45.8433040" lon="9.3206040">
	<ele>1266.80</ele>
	<time>2024-03-25T10:45:23.000Z</time>
</trkpt>
<trkpt lat="45.8432980" lon="9.3205890">
	<ele>1266.40</ele>
	<time>2024-03-25T10:45:24.000Z</time>
</trkpt>
<trkpt lat="45.8432890" lon="9.3205770">
	<ele>1266.00</ele>
	<time>2024-03-25T10:45:25.000Z</time>
</trkpt>
<trkpt lat="45.8432830" lon="9.3205630">
	<ele>1265.60</ele>
	<time>2024-03-25T10:45:26.000Z</time>
</trkpt>
<trkpt lat="45.8432770" lon="9.3205470">
	<ele>1265.40</ele>
	<time>2024-03-25T10:45:27.000Z</time>
</trkpt>
<trkpt lat="45.8432670" lon="9.3205340">
	<ele>1265.20</ele>
	<time>2024-03-25T10:45:28.000Z</time>
</trkpt>
<trkpt lat="45.8432570" lon="9.3205220">
	<ele>1265.20</ele>
	<time>2024-03-25T10:45:29.000Z</time>
</trkpt>
<trkpt lat="45.8432490" lon="9.3205060">
	<ele>1265.20</ele>
	<time>2024-03-25T10:45:30.000Z</time>
</trkpt>
<trkpt lat="45.8432440" lon="9.3204900">
	<ele>1265.00</ele>
	<time>2024-03-25T10:45:31.000Z</time>
</trkpt>
<trkpt lat="45.8432400" lon="9.3204750">
	<ele>1264.80</ele>
	<time>2024-03-25T10:45:32.000Z</time>
</trkpt>
<trkpt lat="45.8432350" lon="9.3204620">
	<ele>1264.60</ele>
	<time>2024-03-25T10:45:33.000Z</time>
</trkpt>
<trkpt lat="45.8432320" lon="9.3204490">
	<ele>1264.20</ele>
	<time>2024-03-25T10:45:34.000Z</time>
</trkpt>
<trkpt lat="45.8432300" lon="9.3204320">
	<ele>1264.20</ele>
	<time>2024-03-25T10:45:35.000Z</time>
</trkpt>
<trkpt lat="45.8432270" lon="9.3204160">
	<ele>1263.80</ele>
	<time>2024-03-25T10:45:36.000Z</time>
</trkpt>
<trkpt lat="45.8432220" lon="9.3204020">
	<ele>1263.60</ele>
	<time>2024-03-25T10:45:37.000Z</time>
</trkpt>
<trkpt lat="45.8432210" lon="9.3203880">
	<ele>1263.20</ele>
	<time>2024-03-25T10:45:38.000Z</time>
</trkpt>
<trkpt lat="45.8432220" lon="9.3203760">
	<ele>1263.00</ele>
	<time>2024-03-25T10:45:39.000Z</time>
</trkpt>
<trkpt lat="45.8432240" lon="9.3203650">
	<ele>1262.60</ele>
	<time>2024-03-25T10:45:40.000Z</time>
</trkpt>
<trkpt lat="45.8432260" lon="9.3203510">
	<ele>1262.40</ele>
	<time>2024-03-25T10:45:41.000Z</time>
</trkpt>
<trkpt lat="45.8432260" lon="9.3203390">
	<ele>1262.00</ele>
	<time>2024-03-25T10:45:42.000Z</time>
</trkpt>
<trkpt lat="45.8432200" lon="9.3203260">
	<ele>1261.80</ele>
	<time>2024-03-25T10:45:43.000Z</time>
</trkpt>
<trkpt lat="45.8432120" lon="9.3203170">
	<ele>1261.40</ele>
	<time>2024-03-25T10:45:44.000Z</time>
</trkpt>
<trkpt lat="45.8432020" lon="9.3203090">
	<ele>1261.20</ele>
	<time>2024-03-25T10:45:45.000Z</time>
</trkpt>
<trkpt lat="45.8431950" lon="9.3202990">
	<ele>1261.00</ele>
	<time>2024-03-25T10:45:46.000Z</time>
</trkpt>
<trkpt lat="45.8431880" lon="9.3202910">
	<ele>1260.80</ele>
	<time>2024-03-25T10:45:47.000Z</time>
</trkpt>
<trkpt lat="45.8431800" lon="9.3202840">
	<ele>1260.60</ele>
	<time>2024-03-25T10:45:48.000Z</time>
</trkpt>
<trkpt lat="45.8431700" lon="9.3202760">
	<ele>1260.40</ele>
	<time>2024-03-25T10:45:49.000Z</time>
</trkpt>
<trkpt lat="45.8431580" lon="9.3202700">
	<ele>1260.00</ele>
	<time>2024-03-25T10:45:50.000Z</time>
</trkpt>
<trkpt lat="45.8431460" lon="9.3202620">
	<ele>1259.80</ele>
	<time>2024-03-25T10:45:51.000Z</time>
</trkpt>
<trkpt lat="45.8431350" lon="9.3202500">
	<ele>1259.60</ele>
	<time>2024-03-25T10:45:52.000Z</time>
</trkpt>
<trkpt lat="45.8431260" lon="9.3202380">
	<ele>1259.40</ele>
	<time>2024-03-25T10:45:53.000Z</time>
</trkpt>
<trkpt lat="45.8431130" lon="9.3202280">
	<ele>1259.20</ele>
	<time>2024-03-25T10:45:54.000Z</time>
</trkpt>
<trkpt lat="45.8431030" lon="9.3202140">
	<ele>1259.00</ele>
	<time>2024-03-25T10:45:55.000Z</time>
</trkpt>
<trkpt lat="45.8430940" lon="9.3202000">
	<ele>1258.80</ele>
	<time>2024-03-25T10:45:56.000Z</time>
</trkpt>
<trkpt lat="45.8430890" lon="9.3201880">
	<ele>1258.40</ele>
	<time>2024-03-25T10:45:57.000Z</time>
</trkpt>
<trkpt lat="45.8430810" lon="9.3201790">
	<ele>1258.20</ele>
	<time>2024-03-25T10:45:58.000Z</time>
</trkpt>
<trkpt lat="45.8430710" lon="9.3201670">
	<ele>1258.00</ele>
	<time>2024-03-25T10:45:59.000Z</time>
</trkpt>
<trkpt lat="45.8430630" lon="9.3201590">
	<ele>1258.00</ele>
	<time>2024-03-25T10:46:00.000Z</time>
</trkpt>
<trkpt lat="45.8430530" lon="9.3201530">
	<ele>1257.80</ele>
	<time>2024-03-25T10:46:01.000Z</time>
</trkpt>
<trkpt lat="45.8430480" lon="9.3201440">
	<ele>1257.60</ele>
	<time>2024-03-25T10:46:02.000Z</time>
</trkpt>
<trkpt lat="45.8430450" lon="9.3201350">
	<ele>1257.60</ele>
	<time>2024-03-25T10:46:03.000Z</time>
</trkpt>
<trkpt lat="45.8430420" lon="9.3201220">
	<ele>1257.40</ele>
	<time>2024-03-25T10:46:04.000Z</time>
</trkpt>
<trkpt lat="45.8430390" lon="9.3201080">
	<ele>1257.20</ele>
	<time>2024-03-25T10:46:05.000Z</time>
</trkpt>
<trkpt lat="45.8430360" lon="9.3200920">
	<ele>1257.20</ele>
	<time>2024-03-25T10:46:06.000Z</time>
</trkpt>
<trkpt lat="45.8430350" lon="9.3200740">
	<ele>1256.80</ele>
	<time>2024-03-25T10:46:07.000Z</time>
</trkpt>
<trkpt lat="45.8430330" lon="9.3200580">
	<ele>1256.80</ele>
	<time>2024-03-25T10:46:08.000Z</time>
</trkpt>
<trkpt lat="45.8430300" lon="9.3200410">
	<ele>1256.60</ele>
	<time>2024-03-25T10:46:09.000Z</time>
</trkpt>
<trkpt lat="45.8430260" lon="9.3200250">
	<ele>1256.40</ele>
	<time>2024-03-25T10:46:10.000Z</time>
</trkpt>
<trkpt lat="45.8430200" lon="9.3200140">
	<ele>1256.20</ele>
	<time>2024-03-25T10:46:11.000Z</time>
</trkpt>
<trkpt lat="45.8430140" lon="9.3200050">
	<ele>1256.00</ele>
	<time>2024-03-25T10:46:12.000Z</time>
</trkpt>
<trkpt lat="45.8430070" lon="9.3199970">
	<ele>1255.80</ele>
	<time>2024-03-25T10:46:13.000Z</time>
</trkpt>
<trkpt lat="45.8429990" lon="9.3199870">
	<ele>1255.60</ele>
	<time>2024-03-25T10:46:14.000Z</time>
</trkpt>
<trkpt lat="45.8429920" lon="9.3199770">
	<ele>1255.20</ele>
	<time>2024-03-25T10:46:15.000Z</time>
</trkpt>
<trkpt lat="45.8429860" lon="9.3199680">
	<ele>1254.80</ele>
	<time>2024-03-25T10:46:16.000Z</time>
</trkpt>
<trkpt lat="45.8429800" lon="9.3199570">
	<ele>1254.60</ele>
	<time>2024-03-25T10:46:17.000Z</time>
</trkpt>
<trkpt lat="45.8429750" lon="9.3199440">
	<ele>1254.40</ele>
	<time>2024-03-25T10:46:18.000Z</time>
</trkpt>
<trkpt lat="45.8429700" lon="9.3199300">
	<ele>1254.20</ele>
	<time>2024-03-25T10:46:19.000Z</time>
</trkpt>
<trkpt lat="45.8429630" lon="9.3199150">
	<ele>1254.00</ele>
	<time>2024-03-25T10:46:20.000Z</time>
</trkpt>
<trkpt lat="45.8429580" lon="9.3199010">
	<ele>1254.00</ele>
	<time>2024-03-25T10:46:21.000Z</time>
</trkpt>
<trkpt lat="45.8429540" lon="9.3198870">
	<ele>1253.80</ele>
	<time>2024-03-25T10:46:22.000Z</time>
</trkpt>
<trkpt lat="45.8429510" lon="9.3198730">
	<ele>1253.60</ele>
	<time>2024-03-25T10:46:23.000Z</time>
</trkpt>
<trkpt lat="45.8429450" lon="9.3198590">
	<ele>1253.40</ele>
	<time>2024-03-25T10:46:24.000Z</time>
</trkpt>
<trkpt lat="45.8429390" lon="9.3198450">
	<ele>1253.00</ele>
	<time>2024-03-25T10:46:25.000Z</time>
</trkpt>
<trkpt lat="45.8429350" lon="9.3198300">
	<ele>1252.80</ele>
	<time>2024-03-25T10:46:26.000Z</time>
</trkpt>
<trkpt lat="45.8429320" lon="9.3198140">
	<ele>1252.60</ele>
	<time>2024-03-25T10:46:27.000Z</time>
</trkpt>
<trkpt lat="45.8429290" lon="9.3198020">
	<ele>1252.40</ele>
	<time>2024-03-25T10:46:28.000Z</time>
</trkpt>
<trkpt lat="45.8429250" lon="9.3197930">
	<ele>1252.20</ele>
	<time>2024-03-25T10:46:29.000Z</time>
</trkpt>
<trkpt lat="45.8429230" lon="9.3197860">
	<ele>1251.80</ele>
	<time>2024-03-25T10:46:30.000Z</time>
</trkpt>
<trkpt lat="45.8429230" lon="9.3197820">
	<ele>1251.80</ele>
	<time>2024-03-25T10:46:31.000Z</time>
</trkpt>
<trkpt lat="45.8429230" lon="9.3197810">
	<ele>1251.60</ele>
	<time>2024-03-25T10:46:32.000Z</time>
</trkpt>
<trkpt lat="45.8429240" lon="9.3197810">
	<ele>1251.60</ele>
	<time>2024-03-25T10:46:33.000Z</time>
</trkpt>
<trkpt lat="45.8429230" lon="9.3197820">
	<ele>1251.60</ele>
	<time>2024-03-25T10:46:34.000Z</time>
</trkpt>
<trkpt lat="45.8429230" lon="9.3197830">
	<ele>1252.00</ele>
	<time>2024-03-25T10:46:35.000Z</time>
</trkpt>
<trkpt lat="45.8429240" lon="9.3197840">
	<ele>1252.00</ele>
	<time>2024-03-25T10:46:36.000Z</time>
</trkpt>
<trkpt lat="45.8429240" lon="9.3197840">
	<ele>1252.20</ele>
	<time>2024-03-25T10:46:37.000Z</time>
</trkpt>
<trkpt lat="45.8429250" lon="9.3197840">
	<ele>1252.20</ele>
	<time>2024-03-25T10:46:38.000Z</time>
</trkpt>
<trkpt lat="45.8429240" lon="9.3197850">
	<ele>1252.20</ele>
	<time>2024-03-25T10:46:39.000Z</time>
</trkpt>
<trkpt lat="45.8429230" lon="9.3197810">
	<ele>1252.20</ele>
	<time>2024-03-25T10:46:40.000Z</time>
</trkpt>
<trkpt lat="45.8429210" lon="9.3197710">
	<ele>1252.20</ele>
	<time>2024-03-25T10:46:41.000Z</time>
</trkpt>
<trkpt lat="45.8429180" lon="9.3197580">
	<ele>1252.20</ele>
	<time>2024-03-25T10:46:42.000Z</time>
</trkpt>
<trkpt lat="45.8429130" lon="9.3197440">
	<ele>1252.00</ele>
	<time>2024-03-25T10:46:43.000Z</time>
</trkpt>
<trkpt lat="45.8429080" lon="9.3197320">
	<ele>1251.80</ele>
	<time>2024-03-25T10:46:44.000Z</time>
</trkpt>
<trkpt lat="45.8429030" lon="9.3197180">
	<ele>1251.80</ele>
	<time>2024-03-25T10:46:45.000Z</time>
</trkpt>
<trkpt lat="45.8429000" lon="9.3197060">
	<ele>1251.80</ele>
	<time>2024-03-25T10:46:46.000Z</time>
</trkpt>
<trkpt lat="45.8428960" lon="9.3196900">
	<ele>1251.60</ele>
	<time>2024-03-25T10:46:47.000Z</time>
</trkpt>
<trkpt lat="45.8428890" lon="9.3196710">
	<ele>1251.40</ele>
	<time>2024-03-25T10:46:48.000Z</time>
</trkpt>
<trkpt lat="45.8428830" lon="9.3196550">
	<ele>1251.20</ele>
	<time>2024-03-25T10:46:49.000Z</time>
</trkpt>
<trkpt lat="45.8428780" lon="9.3196430">
	<ele>1251.00</ele>
	<time>2024-03-25T10:46:50.000Z</time>
</trkpt>
<trkpt lat="45.8428730" lon="9.3196290">
	<ele>1251.00</ele>
	<time>2024-03-25T10:46:51.000Z</time>
</trkpt>
<trkpt lat="45.8428670" lon="9.3196140">
	<ele>1250.80</ele>
	<time>2024-03-25T10:46:52.000Z</time>
</trkpt>
<trkpt lat="45.8428610" lon="9.3196010">
	<ele>1250.80</ele>
	<time>2024-03-25T10:46:53.000Z</time>
</trkpt>
<trkpt lat="45.8428540" lon="9.3195890">
	<ele>1250.60</ele>
	<time>2024-03-25T10:46:54.000Z</time>
</trkpt>
<trkpt lat="45.8428490" lon="9.3195760">
	<ele>1250.40</ele>
	<time>2024-03-25T10:46:55.000Z</time>
</trkpt>
<trkpt lat="45.8428430" lon="9.3195600">
	<ele>1250.40</ele>
	<time>2024-03-25T10:46:56.000Z</time>
</trkpt>
<trkpt lat="45.8428370" lon="9.3195440">
	<ele>1250.40</ele>
	<time>2024-03-25T10:46:57.000Z</time>
</trkpt>
<trkpt lat="45.8428300" lon="9.3195300">
	<ele>1250.20</ele>
	<time>2024-03-25T10:46:58.000Z</time>
</trkpt>
<trkpt lat="45.8428230" lon="9.3195180">
	<ele>1250.00</ele>
	<time>2024-03-25T10:46:59.000Z</time>
</trkpt>
<trkpt lat="45.8428150" lon="9.3195050">
	<ele>1249.60</ele>
	<time>2024-03-25T10:47:00.000Z</time>
</trkpt>
<trkpt lat="45.8428090" lon="9.3194890">
	<ele>1249.40</ele>
	<time>2024-03-25T10:47:01.000Z</time>
</trkpt>
<trkpt lat="45.8428040" lon="9.3194750">
	<ele>1249.00</ele>
	<time>2024-03-25T10:47:02.000Z</time>
</trkpt>
<trkpt lat="45.8428000" lon="9.3194610">
	<ele>1248.80</ele>
	<time>2024-03-25T10:47:03.000Z</time>
</trkpt>
<trkpt lat="45.8427930" lon="9.3194470">
	<ele>1248.60</ele>
	<time>2024-03-25T10:47:04.000Z</time>
</trkpt>
<trkpt lat="45.8427890" lon="9.3194340">
	<ele>1248.40</ele>
	<time>2024-03-25T10:47:05.000Z</time>
</trkpt>
<trkpt lat="45.8427840" lon="9.3194190">
	<ele>1248.00</ele>
	<time>2024-03-25T10:47:06.000Z</time>
</trkpt>
<trkpt lat="45.8427780" lon="9.3194040">
	<ele>1247.80</ele>
	<time>2024-03-25T10:47:07.000Z</time>
</trkpt>
<trkpt lat="45.8427710" lon="9.3193910">
	<ele>1247.40</ele>
	<time>2024-03-25T10:47:08.000Z</time>
</trkpt>
<trkpt lat="45.8427640" lon="9.3193790">
	<ele>1247.20</ele>
	<time>2024-03-25T10:47:09.000Z</time>
</trkpt>
<trkpt lat="45.8427570" lon="9.3193640">
	<ele>1246.80</ele>
	<time>2024-03-25T10:47:10.000Z</time>
</trkpt>
<trkpt lat="45.8427510" lon="9.3193470">
	<ele>1246.60</ele>
	<time>2024-03-25T10:47:11.000Z</time>
</trkpt>
<trkpt lat="45.8427460" lon="9.3193310">
	<ele>1246.40</ele>
	<time>2024-03-25T10:47:12.000Z</time>
</trkpt>
<trkpt lat="45.8427410" lon="9.3193130">
	<ele>1246.20</ele>
	<time>2024-03-25T10:47:13.000Z</time>
</trkpt>
<trkpt lat="45.8427350" lon="9.3192960">
	<ele>1246.00</ele>
	<time>2024-03-25T10:47:14.000Z</time>
</trkpt>
<trkpt lat="45.8427280" lon="9.3192800">
	<ele>1245.80</ele>
	<time>2024-03-25T10:47:15.000Z</time>
</trkpt>
<trkpt lat="45.8427170" lon="9.3192630">
	<ele>1245.60</ele>
	<time>2024-03-25T10:47:16.000Z</time>
</trkpt>
<trkpt lat="45.8427070" lon="9.3192470">
	<ele>1245.40</ele>
	<time>2024-03-25T10:47:17.000Z</time>
</trkpt>
<trkpt lat="45.8426980" lon="9.3192330">
	<ele>1245.20</ele>
	<time>2024-03-25T10:47:18.000Z</time>
</trkpt>
<trkpt lat="45.8426910" lon="9.3192160">
	<ele>1245.20</ele>
	<time>2024-03-25T10:47:19.000Z</time>
</trkpt>
<trkpt lat="45.8426860" lon="9.3192010">
	<ele>1245.00</ele>
	<time>2024-03-25T10:47:20.000Z</time>
</trkpt>
<trkpt lat="45.8426820" lon="9.3191870">
	<ele>1244.80</ele>
	<time>2024-03-25T10:47:21.000Z</time>
</trkpt>
<trkpt lat="45.8426780" lon="9.3191750">
	<ele>1244.80</ele>
	<time>2024-03-25T10:47:22.000Z</time>
</trkpt>
<trkpt lat="45.8426750" lon="9.3191650">
	<ele>1244.60</ele>
	<time>2024-03-25T10:47:23.000Z</time>
</trkpt>
<trkpt lat="45.8426710" lon="9.3191520">
	<ele>1244.60</ele>
	<time>2024-03-25T10:47:24.000Z</time>
</trkpt>
<trkpt lat="45.8426680" lon="9.3191390">
	<ele>1244.60</ele>
	<time>2024-03-25T10:47:25.000Z</time>
</trkpt>
<trkpt lat="45.8426670" lon="9.3191270">
	<ele>1244.40</ele>
	<time>2024-03-25T10:47:26.000Z</time>
</trkpt>
<trkpt lat="45.8426660" lon="9.3191160">
	<ele>1244.20</ele>
	<time>2024-03-25T10:47:27.000Z</time>
</trkpt>
<trkpt lat="45.8426620" lon="9.3191060">
	<ele>1244.00</ele>
	<time>2024-03-25T10:47:28.000Z</time>
</trkpt>
<trkpt lat="45.8426600" lon="9.3190930">
	<ele>1243.60</ele>
	<time>2024-03-25T10:47:29.000Z</time>
</trkpt>
<trkpt lat="45.8426590" lon="9.3190780">
	<ele>1243.20</ele>
	<time>2024-03-25T10:47:30.000Z</time>
</trkpt>
<trkpt lat="45.8426580" lon="9.3190650">
	<ele>1242.80</ele>
	<time>2024-03-25T10:47:31.000Z</time>
</trkpt>
<trkpt lat="45.8426590" lon="9.3190500">
	<ele>1242.60</ele>
	<time>2024-03-25T10:47:32.000Z</time>
</trkpt>
<trkpt lat="45.8426600" lon="9.3190340">
	<ele>1242.20</ele>
	<time>2024-03-25T10:47:33.000Z</time>
</trkpt>
<trkpt lat="45.8426590" lon="9.3190210">
	<ele>1242.00</ele>
	<time>2024-03-25T10:47:34.000Z</time>
</trkpt>
<trkpt lat="45.8426540" lon="9.3190100">
	<ele>1241.80</ele>
	<time>2024-03-25T10:47:35.000Z</time>
</trkpt>
<trkpt lat="45.8426480" lon="9.3190010">
	<ele>1241.60</ele>
	<time>2024-03-25T10:47:36.000Z</time>
</trkpt>
<trkpt lat="45.8426420" lon="9.3189940">
	<ele>1241.40</ele>
	<time>2024-03-25T10:47:37.000Z</time>
</trkpt>
<trkpt lat="45.8426330" lon="9.3189900">
	<ele>1241.20</ele>
	<time>2024-03-25T10:47:38.000Z</time>
</trkpt>
<trkpt lat="45.8426240" lon="9.3189890">
	<ele>1240.80</ele>
	<time>2024-03-25T10:47:39.000Z</time>
</trkpt>
<trkpt lat="45.8426130" lon="9.3189890">
	<ele>1240.40</ele>
	<time>2024-03-25T10:47:40.000Z</time>
</trkpt>
<trkpt lat="45.8426040" lon="9.3189900">
	<ele>1240.20</ele>
	<time>2024-03-25T10:47:41.000Z</time>
</trkpt>
<trkpt lat="45.8425950" lon="9.3189890">
	<ele>1240.00</ele>
	<time>2024-03-25T10:47:42.000Z</time>
</trkpt>
<trkpt lat="45.8425900" lon="9.3189840">
	<ele>1239.80</ele>
	<time>2024-03-25T10:47:43.000Z</time>
</trkpt>
<trkpt lat="45.8425840" lon="9.3189750">
	<ele>1239.60</ele>
	<time>2024-03-25T10:47:44.000Z</time>
</trkpt>
<trkpt lat="45.8425790" lon="9.3189640">
	<ele>1239.40</ele>
	<time>2024-03-25T10:47:45.000Z</time>
</trkpt>
<trkpt lat="45.8425710" lon="9.3189570">
	<ele>1239.20</ele>
	<time>2024-03-25T10:47:46.000Z</time>
</trkpt>
<trkpt lat="45.8425650" lon="9.3189490">
	<ele>1238.80</ele>
	<time>2024-03-25T10:47:47.000Z</time>
</trkpt>
<trkpt lat="45.8425570" lon="9.3189380">
	<ele>1238.60</ele>
	<time>2024-03-25T10:47:48.000Z</time>
</trkpt>
<trkpt lat="45.8425480" lon="9.3189240">
	<ele>1238.40</ele>
	<time>2024-03-25T10:47:49.000Z</time>
</trkpt>
<trkpt lat="45.8425410" lon="9.3189110">
	<ele>1238.00</ele>
	<time>2024-03-25T10:47:50.000Z</time>
</trkpt>
<trkpt lat="45.8425350" lon="9.3188960">
	<ele>1237.80</ele>
	<time>2024-03-25T10:47:51.000Z</time>
</trkpt>
<trkpt lat="45.8425290" lon="9.3188780">
	<ele>1237.60</ele>
	<time>2024-03-25T10:47:52.000Z</time>
</trkpt>
<trkpt lat="45.8425230" lon="9.3188590">
	<ele>1237.60</ele>
	<time>2024-03-25T10:47:53.000Z</time>
</trkpt>
<trkpt lat="45.8425200" lon="9.3188400">
	<ele>1237.40</ele>
	<time>2024-03-25T10:47:54.000Z</time>
</trkpt>
<trkpt lat="45.8425190" lon="9.3188250">
	<ele>1237.20</ele>
	<time>2024-03-25T10:47:55.000Z</time>
</trkpt>
<trkpt lat="45.8425160" lon="9.3188080">
	<ele>1237.20</ele>
	<time>2024-03-25T10:47:56.000Z</time>
</trkpt>
<trkpt lat="45.8425120" lon="9.3187910">
	<ele>1237.00</ele>
	<time>2024-03-25T10:47:57.000Z</time>
</trkpt>
<trkpt lat="45.8425080" lon="9.3187730">
	<ele>1236.80</ele>
	<time>2024-03-25T10:47:58.000Z</time>
</trkpt>
<trkpt lat="45.8425050" lon="9.3187550">
	<ele>1236.60</ele>
	<time>2024-03-25T10:47:59.000Z</time>
</trkpt>
<trkpt lat="45.8425020" lon="9.3187400">
	<ele>1236.60</ele>
	<time>2024-03-25T10:48:00.000Z</time>
</trkpt>
<trkpt lat="45.8425000" lon="9.3187260">
	<ele>1236.40</ele>
	<time>2024-03-25T10:48:01.000Z</time>
</trkpt>
<trkpt lat="45.8424980" lon="9.3187120">
	<ele>1236.00</ele>
	<time>2024-03-25T10:48:02.000Z</time>
</trkpt>
<trkpt lat="45.8424940" lon="9.3186980">
	<ele>1236.00</ele>
	<time>2024-03-25T10:48:03.000Z</time>
</trkpt>
<trkpt lat="45.8424850" lon="9.3186860">
	<ele>1235.80</ele>
	<time>2024-03-25T10:48:04.000Z</time>
</trkpt>
<trkpt lat="45.8424740" lon="9.3186770">
	<ele>1235.60</ele>
	<time>2024-03-25T10:48:05.000Z</time>
</trkpt>
<trkpt lat="45.8424660" lon="9.3186720">
	<ele>1235.40</ele>
	<time>2024-03-25T10:48:06.000Z</time>
</trkpt>
<trkpt lat="45.8424590" lon="9.3186660">
	<ele>1235.20</ele>
	<time>2024-03-25T10:48:07.000Z</time>
</trkpt>
<trkpt lat="45.8424520" lon="9.3186560">
	<ele>1235.20</ele>
	<time>2024-03-25T10:48:08.000Z</time>
</trkpt>
<trkpt lat="45.8424470" lon="9.3186400">
	<ele>1235.00</ele>
	<time>2024-03-25T10:48:09.000Z</time>
</trkpt>
<trkpt lat="45.8424420" lon="9.3186230">
	<ele>1235.00</ele>
	<time>2024-03-25T10:48:10.000Z</time>
</trkpt>
<trkpt lat="45.8424360" lon="9.3186070">
	<ele>1234.80</ele>
	<time>2024-03-25T10:48:11.000Z</time>
</trkpt>
<trkpt lat="45.8424300" lon="9.3185910">
	<ele>1234.80</ele>
	<time>2024-03-25T10:48:12.000Z</time>
</trkpt>
<trkpt lat="45.8424270" lon="9.3185750">
	<ele>1234.60</ele>
	<time>2024-03-25T10:48:13.000Z</time>
</trkpt>
<trkpt lat="45.8424230" lon="9.3185590">
	<ele>1234.40</ele>
	<time>2024-03-25T10:48:14.000Z</time>
</trkpt>
<trkpt lat="45.8424220" lon="9.3185430">
	<ele>1234.40</ele>
	<time>2024-03-25T10:48:15.000Z</time>
</trkpt>
<trkpt lat="45.8424170" lon="9.3185280">
	<ele>1234.20</ele>
	<time>2024-03-25T10:48:16.000Z</time>
</trkpt>
<trkpt lat="45.8424140" lon="9.3185130">
	<ele>1234.00</ele>
	<time>2024-03-25T10:48:17.000Z</time>
</trkpt>
<trkpt lat="45.8424120" lon="9.3185010">
	<ele>1234.00</ele>
	<time>2024-03-25T10:48:18.000Z</time>
</trkpt>
<trkpt lat="45.8424080" lon="9.3184900">
	<ele>1233.80</ele>
	<time>2024-03-25T10:48:19.000Z</time>
</trkpt>
<trkpt lat="45.8424050" lon="9.3184760">
	<ele>1233.60</ele>
	<time>2024-03-25T10:48:20.000Z</time>
</trkpt>
<trkpt lat="45.8424020" lon="9.3184630">
	<ele>1233.40</ele>
	<time>2024-03-25T10:48:21.000Z</time>
</trkpt>
<trkpt lat="45.8423980" lon="9.3184510">
	<ele>1233.00</ele>
	<time>2024-03-25T10:48:22.000Z</time>
</trkpt>
<trkpt lat="45.8423940" lon="9.3184410">
	<ele>1232.60</ele>
	<time>2024-03-25T10:48:23.000Z</time>
</trkpt>
<trkpt lat="45.8423900" lon="9.3184320">
	<ele>1232.40</ele>
	<time>2024-03-25T10:48:24.000Z</time>
</trkpt>
<trkpt lat="45.8423860" lon="9.3184220">
	<ele>1232.40</ele>
	<time>2024-03-25T10:48:25.000Z</time>
</trkpt>
<trkpt lat="45.8423820" lon="9.3184100">
	<ele>1232.00</ele>
	<time>2024-03-25T10:48:26.000Z</time>
</trkpt>
<trkpt lat="45.8423790" lon="9.3183990">
	<ele>1231.60</ele>
	<time>2024-03-25T10:48:27.000Z</time>
</trkpt>
<trkpt lat="45.8423740" lon="9.3183860">
	<ele>1231.40</ele>
	<time>2024-03-25T10:48:28.000Z</time>
</trkpt>
<trkpt lat="45.8423700" lon="9.3183730">
	<ele>1231.40</ele>
	<time>2024-03-25T10:48:29.000Z</time>
</trkpt>
<trkpt lat="45.8423650" lon="9.3183570">
	<ele>1231.20</ele>
	<time>2024-03-25T10:48:30.000Z</time>
</trkpt>
<trkpt lat="45.8423640" lon="9.3183420">
	<ele>1230.80</ele>
	<time>2024-03-25T10:48:31.000Z</time>
</trkpt>
<trkpt lat="45.8423600" lon="9.3183320">
	<ele>1230.60</ele>
	<time>2024-03-25T10:48:32.000Z</time>
</trkpt>
<trkpt lat="45.8423570" lon="9.3183190">
	<ele>1230.20</ele>
	<time>2024-03-25T10:48:33.000Z</time>
</trkpt>
<trkpt lat="45.8423530" lon="9.3183010">
	<ele>1230.20</ele>
	<time>2024-03-25T10:48:34.000Z</time>
</trkpt>
<trkpt lat="45.8423520" lon="9.3182880">
	<ele>1229.80</ele>
	<time>2024-03-25T10:48:35.000Z</time>
</trkpt>
<trkpt lat="45.8423500" lon="9.3182720">
	<ele>1229.60</ele>
	<time>2024-03-25T10:48:36.000Z</time>
</trkpt>
<trkpt lat="45.8423470" lon="9.3182580">
	<ele>1229.20</ele>
	<time>2024-03-25T10:48:37.000Z</time>
</trkpt>
<trkpt lat="45.8423430" lon="9.3182460">
	<ele>1229.00</ele>
	<time>2024-03-25T10:48:38.000Z</time>
</trkpt>
<trkpt lat="45.8423430" lon="9.3182350">
	<ele>1228.60</ele>
	<time>2024-03-25T10:48:39.000Z</time>
</trkpt>
<trkpt lat="45.8423430" lon="9.3182220">
	<ele>1228.40</ele>
	<time>2024-03-25T10:48:40.000Z</time>
</trkpt>
<trkpt lat="45.8423430" lon="9.3182080">
	<ele>1228.20</ele>
	<time>2024-03-25T10:48:41.000Z</time>
</trkpt>
<trkpt lat="45.8423430" lon="9.3181940">
	<ele>1228.00</ele>
	<time>2024-03-25T10:48:42.000Z</time>
</trkpt>
<trkpt lat="45.8423420" lon="9.3181820">
	<ele>1227.60</ele>
	<time>2024-03-25T10:48:43.000Z</time>
</trkpt>
<trkpt lat="45.8423420" lon="9.3181700">
	<ele>1227.40</ele>
	<time>2024-03-25T10:48:44.000Z</time>
</trkpt>
<trkpt lat="45.8423420" lon="9.3181580">
	<ele>1227.20</ele>
	<time>2024-03-25T10:48:45.000Z</time>
</trkpt>
<trkpt lat="45.8423400" lon="9.3181440">
	<ele>1226.80</ele>
	<time>2024-03-25T10:48:46.000Z</time>
</trkpt>
<trkpt lat="45.8423370" lon="9.3181310">
	<ele>1226.60</ele>
	<time>2024-03-25T10:48:47.000Z</time>
</trkpt>
<trkpt lat="45.8423370" lon="9.3181200">
	<ele>1226.20</ele>
	<time>2024-03-25T10:48:48.000Z</time>
</trkpt>
<trkpt lat="45.8423360" lon="9.3181080">
	<ele>1226.00</ele>
	<time>2024-03-25T10:48:49.000Z</time>
</trkpt>
<trkpt lat="45.8423340" lon="9.3180960">
	<ele>1225.80</ele>
	<time>2024-03-25T10:48:50.000Z</time>
</trkpt>
<trkpt lat="45.8423310" lon="9.3180850">
	<ele>1225.40</ele>
	<time>2024-03-25T10:48:51.000Z</time>
</trkpt>
<trkpt lat="45.8423290" lon="9.3180710">
	<ele>1225.20</ele>
	<time>2024-03-25T10:48:52.000Z</time>
</trkpt>
<trkpt lat="45.8423280" lon="9.3180570">
	<ele>1224.80</ele>
	<time>2024-03-25T10:48:53.000Z</time>
</trkpt>
<trkpt lat="45.8423250" lon="9.3180430">
	<ele>1224.60</ele>
	<time>2024-03-25T10:48:54.000Z</time>
</trkpt>
<trkpt lat="45.8423220" lon="9.3180290">
	<ele>1224.60</ele>
	<time>2024-03-25T10:48:55.000Z</time>
</trkpt>
<trkpt lat="45.8423200" lon="9.3180180">
	<ele>1224.40</ele>
	<time>2024-03-25T10:48:56.000Z</time>
</trkpt>
<trkpt lat="45.8423160" lon="9.3180070">
	<ele>1224.20</ele>
	<time>2024-03-25T10:48:57.000Z</time>
</trkpt>
<trkpt lat="45.8423150" lon="9.3179950">
	<ele>1223.80</ele>
	<time>2024-03-25T10:48:58.000Z</time>
</trkpt>
<trkpt lat="45.8423160" lon="9.3179830">
	<ele>1223.60</ele>
	<time>2024-03-25T10:48:59.000Z</time>
</trkpt>
<trkpt lat="45.8423150" lon="9.3179680">
	<ele>1223.40</ele>
	<time>2024-03-25T10:49:00.000Z</time>
</trkpt>
<trkpt lat="45.8423130" lon="9.3179530">
	<ele>1223.20</ele>
	<time>2024-03-25T10:49:01.000Z</time>
</trkpt>
<trkpt lat="45.8423150" lon="9.3179400">
	<ele>1223.00</ele>
	<time>2024-03-25T10:49:02.000Z</time>
</trkpt>
<trkpt lat="45.8423170" lon="9.3179290">
	<ele>1222.80</ele>
	<time>2024-03-25T10:49:03.000Z</time>
</trkpt>
<trkpt lat="45.8423170" lon="9.3179160">
	<ele>1222.60</ele>
	<time>2024-03-25T10:49:04.000Z</time>
</trkpt>
<trkpt lat="45.8423210" lon="9.3179030">
	<ele>1222.20</ele>
	<time>2024-03-25T10:49:05.000Z</time>
</trkpt>
<trkpt lat="45.8423200" lon="9.3178880">
	<ele>1222.20</ele>
	<time>2024-03-25T10:49:06.000Z</time>
</trkpt>
<trkpt lat="45.8423180" lon="9.3178750">
	<ele>1221.80</ele>
	<time>2024-03-25T10:49:07.000Z</time>
</trkpt>
<trkpt lat="45.8423170" lon="9.3178610">
	<ele>1221.60</ele>
	<time>2024-03-25T10:49:08.000Z</time>
</trkpt>
<trkpt lat="45.8423170" lon="9.3178470">
	<ele>1221.40</ele>
	<time>2024-03-25T10:49:09.000Z</time>
</trkpt>
<trkpt lat="45.8423180" lon="9.3178340">
	<ele>1221.20</ele>
	<time>2024-03-25T10:49:10.000Z</time>
</trkpt>
<trkpt lat="45.8423150" lon="9.3178190">
	<ele>1221.00</ele>
	<time>2024-03-25T10:49:11.000Z</time>
</trkpt>
<trkpt lat="45.8423110" lon="9.3178020">
	<ele>1220.80</ele>
	<time>2024-03-25T10:49:12.000Z</time>
</trkpt>
<trkpt lat="45.8423070" lon="9.3177870">
	<ele>1220.60</ele>
	<time>2024-03-25T10:49:13.000Z</time>
</trkpt>
<trkpt lat="45.8423040" lon="9.3177710">
	<ele>1220.40</ele>
	<time>2024-03-25T10:49:14.000Z</time>
</trkpt>
<trkpt lat="45.8423000" lon="9.3177590">
	<ele>1220.00</ele>
	<time>2024-03-25T10:49:15.000Z</time>
</trkpt>
<trkpt lat="45.8422930" lon="9.3177450">
	<ele>1219.80</ele>
	<time>2024-03-25T10:49:16.000Z</time>
</trkpt>
<trkpt lat="45.8422870" lon="9.3177330">
	<ele>1219.60</ele>
	<time>2024-03-25T10:49:17.000Z</time>
</trkpt>
<trkpt lat="45.8422820" lon="9.3177190">
	<ele>1219.40</ele>
	<time>2024-03-25T10:49:18.000Z</time>
</trkpt>
<trkpt lat="45.8422760" lon="9.3177080">
	<ele>1219.40</ele>
	<time>2024-03-25T10:49:19.000Z</time>
</trkpt>
<trkpt lat="45.8422720" lon="9.3176930">
	<ele>1219.20</ele>
	<time>2024-03-25T10:49:20.000Z</time>
</trkpt>
<trkpt lat="45.8422710" lon="9.3176780">
	<ele>1219.00</ele>
	<time>2024-03-25T10:49:21.000Z</time>
</trkpt>
<trkpt lat="45.8422730" lon="9.3176650">
	<ele>1219.00</ele>
	<time>2024-03-25T10:49:22.000Z</time>
</trkpt>
<trkpt lat="45.8422740" lon="9.3176510">
	<ele>1218.80</ele>
	<time>2024-03-25T10:49:23.000Z</time>
</trkpt>
<trkpt lat="45.8422750" lon="9.3176350">
	<ele>1218.60</ele>
	<time>2024-03-25T10:49:24.000Z</time>
</trkpt>
<trkpt lat="45.8422790" lon="9.3176190">
	<ele>1218.40</ele>
	<time>2024-03-25T10:49:25.000Z</time>
</trkpt>
<trkpt lat="45.8422820" lon="9.3176060">
	<ele>1218.20</ele>
	<time>2024-03-25T10:49:26.000Z</time>
</trkpt>
<trkpt lat="45.8422810" lon="9.3175930">
	<ele>1218.00</ele>
	<time>2024-03-25T10:49:27.000Z</time>
</trkpt>
<trkpt lat="45.8422800" lon="9.3175790">
	<ele>1217.60</ele>
	<time>2024-03-25T10:49:28.000Z</time>
</trkpt>
<trkpt lat="45.8422800" lon="9.3175650">
	<ele>1217.40</ele>
	<time>2024-03-25T10:49:29.000Z</time>
</trkpt>
<trkpt lat="45.8422790" lon="9.3175520">
	<ele>1217.20</ele>
	<time>2024-03-25T10:49:30.000Z</time>
</trkpt>
<trkpt lat="45.8422760" lon="9.3175380">
	<ele>1217.00</ele>
	<time>2024-03-25T10:49:31.000Z</time>
</trkpt>
<trkpt lat="45.8422730" lon="9.3175260">
	<ele>1216.80</ele>
	<time>2024-03-25T10:49:32.000Z</time>
</trkpt>
<trkpt lat="45.8422710" lon="9.3175120">
	<ele>1216.40</ele>
	<time>2024-03-25T10:49:33.000Z</time>
</trkpt>
<trkpt lat="45.8422690" lon="9.3174960">
	<ele>1216.20</ele>
	<time>2024-03-25T10:49:34.000Z</time>
</trkpt>
<trkpt lat="45.8422690" lon="9.3174790">
	<ele>1215.80</ele>
	<time>2024-03-25T10:49:35.000Z</time>
</trkpt>
<trkpt lat="45.8422690" lon="9.3174630">
	<ele>1215.60</ele>
	<time>2024-03-25T10:49:36.000Z</time>
</trkpt>
<trkpt lat="45.8422700" lon="9.3174440">
	<ele>1215.40</ele>
	<time>2024-03-25T10:49:37.000Z</time>
</trkpt>
<trkpt lat="45.8422680" lon="9.3174250">
	<ele>1215.20</ele>
	<time>2024-03-25T10:49:38.000Z</time>
</trkpt>
<trkpt lat="45.8422650" lon="9.3174090">
	<ele>1214.80</ele>
	<time>2024-03-25T10:49:39.000Z</time>
</trkpt>
<trkpt lat="45.8422610" lon="9.3173920">
	<ele>1214.60</ele>
	<time>2024-03-25T10:49:40.000Z</time>
</trkpt>
<trkpt lat="45.8422560" lon="9.3173780">
	<ele>1214.40</ele>
	<time>2024-03-25T10:49:41.000Z</time>
</trkpt>
<trkpt lat="45.8422490" lon="9.3173630">
	<ele>1214.20</ele>
	<time>2024-03-25T10:49:42.000Z</time>
</trkpt>
<trkpt lat="45.8422420" lon="9.3173520">
	<ele>1214.00</ele>
	<time>2024-03-25T10:49:43.000Z</time>
</trkpt>
<trkpt lat="45.8422370" lon="9.3173440">
	<ele>1214.00</ele>
	<time>2024-03-25T10:49:44.000Z</time>
</trkpt>
<trkpt lat="45.8422320" lon="9.3173310">
	<ele>1213.80</ele>
	<time>2024-03-25T10:49:45.000Z</time>
</trkpt>
<trkpt lat="45.8422300" lon="9.3173150">
	<ele>1213.60</ele>
	<time>2024-03-25T10:49:46.000Z</time>
</trkpt>
<trkpt lat="45.8422270" lon="9.3172970">
	<ele>1213.60</ele>
	<time>2024-03-25T10:49:47.000Z</time>
</trkpt>
<trkpt lat="45.8422250" lon="9.3172820">
	<ele>1213.40</ele>
	<time>2024-03-25T10:49:48.000Z</time>
</trkpt>
<trkpt lat="45.8422240" lon="9.3172650">
	<ele>1213.40</ele>
	<time>2024-03-25T10:49:49.000Z</time>
</trkpt>
<trkpt lat="45.8422250" lon="9.3172530">
	<ele>1213.20</ele>
	<time>2024-03-25T10:49:50.000Z</time>
</trkpt>
<trkpt lat="45.8422260" lon="9.3172370">
	<ele>1212.80</ele>
	<time>2024-03-25T10:49:51.000Z</time>
</trkpt>
<trkpt lat="45.8422250" lon="9.3172200">
	<ele>1212.60</ele>
	<time>2024-03-25T10:49:52.000Z</time>
</trkpt>
<trkpt lat="45.8422220" lon="9.3172050">
	<ele>1212.40</ele>
	<time>2024-03-25T10:49:53.000Z</time>
</trkpt>
<trkpt lat="45.8422170" lon="9.3171910">
	<ele>1212.20</ele>
	<time>2024-03-25T10:49:54.000Z</time>
</trkpt>
<trkpt lat="45.8422110" lon="9.3171770">
	<ele>1212.00</ele>
	<time>2024-03-25T10:49:55.000Z</time>
</trkpt>
<trkpt lat="45.8422060" lon="9.3171650">
	<ele>1211.80</ele>
	<time>2024-03-25T10:49:56.000Z</time>
</trkpt>
<trkpt lat="45.8422030" lon="9.3171530">
	<ele>1211.60</ele>
	<time>2024-03-25T10:49:57.000Z</time>
</trkpt>
<trkpt lat="45.8422000" lon="9.3171380">
	<ele>1211.40</ele>
	<time>2024-03-25T10:49:58.000Z</time>
</trkpt>
<trkpt lat="45.8421940" lon="9.3171240">
	<ele>1211.20</ele>
	<time>2024-03-25T10:49:59.000Z</time>
</trkpt>
<trkpt lat="45.8421850" lon="9.3171100">
	<ele>1211.00</ele>
	<time>2024-03-25T10:50:00.000Z</time>
</trkpt>
<trkpt lat="45.8421770" lon="9.3170980">
	<ele>1210.80</ele>
	<time>2024-03-25T10:50:01.000Z</time>
</trkpt>
<trkpt lat="45.8421670" lon="9.3170860">
	<ele>1210.60</ele>
	<time>2024-03-25T10:50:02.000Z</time>
</trkpt>
<trkpt lat="45.8421580" lon="9.3170780">
	<ele>1210.60</ele>
	<time>2024-03-25T10:50:03.000Z</time>
</trkpt>
<trkpt lat="45.8421520" lon="9.3170690">
	<ele>1210.40</ele>
	<time>2024-03-25T10:50:04.000Z</time>
</trkpt>
<trkpt lat="45.8421490" lon="9.3170560">
	<ele>1210.40</ele>
	<time>2024-03-25T10:50:05.000Z</time>
</trkpt>
<trkpt lat="45.8421510" lon="9.3170430">
	<ele>1210.40</ele>
	<time>2024-03-25T10:50:06.000Z</time>
</trkpt>
<trkpt lat="45.8421510" lon="9.3170260">
	<ele>1210.40</ele>
	<time>2024-03-25T10:50:07.000Z</time>
</trkpt>
<trkpt lat="45.8421490" lon="9.3170100">
	<ele>1210.20</ele>
	<time>2024-03-25T10:50:08.000Z</time>
</trkpt>
<trkpt lat="45.8421430" lon="9.3169980">
	<ele>1210.20</ele>
	<time>2024-03-25T10:50:09.000Z</time>
</trkpt>
<trkpt lat="45.8421350" lon="9.3169830">
	<ele>1210.00</ele>
	<time>2024-03-25T10:50:10.000Z</time>
</trkpt>
<trkpt lat="45.8421260" lon="9.3169710">
	<ele>1209.80</ele>
	<time>2024-03-25T10:50:11.000Z</time>
</trkpt>
<trkpt lat="45.8421200" lon="9.3169560">
	<ele>1209.80</ele>
	<time>2024-03-25T10:50:12.000Z</time>
</trkpt>
<trkpt lat="45.8421190" lon="9.3169410">
	<ele>1209.60</ele>
	<time>2024-03-25T10:50:13.000Z</time>
</trkpt>
<trkpt lat="45.8421180" lon="9.3169250">
	<ele>1209.60</ele>
	<time>2024-03-25T10:50:14.000Z</time>
</trkpt>
<trkpt lat="45.8421150" lon="9.3169070">
	<ele>1209.20</ele>
	<time>2024-03-25T10:50:15.000Z</time>
</trkpt>
<trkpt lat="45.8421110" lon="9.3168930">
	<ele>1209.00</ele>
	<time>2024-03-25T10:50:16.000Z</time>
</trkpt>
<trkpt lat="45.8421080" lon="9.3168750">
	<ele>1209.00</ele>
	<time>2024-03-25T10:50:17.000Z</time>
</trkpt>
<trkpt lat="45.8421050" lon="9.3168570">
	<ele>1209.00</ele>
	<time>2024-03-25T10:50:18.000Z</time>
</trkpt>
<trkpt lat="45.8421000" lon="9.3168410">
	<ele>1208.80</ele>
	<time>2024-03-25T10:50:19.000Z</time>
</trkpt>
<trkpt lat="45.8420960" lon="9.3168250">
	<ele>1208.80</ele>
	<time>2024-03-25T10:50:20.000Z</time>
</trkpt>
<trkpt lat="45.8420950" lon="9.3168120">
	<ele>1208.40</ele>
	<time>2024-03-25T10:50:21.000Z</time>
</trkpt>
<trkpt lat="45.8420930" lon="9.3167980">
	<ele>1208.40</ele>
	<time>2024-03-25T10:50:22.000Z</time>
</trkpt>
<trkpt lat="45.8420900" lon="9.3167840">
	<ele>1208.20</ele>
	<time>2024-03-25T10:50:23.000Z</time>
</trkpt>
<trkpt lat="45.8420850" lon="9.3167690">
	<ele>1208.20</ele>
	<time>2024-03-25T10:50:24.000Z</time>
</trkpt>
<trkpt lat="45.8420790" lon="9.3167540">
	<ele>1208.20</ele>
	<time>2024-03-25T10:50:25.000Z</time>
</trkpt>
<trkpt lat="45.8420740" lon="9.3167380">
	<ele>1208.00</ele>
	<time>2024-03-25T10:50:26.000Z</time>
</trkpt>
<trkpt lat="45.8420690" lon="9.3167220">
	<ele>1207.80</ele>
	<time>2024-03-25T10:50:27.000Z</time>
</trkpt>
<trkpt lat="45.8420640" lon="9.3167070">
	<ele>1207.40</ele>
	<time>2024-03-25T10:50:28.000Z</time>
</trkpt>
<trkpt lat="45.8420590" lon="9.3166890">
	<ele>1207.20</ele>
	<time>2024-03-25T10:50:29.000Z</time>
</trkpt>
<trkpt lat="45.8420550" lon="9.3166720">
	<ele>1207.20</ele>
	<time>2024-03-25T10:50:30.000Z</time>
</trkpt>
<trkpt lat="45.8420540" lon="9.3166550">
	<ele>1207.00</ele>
	<time>2024-03-25T10:50:31.000Z</time>
</trkpt>
<trkpt lat="45.8420540" lon="9.3166400">
	<ele>1207.00</ele>
	<time>2024-03-25T10:50:32.000Z</time>
</trkpt>
<trkpt lat="45.8420530" lon="9.3166330">
	<ele>1207.00</ele>
	<time>2024-03-25T10:50:33.000Z</time>
</trkpt>
<trkpt lat="45.8420520" lon="9.3166300">
	<ele>1206.80</ele>
	<time>2024-03-25T10:50:34.000Z</time>
</trkpt>
<trkpt lat="45.8420510" lon="9.3166290">
	<ele>1206.60</ele>
	<time>2024-03-25T10:50:35.000Z</time>
</trkpt>
<trkpt lat="45.8420500" lon="9.3166280">
	<ele>1206.60</ele>
	<time>2024-03-25T10:50:36.000Z</time>
</trkpt>
<trkpt lat="45.8420500" lon="9.3166270">
	<ele>1206.60</ele>
	<time>2024-03-25T10:50:37.000Z</time>
</trkpt>
<trkpt lat="45.8420500" lon="9.3166270">
	<ele>1206.60</ele>
	<time>2024-03-25T10:50:38.000Z</time>
</trkpt>
<trkpt lat="45.8420500" lon="9.3166260">
	<ele>1206.60</ele>
	<time>2024-03-25T10:50:39.000Z</time>
</trkpt>
<trkpt lat="45.8420530" lon="9.3166240">
	<ele>1206.40</ele>
	<time>2024-03-25T10:50:40.000Z</time>
</trkpt>
<trkpt lat="45.8420550" lon="9.3166120">
	<ele>1206.40</ele>
	<time>2024-03-25T10:50:41.000Z</time>
</trkpt>
<trkpt lat="45.8420530" lon="9.3165940">
	<ele>1206.40</ele>
	<time>2024-03-25T10:50:42.000Z</time>
</trkpt>
<trkpt lat="45.8420510" lon="9.3165740">
	<ele>1206.40</ele>
	<time>2024-03-25T10:50:43.000Z</time>
</trkpt>
<trkpt lat="45.8420510" lon="9.3165580">
	<ele>1206.20</ele>
	<time>2024-03-25T10:50:44.000Z</time>
</trkpt>
<trkpt lat="45.8420540" lon="9.3165420">
	<ele>1206.00</ele>
	<time>2024-03-25T10:50:45.000Z</time>
</trkpt>
<trkpt lat="45.8420580" lon="9.3165250">
	<ele>1206.00</ele>
	<time>2024-03-25T10:50:46.000Z</time>
</trkpt>
<trkpt lat="45.8420600" lon="9.3165090">
	<ele>1205.80</ele>
	<time>2024-03-25T10:50:47.000Z</time>
</trkpt>
<trkpt lat="45.8420550" lon="9.3164930">
	<ele>1205.80</ele>
	<time>2024-03-25T10:50:48.000Z</time>
</trkpt>
<trkpt lat="45.8420520" lon="9.3164800">
	<ele>1205.60</ele>
	<time>2024-03-25T10:50:49.000Z</time>
</trkpt>
<trkpt lat="45.8420460" lon="9.3164670">
	<ele>1205.60</ele>
	<time>2024-03-25T10:50:50.000Z</time>
</trkpt>
<trkpt lat="45.8420390" lon="9.3164520">
	<ele>1205.20</ele>
	<time>2024-03-25T10:50:51.000Z</time>
</trkpt>
<trkpt lat="45.8420350" lon="9.3164360">
	<ele>1205.00</ele>
	<time>2024-03-25T10:50:52.000Z</time>
</trkpt>
<trkpt lat="45.8420290" lon="9.3164190">
	<ele>1205.00</ele>
	<time>2024-03-25T10:50:53.000Z</time>
</trkpt>
<trkpt lat="45.8420220" lon="9.3164030">
	<ele>1204.80</ele>
	<time>2024-03-25T10:50:54.000Z</time>
</trkpt>
<trkpt lat="45.8420160" lon="9.3163880">
	<ele>1204.60</ele>
	<time>2024-03-25T10:50:55.000Z</time>
</trkpt>
<trkpt lat="45.8420150" lon="9.3163700">
	<ele>1204.60</ele>
	<time>2024-03-25T10:50:56.000Z</time>
</trkpt>
<trkpt lat="45.8420140" lon="9.3163520">
	<ele>1204.40</ele>
	<time>2024-03-25T10:50:57.000Z</time>
</trkpt>
<trkpt lat="45.8420160" lon="9.3163350">
	<ele>1204.20</ele>
	<time>2024-03-25T10:50:58.000Z</time>
</trkpt>
<trkpt lat="45.8420160" lon="9.3163180">
	<ele>1204.00</ele>
	<time>2024-03-25T10:50:59.000Z</time>
</trkpt>
<trkpt lat="45.8420130" lon="9.3162990">
	<ele>1203.80</ele>
	<time>2024-03-25T10:51:00.000Z</time>
</trkpt>
<trkpt lat="45.8420090" lon="9.3162850">
	<ele>1203.80</ele>
	<time>2024-03-25T10:51:01.000Z</time>
</trkpt>
<trkpt lat="45.8420060" lon="9.3162710">
	<ele>1203.60</ele>
	<time>2024-03-25T10:51:02.000Z</time>
</trkpt>
<trkpt lat="45.8420070" lon="9.3162600">
	<ele>1203.40</ele>
	<time>2024-03-25T10:51:03.000Z</time>
</trkpt>
<trkpt lat="45.8420100" lon="9.3162500">
	<ele>1203.20</ele>
	<time>2024-03-25T10:51:04.000Z</time>
</trkpt>
<trkpt lat="45.8420150" lon="9.3162390">
	<ele>1203.00</ele>
	<time>2024-03-25T10:51:05.000Z</time>
</trkpt>
<trkpt lat="45.8420160" lon="9.3162270">
	<ele>1202.80</ele>
	<time>2024-03-25T10:51:06.000Z</time>
</trkpt>
<trkpt lat="45.8420140" lon="9.3162130">
	<ele>1202.60</ele>
	<time>2024-03-25T10:51:07.000Z</time>
</trkpt>
<trkpt lat="45.8420150" lon="9.3162000">
	<ele>1202.20</ele>
	<time>2024-03-25T10:51:08.000Z</time>
</trkpt>
<trkpt lat="45.8420130" lon="9.3161860">
	<ele>1202.20</ele>
	<time>2024-03-25T10:51:09.000Z</time>
</trkpt>
<trkpt lat="45.8420100" lon="9.3161760">
	<ele>1202.00</ele>
	<time>2024-03-25T10:51:10.000Z</time>
</trkpt>
<trkpt lat="45.8420100" lon="9.3161660">
	<ele>1201.80</ele>
	<time>2024-03-25T10:51:11.000Z</time>
</trkpt>
<trkpt lat="45.8420120" lon="9.3161530">
	<ele>1201.60</ele>
	<time>2024-03-25T10:51:12.000Z</time>
</trkpt>
<trkpt lat="45.8420120" lon="9.3161390">
	<ele>1201.60</ele>
	<time>2024-03-25T10:51:13.000Z</time>
</trkpt>
<trkpt lat="45.8420110" lon="9.3161260">
	<ele>1201.40</ele>
	<time>2024-03-25T10:51:14.000Z</time>
</trkpt>
<trkpt lat="45.8420060" lon="9.3161120">
	<ele>1201.20</ele>
	<time>2024-03-25T10:51:15.000Z</time>
</trkpt>
<trkpt lat="45.8420030" lon="9.3161020">
	<ele>1201.20</ele>
	<time>2024-03-25T10:51:16.000Z</time>
</trkpt>
<trkpt lat="45.8420070" lon="9.3160930">
	<ele>1201.00</ele>
	<time>2024-03-25T10:51:17.000Z</time>
</trkpt>
<trkpt lat="45.8420100" lon="9.3160820">
	<ele>1200.80</ele>
	<time>2024-03-25T10:51:18.000Z</time>
</trkpt>
<trkpt lat="45.8420160" lon="9.3160690">
	<ele>1200.60</ele>
	<time>2024-03-25T10:51:19.000Z</time>
</trkpt>
<trkpt lat="45.8420210" lon="9.3160550">
	<ele>1200.40</ele>
	<time>2024-03-25T10:51:20.000Z</time>
</trkpt>
<trkpt lat="45.8420210" lon="9.3160400">
	<ele>1200.00</ele>
	<time>2024-03-25T10:51:21.000Z</time>
</trkpt>
<trkpt lat="45.8420170" lon="9.3160280">
	<ele>1199.80</ele>
	<time>2024-03-25T10:51:22.000Z</time>
</trkpt>
<trkpt lat="45.8420150" lon="9.3160160">
	<ele>1199.80</ele>
	<time>2024-03-25T10:51:23.000Z</time>
</trkpt>
<trkpt lat="45.8420120" lon="9.3160040">
	<ele>1199.60</ele>
	<time>2024-03-25T10:51:24.000Z</time>
</trkpt>
<trkpt lat="45.8420120" lon="9.3159950">
	<ele>1199.60</ele>
	<time>2024-03-25T10:51:25.000Z</time>
</trkpt>
<trkpt lat="45.8420110" lon="9.3159830">
	<ele>1199.40</ele>
	<time>2024-03-25T10:51:26.000Z</time>
</trkpt>
<trkpt lat="45.8420120" lon="9.3159710">
	<ele>1199.00</ele>
	<time>2024-03-25T10:51:27.000Z</time>
</trkpt>
<trkpt lat="45.8420110" lon="9.3159580">
	<ele>1199.00</ele>
	<time>2024-03-25T10:51:28.000Z</time>
</trkpt>
<trkpt lat="45.8420120" lon="9.3159480">
	<ele>1198.80</ele>
	<time>2024-03-25T10:51:29.000Z</time>
</trkpt>
<trkpt lat="45.8420140" lon="9.3159390">
	<ele>1198.60</ele>
	<time>2024-03-25T10:51:30.000Z</time>
</trkpt>
<trkpt lat="45.8420180" lon="9.3159280">
	<ele>1198.60</ele>
	<time>2024-03-25T10:51:31.000Z</time>
</trkpt>
<trkpt lat="45.8420200" lon="9.3159140">
	<ele>1198.40</ele>
	<time>2024-03-25T10:51:32.000Z</time>
</trkpt>
<trkpt lat="45.8420200" lon="9.3159000">
	<ele>1198.20</ele>
	<time>2024-03-25T10:51:33.000Z</time>
</trkpt>
<trkpt lat="45.8420210" lon="9.3158900">
	<ele>1198.00</ele>
	<time>2024-03-25T10:51:34.000Z</time>
</trkpt>
<trkpt lat="45.8420220" lon="9.3158780">
	<ele>1197.80</ele>
	<time>2024-03-25T10:51:35.000Z</time>
</trkpt>
<trkpt lat="45.8420230" lon="9.3158680">
	<ele>1197.60</ele>
	<time>2024-03-25T10:51:36.000Z</time>
</trkpt>
<trkpt lat="45.8420250" lon="9.3158560">
	<ele>1197.40</ele>
	<time>2024-03-25T10:51:37.000Z</time>
</trkpt>
<trkpt lat="45.8420280" lon="9.3158430">
	<ele>1197.00</ele>
	<time>2024-03-25T10:51:38.000Z</time>
</trkpt>
<trkpt lat="45.8420270" lon="9.3158300">
	<ele>1196.80</ele>
	<time>2024-03-25T10:51:39.000Z</time>
</trkpt>
<trkpt lat="45.8420240" lon="9.3158140">
	<ele>1196.60</ele>
	<time>2024-03-25T10:51:40.000Z</time>
</trkpt>
<trkpt lat="45.8420220" lon="9.3157990">
	<ele>1196.60</ele>
	<time>2024-03-25T10:51:41.000Z</time>
</trkpt>
<trkpt lat="45.8420190" lon="9.3157840">
	<ele>1196.40</ele>
	<time>2024-03-25T10:51:42.000Z</time>
</trkpt>
<trkpt lat="45.8420150" lon="9.3157710">
	<ele>1196.00</ele>
	<time>2024-03-25T10:51:43.000Z</time>
</trkpt>
<trkpt lat="45.8420140" lon="9.3157560">
	<ele>1195.80</ele>
	<time>2024-03-25T10:51:44.000Z</time>
</trkpt>
<trkpt lat="45.8420090" lon="9.3157420">
	<ele>1195.40</ele>
	<time>2024-03-25T10:51:45.000Z</time>
</trkpt>
<trkpt lat="45.8420050" lon="9.3157300">
	<ele>1195.20</ele>
	<time>2024-03-25T10:51:46.000Z</time>
</trkpt>
<trkpt lat="45.8420000" lon="9.3157180">
	<ele>1195.20</ele>
	<time>2024-03-25T10:51:47.000Z</time>
</trkpt>
<trkpt lat="45.8419960" lon="9.3157060">
	<ele>1195.00</ele>
	<time>2024-03-25T10:51:48.000Z</time>
</trkpt>
<trkpt lat="45.8419930" lon="9.3156930">
	<ele>1194.80</ele>
	<time>2024-03-25T10:51:49.000Z</time>
</trkpt>
<trkpt lat="45.8419940" lon="9.3156780">
	<ele>1194.60</ele>
	<time>2024-03-25T10:51:50.000Z</time>
</trkpt>
<trkpt lat="45.8419950" lon="9.3156620">
	<ele>1194.40</ele>
	<time>2024-03-25T10:51:51.000Z</time>
</trkpt>
<trkpt lat="45.8419970" lon="9.3156480">
	<ele>1194.20</ele>
	<time>2024-03-25T10:51:52.000Z</time>
</trkpt>
<trkpt lat="45.8419970" lon="9.3156330">
	<ele>1194.00</ele>
	<time>2024-03-25T10:51:53.000Z</time>
</trkpt>
<trkpt lat="45.8419930" lon="9.3156150">
	<ele>1193.80</ele>
	<time>2024-03-25T10:51:54.000Z</time>
</trkpt>
<trkpt lat="45.8419910" lon="9.3156000">
	<ele>1193.60</ele>
	<time>2024-03-25T10:51:55.000Z</time>
</trkpt>
<trkpt lat="45.8419880" lon="9.3155860">
	<ele>1193.40</ele>
	<time>2024-03-25T10:51:56.000Z</time>
</trkpt>
<trkpt lat="45.8419870" lon="9.3155740">
	<ele>1193.00</ele>
	<time>2024-03-25T10:51:57.000Z</time>
</trkpt>
<trkpt lat="45.8419860" lon="9.3155610">
	<ele>1192.80</ele>
	<time>2024-03-25T10:51:58.000Z</time>
</trkpt>
<trkpt lat="45.8419880" lon="9.3155490">
	<ele>1192.60</ele>
	<time>2024-03-25T10:51:59.000Z</time>
</trkpt>
<trkpt lat="45.8419960" lon="9.3155390">
	<ele>1192.40</ele>
	<time>2024-03-25T10:52:00.000Z</time>
</trkpt>
<trkpt lat="45.8420030" lon="9.3155250">
	<ele>1192.00</ele>
	<time>2024-03-25T10:52:01.000Z</time>
</trkpt>
<trkpt lat="45.8420060" lon="9.3155090">
	<ele>1191.60</ele>
	<time>2024-03-25T10:52:02.000Z</time>
</trkpt>
<trkpt lat="45.8420070" lon="9.3154910">
	<ele>1191.40</ele>
	<time>2024-03-25T10:52:03.000Z</time>
</trkpt>
<trkpt lat="45.8420080" lon="9.3154750">
	<ele>1191.20</ele>
	<time>2024-03-25T10:52:04.000Z</time>
</trkpt>
<trkpt lat="45.8420060" lon="9.3154570">
	<ele>1191.00</ele>
	<time>2024-03-25T10:52:05.000Z</time>
</trkpt>
<trkpt lat="45.8420050" lon="9.3154430">
	<ele>1190.80</ele>
	<time>2024-03-25T10:52:06.000Z</time>
</trkpt>
<trkpt lat="45.8419990" lon="9.3154320">
	<ele>1190.60</ele>
	<time>2024-03-25T10:52:07.000Z</time>
</trkpt>
<trkpt lat="45.8419910" lon="9.3154210">
	<ele>1190.20</ele>
	<time>2024-03-25T10:52:08.000Z</time>
</trkpt>
<trkpt lat="45.8419870" lon="9.3154140">
	<ele>1190.00</ele>
	<time>2024-03-25T10:52:09.000Z</time>
</trkpt>
<trkpt lat="45.8419860" lon="9.3154060">
	<ele>1189.80</ele>
	<time>2024-03-25T10:52:10.000Z</time>
</trkpt>
<trkpt lat="45.8419850" lon="9.3153930">
	<ele>1189.60</ele>
	<time>2024-03-25T10:52:11.000Z</time>
</trkpt>
<trkpt lat="45.8419850" lon="9.3153800">
	<ele>1189.60</ele>
	<time>2024-03-25T10:52:12.000Z</time>
</trkpt>
<trkpt lat="45.8419880" lon="9.3153650">
	<ele>1189.40</ele>
	<time>2024-03-25T10:52:13.000Z</time>
</trkpt>
<trkpt lat="45.8419920" lon="9.3153530">
	<ele>1189.20</ele>
	<time>2024-03-25T10:52:14.000Z</time>
</trkpt>
<trkpt lat="45.8419930" lon="9.3153420">
	<ele>1189.00</ele>
	<time>2024-03-25T10:52:15.000Z</time>
</trkpt>
<trkpt lat="45.8419950" lon="9.3153310">
	<ele>1188.60</ele>
	<time>2024-03-25T10:52:16.000Z</time>
</trkpt>
<trkpt lat="45.8419980" lon="9.3153190">
	<ele>1188.40</ele>
	<time>2024-03-25T10:52:17.000Z</time>
</trkpt>
<trkpt lat="45.8420020" lon="9.3153030">
	<ele>1188.20</ele>
	<time>2024-03-25T10:52:18.000Z</time>
</trkpt>
<trkpt lat="45.8420070" lon="9.3152900">
	<ele>1188.00</ele>
	<time>2024-03-25T10:52:19.000Z</time>
</trkpt>
<trkpt lat="45.8420110" lon="9.3152760">
	<ele>1188.00</ele>
	<time>2024-03-25T10:52:20.000Z</time>
</trkpt>
<trkpt lat="45.8420140" lon="9.3152650">
	<ele>1187.60</ele>
	<time>2024-03-25T10:52:21.000Z</time>
</trkpt>
<trkpt lat="45.8420170" lon="9.3152530">
	<ele>1187.20</ele>
	<time>2024-03-25T10:52:22.000Z</time>
</trkpt>
<trkpt lat="45.8420210" lon="9.3152430">
	<ele>1187.00</ele>
	<time>2024-03-25T10:52:23.000Z</time>
</trkpt>
<trkpt lat="45.8420250" lon="9.3152340">
	<ele>1186.80</ele>
	<time>2024-03-25T10:52:24.000Z</time>
</trkpt>
<trkpt lat="45.8420280" lon="9.3152260">
	<ele>1186.80</ele>
	<time>2024-03-25T10:52:25.000Z</time>
</trkpt>
<trkpt lat="45.8420320" lon="9.3152150">
	<ele>1186.60</ele>
	<time>2024-03-25T10:52:26.000Z</time>
</trkpt>
<trkpt lat="45.8420370" lon="9.3152020">
	<ele>1186.20</ele>
	<time>2024-03-25T10:52:27.000Z</time>
</trkpt>
<trkpt lat="45.8420460" lon="9.3151910">
	<ele>1186.00</ele>
	<time>2024-03-25T10:52:28.000Z</time>
</trkpt>
<trkpt lat="45.8420590" lon="9.3151830">
	<ele>1186.00</ele>
	<time>2024-03-25T10:52:29.000Z</time>
</trkpt>
<trkpt lat="45.8420700" lon="9.3151740">
	<ele>1185.80</ele>
	<time>2024-03-25T10:52:30.000Z</time>
</trkpt>
<trkpt lat="45.8420790" lon="9.3151660">
	<ele>1185.80</ele>
	<time>2024-03-25T10:52:31.000Z</time>
</trkpt>
<trkpt lat="45.8420860" lon="9.3151560">
	<ele>1185.60</ele>
	<time>2024-03-25T10:52:32.000Z</time>
</trkpt>
<trkpt lat="45.8420890" lon="9.3151440">
	<ele>1185.40</ele>
	<time>2024-03-25T10:52:33.000Z</time>
</trkpt>
<trkpt lat="45.8420860" lon="9.3151300">
	<ele>1185.40</ele>
	<time>2024-03-25T10:52:34.000Z</time>
</trkpt>
<trkpt lat="45.8420840" lon="9.3151180">
	<ele>1185.20</ele>
	<time>2024-03-25T10:52:35.000Z</time>
</trkpt>
<trkpt lat="45.8420790" lon="9.3151040">
	<ele>1185.20</ele>
	<time>2024-03-25T10:52:36.000Z</time>
</trkpt>
<trkpt lat="45.8420770" lon="9.3150950">
	<ele>1184.80</ele>
	<time>2024-03-25T10:52:37.000Z</time>
</trkpt>
<trkpt lat="45.8420760" lon="9.3150850">
	<ele>1184.60</ele>
	<time>2024-03-25T10:52:38.000Z</time>
</trkpt>
<trkpt lat="45.8420750" lon="9.3150740">
	<ele>1184.60</ele>
	<time>2024-03-25T10:52:39.000Z</time>
</trkpt>
<trkpt lat="45.8420740" lon="9.3150640">
	<ele>1184.40</ele>
	<time>2024-03-25T10:52:40.000Z</time>
</trkpt>
<trkpt lat="45.8420760" lon="9.3150570">
	<ele>1184.20</ele>
	<time>2024-03-25T10:52:41.000Z</time>
</trkpt>
<trkpt lat="45.8420770" lon="9.3150490">
	<ele>1184.00</ele>
	<time>2024-03-25T10:52:42.000Z</time>
</trkpt>
<trkpt lat="45.8420810" lon="9.3150380">
	<ele>1183.80</ele>
	<time>2024-03-25T10:52:43.000Z</time>
</trkpt>
<trkpt lat="45.8420840" lon="9.3150260">
	<ele>1183.60</ele>
	<time>2024-03-25T10:52:44.000Z</time>
</trkpt>
<trkpt lat="45.8420850" lon="9.3150170">
	<ele>1183.40</ele>
	<time>2024-03-25T10:52:45.000Z</time>
</trkpt>
<trkpt lat="45.8420900" lon="9.3150080">
	<ele>1183.00</ele>
	<time>2024-03-25T10:52:46.000Z</time>
</trkpt>
<trkpt lat="45.8420960" lon="9.3149970">
	<ele>1182.80</ele>
	<time>2024-03-25T10:52:47.000Z</time>
</trkpt>
<trkpt lat="45.8421000" lon="9.3149890">
	<ele>1182.60</ele>
	<time>2024-03-25T10:52:48.000Z</time>
</trkpt>
<trkpt lat="45.8421020" lon="9.3149760">
	<ele>1182.40</ele>
	<time>2024-03-25T10:52:49.000Z</time>
</trkpt>
<trkpt lat="45.8421020" lon="9.3149650">
	<ele>1182.20</ele>
	<time>2024-03-25T10:52:50.000Z</time>
</trkpt>
<trkpt lat="45.8421010" lon="9.3149510">
	<ele>1182.00</ele>
	<time>2024-03-25T10:52:51.000Z</time>
</trkpt>
<trkpt lat="45.8421030" lon="9.3149410">
	<ele>1181.80</ele>
	<time>2024-03-25T10:52:52.000Z</time>
</trkpt>
<trkpt lat="45.8421070" lon="9.3149340">
	<ele>1181.60</ele>
	<time>2024-03-25T10:52:53.000Z</time>
</trkpt>
<trkpt lat="45.8421110" lon="9.3149270">
	<ele>1181.40</ele>
	<time>2024-03-25T10:52:54.000Z</time>
</trkpt>
<trkpt lat="45.8421160" lon="9.3149190">
	<ele>1181.20</ele>
	<time>2024-03-25T10:52:55.000Z</time>
</trkpt>
<trkpt lat="45.8421210" lon="9.3149180">
	<ele>1181.00</ele>
	<time>2024-03-25T10:52:56.000Z</time>
</trkpt>
<trkpt lat="45.8421220" lon="9.3149130">
	<ele>1180.80</ele>
	<time>2024-03-25T10:52:57.000Z</time>
</trkpt>
<trkpt lat="45.8421260" lon="9.3149060">
	<ele>1180.60</ele>
	<time>2024-03-25T10:52:58.000Z</time>
</trkpt>
<trkpt lat="45.8421300" lon="9.3148980">
	<ele>1180.20</ele>
	<time>2024-03-25T10:52:59.000Z</time>
</trkpt>
<trkpt lat="45.8421320" lon="9.3148920">
	<ele>1179.80</ele>
	<time>2024-03-25T10:53:00.000Z</time>
</trkpt>
<trkpt lat="45.8421320" lon="9.3148790">
	<ele>1179.60</ele>
	<time>2024-03-25T10:53:01.000Z</time>
</trkpt>
<trkpt lat="45.8421330" lon="9.3148690">
	<ele>1179.60</ele>
	<time>2024-03-25T10:53:02.000Z</time>
</trkpt>
<trkpt lat="45.8421350" lon="9.3148610">
	<ele>1179.40</ele>
	<time>2024-03-25T10:53:03.000Z</time>
</trkpt>
<trkpt lat="45.8421410" lon="9.3148590">
	<ele>1179.20</ele>
	<time>2024-03-25T10:53:04.000Z</time>
</trkpt>
<trkpt lat="45.8421490" lon="9.3148560">
	<ele>1179.00</ele>
	<time>2024-03-25T10:53:05.000Z</time>
</trkpt>
<trkpt lat="45.8421550" lon="9.3148480">
	<ele>1178.80</ele>
	<time>2024-03-25T10:53:06.000Z</time>
</trkpt>
<trkpt lat="45.8421580" lon="9.3148350">
	<ele>1178.60</ele>
	<time>2024-03-25T10:53:07.000Z</time>
</trkpt>
<trkpt lat="45.8421580" lon="9.3148220">
	<ele>1178.40</ele>
	<time>2024-03-25T10:53:08.000Z</time>
</trkpt>
<trkpt lat="45.8421580" lon="9.3148090">
	<ele>1178.00</ele>
	<time>2024-03-25T10:53:09.000Z</time>
</trkpt>
<trkpt lat="45.8421550" lon="9.3147990">
	<ele>1177.80</ele>
	<time>2024-03-25T10:53:10.000Z</time>
</trkpt>
<trkpt lat="45.8421520" lon="9.3147930">
	<ele>1177.60</ele>
	<time>2024-03-25T10:53:11.000Z</time>
</trkpt>
<trkpt lat="45.8421480" lon="9.3147850">
	<ele>1177.40</ele>
	<time>2024-03-25T10:53:12.000Z</time>
</trkpt>
<trkpt lat="45.8421450" lon="9.3147690">
	<ele>1177.20</ele>
	<time>2024-03-25T10:53:13.000Z</time>
</trkpt>
<trkpt lat="45.8421410" lon="9.3147580">
	<ele>1177.00</ele>
	<time>2024-03-25T10:53:14.000Z</time>
</trkpt>
<trkpt lat="45.8421390" lon="9.3147490">
	<ele>1176.80</ele>
	<time>2024-03-25T10:53:15.000Z</time>
</trkpt>
<trkpt lat="45.8421380" lon="9.3147390">
	<ele>1176.60</ele>
	<time>2024-03-25T10:53:16.000Z</time>
</trkpt>
<trkpt lat="45.8421370" lon="9.3147300">
	<ele>1176.60</ele>
	<time>2024-03-25T10:53:17.000Z</time>
</trkpt>
<trkpt lat="45.8421420" lon="9.3147210">
	<ele>1176.40</ele>
	<time>2024-03-25T10:53:18.000Z</time>
</trkpt>
<trkpt lat="45.8421490" lon="9.3147090">
	<ele>1176.20</ele>
	<time>2024-03-25T10:53:19.000Z</time>
</trkpt>
<trkpt lat="45.8421510" lon="9.3146950">
	<ele>1176.00</ele>
	<time>2024-03-25T10:53:20.000Z</time>
</trkpt>
<trkpt lat="45.8421480" lon="9.3146790">
	<ele>1175.60</ele>
	<time>2024-03-25T10:53:21.000Z</time>
</trkpt>
<trkpt lat="45.8421440" lon="9.3146700">
	<ele>1175.60</ele>
	<time>2024-03-25T10:53:22.000Z</time>
</trkpt>
<trkpt lat="45.8421410" lon="9.3146640">
	<ele>1175.40</ele>
	<time>2024-03-25T10:53:23.000Z</time>
</trkpt>
<trkpt lat="45.8421360" lon="9.3146590">
	<ele>1175.40</ele>
	<time>2024-03-25T10:53:24.000Z</time>
</trkpt>
<trkpt lat="45.8421310" lon="9.3146550">
	<ele>1175.00</ele>
	<time>2024-03-25T10:53:25.000Z</time>
</trkpt>
<trkpt lat="45.8421270" lon="9.3146510">
	<ele>1175.00</ele>
	<time>2024-03-25T10:53:26.000Z</time>
</trkpt>
<trkpt lat="45.8421240" lon="9.3146450">
	<ele>1174.60</ele>
	<time>2024-03-25T10:53:27.000Z</time>
</trkpt>
<trkpt lat="45.8421200" lon="9.3146360">
	<ele>1174.40</ele>
	<time>2024-03-25T10:53:28.000Z</time>
</trkpt>
<trkpt lat="45.8421130" lon="9.3146280">
	<ele>1174.20</ele>
	<time>2024-03-25T10:53:29.000Z</time>
</trkpt>
<trkpt lat="45.8421100" lon="9.3146220">
	<ele>1174.00</ele>
	<time>2024-03-25T10:53:30.000Z</time>
</trkpt>
<trkpt lat="45.8421070" lon="9.3146180">
	<ele>1174.00</ele>
	<time>2024-03-25T10:53:31.000Z</time>
</trkpt>
<trkpt lat="45.8421080" lon="9.3146130">
	<ele>1173.60</ele>
	<time>2024-03-25T10:53:32.000Z</time>
</trkpt>
<trkpt lat="45.8421100" lon="9.3146070">
	<ele>1173.40</ele>
	<time>2024-03-25T10:53:33.000Z</time>
</trkpt>
<trkpt lat="45.8421070" lon="9.3145980">
	<ele>1173.20</ele>
	<time>2024-03-25T10:53:34.000Z</time>
</trkpt>
<trkpt lat="45.8421090" lon="9.3145920">
	<ele>1173.00</ele>
	<time>2024-03-25T10:53:35.000Z</time>
</trkpt>
<trkpt lat="45.8421130" lon="9.3145880">
	<ele>1172.80</ele>
	<time>2024-03-25T10:53:36.000Z</time>
</trkpt>
<trkpt lat="45.8421140" lon="9.3145840">
	<ele>1172.80</ele>
	<time>2024-03-25T10:53:37.000Z</time>
</trkpt>
<trkpt lat="45.8421190" lon="9.3145760">
	<ele>1172.60</ele>
	<time>2024-03-25T10:53:38.000Z</time>
</trkpt>
<trkpt lat="45.8421210" lon="9.3145660">
	<ele>1172.40</ele>
	<time>2024-03-25T10:53:39.000Z</time>
</trkpt>
<trkpt lat="45.8421180" lon="9.3145560">
	<ele>1172.20</ele>
	<time>2024-03-25T10:53:40.000Z</time>
</trkpt>
<trkpt lat="45.8421130" lon="9.3145460">
	<ele>1172.00</ele>
	<time>2024-03-25T10:53:41.000Z</time>
</trkpt>
<trkpt lat="45.8421060" lon="9.3145390">
	<ele>1171.80</ele>
	<time>2024-03-25T10:53:42.000Z</time>
</trkpt>
<trkpt lat="45.8421000" lon="9.3145320">
	<ele>1171.40</ele>
	<time>2024-03-25T10:53:43.000Z</time>
</trkpt>
<trkpt lat="45.8420980" lon="9.3145210">
	<ele>1171.20</ele>
	<time>2024-03-25T10:53:44.000Z</time>
</trkpt>
<trkpt lat="45.8420960" lon="9.3145100">
	<ele>1171.00</ele>
	<time>2024-03-25T10:53:45.000Z</time>
</trkpt>
<trkpt lat="45.8420950" lon="9.3145010">
	<ele>1170.80</ele>
	<time>2024-03-25T10:53:46.000Z</time>
</trkpt>
<trkpt lat="45.8420940" lon="9.3144920">
	<ele>1170.40</ele>
	<time>2024-03-25T10:53:47.000Z</time>
</trkpt>
<trkpt lat="45.8420890" lon="9.3144860">
	<ele>1170.20</ele>
	<time>2024-03-25T10:53:48.000Z</time>
</trkpt>
<trkpt lat="45.8420840" lon="9.3144800">
	<ele>1170.20</ele>
	<time>2024-03-25T10:53:49.000Z</time>
</trkpt>
<trkpt lat="45.8420810" lon="9.3144670">
	<ele>1170.00</ele>
	<time>2024-03-25T10:53:50.000Z</time>
</trkpt>
<trkpt lat="45.8420810" lon="9.3144550">
	<ele>1169.80</ele>
	<time>2024-03-25T10:53:51.000Z</time>
</trkpt>
<trkpt lat="45.8420830" lon="9.3144450">
	<ele>1169.60</ele>
	<time>2024-03-25T10:53:52.000Z</time>
</trkpt>
<trkpt lat="45.8420850" lon="9.3144370">
	<ele>1169.20</ele>
	<time>2024-03-25T10:53:53.000Z</time>
</trkpt>
<trkpt lat="45.8420870" lon="9.3144280">
	<ele>1169.00</ele>
	<time>2024-03-25T10:53:54.000Z</time>
</trkpt>
<trkpt lat="45.8420880" lon="9.3144190">
	<ele>1168.80</ele>
	<time>2024-03-25T10:53:55.000Z</time>
</trkpt>
<trkpt lat="45.8420890" lon="9.3144150">
	<ele>1168.80</ele>
	<time>2024-03-25T10:53:56.000Z</time>
</trkpt>
<trkpt lat="45.8420850" lon="9.3144070">
	<ele>1168.40</ele>
	<time>2024-03-25T10:53:57.000Z</time>
</trkpt>
<trkpt lat="45.8420790" lon="9.3143950">
	<ele>1168.20</ele>
	<time>2024-03-25T10:53:58.000Z</time>
</trkpt>
<trkpt lat="45.8420750" lon="9.3143850">
	<ele>1168.00</ele>
	<time>2024-03-25T10:53:59.000Z</time>
</trkpt>
<trkpt lat="45.8420720" lon="9.3143710">
	<ele>1167.80</ele>
	<time>2024-03-25T10:54:00.000Z</time>
</trkpt>
<trkpt lat="45.8420700" lon="9.3143650">
	<ele>1167.40</ele>
	<time>2024-03-25T10:54:01.000Z</time>
</trkpt>
<trkpt lat="45.8420700" lon="9.3143530">
	<ele>1167.20</ele>
	<time>2024-03-25T10:54:02.000Z</time>
</trkpt>
<trkpt lat="45.8420730" lon="9.3143450">
	<ele>1167.20</ele>
	<time>2024-03-25T10:54:03.000Z</time>
</trkpt>
<trkpt lat="45.8420820" lon="9.3143400">
	<ele>1167.00</ele>
	<time>2024-03-25T10:54:04.000Z</time>
</trkpt>
<trkpt lat="45.8420910" lon="9.3143340">
	<ele>1166.80</ele>
	<time>2024-03-25T10:54:05.000Z</time>
</trkpt>
<trkpt lat="45.8420990" lon="9.3143240">
	<ele>1166.40</ele>
	<time>2024-03-25T10:54:06.000Z</time>
</trkpt>
<trkpt lat="45.8421030" lon="9.3143110">
	<ele>1166.20</ele>
	<time>2024-03-25T10:54:07.000Z</time>
</trkpt>
<trkpt lat="45.8421000" lon="9.3142950">
	<ele>1166.00</ele>
	<time>2024-03-25T10:54:08.000Z</time>
</trkpt>
<trkpt lat="45.8421000" lon="9.3142840">
	<ele>1165.80</ele>
	<time>2024-03-25T10:54:09.000Z</time>
</trkpt>
<trkpt lat="45.8420970" lon="9.3142730">
	<ele>1165.60</ele>
	<time>2024-03-25T10:54:10.000Z</time>
</trkpt>
<trkpt lat="45.8420960" lon="9.3142600">
	<ele>1165.60</ele>
	<time>2024-03-25T10:54:11.000Z</time>
</trkpt>
<trkpt lat="45.8420930" lon="9.3142470">
	<ele>1165.20</ele>
	<time>2024-03-25T10:54:12.000Z</time>
</trkpt>
<trkpt lat="45.8420940" lon="9.3142310">
	<ele>1165.00</ele>
	<time>2024-03-25T10:54:13.000Z</time>
</trkpt>
<trkpt lat="45.8420940" lon="9.3142200">
	<ele>1164.80</ele>
	<time>2024-03-25T10:54:14.000Z</time>
</trkpt>
<trkpt lat="45.8420920" lon="9.3142070">
	<ele>1164.60</ele>
	<time>2024-03-25T10:54:15.000Z</time>
</trkpt>
<trkpt lat="45.8420880" lon="9.3141980">
	<ele>1164.40</ele>
	<time>2024-03-25T10:54:16.000Z</time>
</trkpt>
<trkpt lat="45.8420810" lon="9.3141910">
	<ele>1164.20</ele>
	<time>2024-03-25T10:54:17.000Z</time>
</trkpt>
<trkpt lat="45.8420760" lon="9.3141850">
	<ele>1164.00</ele>
	<time>2024-03-25T10:54:18.000Z</time>
</trkpt>
<trkpt lat="45.8420730" lon="9.3141810">
	<ele>1164.00</ele>
	<time>2024-03-25T10:54:19.000Z</time>
</trkpt>
<trkpt lat="45.8420710" lon="9.3141790">
	<ele>1163.80</ele>
	<time>2024-03-25T10:54:20.000Z</time>
</trkpt>
<trkpt lat="45.8420700" lon="9.3141780">
	<ele>1163.60</ele>
	<time>2024-03-25T10:54:21.000Z</time>
</trkpt>
<trkpt lat="45.8420710" lon="9.3141730">
	<ele>1163.60</ele>
	<time>2024-03-25T10:54:22.000Z</time>
</trkpt>
<trkpt lat="45.8420720" lon="9.3141700">
	<ele>1163.40</ele>
	<time>2024-03-25T10:54:23.000Z</time>
</trkpt>
<trkpt lat="45.8420670" lon="9.3141630">
	<ele>1163.20</ele>
	<time>2024-03-25T10:54:24.000Z</time>
</trkpt>
<trkpt lat="45.8420640" lon="9.3141570">
	<ele>1163.20</ele>
	<time>2024-03-25T10:54:25.000Z</time>
</trkpt>
<trkpt lat="45.8420660" lon="9.3141530">
	<ele>1163.00</ele>
	<time>2024-03-25T10:54:26.000Z</time>
</trkpt>
<trkpt lat="45.8420680" lon="9.3141470">
	<ele>1163.00</ele>
	<time>2024-03-25T10:54:27.000Z</time>
</trkpt>
<trkpt lat="45.8420700" lon="9.3141400">
	<ele>1162.60</ele>
	<time>2024-03-25T10:54:28.000Z</time>
</trkpt>
<trkpt lat="45.8420730" lon="9.3141330">
	<ele>1162.40</ele>
	<time>2024-03-25T10:54:29.000Z</time>
</trkpt>
<trkpt lat="45.8420750" lon="9.3141260">
	<ele>1162.00</ele>
	<time>2024-03-25T10:54:30.000Z</time>
</trkpt>
<trkpt lat="45.8420780" lon="9.3141190">
	<ele>1161.60</ele>
	<time>2024-03-25T10:54:31.000Z</time>
</trkpt>
<trkpt lat="45.8420790" lon="9.3141090">
	<ele>1161.40</ele>
	<time>2024-03-25T10:54:32.000Z</time>
</trkpt>
<trkpt lat="45.8420780" lon="9.3140960">
	<ele>1161.20</ele>
	<time>2024-03-25T10:54:33.000Z</time>
</trkpt>
<trkpt lat="45.8420750" lon="9.3140840">
	<ele>1161.00</ele>
	<time>2024-03-25T10:54:34.000Z</time>
</trkpt>
<trkpt lat="45.8420730" lon="9.3140760">
	<ele>1160.80</ele>
	<time>2024-03-25T10:54:35.000Z</time>
</trkpt>
<trkpt lat="45.8420730" lon="9.3140710">
	<ele>1160.60</ele>
	<time>2024-03-25T10:54:36.000Z</time>
</trkpt>
<trkpt lat="45.8420770" lon="9.3140640">
	<ele>1160.40</ele>
	<time>2024-03-25T10:54:37.000Z</time>
</trkpt>
<trkpt lat="45.8420830" lon="9.3140550">
	<ele>1160.20</ele>
	<time>2024-03-25T10:54:38.000Z</time>
</trkpt>
<trkpt lat="45.8420820" lon="9.3140400">
	<ele>1160.00</ele>
	<time>2024-03-25T10:54:39.000Z</time>
</trkpt>
<trkpt lat="45.8420790" lon="9.3140270">
	<ele>1159.80</ele>
	<time>2024-03-25T10:54:40.000Z</time>
</trkpt>
<trkpt lat="45.8420770" lon="9.3140180">
	<ele>1159.60</ele>
	<time>2024-03-25T10:54:41.000Z</time>
</trkpt>
<trkpt lat="45.8420730" lon="9.3140080">
	<ele>1159.60</ele>
	<time>2024-03-25T10:54:42.000Z</time>
</trkpt>
<trkpt lat="45.8420730" lon="9.3139980">
	<ele>1159.40</ele>
	<time>2024-03-25T10:54:43.000Z</time>
</trkpt>
<trkpt lat="45.8420670" lon="9.3139870">
	<ele>1159.20</ele>
	<time>2024-03-25T10:54:44.000Z</time>
</trkpt>
<trkpt lat="45.8420630" lon="9.3139790">
	<ele>1159.00</ele>
	<time>2024-03-25T10:54:45.000Z</time>
</trkpt>
<trkpt lat="45.8420570" lon="9.3139690">
	<ele>1158.80</ele>
	<time>2024-03-25T10:54:46.000Z</time>
</trkpt>
<trkpt lat="45.8420570" lon="9.3139610">
	<ele>1158.40</ele>
	<time>2024-03-25T10:54:47.000Z</time>
</trkpt>
<trkpt lat="45.8420650" lon="9.3139540">
	<ele>1158.20</ele>
	<time>2024-03-25T10:54:48.000Z</time>
</trkpt>
<trkpt lat="45.8420710" lon="9.3139450">
	<ele>1158.00</ele>
	<time>2024-03-25T10:54:49.000Z</time>
</trkpt>
<trkpt lat="45.8420700" lon="9.3139340">
	<ele>1157.80</ele>
	<time>2024-03-25T10:54:50.000Z</time>
</trkpt>
<trkpt lat="45.8420650" lon="9.3139220">
	<ele>1157.60</ele>
	<time>2024-03-25T10:54:51.000Z</time>
</trkpt>
<trkpt lat="45.8420570" lon="9.3139120">
	<ele>1157.40</ele>
	<time>2024-03-25T10:54:52.000Z</time>
</trkpt>
<trkpt lat="45.8420560" lon="9.3139020">
	<ele>1157.40</ele>
	<time>2024-03-25T10:54:53.000Z</time>
</trkpt>
<trkpt lat="45.8420580" lon="9.3138930">
	<ele>1157.20</ele>
	<time>2024-03-25T10:54:54.000Z</time>
</trkpt>
<trkpt lat="45.8420590" lon="9.3138790">
	<ele>1157.20</ele>
	<time>2024-03-25T10:54:55.000Z</time>
</trkpt>
<trkpt lat="45.8420600" lon="9.3138640">
	<ele>1156.80</ele>
	<time>2024-03-25T10:54:56.000Z</time>
</trkpt>
<trkpt lat="45.8420560" lon="9.3138460">
	<ele>1156.60</ele>
	<time>2024-03-25T10:54:57.000Z</time>
</trkpt>
<trkpt lat="45.8420550" lon="9.3138280">
	<ele>1156.20</ele>
	<time>2024-03-25T10:54:58.000Z</time>
</trkpt>
<trkpt lat="45.8420520" lon="9.3138110">
	<ele>1156.00</ele>
	<time>2024-03-25T10:54:59.000Z</time>
</trkpt>
<trkpt lat="45.8420530" lon="9.3137930">
	<ele>1155.80</ele>
	<time>2024-03-25T10:55:00.000Z</time>
</trkpt>
<trkpt lat="45.8420500" lon="9.3137780">
	<ele>1155.80</ele>
	<time>2024-03-25T10:55:01.000Z</time>
</trkpt>
<trkpt lat="45.8420470" lon="9.3137660">
	<ele>1155.60</ele>
	<time>2024-03-25T10:55:02.000Z</time>
</trkpt>
<trkpt lat="45.8420420" lon="9.3137530">
	<ele>1155.40</ele>
	<time>2024-03-25T10:55:03.000Z</time>
</trkpt>
<trkpt lat="45.8420440" lon="9.3137420">
	<ele>1155.40</ele>
	<time>2024-03-25T10:55:04.000Z</time>
</trkpt>
<trkpt lat="45.8420470" lon="9.3137310">
	<ele>1155.20</ele>
	<time>2024-03-25T10:55:05.000Z</time>
</trkpt>
<trkpt lat="45.8420520" lon="9.3137220">
	<ele>1155.20</ele>
	<time>2024-03-25T10:55:06.000Z</time>
</trkpt>
<trkpt lat="45.8420560" lon="9.3137140">
	<ele>1155.00</ele>
	<time>2024-03-25T10:55:07.000Z</time>
</trkpt>
<trkpt lat="45.8420640" lon="9.3137060">
	<ele>1154.80</ele>
	<time>2024-03-25T10:55:08.000Z</time>
</trkpt>
<trkpt lat="45.8420720" lon="9.3137020">
	<ele>1154.60</ele>
	<time>2024-03-25T10:55:09.000Z</time>
</trkpt>
<trkpt lat="45.8420810" lon="9.3136950">
	<ele>1154.40</ele>
	<time>2024-03-25T10:55:10.000Z</time>
</trkpt>
<trkpt lat="45.8420860" lon="9.3136800">
	<ele>1154.20</ele>
	<time>2024-03-25T10:55:11.000Z</time>
</trkpt>
<trkpt lat="45.8420830" lon="9.3136630">
	<ele>1154.00</ele>
	<time>2024-03-25T10:55:12.000Z</time>
</trkpt>
<trkpt lat="45.8420780" lon="9.3136480">
	<ele>1153.60</ele>
	<time>2024-03-25T10:55:13.000Z</time>
</trkpt>
<trkpt lat="45.8420780" lon="9.3136330">
	<ele>1153.20</ele>
	<time>2024-03-25T10:55:14.000Z</time>
</trkpt>
<trkpt lat="45.8420790" lon="9.3136220">
	<ele>1153.00</ele>
	<time>2024-03-25T10:55:15.000Z</time>
</trkpt>
<trkpt lat="45.8420830" lon="9.3136100">
	<ele>1152.80</ele>
	<time>2024-03-25T10:55:16.000Z</time>
</trkpt>
<trkpt lat="45.8420870" lon="9.3135970">
	<ele>1152.60</ele>
	<time>2024-03-25T10:55:17.000Z</time>
</trkpt>
<trkpt lat="45.8420920" lon="9.3135860">
	<ele>1152.40</ele>
	<time>2024-03-25T10:55:18.000Z</time>
</trkpt>
<trkpt lat="45.8420970" lon="9.3135770">
	<ele>1152.00</ele>
	<time>2024-03-25T10:55:19.000Z</time>
</trkpt>
<trkpt lat="45.8421010" lon="9.3135660">
	<ele>1151.60</ele>
	<time>2024-03-25T10:55:20.000Z</time>
</trkpt>
<trkpt lat="45.8421040" lon="9.3135530">
	<ele>1151.40</ele>
	<time>2024-03-25T10:55:21.000Z</time>
</trkpt>
<trkpt lat="45.8421060" lon="9.3135360">
	<ele>1151.40</ele>
	<time>2024-03-25T10:55:22.000Z</time>
</trkpt>
<trkpt lat="45.8421100" lon="9.3135220">
	<ele>1151.20</ele>
	<time>2024-03-25T10:55:23.000Z</time>
</trkpt>
<trkpt lat="45.8421120" lon="9.3135070">
	<ele>1151.00</ele>
	<time>2024-03-25T10:55:24.000Z</time>
</trkpt>
<trkpt lat="45.8421150" lon="9.3134930">
	<ele>1150.80</ele>
	<time>2024-03-25T10:55:25.000Z</time>
</trkpt>
<trkpt lat="45.8421160" lon="9.3134820">
	<ele>1150.60</ele>
	<time>2024-03-25T10:55:26.000Z</time>
</trkpt>
<trkpt lat="45.8421160" lon="9.3134710">
	<ele>1150.60</ele>
	<time>2024-03-25T10:55:27.000Z</time>
</trkpt>
<trkpt lat="45.8421200" lon="9.3134630">
	<ele>1150.20</ele>
	<time>2024-03-25T10:55:28.000Z</time>
</trkpt>
<trkpt lat="45.8421240" lon="9.3134520">
	<ele>1150.00</ele>
	<time>2024-03-25T10:55:29.000Z</time>
</trkpt>
<trkpt lat="45.8421280" lon="9.3134390">
	<ele>1149.80</ele>
	<time>2024-03-25T10:55:30.000Z</time>
</trkpt>
<trkpt lat="45.8421300" lon="9.3134240">
	<ele>1149.40</ele>
	<time>2024-03-25T10:55:31.000Z</time>
</trkpt>
<trkpt lat="45.8421320" lon="9.3134110">
	<ele>1149.20</ele>
	<time>2024-03-25T10:55:32.000Z</time>
</trkpt>
<trkpt lat="45.8421330" lon="9.3134010">
	<ele>1148.80</ele>
	<time>2024-03-25T10:55:33.000Z</time>
</trkpt>
<trkpt lat="45.8421380" lon="9.3133950">
	<ele>1148.60</ele>
	<time>2024-03-25T10:55:34.000Z</time>
</trkpt>
<trkpt lat="45.8421450" lon="9.3133890">
	<ele>1148.20</ele>
	<time>2024-03-25T10:55:35.000Z</time>
</trkpt>
<trkpt lat="45.8421510" lon="9.3133810">
	<ele>1147.80</ele>
	<time>2024-03-25T10:55:36.000Z</time>
</trkpt>
<trkpt lat="45.8421550" lon="9.3133690">
	<ele>1147.60</ele>
	<time>2024-03-25T10:55:37.000Z</time>
</trkpt>
<trkpt lat="45.8421550" lon="9.3133550">
	<ele>1147.40</ele>
	<time>2024-03-25T10:55:38.000Z</time>
</trkpt>
<trkpt lat="45.8421540" lon="9.3133440">
	<ele>1147.40</ele>
	<time>2024-03-25T10:55:39.000Z</time>
</trkpt>
<trkpt lat="45.8421490" lon="9.3133340">
	<ele>1147.20</ele>
	<time>2024-03-25T10:55:40.000Z</time>
</trkpt>
<trkpt lat="45.8421440" lon="9.3133230">
	<ele>1147.00</ele>
	<time>2024-03-25T10:55:41.000Z</time>
</trkpt>
<trkpt lat="45.8421430" lon="9.3133140">
	<ele>1146.60</ele>
	<time>2024-03-25T10:55:42.000Z</time>
</trkpt>
<trkpt lat="45.8421400" lon="9.3133050">
	<ele>1146.20</ele>
	<time>2024-03-25T10:55:43.000Z</time>
</trkpt>
<trkpt lat="45.8421400" lon="9.3132960">
	<ele>1146.00</ele>
	<time>2024-03-25T10:55:44.000Z</time>
</trkpt>
<trkpt lat="45.8421410" lon="9.3132860">
	<ele>1145.80</ele>
	<time>2024-03-25T10:55:45.000Z</time>
</trkpt>
<trkpt lat="45.8421450" lon="9.3132750">
	<ele>1145.40</ele>
	<time>2024-03-25T10:55:46.000Z</time>
</trkpt>
<trkpt lat="45.8421500" lon="9.3132640">
	<ele>1145.20</ele>
	<time>2024-03-25T10:55:47.000Z</time>
</trkpt>
<trkpt lat="45.8421540" lon="9.3132540">
	<ele>1144.80</ele>
	<time>2024-03-25T10:55:48.000Z</time>
</trkpt>
<trkpt lat="45.8421540" lon="9.3132340">
	<ele>1144.60</ele>
	<time>2024-03-25T10:55:49.000Z</time>
</trkpt>
<trkpt lat="45.8421550" lon="9.3132220">
	<ele>1144.20</ele>
	<time>2024-03-25T10:55:50.000Z</time>
</trkpt>
<trkpt lat="45.8421550" lon="9.3132180">
	<ele>1144.20</ele>
	<time>2024-03-25T10:55:51.000Z</time>
</trkpt>
<trkpt lat="45.8421570" lon="9.3132060">
	<ele>1143.80</ele>
	<time>2024-03-25T10:55:52.000Z</time>
</trkpt>
<trkpt lat="45.8421600" lon="9.3131930">
	<ele>1143.40</ele>
	<time>2024-03-25T10:55:53.000Z</time>
</trkpt>
<trkpt lat="45.8421600" lon="9.3131770">
	<ele>1143.00</ele>
	<time>2024-03-25T10:55:54.000Z</time>
</trkpt>
<trkpt lat="45.8421570" lon="9.3131610">
	<ele>1142.80</ele>
	<time>2024-03-25T10:55:55.000Z</time>
</trkpt>
<trkpt lat="45.8421560" lon="9.3131450">
	<ele>1142.60</ele>
	<time>2024-03-25T10:55:56.000Z</time>
</trkpt>
<trkpt lat="45.8421520" lon="9.3131290">
	<ele>1142.60</ele>
	<time>2024-03-25T10:55:57.000Z</time>
</trkpt>
<trkpt lat="45.8421470" lon="9.3131190">
	<ele>1142.40</ele>
	<time>2024-03-25T10:55:58.000Z</time>
</trkpt>
<trkpt lat="45.8421450" lon="9.3131080">
	<ele>1142.20</ele>
	<time>2024-03-25T10:55:59.000Z</time>
</trkpt>
<trkpt lat="45.8421440" lon="9.3130970">
	<ele>1141.80</ele>
	<time>2024-03-25T10:56:00.000Z</time>
</trkpt>
<trkpt lat="45.8421400" lon="9.3130860">
	<ele>1141.40</ele>
	<time>2024-03-25T10:56:01.000Z</time>
</trkpt>
<trkpt lat="45.8421360" lon="9.3130760">
	<ele>1141.20</ele>
	<time>2024-03-25T10:56:02.000Z</time>
</trkpt>
<trkpt lat="45.8421340" lon="9.3130710">
	<ele>1141.00</ele>
	<time>2024-03-25T10:56:03.000Z</time>
</trkpt>
<trkpt lat="45.8421330" lon="9.3130700">
	<ele>1140.80</ele>
	<time>2024-03-25T10:56:04.000Z</time>
</trkpt>
<trkpt lat="45.8421330" lon="9.3130700">
	<ele>1140.60</ele>
	<time>2024-03-25T10:56:05.000Z</time>
</trkpt>
<trkpt lat="45.8421340" lon="9.3130730">
	<ele>1140.40</ele>
	<time>2024-03-25T10:56:06.000Z</time>
</trkpt>
<trkpt lat="45.8421320" lon="9.3130760">
	<ele>1140.40</ele>
	<time>2024-03-25T10:56:07.000Z</time>
</trkpt>
<trkpt lat="45.8421270" lon="9.3130790">
	<ele>1140.40</ele>
	<time>2024-03-25T10:56:08.000Z</time>
</trkpt>
<trkpt lat="45.8421260" lon="9.3130800">
	<ele>1140.40</ele>
	<time>2024-03-25T10:56:09.000Z</time>
</trkpt>
<trkpt lat="45.8421250" lon="9.3130810">
	<ele>1140.40</ele>
	<time>2024-03-25T10:56:10.000Z</time>
</trkpt>
<trkpt lat="45.8421260" lon="9.3130780">
	<ele>1140.40</ele>
	<time>2024-03-25T10:56:11.000Z</time>
</trkpt>
<trkpt lat="45.8421260" lon="9.3130720">
	<ele>1140.60</ele>
	<time>2024-03-25T10:56:12.000Z</time>
</trkpt>
<trkpt lat="45.8421260" lon="9.3130630">
	<ele>1140.60</ele>
	<time>2024-03-25T10:56:13.000Z</time>
</trkpt>
<trkpt lat="45.8421300" lon="9.3130520">
	<ele>1140.60</ele>
	<time>2024-03-25T10:56:14.000Z</time>
</trkpt>
<trkpt lat="45.8421340" lon="9.3130400">
	<ele>1140.40</ele>
	<time>2024-03-25T10:56:15.000Z</time>
</trkpt>
<trkpt lat="45.8421320" lon="9.3130230">
	<ele>1140.40</ele>
	<time>2024-03-25T10:56:16.000Z</time>
</trkpt>
<trkpt lat="45.8421290" lon="9.3130070">
	<ele>1140.20</ele>
	<time>2024-03-25T10:56:17.000Z</time>
</trkpt>
<trkpt lat="45.8421280" lon="9.3129930">
	<ele>1140.00</ele>
	<time>2024-03-25T10:56:18.000Z</time>
</trkpt>
<trkpt lat="45.8421240" lon="9.3129780">
	<ele>1139.80</ele>
	<time>2024-03-25T10:56:19.000Z</time>
</trkpt>
<trkpt lat="45.8421200" lon="9.3129620">
	<ele>1139.60</ele>
	<time>2024-03-25T10:56:20.000Z</time>
</trkpt>
<trkpt lat="45.8421120" lon="9.3129490">
	<ele>1139.60</ele>
	<time>2024-03-25T10:56:21.000Z</time>
</trkpt>
<trkpt lat="45.8421050" lon="9.3129380">
	<ele>1139.20</ele>
	<time>2024-03-25T10:56:22.000Z</time>
</trkpt>
<trkpt lat="45.8421000" lon="9.3129260">
	<ele>1139.00</ele>
	<time>2024-03-25T10:56:23.000Z</time>
</trkpt>
<trkpt lat="45.8420980" lon="9.3129120">
	<ele>1139.00</ele>
	<time>2024-03-25T10:56:24.000Z</time>
</trkpt>
<trkpt lat="45.8420960" lon="9.3128980">
	<ele>1138.80</ele>
	<time>2024-03-25T10:56:25.000Z</time>
</trkpt>
<trkpt lat="45.8420910" lon="9.3128850">
	<ele>1138.80</ele>
	<time>2024-03-25T10:56:26.000Z</time>
</trkpt>
<trkpt lat="45.8420850" lon="9.3128730">
	<ele>1138.60</ele>
	<time>2024-03-25T10:56:27.000Z</time>
</trkpt>
<trkpt lat="45.8420790" lon="9.3128580">
	<ele>1138.40</ele>
	<time>2024-03-25T10:56:28.000Z</time>
</trkpt>
<trkpt lat="45.8420730" lon="9.3128430">
	<ele>1138.20</ele>
	<time>2024-03-25T10:56:29.000Z</time>
</trkpt>
<trkpt lat="45.8420650" lon="9.3128290">
	<ele>1138.00</ele>
	<time>2024-03-25T10:56:30.000Z</time>
</trkpt>
<trkpt lat="45.8420610" lon="9.3128150">
	<ele>1137.80</ele>
	<time>2024-03-25T10:56:31.000Z</time>
</trkpt>
<trkpt lat="45.8420590" lon="9.3128000">
	<ele>1137.60</ele>
	<time>2024-03-25T10:56:32.000Z</time>
</trkpt>
<trkpt lat="45.8420580" lon="9.3127900">
	<ele>1137.40</ele>
	<time>2024-03-25T10:56:33.000Z</time>
</trkpt>
<trkpt lat="45.8420580" lon="9.3127800">
	<ele>1137.20</ele>
	<time>2024-03-25T10:56:34.000Z</time>
</trkpt>
<trkpt lat="45.8420570" lon="9.3127650">
	<ele>1136.80</ele>
	<time>2024-03-25T10:56:35.000Z</time>
</trkpt>
<trkpt lat="45.8420560" lon="9.3127520">
	<ele>1136.40</ele>
	<time>2024-03-25T10:56:36.000Z</time>
</trkpt>
<trkpt lat="45.8420540" lon="9.3127420">
	<ele>1136.20</ele>
	<time>2024-03-25T10:56:37.000Z</time>
</trkpt>
<trkpt lat="45.8420500" lon="9.3127330">
	<ele>1136.00</ele>
	<time>2024-03-25T10:56:38.000Z</time>
</trkpt>
<trkpt lat="45.8420480" lon="9.3127230">
	<ele>1135.80</ele>
	<time>2024-03-25T10:56:39.000Z</time>
</trkpt>
<trkpt lat="45.8420480" lon="9.3127090">
	<ele>1135.60</ele>
	<time>2024-03-25T10:56:40.000Z</time>
</trkpt>
<trkpt lat="45.8420460" lon="9.3126950">
	<ele>1135.40</ele>
	<time>2024-03-25T10:56:41.000Z</time>
</trkpt>
<trkpt lat="45.8420440" lon="9.3126770">
	<ele>1135.00</ele>
	<time>2024-03-25T10:56:42.000Z</time>
</trkpt>
<trkpt lat="45.8420410" lon="9.3126600">
	<ele>1134.80</ele>
	<time>2024-03-25T10:56:43.000Z</time>
</trkpt>
<trkpt lat="45.8420350" lon="9.3126460">
	<ele>1134.60</ele>
	<time>2024-03-25T10:56:44.000Z</time>
</trkpt>
<trkpt lat="45.8420360" lon="9.3126340">
	<ele>1134.00</ele>
	<time>2024-03-25T10:56:45.000Z</time>
</trkpt>
<trkpt lat="45.8420390" lon="9.3126210">
	<ele>1133.80</ele>
	<time>2024-03-25T10:56:46.000Z</time>
</trkpt>
<trkpt lat="45.8420430" lon="9.3126050">
	<ele>1133.60</ele>
	<time>2024-03-25T10:56:47.000Z</time>
</trkpt>
<trkpt lat="45.8420450" lon="9.3125860">
	<ele>1133.20</ele>
	<time>2024-03-25T10:56:48.000Z</time>
</trkpt>
<trkpt lat="45.8420470" lon="9.3125700">
	<ele>1133.00</ele>
	<time>2024-03-25T10:56:49.000Z</time>
</trkpt>
<trkpt lat="45.8420470" lon="9.3125550">
	<ele>1133.00</ele>
	<time>2024-03-25T10:56:50.000Z</time>
</trkpt>
<trkpt lat="45.8420510" lon="9.3125420">
	<ele>1132.80</ele>
	<time>2024-03-25T10:56:51.000Z</time>
</trkpt>
<trkpt lat="45.8420520" lon="9.3125310">
	<ele>1132.80</ele>
	<time>2024-03-25T10:56:52.000Z</time>
</trkpt>
<trkpt lat="45.8420510" lon="9.3125170">
	<ele>1132.60</ele>
	<time>2024-03-25T10:56:53.000Z</time>
</trkpt>
<trkpt lat="45.8420520" lon="9.3125040">
	<ele>1132.60</ele>
	<time>2024-03-25T10:56:54.000Z</time>
</trkpt>
<trkpt lat="45.8420500" lon="9.3124910">
	<ele>1132.40</ele>
	<time>2024-03-25T10:56:55.000Z</time>
</trkpt>
<trkpt lat="45.8420460" lon="9.3124780">
	<ele>1132.00</ele>
	<time>2024-03-25T10:56:56.000Z</time>
</trkpt>
<trkpt lat="45.8420420" lon="9.3124640">
	<ele>1131.80</ele>
	<time>2024-03-25T10:56:57.000Z</time>
</trkpt>
<trkpt lat="45.8420420" lon="9.3124520">
	<ele>1131.60</ele>
	<time>2024-03-25T10:56:58.000Z</time>
</trkpt>
<trkpt lat="45.8420380" lon="9.3124420">
	<ele>1131.40</ele>
	<time>2024-03-25T10:56:59.000Z</time>
</trkpt>
<trkpt lat="45.8420330" lon="9.3124320">
	<ele>1131.20</ele>
	<time>2024-03-25T10:57:00.000Z</time>
</trkpt>
<trkpt lat="45.8420350" lon="9.3124230">
	<ele>1130.80</ele>
	<time>2024-03-25T10:57:01.000Z</time>
</trkpt>
<trkpt lat="45.8420380" lon="9.3124120">
	<ele>1130.60</ele>
	<time>2024-03-25T10:57:02.000Z</time>
</trkpt>
<trkpt lat="45.8420370" lon="9.3124000">
	<ele>1130.20</ele>
	<time>2024-03-25T10:57:03.000Z</time>
</trkpt>
<trkpt lat="45.8420350" lon="9.3123860">
	<ele>1130.00</ele>
	<time>2024-03-25T10:57:04.000Z</time>
</trkpt>
<trkpt lat="45.8420340" lon="9.3123720">
	<ele>1129.60</ele>
	<time>2024-03-25T10:57:05.000Z</time>
</trkpt>
<trkpt lat="45.8420260" lon="9.3123580">
	<ele>1129.40</ele>
	<time>2024-03-25T10:57:06.000Z</time>
</trkpt>
<trkpt lat="45.8420190" lon="9.3123440">
	<ele>1129.20</ele>
	<time>2024-03-25T10:57:07.000Z</time>
</trkpt>
<trkpt lat="45.8420110" lon="9.3123320">
	<ele>1129.00</ele>
	<time>2024-03-25T10:57:08.000Z</time>
</trkpt>
<trkpt lat="45.8420030" lon="9.3123220">
	<ele>1129.00</ele>
	<time>2024-03-25T10:57:09.000Z</time>
</trkpt>
<trkpt lat="45.8419950" lon="9.3123150">
	<ele>1128.80</ele>
	<time>2024-03-25T10:57:10.000Z</time>
</trkpt>
<trkpt lat="45.8419870" lon="9.3123060">
	<ele>1128.60</ele>
	<time>2024-03-25T10:57:11.000Z</time>
</trkpt>
<trkpt lat="45.8419770" lon="9.3122970">
	<ele>1128.20</ele>
	<time>2024-03-25T10:57:12.000Z</time>
</trkpt>
<trkpt lat="45.8419660" lon="9.3122860">
	<ele>1128.00</ele>
	<time>2024-03-25T10:57:13.000Z</time>
</trkpt>
<trkpt lat="45.8419570" lon="9.3122770">
	<ele>1128.00</ele>
	<time>2024-03-25T10:57:14.000Z</time>
</trkpt>
<trkpt lat="45.8419470" lon="9.3122710">
	<ele>1127.80</ele>
	<time>2024-03-25T10:57:15.000Z</time>
</trkpt>
<trkpt lat="45.8419370" lon="9.3122660">
	<ele>1127.80</ele>
	<time>2024-03-25T10:57:16.000Z</time>
</trkpt>
<trkpt lat="45.8419290" lon="9.3122560">
	<ele>1127.40</ele>
	<time>2024-03-25T10:57:17.000Z</time>
</trkpt>
<trkpt lat="45.8419210" lon="9.3122470">
	<ele>1127.20</ele>
	<time>2024-03-25T10:57:18.000Z</time>
</trkpt>
<trkpt lat="45.8419120" lon="9.3122390">
	<ele>1127.20</ele>
	<time>2024-03-25T10:57:19.000Z</time>
</trkpt>
<trkpt lat="45.8419020" lon="9.3122290">
	<ele>1127.00</ele>
	<time>2024-03-25T10:57:20.000Z</time>
</trkpt>
<trkpt lat="45.8418940" lon="9.3122160">
	<ele>1126.80</ele>
	<time>2024-03-25T10:57:21.000Z</time>
</trkpt>
<trkpt lat="45.8418870" lon="9.3122040">
	<ele>1126.60</ele>
	<time>2024-03-25T10:57:22.000Z</time>
</trkpt>
<trkpt lat="45.8418780" lon="9.3121940">
	<ele>1126.40</ele>
	<time>2024-03-25T10:57:23.000Z</time>
</trkpt>
<trkpt lat="45.8418660" lon="9.3121860">
	<ele>1126.40</ele>
	<time>2024-03-25T10:57:24.000Z</time>
</trkpt>
<trkpt lat="45.8418560" lon="9.3121800">
	<ele>1126.20</ele>
	<time>2024-03-25T10:57:25.000Z</time>
</trkpt>
<trkpt lat="45.8418470" lon="9.3121760">
	<ele>1126.00</ele>
	<time>2024-03-25T10:57:26.000Z</time>
</trkpt>
<trkpt lat="45.8418370" lon="9.3121700">
	<ele>1126.00</ele>
	<time>2024-03-25T10:57:27.000Z</time>
</trkpt>
<trkpt lat="45.8418270" lon="9.3121660">
	<ele>1125.80</ele>
	<time>2024-03-25T10:57:28.000Z</time>
</trkpt>
<trkpt lat="45.8418140" lon="9.3121610">
	<ele>1125.80</ele>
	<time>2024-03-25T10:57:29.000Z</time>
</trkpt>
<trkpt lat="45.8418050" lon="9.3121590">
	<ele>1125.80</ele>
	<time>2024-03-25T10:57:30.000Z</time>
</trkpt>
<trkpt lat="45.8418010" lon="9.3121690">
	<ele>1125.60</ele>
	<time>2024-03-25T10:57:31.000Z</time>
</trkpt>
<trkpt lat="45.8417960" lon="9.3121750">
	<ele>1125.60</ele>
	<time>2024-03-25T10:57:32.000Z</time>
</trkpt>
<trkpt lat="45.8417950" lon="9.3121790">
	<ele>1125.60</ele>
	<time>2024-03-25T10:57:33.000Z</time>
</trkpt>
<trkpt lat="45.8417940" lon="9.3121810">
	<ele>1125.60</ele>
	<time>2024-03-25T10:57:34.000Z</time>
</trkpt>
<trkpt lat="45.8417940" lon="9.3121820">
	<ele>1125.60</ele>
	<time>2024-03-25T10:57:35.000Z</time>
</trkpt>
<trkpt lat="45.8417950" lon="9.3121830">
	<ele>1125.60</ele>
	<time>2024-03-25T10:57:36.000Z</time>
</trkpt>
<trkpt lat="45.8417950" lon="9.3121830">
	<ele>1125.80</ele>
	<time>2024-03-25T10:57:37.000Z</time>
</trkpt>
<trkpt lat="45.8417950" lon="9.3121810">
	<ele>1125.80</ele>
	<time>2024-03-25T10:57:38.000Z</time>
</trkpt>
<trkpt lat="45.8417950" lon="9.3121800">
	<ele>1125.80</ele>
	<time>2024-03-25T10:57:39.000Z</time>
</trkpt>
<trkpt lat="45.8417950" lon="9.3121810">
	<ele>1125.80</ele>
	<time>2024-03-25T10:57:40.000Z</time>
</trkpt>
<trkpt lat="45.8417950" lon="9.3121820">
	<ele>1125.80</ele>
	<time>2024-03-25T10:57:41.000Z</time>
</trkpt>
<trkpt lat="45.8417940" lon="9.3121810">
	<ele>1125.80</ele>
	<time>2024-03-25T10:57:42.000Z</time>
</trkpt>
<trkpt lat="45.8417920" lon="9.3121790">
	<ele>1126.00</ele>
	<time>2024-03-25T10:57:43.000Z</time>
</trkpt>
<trkpt lat="45.8417910" lon="9.3121800">
	<ele>1126.00</ele>
	<time>2024-03-25T10:57:44.000Z</time>
</trkpt>
<trkpt lat="45.8417900" lon="9.3121810">
	<ele>1126.00</ele>
	<time>2024-03-25T10:57:45.000Z</time>
</trkpt>
<trkpt lat="45.8417910" lon="9.3121820">
	<ele>1126.00</ele>
	<time>2024-03-25T10:57:46.000Z</time>
</trkpt>
<trkpt lat="45.8417910" lon="9.3121820">
	<ele>1126.00</ele>
	<time>2024-03-25T10:57:47.000Z</time>
</trkpt>
<trkpt lat="45.8417910" lon="9.3121820">
	<ele>1126.00</ele>
	<time>2024-03-25T10:57:48.000Z</time>
</trkpt>
<trkpt lat="45.8417910" lon="9.3121820">
	<ele>1125.80</ele>
	<time>2024-03-25T10:57:49.000Z</time>
</trkpt>
<trkpt lat="45.8417910" lon="9.3121820">
	<ele>1125.80</ele>
	<time>2024-03-25T10:57:50.000Z</time>
</trkpt>
<trkpt lat="45.8417910" lon="9.3121820">
	<ele>1125.80</ele>
	<time>2024-03-25T10:57:51.000Z</time>
</trkpt>
<trkpt lat="45.8417910" lon="9.3121820">
	<ele>1125.80</ele>
	<time>2024-03-25T10:57:52.000Z</time>
</trkpt>
<trkpt lat="45.8417910" lon="9.3121820">
	<ele>1125.60</ele>
	<time>2024-03-25T10:57:53.000Z</time>
</trkpt>
<trkpt lat="45.8417910" lon="9.3121820">
	<ele>1125.60</ele>
	<time>2024-03-25T10:57:54.000Z</time>
</trkpt>
<trkpt lat="45.8417910" lon="9.3121820">
	<ele>1125.60</ele>
	<time>2024-03-25T10:57:55.000Z</time>
</trkpt>
<trkpt lat="45.8417910" lon="9.3121820">
	<ele>1125.60</ele>
	<time>2024-03-25T10:57:56.000Z</time>
</trkpt>
<trkpt lat="45.8417910" lon="9.3121820">
	<ele>1125.60</ele>
	<time>2024-03-25T10:57:57.000Z</time>
</trkpt>
<trkpt lat="45.8417910" lon="9.3121820">
	<ele>1125.40</ele>
	<time>2024-03-25T10:57:58.000Z</time>
</trkpt>
<trkpt lat="45.8417900" lon="9.3121760">
	<ele>1125.40</ele>
	<time>2024-03-25T10:57:59.000Z</time>
</trkpt>
<trkpt lat="45.8417860" lon="9.3121570">
	<ele>1125.20</ele>
	<time>2024-03-25T10:58:00.000Z</time>
</trkpt>
<trkpt lat="45.8417830" lon="9.3121360">
	<ele>1125.20</ele>
	<time>2024-03-25T10:58:01.000Z</time>
</trkpt>
<trkpt lat="45.8417790" lon="9.3121150">
	<ele>1125.00</ele>
	<time>2024-03-25T10:58:02.000Z</time>
</trkpt>
<trkpt lat="45.8417750" lon="9.3121000">
	<ele>1124.80</ele>
	<time>2024-03-25T10:58:03.000Z</time>
</trkpt>
<trkpt lat="45.8417700" lon="9.3120860">
	<ele>1124.60</ele>
	<time>2024-03-25T10:58:04.000Z</time>
</trkpt>
<trkpt lat="45.8417680" lon="9.3120700">
	<ele>1124.60</ele>
	<time>2024-03-25T10:58:05.000Z</time>
</trkpt>
<trkpt lat="45.8417660" lon="9.3120510">
	<ele>1124.40</ele>
	<time>2024-03-25T10:58:06.000Z</time>
</trkpt>
<trkpt lat="45.8417610" lon="9.3120330">
	<ele>1124.40</ele>
	<time>2024-03-25T10:58:07.000Z</time>
</trkpt>
<trkpt lat="45.8417520" lon="9.3120140">
	<ele>1124.20</ele>
	<time>2024-03-25T10:58:08.000Z</time>
</trkpt>
<trkpt lat="45.8417460" lon="9.3120050">
	<ele>1124.20</ele>
	<time>2024-03-25T10:58:09.000Z</time>
</trkpt>
<trkpt lat="45.8417420" lon="9.3119980">
	<ele>1124.20</ele>
	<time>2024-03-25T10:58:10.000Z</time>
</trkpt>
<trkpt lat="45.8417400" lon="9.3119950">
	<ele>1124.20</ele>
	<time>2024-03-25T10:58:11.000Z</time>
</trkpt>
<trkpt lat="45.8417360" lon="9.3119930">
	<ele>1124.00</ele>
	<time>2024-03-25T10:58:12.000Z</time>
</trkpt>
<trkpt lat="45.8417300" lon="9.3119900">
	<ele>1123.80</ele>
	<time>2024-03-25T10:58:13.000Z</time>
</trkpt>
<trkpt lat="45.8417240" lon="9.3119810">
	<ele>1123.80</ele>
	<time>2024-03-25T10:58:14.000Z</time>
</trkpt>
<trkpt lat="45.8417190" lon="9.3119710">
	<ele>1123.80</ele>
	<time>2024-03-25T10:58:15.000Z</time>
</trkpt>
<trkpt lat="45.8417170" lon="9.3119590">
	<ele>1123.80</ele>
	<time>2024-03-25T10:58:16.000Z</time>
</trkpt>
<trkpt lat="45.8417140" lon="9.3119450">
	<ele>1123.60</ele>
	<time>2024-03-25T10:58:17.000Z</time>
</trkpt>
<trkpt lat="45.8417090" lon="9.3119320">
	<ele>1123.60</ele>
	<time>2024-03-25T10:58:18.000Z</time>
</trkpt>
<trkpt lat="45.8417010" lon="9.3119210">
	<ele>1123.60</ele>
	<time>2024-03-25T10:58:19.000Z</time>
</trkpt>
<trkpt lat="45.8416900" lon="9.3119130">
	<ele>1123.40</ele>
	<time>2024-03-25T10:58:20.000Z</time>
</trkpt>
<trkpt lat="45.8416850" lon="9.3119080">
	<ele>1123.40</ele>
	<time>2024-03-25T10:58:21.000Z</time>
</trkpt>
<trkpt lat="45.8416800" lon="9.3119030">
	<ele>1123.40</ele>
	<time>2024-03-25T10:58:22.000Z</time>
</trkpt>
<trkpt lat="45.8416710" lon="9.3118920">
	<ele>1123.20</ele>
	<time>2024-03-25T10:58:23.000Z</time>
</trkpt>
<trkpt lat="45.8416630" lon="9.3118800">
	<ele>1123.20</ele>
	<time>2024-03-25T10:58:24.000Z</time>
</trkpt>
<trkpt lat="45.8416570" lon="9.3118690">
	<ele>1123.20</ele>
	<time>2024-03-25T10:58:25.000Z</time>
</trkpt>
<trkpt lat="45.8416490" lon="9.3118570">
	<ele>1123.20</ele>
	<time>2024-03-25T10:58:26.000Z</time>
</trkpt>
<trkpt lat="45.8416410" lon="9.3118440">
	<ele>1123.20</ele>
	<time>2024-03-25T10:58:27.000Z</time>
</trkpt>
<trkpt lat="45.8416340" lon="9.3118300">
	<ele>1123.20</ele>
	<time>2024-03-25T10:58:28.000Z</time>
</trkpt>
<trkpt lat="45.8416270" lon="9.3118130">
	<ele>1122.80</ele>
	<time>2024-03-25T10:58:29.000Z</time>
</trkpt>
<trkpt lat="45.8416200" lon="9.3117950">
	<ele>1122.80</ele>
	<time>2024-03-25T10:58:30.000Z</time>
</trkpt>
<trkpt lat="45.8416120" lon="9.3117770">
	<ele>1122.40</ele>
	<time>2024-03-25T10:58:31.000Z</time>
</trkpt>
<trkpt lat="45.8416070" lon="9.3117610">
	<ele>1122.40</ele>
	<time>2024-03-25T10:58:32.000Z</time>
</trkpt>
<trkpt lat="45.8415990" lon="9.3117460">
	<ele>1122.20</ele>
	<time>2024-03-25T10:58:33.000Z</time>
</trkpt>
<trkpt lat="45.8415910" lon="9.3117320">
	<ele>1122.20</ele>
	<time>2024-03-25T10:58:34.000Z</time>
</trkpt>
<trkpt lat="45.8415850" lon="9.3117160">
	<ele>1122.00</ele>
	<time>2024-03-25T10:58:35.000Z</time>
</trkpt>
<trkpt lat="45.8415790" lon="9.3116990">
	<ele>1121.80</ele>
	<time>2024-03-25T10:58:36.000Z</time>
</trkpt>
<trkpt lat="45.8415750" lon="9.3116830">
	<ele>1121.80</ele>
	<time>2024-03-25T10:58:37.000Z</time>
</trkpt>
<trkpt lat="45.8415700" lon="9.3116690">
	<ele>1121.80</ele>
	<time>2024-03-25T10:58:38.000Z</time>
</trkpt>
<trkpt lat="45.8415670" lon="9.3116560">
	<ele>1121.80</ele>
	<time>2024-03-25T10:58:39.000Z</time>
</trkpt>
<trkpt lat="45.8415610" lon="9.3116400">
	<ele>1122.00</ele>
	<time>2024-03-25T10:58:40.000Z</time>
</trkpt>
<trkpt lat="45.8415540" lon="9.3116220">
	<ele>1122.00</ele>
	<time>2024-03-25T10:58:41.000Z</time>
</trkpt>
<trkpt lat="45.8415480" lon="9.3116060">
	<ele>1122.20</ele>
	<time>2024-03-25T10:58:42.000Z</time>
</trkpt>
<trkpt lat="45.8415430" lon="9.3115900">
	<ele>1122.20</ele>
	<time>2024-03-25T10:58:43.000Z</time>
</trkpt>
<trkpt lat="45.8415390" lon="9.3115740">
	<ele>1122.40</ele>
	<time>2024-03-25T10:58:44.000Z</time>
</trkpt>
<trkpt lat="45.8415360" lon="9.3115600">
	<ele>1122.40</ele>
	<time>2024-03-25T10:58:45.000Z</time>
</trkpt>
<trkpt lat="45.8415320" lon="9.3115460">
	<ele>1122.60</ele>
	<time>2024-03-25T10:58:46.000Z</time>
</trkpt>
<trkpt lat="45.8415250" lon="9.3115330">
	<ele>1122.60</ele>
	<time>2024-03-25T10:58:47.000Z</time>
</trkpt>
<trkpt lat="45.8415200" lon="9.3115200">
	<ele>1122.60</ele>
	<time>2024-03-25T10:58:48.000Z</time>
</trkpt>
<trkpt lat="45.8415180" lon="9.3115040">
	<ele>1122.60</ele>
	<time>2024-03-25T10:58:49.000Z</time>
</trkpt>
<trkpt lat="45.8415180" lon="9.3114830">
	<ele>1122.60</ele>
	<time>2024-03-25T10:58:50.000Z</time>
</trkpt>
<trkpt lat="45.8415150" lon="9.3114630">
	<ele>1122.40</ele>
	<time>2024-03-25T10:58:51.000Z</time>
</trkpt>
<trkpt lat="45.8415120" lon="9.3114440">
	<ele>1122.20</ele>
	<time>2024-03-25T10:58:52.000Z</time>
</trkpt>
<trkpt lat="45.8415100" lon="9.3114280">
	<ele>1122.20</ele>
	<time>2024-03-25T10:58:53.000Z</time>
</trkpt>
<trkpt lat="45.8415090" lon="9.3114130">
	<ele>1122.00</ele>
	<time>2024-03-25T10:58:54.000Z</time>
</trkpt>
<trkpt lat="45.8415080" lon="9.3113940">
	<ele>1122.00</ele>
	<time>2024-03-25T10:58:55.000Z</time>
</trkpt>
<trkpt lat="45.8415030" lon="9.3113710">
	<ele>1121.80</ele>
	<time>2024-03-25T10:58:56.000Z</time>
</trkpt>
<trkpt lat="45.8414980" lon="9.3113530">
	<ele>1121.80</ele>
	<time>2024-03-25T10:58:57.000Z</time>
</trkpt>
<trkpt lat="45.8414930" lon="9.3113350">
	<ele>1121.60</ele>
	<time>2024-03-25T10:58:58.000Z</time>
</trkpt>
<trkpt lat="45.8414880" lon="9.3113190">
	<ele>1121.60</ele>
	<time>2024-03-25T10:58:59.000Z</time>
</trkpt>
<trkpt lat="45.8414840" lon="9.3113040">
	<ele>1121.40</ele>
	<time>2024-03-25T10:59:00.000Z</time>
</trkpt>
<trkpt lat="45.8414840" lon="9.3112900">
	<ele>1121.40</ele>
	<time>2024-03-25T10:59:01.000Z</time>
</trkpt>
<trkpt lat="45.8414820" lon="9.3112740">
	<ele>1121.40</ele>
	<time>2024-03-25T10:59:02.000Z</time>
</trkpt>
<trkpt lat="45.8414810" lon="9.3112570">
	<ele>1121.40</ele>
	<time>2024-03-25T10:59:03.000Z</time>
</trkpt>
<trkpt lat="45.8414810" lon="9.3112410">
	<ele>1121.20</ele>
	<time>2024-03-25T10:59:04.000Z</time>
</trkpt>
<trkpt lat="45.8414790" lon="9.3112240">
	<ele>1121.20</ele>
	<time>2024-03-25T10:59:05.000Z</time>
</trkpt>
<trkpt lat="45.8414800" lon="9.3112040">
	<ele>1121.00</ele>
	<time>2024-03-25T10:59:06.000Z</time>
</trkpt>
<trkpt lat="45.8414800" lon="9.3111830">
	<ele>1121.00</ele>
	<time>2024-03-25T10:59:07.000Z</time>
</trkpt>
<trkpt lat="45.8414770" lon="9.3111620">
	<ele>1121.00</ele>
	<time>2024-03-25T10:59:08.000Z</time>
</trkpt>
<trkpt lat="45.8414760" lon="9.3111400">
	<ele>1121.00</ele>
	<time>2024-03-25T10:59:09.000Z</time>
</trkpt>
<trkpt lat="45.8414750" lon="9.3111210">
	<ele>1121.00</ele>
	<time>2024-03-25T10:59:10.000Z</time>
</trkpt>
<trkpt lat="45.8414730" lon="9.3111020">
	<ele>1120.80</ele>
	<time>2024-03-25T10:59:11.000Z</time>
</trkpt>
<trkpt lat="45.8414700" lon="9.3110860">
	<ele>1120.60</ele>
	<time>2024-03-25T10:59:12.000Z</time>
</trkpt>
<trkpt lat="45.8414650" lon="9.3110720">
	<ele>1120.60</ele>
	<time>2024-03-25T10:59:13.000Z</time>
</trkpt>
<trkpt lat="45.8414600" lon="9.3110570">
	<ele>1120.60</ele>
	<time>2024-03-25T10:59:14.000Z</time>
</trkpt>
<trkpt lat="45.8414570" lon="9.3110400">
	<ele>1120.40</ele>
	<time>2024-03-25T10:59:15.000Z</time>
</trkpt>
<trkpt lat="45.8414570" lon="9.3110250">
	<ele>1120.40</ele>
	<time>2024-03-25T10:59:16.000Z</time>
</trkpt>
<trkpt lat="45.8414540" lon="9.3110080">
	<ele>1120.40</ele>
	<time>2024-03-25T10:59:17.000Z</time>
</trkpt>
<trkpt lat="45.8414510" lon="9.3109900">
	<ele>1120.40</ele>
	<time>2024-03-25T10:59:18.000Z</time>
</trkpt>
<trkpt lat="45.8414490" lon="9.3109740">
	<ele>1120.40</ele>
	<time>2024-03-25T10:59:19.000Z</time>
</trkpt>
<trkpt lat="45.8414520" lon="9.3109580">
	<ele>1120.40</ele>
	<time>2024-03-25T10:59:20.000Z</time>
</trkpt>
<trkpt lat="45.8414500" lon="9.3109400">
	<ele>1120.60</ele>
	<time>2024-03-25T10:59:21.000Z</time>
</trkpt>
<trkpt lat="45.8414480" lon="9.3109260">
	<ele>1120.60</ele>
	<time>2024-03-25T10:59:22.000Z</time>
</trkpt>
<trkpt lat="45.8414480" lon="9.3109110">
	<ele>1120.60</ele>
	<time>2024-03-25T10:59:23.000Z</time>
</trkpt>
<trkpt lat="45.8414460" lon="9.3108930">
	<ele>1120.60</ele>
	<time>2024-03-25T10:59:24.000Z</time>
</trkpt>
<trkpt lat="45.8414430" lon="9.3108780">
	<ele>1120.60</ele>
	<time>2024-03-25T10:59:25.000Z</time>
</trkpt>
<trkpt lat="45.8414410" lon="9.3108650">
	<ele>1120.60</ele>
	<time>2024-03-25T10:59:26.000Z</time>
</trkpt>
<trkpt lat="45.8414410" lon="9.3108540">
	<ele>1120.60</ele>
	<time>2024-03-25T10:59:27.000Z</time>
</trkpt>
<trkpt lat="45.8414400" lon="9.3108430">
	<ele>1120.60</ele>
	<time>2024-03-25T10:59:28.000Z</time>
</trkpt>
<trkpt lat="45.8414410" lon="9.3108280">
	<ele>1120.60</ele>
	<time>2024-03-25T10:59:29.000Z</time>
</trkpt>
<trkpt lat="45.8414410" lon="9.3108150">
	<ele>1120.60</ele>
	<time>2024-03-25T10:59:30.000Z</time>
</trkpt>
<trkpt lat="45.8414400" lon="9.3108020">
	<ele>1120.60</ele>
	<time>2024-03-25T10:59:31.000Z</time>
</trkpt>
<trkpt lat="45.8414370" lon="9.3107920">
	<ele>1120.40</ele>
	<time>2024-03-25T10:59:32.000Z</time>
</trkpt>
<trkpt lat="45.8414330" lon="9.3107810">
	<ele>1120.20</ele>
	<time>2024-03-25T10:59:33.000Z</time>
</trkpt>
<trkpt lat="45.8414300" lon="9.3107690">
	<ele>1120.00</ele>
	<time>2024-03-25T10:59:34.000Z</time>
</trkpt>
<trkpt lat="45.8414280" lon="9.3107570">
	<ele>1120.00</ele>
	<time>2024-03-25T10:59:35.000Z</time>
</trkpt>
<trkpt lat="45.8414260" lon="9.3107420">
	<ele>1119.80</ele>
	<time>2024-03-25T10:59:36.000Z</time>
</trkpt>
<trkpt lat="45.8414260" lon="9.3107270">
	<ele>1119.60</ele>
	<time>2024-03-25T10:59:37.000Z</time>
</trkpt>
<trkpt lat="45.8414250" lon="9.3107130">
	<ele>1119.60</ele>
	<time>2024-03-25T10:59:38.000Z</time>
</trkpt>
<trkpt lat="45.8414230" lon="9.3107000">
	<ele>1119.20</ele>
	<time>2024-03-25T10:59:39.000Z</time>
</trkpt>
<trkpt lat="45.8414200" lon="9.3106860">
	<ele>1118.80</ele>
	<time>2024-03-25T10:59:40.000Z</time>
</trkpt>
<trkpt lat="45.8414140" lon="9.3106710">
	<ele>1118.60</ele>
	<time>2024-03-25T10:59:41.000Z</time>
</trkpt>
<trkpt lat="45.8414110" lon="9.3106590">
	<ele>1118.60</ele>
	<time>2024-03-25T10:59:42.000Z</time>
</trkpt>
<trkpt lat="45.8414070" lon="9.3106460">
	<ele>1118.60</ele>
	<time>2024-03-25T10:59:43.000Z</time>
</trkpt>
<trkpt lat="45.8414020" lon="9.3106310">
	<ele>1118.60</ele>
	<time>2024-03-25T10:59:44.000Z</time>
</trkpt>
<trkpt lat="45.8413960" lon="9.3106150">
	<ele>1118.60</ele>
	<time>2024-03-25T10:59:45.000Z</time>
</trkpt>
<trkpt lat="45.8413890" lon="9.3106000">
	<ele>1118.60</ele>
	<time>2024-03-25T10:59:46.000Z</time>
</trkpt>
<trkpt lat="45.8413880" lon="9.3105840">
	<ele>1118.60</ele>
	<time>2024-03-25T10:59:47.000Z</time>
</trkpt>
<trkpt lat="45.8413850" lon="9.3105680">
	<ele>1118.60</ele>
	<time>2024-03-25T10:59:48.000Z</time>
</trkpt>
<trkpt lat="45.8413830" lon="9.3105520">
	<ele>1118.40</ele>
	<time>2024-03-25T10:59:49.000Z</time>
</trkpt>
<trkpt lat="45.8413810" lon="9.3105330">
	<ele>1118.40</ele>
	<time>2024-03-25T10:59:50.000Z</time>
</trkpt>
<trkpt lat="45.8413740" lon="9.3105140">
	<ele>1118.20</ele>
	<time>2024-03-25T10:59:51.000Z</time>
</trkpt>
<trkpt lat="45.8413660" lon="9.3104940">
	<ele>1118.00</ele>
	<time>2024-03-25T10:59:52.000Z</time>
</trkpt>
<trkpt lat="45.8413600" lon="9.3104820">
	<ele>1118.00</ele>
	<time>2024-03-25T10:59:53.000Z</time>
</trkpt>
<trkpt lat="45.8413550" lon="9.3104700">
	<ele>1118.00</ele>
	<time>2024-03-25T10:59:54.000Z</time>
</trkpt>
<trkpt lat="45.8413500" lon="9.3104570">
	<ele>1118.00</ele>
	<time>2024-03-25T10:59:55.000Z</time>
</trkpt>
<trkpt lat="45.8413470" lon="9.3104450">
	<ele>1118.00</ele>
	<time>2024-03-25T10:59:56.000Z</time>
</trkpt>
<trkpt lat="45.8413430" lon="9.3104350">
	<ele>1118.20</ele>
	<time>2024-03-25T10:59:57.000Z</time>
</trkpt>
<trkpt lat="45.8413460" lon="9.3104270">
	<ele>1118.20</ele>
	<time>2024-03-25T10:59:58.000Z</time>
</trkpt>
<trkpt lat="45.8413460" lon="9.3104130">
	<ele>1118.20</ele>
	<time>2024-03-25T10:59:59.000Z</time>
</trkpt>
<trkpt lat="45.8413460" lon="9.3103950">
	<ele>1118.20</ele>
	<time>2024-03-25T11:00:00.000Z</time>
</trkpt>
<trkpt lat="45.8413430" lon="9.3103800">
	<ele>1118.00</ele>
	<time>2024-03-25T11:00:01.000Z</time>
</trkpt>
<trkpt lat="45.8413390" lon="9.3103670">
	<ele>1118.00</ele>
	<time>2024-03-25T11:00:02.000Z</time>
</trkpt>
<trkpt lat="45.8413320" lon="9.3103510">
	<ele>1117.80</ele>
	<time>2024-03-25T11:00:03.000Z</time>
</trkpt>
<trkpt lat="45.8413240" lon="9.3103390">
	<ele>1117.80</ele>
	<time>2024-03-25T11:00:04.000Z</time>
</trkpt>
<trkpt lat="45.8413150" lon="9.3103300">
	<ele>1117.60</ele>
	<time>2024-03-25T11:00:05.000Z</time>
</trkpt>
<trkpt lat="45.8413060" lon="9.3103200">
	<ele>1117.60</ele>
	<time>2024-03-25T11:00:06.000Z</time>
</trkpt>
<trkpt lat="45.8412990" lon="9.3103150">
	<ele>1117.80</ele>
	<time>2024-03-25T11:00:07.000Z</time>
</trkpt>
<trkpt lat="45.8412920" lon="9.3103110">
	<ele>1118.00</ele>
	<time>2024-03-25T11:00:08.000Z</time>
</trkpt>
<trkpt lat="45.8412880" lon="9.3103110">
	<ele>1118.20</ele>
	<time>2024-03-25T11:00:09.000Z</time>
</trkpt>
<trkpt lat="45.8412830" lon="9.3103090">
	<ele>1118.40</ele>
	<time>2024-03-25T11:00:10.000Z</time>
</trkpt>
<trkpt lat="45.8412780" lon="9.3103010">
	<ele>1118.80</ele>
	<time>2024-03-25T11:00:11.000Z</time>
</trkpt>
<trkpt lat="45.8412720" lon="9.3102900">
	<ele>1119.00</ele>
	<time>2024-03-25T11:00:12.000Z</time>
</trkpt>
<trkpt lat="45.8412670" lon="9.3102800">
	<ele>1119.20</ele>
	<time>2024-03-25T11:00:13.000Z</time>
</trkpt>
<trkpt lat="45.8412610" lon="9.3102690">
	<ele>1119.40</ele>
	<time>2024-03-25T11:00:14.000Z</time>
</trkpt>
<trkpt lat="45.8412560" lon="9.3102560">
	<ele>1119.60</ele>
	<time>2024-03-25T11:00:15.000Z</time>
</trkpt>
<trkpt lat="45.8412480" lon="9.3102420">
	<ele>1119.80</ele>
	<time>2024-03-25T11:00:16.000Z</time>
</trkpt>
<trkpt lat="45.8412410" lon="9.3102300">
	<ele>1119.80</ele>
	<time>2024-03-25T11:00:17.000Z</time>
</trkpt>
<trkpt lat="45.8412340" lon="9.3102160">
	<ele>1119.80</ele>
	<time>2024-03-25T11:00:18.000Z</time>
</trkpt>
<trkpt lat="45.8412260" lon="9.3102000">
	<ele>1119.80</ele>
	<time>2024-03-25T11:00:19.000Z</time>
</trkpt>
<trkpt lat="45.8412180" lon="9.3101810">
	<ele>1119.80</ele>
	<time>2024-03-25T11:00:20.000Z</time>
</trkpt>
<trkpt lat="45.8412140" lon="9.3101640">
	<ele>1119.60</ele>
	<time>2024-03-25T11:00:21.000Z</time>
</trkpt>
<trkpt lat="45.8412090" lon="9.3101480">
	<ele>1119.60</ele>
	<time>2024-03-25T11:00:22.000Z</time>
</trkpt>
<trkpt lat="45.8412050" lon="9.3101330">
	<ele>1119.60</ele>
	<time>2024-03-25T11:00:23.000Z</time>
</trkpt>
<trkpt lat="45.8412010" lon="9.3101160">
	<ele>1119.60</ele>
	<time>2024-03-25T11:00:24.000Z</time>
</trkpt>
<trkpt lat="45.8411960" lon="9.3100990">
	<ele>1119.80</ele>
	<time>2024-03-25T11:00:25.000Z</time>
</trkpt>
<trkpt lat="45.8411930" lon="9.3100850">
	<ele>1119.80</ele>
	<time>2024-03-25T11:00:26.000Z</time>
</trkpt>
<trkpt lat="45.8411900" lon="9.3100680">
	<ele>1119.80</ele>
	<time>2024-03-25T11:00:27.000Z</time>
</trkpt>
<trkpt lat="45.8411860" lon="9.3100520">
	<ele>1120.00</ele>
	<time>2024-03-25T11:00:28.000Z</time>
</trkpt>
<trkpt lat="45.8411830" lon="9.3100360">
	<ele>1120.00</ele>
	<time>2024-03-25T11:00:29.000Z</time>
</trkpt>
<trkpt lat="45.8411810" lon="9.3100210">
	<ele>1120.00</ele>
	<time>2024-03-25T11:00:30.000Z</time>
</trkpt>
<trkpt lat="45.8411770" lon="9.3100080">
	<ele>1120.20</ele>
	<time>2024-03-25T11:00:31.000Z</time>
</trkpt>
<trkpt lat="45.8411740" lon="9.3099970">
	<ele>1120.20</ele>
	<time>2024-03-25T11:00:32.000Z</time>
</trkpt>
<trkpt lat="45.8411710" lon="9.3099830">
	<ele>1120.20</ele>
	<time>2024-03-25T11:00:33.000Z</time>
</trkpt>
<trkpt lat="45.8411700" lon="9.3099700">
	<ele>1120.60</ele>
	<time>2024-03-25T11:00:34.000Z</time>
</trkpt>
<trkpt lat="45.8411650" lon="9.3099570">
	<ele>1120.80</ele>
	<time>2024-03-25T11:00:35.000Z</time>
</trkpt>
<trkpt lat="45.8411590" lon="9.3099430">
	<ele>1121.00</ele>
	<time>2024-03-25T11:00:36.000Z</time>
</trkpt>
<trkpt lat="45.8411540" lon="9.3099300">
	<ele>1121.20</ele>
	<time>2024-03-25T11:00:37.000Z</time>
</trkpt>
<trkpt lat="45.8411480" lon="9.3099170">
	<ele>1121.20</ele>
	<time>2024-03-25T11:00:38.000Z</time>
</trkpt>
<trkpt lat="45.8411450" lon="9.3099050">
	<ele>1121.40</ele>
	<time>2024-03-25T11:00:39.000Z</time>
</trkpt>
<trkpt lat="45.8411420" lon="9.3098930">
	<ele>1121.60</ele>
	<time>2024-03-25T11:00:40.000Z</time>
</trkpt>
<trkpt lat="45.8411390" lon="9.3098810">
	<ele>1121.80</ele>
	<time>2024-03-25T11:00:41.000Z</time>
</trkpt>
<trkpt lat="45.8411370" lon="9.3098740">
	<ele>1122.00</ele>
	<time>2024-03-25T11:00:42.000Z</time>
</trkpt>
<trkpt lat="45.8411370" lon="9.3098630">
	<ele>1122.20</ele>
	<time>2024-03-25T11:00:43.000Z</time>
</trkpt>
<trkpt lat="45.8411360" lon="9.3098570">
	<ele>1122.40</ele>
	<time>2024-03-25T11:00:44.000Z</time>
</trkpt>
<trkpt lat="45.8411270" lon="9.3098500">
	<ele>1122.40</ele>
	<time>2024-03-25T11:00:45.000Z</time>
</trkpt>
<trkpt lat="45.8411200" lon="9.3098440">
	<ele>1122.60</ele>
	<time>2024-03-25T11:00:46.000Z</time>
</trkpt>
<trkpt lat="45.8411110" lon="9.3098330">
	<ele>1122.60</ele>
	<time>2024-03-25T11:00:47.000Z</time>
</trkpt>
<trkpt lat="45.8411020" lon="9.3098170">
	<ele>1122.60</ele>
	<time>2024-03-25T11:00:48.000Z</time>
</trkpt>
<trkpt lat="45.8410950" lon="9.3098040">
	<ele>1122.60</ele>
	<time>2024-03-25T11:00:49.000Z</time>
</trkpt>
<trkpt lat="45.8410860" lon="9.3097950">
	<ele>1122.60</ele>
	<time>2024-03-25T11:00:50.000Z</time>
</trkpt>
<trkpt lat="45.8410820" lon="9.3097840">
	<ele>1122.60</ele>
	<time>2024-03-25T11:00:51.000Z</time>
</trkpt>
<trkpt lat="45.8410790" lon="9.3097770">
	<ele>1122.60</ele>
	<time>2024-03-25T11:00:52.000Z</time>
</trkpt>
<trkpt lat="45.8410740" lon="9.3097660">
	<ele>1122.40</ele>
	<time>2024-03-25T11:00:53.000Z</time>
</trkpt>
<trkpt lat="45.8410680" lon="9.3097530">
	<ele>1122.20</ele>
	<time>2024-03-25T11:00:54.000Z</time>
</trkpt>
<trkpt lat="45.8410660" lon="9.3097400">
	<ele>1122.20</ele>
	<time>2024-03-25T11:00:55.000Z</time>
</trkpt>
<trkpt lat="45.8410640" lon="9.3097290">
	<ele>1122.00</ele>
	<time>2024-03-25T11:00:56.000Z</time>
</trkpt>
<trkpt lat="45.8410590" lon="9.3097140">
	<ele>1121.80</ele>
	<time>2024-03-25T11:00:57.000Z</time>
</trkpt>
<trkpt lat="45.8410540" lon="9.3096980">
	<ele>1121.80</ele>
	<time>2024-03-25T11:00:58.000Z</time>
</trkpt>
<trkpt lat="45.8410530" lon="9.3096850">
	<ele>1121.80</ele>
	<time>2024-03-25T11:00:59.000Z</time>
</trkpt>
<trkpt lat="45.8410520" lon="9.3096700">
	<ele>1121.80</ele>
	<time>2024-03-25T11:01:00.000Z</time>
</trkpt>
<trkpt lat="45.8410510" lon="9.3096530">
	<ele>1122.00</ele>
	<time>2024-03-25T11:01:01.000Z</time>
</trkpt>
<trkpt lat="45.8410480" lon="9.3096400">
	<ele>1122.20</ele>
	<time>2024-03-25T11:01:02.000Z</time>
</trkpt>
<trkpt lat="45.8410430" lon="9.3096270">
	<ele>1122.40</ele>
	<time>2024-03-25T11:01:03.000Z</time>
</trkpt>
<trkpt lat="45.8410360" lon="9.3096170">
	<ele>1122.80</ele>
	<time>2024-03-25T11:01:04.000Z</time>
</trkpt>
<trkpt lat="45.8410280" lon="9.3096080">
	<ele>1123.00</ele>
	<time>2024-03-25T11:01:05.000Z</time>
</trkpt>
<trkpt lat="45.8410210" lon="9.3096000">
	<ele>1123.00</ele>
	<time>2024-03-25T11:01:06.000Z</time>
</trkpt>
<trkpt lat="45.8410150" lon="9.3095930">
	<ele>1123.00</ele>
	<time>2024-03-25T11:01:07.000Z</time>
</trkpt>
<trkpt lat="45.8410060" lon="9.3095800">
	<ele>1123.20</ele>
	<time>2024-03-25T11:01:08.000Z</time>
</trkpt>
<trkpt lat="45.8410020" lon="9.3095680">
	<ele>1123.20</ele>
	<time>2024-03-25T11:01:09.000Z</time>
</trkpt>
<trkpt lat="45.8409970" lon="9.3095560">
	<ele>1123.20</ele>
	<time>2024-03-25T11:01:10.000Z</time>
</trkpt>
<trkpt lat="45.8409920" lon="9.3095420">
	<ele>1123.20</ele>
	<time>2024-03-25T11:01:11.000Z</time>
</trkpt>
<trkpt lat="45.8409870" lon="9.3095270">
	<ele>1123.20</ele>
	<time>2024-03-25T11:01:12.000Z</time>
</trkpt>
<trkpt lat="45.8409810" lon="9.3095130">
	<ele>1123.20</ele>
	<time>2024-03-25T11:01:13.000Z</time>
</trkpt>
<trkpt lat="45.8409750" lon="9.3094990">
	<ele>1123.40</ele>
	<time>2024-03-25T11:01:14.000Z</time>
</trkpt>
<trkpt lat="45.8409690" lon="9.3094850">
	<ele>1123.40</ele>
	<time>2024-03-25T11:01:15.000Z</time>
</trkpt>
<trkpt lat="45.8409620" lon="9.3094720">
	<ele>1123.40</ele>
	<time>2024-03-25T11:01:16.000Z</time>
</trkpt>
<trkpt lat="45.8409550" lon="9.3094580">
	<ele>1123.40</ele>
	<time>2024-03-25T11:01:17.000Z</time>
</trkpt>
<trkpt lat="45.8409510" lon="9.3094460">
	<ele>1123.60</ele>
	<time>2024-03-25T11:01:18.000Z</time>
</trkpt>
<trkpt lat="45.8409460" lon="9.3094350">
	<ele>1123.60</ele>
	<time>2024-03-25T11:01:19.000Z</time>
</trkpt>
<trkpt lat="45.8409390" lon="9.3094220">
	<ele>1123.80</ele>
	<time>2024-03-25T11:01:20.000Z</time>
</trkpt>
<trkpt lat="45.8409340" lon="9.3094110">
	<ele>1124.00</ele>
	<time>2024-03-25T11:01:21.000Z</time>
</trkpt>
<trkpt lat="45.8409270" lon="9.3093990">
	<ele>1124.20</ele>
	<time>2024-03-25T11:01:22.000Z</time>
</trkpt>
<trkpt lat="45.8409170" lon="9.3093850">
	<ele>1124.20</ele>
	<time>2024-03-25T11:01:23.000Z</time>
</trkpt>
<trkpt lat="45.8409060" lon="9.3093730">
	<ele>1124.60</ele>
	<time>2024-03-25T11:01:24.000Z</time>
</trkpt>
<trkpt lat="45.8409000" lon="9.3093610">
	<ele>1124.80</ele>
	<time>2024-03-25T11:01:25.000Z</time>
</trkpt>
<trkpt lat="45.8408900" lon="9.3093490">
	<ele>1125.00</ele>
	<time>2024-03-25T11:01:26.000Z</time>
</trkpt>
<trkpt lat="45.8408810" lon="9.3093380">
	<ele>1125.20</ele>
	<time>2024-03-25T11:01:27.000Z</time>
</trkpt>
<trkpt lat="45.8408730" lon="9.3093270">
	<ele>1125.40</ele>
	<time>2024-03-25T11:01:28.000Z</time>
</trkpt>
<trkpt lat="45.8408660" lon="9.3093170">
	<ele>1125.40</ele>
	<time>2024-03-25T11:01:29.000Z</time>
</trkpt>
<trkpt lat="45.8408580" lon="9.3093070">
	<ele>1125.60</ele>
	<time>2024-03-25T11:01:30.000Z</time>
</trkpt>
<trkpt lat="45.8408500" lon="9.3092990">
	<ele>1125.60</ele>
	<time>2024-03-25T11:01:31.000Z</time>
</trkpt>
<trkpt lat="45.8408440" lon="9.3092950">
	<ele>1125.80</ele>
	<time>2024-03-25T11:01:32.000Z</time>
</trkpt>
<trkpt lat="45.8408350" lon="9.3092900">
	<ele>1126.20</ele>
	<time>2024-03-25T11:01:33.000Z</time>
</trkpt>
<trkpt lat="45.8408270" lon="9.3092860">
	<ele>1126.20</ele>
	<time>2024-03-25T11:01:34.000Z</time>
</trkpt>
<trkpt lat="45.8408190" lon="9.3092790">
	<ele>1126.40</ele>
	<time>2024-03-25T11:01:35.000Z</time>
</trkpt>
<trkpt lat="45.8408110" lon="9.3092720">
	<ele>1126.60</ele>
	<time>2024-03-25T11:01:36.000Z</time>
</trkpt>
<trkpt lat="45.8408030" lon="9.3092620">
	<ele>1126.80</ele>
	<time>2024-03-25T11:01:37.000Z</time>
</trkpt>
<trkpt lat="45.8407960" lon="9.3092510">
	<ele>1127.00</ele>
	<time>2024-03-25T11:01:38.000Z</time>
</trkpt>
<trkpt lat="45.8407900" lon="9.3092440">
	<ele>1127.20</ele>
	<time>2024-03-25T11:01:39.000Z</time>
</trkpt>
<trkpt lat="45.8407870" lon="9.3092360">
	<ele>1127.40</ele>
	<time>2024-03-25T11:01:40.000Z</time>
</trkpt>
<trkpt lat="45.8407860" lon="9.3092280">
	<ele>1127.60</ele>
	<time>2024-03-25T11:01:41.000Z</time>
</trkpt>
<trkpt lat="45.8407860" lon="9.3092200">
	<ele>1128.00</ele>
	<time>2024-03-25T11:01:42.000Z</time>
</trkpt>
<trkpt lat="45.8407870" lon="9.3092170">
	<ele>1128.20</ele>
	<time>2024-03-25T11:01:43.000Z</time>
</trkpt>
<trkpt lat="45.8407870" lon="9.3092110">
	<ele>1128.60</ele>
	<time>2024-03-25T11:01:44.000Z</time>
</trkpt>
<trkpt lat="45.8407870" lon="9.3092050">
	<ele>1128.80</ele>
	<time>2024-03-25T11:01:45.000Z</time>
</trkpt>
<trkpt lat="45.8407880" lon="9.3091970">
	<ele>1129.00</ele>
	<time>2024-03-25T11:01:46.000Z</time>
</trkpt>
<trkpt lat="45.8407890" lon="9.3091910">
	<ele>1129.20</ele>
	<time>2024-03-25T11:01:47.000Z</time>
</trkpt>
<trkpt lat="45.8407880" lon="9.3091810">
	<ele>1129.40</ele>
	<time>2024-03-25T11:01:48.000Z</time>
</trkpt>
<trkpt lat="45.8407830" lon="9.3091700">
	<ele>1129.60</ele>
	<time>2024-03-25T11:01:49.000Z</time>
</trkpt>
<trkpt lat="45.8407800" lon="9.3091600">
	<ele>1129.60</ele>
	<time>2024-03-25T11:01:50.000Z</time>
</trkpt>
<trkpt lat="45.8407770" lon="9.3091520">
	<ele>1130.00</ele>
	<time>2024-03-25T11:01:51.000Z</time>
</trkpt>
<trkpt lat="45.8407710" lon="9.3091480">
	<ele>1130.20</ele>
	<time>2024-03-25T11:01:52.000Z</time>
</trkpt>
<trkpt lat="45.8407630" lon="9.3091460">
	<ele>1130.40</ele>
	<time>2024-03-25T11:01:53.000Z</time>
</trkpt>
<trkpt lat="45.8407560" lon="9.3091410">
	<ele>1130.40</ele>
	<time>2024-03-25T11:01:54.000Z</time>
</trkpt>
<trkpt lat="45.8407520" lon="9.3091410">
	<ele>1130.80</ele>
	<time>2024-03-25T11:01:55.000Z</time>
</trkpt>
<trkpt lat="45.8407490" lon="9.3091410">
	<ele>1131.00</ele>
	<time>2024-03-25T11:01:56.000Z</time>
</trkpt>
<trkpt lat="45.8407440" lon="9.3091360">
	<ele>1131.20</ele>
	<time>2024-03-25T11:01:57.000Z</time>
</trkpt>
<trkpt lat="45.8407370" lon="9.3091320">
	<ele>1131.20</ele>
	<time>2024-03-25T11:01:58.000Z</time>
</trkpt>
<trkpt lat="45.8407330" lon="9.3091250">
	<ele>1131.40</ele>
	<time>2024-03-25T11:01:59.000Z</time>
</trkpt>
<trkpt lat="45.8407300" lon="9.3091140">
	<ele>1131.40</ele>
	<time>2024-03-25T11:02:00.000Z</time>
</trkpt>
<trkpt lat="45.8407270" lon="9.3091010">
	<ele>1131.40</ele>
	<time>2024-03-25T11:02:01.000Z</time>
</trkpt>
<trkpt lat="45.8407210" lon="9.3090880">
	<ele>1131.60</ele>
	<time>2024-03-25T11:02:02.000Z</time>
</trkpt>
<trkpt lat="45.8407140" lon="9.3090780">
	<ele>1131.60</ele>
	<time>2024-03-25T11:02:03.000Z</time>
</trkpt>
<trkpt lat="45.8407070" lon="9.3090690">
	<ele>1131.80</ele>
	<time>2024-03-25T11:02:04.000Z</time>
</trkpt>
<trkpt lat="45.8407010" lon="9.3090630">
	<ele>1132.00</ele>
	<time>2024-03-25T11:02:05.000Z</time>
</trkpt>
<trkpt lat="45.8406930" lon="9.3090550">
	<ele>1132.20</ele>
	<time>2024-03-25T11:02:06.000Z</time>
</trkpt>
<trkpt lat="45.8406860" lon="9.3090430">
	<ele>1132.20</ele>
	<time>2024-03-25T11:02:07.000Z</time>
</trkpt>
<trkpt lat="45.8406820" lon="9.3090340">
	<ele>1132.40</ele>
	<time>2024-03-25T11:02:08.000Z</time>
</trkpt>
<trkpt lat="45.8406760" lon="9.3090220">
	<ele>1132.60</ele>
	<time>2024-03-25T11:02:09.000Z</time>
</trkpt>
<trkpt lat="45.8406710" lon="9.3090080">
	<ele>1132.80</ele>
	<time>2024-03-25T11:02:10.000Z</time>
</trkpt>
<trkpt lat="45.8406660" lon="9.3089980">
	<ele>1133.00</ele>
	<time>2024-03-25T11:02:11.000Z</time>
</trkpt>
<trkpt lat="45.8406620" lon="9.3089880">
	<ele>1133.20</ele>
	<time>2024-03-25T11:02:12.000Z</time>
</trkpt>
<trkpt lat="45.8406580" lon="9.3089760">
	<ele>1133.20</ele>
	<time>2024-03-25T11:02:13.000Z</time>
</trkpt>
<trkpt lat="45.8406520" lon="9.3089640">
	<ele>1133.20</ele>
	<time>2024-03-25T11:02:14.000Z</time>
</trkpt>
<trkpt lat="45.8406480" lon="9.3089530">
	<ele>1133.40</ele>
	<time>2024-03-25T11:02:15.000Z</time>
</trkpt>
<trkpt lat="45.8406450" lon="9.3089400">
	<ele>1133.40</ele>
	<time>2024-03-25T11:02:16.000Z</time>
</trkpt>
<trkpt lat="45.8406390" lon="9.3089300">
	<ele>1133.60</ele>
	<time>2024-03-25T11:02:17.000Z</time>
</trkpt>
<trkpt lat="45.8406350" lon="9.3089170">
	<ele>1133.60</ele>
	<time>2024-03-25T11:02:18.000Z</time>
</trkpt>
<trkpt lat="45.8406310" lon="9.3089030">
	<ele>1133.60</ele>
	<time>2024-03-25T11:02:19.000Z</time>
</trkpt>
<trkpt lat="45.8406270" lon="9.3088860">
	<ele>1133.40</ele>
	<time>2024-03-25T11:02:20.000Z</time>
</trkpt>
<trkpt lat="45.8406210" lon="9.3088730">
	<ele>1133.20</ele>
	<time>2024-03-25T11:02:21.000Z</time>
</trkpt>
<trkpt lat="45.8406150" lon="9.3088580">
	<ele>1133.00</ele>
	<time>2024-03-25T11:02:22.000Z</time>
</trkpt>
<trkpt lat="45.8406080" lon="9.3088440">
	<ele>1133.00</ele>
	<time>2024-03-25T11:02:23.000Z</time>
</trkpt>
<trkpt lat="45.8406040" lon="9.3088350">
	<ele>1133.00</ele>
	<time>2024-03-25T11:02:24.000Z</time>
</trkpt>
<trkpt lat="45.8405990" lon="9.3088230">
	<ele>1133.00</ele>
	<time>2024-03-25T11:02:25.000Z</time>
</trkpt>
<trkpt lat="45.8405920" lon="9.3088110">
	<ele>1133.00</ele>
	<time>2024-03-25T11:02:26.000Z</time>
</trkpt>
<trkpt lat="45.8405860" lon="9.3087990">
	<ele>1133.00</ele>
	<time>2024-03-25T11:02:27.000Z</time>
</trkpt>
<trkpt lat="45.8405790" lon="9.3087920">
	<ele>1133.00</ele>
	<time>2024-03-25T11:02:28.000Z</time>
</trkpt>
<trkpt lat="45.8405740" lon="9.3087840">
	<ele>1133.20</ele>
	<time>2024-03-25T11:02:29.000Z</time>
</trkpt>
<trkpt lat="45.8405650" lon="9.3087760">
	<ele>1133.40</ele>
	<time>2024-03-25T11:02:30.000Z</time>
</trkpt>
<trkpt lat="45.8405560" lon="9.3087670">
	<ele>1133.60</ele>
	<time>2024-03-25T11:02:31.000Z</time>
</trkpt>
<trkpt lat="45.8405480" lon="9.3087560">
	<ele>1133.80</ele>
	<time>2024-03-25T11:02:32.000Z</time>
</trkpt>
<trkpt lat="45.8405420" lon="9.3087480">
	<ele>1134.00</ele>
	<time>2024-03-25T11:02:33.000Z</time>
</trkpt>
<trkpt lat="45.8405360" lon="9.3087390">
	<ele>1134.20</ele>
	<time>2024-03-25T11:02:34.000Z</time>
</trkpt>
<trkpt lat="45.8405340" lon="9.3087320">
	<ele>1134.40</ele>
	<time>2024-03-25T11:02:35.000Z</time>
</trkpt>
<trkpt lat="45.8405330" lon="9.3087240">
	<ele>1134.60</ele>
	<time>2024-03-25T11:02:36.000Z</time>
</trkpt>
<trkpt lat="45.8405330" lon="9.3087150">
	<ele>1134.80</ele>
	<time>2024-03-25T11:02:37.000Z</time>
</trkpt>
<trkpt lat="45.8405340" lon="9.3087050">
	<ele>1135.00</ele>
	<time>2024-03-25T11:02:38.000Z</time>
</trkpt>
<trkpt lat="45.8405310" lon="9.3086950">
	<ele>1135.20</ele>
	<time>2024-03-25T11:02:39.000Z</time>
</trkpt>
<trkpt lat="45.8405220" lon="9.3086890">
	<ele>1135.20</ele>
	<time>2024-03-25T11:02:40.000Z</time>
</trkpt>
<trkpt lat="45.8405160" lon="9.3086850">
	<ele>1135.40</ele>
	<time>2024-03-25T11:02:41.000Z</time>
</trkpt>
<trkpt lat="45.8405080" lon="9.3086790">
	<ele>1135.60</ele>
	<time>2024-03-25T11:02:42.000Z</time>
</trkpt>
<trkpt lat="45.8405000" lon="9.3086750">
	<ele>1135.80</ele>
	<time>2024-03-25T11:02:43.000Z</time>
</trkpt>
<trkpt lat="45.8404950" lon="9.3086680">
	<ele>1136.00</ele>
	<time>2024-03-25T11:02:44.000Z</time>
</trkpt>
<trkpt lat="45.8404900" lon="9.3086600">
	<ele>1136.20</ele>
	<time>2024-03-25T11:02:45.000Z</time>
</trkpt>
<trkpt lat="45.8404850" lon="9.3086490">
	<ele>1136.40</ele>
	<time>2024-03-25T11:02:46.000Z</time>
</trkpt>
<trkpt lat="45.8404790" lon="9.3086410">
	<ele>1136.60</ele>
	<time>2024-03-25T11:02:47.000Z</time>
</trkpt>
<trkpt lat="45.8404720" lon="9.3086320">
	<ele>1136.60</ele>
	<time>2024-03-25T11:02:48.000Z</time>
</trkpt>
<trkpt lat="45.8404660" lon="9.3086230">
	<ele>1136.80</ele>
	<time>2024-03-25T11:02:49.000Z</time>
</trkpt>
<trkpt lat="45.8404600" lon="9.3086100">
	<ele>1136.80</ele>
	<time>2024-03-25T11:02:50.000Z</time>
</trkpt>
<trkpt lat="45.8404550" lon="9.3086000">
	<ele>1136.80</ele>
	<time>2024-03-25T11:02:51.000Z</time>
</trkpt>
<trkpt lat="45.8404500" lon="9.3085910">
	<ele>1137.00</ele>
	<time>2024-03-25T11:02:52.000Z</time>
</trkpt>
<trkpt lat="45.8404430" lon="9.3085800">
	<ele>1137.20</ele>
	<time>2024-03-25T11:02:53.000Z</time>
</trkpt>
<trkpt lat="45.8404380" lon="9.3085760">
	<ele>1137.40</ele>
	<time>2024-03-25T11:02:54.000Z</time>
</trkpt>
<trkpt lat="45.8404330" lon="9.3085690">
	<ele>1137.60</ele>
	<time>2024-03-25T11:02:55.000Z</time>
</trkpt>
<trkpt lat="45.8404290" lon="9.3085590">
	<ele>1137.60</ele>
	<time>2024-03-25T11:02:56.000Z</time>
</trkpt>
<trkpt lat="45.8404260" lon="9.3085480">
	<ele>1137.60</ele>
	<time>2024-03-25T11:02:57.000Z</time>
</trkpt>
<trkpt lat="45.8404260" lon="9.3085420">
	<ele>1137.60</ele>
	<time>2024-03-25T11:02:58.000Z</time>
</trkpt>
<trkpt lat="45.8404260" lon="9.3085420">
	<ele>1137.40</ele>
	<time>2024-03-25T11:02:59.000Z</time>
</trkpt>
<trkpt lat="45.8404280" lon="9.3085440">
	<ele>1137.40</ele>
	<time>2024-03-25T11:03:00.000Z</time>
</trkpt>
<trkpt lat="45.8404290" lon="9.3085470">
	<ele>1137.40</ele>
	<time>2024-03-25T11:03:01.000Z</time>
</trkpt>
<trkpt lat="45.8404300" lon="9.3085500">
	<ele>1137.20</ele>
	<time>2024-03-25T11:03:02.000Z</time>
</trkpt>
<trkpt lat="45.8404310" lon="9.3085520">
	<ele>1137.20</ele>
	<time>2024-03-25T11:03:03.000Z</time>
</trkpt>
<trkpt lat="45.8404320" lon="9.3085510">
	<ele>1137.20</ele>
	<time>2024-03-25T11:03:04.000Z</time>
</trkpt>
<trkpt lat="45.8404330" lon="9.3085500">
	<ele>1137.20</ele>
	<time>2024-03-25T11:03:05.000Z</time>
</trkpt>
<trkpt lat="45.8404330" lon="9.3085500">
	<ele>1137.20</ele>
	<time>2024-03-25T11:03:06.000Z</time>
</trkpt>
<trkpt lat="45.8404330" lon="9.3085500">
	<ele>1137.20</ele>
	<time>2024-03-25T11:03:07.000Z</time>
</trkpt>
<trkpt lat="45.8404330" lon="9.3085500">
	<ele>1137.20</ele>
	<time>2024-03-25T11:03:08.000Z</time>
</trkpt>
<trkpt lat="45.8404330" lon="9.3085500">
	<ele>1137.20</ele>
	<time>2024-03-25T11:03:09.000Z</time>
</trkpt>
<trkpt lat="45.8404330" lon="9.3085500">
	<ele>1137.00</ele>
	<time>2024-03-25T11:03:10.000Z</time>
</trkpt>
<trkpt lat="45.8404330" lon="9.3085500">
	<ele>1137.00</ele>
	<time>2024-03-25T11:03:11.000Z</time>
</trkpt>
<trkpt lat="45.8404330" lon="9.3085500">
	<ele>1137.00</ele>
	<time>2024-03-25T11:03:12.000Z</time>
</trkpt>
<trkpt lat="45.8404330" lon="9.3085500">
	<ele>1136.80</ele>
	<time>2024-03-25T11:03:13.000Z</time>
</trkpt>
<trkpt lat="45.8404330" lon="9.3085500">
	<ele>1136.80</ele>
	<time>2024-03-25T11:03:14.000Z</time>
</trkpt>
<trkpt lat="45.8404320" lon="9.3085500">
	<ele>1136.80</ele>
	<time>2024-03-25T11:03:15.000Z</time>
</trkpt>
<trkpt lat="45.8404320" lon="9.3085500">
	<ele>1136.80</ele>
	<time>2024-03-25T11:03:16.000Z</time>
</trkpt>
<trkpt lat="45.8404320" lon="9.3085500">
	<ele>1136.60</ele>
	<time>2024-03-25T11:03:17.000Z</time>
</trkpt>
<trkpt lat="45.8404290" lon="9.3085410">
	<ele>1136.60</ele>
	<time>2024-03-25T11:03:18.000Z</time>
</trkpt>
<trkpt lat="45.8404270" lon="9.3085220">
	<ele>1136.60</ele>
	<time>2024-03-25T11:03:19.000Z</time>
</trkpt>
<trkpt lat="45.8404250" lon="9.3085010">
	<ele>1136.40</ele>
	<time>2024-03-25T11:03:20.000Z</time>
</trkpt>
<trkpt lat="45.8404220" lon="9.3084810">
	<ele>1136.20</ele>
	<time>2024-03-25T11:03:21.000Z</time>
</trkpt>
<trkpt lat="45.8404200" lon="9.3084630">
	<ele>1136.00</ele>
	<time>2024-03-25T11:03:22.000Z</time>
</trkpt>
<trkpt lat="45.8404180" lon="9.3084500">
	<ele>1135.80</ele>
	<time>2024-03-25T11:03:23.000Z</time>
</trkpt>
<trkpt lat="45.8404200" lon="9.3084400">
	<ele>1135.80</ele>
	<time>2024-03-25T11:03:24.000Z</time>
</trkpt>
<trkpt lat="45.8404240" lon="9.3084300">
	<ele>1135.60</ele>
	<time>2024-03-25T11:03:25.000Z</time>
</trkpt>
<trkpt lat="45.8404270" lon="9.3084220">
	<ele>1135.40</ele>
	<time>2024-03-25T11:03:26.000Z</time>
</trkpt>
<trkpt lat="45.8404280" lon="9.3084090">
	<ele>1135.40</ele>
	<time>2024-03-25T11:03:27.000Z</time>
</trkpt>
<trkpt lat="45.8404360" lon="9.3084100">
	<ele>1135.20</ele>
	<time>2024-03-25T11:03:28.000Z</time>
</trkpt>
<trkpt lat="45.8404420" lon="9.3084170">
	<ele>1134.80</ele>
	<time>2024-03-25T11:03:29.000Z</time>
</trkpt>
<trkpt lat="45.8404510" lon="9.3084120">
	<ele>1134.60</ele>
	<time>2024-03-25T11:03:30.000Z</time>
</trkpt>
<trkpt lat="45.8404580" lon="9.3084040">
	<ele>1134.40</ele>
	<time>2024-03-25T11:03:31.000Z</time>
</trkpt>
<trkpt lat="45.8404630" lon="9.3083930">
	<ele>1134.00</ele>
	<time>2024-03-25T11:03:32.000Z</time>
</trkpt>
<trkpt lat="45.8404690" lon="9.3083820">
	<ele>1133.60</ele>
	<time>2024-03-25T11:03:33.000Z</time>
</trkpt>
<trkpt lat="45.8404740" lon="9.3083700">
	<ele>1133.20</ele>
	<time>2024-03-25T11:03:34.000Z</time>
</trkpt>
<trkpt lat="45.8404790" lon="9.3083580">
	<ele>1133.00</ele>
	<time>2024-03-25T11:03:35.000Z</time>
</trkpt>
<trkpt lat="45.8404830" lon="9.3083470">
	<ele>1132.60</ele>
	<time>2024-03-25T11:03:36.000Z</time>
</trkpt>
<trkpt lat="45.8404860" lon="9.3083340">
	<ele>1132.20</ele>
	<time>2024-03-25T11:03:37.000Z</time>
</trkpt>
<trkpt lat="45.8404870" lon="9.3083180">
	<ele>1132.00</ele>
	<time>2024-03-25T11:03:38.000Z</time>
</trkpt>
<trkpt lat="45.8404860" lon="9.3083000">
	<ele>1131.80</ele>
	<time>2024-03-25T11:03:39.000Z</time>
</trkpt>
<trkpt lat="45.8404870" lon="9.3082840">
	<ele>1131.40</ele>
	<time>2024-03-25T11:03:40.000Z</time>
</trkpt>
<trkpt lat="45.8404870" lon="9.3082680">
	<ele>1131.20</ele>
	<time>2024-03-25T11:03:41.000Z</time>
</trkpt>
<trkpt lat="45.8404870" lon="9.3082500">
	<ele>1131.00</ele>
	<time>2024-03-25T11:03:42.000Z</time>
</trkpt>
<trkpt lat="45.8404870" lon="9.3082330">
	<ele>1130.80</ele>
	<time>2024-03-25T11:03:43.000Z</time>
</trkpt>
<trkpt lat="45.8404890" lon="9.3082150">
	<ele>1130.60</ele>
	<time>2024-03-25T11:03:44.000Z</time>
</trkpt>
<trkpt lat="45.8404890" lon="9.3081980">
	<ele>1130.40</ele>
	<time>2024-03-25T11:03:45.000Z</time>
</trkpt>
<trkpt lat="45.8404860" lon="9.3081830">
	<ele>1130.40</ele>
	<time>2024-03-25T11:03:46.000Z</time>
</trkpt>
<trkpt lat="45.8404840" lon="9.3081670">
	<ele>1130.20</ele>
	<time>2024-03-25T11:03:47.000Z</time>
</trkpt>
<trkpt lat="45.8404850" lon="9.3081530">
	<ele>1130.20</ele>
	<time>2024-03-25T11:03:48.000Z</time>
</trkpt>
<trkpt lat="45.8404840" lon="9.3081380">
	<ele>1130.20</ele>
	<time>2024-03-25T11:03:49.000Z</time>
</trkpt>
<trkpt lat="45.8404860" lon="9.3081220">
	<ele>1130.00</ele>
	<time>2024-03-25T11:03:50.000Z</time>
</trkpt>
<trkpt lat="45.8404840" lon="9.3081080">
	<ele>1129.80</ele>
	<time>2024-03-25T11:03:51.000Z</time>
</trkpt>
<trkpt lat="45.8404780" lon="9.3080960">
	<ele>1129.80</ele>
	<time>2024-03-25T11:03:52.000Z</time>
</trkpt>
<trkpt lat="45.8404760" lon="9.3080880">
	<ele>1129.60</ele>
	<time>2024-03-25T11:03:53.000Z</time>
</trkpt>
<trkpt lat="45.8404820" lon="9.3080810">
	<ele>1129.60</ele>
	<time>2024-03-25T11:03:54.000Z</time>
</trkpt>
<trkpt lat="45.8404860" lon="9.3080680">
	<ele>1129.20</ele>
	<time>2024-03-25T11:03:55.000Z</time>
</trkpt>
<trkpt lat="45.8404930" lon="9.3080520">
	<ele>1129.00</ele>
	<time>2024-03-25T11:03:56.000Z</time>
</trkpt>
<trkpt lat="45.8405010" lon="9.3080370">
	<ele>1128.60</ele>
	<time>2024-03-25T11:03:57.000Z</time>
</trkpt>
<trkpt lat="45.8405030" lon="9.3080170">
	<ele>1128.40</ele>
	<time>2024-03-25T11:03:58.000Z</time>
</trkpt>
<trkpt lat="45.8405010" lon="9.3079980">
	<ele>1128.40</ele>
	<time>2024-03-25T11:03:59.000Z</time>
</trkpt>
<trkpt lat="45.8404980" lon="9.3079790">
	<ele>1128.20</ele>
	<time>2024-03-25T11:04:00.000Z</time>
</trkpt>
<trkpt lat="45.8404940" lon="9.3079630">
	<ele>1128.20</ele>
	<time>2024-03-25T11:04:01.000Z</time>
</trkpt>
<trkpt lat="45.8404910" lon="9.3079490">
	<ele>1128.20</ele>
	<time>2024-03-25T11:04:02.000Z</time>
</trkpt>
<trkpt lat="45.8404930" lon="9.3079360">
	<ele>1128.00</ele>
	<time>2024-03-25T11:04:03.000Z</time>
</trkpt>
<trkpt lat="45.8404960" lon="9.3079220">
	<ele>1128.00</ele>
	<time>2024-03-25T11:04:04.000Z</time>
</trkpt>
<trkpt lat="45.8404970" lon="9.3079100">
	<ele>1127.60</ele>
	<time>2024-03-25T11:04:05.000Z</time>
</trkpt>
<trkpt lat="45.8404970" lon="9.3078960">
	<ele>1127.40</ele>
	<time>2024-03-25T11:04:06.000Z</time>
</trkpt>
<trkpt lat="45.8404960" lon="9.3078850">
	<ele>1127.20</ele>
	<time>2024-03-25T11:04:07.000Z</time>
</trkpt>
<trkpt lat="45.8404940" lon="9.3078730">
	<ele>1127.00</ele>
	<time>2024-03-25T11:04:08.000Z</time>
</trkpt>
<trkpt lat="45.8404920" lon="9.3078660">
	<ele>1126.80</ele>
	<time>2024-03-25T11:04:09.000Z</time>
</trkpt>
<trkpt lat="45.8404970" lon="9.3078590">
	<ele>1126.60</ele>
	<time>2024-03-25T11:04:10.000Z</time>
</trkpt>
<trkpt lat="45.8405040" lon="9.3078470">
	<ele>1126.40</ele>
	<time>2024-03-25T11:04:11.000Z</time>
</trkpt>
<trkpt lat="45.8405080" lon="9.3078350">
	<ele>1126.20</ele>
	<time>2024-03-25T11:04:12.000Z</time>
</trkpt>
<trkpt lat="45.8405050" lon="9.3078220">
	<ele>1126.00</ele>
	<time>2024-03-25T11:04:13.000Z</time>
</trkpt>
<trkpt lat="45.8404980" lon="9.3078080">
	<ele>1125.80</ele>
	<time>2024-03-25T11:04:14.000Z</time>
</trkpt>
<trkpt lat="45.8404910" lon="9.3077930">
	<ele>1125.60</ele>
	<time>2024-03-25T11:04:15.000Z</time>
</trkpt>
<trkpt lat="45.8404850" lon="9.3077770">
	<ele>1125.60</ele>
	<time>2024-03-25T11:04:16.000Z</time>
</trkpt>
<trkpt lat="45.8404810" lon="9.3077640">
	<ele>1125.20</ele>
	<time>2024-03-25T11:04:17.000Z</time>
</trkpt>
<trkpt lat="45.8404750" lon="9.3077530">
	<ele>1125.00</ele>
	<time>2024-03-25T11:04:18.000Z</time>
</trkpt>
<trkpt lat="45.8404740" lon="9.3077420">
	<ele>1124.60</ele>
	<time>2024-03-25T11:04:19.000Z</time>
</trkpt>
<trkpt lat="45.8404750" lon="9.3077330">
	<ele>1124.40</ele>
	<time>2024-03-25T11:04:20.000Z</time>
</trkpt>
<trkpt lat="45.8404820" lon="9.3077250">
	<ele>1124.20</ele>
	<time>2024-03-25T11:04:21.000Z</time>
</trkpt>
<trkpt lat="45.8404900" lon="9.3077240">
	<ele>1124.00</ele>
	<time>2024-03-25T11:04:22.000Z</time>
</trkpt>
<trkpt lat="45.8405040" lon="9.3077240">
	<ele>1123.60</ele>
	<time>2024-03-25T11:04:23.000Z</time>
</trkpt>
<trkpt lat="45.8405160" lon="9.3077270">
	<ele>1123.40</ele>
	<time>2024-03-25T11:04:24.000Z</time>
</trkpt>
<trkpt lat="45.8405270" lon="9.3077280">
	<ele>1123.40</ele>
	<time>2024-03-25T11:04:25.000Z</time>
</trkpt>
<trkpt lat="45.8405360" lon="9.3077270">
	<ele>1123.20</ele>
	<time>2024-03-25T11:04:26.000Z</time>
</trkpt>
<trkpt lat="45.8405450" lon="9.3077200">
	<ele>1123.00</ele>
	<time>2024-03-25T11:04:27.000Z</time>
</trkpt>
<trkpt lat="45.8405460" lon="9.3077110">
	<ele>1122.80</ele>
	<time>2024-03-25T11:04:28.000Z</time>
</trkpt>
<trkpt lat="45.8405460" lon="9.3077010">
	<ele>1122.60</ele>
	<time>2024-03-25T11:04:29.000Z</time>
</trkpt>
<trkpt lat="45.8405420" lon="9.3076920">
	<ele>1122.40</ele>
	<time>2024-03-25T11:04:30.000Z</time>
</trkpt>
<trkpt lat="45.8405380" lon="9.3076790">
	<ele>1122.40</ele>
	<time>2024-03-25T11:04:31.000Z</time>
</trkpt>
<trkpt lat="45.8405330" lon="9.3076650">
	<ele>1122.40</ele>
	<time>2024-03-25T11:04:32.000Z</time>
</trkpt>
<trkpt lat="45.8405270" lon="9.3076510">
	<ele>1122.40</ele>
	<time>2024-03-25T11:04:33.000Z</time>
</trkpt>
<trkpt lat="45.8405190" lon="9.3076410">
	<ele>1122.40</ele>
	<time>2024-03-25T11:04:34.000Z</time>
</trkpt>
<trkpt lat="45.8405100" lon="9.3076340">
	<ele>1122.40</ele>
	<time>2024-03-25T11:04:35.000Z</time>
</trkpt>
<trkpt lat="45.8405020" lon="9.3076270">
	<ele>1122.40</ele>
	<time>2024-03-25T11:04:36.000Z</time>
</trkpt>
<trkpt lat="45.8404910" lon="9.3076190">
	<ele>1122.40</ele>
	<time>2024-03-25T11:04:37.000Z</time>
</trkpt>
<trkpt lat="45.8404830" lon="9.3076120">
	<ele>1122.40</ele>
	<time>2024-03-25T11:04:38.000Z</time>
</trkpt>
<trkpt lat="45.8404740" lon="9.3076030">
	<ele>1122.40</ele>
	<time>2024-03-25T11:04:39.000Z</time>
</trkpt>
<trkpt lat="45.8404630" lon="9.3075920">
	<ele>1122.60</ele>
	<time>2024-03-25T11:04:40.000Z</time>
</trkpt>
<trkpt lat="45.8404550" lon="9.3075800">
	<ele>1122.60</ele>
	<time>2024-03-25T11:04:41.000Z</time>
</trkpt>
<trkpt lat="45.8404470" lon="9.3075700">
	<ele>1122.60</ele>
	<time>2024-03-25T11:04:42.000Z</time>
</trkpt>
<trkpt lat="45.8404410" lon="9.3075570">
	<ele>1122.60</ele>
	<time>2024-03-25T11:04:43.000Z</time>
</trkpt>
<trkpt lat="45.8404320" lon="9.3075440">
	<ele>1122.80</ele>
	<time>2024-03-25T11:04:44.000Z</time>
</trkpt>
<trkpt lat="45.8404230" lon="9.3075330">
	<ele>1123.00</ele>
	<time>2024-03-25T11:04:45.000Z</time>
</trkpt>
<trkpt lat="45.8404130" lon="9.3075200">
	<ele>1123.00</ele>
	<time>2024-03-25T11:04:46.000Z</time>
</trkpt>
<trkpt lat="45.8404030" lon="9.3075080">
	<ele>1123.20</ele>
	<time>2024-03-25T11:04:47.000Z</time>
</trkpt>
<trkpt lat="45.8403930" lon="9.3074980">
	<ele>1123.20</ele>
	<time>2024-03-25T11:04:48.000Z</time>
</trkpt>
<trkpt lat="45.8403830" lon="9.3074890">
	<ele>1123.40</ele>
	<time>2024-03-25T11:04:49.000Z</time>
</trkpt>
<trkpt lat="45.8403740" lon="9.3074820">
	<ele>1123.40</ele>
	<time>2024-03-25T11:04:50.000Z</time>
</trkpt>
<trkpt lat="45.8403640" lon="9.3074740">
	<ele>1123.40</ele>
	<time>2024-03-25T11:04:51.000Z</time>
</trkpt>
<trkpt lat="45.8403560" lon="9.3074620">
	<ele>1123.40</ele>
	<time>2024-03-25T11:04:52.000Z</time>
</trkpt>
<trkpt lat="45.8403460" lon="9.3074490">
	<ele>1123.40</ele>
	<time>2024-03-25T11:04:53.000Z</time>
</trkpt>
<trkpt lat="45.8403370" lon="9.3074340">
	<ele>1123.40</ele>
	<time>2024-03-25T11:04:54.000Z</time>
</trkpt>
<trkpt lat="45.8403290" lon="9.3074200">
	<ele>1123.40</ele>
	<time>2024-03-25T11:04:55.000Z</time>
</trkpt>
<trkpt lat="45.8403210" lon="9.3074040">
	<ele>1123.40</ele>
	<time>2024-03-25T11:04:56.000Z</time>
</trkpt>
<trkpt lat="45.8403160" lon="9.3073890">
	<ele>1123.40</ele>
	<time>2024-03-25T11:04:57.000Z</time>
</trkpt>
<trkpt lat="45.8403040" lon="9.3073730">
	<ele>1123.60</ele>
	<time>2024-03-25T11:04:58.000Z</time>
</trkpt>
<trkpt lat="45.8402920" lon="9.3073610">
	<ele>1123.40</ele>
	<time>2024-03-25T11:04:59.000Z</time>
</trkpt>
<trkpt lat="45.8402820" lon="9.3073490">
	<ele>1123.40</ele>
	<time>2024-03-25T11:05:00.000Z</time>
</trkpt>
<trkpt lat="45.8402730" lon="9.3073350">
	<ele>1123.40</ele>
	<time>2024-03-25T11:05:01.000Z</time>
</trkpt>
<trkpt lat="45.8402630" lon="9.3073220">
	<ele>1123.40</ele>
	<time>2024-03-25T11:05:02.000Z</time>
</trkpt>
<trkpt lat="45.8402530" lon="9.3073100">
	<ele>1123.40</ele>
	<time>2024-03-25T11:05:03.000Z</time>
</trkpt>
<trkpt lat="45.8402430" lon="9.3073010">
	<ele>1123.40</ele>
	<time>2024-03-25T11:05:04.000Z</time>
</trkpt>
<trkpt lat="45.8402340" lon="9.3072930">
	<ele>1123.40</ele>
	<time>2024-03-25T11:05:05.000Z</time>
</trkpt>
<trkpt lat="45.8402240" lon="9.3072840">
	<ele>1123.40</ele>
	<time>2024-03-25T11:05:06.000Z</time>
</trkpt>
<trkpt lat="45.8402150" lon="9.3072740">
	<ele>1123.40</ele>
	<time>2024-03-25T11:05:07.000Z</time>
</trkpt>
<trkpt lat="45.8402060" lon="9.3072610">
	<ele>1123.40</ele>
	<time>2024-03-25T11:05:08.000Z</time>
</trkpt>
<trkpt lat="45.8401970" lon="9.3072470">
	<ele>1123.40</ele>
	<time>2024-03-25T11:05:09.000Z</time>
</trkpt>
<trkpt lat="45.8401880" lon="9.3072310">
	<ele>1123.40</ele>
	<time>2024-03-25T11:05:10.000Z</time>
</trkpt>
<trkpt lat="45.8401800" lon="9.3072170">
	<ele>1123.60</ele>
	<time>2024-03-25T11:05:11.000Z</time>
</trkpt>
<trkpt lat="45.8401740" lon="9.3072040">
	<ele>1123.60</ele>
	<time>2024-03-25T11:05:12.000Z</time>
</trkpt>
<trkpt lat="45.8401670" lon="9.3071930">
	<ele>1123.60</ele>
	<time>2024-03-25T11:05:13.000Z</time>
</trkpt>
<trkpt lat="45.8401580" lon="9.3071820">
	<ele>1123.60</ele>
	<time>2024-03-25T11:05:14.000Z</time>
</trkpt>
<trkpt lat="45.8401490" lon="9.3071780">
	<ele>1123.80</ele>
	<time>2024-03-25T11:05:15.000Z</time>
</trkpt>
<trkpt lat="45.8401390" lon="9.3071720">
	<ele>1123.80</ele>
	<time>2024-03-25T11:05:16.000Z</time>
</trkpt>
<trkpt lat="45.8401280" lon="9.3071640">
	<ele>1123.80</ele>
	<time>2024-03-25T11:05:17.000Z</time>
</trkpt>
<trkpt lat="45.8401180" lon="9.3071540">
	<ele>1123.80</ele>
	<time>2024-03-25T11:05:18.000Z</time>
</trkpt>
<trkpt lat="45.8401060" lon="9.3071440">
	<ele>1123.80</ele>
	<time>2024-03-25T11:05:19.000Z</time>
</trkpt>
<trkpt lat="45.8400930" lon="9.3071350">
	<ele>1123.60</ele>
	<time>2024-03-25T11:05:20.000Z</time>
</trkpt>
<trkpt lat="45.8400830" lon="9.3071250">
	<ele>1123.80</ele>
	<time>2024-03-25T11:05:21.000Z</time>
</trkpt>
<trkpt lat="45.8400710" lon="9.3071130">
	<ele>1123.80</ele>
	<time>2024-03-25T11:05:22.000Z</time>
</trkpt>
<trkpt lat="45.8400600" lon="9.3071040">
	<ele>1124.00</ele>
	<time>2024-03-25T11:05:23.000Z</time>
</trkpt>
<trkpt lat="45.8400510" lon="9.3070970">
	<ele>1123.80</ele>
	<time>2024-03-25T11:05:24.000Z</time>
</trkpt>
<trkpt lat="45.8400420" lon="9.3070880">
	<ele>1123.80</ele>
	<time>2024-03-25T11:05:25.000Z</time>
</trkpt>
<trkpt lat="45.8400310" lon="9.3070760">
	<ele>1123.60</ele>
	<time>2024-03-25T11:05:26.000Z</time>
</trkpt>
<trkpt lat="45.8400210" lon="9.3070640">
	<ele>1123.60</ele>
	<time>2024-03-25T11:05:27.000Z</time>
</trkpt>
<trkpt lat="45.8400120" lon="9.3070530">
	<ele>1123.60</ele>
	<time>2024-03-25T11:05:28.000Z</time>
</trkpt>
<trkpt lat="45.8400010" lon="9.3070400">
	<ele>1123.60</ele>
	<time>2024-03-25T11:05:29.000Z</time>
</trkpt>
<trkpt lat="45.8399910" lon="9.3070240">
	<ele>1123.40</ele>
	<time>2024-03-25T11:05:30.000Z</time>
</trkpt>
<trkpt lat="45.8399820" lon="9.3070090">
	<ele>1123.40</ele>
	<time>2024-03-25T11:05:31.000Z</time>
</trkpt>
<trkpt lat="45.8399710" lon="9.3069960">
	<ele>1123.40</ele>
	<time>2024-03-25T11:05:32.000Z</time>
</trkpt>
<trkpt lat="45.8399610" lon="9.3069840">
	<ele>1123.40</ele>
	<time>2024-03-25T11:05:33.000Z</time>
</trkpt>
<trkpt lat="45.8399520" lon="9.3069730">
	<ele>1123.20</ele>
	<time>2024-03-25T11:05:34.000Z</time>
</trkpt>
<trkpt lat="45.8399440" lon="9.3069630">
	<ele>1123.20</ele>
	<time>2024-03-25T11:05:35.000Z</time>
</trkpt>
<trkpt lat="45.8399350" lon="9.3069530">
	<ele>1123.20</ele>
	<time>2024-03-25T11:05:36.000Z</time>
</trkpt>
<trkpt lat="45.8399240" lon="9.3069430">
	<ele>1123.00</ele>
	<time>2024-03-25T11:05:37.000Z</time>
</trkpt>
<trkpt lat="45.8399140" lon="9.3069320">
	<ele>1123.00</ele>
	<time>2024-03-25T11:05:38.000Z</time>
</trkpt>
<trkpt lat="45.8399020" lon="9.3069210">
	<ele>1123.00</ele>
	<time>2024-03-25T11:05:39.000Z</time>
</trkpt>
<trkpt lat="45.8398920" lon="9.3069080">
	<ele>1123.00</ele>
	<time>2024-03-25T11:05:40.000Z</time>
</trkpt>
<trkpt lat="45.8398810" lon="9.3068930">
	<ele>1123.00</ele>
	<time>2024-03-25T11:05:41.000Z</time>
</trkpt>
<trkpt lat="45.8398730" lon="9.3068800">
	<ele>1123.00</ele>
	<time>2024-03-25T11:05:42.000Z</time>
</trkpt>
<trkpt lat="45.8398670" lon="9.3068640">
	<ele>1123.00</ele>
	<time>2024-03-25T11:05:43.000Z</time>
</trkpt>
<trkpt lat="45.8398590" lon="9.3068470">
	<ele>1123.00</ele>
	<time>2024-03-25T11:05:44.000Z</time>
</trkpt>
<trkpt lat="45.8398510" lon="9.3068330">
	<ele>1123.00</ele>
	<time>2024-03-25T11:05:45.000Z</time>
</trkpt>
<trkpt lat="45.8398410" lon="9.3068220">
	<ele>1123.00</ele>
	<time>2024-03-25T11:05:46.000Z</time>
</trkpt>
<trkpt lat="45.8398320" lon="9.3068090">
	<ele>1123.00</ele>
	<time>2024-03-25T11:05:47.000Z</time>
</trkpt>
<trkpt lat="45.8398230" lon="9.3067970">
	<ele>1123.00</ele>
	<time>2024-03-25T11:05:48.000Z</time>
</trkpt>
<trkpt lat="45.8398120" lon="9.3067870">
	<ele>1123.00</ele>
	<time>2024-03-25T11:05:49.000Z</time>
</trkpt>
<trkpt lat="45.8398060" lon="9.3067790">
	<ele>1123.00</ele>
	<time>2024-03-25T11:05:50.000Z</time>
</trkpt>
<trkpt lat="45.8398010" lon="9.3067760">
	<ele>1123.20</ele>
	<time>2024-03-25T11:05:51.000Z</time>
</trkpt>
<trkpt lat="45.8397940" lon="9.3067680">
	<ele>1123.20</ele>
	<time>2024-03-25T11:05:52.000Z</time>
</trkpt>
<trkpt lat="45.8397820" lon="9.3067600">
	<ele>1123.40</ele>
	<time>2024-03-25T11:05:53.000Z</time>
</trkpt>
<trkpt lat="45.8397730" lon="9.3067500">
	<ele>1123.40</ele>
	<time>2024-03-25T11:05:54.000Z</time>
</trkpt>
<trkpt lat="45.8397650" lon="9.3067400">
	<ele>1123.40</ele>
	<time>2024-03-25T11:05:55.000Z</time>
</trkpt>
<trkpt lat="45.8397550" lon="9.3067310">
	<ele>1123.60</ele>
	<time>2024-03-25T11:05:56.000Z</time>
</trkpt>
<trkpt lat="45.8397480" lon="9.3067240">
	<ele>1123.60</ele>
	<time>2024-03-25T11:05:57.000Z</time>
</trkpt>
<trkpt lat="45.8397410" lon="9.3067200">
	<ele>1123.80</ele>
	<time>2024-03-25T11:05:58.000Z</time>
</trkpt>
<trkpt lat="45.8397370" lon="9.3067180">
	<ele>1124.00</ele>
	<time>2024-03-25T11:05:59.000Z</time>
</trkpt>
<trkpt lat="45.8397340" lon="9.3067140">
	<ele>1124.00</ele>
	<time>2024-03-25T11:06:00.000Z</time>
</trkpt>
<trkpt lat="45.8397350" lon="9.3067040">
	<ele>1124.00</ele>
	<time>2024-03-25T11:06:01.000Z</time>
</trkpt>
<trkpt lat="45.8397350" lon="9.3066950">
	<ele>1124.00</ele>
	<time>2024-03-25T11:06:02.000Z</time>
</trkpt>
<trkpt lat="45.8397330" lon="9.3066910">
	<ele>1124.00</ele>
	<time>2024-03-25T11:06:03.000Z</time>
</trkpt>
<trkpt lat="45.8397310" lon="9.3066930">
	<ele>1123.80</ele>
	<time>2024-03-25T11:06:04.000Z</time>
</trkpt>
<trkpt lat="45.8397290" lon="9.3066970">
	<ele>1123.80</ele>
	<time>2024-03-25T11:06:05.000Z</time>
</trkpt>
<trkpt lat="45.8397290" lon="9.3067000">
	<ele>1123.60</ele>
	<time>2024-03-25T11:06:06.000Z</time>
</trkpt>
<trkpt lat="45.8397290" lon="9.3067000">
	<ele>1123.80</ele>
	<time>2024-03-25T11:06:07.000Z</time>
</trkpt>
<trkpt lat="45.8397270" lon="9.3066990">
	<ele>1123.80</ele>
	<time>2024-03-25T11:06:08.000Z</time>
</trkpt>
<trkpt lat="45.8397240" lon="9.3066960">
	<ele>1123.60</ele>
	<time>2024-03-25T11:06:09.000Z</time>
</trkpt>
<trkpt lat="45.8397250" lon="9.3066950">
	<ele>1123.60</ele>
	<time>2024-03-25T11:06:10.000Z</time>
</trkpt>
<trkpt lat="45.8397270" lon="9.3066930">
	<ele>1123.40</ele>
	<time>2024-03-25T11:06:11.000Z</time>
</trkpt>
<trkpt lat="45.8397300" lon="9.3066860">
	<ele>1123.40</ele>
	<time>2024-03-25T11:06:12.000Z</time>
</trkpt>
<trkpt lat="45.8397340" lon="9.3066790">
	<ele>1123.40</ele>
	<time>2024-03-25T11:06:13.000Z</time>
</trkpt>
<trkpt lat="45.8397380" lon="9.3066760">
	<ele>1123.40</ele>
	<time>2024-03-25T11:06:14.000Z</time>
</trkpt>
<trkpt lat="45.8397370" lon="9.3066690">
	<ele>1123.80</ele>
	<time>2024-03-25T11:06:15.000Z</time>
</trkpt>
<trkpt lat="45.8397330" lon="9.3066590">
	<ele>1124.00</ele>
	<time>2024-03-25T11:06:16.000Z</time>
</trkpt>
<trkpt lat="45.8397280" lon="9.3066510">
	<ele>1124.20</ele>
	<time>2024-03-25T11:06:17.000Z</time>
</trkpt>
<trkpt lat="45.8397220" lon="9.3066460">
	<ele>1124.20</ele>
	<time>2024-03-25T11:06:18.000Z</time>
</trkpt>
<trkpt lat="45.8397140" lon="9.3066410">
	<ele>1124.20</ele>
	<time>2024-03-25T11:06:19.000Z</time>
</trkpt>
<trkpt lat="45.8397050" lon="9.3066360">
	<ele>1124.20</ele>
	<time>2024-03-25T11:06:20.000Z</time>
</trkpt>
<trkpt lat="45.8396970" lon="9.3066280">
	<ele>1124.20</ele>
	<time>2024-03-25T11:06:21.000Z</time>
</trkpt>
<trkpt lat="45.8396900" lon="9.3066180">
	<ele>1124.20</ele>
	<time>2024-03-25T11:06:22.000Z</time>
</trkpt>
<trkpt lat="45.8396830" lon="9.3066110">
	<ele>1124.40</ele>
	<time>2024-03-25T11:06:23.000Z</time>
</trkpt>
<trkpt lat="45.8396790" lon="9.3066060">
	<ele>1124.40</ele>
	<time>2024-03-25T11:06:24.000Z</time>
</trkpt>
<trkpt lat="45.8396740" lon="9.3065960">
	<ele>1124.40</ele>
	<time>2024-03-25T11:06:25.000Z</time>
</trkpt>
<trkpt lat="45.8396690" lon="9.3065880">
	<ele>1124.40</ele>
	<time>2024-03-25T11:06:26.000Z</time>
</trkpt>
<trkpt lat="45.8396650" lon="9.3065840">
	<ele>1124.40</ele>
	<time>2024-03-25T11:06:27.000Z</time>
</trkpt>
<trkpt lat="45.8396630" lon="9.3065810">
	<ele>1124.40</ele>
	<time>2024-03-25T11:06:28.000Z</time>
</trkpt>
<trkpt lat="45.8396620" lon="9.3065730">
	<ele>1124.40</ele>
	<time>2024-03-25T11:06:29.000Z</time>
</trkpt>
<trkpt lat="45.8396620" lon="9.3065650">
	<ele>1124.60</ele>
	<time>2024-03-25T11:06:30.000Z</time>
</trkpt>
<trkpt lat="45.8396550" lon="9.3065500">
	<ele>1124.60</ele>
	<time>2024-03-25T11:06:31.000Z</time>
</trkpt>
<trkpt lat="45.8396470" lon="9.3065420">
	<ele>1124.60</ele>
	<time>2024-03-25T11:06:32.000Z</time>
</trkpt>
<trkpt lat="45.8396450" lon="9.3065410">
	<ele>1124.60</ele>
	<time>2024-03-25T11:06:33.000Z</time>
</trkpt>
<trkpt lat="45.8396460" lon="9.3065420">
	<ele>1124.80</ele>
	<time>2024-03-25T11:06:34.000Z</time>
</trkpt>
<trkpt lat="45.8396490" lon="9.3065420">
	<ele>1124.80</ele>
	<time>2024-03-25T11:06:35.000Z</time>
</trkpt>
<trkpt lat="45.8396520" lon="9.3065430">
	<ele>1124.80</ele>
	<time>2024-03-25T11:06:36.000Z</time>
</trkpt>
<trkpt lat="45.8396530" lon="9.3065450">
	<ele>1124.80</ele>
	<time>2024-03-25T11:06:37.000Z</time>
</trkpt>
<trkpt lat="45.8396530" lon="9.3065470">
	<ele>1124.80</ele>
	<time>2024-03-25T11:06:38.000Z</time>
</trkpt>
<trkpt lat="45.8396530" lon="9.3065490">
	<ele>1124.80</ele>
	<time>2024-03-25T11:06:39.000Z</time>
</trkpt>
<trkpt lat="45.8396530" lon="9.3065510">
	<ele>1124.80</ele>
	<time>2024-03-25T11:06:40.000Z</time>
</trkpt>
<trkpt lat="45.8396540" lon="9.3065550">
	<ele>1125.00</ele>
	<time>2024-03-25T11:06:41.000Z</time>
</trkpt>
<trkpt lat="45.8396550" lon="9.3065590">
	<ele>1125.00</ele>
	<time>2024-03-25T11:06:42.000Z</time>
</trkpt>
<trkpt lat="45.8396550" lon="9.3065620">
	<ele>1124.80</ele>
	<time>2024-03-25T11:06:43.000Z</time>
</trkpt>
<trkpt lat="45.8396550" lon="9.3065650">
	<ele>1124.60</ele>
	<time>2024-03-25T11:06:44.000Z</time>
</trkpt>
<trkpt lat="45.8396550" lon="9.3065660">
	<ele>1124.60</ele>
	<time>2024-03-25T11:06:45.000Z</time>
</trkpt>
<trkpt lat="45.8396550" lon="9.3065660">
	<ele>1124.60</ele>
	<time>2024-03-25T11:06:46.000Z</time>
</trkpt>
<trkpt lat="45.8396550" lon="9.3065660">
	<ele>1124.60</ele>
	<time>2024-03-25T11:06:47.000Z</time>
</trkpt>
<trkpt lat="45.8396550" lon="9.3065660">
	<ele>1124.40</ele>
	<time>2024-03-25T11:06:48.000Z</time>
</trkpt>
<trkpt lat="45.8396550" lon="9.3065660">
	<ele>1124.60</ele>
	<time>2024-03-25T11:06:49.000Z</time>
</trkpt>
<trkpt lat="45.8396550" lon="9.3065660">
	<ele>1124.60</ele>
	<time>2024-03-25T11:06:50.000Z</time>
</trkpt>
<trkpt lat="45.8396550" lon="9.3065660">
	<ele>1124.80</ele>
	<time>2024-03-25T11:06:51.000Z</time>
</trkpt>
<trkpt lat="45.8396550" lon="9.3065660">
	<ele>1124.80</ele>
	<time>2024-03-25T11:06:52.000Z</time>
</trkpt>
<trkpt lat="45.8396550" lon="9.3065660">
	<ele>1124.80</ele>
	<time>2024-03-25T11:06:53.000Z</time>
</trkpt>
<trkpt lat="45.8396550" lon="9.3065660">
	<ele>1124.80</ele>
	<time>2024-03-25T11:06:54.000Z</time>
</trkpt>
<trkpt lat="45.8396550" lon="9.3065660">
	<ele>1124.80</ele>
	<time>2024-03-25T11:06:55.000Z</time>
</trkpt>
<trkpt lat="45.8396550" lon="9.3065660">
	<ele>1124.80</ele>
	<time>2024-03-25T11:06:56.000Z</time>
</trkpt>
<trkpt lat="45.8396550" lon="9.3065660">
	<ele>1124.60</ele>
	<time>2024-03-25T11:06:57.000Z</time>
</trkpt>
<trkpt lat="45.8396550" lon="9.3065660">
	<ele>1124.60</ele>
	<time>2024-03-25T11:06:58.000Z</time>
</trkpt>
<trkpt lat="45.8396550" lon="9.3065660">
	<ele>1124.60</ele>
	<time>2024-03-25T11:06:59.000Z</time>
</trkpt>
<trkpt lat="45.8396550" lon="9.3065660">
	<ele>1124.60</ele>
	<time>2024-03-25T11:07:00.000Z</time>
</trkpt>
<trkpt lat="45.8396580" lon="9.3065660">
	<ele>1124.60</ele>
	<time>2024-03-25T11:07:01.000Z</time>
</trkpt>
<trkpt lat="45.8396580" lon="9.3065660">
	<ele>1124.60</ele>
	<time>2024-03-25T11:07:02.000Z</time>
</trkpt>
<trkpt lat="45.8396580" lon="9.3065650">
	<ele>1124.60</ele>
	<time>2024-03-25T11:07:03.000Z</time>
</trkpt>
<trkpt lat="45.8396580" lon="9.3065650">
	<ele>1124.60</ele>
	<time>2024-03-25T11:07:04.000Z</time>
</trkpt>
<trkpt lat="45.8396590" lon="9.3065650">
	<ele>1124.40</ele>
	<time>2024-03-25T11:07:05.000Z</time>
</trkpt>
<trkpt lat="45.8396590" lon="9.3065650">
	<ele>1124.40</ele>
	<time>2024-03-25T11:07:06.000Z</time>
</trkpt>
<trkpt lat="45.8396600" lon="9.3065650">
	<ele>1124.40</ele>
	<time>2024-03-25T11:07:07.000Z</time>
</trkpt>
<trkpt lat="45.8396600" lon="9.3065650">
	<ele>1124.40</ele>
	<time>2024-03-25T11:07:08.000Z</time>
</trkpt>
<trkpt lat="45.8396600" lon="9.3065650">
	<ele>1124.40</ele>
	<time>2024-03-25T11:07:09.000Z</time>
</trkpt>
<trkpt lat="45.8396600" lon="9.3065650">
	<ele>1124.40</ele>
	<time>2024-03-25T11:07:10.000Z</time>
</trkpt>
<trkpt lat="45.8396600" lon="9.3065650">
	<ele>1124.40</ele>
	<time>2024-03-25T11:07:11.000Z</time>
</trkpt>
<trkpt lat="45.8396610" lon="9.3065650">
	<ele>1124.40</ele>
	<time>2024-03-25T11:07:12.000Z</time>
</trkpt>
<trkpt lat="45.8396610" lon="9.3065650">
	<ele>1124.20</ele>
	<time>2024-03-25T11:07:13.000Z</time>
</trkpt>
<trkpt lat="45.8396610" lon="9.3065650">
	<ele>1124.20</ele>
	<time>2024-03-25T11:07:14.000Z</time>
</trkpt>
<trkpt lat="45.8396610" lon="9.3065650">
	<ele>1124.00</ele>
	<time>2024-03-25T11:07:15.000Z</time>
</trkpt>
<trkpt lat="45.8396610" lon="9.3065650">
	<ele>1124.00</ele>
	<time>2024-03-25T11:07:16.000Z</time>
</trkpt>
<trkpt lat="45.8396600" lon="9.3065650">
	<ele>1123.80</ele>
	<time>2024-03-25T11:07:17.000Z</time>
</trkpt>
<trkpt lat="45.8396600" lon="9.3065650">
	<ele>1123.80</ele>
	<time>2024-03-25T11:07:18.000Z</time>
</trkpt>
<trkpt lat="45.8396600" lon="9.3065650">
	<ele>1123.80</ele>
	<time>2024-03-25T11:07:19.000Z</time>
</trkpt>
<trkpt lat="45.8396600" lon="9.3065650">
	<ele>1123.80</ele>
	<time>2024-03-25T11:07:20.000Z</time>
</trkpt>
<trkpt lat="45.8396600" lon="9.3065650">
	<ele>1124.00</ele>
	<time>2024-03-25T11:07:21.000Z</time>
</trkpt>
<trkpt lat="45.8396600" lon="9.3065650">
	<ele>1124.00</ele>
	<time>2024-03-25T11:07:22.000Z</time>
</trkpt>
<trkpt lat="45.8396600" lon="9.3065650">
	<ele>1124.00</ele>
	<time>2024-03-25T11:07:23.000Z</time>
</trkpt>
<trkpt lat="45.8396600" lon="9.3065650">
	<ele>1124.00</ele>
	<time>2024-03-25T11:07:24.000Z</time>
</trkpt>
<trkpt lat="45.8396600" lon="9.3065650">
	<ele>1124.20</ele>
	<time>2024-03-25T11:07:25.000Z</time>
</trkpt>
<trkpt lat="45.8396600" lon="9.3065650">
	<ele>1124.20</ele>
	<time>2024-03-25T11:07:26.000Z</time>
</trkpt>
<trkpt lat="45.8396600" lon="9.3065650">
	<ele>1124.00</ele>
	<time>2024-03-25T11:07:27.000Z</time>
</trkpt>
<trkpt lat="45.8396600" lon="9.3065650">
	<ele>1124.00</ele>
	<time>2024-03-25T11:07:28.000Z</time>
</trkpt>
<trkpt lat="45.8396600" lon="9.3065650">
	<ele>1124.00</ele>
	<time>2024-03-25T11:07:29.000Z</time>
</trkpt>
<trkpt lat="45.8396600" lon="9.3065650">
	<ele>1124.00</ele>
	<time>2024-03-25T11:07:30.000Z</time>
</trkpt>
<trkpt lat="45.8396600" lon="9.3065650">
	<ele>1124.00</ele>
	<time>2024-03-25T11:07:31.000Z</time>
</trkpt>
<trkpt lat="45.8396600" lon="9.3065650">
	<ele>1124.00</ele>
	<time>2024-03-25T11:07:32.000Z</time>
</trkpt>
<trkpt lat="45.8396600" lon="9.3065650">
	<ele>1124.00</ele>
	<time>2024-03-25T11:07:33.000Z</time>
</trkpt>
<trkpt lat="45.8396590" lon="9.3065650">
	<ele>1123.80</ele>
	<time>2024-03-25T11:07:34.000Z</time>
</trkpt>
<trkpt lat="45.8396590" lon="9.3065650">
	<ele>1123.80</ele>
	<time>2024-03-25T11:07:35.000Z</time>
</trkpt>
<trkpt lat="45.8396590" lon="9.3065650">
	<ele>1123.80</ele>
	<time>2024-03-25T11:07:36.000Z</time>
</trkpt>
<trkpt lat="45.8396590" lon="9.3065650">
	<ele>1123.80</ele>
	<time>2024-03-25T11:07:37.000Z</time>
</trkpt>
<trkpt lat="45.8396590" lon="9.3065660">
	<ele>1123.80</ele>
	<time>2024-03-25T11:07:38.000Z</time>
</trkpt>
<trkpt lat="45.8396590" lon="9.3065660">
	<ele>1123.80</ele>
	<time>2024-03-25T11:07:39.000Z</time>
</trkpt>
<trkpt lat="45.8396590" lon="9.3065660">
	<ele>1123.80</ele>
	<time>2024-03-25T11:07:40.000Z</time>
</trkpt>
<trkpt lat="45.8396590" lon="9.3065670">
	<ele>1123.80</ele>
	<time>2024-03-25T11:07:41.000Z</time>
</trkpt>
<trkpt lat="45.8396590" lon="9.3065670">
	<ele>1123.80</ele>
	<time>2024-03-25T11:07:42.000Z</time>
</trkpt>
<trkpt lat="45.8396590" lon="9.3065670">
	<ele>1123.80</ele>
	<time>2024-03-25T11:07:43.000Z</time>
</trkpt>
<trkpt lat="45.8396590" lon="9.3065670">
	<ele>1123.80</ele>
	<time>2024-03-25T11:07:44.000Z</time>
</trkpt>
<trkpt lat="45.8396590" lon="9.3065670">
	<ele>1123.80</ele>
	<time>2024-03-25T11:07:45.000Z</time>
</trkpt>
<trkpt lat="45.8396600" lon="9.3065670">
	<ele>1124.00</ele>
	<time>2024-03-25T11:07:46.000Z</time>
</trkpt>
<trkpt lat="45.8396600" lon="9.3065670">
	<ele>1124.00</ele>
	<time>2024-03-25T11:07:47.000Z</time>
</trkpt>
<trkpt lat="45.8396610" lon="9.3065670">
	<ele>1124.20</ele>
	<time>2024-03-25T11:07:48.000Z</time>
</trkpt>
<trkpt lat="45.8396610" lon="9.3065660">
	<ele>1124.20</ele>
	<time>2024-03-25T11:07:49.000Z</time>
</trkpt>
<trkpt lat="45.8396610" lon="9.3065650">
	<ele>1124.20</ele>
	<time>2024-03-25T11:07:50.000Z</time>
</trkpt>
<trkpt lat="45.8396610" lon="9.3065650">
	<ele>1124.20</ele>
	<time>2024-03-25T11:07:51.000Z</time>
</trkpt>
<trkpt lat="45.8396610" lon="9.3065650">
	<ele>1124.20</ele>
	<time>2024-03-25T11:07:52.000Z</time>
</trkpt>
<trkpt lat="45.8396610" lon="9.3065650">
	<ele>1124.20</ele>
	<time>2024-03-25T11:07:53.000Z</time>
</trkpt>
<trkpt lat="45.8396610" lon="9.3065650">
	<ele>1124.20</ele>
	<time>2024-03-25T11:07:54.000Z</time>
</trkpt>
<trkpt lat="45.8396610" lon="9.3065640">
	<ele>1124.20</ele>
	<time>2024-03-25T11:07:55.000Z</time>
</trkpt>
<trkpt lat="45.8396610" lon="9.3065640">
	<ele>1124.20</ele>
	<time>2024-03-25T11:07:56.000Z</time>
</trkpt>
<trkpt lat="45.8396620" lon="9.3065640">
	<ele>1124.20</ele>
	<time>2024-03-25T11:07:57.000Z</time>
</trkpt>
<trkpt lat="45.8396620" lon="9.3065640">
	<ele>1124.20</ele>
	<time>2024-03-25T11:07:58.000Z</time>
</trkpt>
<trkpt lat="45.8396620" lon="9.3065630">
	<ele>1124.20</ele>
	<time>2024-03-25T11:07:59.000Z</time>
</trkpt>
<trkpt lat="45.8396620" lon="9.3065630">
	<ele>1124.20</ele>
	<time>2024-03-25T11:08:00.000Z</time>
</trkpt>
<trkpt lat="45.8396620" lon="9.3065630">
	<ele>1124.20</ele>
	<time>2024-03-25T11:08:01.000Z</time>
</trkpt>
<trkpt lat="45.8396620" lon="9.3065620">
	<ele>1124.20</ele>
	<time>2024-03-25T11:08:02.000Z</time>
</trkpt>
<trkpt lat="45.8396620" lon="9.3065610">
	<ele>1124.20</ele>
	<time>2024-03-25T11:08:03.000Z</time>
</trkpt>
<trkpt lat="45.8396620" lon="9.3065610">
	<ele>1124.20</ele>
	<time>2024-03-25T11:08:04.000Z</time>
</trkpt>
<trkpt lat="45.8396620" lon="9.3065610">
	<ele>1124.20</ele>
	<time>2024-03-25T11:08:05.000Z</time>
</trkpt>
<trkpt lat="45.8396620" lon="9.3065610">
	<ele>1124.20</ele>
	<time>2024-03-25T11:08:06.000Z</time>
</trkpt>
<trkpt lat="45.8396620" lon="9.3065610">
	<ele>1124.20</ele>
	<time>2024-03-25T11:08:07.000Z</time>
</trkpt>
<trkpt lat="45.8396620" lon="9.3065610">
	<ele>1124.20</ele>
	<time>2024-03-25T11:08:08.000Z</time>
</trkpt>
<trkpt lat="45.8396620" lon="9.3065610">
	<ele>1124.20</ele>
	<time>2024-03-25T11:08:09.000Z</time>
</trkpt>
<trkpt lat="45.8396620" lon="9.3065600">
	<ele>1124.20</ele>
	<time>2024-03-25T11:08:10.000Z</time>
</trkpt>
<trkpt lat="45.8396630" lon="9.3065600">
	<ele>1124.20</ele>
	<time>2024-03-25T11:08:11.000Z</time>
</trkpt>
<trkpt lat="45.8396630" lon="9.3065600">
	<ele>1124.20</ele>
	<time>2024-03-25T11:08:12.000Z</time>
</trkpt>
<trkpt lat="45.8396630" lon="9.3065600">
	<ele>1124.20</ele>
	<time>2024-03-25T11:08:13.000Z</time>
</trkpt>
<trkpt lat="45.8396630" lon="9.3065600">
	<ele>1124.20</ele>
	<time>2024-03-25T11:08:14.000Z</time>
</trkpt>
<trkpt lat="45.8396640" lon="9.3065600">
	<ele>1124.20</ele>
	<time>2024-03-25T11:08:15.000Z</time>
</trkpt>
<trkpt lat="45.8396640" lon="9.3065600">
	<ele>1124.20</ele>
	<time>2024-03-25T11:08:16.000Z</time>
</trkpt>
<trkpt lat="45.8396640" lon="9.3065600">
	<ele>1124.20</ele>
	<time>2024-03-25T11:08:17.000Z</time>
</trkpt>
<trkpt lat="45.8396650" lon="9.3065600">
	<ele>1124.20</ele>
	<time>2024-03-25T11:08:18.000Z</time>
</trkpt>
<trkpt lat="45.8396650" lon="9.3065600">
	<ele>1124.20</ele>
	<time>2024-03-25T11:08:19.000Z</time>
</trkpt>
<trkpt lat="45.8396650" lon="9.3065600">
	<ele>1124.20</ele>
	<time>2024-03-25T11:08:20.000Z</time>
</trkpt>
<trkpt lat="45.8396660" lon="9.3065600">
	<ele>1124.20</ele>
	<time>2024-03-25T11:08:21.000Z</time>
</trkpt>
<trkpt lat="45.8396660" lon="9.3065600">
	<ele>1124.20</ele>
	<time>2024-03-25T11:08:22.000Z</time>
</trkpt>
<trkpt lat="45.8396670" lon="9.3065600">
	<ele>1124.20</ele>
	<time>2024-03-25T11:08:23.000Z</time>
</trkpt>
<trkpt lat="45.8396670" lon="9.3065600">
	<ele>1124.20</ele>
	<time>2024-03-25T11:08:24.000Z</time>
</trkpt>
<trkpt lat="45.8396670" lon="9.3065600">
	<ele>1124.20</ele>
	<time>2024-03-25T11:08:25.000Z</time>
</trkpt>
<trkpt lat="45.8396670" lon="9.3065600">
	<ele>1124.20</ele>
	<time>2024-03-25T11:08:26.000Z</time>
</trkpt>
<trkpt lat="45.8396670" lon="9.3065590">
	<ele>1124.20</ele>
	<time>2024-03-25T11:08:27.000Z</time>
</trkpt>
<trkpt lat="45.8396670" lon="9.3065590">
	<ele>1124.20</ele>
	<time>2024-03-25T11:08:28.000Z</time>
</trkpt>
<trkpt lat="45.8396670" lon="9.3065590">
	<ele>1124.20</ele>
	<time>2024-03-25T11:08:29.000Z</time>
</trkpt>
<trkpt lat="45.8396670" lon="9.3065590">
	<ele>1124.20</ele>
	<time>2024-03-25T11:08:30.000Z</time>
</trkpt>
<trkpt lat="45.8396670" lon="9.3065580">
	<ele>1124.20</ele>
	<time>2024-03-25T11:08:31.000Z</time>
</trkpt>
<trkpt lat="45.8396670" lon="9.3065580">
	<ele>1124.20</ele>
	<time>2024-03-25T11:08:32.000Z</time>
</trkpt>
<trkpt lat="45.8396670" lon="9.3065580">
	<ele>1124.20</ele>
	<time>2024-03-25T11:08:33.000Z</time>
</trkpt>
<trkpt lat="45.8396670" lon="9.3065580">
	<ele>1124.20</ele>
	<time>2024-03-25T11:08:34.000Z</time>
</trkpt>
<trkpt lat="45.8396670" lon="9.3065580">
	<ele>1124.20</ele>
	<time>2024-03-25T11:08:35.000Z</time>
</trkpt>
<trkpt lat="45.8396670" lon="9.3065580">
	<ele>1124.20</ele>
	<time>2024-03-25T11:08:36.000Z</time>
</trkpt>
<trkpt lat="45.8396670" lon="9.3065580">
	<ele>1124.20</ele>
	<time>2024-03-25T11:08:37.000Z</time>
</trkpt>
<trkpt lat="45.8396670" lon="9.3065570">
	<ele>1124.20</ele>
	<time>2024-03-25T11:08:38.000Z</time>
</trkpt>
<trkpt lat="45.8396670" lon="9.3065570">
	<ele>1124.20</ele>
	<time>2024-03-25T11:08:39.000Z</time>
</trkpt>
<trkpt lat="45.8396670" lon="9.3065570">
	<ele>1124.20</ele>
	<time>2024-03-25T11:08:40.000Z</time>
</trkpt>
<trkpt lat="45.8396680" lon="9.3065570">
	<ele>1124.20</ele>
	<time>2024-03-25T11:08:41.000Z</time>
</trkpt>
<trkpt lat="45.8396680" lon="9.3065570">
	<ele>1124.20</ele>
	<time>2024-03-25T11:08:42.000Z</time>
</trkpt>
<trkpt lat="45.8396680" lon="9.3065570">
	<ele>1124.20</ele>
	<time>2024-03-25T11:08:43.000Z</time>
</trkpt>
<trkpt lat="45.8396680" lon="9.3065570">
	<ele>1124.20</ele>
	<time>2024-03-25T11:08:44.000Z</time>
</trkpt>
<trkpt lat="45.8396680" lon="9.3065570">
	<ele>1124.20</ele>
	<time>2024-03-25T11:08:45.000Z</time>
</trkpt>
<trkpt lat="45.8396680" lon="9.3065570">
	<ele>1124.20</ele>
	<time>2024-03-25T11:08:46.000Z</time>
</trkpt>
<trkpt lat="45.8396680" lon="9.3065560">
	<ele>1124.20</ele>
	<time>2024-03-25T11:08:47.000Z</time>
</trkpt>
<trkpt lat="45.8396680" lon="9.3065560">
	<ele>1124.20</ele>
	<time>2024-03-25T11:08:48.000Z</time>
</trkpt>
<trkpt lat="45.8396680" lon="9.3065560">
	<ele>1124.20</ele>
	<time>2024-03-25T11:08:49.000Z</time>
</trkpt>
<trkpt lat="45.8396680" lon="9.3065560">
	<ele>1124.20</ele>
	<time>2024-03-25T11:08:50.000Z</time>
</trkpt>
<trkpt lat="45.8396680" lon="9.3065560">
	<ele>1124.20</ele>
	<time>2024-03-25T11:08:51.000Z</time>
</trkpt>
<trkpt lat="45.8396680" lon="9.3065560">
	<ele>1124.20</ele>
	<time>2024-03-25T11:08:52.000Z</time>
</trkpt>
<trkpt lat="45.8396680" lon="9.3065560">
	<ele>1124.20</ele>
	<time>2024-03-25T11:08:53.000Z</time>
</trkpt>
<trkpt lat="45.8396680" lon="9.3065560">
	<ele>1124.20</ele>
	<time>2024-03-25T11:08:54.000Z</time>
</trkpt>
<trkpt lat="45.8396680" lon="9.3065570">
	<ele>1124.20</ele>
	<time>2024-03-25T11:08:55.000Z</time>
</trkpt>
<trkpt lat="45.8396680" lon="9.3065570">
	<ele>1124.20</ele>
	<time>2024-03-25T11:08:56.000Z</time>
</trkpt>
<trkpt lat="45.8396680" lon="9.3065570">
	<ele>1124.20</ele>
	<time>2024-03-25T11:08:57.000Z</time>
</trkpt>
<trkpt lat="45.8396680" lon="9.3065570">
	<ele>1124.20</ele>
	<time>2024-03-25T11:08:58.000Z</time>
</trkpt>
<trkpt lat="45.8396680" lon="9.3065570">
	<ele>1124.20</ele>
	<time>2024-03-25T11:08:59.000Z</time>
</trkpt>
<trkpt lat="45.8396680" lon="9.3065570">
	<ele>1124.20</ele>
	<time>2024-03-25T11:09:00.000Z</time>
</trkpt>
<trkpt lat="45.8396680" lon="9.3065570">
	<ele>1124.20</ele>
	<time>2024-03-25T11:09:01.000Z</time>
</trkpt>
<trkpt lat="45.8396680" lon="9.3065570">
	<ele>1124.20</ele>
	<time>2024-03-25T11:09:02.000Z</time>
</trkpt>
<trkpt lat="45.8396680" lon="9.3065570">
	<ele>1124.20</ele>
	<time>2024-03-25T11:09:03.000Z</time>
</trkpt>
<trkpt lat="45.8396680" lon="9.3065570">
	<ele>1124.20</ele>
	<time>2024-03-25T11:09:04.000Z</time>
</trkpt>
<trkpt lat="45.8396680" lon="9.3065580">
	<ele>1124.20</ele>
	<time>2024-03-25T11:09:05.000Z</time>
</trkpt>
<trkpt lat="45.8396680" lon="9.3065590">
	<ele>1124.20</ele>
	<time>2024-03-25T11:09:06.000Z</time>
</trkpt>
<trkpt lat="45.8396680" lon="9.3065600">
	<ele>1124.20</ele>
	<time>2024-03-25T11:09:07.000Z</time>
</trkpt>
<trkpt lat="45.8396680" lon="9.3065620">
	<ele>1124.20</ele>
	<time>2024-03-25T11:09:08.000Z</time>
</trkpt>
<trkpt lat="45.8396670" lon="9.3065630">
	<ele>1124.20</ele>
	<time>2024-03-25T11:09:09.000Z</time>
</trkpt>
<trkpt lat="45.8396670" lon="9.3065640">
	<ele>1124.20</ele>
	<time>2024-03-25T11:09:10.000Z</time>
</trkpt>
<trkpt lat="45.8396670" lon="9.3065650">
	<ele>1124.20</ele>
	<time>2024-03-25T11:09:11.000Z</time>
</trkpt>
<trkpt lat="45.8396670" lon="9.3065650">
	<ele>1124.20</ele>
	<time>2024-03-25T11:09:12.000Z</time>
</trkpt>
<trkpt lat="45.8396670" lon="9.3065660">
	<ele>1124.20</ele>
	<time>2024-03-25T11:09:13.000Z</time>
</trkpt>
<trkpt lat="45.8396670" lon="9.3065660">
	<ele>1124.20</ele>
	<time>2024-03-25T11:09:14.000Z</time>
</trkpt>
<trkpt lat="45.8396670" lon="9.3065670">
	<ele>1124.20</ele>
	<time>2024-03-25T11:09:15.000Z</time>
</trkpt>
<trkpt lat="45.8396670" lon="9.3065670">
	<ele>1124.20</ele>
	<time>2024-03-25T11:09:16.000Z</time>
</trkpt>
<trkpt lat="45.8396670" lon="9.3065670">
	<ele>1124.20</ele>
	<time>2024-03-25T11:09:17.000Z</time>
</trkpt>
<trkpt lat="45.8396670" lon="9.3065680">
	<ele>1124.20</ele>
	<time>2024-03-25T11:09:18.000Z</time>
</trkpt>
<trkpt lat="45.8396670" lon="9.3065680">
	<ele>1124.20</ele>
	<time>2024-03-25T11:09:19.000Z</time>
</trkpt>
<trkpt lat="45.8396670" lon="9.3065680">
	<ele>1124.20</ele>
	<time>2024-03-25T11:09:20.000Z</time>
</trkpt>
<trkpt lat="45.8396670" lon="9.3065690">
	<ele>1124.20</ele>
	<time>2024-03-25T11:09:21.000Z</time>
</trkpt>
<trkpt lat="45.8396670" lon="9.3065690">
	<ele>1124.20</ele>
	<time>2024-03-25T11:09:22.000Z</time>
</trkpt>
<trkpt lat="45.8396670" lon="9.3065690">
	<ele>1124.20</ele>
	<time>2024-03-25T11:09:23.000Z</time>
</trkpt>
<trkpt lat="45.8396670" lon="9.3065690">
	<ele>1124.20</ele>
	<time>2024-03-25T11:09:24.000Z</time>
</trkpt>
<trkpt lat="45.8396670" lon="9.3065690">
	<ele>1124.20</ele>
	<time>2024-03-25T11:09:25.000Z</time>
</trkpt>
<trkpt lat="45.8396680" lon="9.3065690">
	<ele>1124.20</ele>
	<time>2024-03-25T11:09:26.000Z</time>
</trkpt>
<trkpt lat="45.8396670" lon="9.3065620">
	<ele>1124.20</ele>
	<time>2024-03-25T11:09:27.000Z</time>
</trkpt>
<trkpt lat="45.8396620" lon="9.3065390">
	<ele>1124.20</ele>
	<time>2024-03-25T11:09:28.000Z</time>
</trkpt>
<trkpt lat="45.8396590" lon="9.3065170">
	<ele>1124.20</ele>
	<time>2024-03-25T11:09:29.000Z</time>
</trkpt>
<trkpt lat="45.8396540" lon="9.3064950">
	<ele>1124.20</ele>
	<time>2024-03-25T11:09:30.000Z</time>
</trkpt>
<trkpt lat="45.8396470" lon="9.3064730">
	<ele>1124.20</ele>
	<time>2024-03-25T11:09:31.000Z</time>
</trkpt>
<trkpt lat="45.8396370" lon="9.3064520">
	<ele>1124.20</ele>
	<time>2024-03-25T11:09:32.000Z</time>
</trkpt>
<trkpt lat="45.8396310" lon="9.3064340">
	<ele>1124.20</ele>
	<time>2024-03-25T11:09:33.000Z</time>
</trkpt>
<trkpt lat="45.8396210" lon="9.3064150">
	<ele>1124.20</ele>
	<time>2024-03-25T11:09:34.000Z</time>
</trkpt>
<trkpt lat="45.8396090" lon="9.3063960">
	<ele>1124.20</ele>
	<time>2024-03-25T11:09:35.000Z</time>
</trkpt>
<trkpt lat="45.8396040" lon="9.3063760">
	<ele>1124.20</ele>
	<time>2024-03-25T11:09:36.000Z</time>
</trkpt>
<trkpt lat="45.8396010" lon="9.3063640">
	<ele>1124.20</ele>
	<time>2024-03-25T11:09:37.000Z</time>
</trkpt>
<trkpt lat="45.8395990" lon="9.3063580">
	<ele>1124.20</ele>
	<time>2024-03-25T11:09:38.000Z</time>
</trkpt>
<trkpt lat="45.8395980" lon="9.3063540">
	<ele>1124.20</ele>
	<time>2024-03-25T11:09:39.000Z</time>
</trkpt>
<trkpt lat="45.8395980" lon="9.3063480">
	<ele>1124.20</ele>
	<time>2024-03-25T11:09:40.000Z</time>
</trkpt>
<trkpt lat="45.8395990" lon="9.3063460">
	<ele>1124.20</ele>
	<time>2024-03-25T11:09:41.000Z</time>
</trkpt>
<trkpt lat="45.8395990" lon="9.3063460">
	<ele>1124.20</ele>
	<time>2024-03-25T11:09:42.000Z</time>
</trkpt>
<trkpt lat="45.8395990" lon="9.3063460">
	<ele>1124.40</ele>
	<time>2024-03-25T11:09:43.000Z</time>
</trkpt>
<trkpt lat="45.8395980" lon="9.3063440">
	<ele>1124.40</ele>
	<time>2024-03-25T11:09:44.000Z</time>
</trkpt>
<trkpt lat="45.8395970" lon="9.3063390">
	<ele>1124.40</ele>
	<time>2024-03-25T11:09:45.000Z</time>
</trkpt>
<trkpt lat="45.8395970" lon="9.3063370">
	<ele>1124.20</ele>
	<time>2024-03-25T11:09:46.000Z</time>
</trkpt>
<trkpt lat="45.8395910" lon="9.3063260">
	<ele>1124.20</ele>
	<time>2024-03-25T11:09:47.000Z</time>
</trkpt>
<trkpt lat="45.8395840" lon="9.3063170">
	<ele>1124.20</ele>
	<time>2024-03-25T11:09:48.000Z</time>
</trkpt>
<trkpt lat="45.8395790" lon="9.3063150">
	<ele>1124.20</ele>
	<time>2024-03-25T11:09:49.000Z</time>
</trkpt>
<trkpt lat="45.8395770" lon="9.3063190">
	<ele>1124.20</ele>
	<time>2024-03-25T11:09:50.000Z</time>
</trkpt>
<trkpt lat="45.8395750" lon="9.3063210">
	<ele>1124.20</ele>
	<time>2024-03-25T11:09:51.000Z</time>
</trkpt>
<trkpt lat="45.8395740" lon="9.3063220">
	<ele>1124.20</ele>
	<time>2024-03-25T11:09:52.000Z</time>
</trkpt>
<trkpt lat="45.8395730" lon="9.3063210">
	<ele>1124.20</ele>
	<time>2024-03-25T11:09:53.000Z</time>
</trkpt>
<trkpt lat="45.8395710" lon="9.3063200">
	<ele>1124.20</ele>
	<time>2024-03-25T11:09:54.000Z</time>
</trkpt>
<trkpt lat="45.8395710" lon="9.3063200">
	<ele>1124.20</ele>
	<time>2024-03-25T11:09:55.000Z</time>
</trkpt>
<trkpt lat="45.8395710" lon="9.3063200">
	<ele>1124.20</ele>
	<time>2024-03-25T11:09:56.000Z</time>
</trkpt>
<trkpt lat="45.8395710" lon="9.3063200">
	<ele>1124.20</ele>
	<time>2024-03-25T11:09:57.000Z</time>
</trkpt>
<trkpt lat="45.8395710" lon="9.3063200">
	<ele>1124.20</ele>
	<time>2024-03-25T11:09:58.000Z</time>
</trkpt>
<trkpt lat="45.8395710" lon="9.3063200">
	<ele>1124.20</ele>
	<time>2024-03-25T11:09:59.000Z</time>
</trkpt>
<trkpt lat="45.8395710" lon="9.3063200">
	<ele>1124.00</ele>
	<time>2024-03-25T11:10:00.000Z</time>
</trkpt>
<trkpt lat="45.8395710" lon="9.3063200">
	<ele>1124.00</ele>
	<time>2024-03-25T11:10:01.000Z</time>
</trkpt>
<trkpt lat="45.8395710" lon="9.3063200">
	<ele>1124.00</ele>
	<time>2024-03-25T11:10:02.000Z</time>
</trkpt>
<trkpt lat="45.8395710" lon="9.3063200">
	<ele>1124.00</ele>
	<time>2024-03-25T11:10:03.000Z</time>
</trkpt>
<trkpt lat="45.8395710" lon="9.3063200">
	<ele>1124.00</ele>
	<time>2024-03-25T11:10:04.000Z</time>
</trkpt>
<trkpt lat="45.8395700" lon="9.3063150">
	<ele>1124.00</ele>
	<time>2024-03-25T11:10:05.000Z</time>
</trkpt>
<trkpt lat="45.8395650" lon="9.3062940">
	<ele>1124.00</ele>
	<time>2024-03-25T11:10:06.000Z</time>
</trkpt>
<trkpt lat="45.8395600" lon="9.3062760">
	<ele>1124.00</ele>
	<time>2024-03-25T11:10:07.000Z</time>
</trkpt>
<trkpt lat="45.8395550" lon="9.3062570">
	<ele>1124.00</ele>
	<time>2024-03-25T11:10:08.000Z</time>
</trkpt>
<trkpt lat="45.8395490" lon="9.3062350">
	<ele>1124.20</ele>
	<time>2024-03-25T11:10:09.000Z</time>
</trkpt>
<trkpt lat="45.8395420" lon="9.3062160">
	<ele>1124.20</ele>
	<time>2024-03-25T11:10:10.000Z</time>
</trkpt>
<trkpt lat="45.8395360" lon="9.3061950">
	<ele>1124.40</ele>
	<time>2024-03-25T11:10:11.000Z</time>
</trkpt>
<trkpt lat="45.8395290" lon="9.3061730">
	<ele>1124.40</ele>
	<time>2024-03-25T11:10:12.000Z</time>
</trkpt>
<trkpt lat="45.8395220" lon="9.3061510">
	<ele>1124.60</ele>
	<time>2024-03-25T11:10:13.000Z</time>
</trkpt>
<trkpt lat="45.8395140" lon="9.3061280">
	<ele>1124.60</ele>
	<time>2024-03-25T11:10:14.000Z</time>
</trkpt>
<trkpt lat="45.8395080" lon="9.3061120">
	<ele>1124.60</ele>
	<time>2024-03-25T11:10:15.000Z</time>
</trkpt>
<trkpt lat="45.8395020" lon="9.3060950">
	<ele>1124.60</ele>
	<time>2024-03-25T11:10:16.000Z</time>
</trkpt>
<trkpt lat="45.8394970" lon="9.3060810">
	<ele>1124.60</ele>
	<time>2024-03-25T11:10:17.000Z</time>
</trkpt>
<trkpt lat="45.8394920" lon="9.3060690">
	<ele>1124.60</ele>
	<time>2024-03-25T11:10:18.000Z</time>
</trkpt>
<trkpt lat="45.8394880" lon="9.3060550">
	<ele>1124.60</ele>
	<time>2024-03-25T11:10:19.000Z</time>
</trkpt>
<trkpt lat="45.8394830" lon="9.3060400">
	<ele>1124.60</ele>
	<time>2024-03-25T11:10:20.000Z</time>
</trkpt>
<trkpt lat="45.8394780" lon="9.3060260">
	<ele>1124.60</ele>
	<time>2024-03-25T11:10:21.000Z</time>
</trkpt>
<trkpt lat="45.8394730" lon="9.3060090">
	<ele>1124.60</ele>
	<time>2024-03-25T11:10:22.000Z</time>
</trkpt>
<trkpt lat="45.8394670" lon="9.3059960">
	<ele>1124.60</ele>
	<time>2024-03-25T11:10:23.000Z</time>
</trkpt>
<trkpt lat="45.8394620" lon="9.3059790">
	<ele>1124.40</ele>
	<time>2024-03-25T11:10:24.000Z</time>
</trkpt>
<trkpt lat="45.8394560" lon="9.3059620">
	<ele>1124.40</ele>
	<time>2024-03-25T11:10:25.000Z</time>
</trkpt>
<trkpt lat="45.8394490" lon="9.3059520">
	<ele>1124.40</ele>
	<time>2024-03-25T11:10:26.000Z</time>
</trkpt>
<trkpt lat="45.8394410" lon="9.3059410">
	<ele>1124.40</ele>
	<time>2024-03-25T11:10:27.000Z</time>
</trkpt>
<trkpt lat="45.8394350" lon="9.3059270">
	<ele>1124.60</ele>
	<time>2024-03-25T11:10:28.000Z</time>
</trkpt>
<trkpt lat="45.8394300" lon="9.3059140">
	<ele>1124.60</ele>
	<time>2024-03-25T11:10:29.000Z</time>
</trkpt>
<trkpt lat="45.8394250" lon="9.3058990">
	<ele>1124.60</ele>
	<time>2024-03-25T11:10:30.000Z</time>
</trkpt>
<trkpt lat="45.8394210" lon="9.3058840">
	<ele>1124.60</ele>
	<time>2024-03-25T11:10:31.000Z</time>
</trkpt>
<trkpt lat="45.8394150" lon="9.3058720">
	<ele>1124.80</ele>
	<time>2024-03-25T11:10:32.000Z</time>
</trkpt>
<trkpt lat="45.8394120" lon="9.3058670">
	<ele>1124.80</ele>
	<time>2024-03-25T11:10:33.000Z</time>
</trkpt>
<trkpt lat="45.8394100" lon="9.3058660">
	<ele>1124.80</ele>
	<time>2024-03-25T11:10:34.000Z</time>
</trkpt>
<trkpt lat="45.8394100" lon="9.3058670">
	<ele>1124.80</ele>
	<time>2024-03-25T11:10:35.000Z</time>
</trkpt>
<trkpt lat="45.8394110" lon="9.3058680">
	<ele>1124.80</ele>
	<time>2024-03-25T11:10:36.000Z</time>
</trkpt>
<trkpt lat="45.8394100" lon="9.3058700">
	<ele>1124.80</ele>
	<time>2024-03-25T11:10:37.000Z</time>
</trkpt>
<trkpt lat="45.8394110" lon="9.3058730">
	<ele>1124.80</ele>
	<time>2024-03-25T11:10:38.000Z</time>
</trkpt>
<trkpt lat="45.8394120" lon="9.3058740">
	<ele>1124.80</ele>
	<time>2024-03-25T11:10:39.000Z</time>
</trkpt>
<trkpt lat="45.8394120" lon="9.3058740">
	<ele>1124.80</ele>
	<time>2024-03-25T11:10:40.000Z</time>
</trkpt>
<trkpt lat="45.8394140" lon="9.3058720">
	<ele>1124.80</ele>
	<time>2024-03-25T11:10:41.000Z</time>
</trkpt>
<trkpt lat="45.8394150" lon="9.3058710">
	<ele>1124.80</ele>
	<time>2024-03-25T11:10:42.000Z</time>
</trkpt>
<trkpt lat="45.8394190" lon="9.3058720">
	<ele>1124.80</ele>
	<time>2024-03-25T11:10:43.000Z</time>
</trkpt>
<trkpt lat="45.8394190" lon="9.3058740">
	<ele>1125.00</ele>
	<time>2024-03-25T11:10:44.000Z</time>
</trkpt>
<trkpt lat="45.8394190" lon="9.3058750">
	<ele>1124.80</ele>
	<time>2024-03-25T11:10:45.000Z</time>
</trkpt>
<trkpt lat="45.8394190" lon="9.3058750">
	<ele>1124.80</ele>
	<time>2024-03-25T11:10:46.000Z</time>
</trkpt>
<trkpt lat="45.8394190" lon="9.3058750">
	<ele>1124.80</ele>
	<time>2024-03-25T11:10:47.000Z</time>
</trkpt>
<trkpt lat="45.8394190" lon="9.3058750">
	<ele>1124.60</ele>
	<time>2024-03-25T11:10:48.000Z</time>
</trkpt>
<trkpt lat="45.8394190" lon="9.3058750">
	<ele>1124.60</ele>
	<time>2024-03-25T11:10:49.000Z</time>
</trkpt>
<trkpt lat="45.8394190" lon="9.3058750">
	<ele>1124.60</ele>
	<time>2024-03-25T11:10:50.000Z</time>
</trkpt>
<trkpt lat="45.8394190" lon="9.3058750">
	<ele>1124.80</ele>
	<time>2024-03-25T11:10:51.000Z</time>
</trkpt>
<trkpt lat="45.8394190" lon="9.3058750">
	<ele>1124.80</ele>
	<time>2024-03-25T11:10:52.000Z</time>
</trkpt>
<trkpt lat="45.8394190" lon="9.3058740">
	<ele>1124.80</ele>
	<time>2024-03-25T11:10:53.000Z</time>
</trkpt>
<trkpt lat="45.8394190" lon="9.3058740">
	<ele>1125.00</ele>
	<time>2024-03-25T11:10:54.000Z</time>
</trkpt>
<trkpt lat="45.8394190" lon="9.3058740">
	<ele>1125.20</ele>
	<time>2024-03-25T11:10:55.000Z</time>
</trkpt>
<trkpt lat="45.8394190" lon="9.3058740">
	<ele>1125.20</ele>
	<time>2024-03-25T11:10:56.000Z</time>
</trkpt>
<trkpt lat="45.8394190" lon="9.3058740">
	<ele>1125.20</ele>
	<time>2024-03-25T11:10:57.000Z</time>
</trkpt>
<trkpt lat="45.8394190" lon="9.3058740">
	<ele>1125.20</ele>
	<time>2024-03-25T11:10:58.000Z</time>
</trkpt>
<trkpt lat="45.8394180" lon="9.3058740">
	<ele>1125.20</ele>
	<time>2024-03-25T11:10:59.000Z</time>
</trkpt>
<trkpt lat="45.8394180" lon="9.3058740">
	<ele>1125.20</ele>
	<time>2024-03-25T11:11:00.000Z</time>
</trkpt>
<trkpt lat="45.8394180" lon="9.3058740">
	<ele>1125.20</ele>
	<time>2024-03-25T11:11:01.000Z</time>
</trkpt>
<trkpt lat="45.8394180" lon="9.3058740">
	<ele>1125.20</ele>
	<time>2024-03-25T11:11:02.000Z</time>
</trkpt>
<trkpt lat="45.8394180" lon="9.3058740">
	<ele>1125.20</ele>
	<time>2024-03-25T11:11:03.000Z</time>
</trkpt>
<trkpt lat="45.8394180" lon="9.3058740">
	<ele>1125.20</ele>
	<time>2024-03-25T11:11:04.000Z</time>
</trkpt>
<trkpt lat="45.8394180" lon="9.3058740">
	<ele>1125.20</ele>
	<time>2024-03-25T11:11:05.000Z</time>
</trkpt>
<trkpt lat="45.8394180" lon="9.3058740">
	<ele>1125.20</ele>
	<time>2024-03-25T11:11:06.000Z</time>
</trkpt>
<trkpt lat="45.8394180" lon="9.3058740">
	<ele>1125.20</ele>
	<time>2024-03-25T11:11:07.000Z</time>
</trkpt>
<trkpt lat="45.8394180" lon="9.3058740">
	<ele>1125.20</ele>
	<time>2024-03-25T11:11:08.000Z</time>
</trkpt>
<trkpt lat="45.8394180" lon="9.3058740">
	<ele>1125.20</ele>
	<time>2024-03-25T11:11:09.000Z</time>
</trkpt>
<trkpt lat="45.8394180" lon="9.3058750">
	<ele>1125.20</ele>
	<time>2024-03-25T11:11:10.000Z</time>
</trkpt>
<trkpt lat="45.8394180" lon="9.3058750">
	<ele>1125.00</ele>
	<time>2024-03-25T11:11:11.000Z</time>
</trkpt>
<trkpt lat="45.8394180" lon="9.3058750">
	<ele>1124.80</ele>
	<time>2024-03-25T11:11:12.000Z</time>
</trkpt>
<trkpt lat="45.8394180" lon="9.3058750">
	<ele>1124.80</ele>
	<time>2024-03-25T11:11:13.000Z</time>
</trkpt>
<trkpt lat="45.8394150" lon="9.3058720">
	<ele>1124.80</ele>
	<time>2024-03-25T11:11:14.000Z</time>
</trkpt>
<trkpt lat="45.8394110" lon="9.3058610">
	<ele>1124.80</ele>
	<time>2024-03-25T11:11:15.000Z</time>
</trkpt>
<trkpt lat="45.8394060" lon="9.3058520">
	<ele>1124.80</ele>
	<time>2024-03-25T11:11:16.000Z</time>
</trkpt>
<trkpt lat="45.8394030" lon="9.3058350">
	<ele>1124.80</ele>
	<time>2024-03-25T11:11:17.000Z</time>
</trkpt>
<trkpt lat="45.8394000" lon="9.3058220">
	<ele>1125.00</ele>
	<time>2024-03-25T11:11:18.000Z</time>
</trkpt>
<trkpt lat="45.8394000" lon="9.3058140">
	<ele>1125.00</ele>
	<time>2024-03-25T11:11:19.000Z</time>
</trkpt>
<trkpt lat="45.8394030" lon="9.3058070">
	<ele>1125.40</ele>
	<time>2024-03-25T11:11:20.000Z</time>
</trkpt>
<trkpt lat="45.8394040" lon="9.3057990">
	<ele>1125.60</ele>
	<time>2024-03-25T11:11:21.000Z</time>
</trkpt>
<trkpt lat="45.8394060" lon="9.3057910">
	<ele>1125.80</ele>
	<time>2024-03-25T11:11:22.000Z</time>
</trkpt>
<trkpt lat="45.8394090" lon="9.3057810">
	<ele>1126.20</ele>
	<time>2024-03-25T11:11:23.000Z</time>
</trkpt>
<trkpt lat="45.8394120" lon="9.3057760">
	<ele>1126.20</ele>
	<time>2024-03-25T11:11:24.000Z</time>
</trkpt>
<trkpt lat="45.8394130" lon="9.3057710">
	<ele>1126.40</ele>
	<time>2024-03-25T11:11:25.000Z</time>
</trkpt>
<trkpt lat="45.8394140" lon="9.3057670">
	<ele>1126.60</ele>
	<time>2024-03-25T11:11:26.000Z</time>
</trkpt>
<trkpt lat="45.8394170" lon="9.3057610">
	<ele>1126.80</ele>
	<time>2024-03-25T11:11:27.000Z</time>
</trkpt>
<trkpt lat="45.8394220" lon="9.3057510">
	<ele>1126.80</ele>
	<time>2024-03-25T11:11:28.000Z</time>
</trkpt>
<trkpt lat="45.8394260" lon="9.3057440">
	<ele>1127.00</ele>
	<time>2024-03-25T11:11:29.000Z</time>
</trkpt>
<trkpt lat="45.8394310" lon="9.3057390">
	<ele>1127.20</ele>
	<time>2024-03-25T11:11:30.000Z</time>
</trkpt>
<trkpt lat="45.8394350" lon="9.3057310">
	<ele>1127.20</ele>
	<time>2024-03-25T11:11:31.000Z</time>
</trkpt>
<trkpt lat="45.8394400" lon="9.3057240">
	<ele>1127.40</ele>
	<time>2024-03-25T11:11:32.000Z</time>
</trkpt>
<trkpt lat="45.8394460" lon="9.3057160">
	<ele>1127.60</ele>
	<time>2024-03-25T11:11:33.000Z</time>
</trkpt>
<trkpt lat="45.8394540" lon="9.3057070">
	<ele>1127.60</ele>
	<time>2024-03-25T11:11:34.000Z</time>
</trkpt>
<trkpt lat="45.8394590" lon="9.3056970">
	<ele>1127.60</ele>
	<time>2024-03-25T11:11:35.000Z</time>
</trkpt>
<trkpt lat="45.8394630" lon="9.3056900">
	<ele>1127.80</ele>
	<time>2024-03-25T11:11:36.000Z</time>
</trkpt>
<trkpt lat="45.8394700" lon="9.3056790">
	<ele>1128.00</ele>
	<time>2024-03-25T11:11:37.000Z</time>
</trkpt>
<trkpt lat="45.8394750" lon="9.3056720">
	<ele>1128.20</ele>
	<time>2024-03-25T11:11:38.000Z</time>
</trkpt>
<trkpt lat="45.8394780" lon="9.3056610">
	<ele>1128.20</ele>
	<time>2024-03-25T11:11:39.000Z</time>
</trkpt>
<trkpt lat="45.8394810" lon="9.3056430">
	<ele>1128.20</ele>
	<time>2024-03-25T11:11:40.000Z</time>
</trkpt>
<trkpt lat="45.8394800" lon="9.3056260">
	<ele>1128.40</ele>
	<time>2024-03-25T11:11:41.000Z</time>
</trkpt>
<trkpt lat="45.8394820" lon="9.3056120">
	<ele>1128.40</ele>
	<time>2024-03-25T11:11:42.000Z</time>
</trkpt>
<trkpt lat="45.8394820" lon="9.3056020">
	<ele>1128.60</ele>
	<time>2024-03-25T11:11:43.000Z</time>
</trkpt>
<trkpt lat="45.8394830" lon="9.3055900">
	<ele>1128.80</ele>
	<time>2024-03-25T11:11:44.000Z</time>
</trkpt>
<trkpt lat="45.8394830" lon="9.3055770">
	<ele>1129.00</ele>
	<time>2024-03-25T11:11:45.000Z</time>
</trkpt>
<trkpt lat="45.8394810" lon="9.3055650">
	<ele>1129.20</ele>
	<time>2024-03-25T11:11:46.000Z</time>
</trkpt>
<trkpt lat="45.8394820" lon="9.3055550">
	<ele>1129.40</ele>
	<time>2024-03-25T11:11:47.000Z</time>
</trkpt>
<trkpt lat="45.8394820" lon="9.3055430">
	<ele>1129.40</ele>
	<time>2024-03-25T11:11:48.000Z</time>
</trkpt>
<trkpt lat="45.8394800" lon="9.3055320">
	<ele>1129.40</ele>
	<time>2024-03-25T11:11:49.000Z</time>
</trkpt>
<trkpt lat="45.8394780" lon="9.3055200">
	<ele>1129.60</ele>
	<time>2024-03-25T11:11:50.000Z</time>
</trkpt>
<trkpt lat="45.8394740" lon="9.3055040">
	<ele>1129.60</ele>
	<time>2024-03-25T11:11:51.000Z</time>
</trkpt>
<trkpt lat="45.8394710" lon="9.3054930">
	<ele>1129.80</ele>
	<time>2024-03-25T11:11:52.000Z</time>
</trkpt>
<trkpt lat="45.8394690" lon="9.3054800">
	<ele>1129.80</ele>
	<time>2024-03-25T11:11:53.000Z</time>
</trkpt>
<trkpt lat="45.8394700" lon="9.3054680">
	<ele>1130.00</ele>
	<time>2024-03-25T11:11:54.000Z</time>
</trkpt>
<trkpt lat="45.8394730" lon="9.3054580">
	<ele>1130.00</ele>
	<time>2024-03-25T11:11:55.000Z</time>
</trkpt>
<trkpt lat="45.8394760" lon="9.3054460">
	<ele>1130.00</ele>
	<time>2024-03-25T11:11:56.000Z</time>
</trkpt>
<trkpt lat="45.8394790" lon="9.3054330">
	<ele>1130.00</ele>
	<time>2024-03-25T11:11:57.000Z</time>
</trkpt>
<trkpt lat="45.8394790" lon="9.3054230">
	<ele>1130.20</ele>
	<time>2024-03-25T11:11:58.000Z</time>
</trkpt>
<trkpt lat="45.8394780" lon="9.3054090">
	<ele>1130.20</ele>
	<time>2024-03-25T11:11:59.000Z</time>
</trkpt>
<trkpt lat="45.8394750" lon="9.3053970">
	<ele>1130.20</ele>
	<time>2024-03-25T11:12:00.000Z</time>
</trkpt>
<trkpt lat="45.8394770" lon="9.3053870">
	<ele>1130.40</ele>
	<time>2024-03-25T11:12:01.000Z</time>
</trkpt>
<trkpt lat="45.8394790" lon="9.3053750">
	<ele>1130.40</ele>
	<time>2024-03-25T11:12:02.000Z</time>
</trkpt>
<trkpt lat="45.8394810" lon="9.3053620">
	<ele>1130.60</ele>
	<time>2024-03-25T11:12:03.000Z</time>
</trkpt>
<trkpt lat="45.8394810" lon="9.3053460">
	<ele>1130.60</ele>
	<time>2024-03-25T11:12:04.000Z</time>
</trkpt>
<trkpt lat="45.8394800" lon="9.3053320">
	<ele>1130.80</ele>
	<time>2024-03-25T11:12:05.000Z</time>
</trkpt>
<trkpt lat="45.8394830" lon="9.3053180">
	<ele>1131.00</ele>
	<time>2024-03-25T11:12:06.000Z</time>
</trkpt>
<trkpt lat="45.8394830" lon="9.3053050">
	<ele>1131.00</ele>
	<time>2024-03-25T11:12:07.000Z</time>
</trkpt>
<trkpt lat="45.8394840" lon="9.3052990">
	<ele>1131.20</ele>
	<time>2024-03-25T11:12:08.000Z</time>
</trkpt>
<trkpt lat="45.8394850" lon="9.3052960">
	<ele>1131.40</ele>
	<time>2024-03-25T11:12:09.000Z</time>
</trkpt>
<trkpt lat="45.8394860" lon="9.3052950">
	<ele>1131.40</ele>
	<time>2024-03-25T11:12:10.000Z</time>
</trkpt>
<trkpt lat="45.8394870" lon="9.3052960">
	<ele>1131.40</ele>
	<time>2024-03-25T11:12:11.000Z</time>
</trkpt>
<trkpt lat="45.8394880" lon="9.3052980">
	<ele>1131.60</ele>
	<time>2024-03-25T11:12:12.000Z</time>
</trkpt>
<trkpt lat="45.8394860" lon="9.3052990">
	<ele>1131.60</ele>
	<time>2024-03-25T11:12:13.000Z</time>
</trkpt>
<trkpt lat="45.8394860" lon="9.3053000">
	<ele>1131.80</ele>
	<time>2024-03-25T11:12:14.000Z</time>
</trkpt>
<trkpt lat="45.8394860" lon="9.3053000">
	<ele>1131.80</ele>
	<time>2024-03-25T11:12:15.000Z</time>
</trkpt>
<trkpt lat="45.8394840" lon="9.3052930">
	<ele>1131.80</ele>
	<time>2024-03-25T11:12:16.000Z</time>
</trkpt>
<trkpt lat="45.8394810" lon="9.3052790">
	<ele>1131.80</ele>
	<time>2024-03-25T11:12:17.000Z</time>
</trkpt>
<trkpt lat="45.8394760" lon="9.3052620">
	<ele>1131.80</ele>
	<time>2024-03-25T11:12:18.000Z</time>
</trkpt>
<trkpt lat="45.8394680" lon="9.3052480">
	<ele>1131.80</ele>
	<time>2024-03-25T11:12:19.000Z</time>
</trkpt>
<trkpt lat="45.8394620" lon="9.3052330">
	<ele>1131.80</ele>
	<time>2024-03-25T11:12:20.000Z</time>
</trkpt>
<trkpt lat="45.8394560" lon="9.3052200">
	<ele>1132.00</ele>
	<time>2024-03-25T11:12:21.000Z</time>
</trkpt>
<trkpt lat="45.8394490" lon="9.3052090">
	<ele>1132.00</ele>
	<time>2024-03-25T11:12:22.000Z</time>
</trkpt>
<trkpt lat="45.8394470" lon="9.3052000">
	<ele>1132.20</ele>
	<time>2024-03-25T11:12:23.000Z</time>
</trkpt>
<trkpt lat="45.8394470" lon="9.3051870">
	<ele>1132.60</ele>
	<time>2024-03-25T11:12:24.000Z</time>
</trkpt>
<trkpt lat="45.8394490" lon="9.3051740">
	<ele>1132.60</ele>
	<time>2024-03-25T11:12:25.000Z</time>
</trkpt>
<trkpt lat="45.8394490" lon="9.3051650">
	<ele>1132.80</ele>
	<time>2024-03-25T11:12:26.000Z</time>
</trkpt>
<trkpt lat="45.8394470" lon="9.3051550">
	<ele>1132.80</ele>
	<time>2024-03-25T11:12:27.000Z</time>
</trkpt>
<trkpt lat="45.8394460" lon="9.3051460">
	<ele>1132.80</ele>
	<time>2024-03-25T11:12:28.000Z</time>
</trkpt>
<trkpt lat="45.8394420" lon="9.3051370">
	<ele>1133.00</ele>
	<time>2024-03-25T11:12:29.000Z</time>
</trkpt>
<trkpt lat="45.8394400" lon="9.3051290">
	<ele>1133.00</ele>
	<time>2024-03-25T11:12:30.000Z</time>
</trkpt>
<trkpt lat="45.8394390" lon="9.3051190">
	<ele>1133.00</ele>
	<time>2024-03-25T11:12:31.000Z</time>
</trkpt>
<trkpt lat="45.8394370" lon="9.3051070">
	<ele>1133.20</ele>
	<time>2024-03-25T11:12:32.000Z</time>
</trkpt>
<trkpt lat="45.8394360" lon="9.3050930">
	<ele>1133.20</ele>
	<time>2024-03-25T11:12:33.000Z</time>
</trkpt>
<trkpt lat="45.8394370" lon="9.3050790">
	<ele>1133.20</ele>
	<time>2024-03-25T11:12:34.000Z</time>
</trkpt>
<trkpt lat="45.8394350" lon="9.3050670">
	<ele>1133.40</ele>
	<time>2024-03-25T11:12:35.000Z</time>
</trkpt>
<trkpt lat="45.8394330" lon="9.3050560">
	<ele>1133.60</ele>
	<time>2024-03-25T11:12:36.000Z</time>
</trkpt>
<trkpt lat="45.8394320" lon="9.3050490">
	<ele>1134.00</ele>
	<time>2024-03-25T11:12:37.000Z</time>
</trkpt>
<trkpt lat="45.8394320" lon="9.3050390">
	<ele>1134.20</ele>
	<time>2024-03-25T11:12:38.000Z</time>
</trkpt>
<trkpt lat="45.8394310" lon="9.3050280">
	<ele>1134.40</ele>
	<time>2024-03-25T11:12:39.000Z</time>
</trkpt>
<trkpt lat="45.8394310" lon="9.3050210">
	<ele>1134.60</ele>
	<time>2024-03-25T11:12:40.000Z</time>
</trkpt>
<trkpt lat="45.8394310" lon="9.3050150">
	<ele>1134.60</ele>
	<time>2024-03-25T11:12:41.000Z</time>
</trkpt>
<trkpt lat="45.8394300" lon="9.3050090">
	<ele>1134.80</ele>
	<time>2024-03-25T11:12:42.000Z</time>
</trkpt>
<trkpt lat="45.8394270" lon="9.3050020">
	<ele>1135.00</ele>
	<time>2024-03-25T11:12:43.000Z</time>
</trkpt>
<trkpt lat="45.8394240" lon="9.3049930">
	<ele>1135.20</ele>
	<time>2024-03-25T11:12:44.000Z</time>
</trkpt>
<trkpt lat="45.8394220" lon="9.3049820">
	<ele>1135.40</ele>
	<time>2024-03-25T11:12:45.000Z</time>
</trkpt>
<trkpt lat="45.8394220" lon="9.3049750">
	<ele>1135.60</ele>
	<time>2024-03-25T11:12:46.000Z</time>
</trkpt>
<trkpt lat="45.8394200" lon="9.3049630">
	<ele>1135.80</ele>
	<time>2024-03-25T11:12:47.000Z</time>
</trkpt>
<trkpt lat="45.8394210" lon="9.3049530">
	<ele>1136.00</ele>
	<time>2024-03-25T11:12:48.000Z</time>
</trkpt>
<trkpt lat="45.8394190" lon="9.3049420">
	<ele>1136.20</ele>
	<time>2024-03-25T11:12:49.000Z</time>
</trkpt>
<trkpt lat="45.8394160" lon="9.3049320">
	<ele>1136.60</ele>
	<time>2024-03-25T11:12:50.000Z</time>
</trkpt>
<trkpt lat="45.8394130" lon="9.3049230">
	<ele>1136.80</ele>
	<time>2024-03-25T11:12:51.000Z</time>
</trkpt>
<trkpt lat="45.8394080" lon="9.3049140">
	<ele>1137.00</ele>
	<time>2024-03-25T11:12:52.000Z</time>
</trkpt>
<trkpt lat="45.8394040" lon="9.3049040">
	<ele>1137.20</ele>
	<time>2024-03-25T11:12:53.000Z</time>
</trkpt>
<trkpt lat="45.8393970" lon="9.3048940">
	<ele>1137.20</ele>
	<time>2024-03-25T11:12:54.000Z</time>
</trkpt>
<trkpt lat="45.8393920" lon="9.3048840">
	<ele>1137.40</ele>
	<time>2024-03-25T11:12:55.000Z</time>
</trkpt>
<trkpt lat="45.8393860" lon="9.3048740">
	<ele>1137.80</ele>
	<time>2024-03-25T11:12:56.000Z</time>
</trkpt>
<trkpt lat="45.8393830" lon="9.3048650">
	<ele>1138.00</ele>
	<time>2024-03-25T11:12:57.000Z</time>
</trkpt>
<trkpt lat="45.8393820" lon="9.3048550">
	<ele>1138.20</ele>
	<time>2024-03-25T11:12:58.000Z</time>
</trkpt>
<trkpt lat="45.8393830" lon="9.3048490">
	<ele>1138.40</ele>
	<time>2024-03-25T11:12:59.000Z</time>
</trkpt>
<trkpt lat="45.8393820" lon="9.3048420">
	<ele>1138.40</ele>
	<time>2024-03-25T11:13:00.000Z</time>
</trkpt>
<trkpt lat="45.8393830" lon="9.3048390">
	<ele>1138.60</ele>
	<time>2024-03-25T11:13:01.000Z</time>
</trkpt>
<trkpt lat="45.8393820" lon="9.3048330">
	<ele>1138.80</ele>
	<time>2024-03-25T11:13:02.000Z</time>
</trkpt>
<trkpt lat="45.8393800" lon="9.3048250">
	<ele>1139.00</ele>
	<time>2024-03-25T11:13:03.000Z</time>
</trkpt>
<trkpt lat="45.8393810" lon="9.3048180">
	<ele>1139.20</ele>
	<time>2024-03-25T11:13:04.000Z</time>
</trkpt>
<trkpt lat="45.8393790" lon="9.3048150">
	<ele>1139.20</ele>
	<time>2024-03-25T11:13:05.000Z</time>
</trkpt>
<trkpt lat="45.8393760" lon="9.3048090">
	<ele>1139.60</ele>
	<time>2024-03-25T11:13:06.000Z</time>
</trkpt>
<trkpt lat="45.8393670" lon="9.3048030">
	<ele>1139.80</ele>
	<time>2024-03-25T11:13:07.000Z</time>
</trkpt>
<trkpt lat="45.8393630" lon="9.3047990">
	<ele>1139.80</ele>
	<time>2024-03-25T11:13:08.000Z</time>
</trkpt>
<trkpt lat="45.8393540" lon="9.3047890">
	<ele>1140.20</ele>
	<time>2024-03-25T11:13:09.000Z</time>
</trkpt>
<trkpt lat="45.8393450" lon="9.3047810">
	<ele>1140.40</ele>
	<time>2024-03-25T11:13:10.000Z</time>
</trkpt>
<trkpt lat="45.8393340" lon="9.3047680">
	<ele>1140.60</ele>
	<time>2024-03-25T11:13:11.000Z</time>
</trkpt>
<trkpt lat="45.8393340" lon="9.3047580">
	<ele>1140.80</ele>
	<time>2024-03-25T11:13:12.000Z</time>
</trkpt>
<trkpt lat="45.8393270" lon="9.3047480">
	<ele>1141.00</ele>
	<time>2024-03-25T11:13:13.000Z</time>
</trkpt>
<trkpt lat="45.8393230" lon="9.3047390">
	<ele>1141.00</ele>
	<time>2024-03-25T11:13:14.000Z</time>
</trkpt>
<trkpt lat="45.8393210" lon="9.3047300">
	<ele>1141.00</ele>
	<time>2024-03-25T11:13:15.000Z</time>
</trkpt>
<trkpt lat="45.8393120" lon="9.3047190">
	<ele>1141.20</ele>
	<time>2024-03-25T11:13:16.000Z</time>
</trkpt>
<trkpt lat="45.8393080" lon="9.3047090">
	<ele>1141.20</ele>
	<time>2024-03-25T11:13:17.000Z</time>
</trkpt>
<trkpt lat="45.8393090" lon="9.3047040">
	<ele>1141.40</ele>
	<time>2024-03-25T11:13:18.000Z</time>
</trkpt>
<trkpt lat="45.8393080" lon="9.3046950">
	<ele>1141.60</ele>
	<time>2024-03-25T11:13:19.000Z</time>
</trkpt>
<trkpt lat="45.8393080" lon="9.3046960">
	<ele>1141.60</ele>
	<time>2024-03-25T11:13:20.000Z</time>
</trkpt>
<trkpt lat="45.8393080" lon="9.3046970">
	<ele>1141.80</ele>
	<time>2024-03-25T11:13:21.000Z</time>
</trkpt>
<trkpt lat="45.8393070" lon="9.3046880">
	<ele>1142.00</ele>
	<time>2024-03-25T11:13:22.000Z</time>
</trkpt>
<trkpt lat="45.8393080" lon="9.3046800">
	<ele>1142.20</ele>
	<time>2024-03-25T11:13:23.000Z</time>
</trkpt>
<trkpt lat="45.8393080" lon="9.3046740">
	<ele>1142.40</ele>
	<time>2024-03-25T11:13:24.000Z</time>
</trkpt>
<trkpt lat="45.8393090" lon="9.3046670">
	<ele>1142.80</ele>
	<time>2024-03-25T11:13:25.000Z</time>
</trkpt>
<trkpt lat="45.8393060" lon="9.3046590">
	<ele>1142.80</ele>
	<time>2024-03-25T11:13:26.000Z</time>
</trkpt>
<trkpt lat="45.8393070" lon="9.3046520">
	<ele>1143.00</ele>
	<time>2024-03-25T11:13:27.000Z</time>
</trkpt>
<trkpt lat="45.8393090" lon="9.3046460">
	<ele>1143.20</ele>
	<time>2024-03-25T11:13:28.000Z</time>
</trkpt>
<trkpt lat="45.8393100" lon="9.3046360">
	<ele>1143.40</ele>
	<time>2024-03-25T11:13:29.000Z</time>
</trkpt>
<trkpt lat="45.8393120" lon="9.3046310">
	<ele>1143.60</ele>
	<time>2024-03-25T11:13:30.000Z</time>
</trkpt>
<trkpt lat="45.8393130" lon="9.3046200">
	<ele>1143.80</ele>
	<time>2024-03-25T11:13:31.000Z</time>
</trkpt>
<trkpt lat="45.8393160" lon="9.3046120">
	<ele>1144.00</ele>
	<time>2024-03-25T11:13:32.000Z</time>
</trkpt>
<trkpt lat="45.8393160" lon="9.3046040">
	<ele>1144.00</ele>
	<time>2024-03-25T11:13:33.000Z</time>
</trkpt>
<trkpt lat="45.8393140" lon="9.3045920">
	<ele>1144.20</ele>
	<time>2024-03-25T11:13:34.000Z</time>
</trkpt>
<trkpt lat="45.8393090" lon="9.3045860">
	<ele>1144.40</ele>
	<time>2024-03-25T11:13:35.000Z</time>
</trkpt>
<trkpt lat="45.8393060" lon="9.3045790">
	<ele>1144.60</ele>
	<time>2024-03-25T11:13:36.000Z</time>
</trkpt>
<trkpt lat="45.8393050" lon="9.3045740">
	<ele>1144.80</ele>
	<time>2024-03-25T11:13:37.000Z</time>
</trkpt>
<trkpt lat="45.8393060" lon="9.3045700">
	<ele>1145.20</ele>
	<time>2024-03-25T11:13:38.000Z</time>
</trkpt>
<trkpt lat="45.8393030" lon="9.3045650">
	<ele>1145.40</ele>
	<time>2024-03-25T11:13:39.000Z</time>
</trkpt>
<trkpt lat="45.8393010" lon="9.3045580">
	<ele>1145.80</ele>
	<time>2024-03-25T11:13:40.000Z</time>
</trkpt>
<trkpt lat="45.8393010" lon="9.3045530">
	<ele>1146.00</ele>
	<time>2024-03-25T11:13:41.000Z</time>
</trkpt>
<trkpt lat="45.8392990" lon="9.3045480">
	<ele>1146.00</ele>
	<time>2024-03-25T11:13:42.000Z</time>
</trkpt>
<trkpt lat="45.8392980" lon="9.3045390">
	<ele>1146.20</ele>
	<time>2024-03-25T11:13:43.000Z</time>
</trkpt>
<trkpt lat="45.8392960" lon="9.3045330">
	<ele>1146.40</ele>
	<time>2024-03-25T11:13:44.000Z</time>
</trkpt>
<trkpt lat="45.8392940" lon="9.3045280">
	<ele>1146.60</ele>
	<time>2024-03-25T11:13:45.000Z</time>
</trkpt>
<trkpt lat="45.8392910" lon="9.3045180">
	<ele>1146.80</ele>
	<time>2024-03-25T11:13:46.000Z</time>
</trkpt>
<trkpt lat="45.8392870" lon="9.3045120">
	<ele>1147.00</ele>
	<time>2024-03-25T11:13:47.000Z</time>
</trkpt>
<trkpt lat="45.8392830" lon="9.3045100">
	<ele>1147.00</ele>
	<time>2024-03-25T11:13:48.000Z</time>
</trkpt>
<trkpt lat="45.8392780" lon="9.3045000">
	<ele>1147.20</ele>
	<time>2024-03-25T11:13:49.000Z</time>
</trkpt>
<trkpt lat="45.8392710" lon="9.3044960">
	<ele>1147.40</ele>
	<time>2024-03-25T11:13:50.000Z</time>
</trkpt>
<trkpt lat="45.8392630" lon="9.3044930">
	<ele>1147.60</ele>
	<time>2024-03-25T11:13:51.000Z</time>
</trkpt>
<trkpt lat="45.8392560" lon="9.3044890">
	<ele>1147.80</ele>
	<time>2024-03-25T11:13:52.000Z</time>
</trkpt>
<trkpt lat="45.8392480" lon="9.3044870">
	<ele>1148.00</ele>
	<time>2024-03-25T11:13:53.000Z</time>
</trkpt>
<trkpt lat="45.8392440" lon="9.3044860">
	<ele>1148.20</ele>
	<time>2024-03-25T11:13:54.000Z</time>
</trkpt>
<trkpt lat="45.8392390" lon="9.3044860">
	<ele>1148.40</ele>
	<time>2024-03-25T11:13:55.000Z</time>
</trkpt>
<trkpt lat="45.8392330" lon="9.3044800">
	<ele>1148.60</ele>
	<time>2024-03-25T11:13:56.000Z</time>
</trkpt>
<trkpt lat="45.8392290" lon="9.3044770">
	<ele>1148.80</ele>
	<time>2024-03-25T11:13:57.000Z</time>
</trkpt>
<trkpt lat="45.8392260" lon="9.3044740">
	<ele>1148.80</ele>
	<time>2024-03-25T11:13:58.000Z</time>
</trkpt>
<trkpt lat="45.8392270" lon="9.3044710">
	<ele>1149.00</ele>
	<time>2024-03-25T11:13:59.000Z</time>
</trkpt>
<trkpt lat="45.8392270" lon="9.3044650">
	<ele>1149.20</ele>
	<time>2024-03-25T11:14:00.000Z</time>
</trkpt>
<trkpt lat="45.8392260" lon="9.3044600">
	<ele>1149.20</ele>
	<time>2024-03-25T11:14:01.000Z</time>
</trkpt>
<trkpt lat="45.8392270" lon="9.3044520">
	<ele>1149.40</ele>
	<time>2024-03-25T11:14:02.000Z</time>
</trkpt>
<trkpt lat="45.8392280" lon="9.3044470">
	<ele>1149.40</ele>
	<time>2024-03-25T11:14:03.000Z</time>
</trkpt>
<trkpt lat="45.8392280" lon="9.3044420">
	<ele>1149.60</ele>
	<time>2024-03-25T11:14:04.000Z</time>
</trkpt>
<trkpt lat="45.8392250" lon="9.3044360">
	<ele>1149.80</ele>
	<time>2024-03-25T11:14:05.000Z</time>
</trkpt>
<trkpt lat="45.8392220" lon="9.3044280">
	<ele>1150.00</ele>
	<time>2024-03-25T11:14:06.000Z</time>
</trkpt>
<trkpt lat="45.8392160" lon="9.3044200">
	<ele>1150.00</ele>
	<time>2024-03-25T11:14:07.000Z</time>
</trkpt>
<trkpt lat="45.8392130" lon="9.3044140">
	<ele>1150.20</ele>
	<time>2024-03-25T11:14:08.000Z</time>
</trkpt>
<trkpt lat="45.8392110" lon="9.3044090">
	<ele>1150.60</ele>
	<time>2024-03-25T11:14:09.000Z</time>
</trkpt>
<trkpt lat="45.8392090" lon="9.3044030">
	<ele>1150.60</ele>
	<time>2024-03-25T11:14:10.000Z</time>
</trkpt>
<trkpt lat="45.8392060" lon="9.3043970">
	<ele>1151.00</ele>
	<time>2024-03-25T11:14:11.000Z</time>
</trkpt>
<trkpt lat="45.8392020" lon="9.3043930">
	<ele>1151.00</ele>
	<time>2024-03-25T11:14:12.000Z</time>
</trkpt>
<trkpt lat="45.8391950" lon="9.3043890">
	<ele>1151.40</ele>
	<time>2024-03-25T11:14:13.000Z</time>
</trkpt>
<trkpt lat="45.8391930" lon="9.3043880">
	<ele>1151.60</ele>
	<time>2024-03-25T11:14:14.000Z</time>
</trkpt>
<trkpt lat="45.8391890" lon="9.3043890">
	<ele>1151.80</ele>
	<time>2024-03-25T11:14:15.000Z</time>
</trkpt>
<trkpt lat="45.8391850" lon="9.3043870">
	<ele>1152.00</ele>
	<time>2024-03-25T11:14:16.000Z</time>
</trkpt>
<trkpt lat="45.8391800" lon="9.3043830">
	<ele>1152.20</ele>
	<time>2024-03-25T11:14:17.000Z</time>
</trkpt>
<trkpt lat="45.8391730" lon="9.3043760">
	<ele>1152.40</ele>
	<time>2024-03-25T11:14:18.000Z</time>
</trkpt>
<trkpt lat="45.8391700" lon="9.3043710">
	<ele>1152.60</ele>
	<time>2024-03-25T11:14:19.000Z</time>
</trkpt>
<trkpt lat="45.8391660" lon="9.3043670">
	<ele>1152.80</ele>
	<time>2024-03-25T11:14:20.000Z</time>
</trkpt>
<trkpt lat="45.8391600" lon="9.3043570">
	<ele>1153.00</ele>
	<time>2024-03-25T11:14:21.000Z</time>
</trkpt>
<trkpt lat="45.8391550" lon="9.3043500">
	<ele>1153.20</ele>
	<time>2024-03-25T11:14:22.000Z</time>
</trkpt>
<trkpt lat="45.8391510" lon="9.3043470">
	<ele>1153.40</ele>
	<time>2024-03-25T11:14:23.000Z</time>
</trkpt>
<trkpt lat="45.8391490" lon="9.3043450">
	<ele>1153.80</ele>
	<time>2024-03-25T11:14:24.000Z</time>
</trkpt>
<trkpt lat="45.8391470" lon="9.3043420">
	<ele>1154.00</ele>
	<time>2024-03-25T11:14:25.000Z</time>
</trkpt>
<trkpt lat="45.8391470" lon="9.3043390">
	<ele>1154.40</ele>
	<time>2024-03-25T11:14:26.000Z</time>
</trkpt>
<trkpt lat="45.8391450" lon="9.3043300">
	<ele>1154.80</ele>
	<time>2024-03-25T11:14:27.000Z</time>
</trkpt>
<trkpt lat="45.8391410" lon="9.3043200">
	<ele>1155.20</ele>
	<time>2024-03-25T11:14:28.000Z</time>
</trkpt>
<trkpt lat="45.8391350" lon="9.3043150">
	<ele>1155.20</ele>
	<time>2024-03-25T11:14:29.000Z</time>
</trkpt>
<trkpt lat="45.8391310" lon="9.3043090">
	<ele>1155.40</ele>
	<time>2024-03-25T11:14:30.000Z</time>
</trkpt>
<trkpt lat="45.8391260" lon="9.3043050">
	<ele>1155.60</ele>
	<time>2024-03-25T11:14:31.000Z</time>
</trkpt>
<trkpt lat="45.8391220" lon="9.3043010">
	<ele>1155.40</ele>
	<time>2024-03-25T11:14:32.000Z</time>
</trkpt>
<trkpt lat="45.8391160" lon="9.3042940">
	<ele>1155.40</ele>
	<time>2024-03-25T11:14:33.000Z</time>
</trkpt>
<trkpt lat="45.8391120" lon="9.3042890">
	<ele>1155.60</ele>
	<time>2024-03-25T11:14:34.000Z</time>
</trkpt>
<trkpt lat="45.8391080" lon="9.3042840">
	<ele>1155.60</ele>
	<time>2024-03-25T11:14:35.000Z</time>
</trkpt>
<trkpt lat="45.8391050" lon="9.3042810">
	<ele>1155.60</ele>
	<time>2024-03-25T11:14:36.000Z</time>
</trkpt>
<trkpt lat="45.8391020" lon="9.3042750">
	<ele>1155.80</ele>
	<time>2024-03-25T11:14:37.000Z</time>
</trkpt>
<trkpt lat="45.8390990" lon="9.3042680">
	<ele>1155.80</ele>
	<time>2024-03-25T11:14:38.000Z</time>
</trkpt>
<trkpt lat="45.8390930" lon="9.3042620">
	<ele>1155.80</ele>
	<time>2024-03-25T11:14:39.000Z</time>
</trkpt>
<trkpt lat="45.8390910" lon="9.3042520">
	<ele>1156.00</ele>
	<time>2024-03-25T11:14:40.000Z</time>
</trkpt>
<trkpt lat="45.8390880" lon="9.3042460">
	<ele>1156.00</ele>
	<time>2024-03-25T11:14:41.000Z</time>
</trkpt>
<trkpt lat="45.8390850" lon="9.3042410">
	<ele>1156.00</ele>
	<time>2024-03-25T11:14:42.000Z</time>
</trkpt>
<trkpt lat="45.8390840" lon="9.3042360">
	<ele>1156.20</ele>
	<time>2024-03-25T11:14:43.000Z</time>
</trkpt>
<trkpt lat="45.8390800" lon="9.3042290">
	<ele>1156.40</ele>
	<time>2024-03-25T11:14:44.000Z</time>
</trkpt>
<trkpt lat="45.8390800" lon="9.3042240">
	<ele>1156.60</ele>
	<time>2024-03-25T11:14:45.000Z</time>
</trkpt>
<trkpt lat="45.8390780" lon="9.3042160">
	<ele>1156.80</ele>
	<time>2024-03-25T11:14:46.000Z</time>
</trkpt>
<trkpt lat="45.8390760" lon="9.3042080">
	<ele>1156.80</ele>
	<time>2024-03-25T11:14:47.000Z</time>
</trkpt>
<trkpt lat="45.8390730" lon="9.3042030">
	<ele>1157.00</ele>
	<time>2024-03-25T11:14:48.000Z</time>
</trkpt>
<trkpt lat="45.8390680" lon="9.3041980">
	<ele>1157.20</ele>
	<time>2024-03-25T11:14:49.000Z</time>
</trkpt>
<trkpt lat="45.8390680" lon="9.3041880">
	<ele>1157.20</ele>
	<time>2024-03-25T11:14:50.000Z</time>
</trkpt>
<trkpt lat="45.8390660" lon="9.3041760">
	<ele>1157.40</ele>
	<time>2024-03-25T11:14:51.000Z</time>
</trkpt>
<trkpt lat="45.8390630" lon="9.3041690">
	<ele>1157.60</ele>
	<time>2024-03-25T11:14:52.000Z</time>
</trkpt>
<trkpt lat="45.8390590" lon="9.3041630">
	<ele>1157.60</ele>
	<time>2024-03-25T11:14:53.000Z</time>
</trkpt>
<trkpt lat="45.8390570" lon="9.3041590">
	<ele>1157.60</ele>
	<time>2024-03-25T11:14:54.000Z</time>
</trkpt>
<trkpt lat="45.8390570" lon="9.3041540">
	<ele>1157.60</ele>
	<time>2024-03-25T11:14:55.000Z</time>
</trkpt>
<trkpt lat="45.8390570" lon="9.3041480">
	<ele>1157.60</ele>
	<time>2024-03-25T11:14:56.000Z</time>
</trkpt>
<trkpt lat="45.8390550" lon="9.3041430">
	<ele>1157.80</ele>
	<time>2024-03-25T11:14:57.000Z</time>
</trkpt>
<trkpt lat="45.8390470" lon="9.3041400">
	<ele>1157.80</ele>
	<time>2024-03-25T11:14:58.000Z</time>
</trkpt>
<trkpt lat="45.8390440" lon="9.3041370">
	<ele>1158.20</ele>
	<time>2024-03-25T11:14:59.000Z</time>
</trkpt>
<trkpt lat="45.8390410" lon="9.3041350">
	<ele>1158.20</ele>
	<time>2024-03-25T11:15:00.000Z</time>
</trkpt>
<trkpt lat="45.8390380" lon="9.3041320">
	<ele>1158.60</ele>
	<time>2024-03-25T11:15:01.000Z</time>
</trkpt>
<trkpt lat="45.8390370" lon="9.3041240">
	<ele>1158.80</ele>
	<time>2024-03-25T11:15:02.000Z</time>
</trkpt>
<trkpt lat="45.8390380" lon="9.3041180">
	<ele>1159.00</ele>
	<time>2024-03-25T11:15:03.000Z</time>
</trkpt>
<trkpt lat="45.8390390" lon="9.3041140">
	<ele>1159.00</ele>
	<time>2024-03-25T11:15:04.000Z</time>
</trkpt>
<trkpt lat="45.8390420" lon="9.3041060">
	<ele>1159.20</ele>
	<time>2024-03-25T11:15:05.000Z</time>
</trkpt>
<trkpt lat="45.8390460" lon="9.3040930">
	<ele>1159.40</ele>
	<time>2024-03-25T11:15:06.000Z</time>
</trkpt>
<trkpt lat="45.8390480" lon="9.3040830">
	<ele>1159.40</ele>
	<time>2024-03-25T11:15:07.000Z</time>
</trkpt>
<trkpt lat="45.8390470" lon="9.3040730">
	<ele>1159.60</ele>
	<time>2024-03-25T11:15:08.000Z</time>
</trkpt>
<trkpt lat="45.8390520" lon="9.3040680">
	<ele>1160.00</ele>
	<time>2024-03-25T11:15:09.000Z</time>
</trkpt>
<trkpt lat="45.8390530" lon="9.3040620">
	<ele>1160.20</ele>
	<time>2024-03-25T11:15:10.000Z</time>
</trkpt>
<trkpt lat="45.8390500" lon="9.3040590">
	<ele>1160.40</ele>
	<time>2024-03-25T11:15:11.000Z</time>
</trkpt>
<trkpt lat="45.8390340" lon="9.3040480">
	<ele>1160.40</ele>
	<time>2024-03-25T11:15:12.000Z</time>
</trkpt>
<trkpt lat="45.8390310" lon="9.3040430">
	<ele>1160.60</ele>
	<time>2024-03-25T11:15:13.000Z</time>
</trkpt>
<trkpt lat="45.8390310" lon="9.3040360">
	<ele>1160.60</ele>
	<time>2024-03-25T11:15:14.000Z</time>
</trkpt>
<trkpt lat="45.8390340" lon="9.3040260">
	<ele>1160.80</ele>
	<time>2024-03-25T11:15:15.000Z</time>
</trkpt>
<trkpt lat="45.8390350" lon="9.3040220">
	<ele>1160.80</ele>
	<time>2024-03-25T11:15:16.000Z</time>
</trkpt>
<trkpt lat="45.8390340" lon="9.3040190">
	<ele>1161.00</ele>
	<time>2024-03-25T11:15:17.000Z</time>
</trkpt>
<trkpt lat="45.8390310" lon="9.3040120">
	<ele>1161.20</ele>
	<time>2024-03-25T11:15:18.000Z</time>
</trkpt>
<trkpt lat="45.8390270" lon="9.3040030">
	<ele>1161.60</ele>
	<time>2024-03-25T11:15:19.000Z</time>
</trkpt>
<trkpt lat="45.8390250" lon="9.3039970">
	<ele>1161.60</ele>
	<time>2024-03-25T11:15:20.000Z</time>
</trkpt>
<trkpt lat="45.8390240" lon="9.3039920">
	<ele>1162.00</ele>
	<time>2024-03-25T11:15:21.000Z</time>
</trkpt>
<trkpt lat="45.8390230" lon="9.3039890">
	<ele>1162.20</ele>
	<time>2024-03-25T11:15:22.000Z</time>
</trkpt>
<trkpt lat="45.8390200" lon="9.3039860">
	<ele>1162.20</ele>
	<time>2024-03-25T11:15:23.000Z</time>
</trkpt>
<trkpt lat="45.8390160" lon="9.3039840">
	<ele>1162.40</ele>
	<time>2024-03-25T11:15:24.000Z</time>
</trkpt>
<trkpt lat="45.8390130" lon="9.3039780">
	<ele>1162.60</ele>
	<time>2024-03-25T11:15:25.000Z</time>
</trkpt>
<trkpt lat="45.8390060" lon="9.3039690">
	<ele>1162.80</ele>
	<time>2024-03-25T11:15:26.000Z</time>
</trkpt>
<trkpt lat="45.8390000" lon="9.3039650">
	<ele>1162.80</ele>
	<time>2024-03-25T11:15:27.000Z</time>
</trkpt>
<trkpt lat="45.8389970" lon="9.3039600">
	<ele>1163.00</ele>
	<time>2024-03-25T11:15:28.000Z</time>
</trkpt>
<trkpt lat="45.8389940" lon="9.3039520">
	<ele>1163.20</ele>
	<time>2024-03-25T11:15:29.000Z</time>
</trkpt>
<trkpt lat="45.8389900" lon="9.3039490">
	<ele>1163.20</ele>
	<time>2024-03-25T11:15:30.000Z</time>
</trkpt>
<trkpt lat="45.8389860" lon="9.3039430">
	<ele>1163.40</ele>
	<time>2024-03-25T11:15:31.000Z</time>
</trkpt>
<trkpt lat="45.8389850" lon="9.3039380">
	<ele>1163.60</ele>
	<time>2024-03-25T11:15:32.000Z</time>
</trkpt>
<trkpt lat="45.8389820" lon="9.3039320">
	<ele>1163.60</ele>
	<time>2024-03-25T11:15:33.000Z</time>
</trkpt>
<trkpt lat="45.8389800" lon="9.3039260">
	<ele>1163.60</ele>
	<time>2024-03-25T11:15:34.000Z</time>
</trkpt>
<trkpt lat="45.8389800" lon="9.3039190">
	<ele>1163.80</ele>
	<time>2024-03-25T11:15:35.000Z</time>
</trkpt>
<trkpt lat="45.8389780" lon="9.3039100">
	<ele>1164.00</ele>
	<time>2024-03-25T11:15:36.000Z</time>
</trkpt>
<trkpt lat="45.8389750" lon="9.3039010">
	<ele>1164.20</ele>
	<time>2024-03-25T11:15:37.000Z</time>
</trkpt>
<trkpt lat="45.8389740" lon="9.3038940">
	<ele>1164.40</ele>
	<time>2024-03-25T11:15:38.000Z</time>
</trkpt>
<trkpt lat="45.8389720" lon="9.3038850">
	<ele>1164.60</ele>
	<time>2024-03-25T11:15:39.000Z</time>
</trkpt>
<trkpt lat="45.8389690" lon="9.3038760">
	<ele>1164.80</ele>
	<time>2024-03-25T11:15:40.000Z</time>
</trkpt>
<trkpt lat="45.8389640" lon="9.3038690">
	<ele>1165.00</ele>
	<time>2024-03-25T11:15:41.000Z</time>
</trkpt>
<trkpt lat="45.8389600" lon="9.3038620">
	<ele>1165.20</ele>
	<time>2024-03-25T11:15:42.000Z</time>
</trkpt>
<trkpt lat="45.8389570" lon="9.3038530">
	<ele>1165.40</ele>
	<time>2024-03-25T11:15:43.000Z</time>
</trkpt>
<trkpt lat="45.8389520" lon="9.3038490">
	<ele>1165.40</ele>
	<time>2024-03-25T11:15:44.000Z</time>
</trkpt>
<trkpt lat="45.8389480" lon="9.3038420">
	<ele>1165.60</ele>
	<time>2024-03-25T11:15:45.000Z</time>
</trkpt>
<trkpt lat="45.8389420" lon="9.3038320">
	<ele>1165.60</ele>
	<time>2024-03-25T11:15:46.000Z</time>
</trkpt>
<trkpt lat="45.8389370" lon="9.3038250">
	<ele>1165.80</ele>
	<time>2024-03-25T11:15:47.000Z</time>
</trkpt>
<trkpt lat="45.8389370" lon="9.3038190">
	<ele>1166.00</ele>
	<time>2024-03-25T11:15:48.000Z</time>
</trkpt>
<trkpt lat="45.8389350" lon="9.3038140">
	<ele>1166.20</ele>
	<time>2024-03-25T11:15:49.000Z</time>
</trkpt>
<trkpt lat="45.8389310" lon="9.3038050">
	<ele>1166.40</ele>
	<time>2024-03-25T11:15:50.000Z</time>
</trkpt>
<trkpt lat="45.8389310" lon="9.3037980">
	<ele>1166.60</ele>
	<time>2024-03-25T11:15:51.000Z</time>
</trkpt>
<trkpt lat="45.8389240" lon="9.3037900">
	<ele>1166.60</ele>
	<time>2024-03-25T11:15:52.000Z</time>
</trkpt>
<trkpt lat="45.8389200" lon="9.3037820">
	<ele>1166.80</ele>
	<time>2024-03-25T11:15:53.000Z</time>
</trkpt>
<trkpt lat="45.8389160" lon="9.3037740">
	<ele>1166.80</ele>
	<time>2024-03-25T11:15:54.000Z</time>
</trkpt>
<trkpt lat="45.8389140" lon="9.3037670">
	<ele>1167.00</ele>
	<time>2024-03-25T11:15:55.000Z</time>
</trkpt>
<trkpt lat="45.8389110" lon="9.3037600">
	<ele>1167.20</ele>
	<time>2024-03-25T11:15:56.000Z</time>
</trkpt>
<trkpt lat="45.8389080" lon="9.3037540">
	<ele>1167.20</ele>
	<time>2024-03-25T11:15:57.000Z</time>
</trkpt>
<trkpt lat="45.8389060" lon="9.3037480">
	<ele>1167.60</ele>
	<time>2024-03-25T11:15:58.000Z</time>
</trkpt>
<trkpt lat="45.8389040" lon="9.3037390">
	<ele>1167.80</ele>
	<time>2024-03-25T11:15:59.000Z</time>
</trkpt>
<trkpt lat="45.8389020" lon="9.3037330">
	<ele>1168.00</ele>
	<time>2024-03-25T11:16:00.000Z</time>
</trkpt>
<trkpt lat="45.8389010" lon="9.3037300">
	<ele>1168.20</ele>
	<time>2024-03-25T11:16:01.000Z</time>
</trkpt>
<trkpt lat="45.8389000" lon="9.3037290">
	<ele>1168.20</ele>
	<time>2024-03-25T11:16:02.000Z</time>
</trkpt>
<trkpt lat="45.8388980" lon="9.3037260">
	<ele>1168.60</ele>
	<time>2024-03-25T11:16:03.000Z</time>
</trkpt>
<trkpt lat="45.8388950" lon="9.3037210">
	<ele>1168.80</ele>
	<time>2024-03-25T11:16:04.000Z</time>
</trkpt>
<trkpt lat="45.8388940" lon="9.3037160">
	<ele>1168.80</ele>
	<time>2024-03-25T11:16:05.000Z</time>
</trkpt>
<trkpt lat="45.8388910" lon="9.3037080">
	<ele>1169.00</ele>
	<time>2024-03-25T11:16:06.000Z</time>
</trkpt>
<trkpt lat="45.8388890" lon="9.3037030">
	<ele>1169.00</ele>
	<time>2024-03-25T11:16:07.000Z</time>
</trkpt>
<trkpt lat="45.8388840" lon="9.3036960">
	<ele>1169.20</ele>
	<time>2024-03-25T11:16:08.000Z</time>
</trkpt>
<trkpt lat="45.8388800" lon="9.3036880">
	<ele>1169.40</ele>
	<time>2024-03-25T11:16:09.000Z</time>
</trkpt>
<trkpt lat="45.8388770" lon="9.3036810">
	<ele>1169.40</ele>
	<time>2024-03-25T11:16:10.000Z</time>
</trkpt>
<trkpt lat="45.8388750" lon="9.3036730">
	<ele>1169.60</ele>
	<time>2024-03-25T11:16:11.000Z</time>
</trkpt>
<trkpt lat="45.8388690" lon="9.3036690">
	<ele>1169.80</ele>
	<time>2024-03-25T11:16:12.000Z</time>
</trkpt>
<trkpt lat="45.8388620" lon="9.3036620">
	<ele>1170.00</ele>
	<time>2024-03-25T11:16:13.000Z</time>
</trkpt>
<trkpt lat="45.8388580" lon="9.3036560">
	<ele>1170.00</ele>
	<time>2024-03-25T11:16:14.000Z</time>
</trkpt>
<trkpt lat="45.8388560" lon="9.3036510">
	<ele>1170.20</ele>
	<time>2024-03-25T11:16:15.000Z</time>
</trkpt>
<trkpt lat="45.8388520" lon="9.3036440">
	<ele>1170.40</ele>
	<time>2024-03-25T11:16:16.000Z</time>
</trkpt>
<trkpt lat="45.8388490" lon="9.3036370">
	<ele>1170.60</ele>
	<time>2024-03-25T11:16:17.000Z</time>
</trkpt>
<trkpt lat="45.8388470" lon="9.3036310">
	<ele>1170.80</ele>
	<time>2024-03-25T11:16:18.000Z</time>
</trkpt>
<trkpt lat="45.8388430" lon="9.3036260">
	<ele>1170.80</ele>
	<time>2024-03-25T11:16:19.000Z</time>
</trkpt>
<trkpt lat="45.8388380" lon="9.3036200">
	<ele>1170.80</ele>
	<time>2024-03-25T11:16:20.000Z</time>
</trkpt>
<trkpt lat="45.8388350" lon="9.3036160">
	<ele>1171.20</ele>
	<time>2024-03-25T11:16:21.000Z</time>
</trkpt>
<trkpt lat="45.8388320" lon="9.3036120">
	<ele>1171.40</ele>
	<time>2024-03-25T11:16:22.000Z</time>
</trkpt>
<trkpt lat="45.8388280" lon="9.3036050">
	<ele>1171.60</ele>
	<time>2024-03-25T11:16:23.000Z</time>
</trkpt>
<trkpt lat="45.8388220" lon="9.3035960">
	<ele>1171.60</ele>
	<time>2024-03-25T11:16:24.000Z</time>
</trkpt>
<trkpt lat="45.8388140" lon="9.3035880">
	<ele>1171.60</ele>
	<time>2024-03-25T11:16:25.000Z</time>
</trkpt>
<trkpt lat="45.8388080" lon="9.3035810">
	<ele>1171.60</ele>
	<time>2024-03-25T11:16:26.000Z</time>
</trkpt>
<trkpt lat="45.8388020" lon="9.3035730">
	<ele>1171.60</ele>
	<time>2024-03-25T11:16:27.000Z</time>
</trkpt>
<trkpt lat="45.8387960" lon="9.3035630">
	<ele>1171.80</ele>
	<time>2024-03-25T11:16:28.000Z</time>
</trkpt>
<trkpt lat="45.8387940" lon="9.3035500">
	<ele>1171.80</ele>
	<time>2024-03-25T11:16:29.000Z</time>
</trkpt>
<trkpt lat="45.8387920" lon="9.3035400">
	<ele>1171.80</ele>
	<time>2024-03-25T11:16:30.000Z</time>
</trkpt>
<trkpt lat="45.8387930" lon="9.3035330">
	<ele>1171.80</ele>
	<time>2024-03-25T11:16:31.000Z</time>
</trkpt>
<trkpt lat="45.8387970" lon="9.3035270">
	<ele>1172.00</ele>
	<time>2024-03-25T11:16:32.000Z</time>
</trkpt>
<trkpt lat="45.8388020" lon="9.3035210">
	<ele>1172.20</ele>
	<time>2024-03-25T11:16:33.000Z</time>
</trkpt>
<trkpt lat="45.8388040" lon="9.3035150">
	<ele>1172.40</ele>
	<time>2024-03-25T11:16:34.000Z</time>
</trkpt>
<trkpt lat="45.8388080" lon="9.3035100">
	<ele>1172.40</ele>
	<time>2024-03-25T11:16:35.000Z</time>
</trkpt>
<trkpt lat="45.8388110" lon="9.3035010">
	<ele>1172.40</ele>
	<time>2024-03-25T11:16:36.000Z</time>
</trkpt>
<trkpt lat="45.8388120" lon="9.3034950">
	<ele>1172.60</ele>
	<time>2024-03-25T11:16:37.000Z</time>
</trkpt>
<trkpt lat="45.8388110" lon="9.3034870">
	<ele>1173.00</ele>
	<time>2024-03-25T11:16:38.000Z</time>
</trkpt>
<trkpt lat="45.8388120" lon="9.3034760">
	<ele>1173.20</ele>
	<time>2024-03-25T11:16:39.000Z</time>
</trkpt>
<trkpt lat="45.8388150" lon="9.3034670">
	<ele>1173.40</ele>
	<time>2024-03-25T11:16:40.000Z</time>
</trkpt>
<trkpt lat="45.8388150" lon="9.3034570">
	<ele>1173.60</ele>
	<time>2024-03-25T11:16:41.000Z</time>
</trkpt>
<trkpt lat="45.8388150" lon="9.3034510">
	<ele>1173.80</ele>
	<time>2024-03-25T11:16:42.000Z</time>
</trkpt>
<trkpt lat="45.8388140" lon="9.3034470">
	<ele>1174.00</ele>
	<time>2024-03-25T11:16:43.000Z</time>
</trkpt>
<trkpt lat="45.8388100" lon="9.3034430">
	<ele>1174.20</ele>
	<time>2024-03-25T11:16:44.000Z</time>
</trkpt>
<trkpt lat="45.8388070" lon="9.3034390">
	<ele>1174.20</ele>
	<time>2024-03-25T11:16:45.000Z</time>
</trkpt>
<trkpt lat="45.8388040" lon="9.3034310">
	<ele>1174.40</ele>
	<time>2024-03-25T11:16:46.000Z</time>
</trkpt>
<trkpt lat="45.8388010" lon="9.3034260">
	<ele>1174.60</ele>
	<time>2024-03-25T11:16:47.000Z</time>
</trkpt>
<trkpt lat="45.8387960" lon="9.3034180">
	<ele>1174.60</ele>
	<time>2024-03-25T11:16:48.000Z</time>
</trkpt>
<trkpt lat="45.8387940" lon="9.3034130">
	<ele>1174.80</ele>
	<time>2024-03-25T11:16:49.000Z</time>
</trkpt>
<trkpt lat="45.8387950" lon="9.3034080">
	<ele>1174.80</ele>
	<time>2024-03-25T11:16:50.000Z</time>
</trkpt>
<trkpt lat="45.8387950" lon="9.3034000">
	<ele>1174.80</ele>
	<time>2024-03-25T11:16:51.000Z</time>
</trkpt>
<trkpt lat="45.8387990" lon="9.3033910">
	<ele>1175.00</ele>
	<time>2024-03-25T11:16:52.000Z</time>
</trkpt>
<trkpt lat="45.8388000" lon="9.3033830">
	<ele>1175.20</ele>
	<time>2024-03-25T11:16:53.000Z</time>
</trkpt>
<trkpt lat="45.8387990" lon="9.3033730">
	<ele>1175.40</ele>
	<time>2024-03-25T11:16:54.000Z</time>
</trkpt>
<trkpt lat="45.8388000" lon="9.3033630">
	<ele>1175.60</ele>
	<time>2024-03-25T11:16:55.000Z</time>
</trkpt>
<trkpt lat="45.8388010" lon="9.3033510">
	<ele>1175.80</ele>
	<time>2024-03-25T11:16:56.000Z</time>
</trkpt>
<trkpt lat="45.8387970" lon="9.3033400">
	<ele>1175.80</ele>
	<time>2024-03-25T11:16:57.000Z</time>
</trkpt>
<trkpt lat="45.8387950" lon="9.3033310">
	<ele>1176.00</ele>
	<time>2024-03-25T11:16:58.000Z</time>
</trkpt>
<trkpt lat="45.8387930" lon="9.3033240">
	<ele>1176.00</ele>
	<time>2024-03-25T11:16:59.000Z</time>
</trkpt>
<trkpt lat="45.8387930" lon="9.3033160">
	<ele>1176.20</ele>
	<time>2024-03-25T11:17:00.000Z</time>
</trkpt>
<trkpt lat="45.8387900" lon="9.3033100">
	<ele>1176.40</ele>
	<time>2024-03-25T11:17:01.000Z</time>
</trkpt>
<trkpt lat="45.8387900" lon="9.3033040">
	<ele>1176.60</ele>
	<time>2024-03-25T11:17:02.000Z</time>
</trkpt>
<trkpt lat="45.8387890" lon="9.3032970">
	<ele>1176.60</ele>
	<time>2024-03-25T11:17:03.000Z</time>
</trkpt>
<trkpt lat="45.8387870" lon="9.3032870">
	<ele>1176.80</ele>
	<time>2024-03-25T11:17:04.000Z</time>
</trkpt>
<trkpt lat="45.8387890" lon="9.3032800">
	<ele>1177.20</ele>
	<time>2024-03-25T11:17:05.000Z</time>
</trkpt>
<trkpt lat="45.8387900" lon="9.3032740">
	<ele>1177.40</ele>
	<time>2024-03-25T11:17:06.000Z</time>
</trkpt>
<trkpt lat="45.8387910" lon="9.3032620">
	<ele>1177.60</ele>
	<time>2024-03-25T11:17:07.000Z</time>
</trkpt>
<trkpt lat="45.8387880" lon="9.3032540">
	<ele>1177.60</ele>
	<time>2024-03-25T11:17:08.000Z</time>
</trkpt>
<trkpt lat="45.8387850" lon="9.3032460">
	<ele>1177.80</ele>
	<time>2024-03-25T11:17:09.000Z</time>
</trkpt>
<trkpt lat="45.8387810" lon="9.3032390">
	<ele>1178.00</ele>
	<time>2024-03-25T11:17:10.000Z</time>
</trkpt>
<trkpt lat="45.8387800" lon="9.3032330">
	<ele>1178.20</ele>
	<time>2024-03-25T11:17:11.000Z</time>
</trkpt>
<trkpt lat="45.8387790" lon="9.3032300">
	<ele>1178.60</ele>
	<time>2024-03-25T11:17:12.000Z</time>
</trkpt>
<trkpt lat="45.8387750" lon="9.3032240">
	<ele>1178.80</ele>
	<time>2024-03-25T11:17:13.000Z</time>
</trkpt>
<trkpt lat="45.8387700" lon="9.3032170">
	<ele>1179.00</ele>
	<time>2024-03-25T11:17:14.000Z</time>
</trkpt>
<trkpt lat="45.8387670" lon="9.3032110">
	<ele>1179.20</ele>
	<time>2024-03-25T11:17:15.000Z</time>
</trkpt>
<trkpt lat="45.8387670" lon="9.3032050">
	<ele>1179.20</ele>
	<time>2024-03-25T11:17:16.000Z</time>
</trkpt>
<trkpt lat="45.8387630" lon="9.3031980">
	<ele>1179.40</ele>
	<time>2024-03-25T11:17:17.000Z</time>
</trkpt>
<trkpt lat="45.8387580" lon="9.3031940">
	<ele>1179.40</ele>
	<time>2024-03-25T11:17:18.000Z</time>
</trkpt>
<trkpt lat="45.8387490" lon="9.3031880">
	<ele>1179.60</ele>
	<time>2024-03-25T11:17:19.000Z</time>
</trkpt>
<trkpt lat="45.8387430" lon="9.3031820">
	<ele>1180.00</ele>
	<time>2024-03-25T11:17:20.000Z</time>
</trkpt>
<trkpt lat="45.8387380" lon="9.3031760">
	<ele>1180.20</ele>
	<time>2024-03-25T11:17:21.000Z</time>
</trkpt>
<trkpt lat="45.8387340" lon="9.3031730">
	<ele>1180.40</ele>
	<time>2024-03-25T11:17:22.000Z</time>
</trkpt>
<trkpt lat="45.8387290" lon="9.3031700">
	<ele>1180.40</ele>
	<time>2024-03-25T11:17:23.000Z</time>
</trkpt>
<trkpt lat="45.8387250" lon="9.3031650">
	<ele>1180.60</ele>
	<time>2024-03-25T11:17:24.000Z</time>
</trkpt>
<trkpt lat="45.8387230" lon="9.3031600">
	<ele>1180.60</ele>
	<time>2024-03-25T11:17:25.000Z</time>
</trkpt>
<trkpt lat="45.8387170" lon="9.3031550">
	<ele>1180.80</ele>
	<time>2024-03-25T11:17:26.000Z</time>
</trkpt>
<trkpt lat="45.8387140" lon="9.3031490">
	<ele>1181.00</ele>
	<time>2024-03-25T11:17:27.000Z</time>
</trkpt>
<trkpt lat="45.8387110" lon="9.3031440">
	<ele>1181.00</ele>
	<time>2024-03-25T11:17:28.000Z</time>
</trkpt>
<trkpt lat="45.8387110" lon="9.3031380">
	<ele>1181.00</ele>
	<time>2024-03-25T11:17:29.000Z</time>
</trkpt>
<trkpt lat="45.8387100" lon="9.3031340">
	<ele>1181.20</ele>
	<time>2024-03-25T11:17:30.000Z</time>
</trkpt>
<trkpt lat="45.8387070" lon="9.3031270">
	<ele>1181.40</ele>
	<time>2024-03-25T11:17:31.000Z</time>
</trkpt>
<trkpt lat="45.8387060" lon="9.3031180">
	<ele>1181.60</ele>
	<time>2024-03-25T11:17:32.000Z</time>
</trkpt>
<trkpt lat="45.8387040" lon="9.3031140">
	<ele>1181.80</ele>
	<time>2024-03-25T11:17:33.000Z</time>
</trkpt>
<trkpt lat="45.8387040" lon="9.3031100">
	<ele>1182.00</ele>
	<time>2024-03-25T11:17:34.000Z</time>
</trkpt>
<trkpt lat="45.8387030" lon="9.3031080">
	<ele>1182.20</ele>
	<time>2024-03-25T11:17:35.000Z</time>
</trkpt>
<trkpt lat="45.8387050" lon="9.3031090">
	<ele>1182.40</ele>
	<time>2024-03-25T11:17:36.000Z</time>
</trkpt>
<trkpt lat="45.8387050" lon="9.3031090">
	<ele>1182.40</ele>
	<time>2024-03-25T11:17:37.000Z</time>
</trkpt>
<trkpt lat="45.8387050" lon="9.3031090">
	<ele>1182.40</ele>
	<time>2024-03-25T11:17:38.000Z</time>
</trkpt>
<trkpt lat="45.8387060" lon="9.3031070">
	<ele>1182.40</ele>
	<time>2024-03-25T11:17:39.000Z</time>
</trkpt>
<trkpt lat="45.8387050" lon="9.3031050">
	<ele>1182.60</ele>
	<time>2024-03-25T11:17:40.000Z</time>
</trkpt>
<trkpt lat="45.8387070" lon="9.3031030">
	<ele>1182.60</ele>
	<time>2024-03-25T11:17:41.000Z</time>
</trkpt>
<trkpt lat="45.8387070" lon="9.3031030">
	<ele>1182.60</ele>
	<time>2024-03-25T11:17:42.000Z</time>
</trkpt>
<trkpt lat="45.8387070" lon="9.3031020">
	<ele>1182.80</ele>
	<time>2024-03-25T11:17:43.000Z</time>
</trkpt>
<trkpt lat="45.8387060" lon="9.3031020">
	<ele>1182.80</ele>
	<time>2024-03-25T11:17:44.000Z</time>
</trkpt>
<trkpt lat="45.8387060" lon="9.3031020">
	<ele>1182.80</ele>
	<time>2024-03-25T11:17:45.000Z</time>
</trkpt>
<trkpt lat="45.8387060" lon="9.3031020">
	<ele>1183.00</ele>
	<time>2024-03-25T11:17:46.000Z</time>
</trkpt>
<trkpt lat="45.8387060" lon="9.3031020">
	<ele>1183.00</ele>
	<time>2024-03-25T11:17:47.000Z</time>
</trkpt>
<trkpt lat="45.8387060" lon="9.3031020">
	<ele>1183.00</ele>
	<time>2024-03-25T11:17:48.000Z</time>
</trkpt>
<trkpt lat="45.8387060" lon="9.3031020">
	<ele>1183.00</ele>
	<time>2024-03-25T11:17:49.000Z</time>
</trkpt>
<trkpt lat="45.8387060" lon="9.3031020">
	<ele>1183.00</ele>
	<time>2024-03-25T11:17:50.000Z</time>
</trkpt>
<trkpt lat="45.8387060" lon="9.3031020">
	<ele>1183.00</ele>
	<time>2024-03-25T11:17:51.000Z</time>
</trkpt>
<trkpt lat="45.8387060" lon="9.3031020">
	<ele>1183.00</ele>
	<time>2024-03-25T11:17:52.000Z</time>
</trkpt>
<trkpt lat="45.8387060" lon="9.3031020">
	<ele>1183.00</ele>
	<time>2024-03-25T11:17:53.000Z</time>
</trkpt>
<trkpt lat="45.8387060" lon="9.3031020">
	<ele>1183.00</ele>
	<time>2024-03-25T11:17:54.000Z</time>
</trkpt>
<trkpt lat="45.8387060" lon="9.3031020">
	<ele>1183.00</ele>
	<time>2024-03-25T11:17:55.000Z</time>
</trkpt>
<trkpt lat="45.8387060" lon="9.3031020">
	<ele>1183.00</ele>
	<time>2024-03-25T11:17:56.000Z</time>
</trkpt>
<trkpt lat="45.8387060" lon="9.3031020">
	<ele>1183.00</ele>
	<time>2024-03-25T11:17:57.000Z</time>
</trkpt>
<trkpt lat="45.8387050" lon="9.3031020">
	<ele>1183.00</ele>
	<time>2024-03-25T11:17:58.000Z</time>
</trkpt>
<trkpt lat="45.8387050" lon="9.3031020">
	<ele>1182.80</ele>
	<time>2024-03-25T11:17:59.000Z</time>
</trkpt>
<trkpt lat="45.8387050" lon="9.3031020">
	<ele>1182.80</ele>
	<time>2024-03-25T11:18:00.000Z</time>
</trkpt>
<trkpt lat="45.8387050" lon="9.3031020">
	<ele>1183.00</ele>
	<time>2024-03-25T11:18:01.000Z</time>
</trkpt>
<trkpt lat="45.8387050" lon="9.3031020">
	<ele>1183.40</ele>
	<time>2024-03-25T11:18:02.000Z</time>
</trkpt>
<trkpt lat="45.8387030" lon="9.3031020">
	<ele>1183.60</ele>
	<time>2024-03-25T11:18:03.000Z</time>
</trkpt>
<trkpt lat="45.8387010" lon="9.3030990">
	<ele>1183.80</ele>
	<time>2024-03-25T11:18:04.000Z</time>
</trkpt>
<trkpt lat="45.8386990" lon="9.3030940">
	<ele>1183.80</ele>
	<time>2024-03-25T11:18:05.000Z</time>
</trkpt>
<trkpt lat="45.8386980" lon="9.3030920">
	<ele>1184.00</ele>
	<time>2024-03-25T11:18:06.000Z</time>
</trkpt>
<trkpt lat="45.8386970" lon="9.3030910">
	<ele>1184.20</ele>
	<time>2024-03-25T11:18:07.000Z</time>
</trkpt>
<trkpt lat="45.8386960" lon="9.3030900">
	<ele>1184.40</ele>
	<time>2024-03-25T11:18:08.000Z</time>
</trkpt>
<trkpt lat="45.8386960" lon="9.3030900">
	<ele>1184.60</ele>
	<time>2024-03-25T11:18:09.000Z</time>
</trkpt>
<trkpt lat="45.8386940" lon="9.3030870">
	<ele>1184.80</ele>
	<time>2024-03-25T11:18:10.000Z</time>
</trkpt>
<trkpt lat="45.8386910" lon="9.3030810">
	<ele>1185.00</ele>
	<time>2024-03-25T11:18:11.000Z</time>
</trkpt>
<trkpt lat="45.8386890" lon="9.3030750">
	<ele>1185.20</ele>
	<time>2024-03-25T11:18:12.000Z</time>
</trkpt>
<trkpt lat="45.8386870" lon="9.3030710">
	<ele>1185.40</ele>
	<time>2024-03-25T11:18:13.000Z</time>
</trkpt>
<trkpt lat="45.8386840" lon="9.3030670">
	<ele>1185.60</ele>
	<time>2024-03-25T11:18:14.000Z</time>
</trkpt>
<trkpt lat="45.8386800" lon="9.3030610">
	<ele>1185.60</ele>
	<time>2024-03-25T11:18:15.000Z</time>
</trkpt>
<trkpt lat="45.8386760" lon="9.3030550">
	<ele>1185.80</ele>
	<time>2024-03-25T11:18:16.000Z</time>
</trkpt>
<trkpt lat="45.8386750" lon="9.3030500">
	<ele>1186.00</ele>
	<time>2024-03-25T11:18:17.000Z</time>
</trkpt>
<trkpt lat="45.8386730" lon="9.3030410">
	<ele>1186.20</ele>
	<time>2024-03-25T11:18:18.000Z</time>
</trkpt>
<trkpt lat="45.8386730" lon="9.3030350">
	<ele>1186.40</ele>
	<time>2024-03-25T11:18:19.000Z</time>
</trkpt>
<trkpt lat="45.8386700" lon="9.3030310">
	<ele>1186.60</ele>
	<time>2024-03-25T11:18:20.000Z</time>
</trkpt>
<trkpt lat="45.8386670" lon="9.3030260">
	<ele>1186.80</ele>
	<time>2024-03-25T11:18:21.000Z</time>
</trkpt>
<trkpt lat="45.8386640" lon="9.3030200">
	<ele>1187.00</ele>
	<time>2024-03-25T11:18:22.000Z</time>
</trkpt>
<trkpt lat="45.8386600" lon="9.3030130">
	<ele>1187.00</ele>
	<time>2024-03-25T11:18:23.000Z</time>
</trkpt>
<trkpt lat="45.8386550" lon="9.3030060">
	<ele>1187.00</ele>
	<time>2024-03-25T11:18:24.000Z</time>
</trkpt>
<trkpt lat="45.8386510" lon="9.3030010">
	<ele>1187.20</ele>
	<time>2024-03-25T11:18:25.000Z</time>
</trkpt>
<trkpt lat="45.8386500" lon="9.3029960">
	<ele>1187.20</ele>
	<time>2024-03-25T11:18:26.000Z</time>
</trkpt>
<trkpt lat="45.8386490" lon="9.3029910">
	<ele>1187.20</ele>
	<time>2024-03-25T11:18:27.000Z</time>
</trkpt>
<trkpt lat="45.8386470" lon="9.3029870">
	<ele>1187.40</ele>
	<time>2024-03-25T11:18:28.000Z</time>
</trkpt>
<trkpt lat="45.8386450" lon="9.3029790">
	<ele>1187.60</ele>
	<time>2024-03-25T11:18:29.000Z</time>
</trkpt>
<trkpt lat="45.8386440" lon="9.3029710">
	<ele>1187.80</ele>
	<time>2024-03-25T11:18:30.000Z</time>
</trkpt>
<trkpt lat="45.8386410" lon="9.3029660">
	<ele>1188.00</ele>
	<time>2024-03-25T11:18:31.000Z</time>
</trkpt>
<trkpt lat="45.8386400" lon="9.3029610">
	<ele>1188.20</ele>
	<time>2024-03-25T11:18:32.000Z</time>
</trkpt>
<trkpt lat="45.8386390" lon="9.3029560">
	<ele>1188.40</ele>
	<time>2024-03-25T11:18:33.000Z</time>
</trkpt>
<trkpt lat="45.8386380" lon="9.3029520">
	<ele>1188.60</ele>
	<time>2024-03-25T11:18:34.000Z</time>
</trkpt>
<trkpt lat="45.8386340" lon="9.3029480">
	<ele>1188.60</ele>
	<time>2024-03-25T11:18:35.000Z</time>
</trkpt>
<trkpt lat="45.8386300" lon="9.3029440">
	<ele>1188.80</ele>
	<time>2024-03-25T11:18:36.000Z</time>
</trkpt>
<trkpt lat="45.8386270" lon="9.3029390">
	<ele>1189.00</ele>
	<time>2024-03-25T11:18:37.000Z</time>
</trkpt>
<trkpt lat="45.8386260" lon="9.3029340">
	<ele>1189.20</ele>
	<time>2024-03-25T11:18:38.000Z</time>
</trkpt>
<trkpt lat="45.8386270" lon="9.3029240">
	<ele>1189.40</ele>
	<time>2024-03-25T11:18:39.000Z</time>
</trkpt>
<trkpt lat="45.8386250" lon="9.3029080">
	<ele>1189.60</ele>
	<time>2024-03-25T11:18:40.000Z</time>
</trkpt>
<trkpt lat="45.8386190" lon="9.3028970">
	<ele>1189.80</ele>
	<time>2024-03-25T11:18:41.000Z</time>
</trkpt>
<trkpt lat="45.8386170" lon="9.3028850">
	<ele>1190.00</ele>
	<time>2024-03-25T11:18:42.000Z</time>
</trkpt>
<trkpt lat="45.8386140" lon="9.3028730">
	<ele>1190.40</ele>
	<time>2024-03-25T11:18:43.000Z</time>
</trkpt>
<trkpt lat="45.8386130" lon="9.3028550">
	<ele>1190.40</ele>
	<time>2024-03-25T11:18:44.000Z</time>
</trkpt>
<trkpt lat="45.8386130" lon="9.3028400">
	<ele>1190.60</ele>
	<time>2024-03-25T11:18:45.000Z</time>
</trkpt>
<trkpt lat="45.8386130" lon="9.3028250">
	<ele>1190.60</ele>
	<time>2024-03-25T11:18:46.000Z</time>
</trkpt>
<trkpt lat="45.8386120" lon="9.3028100">
	<ele>1191.00</ele>
	<time>2024-03-25T11:18:47.000Z</time>
</trkpt>
<trkpt lat="45.8386140" lon="9.3027980">
	<ele>1191.00</ele>
	<time>2024-03-25T11:18:48.000Z</time>
</trkpt>
<trkpt lat="45.8386140" lon="9.3027940">
	<ele>1191.20</ele>
	<time>2024-03-25T11:18:49.000Z</time>
</trkpt>
<trkpt lat="45.8386130" lon="9.3027850">
	<ele>1191.40</ele>
	<time>2024-03-25T11:18:50.000Z</time>
</trkpt>
<trkpt lat="45.8386150" lon="9.3027810">
	<ele>1191.60</ele>
	<time>2024-03-25T11:18:51.000Z</time>
</trkpt>
<trkpt lat="45.8386170" lon="9.3027780">
	<ele>1191.80</ele>
	<time>2024-03-25T11:18:52.000Z</time>
</trkpt>
<trkpt lat="45.8386180" lon="9.3027700">
	<ele>1192.20</ele>
	<time>2024-03-25T11:18:53.000Z</time>
</trkpt>
<trkpt lat="45.8386200" lon="9.3027620">
	<ele>1192.40</ele>
	<time>2024-03-25T11:18:54.000Z</time>
</trkpt>
<trkpt lat="45.8386230" lon="9.3027560">
	<ele>1192.60</ele>
	<time>2024-03-25T11:18:55.000Z</time>
</trkpt>
<trkpt lat="45.8386240" lon="9.3027510">
	<ele>1192.80</ele>
	<time>2024-03-25T11:18:56.000Z</time>
</trkpt>
<trkpt lat="45.8386270" lon="9.3027450">
	<ele>1192.80</ele>
	<time>2024-03-25T11:18:57.000Z</time>
</trkpt>
<trkpt lat="45.8386310" lon="9.3027390">
	<ele>1193.00</ele>
	<time>2024-03-25T11:18:58.000Z</time>
</trkpt>
<trkpt lat="45.8386350" lon="9.3027360">
	<ele>1193.00</ele>
	<time>2024-03-25T11:18:59.000Z</time>
</trkpt>
<trkpt lat="45.8386380" lon="9.3027310">
	<ele>1193.20</ele>
	<time>2024-03-25T11:19:00.000Z</time>
</trkpt>
<trkpt lat="45.8386390" lon="9.3027220">
	<ele>1193.40</ele>
	<time>2024-03-25T11:19:01.000Z</time>
</trkpt>
<trkpt lat="45.8386350" lon="9.3027140">
	<ele>1193.60</ele>
	<time>2024-03-25T11:19:02.000Z</time>
</trkpt>
<trkpt lat="45.8386260" lon="9.3027110">
	<ele>1193.60</ele>
	<time>2024-03-25T11:19:03.000Z</time>
</trkpt>
<trkpt lat="45.8386190" lon="9.3027110">
	<ele>1194.00</ele>
	<time>2024-03-25T11:19:04.000Z</time>
</trkpt>
<trkpt lat="45.8386150" lon="9.3027110">
	<ele>1194.20</ele>
	<time>2024-03-25T11:19:05.000Z</time>
</trkpt>
<trkpt lat="45.8386110" lon="9.3027110">
	<ele>1194.40</ele>
	<time>2024-03-25T11:19:06.000Z</time>
</trkpt>
<trkpt lat="45.8386070" lon="9.3027110">
	<ele>1194.60</ele>
	<time>2024-03-25T11:19:07.000Z</time>
</trkpt>
<trkpt lat="45.8386040" lon="9.3027130">
	<ele>1194.80</ele>
	<time>2024-03-25T11:19:08.000Z</time>
</trkpt>
<trkpt lat="45.8386020" lon="9.3027160">
	<ele>1195.00</ele>
	<time>2024-03-25T11:19:09.000Z</time>
</trkpt>
<trkpt lat="45.8386010" lon="9.3027180">
	<ele>1195.20</ele>
	<time>2024-03-25T11:19:10.000Z</time>
</trkpt>
<trkpt lat="45.8385960" lon="9.3027200">
	<ele>1195.20</ele>
	<time>2024-03-25T11:19:11.000Z</time>
</trkpt>
<trkpt lat="45.8385910" lon="9.3027200">
	<ele>1195.20</ele>
	<time>2024-03-25T11:19:12.000Z</time>
</trkpt>
<trkpt lat="45.8385850" lon="9.3027180">
	<ele>1195.40</ele>
	<time>2024-03-25T11:19:13.000Z</time>
</trkpt>
<trkpt lat="45.8385790" lon="9.3027190">
	<ele>1195.40</ele>
	<time>2024-03-25T11:19:14.000Z</time>
</trkpt>
<trkpt lat="45.8385730" lon="9.3027230">
	<ele>1195.60</ele>
	<time>2024-03-25T11:19:15.000Z</time>
</trkpt>
<trkpt lat="45.8385660" lon="9.3027240">
	<ele>1195.80</ele>
	<time>2024-03-25T11:19:16.000Z</time>
</trkpt>
<trkpt lat="45.8385600" lon="9.3027230">
	<ele>1196.00</ele>
	<time>2024-03-25T11:19:17.000Z</time>
</trkpt>
<trkpt lat="45.8385540" lon="9.3027180">
	<ele>1196.00</ele>
	<time>2024-03-25T11:19:18.000Z</time>
</trkpt>
<trkpt lat="45.8385490" lon="9.3027160">
	<ele>1196.00</ele>
	<time>2024-03-25T11:19:19.000Z</time>
</trkpt>
<trkpt lat="45.8385460" lon="9.3027160">
	<ele>1196.20</ele>
	<time>2024-03-25T11:19:20.000Z</time>
</trkpt>
<trkpt lat="45.8385450" lon="9.3027180">
	<ele>1196.20</ele>
	<time>2024-03-25T11:19:21.000Z</time>
</trkpt>
<trkpt lat="45.8385430" lon="9.3027190">
	<ele>1196.40</ele>
	<time>2024-03-25T11:19:22.000Z</time>
</trkpt>
<trkpt lat="45.8385430" lon="9.3027180">
	<ele>1196.40</ele>
	<time>2024-03-25T11:19:23.000Z</time>
</trkpt>
<trkpt lat="45.8385430" lon="9.3027150">
	<ele>1196.40</ele>
	<time>2024-03-25T11:19:24.000Z</time>
</trkpt>
<trkpt lat="45.8385440" lon="9.3027110">
	<ele>1196.60</ele>
	<time>2024-03-25T11:19:25.000Z</time>
</trkpt>
<trkpt lat="45.8385460" lon="9.3027070">
	<ele>1196.60</ele>
	<time>2024-03-25T11:19:26.000Z</time>
</trkpt>
<trkpt lat="45.8385500" lon="9.3027020">
	<ele>1196.80</ele>
	<time>2024-03-25T11:19:27.000Z</time>
</trkpt>
<trkpt lat="45.8385540" lon="9.3026960">
	<ele>1196.80</ele>
	<time>2024-03-25T11:19:28.000Z</time>
</trkpt>
<trkpt lat="45.8385550" lon="9.3026880">
	<ele>1196.80</ele>
	<time>2024-03-25T11:19:29.000Z</time>
</trkpt>
<trkpt lat="45.8385520" lon="9.3026790">
	<ele>1197.00</ele>
	<time>2024-03-25T11:19:30.000Z</time>
</trkpt>
<trkpt lat="45.8385500" lon="9.3026750">
	<ele>1197.40</ele>
	<time>2024-03-25T11:19:31.000Z</time>
</trkpt>
<trkpt lat="45.8385500" lon="9.3026730">
	<ele>1197.80</ele>
	<time>2024-03-25T11:19:32.000Z</time>
</trkpt>
<trkpt lat="45.8385490" lon="9.3026700">
	<ele>1197.80</ele>
	<time>2024-03-25T11:19:33.000Z</time>
</trkpt>
<trkpt lat="45.8385480" lon="9.3026670">
	<ele>1198.00</ele>
	<time>2024-03-25T11:19:34.000Z</time>
</trkpt>
<trkpt lat="45.8385520" lon="9.3026650">
	<ele>1198.20</ele>
	<time>2024-03-25T11:19:35.000Z</time>
</trkpt>
<trkpt lat="45.8385570" lon="9.3026650">
	<ele>1198.40</ele>
	<time>2024-03-25T11:19:36.000Z</time>
</trkpt>
<trkpt lat="45.8385580" lon="9.3026610">
	<ele>1198.60</ele>
	<time>2024-03-25T11:19:37.000Z</time>
</trkpt>
<trkpt lat="45.8385630" lon="9.3026590">
	<ele>1198.80</ele>
	<time>2024-03-25T11:19:38.000Z</time>
</trkpt>
<trkpt lat="45.8385660" lon="9.3026560">
	<ele>1199.00</ele>
	<time>2024-03-25T11:19:39.000Z</time>
</trkpt>
<trkpt lat="45.8385670" lon="9.3026500">
	<ele>1199.20</ele>
	<time>2024-03-25T11:19:40.000Z</time>
</trkpt>
<trkpt lat="45.8385660" lon="9.3026440">
	<ele>1199.20</ele>
	<time>2024-03-25T11:19:41.000Z</time>
</trkpt>
<trkpt lat="45.8385640" lon="9.3026410">
	<ele>1199.40</ele>
	<time>2024-03-25T11:19:42.000Z</time>
</trkpt>
<trkpt lat="45.8385620" lon="9.3026410">
	<ele>1199.40</ele>
	<time>2024-03-25T11:19:43.000Z</time>
</trkpt>
<trkpt lat="45.8385600" lon="9.3026390">
	<ele>1199.40</ele>
	<time>2024-03-25T11:19:44.000Z</time>
</trkpt>
<trkpt lat="45.8385570" lon="9.3026370">
	<ele>1199.40</ele>
	<time>2024-03-25T11:19:45.000Z</time>
</trkpt>
<trkpt lat="45.8385560" lon="9.3026370">
	<ele>1199.40</ele>
	<time>2024-03-25T11:19:46.000Z</time>
</trkpt>
<trkpt lat="45.8385570" lon="9.3026360">
	<ele>1199.40</ele>
	<time>2024-03-25T11:19:47.000Z</time>
</trkpt>
<trkpt lat="45.8385570" lon="9.3026360">
	<ele>1199.60</ele>
	<time>2024-03-25T11:19:48.000Z</time>
</trkpt>
<trkpt lat="45.8385570" lon="9.3026360">
	<ele>1199.60</ele>
	<time>2024-03-25T11:19:49.000Z</time>
</trkpt>
<trkpt lat="45.8385570" lon="9.3026360">
	<ele>1199.60</ele>
	<time>2024-03-25T11:19:50.000Z</time>
</trkpt>
<trkpt lat="45.8385570" lon="9.3026360">
	<ele>1199.60</ele>
	<time>2024-03-25T11:19:51.000Z</time>
</trkpt>
<trkpt lat="45.8385570" lon="9.3026360">
	<ele>1199.80</ele>
	<time>2024-03-25T11:19:52.000Z</time>
</trkpt>
<trkpt lat="45.8385570" lon="9.3026360">
	<ele>1199.80</ele>
	<time>2024-03-25T11:19:53.000Z</time>
</trkpt>
<trkpt lat="45.8385570" lon="9.3026360">
	<ele>1200.00</ele>
	<time>2024-03-25T11:19:54.000Z</time>
</trkpt>
<trkpt lat="45.8385570" lon="9.3026360">
	<ele>1200.00</ele>
	<time>2024-03-25T11:19:55.000Z</time>
</trkpt>
<trkpt lat="45.8385570" lon="9.3026360">
	<ele>1200.00</ele>
	<time>2024-03-25T11:19:56.000Z</time>
</trkpt>
<trkpt lat="45.8385570" lon="9.3026360">
	<ele>1200.00</ele>
	<time>2024-03-25T11:19:57.000Z</time>
</trkpt>
<trkpt lat="45.8385570" lon="9.3026360">
	<ele>1200.20</ele>
	<time>2024-03-25T11:19:58.000Z</time>
</trkpt>
<trkpt lat="45.8385570" lon="9.3026360">
	<ele>1200.20</ele>
	<time>2024-03-25T11:19:59.000Z</time>
</trkpt>
<trkpt lat="45.8385570" lon="9.3026360">
	<ele>1200.40</ele>
	<time>2024-03-25T11:20:00.000Z</time>
</trkpt>
<trkpt lat="45.8385570" lon="9.3026360">
	<ele>1200.60</ele>
	<time>2024-03-25T11:20:01.000Z</time>
</trkpt>
<trkpt lat="45.8385570" lon="9.3026360">
	<ele>1200.80</ele>
	<time>2024-03-25T11:20:02.000Z</time>
</trkpt>
<trkpt lat="45.8385570" lon="9.3026340">
	<ele>1200.80</ele>
	<time>2024-03-25T11:20:03.000Z</time>
</trkpt>
<trkpt lat="45.8385570" lon="9.3026340">
	<ele>1200.80</ele>
	<time>2024-03-25T11:20:04.000Z</time>
</trkpt>
<trkpt lat="45.8385550" lon="9.3026340">
	<ele>1200.80</ele>
	<time>2024-03-25T11:20:05.000Z</time>
</trkpt>
<trkpt lat="45.8385540" lon="9.3026340">
	<ele>1200.80</ele>
	<time>2024-03-25T11:20:06.000Z</time>
</trkpt>
<trkpt lat="45.8385530" lon="9.3026330">
	<ele>1201.00</ele>
	<time>2024-03-25T11:20:07.000Z</time>
</trkpt>
<trkpt lat="45.8385530" lon="9.3026330">
	<ele>1201.00</ele>
	<time>2024-03-25T11:20:08.000Z</time>
</trkpt>
<trkpt lat="45.8385510" lon="9.3026260">
	<ele>1201.00</ele>
	<time>2024-03-25T11:20:09.000Z</time>
</trkpt>
<trkpt lat="45.8385490" lon="9.3026210">
	<ele>1201.20</ele>
	<time>2024-03-25T11:20:10.000Z</time>
</trkpt>
<trkpt lat="45.8385450" lon="9.3026120">
	<ele>1201.40</ele>
	<time>2024-03-25T11:20:11.000Z</time>
</trkpt>
<trkpt lat="45.8385400" lon="9.3026080">
	<ele>1201.60</ele>
	<time>2024-03-25T11:20:12.000Z</time>
</trkpt>
<trkpt lat="45.8385360" lon="9.3026070">
	<ele>1201.80</ele>
	<time>2024-03-25T11:20:13.000Z</time>
</trkpt>
<trkpt lat="45.8385320" lon="9.3026040">
	<ele>1202.00</ele>
	<time>2024-03-25T11:20:14.000Z</time>
</trkpt>
<trkpt lat="45.8385290" lon="9.3026000">
	<ele>1202.00</ele>
	<time>2024-03-25T11:20:15.000Z</time>
</trkpt>
<trkpt lat="45.8385260" lon="9.3025970">
	<ele>1202.20</ele>
	<time>2024-03-25T11:20:16.000Z</time>
</trkpt>
<trkpt lat="45.8385230" lon="9.3025950">
	<ele>1202.20</ele>
	<time>2024-03-25T11:20:17.000Z</time>
</trkpt>
<trkpt lat="45.8385190" lon="9.3025910">
	<ele>1202.60</ele>
	<time>2024-03-25T11:20:18.000Z</time>
</trkpt>
<trkpt lat="45.8385160" lon="9.3025870">
	<ele>1202.80</ele>
	<time>2024-03-25T11:20:19.000Z</time>
</trkpt>
<trkpt lat="45.8385130" lon="9.3025840">
	<ele>1203.00</ele>
	<time>2024-03-25T11:20:20.000Z</time>
</trkpt>
<trkpt lat="45.8385080" lon="9.3025790">
	<ele>1203.20</ele>
	<time>2024-03-25T11:20:21.000Z</time>
</trkpt>
<trkpt lat="45.8385040" lon="9.3025730">
	<ele>1203.20</ele>
	<time>2024-03-25T11:20:22.000Z</time>
</trkpt>
<trkpt lat="45.8384980" lon="9.3025680">
	<ele>1203.40</ele>
	<time>2024-03-25T11:20:23.000Z</time>
</trkpt>
<trkpt lat="45.8384930" lon="9.3025650">
	<ele>1203.60</ele>
	<time>2024-03-25T11:20:24.000Z</time>
</trkpt>
<trkpt lat="45.8384890" lon="9.3025590">
	<ele>1203.80</ele>
	<time>2024-03-25T11:20:25.000Z</time>
</trkpt>
<trkpt lat="45.8384850" lon="9.3025530">
	<ele>1203.80</ele>
	<time>2024-03-25T11:20:26.000Z</time>
</trkpt>
<trkpt lat="45.8384820" lon="9.3025470">
	<ele>1204.00</ele>
	<time>2024-03-25T11:20:27.000Z</time>
</trkpt>
<trkpt lat="45.8384790" lon="9.3025430">
	<ele>1204.20</ele>
	<time>2024-03-25T11:20:28.000Z</time>
</trkpt>
<trkpt lat="45.8384740" lon="9.3025370">
	<ele>1204.40</ele>
	<time>2024-03-25T11:20:29.000Z</time>
</trkpt>
<trkpt lat="45.8384690" lon="9.3025300">
	<ele>1204.60</ele>
	<time>2024-03-25T11:20:30.000Z</time>
</trkpt>
<trkpt lat="45.8384640" lon="9.3025260">
	<ele>1204.80</ele>
	<time>2024-03-25T11:20:31.000Z</time>
</trkpt>
<trkpt lat="45.8384580" lon="9.3025230">
	<ele>1204.80</ele>
	<time>2024-03-25T11:20:32.000Z</time>
</trkpt>
<trkpt lat="45.8384540" lon="9.3025220">
	<ele>1204.80</ele>
	<time>2024-03-25T11:20:33.000Z</time>
</trkpt>
<trkpt lat="45.8384490" lon="9.3025200">
	<ele>1205.00</ele>
	<time>2024-03-25T11:20:34.000Z</time>
</trkpt>
<trkpt lat="45.8384440" lon="9.3025170">
	<ele>1205.00</ele>
	<time>2024-03-25T11:20:35.000Z</time>
</trkpt>
<trkpt lat="45.8384400" lon="9.3025150">
	<ele>1205.00</ele>
	<time>2024-03-25T11:20:36.000Z</time>
</trkpt>
<trkpt lat="45.8384380" lon="9.3025110">
	<ele>1205.20</ele>
	<time>2024-03-25T11:20:37.000Z</time>
</trkpt>
<trkpt lat="45.8384330" lon="9.3025050">
	<ele>1205.40</ele>
	<time>2024-03-25T11:20:38.000Z</time>
</trkpt>
<trkpt lat="45.8384290" lon="9.3025000">
	<ele>1205.40</ele>
	<time>2024-03-25T11:20:39.000Z</time>
</trkpt>
<trkpt lat="45.8384200" lon="9.3024960">
	<ele>1205.60</ele>
	<time>2024-03-25T11:20:40.000Z</time>
</trkpt>
<trkpt lat="45.8384060" lon="9.3024900">
	<ele>1205.80</ele>
	<time>2024-03-25T11:20:41.000Z</time>
</trkpt>
<trkpt lat="45.8383930" lon="9.3024880">
	<ele>1205.80</ele>
	<time>2024-03-25T11:20:42.000Z</time>
</trkpt>
<trkpt lat="45.8383820" lon="9.3024880">
	<ele>1206.00</ele>
	<time>2024-03-25T11:20:43.000Z</time>
</trkpt>
<trkpt lat="45.8383700" lon="9.3024860">
	<ele>1206.20</ele>
	<time>2024-03-25T11:20:44.000Z</time>
</trkpt>
<trkpt lat="45.8383570" lon="9.3024790">
	<ele>1206.40</ele>
	<time>2024-03-25T11:20:45.000Z</time>
</trkpt>
<trkpt lat="45.8383440" lon="9.3024700">
	<ele>1206.40</ele>
	<time>2024-03-25T11:20:46.000Z</time>
</trkpt>
<trkpt lat="45.8383320" lon="9.3024630">
	<ele>1206.40</ele>
	<time>2024-03-25T11:20:47.000Z</time>
</trkpt>
<trkpt lat="45.8383180" lon="9.3024570">
	<ele>1206.60</ele>
	<time>2024-03-25T11:20:48.000Z</time>
</trkpt>
<trkpt lat="45.8383030" lon="9.3024510">
	<ele>1206.80</ele>
	<time>2024-03-25T11:20:49.000Z</time>
</trkpt>
<trkpt lat="45.8382980" lon="9.3024500">
	<ele>1207.00</ele>
	<time>2024-03-25T11:20:50.000Z</time>
</trkpt>
<trkpt lat="45.8382940" lon="9.3024500">
	<ele>1207.40</ele>
	<time>2024-03-25T11:20:51.000Z</time>
</trkpt>
<trkpt lat="45.8382900" lon="9.3024460">
	<ele>1207.60</ele>
	<time>2024-03-25T11:20:52.000Z</time>
</trkpt>
<trkpt lat="45.8382870" lon="9.3024420">
	<ele>1207.60</ele>
	<time>2024-03-25T11:20:53.000Z</time>
</trkpt>
<trkpt lat="45.8382830" lon="9.3024420">
	<ele>1207.80</ele>
	<time>2024-03-25T11:20:54.000Z</time>
</trkpt>
<trkpt lat="45.8382770" lon="9.3024390">
	<ele>1207.80</ele>
	<time>2024-03-25T11:20:55.000Z</time>
</trkpt>
<trkpt lat="45.8382730" lon="9.3024360">
	<ele>1207.80</ele>
	<time>2024-03-25T11:20:56.000Z</time>
</trkpt>
<trkpt lat="45.8382680" lon="9.3024350">
	<ele>1208.00</ele>
	<time>2024-03-25T11:20:57.000Z</time>
</trkpt>
<trkpt lat="45.8382630" lon="9.3024310">
	<ele>1208.20</ele>
	<time>2024-03-25T11:20:58.000Z</time>
</trkpt>
<trkpt lat="45.8382590" lon="9.3024300">
	<ele>1208.20</ele>
	<time>2024-03-25T11:20:59.000Z</time>
</trkpt>
<trkpt lat="45.8382530" lon="9.3024250">
	<ele>1208.40</ele>
	<time>2024-03-25T11:21:00.000Z</time>
</trkpt>
<trkpt lat="45.8382490" lon="9.3024230">
	<ele>1208.40</ele>
	<time>2024-03-25T11:21:01.000Z</time>
</trkpt>
<trkpt lat="45.8382460" lon="9.3024210">
	<ele>1208.80</ele>
	<time>2024-03-25T11:21:02.000Z</time>
</trkpt>
<trkpt lat="45.8382410" lon="9.3024180">
	<ele>1209.00</ele>
	<time>2024-03-25T11:21:03.000Z</time>
</trkpt>
<trkpt lat="45.8382360" lon="9.3024130">
	<ele>1209.00</ele>
	<time>2024-03-25T11:21:04.000Z</time>
</trkpt>
<trkpt lat="45.8382300" lon="9.3024080">
	<ele>1209.00</ele>
	<time>2024-03-25T11:21:05.000Z</time>
</trkpt>
<trkpt lat="45.8382240" lon="9.3024040">
	<ele>1209.00</ele>
	<time>2024-03-25T11:21:06.000Z</time>
</trkpt>
<trkpt lat="45.8382170" lon="9.3024030">
	<ele>1209.20</ele>
	<time>2024-03-25T11:21:07.000Z</time>
</trkpt>
<trkpt lat="45.8382110" lon="9.3023990">
	<ele>1209.40</ele>
	<time>2024-03-25T11:21:08.000Z</time>
</trkpt>
<trkpt lat="45.8382060" lon="9.3023940">
	<ele>1209.40</ele>
	<time>2024-03-25T11:21:09.000Z</time>
</trkpt>
<trkpt lat="45.8382020" lon="9.3023960">
	<ele>1209.60</ele>
	<time>2024-03-25T11:21:10.000Z</time>
</trkpt>
<trkpt lat="45.8381970" lon="9.3023970">
	<ele>1209.60</ele>
	<time>2024-03-25T11:21:11.000Z</time>
</trkpt>
<trkpt lat="45.8381920" lon="9.3023970">
	<ele>1209.80</ele>
	<time>2024-03-25T11:21:12.000Z</time>
</trkpt>
<trkpt lat="45.8381870" lon="9.3023970">
	<ele>1210.00</ele>
	<time>2024-03-25T11:21:13.000Z</time>
</trkpt>
<trkpt lat="45.8381820" lon="9.3024010">
	<ele>1210.00</ele>
	<time>2024-03-25T11:21:14.000Z</time>
</trkpt>
<trkpt lat="45.8381770" lon="9.3024100">
	<ele>1210.20</ele>
	<time>2024-03-25T11:21:15.000Z</time>
</trkpt>
<trkpt lat="45.8381750" lon="9.3024130">
	<ele>1210.60</ele>
	<time>2024-03-25T11:21:16.000Z</time>
</trkpt>
<trkpt lat="45.8381730" lon="9.3024160">
	<ele>1210.80</ele>
	<time>2024-03-25T11:21:17.000Z</time>
</trkpt>
<trkpt lat="45.8381700" lon="9.3024160">
	<ele>1211.00</ele>
	<time>2024-03-25T11:21:18.000Z</time>
</trkpt>
<trkpt lat="45.8381670" lon="9.3024160">
	<ele>1211.20</ele>
	<time>2024-03-25T11:21:19.000Z</time>
</trkpt>
<trkpt lat="45.8381650" lon="9.3024160">
	<ele>1211.20</ele>
	<time>2024-03-25T11:21:20.000Z</time>
</trkpt>
<trkpt lat="45.8381620" lon="9.3024140">
	<ele>1211.40</ele>
	<time>2024-03-25T11:21:21.000Z</time>
</trkpt>
<trkpt lat="45.8381600" lon="9.3024160">
	<ele>1211.60</ele>
	<time>2024-03-25T11:21:22.000Z</time>
</trkpt>
<trkpt lat="45.8381580" lon="9.3024180">
	<ele>1211.60</ele>
	<time>2024-03-25T11:21:23.000Z</time>
</trkpt>
<trkpt lat="45.8381570" lon="9.3024190">
	<ele>1212.00</ele>
	<time>2024-03-25T11:21:24.000Z</time>
</trkpt>
<trkpt lat="45.8381540" lon="9.3024200">
	<ele>1212.00</ele>
	<time>2024-03-25T11:21:25.000Z</time>
</trkpt>
<trkpt lat="45.8381530" lon="9.3024200">
	<ele>1212.20</ele>
	<time>2024-03-25T11:21:26.000Z</time>
</trkpt>
<trkpt lat="45.8381510" lon="9.3024210">
	<ele>1212.20</ele>
	<time>2024-03-25T11:21:27.000Z</time>
</trkpt>
<trkpt lat="45.8381480" lon="9.3024220">
	<ele>1212.20</ele>
	<time>2024-03-25T11:21:28.000Z</time>
</trkpt>
<trkpt lat="45.8381480" lon="9.3024250">
	<ele>1212.20</ele>
	<time>2024-03-25T11:21:29.000Z</time>
</trkpt>
<trkpt lat="45.8381430" lon="9.3024250">
	<ele>1212.40</ele>
	<time>2024-03-25T11:21:30.000Z</time>
</trkpt>
<trkpt lat="45.8381400" lon="9.3024270">
	<ele>1212.60</ele>
	<time>2024-03-25T11:21:31.000Z</time>
</trkpt>
<trkpt lat="45.8381360" lon="9.3024240">
	<ele>1212.60</ele>
	<time>2024-03-25T11:21:32.000Z</time>
</trkpt>
<trkpt lat="45.8381300" lon="9.3024200">
	<ele>1212.80</ele>
	<time>2024-03-25T11:21:33.000Z</time>
</trkpt>
<trkpt lat="45.8381270" lon="9.3024190">
	<ele>1212.80</ele>
	<time>2024-03-25T11:21:34.000Z</time>
</trkpt>
<trkpt lat="45.8381230" lon="9.3024190">
	<ele>1213.20</ele>
	<time>2024-03-25T11:21:35.000Z</time>
</trkpt>
<trkpt lat="45.8381170" lon="9.3024200">
	<ele>1213.20</ele>
	<time>2024-03-25T11:21:36.000Z</time>
</trkpt>
<trkpt lat="45.8381120" lon="9.3024200">
	<ele>1213.40</ele>
	<time>2024-03-25T11:21:37.000Z</time>
</trkpt>
<trkpt lat="45.8381080" lon="9.3024210">
	<ele>1213.80</ele>
	<time>2024-03-25T11:21:38.000Z</time>
</trkpt>
<trkpt lat="45.8381030" lon="9.3024210">
	<ele>1213.80</ele>
	<time>2024-03-25T11:21:39.000Z</time>
</trkpt>
<trkpt lat="45.8380990" lon="9.3024200">
	<ele>1214.00</ele>
	<time>2024-03-25T11:21:40.000Z</time>
</trkpt>
<trkpt lat="45.8380970" lon="9.3024220">
	<ele>1214.00</ele>
	<time>2024-03-25T11:21:41.000Z</time>
</trkpt>
<trkpt lat="45.8380930" lon="9.3024210">
	<ele>1214.20</ele>
	<time>2024-03-25T11:21:42.000Z</time>
</trkpt>
<trkpt lat="45.8380890" lon="9.3024210">
	<ele>1214.20</ele>
	<time>2024-03-25T11:21:43.000Z</time>
</trkpt>
<trkpt lat="45.8380850" lon="9.3024220">
	<ele>1214.40</ele>
	<time>2024-03-25T11:21:44.000Z</time>
</trkpt>
<trkpt lat="45.8380820" lon="9.3024210">
	<ele>1214.60</ele>
	<time>2024-03-25T11:21:45.000Z</time>
</trkpt>
<trkpt lat="45.8380770" lon="9.3024200">
	<ele>1214.80</ele>
	<time>2024-03-25T11:21:46.000Z</time>
</trkpt>
<trkpt lat="45.8380690" lon="9.3024190">
	<ele>1214.80</ele>
	<time>2024-03-25T11:21:47.000Z</time>
</trkpt>
<trkpt lat="45.8380640" lon="9.3024210">
	<ele>1215.00</ele>
	<time>2024-03-25T11:21:48.000Z</time>
</trkpt>
<trkpt lat="45.8380600" lon="9.3024180">
	<ele>1215.00</ele>
	<time>2024-03-25T11:21:49.000Z</time>
</trkpt>
<trkpt lat="45.8380530" lon="9.3024120">
	<ele>1215.20</ele>
	<time>2024-03-25T11:21:50.000Z</time>
</trkpt>
<trkpt lat="45.8380490" lon="9.3024110">
	<ele>1215.40</ele>
	<time>2024-03-25T11:21:51.000Z</time>
</trkpt>
<trkpt lat="45.8380470" lon="9.3024090">
	<ele>1215.60</ele>
	<time>2024-03-25T11:21:52.000Z</time>
</trkpt>
<trkpt lat="45.8380420" lon="9.3024070">
	<ele>1215.80</ele>
	<time>2024-03-25T11:21:53.000Z</time>
</trkpt>
<trkpt lat="45.8380360" lon="9.3024050">
	<ele>1215.80</ele>
	<time>2024-03-25T11:21:54.000Z</time>
</trkpt>
<trkpt lat="45.8380310" lon="9.3024040">
	<ele>1216.00</ele>
	<time>2024-03-25T11:21:55.000Z</time>
</trkpt>
<trkpt lat="45.8380260" lon="9.3024030">
	<ele>1216.00</ele>
	<time>2024-03-25T11:21:56.000Z</time>
</trkpt>
<trkpt lat="45.8380210" lon="9.3024020">
	<ele>1216.20</ele>
	<time>2024-03-25T11:21:57.000Z</time>
</trkpt>
<trkpt lat="45.8380160" lon="9.3024030">
	<ele>1216.20</ele>
	<time>2024-03-25T11:21:58.000Z</time>
</trkpt>
<trkpt lat="45.8380120" lon="9.3024040">
	<ele>1216.40</ele>
	<time>2024-03-25T11:21:59.000Z</time>
</trkpt>
<trkpt lat="45.8380090" lon="9.3024050">
	<ele>1216.40</ele>
	<time>2024-03-25T11:22:00.000Z</time>
</trkpt>
<trkpt lat="45.8380060" lon="9.3024130">
	<ele>1216.40</ele>
	<time>2024-03-25T11:22:01.000Z</time>
</trkpt>
<trkpt lat="45.8380020" lon="9.3024180">
	<ele>1216.60</ele>
	<time>2024-03-25T11:22:02.000Z</time>
</trkpt>
<trkpt lat="45.8379990" lon="9.3024180">
	<ele>1217.00</ele>
	<time>2024-03-25T11:22:03.000Z</time>
</trkpt>
<trkpt lat="45.8379950" lon="9.3024170">
	<ele>1217.20</ele>
	<time>2024-03-25T11:22:04.000Z</time>
</trkpt>
<trkpt lat="45.8379910" lon="9.3024140">
	<ele>1217.40</ele>
	<time>2024-03-25T11:22:05.000Z</time>
</trkpt>
<trkpt lat="45.8379860" lon="9.3024100">
	<ele>1217.40</ele>
	<time>2024-03-25T11:22:06.000Z</time>
</trkpt>
<trkpt lat="45.8379820" lon="9.3024090">
	<ele>1217.60</ele>
	<time>2024-03-25T11:22:07.000Z</time>
</trkpt>
<trkpt lat="45.8379790" lon="9.3024050">
	<ele>1217.80</ele>
	<time>2024-03-25T11:22:08.000Z</time>
</trkpt>
<trkpt lat="45.8379740" lon="9.3024040">
	<ele>1217.80</ele>
	<time>2024-03-25T11:22:09.000Z</time>
</trkpt>
<trkpt lat="45.8379710" lon="9.3024060">
	<ele>1218.00</ele>
	<time>2024-03-25T11:22:10.000Z</time>
</trkpt>
<trkpt lat="45.8379680" lon="9.3024060">
	<ele>1218.20</ele>
	<time>2024-03-25T11:22:11.000Z</time>
</trkpt>
<trkpt lat="45.8379630" lon="9.3024050">
	<ele>1218.40</ele>
	<time>2024-03-25T11:22:12.000Z</time>
</trkpt>
<trkpt lat="45.8379580" lon="9.3024040">
	<ele>1218.80</ele>
	<time>2024-03-25T11:22:13.000Z</time>
</trkpt>
<trkpt lat="45.8379560" lon="9.3024030">
	<ele>1218.80</ele>
	<time>2024-03-25T11:22:14.000Z</time>
</trkpt>
<trkpt lat="45.8379530" lon="9.3024000">
	<ele>1219.00</ele>
	<time>2024-03-25T11:22:15.000Z</time>
</trkpt>
<trkpt lat="45.8379470" lon="9.3023980">
	<ele>1219.00</ele>
	<time>2024-03-25T11:22:16.000Z</time>
</trkpt>
<trkpt lat="45.8379400" lon="9.3023980">
	<ele>1219.00</ele>
	<time>2024-03-25T11:22:17.000Z</time>
</trkpt>
<trkpt lat="45.8379360" lon="9.3023990">
	<ele>1219.20</ele>
	<time>2024-03-25T11:22:18.000Z</time>
</trkpt>
<trkpt lat="45.8379330" lon="9.3024010">
	<ele>1219.40</ele>
	<time>2024-03-25T11:22:19.000Z</time>
</trkpt>
<trkpt lat="45.8379270" lon="9.3024030">
	<ele>1219.40</ele>
	<time>2024-03-25T11:22:20.000Z</time>
</trkpt>
<trkpt lat="45.8379250" lon="9.3024090">
	<ele>1219.40</ele>
	<time>2024-03-25T11:22:21.000Z</time>
</trkpt>
<trkpt lat="45.8379240" lon="9.3024150">
	<ele>1219.60</ele>
	<time>2024-03-25T11:22:22.000Z</time>
</trkpt>
<trkpt lat="45.8379240" lon="9.3024240">
	<ele>1219.60</ele>
	<time>2024-03-25T11:22:23.000Z</time>
</trkpt>
<trkpt lat="45.8379240" lon="9.3024320">
	<ele>1219.80</ele>
	<time>2024-03-25T11:22:24.000Z</time>
</trkpt>
<trkpt lat="45.8379230" lon="9.3024360">
	<ele>1220.00</ele>
	<time>2024-03-25T11:22:25.000Z</time>
</trkpt>
<trkpt lat="45.8379200" lon="9.3024390">
	<ele>1220.20</ele>
	<time>2024-03-25T11:22:26.000Z</time>
</trkpt>
<trkpt lat="45.8379160" lon="9.3024400">
	<ele>1220.40</ele>
	<time>2024-03-25T11:22:27.000Z</time>
</trkpt>
<trkpt lat="45.8379120" lon="9.3024410">
	<ele>1220.60</ele>
	<time>2024-03-25T11:22:28.000Z</time>
</trkpt>
<trkpt lat="45.8379070" lon="9.3024390">
	<ele>1220.60</ele>
	<time>2024-03-25T11:22:29.000Z</time>
</trkpt>
<trkpt lat="45.8378990" lon="9.3024340">
	<ele>1220.60</ele>
	<time>2024-03-25T11:22:30.000Z</time>
</trkpt>
<trkpt lat="45.8378920" lon="9.3024290">
	<ele>1220.80</ele>
	<time>2024-03-25T11:22:31.000Z</time>
</trkpt>
<trkpt lat="45.8378840" lon="9.3024200">
	<ele>1220.80</ele>
	<time>2024-03-25T11:22:32.000Z</time>
</trkpt>
<trkpt lat="45.8378780" lon="9.3024160">
	<ele>1221.00</ele>
	<time>2024-03-25T11:22:33.000Z</time>
</trkpt>
<trkpt lat="45.8378730" lon="9.3024160">
	<ele>1221.00</ele>
	<time>2024-03-25T11:22:34.000Z</time>
</trkpt>
<trkpt lat="45.8378660" lon="9.3024150">
	<ele>1221.20</ele>
	<time>2024-03-25T11:22:35.000Z</time>
</trkpt>
<trkpt lat="45.8378610" lon="9.3024140">
	<ele>1221.40</ele>
	<time>2024-03-25T11:22:36.000Z</time>
</trkpt>
<trkpt lat="45.8378570" lon="9.3024110">
	<ele>1221.40</ele>
	<time>2024-03-25T11:22:37.000Z</time>
</trkpt>
<trkpt lat="45.8378540" lon="9.3024060">
	<ele>1221.60</ele>
	<time>2024-03-25T11:22:38.000Z</time>
</trkpt>
<trkpt lat="45.8378500" lon="9.3024010">
	<ele>1221.60</ele>
	<time>2024-03-25T11:22:39.000Z</time>
</trkpt>
<trkpt lat="45.8378440" lon="9.3023950">
	<ele>1221.80</ele>
	<time>2024-03-25T11:22:40.000Z</time>
</trkpt>
<trkpt lat="45.8378370" lon="9.3023940">
	<ele>1222.00</ele>
	<time>2024-03-25T11:22:41.000Z</time>
</trkpt>
<trkpt lat="45.8378300" lon="9.3023940">
	<ele>1222.00</ele>
	<time>2024-03-25T11:22:42.000Z</time>
</trkpt>
<trkpt lat="45.8378280" lon="9.3023960">
	<ele>1222.20</ele>
	<time>2024-03-25T11:22:43.000Z</time>
</trkpt>
<trkpt lat="45.8378220" lon="9.3023980">
	<ele>1222.40</ele>
	<time>2024-03-25T11:22:44.000Z</time>
</trkpt>
<trkpt lat="45.8378140" lon="9.3023990">
	<ele>1222.60</ele>
	<time>2024-03-25T11:22:45.000Z</time>
</trkpt>
<trkpt lat="45.8378100" lon="9.3024010">
	<ele>1222.60</ele>
	<time>2024-03-25T11:22:46.000Z</time>
</trkpt>
<trkpt lat="45.8378050" lon="9.3024030">
	<ele>1222.80</ele>
	<time>2024-03-25T11:22:47.000Z</time>
</trkpt>
<trkpt lat="45.8378010" lon="9.3024030">
	<ele>1222.80</ele>
	<time>2024-03-25T11:22:48.000Z</time>
</trkpt>
<trkpt lat="45.8377980" lon="9.3023980">
	<ele>1223.00</ele>
	<time>2024-03-25T11:22:49.000Z</time>
</trkpt>
<trkpt lat="45.8377960" lon="9.3023920">
	<ele>1223.20</ele>
	<time>2024-03-25T11:22:50.000Z</time>
</trkpt>
<trkpt lat="45.8377900" lon="9.3023860">
	<ele>1223.20</ele>
	<time>2024-03-25T11:22:51.000Z</time>
</trkpt>
<trkpt lat="45.8377870" lon="9.3023840">
	<ele>1223.40</ele>
	<time>2024-03-25T11:22:52.000Z</time>
</trkpt>
<trkpt lat="45.8377850" lon="9.3023860">
	<ele>1223.40</ele>
	<time>2024-03-25T11:22:53.000Z</time>
</trkpt>
<trkpt lat="45.8377810" lon="9.3023860">
	<ele>1223.60</ele>
	<time>2024-03-25T11:22:54.000Z</time>
</trkpt>
<trkpt lat="45.8377770" lon="9.3023860">
	<ele>1223.60</ele>
	<time>2024-03-25T11:22:55.000Z</time>
</trkpt>
<trkpt lat="45.8377700" lon="9.3023830">
	<ele>1223.60</ele>
	<time>2024-03-25T11:22:56.000Z</time>
</trkpt>
<trkpt lat="45.8377640" lon="9.3023820">
	<ele>1223.80</ele>
	<time>2024-03-25T11:22:57.000Z</time>
</trkpt>
<trkpt lat="45.8377600" lon="9.3023810">
	<ele>1224.00</ele>
	<time>2024-03-25T11:22:58.000Z</time>
</trkpt>
<trkpt lat="45.8377560" lon="9.3023780">
	<ele>1224.00</ele>
	<time>2024-03-25T11:22:59.000Z</time>
</trkpt>
<trkpt lat="45.8377470" lon="9.3023730">
	<ele>1224.20</ele>
	<time>2024-03-25T11:23:00.000Z</time>
</trkpt>
<trkpt lat="45.8377430" lon="9.3023710">
	<ele>1224.40</ele>
	<time>2024-03-25T11:23:01.000Z</time>
</trkpt>
<trkpt lat="45.8377360" lon="9.3023670">
	<ele>1224.60</ele>
	<time>2024-03-25T11:23:02.000Z</time>
</trkpt>
<trkpt lat="45.8377310" lon="9.3023680">
	<ele>1224.60</ele>
	<time>2024-03-25T11:23:03.000Z</time>
</trkpt>
<trkpt lat="45.8377240" lon="9.3023700">
	<ele>1224.80</ele>
	<time>2024-03-25T11:23:04.000Z</time>
</trkpt>
<trkpt lat="45.8377180" lon="9.3023740">
	<ele>1224.80</ele>
	<time>2024-03-25T11:23:05.000Z</time>
</trkpt>
<trkpt lat="45.8377120" lon="9.3023780">
	<ele>1225.00</ele>
	<time>2024-03-25T11:23:06.000Z</time>
</trkpt>
<trkpt lat="45.8377070" lon="9.3023780">
	<ele>1225.00</ele>
	<time>2024-03-25T11:23:07.000Z</time>
</trkpt>
<trkpt lat="45.8377000" lon="9.3023760">
	<ele>1225.20</ele>
	<time>2024-03-25T11:23:08.000Z</time>
</trkpt>
<trkpt lat="45.8376970" lon="9.3023750">
	<ele>1225.20</ele>
	<time>2024-03-25T11:23:09.000Z</time>
</trkpt>
<trkpt lat="45.8376960" lon="9.3023750">
	<ele>1225.40</ele>
	<time>2024-03-25T11:23:10.000Z</time>
</trkpt>
<trkpt lat="45.8376970" lon="9.3023770">
	<ele>1225.60</ele>
	<time>2024-03-25T11:23:11.000Z</time>
</trkpt>
<trkpt lat="45.8376990" lon="9.3023730">
	<ele>1225.80</ele>
	<time>2024-03-25T11:23:12.000Z</time>
</trkpt>
<trkpt lat="45.8376990" lon="9.3023700">
	<ele>1225.80</ele>
	<time>2024-03-25T11:23:13.000Z</time>
</trkpt>
<trkpt lat="45.8377020" lon="9.3023680">
	<ele>1226.00</ele>
	<time>2024-03-25T11:23:14.000Z</time>
</trkpt>
<trkpt lat="45.8377070" lon="9.3023650">
	<ele>1226.20</ele>
	<time>2024-03-25T11:23:15.000Z</time>
</trkpt>
<trkpt lat="45.8377110" lon="9.3023610">
	<ele>1226.40</ele>
	<time>2024-03-25T11:23:16.000Z</time>
</trkpt>
<trkpt lat="45.8377120" lon="9.3023540">
	<ele>1226.60</ele>
	<time>2024-03-25T11:23:17.000Z</time>
</trkpt>
<trkpt lat="45.8377080" lon="9.3023530">
	<ele>1226.60</ele>
	<time>2024-03-25T11:23:18.000Z</time>
</trkpt>
<trkpt lat="45.8377080" lon="9.3023550">
	<ele>1226.80</ele>
	<time>2024-03-25T11:23:19.000Z</time>
</trkpt>
<trkpt lat="45.8377090" lon="9.3023560">
	<ele>1227.00</ele>
	<time>2024-03-25T11:23:20.000Z</time>
</trkpt>
<trkpt lat="45.8377060" lon="9.3023540">
	<ele>1227.20</ele>
	<time>2024-03-25T11:23:21.000Z</time>
</trkpt>
<trkpt lat="45.8377040" lon="9.3023510">
	<ele>1227.40</ele>
	<time>2024-03-25T11:23:22.000Z</time>
</trkpt>
<trkpt lat="45.8377020" lon="9.3023430">
	<ele>1227.60</ele>
	<time>2024-03-25T11:23:23.000Z</time>
</trkpt>
<trkpt lat="45.8377010" lon="9.3023370">
	<ele>1227.80</ele>
	<time>2024-03-25T11:23:24.000Z</time>
</trkpt>
<trkpt lat="45.8377020" lon="9.3023330">
	<ele>1228.20</ele>
	<time>2024-03-25T11:23:25.000Z</time>
</trkpt>
<trkpt lat="45.8377030" lon="9.3023310">
	<ele>1228.40</ele>
	<time>2024-03-25T11:23:26.000Z</time>
</trkpt>
<trkpt lat="45.8376980" lon="9.3023300">
	<ele>1228.60</ele>
	<time>2024-03-25T11:23:27.000Z</time>
</trkpt>
<trkpt lat="45.8376920" lon="9.3023250">
	<ele>1228.60</ele>
	<time>2024-03-25T11:23:28.000Z</time>
</trkpt>
<trkpt lat="45.8376870" lon="9.3023180">
	<ele>1228.80</ele>
	<time>2024-03-25T11:23:29.000Z</time>
</trkpt>
<trkpt lat="45.8376830" lon="9.3023150">
	<ele>1229.00</ele>
	<time>2024-03-25T11:23:30.000Z</time>
</trkpt>
<trkpt lat="45.8376830" lon="9.3023150">
	<ele>1229.00</ele>
	<time>2024-03-25T11:23:31.000Z</time>
</trkpt>
<trkpt lat="45.8376830" lon="9.3023150">
	<ele>1229.20</ele>
	<time>2024-03-25T11:23:32.000Z</time>
</trkpt>
<trkpt lat="45.8376830" lon="9.3023150">
	<ele>1229.40</ele>
	<time>2024-03-25T11:23:33.000Z</time>
</trkpt>
<trkpt lat="45.8376830" lon="9.3023150">
	<ele>1229.40</ele>
	<time>2024-03-25T11:23:34.000Z</time>
</trkpt>
<trkpt lat="45.8376830" lon="9.3023150">
	<ele>1229.60</ele>
	<time>2024-03-25T11:23:35.000Z</time>
</trkpt>
<trkpt lat="45.8376830" lon="9.3023150">
	<ele>1229.60</ele>
	<time>2024-03-25T11:23:36.000Z</time>
</trkpt>
<trkpt lat="45.8376830" lon="9.3023150">
	<ele>1229.80</ele>
	<time>2024-03-25T11:23:37.000Z</time>
</trkpt>
<trkpt lat="45.8376830" lon="9.3023150">
	<ele>1229.80</ele>
	<time>2024-03-25T11:23:38.000Z</time>
</trkpt>
<trkpt lat="45.8376830" lon="9.3023150">
	<ele>1230.00</ele>
	<time>2024-03-25T11:23:39.000Z</time>
</trkpt>
<trkpt lat="45.8376830" lon="9.3023150">
	<ele>1230.00</ele>
	<time>2024-03-25T11:23:40.000Z</time>
</trkpt>
<trkpt lat="45.8376850" lon="9.3023150">
	<ele>1230.00</ele>
	<time>2024-03-25T11:23:41.000Z</time>
</trkpt>
<trkpt lat="45.8376870" lon="9.3023150">
	<ele>1230.00</ele>
	<time>2024-03-25T11:23:42.000Z</time>
</trkpt>
<trkpt lat="45.8376920" lon="9.3023150">
	<ele>1230.00</ele>
	<time>2024-03-25T11:23:43.000Z</time>
</trkpt>
<trkpt lat="45.8376920" lon="9.3023150">
	<ele>1230.20</ele>
	<time>2024-03-25T11:23:44.000Z</time>
</trkpt>
<trkpt lat="45.8376980" lon="9.3023150">
	<ele>1230.20</ele>
	<time>2024-03-25T11:23:45.000Z</time>
</trkpt>
<trkpt lat="45.8376990" lon="9.3023150">
	<ele>1230.20</ele>
	<time>2024-03-25T11:23:46.000Z</time>
</trkpt>
<trkpt lat="45.8377010" lon="9.3023140">
	<ele>1230.20</ele>
	<time>2024-03-25T11:23:47.000Z</time>
</trkpt>
<trkpt lat="45.8377020" lon="9.3023130">
	<ele>1230.20</ele>
	<time>2024-03-25T11:23:48.000Z</time>
</trkpt>
<trkpt lat="45.8377020" lon="9.3023130">
	<ele>1230.40</ele>
	<time>2024-03-25T11:23:49.000Z</time>
</trkpt>
<trkpt lat="45.8377030" lon="9.3023130">
	<ele>1230.40</ele>
	<time>2024-03-25T11:23:50.000Z</time>
</trkpt>
<trkpt lat="45.8377030" lon="9.3023110">
	<ele>1230.60</ele>
	<time>2024-03-25T11:23:51.000Z</time>
</trkpt>
<trkpt lat="45.8377040" lon="9.3023080">
	<ele>1230.60</ele>
	<time>2024-03-25T11:23:52.000Z</time>
</trkpt>
<trkpt lat="45.8377060" lon="9.3023080">
	<ele>1230.80</ele>
	<time>2024-03-25T11:23:53.000Z</time>
</trkpt>
<trkpt lat="45.8377070" lon="9.3023070">
	<ele>1230.80</ele>
	<time>2024-03-25T11:23:54.000Z</time>
</trkpt>
<trkpt lat="45.8377080" lon="9.3023070">
	<ele>1230.80</ele>
	<time>2024-03-25T11:23:55.000Z</time>
</trkpt>
<trkpt lat="45.8377080" lon="9.3023070">
	<ele>1230.80</ele>
	<time>2024-03-25T11:23:56.000Z</time>
</trkpt>
<trkpt lat="45.8377090" lon="9.3023070">
	<ele>1230.80</ele>
	<time>2024-03-25T11:23:57.000Z</time>
</trkpt>
<trkpt lat="45.8377090" lon="9.3023070">
	<ele>1230.80</ele>
	<time>2024-03-25T11:23:58.000Z</time>
</trkpt>
<trkpt lat="45.8377090" lon="9.3023070">
	<ele>1230.60</ele>
	<time>2024-03-25T11:23:59.000Z</time>
</trkpt>
<trkpt lat="45.8377100" lon="9.3023070">
	<ele>1230.60</ele>
	<time>2024-03-25T11:24:00.000Z</time>
</trkpt>
<trkpt lat="45.8377100" lon="9.3023070">
	<ele>1230.60</ele>
	<time>2024-03-25T11:24:01.000Z</time>
</trkpt>
<trkpt lat="45.8377100" lon="9.3023060">
	<ele>1230.60</ele>
	<time>2024-03-25T11:24:02.000Z</time>
</trkpt>
<trkpt lat="45.8377100" lon="9.3023060">
	<ele>1230.60</ele>
	<time>2024-03-25T11:24:03.000Z</time>
</trkpt>
<trkpt lat="45.8377100" lon="9.3023060">
	<ele>1230.60</ele>
	<time>2024-03-25T11:24:04.000Z</time>
</trkpt>
<trkpt lat="45.8377100" lon="9.3023060">
	<ele>1230.60</ele>
	<time>2024-03-25T11:24:05.000Z</time>
</trkpt>
<trkpt lat="45.8377100" lon="9.3023060">
	<ele>1230.60</ele>
	<time>2024-03-25T11:24:06.000Z</time>
</trkpt>
<trkpt lat="45.8377100" lon="9.3023050">
	<ele>1230.60</ele>
	<time>2024-03-25T11:24:07.000Z</time>
</trkpt>
<trkpt lat="45.8377100" lon="9.3023050">
	<ele>1230.60</ele>
	<time>2024-03-25T11:24:08.000Z</time>
</trkpt>
<trkpt lat="45.8377100" lon="9.3023040">
	<ele>1230.80</ele>
	<time>2024-03-25T11:24:09.000Z</time>
</trkpt>
<trkpt lat="45.8377100" lon="9.3023030">
	<ele>1230.80</ele>
	<time>2024-03-25T11:24:10.000Z</time>
</trkpt>
<trkpt lat="45.8377100" lon="9.3023030">
	<ele>1231.00</ele>
	<time>2024-03-25T11:24:11.000Z</time>
</trkpt>
<trkpt lat="45.8377100" lon="9.3023030">
	<ele>1231.20</ele>
	<time>2024-03-25T11:24:12.000Z</time>
</trkpt>
<trkpt lat="45.8377070" lon="9.3022970">
	<ele>1231.40</ele>
	<time>2024-03-25T11:24:13.000Z</time>
</trkpt>
<trkpt lat="45.8376980" lon="9.3022870">
	<ele>1231.80</ele>
	<time>2024-03-25T11:24:14.000Z</time>
</trkpt>
<trkpt lat="45.8376920" lon="9.3022780">
	<ele>1232.00</ele>
	<time>2024-03-25T11:24:15.000Z</time>
</trkpt>
<trkpt lat="45.8376860" lon="9.3022680">
	<ele>1232.20</ele>
	<time>2024-03-25T11:24:16.000Z</time>
</trkpt>
<trkpt lat="45.8376790" lon="9.3022580">
	<ele>1232.40</ele>
	<time>2024-03-25T11:24:17.000Z</time>
</trkpt>
<trkpt lat="45.8376700" lon="9.3022460">
	<ele>1232.40</ele>
	<time>2024-03-25T11:24:18.000Z</time>
</trkpt>
<trkpt lat="45.8376660" lon="9.3022360">
	<ele>1232.60</ele>
	<time>2024-03-25T11:24:19.000Z</time>
</trkpt>
<trkpt lat="45.8376630" lon="9.3022260">
	<ele>1232.60</ele>
	<time>2024-03-25T11:24:20.000Z</time>
</trkpt>
<trkpt lat="45.8376570" lon="9.3022140">
	<ele>1232.60</ele>
	<time>2024-03-25T11:24:21.000Z</time>
</trkpt>
<trkpt lat="45.8376510" lon="9.3022030">
	<ele>1232.80</ele>
	<time>2024-03-25T11:24:22.000Z</time>
</trkpt>
<trkpt lat="45.8376470" lon="9.3021980">
	<ele>1232.80</ele>
	<time>2024-03-25T11:24:23.000Z</time>
</trkpt>
<trkpt lat="45.8376430" lon="9.3021940">
	<ele>1232.80</ele>
	<time>2024-03-25T11:24:24.000Z</time>
</trkpt>
<trkpt lat="45.8376370" lon="9.3021960">
	<ele>1233.00</ele>
	<time>2024-03-25T11:24:25.000Z</time>
</trkpt>
<trkpt lat="45.8376320" lon="9.3021980">
	<ele>1233.00</ele>
	<time>2024-03-25T11:24:26.000Z</time>
</trkpt>
<trkpt lat="45.8376270" lon="9.3021980">
	<ele>1233.20</ele>
	<time>2024-03-25T11:24:27.000Z</time>
</trkpt>
<trkpt lat="45.8376220" lon="9.3021960">
	<ele>1233.60</ele>
	<time>2024-03-25T11:24:28.000Z</time>
</trkpt>
<trkpt lat="45.8376210" lon="9.3021970">
	<ele>1234.00</ele>
	<time>2024-03-25T11:24:29.000Z</time>
</trkpt>
<trkpt lat="45.8376180" lon="9.3021980">
	<ele>1234.00</ele>
	<time>2024-03-25T11:24:30.000Z</time>
</trkpt>
<trkpt lat="45.8376150" lon="9.3021990">
	<ele>1234.20</ele>
	<time>2024-03-25T11:24:31.000Z</time>
</trkpt>
<trkpt lat="45.8376120" lon="9.3021990">
	<ele>1234.40</ele>
	<time>2024-03-25T11:24:32.000Z</time>
</trkpt>
<trkpt lat="45.8376100" lon="9.3021970">
	<ele>1234.40</ele>
	<time>2024-03-25T11:24:33.000Z</time>
</trkpt>
<trkpt lat="45.8376070" lon="9.3021940">
	<ele>1234.60</ele>
	<time>2024-03-25T11:24:34.000Z</time>
</trkpt>
<trkpt lat="45.8376040" lon="9.3021930">
	<ele>1234.60</ele>
	<time>2024-03-25T11:24:35.000Z</time>
</trkpt>
<trkpt lat="45.8376030" lon="9.3021900">
	<ele>1234.60</ele>
	<time>2024-03-25T11:24:36.000Z</time>
</trkpt>
<trkpt lat="45.8376010" lon="9.3021880">
	<ele>1234.60</ele>
	<time>2024-03-25T11:24:37.000Z</time>
</trkpt>
<trkpt lat="45.8375980" lon="9.3021870">
	<ele>1235.00</ele>
	<time>2024-03-25T11:24:38.000Z</time>
</trkpt>
<trkpt lat="45.8375940" lon="9.3021850">
	<ele>1235.20</ele>
	<time>2024-03-25T11:24:39.000Z</time>
</trkpt>
<trkpt lat="45.8375850" lon="9.3021840">
	<ele>1235.40</ele>
	<time>2024-03-25T11:24:40.000Z</time>
</trkpt>
<trkpt lat="45.8375790" lon="9.3021820">
	<ele>1235.60</ele>
	<time>2024-03-25T11:24:41.000Z</time>
</trkpt>
<trkpt lat="45.8375770" lon="9.3021880">
	<ele>1235.60</ele>
	<time>2024-03-25T11:24:42.000Z</time>
</trkpt>
<trkpt lat="45.8375780" lon="9.3021970">
	<ele>1235.80</ele>
	<time>2024-03-25T11:24:43.000Z</time>
</trkpt>
<trkpt lat="45.8375790" lon="9.3022030">
	<ele>1235.80</ele>
	<time>2024-03-25T11:24:44.000Z</time>
</trkpt>
<trkpt lat="45.8375800" lon="9.3022080">
	<ele>1236.00</ele>
	<time>2024-03-25T11:24:45.000Z</time>
</trkpt>
<trkpt lat="45.8375790" lon="9.3022120">
	<ele>1236.00</ele>
	<time>2024-03-25T11:24:46.000Z</time>
</trkpt>
<trkpt lat="45.8375760" lon="9.3022160">
	<ele>1236.00</ele>
	<time>2024-03-25T11:24:47.000Z</time>
</trkpt>
<trkpt lat="45.8375720" lon="9.3022210">
	<ele>1236.40</ele>
	<time>2024-03-25T11:24:48.000Z</time>
</trkpt>
<trkpt lat="45.8375650" lon="9.3022230">
	<ele>1236.40</ele>
	<time>2024-03-25T11:24:49.000Z</time>
</trkpt>
<trkpt lat="45.8375570" lon="9.3022240">
	<ele>1236.60</ele>
	<time>2024-03-25T11:24:50.000Z</time>
</trkpt>
<trkpt lat="45.8375500" lon="9.3022230">
	<ele>1236.60</ele>
	<time>2024-03-25T11:24:51.000Z</time>
</trkpt>
<trkpt lat="45.8375460" lon="9.3022230">
	<ele>1236.60</ele>
	<time>2024-03-25T11:24:52.000Z</time>
</trkpt>
<trkpt lat="45.8375410" lon="9.3022210">
	<ele>1236.60</ele>
	<time>2024-03-25T11:24:53.000Z</time>
</trkpt>
<trkpt lat="45.8375350" lon="9.3022200">
	<ele>1236.80</ele>
	<time>2024-03-25T11:24:54.000Z</time>
</trkpt>
<trkpt lat="45.8375300" lon="9.3022200">
	<ele>1237.00</ele>
	<time>2024-03-25T11:24:55.000Z</time>
</trkpt>
<trkpt lat="45.8375240" lon="9.3022190">
	<ele>1237.20</ele>
	<time>2024-03-25T11:24:56.000Z</time>
</trkpt>
<trkpt lat="45.8375160" lon="9.3022200">
	<ele>1237.20</ele>
	<time>2024-03-25T11:24:57.000Z</time>
</trkpt>
<trkpt lat="45.8375110" lon="9.3022190">
	<ele>1237.20</ele>
	<time>2024-03-25T11:24:58.000Z</time>
</trkpt>
<trkpt lat="45.8375060" lon="9.3022190">
	<ele>1237.60</ele>
	<time>2024-03-25T11:24:59.000Z</time>
</trkpt>
<trkpt lat="45.8375000" lon="9.3022170">
	<ele>1237.80</ele>
	<time>2024-03-25T11:25:00.000Z</time>
</trkpt>
<trkpt lat="45.8374940" lon="9.3022160">
	<ele>1238.00</ele>
	<time>2024-03-25T11:25:01.000Z</time>
</trkpt>
<trkpt lat="45.8374880" lon="9.3022130">
	<ele>1238.00</ele>
	<time>2024-03-25T11:25:02.000Z</time>
</trkpt>
<trkpt lat="45.8374800" lon="9.3022100">
	<ele>1238.20</ele>
	<time>2024-03-25T11:25:03.000Z</time>
</trkpt>
<trkpt lat="45.8374700" lon="9.3022090">
	<ele>1238.20</ele>
	<time>2024-03-25T11:25:04.000Z</time>
</trkpt>
<trkpt lat="45.8374620" lon="9.3022110">
	<ele>1238.40</ele>
	<time>2024-03-25T11:25:05.000Z</time>
</trkpt>
<trkpt lat="45.8374540" lon="9.3022130">
	<ele>1238.80</ele>
	<time>2024-03-25T11:25:06.000Z</time>
</trkpt>
<trkpt lat="45.8374480" lon="9.3022150">
	<ele>1239.00</ele>
	<time>2024-03-25T11:25:07.000Z</time>
</trkpt>
<trkpt lat="45.8374420" lon="9.3022140">
	<ele>1239.20</ele>
	<time>2024-03-25T11:25:08.000Z</time>
</trkpt>
<trkpt lat="45.8374360" lon="9.3022140">
	<ele>1239.40</ele>
	<time>2024-03-25T11:25:09.000Z</time>
</trkpt>
<trkpt lat="45.8374290" lon="9.3022070">
	<ele>1239.40</ele>
	<time>2024-03-25T11:25:10.000Z</time>
</trkpt>
<trkpt lat="45.8374230" lon="9.3022040">
	<ele>1239.60</ele>
	<time>2024-03-25T11:25:11.000Z</time>
</trkpt>
<trkpt lat="45.8374190" lon="9.3022050">
	<ele>1239.60</ele>
	<time>2024-03-25T11:25:12.000Z</time>
</trkpt>
<trkpt lat="45.8374140" lon="9.3022010">
	<ele>1239.80</ele>
	<time>2024-03-25T11:25:13.000Z</time>
</trkpt>
<trkpt lat="45.8374090" lon="9.3021980">
	<ele>1240.00</ele>
	<time>2024-03-25T11:25:14.000Z</time>
</trkpt>
<trkpt lat="45.8374020" lon="9.3021970">
	<ele>1240.20</ele>
	<time>2024-03-25T11:25:15.000Z</time>
</trkpt>
<trkpt lat="45.8373990" lon="9.3021970">
	<ele>1240.40</ele>
	<time>2024-03-25T11:25:16.000Z</time>
</trkpt>
<trkpt lat="45.8373940" lon="9.3021940">
	<ele>1240.60</ele>
	<time>2024-03-25T11:25:17.000Z</time>
</trkpt>
<trkpt lat="45.8373920" lon="9.3021950">
	<ele>1240.80</ele>
	<time>2024-03-25T11:25:18.000Z</time>
</trkpt>
<trkpt lat="45.8373900" lon="9.3021930">
	<ele>1240.80</ele>
	<time>2024-03-25T11:25:19.000Z</time>
</trkpt>
<trkpt lat="45.8373860" lon="9.3021890">
	<ele>1241.00</ele>
	<time>2024-03-25T11:25:20.000Z</time>
</trkpt>
<trkpt lat="45.8373800" lon="9.3021870">
	<ele>1241.20</ele>
	<time>2024-03-25T11:25:21.000Z</time>
</trkpt>
<trkpt lat="45.8373770" lon="9.3021870">
	<ele>1241.20</ele>
	<time>2024-03-25T11:25:22.000Z</time>
</trkpt>
<trkpt lat="45.8373720" lon="9.3021830">
	<ele>1241.40</ele>
	<time>2024-03-25T11:25:23.000Z</time>
</trkpt>
<trkpt lat="45.8373670" lon="9.3021810">
	<ele>1241.60</ele>
	<time>2024-03-25T11:25:24.000Z</time>
</trkpt>
<trkpt lat="45.8373630" lon="9.3021790">
	<ele>1241.80</ele>
	<time>2024-03-25T11:25:25.000Z</time>
</trkpt>
<trkpt lat="45.8373610" lon="9.3021780">
	<ele>1242.00</ele>
	<time>2024-03-25T11:25:26.000Z</time>
</trkpt>
<trkpt lat="45.8373610" lon="9.3021770">
	<ele>1242.20</ele>
	<time>2024-03-25T11:25:27.000Z</time>
</trkpt>
<trkpt lat="45.8373590" lon="9.3021770">
	<ele>1242.20</ele>
	<time>2024-03-25T11:25:28.000Z</time>
</trkpt>
<trkpt lat="45.8373550" lon="9.3021770">
	<ele>1242.40</ele>
	<time>2024-03-25T11:25:29.000Z</time>
</trkpt>
<trkpt lat="45.8373490" lon="9.3021770">
	<ele>1242.60</ele>
	<time>2024-03-25T11:25:30.000Z</time>
</trkpt>
<trkpt lat="45.8373420" lon="9.3021790">
	<ele>1242.60</ele>
	<time>2024-03-25T11:25:31.000Z</time>
</trkpt>
<trkpt lat="45.8373360" lon="9.3021820">
	<ele>1242.60</ele>
	<time>2024-03-25T11:25:32.000Z</time>
</trkpt>
<trkpt lat="45.8373280" lon="9.3021820">
	<ele>1242.80</ele>
	<time>2024-03-25T11:25:33.000Z</time>
</trkpt>
<trkpt lat="45.8373220" lon="9.3021840">
	<ele>1243.20</ele>
	<time>2024-03-25T11:25:34.000Z</time>
</trkpt>
<trkpt lat="45.8373180" lon="9.3021860">
	<ele>1243.20</ele>
	<time>2024-03-25T11:25:35.000Z</time>
</trkpt>
<trkpt lat="45.8373130" lon="9.3021890">
	<ele>1243.40</ele>
	<time>2024-03-25T11:25:36.000Z</time>
</trkpt>
<trkpt lat="45.8373090" lon="9.3021860">
	<ele>1243.40</ele>
	<time>2024-03-25T11:25:37.000Z</time>
</trkpt>
<trkpt lat="45.8373050" lon="9.3021840">
	<ele>1243.60</ele>
	<time>2024-03-25T11:25:38.000Z</time>
</trkpt>
<trkpt lat="45.8372970" lon="9.3021790">
	<ele>1243.60</ele>
	<time>2024-03-25T11:25:39.000Z</time>
</trkpt>
<trkpt lat="45.8372930" lon="9.3021770">
	<ele>1243.80</ele>
	<time>2024-03-25T11:25:40.000Z</time>
</trkpt>
<trkpt lat="45.8372900" lon="9.3021740">
	<ele>1243.80</ele>
	<time>2024-03-25T11:25:41.000Z</time>
</trkpt>
<trkpt lat="45.8372870" lon="9.3021720">
	<ele>1243.80</ele>
	<time>2024-03-25T11:25:42.000Z</time>
</trkpt>
<trkpt lat="45.8372850" lon="9.3021680">
	<ele>1244.00</ele>
	<time>2024-03-25T11:25:43.000Z</time>
</trkpt>
<trkpt lat="45.8372820" lon="9.3021650">
	<ele>1244.20</ele>
	<time>2024-03-25T11:25:44.000Z</time>
</trkpt>
<trkpt lat="45.8372820" lon="9.3021620">
	<ele>1244.40</ele>
	<time>2024-03-25T11:25:45.000Z</time>
</trkpt>
<trkpt lat="45.8372830" lon="9.3021580">
	<ele>1244.80</ele>
	<time>2024-03-25T11:25:46.000Z</time>
</trkpt>
<trkpt lat="45.8372820" lon="9.3021550">
	<ele>1245.20</ele>
	<time>2024-03-25T11:25:47.000Z</time>
</trkpt>
<trkpt lat="45.8372810" lon="9.3021500">
	<ele>1245.20</ele>
	<time>2024-03-25T11:25:48.000Z</time>
</trkpt>
<trkpt lat="45.8372780" lon="9.3021460">
	<ele>1245.40</ele>
	<time>2024-03-25T11:25:49.000Z</time>
</trkpt>
<trkpt lat="45.8372710" lon="9.3021430">
	<ele>1245.40</ele>
	<time>2024-03-25T11:25:50.000Z</time>
</trkpt>
<trkpt lat="45.8372640" lon="9.3021440">
	<ele>1245.60</ele>
	<time>2024-03-25T11:25:51.000Z</time>
</trkpt>
<trkpt lat="45.8372580" lon="9.3021460">
	<ele>1245.60</ele>
	<time>2024-03-25T11:25:52.000Z</time>
</trkpt>
<trkpt lat="45.8372530" lon="9.3021500">
	<ele>1245.80</ele>
	<time>2024-03-25T11:25:53.000Z</time>
</trkpt>
<trkpt lat="45.8372490" lon="9.3021500">
	<ele>1246.40</ele>
	<time>2024-03-25T11:25:54.000Z</time>
</trkpt>
<trkpt lat="45.8372460" lon="9.3021500">
	<ele>1246.60</ele>
	<time>2024-03-25T11:25:55.000Z</time>
</trkpt>
<trkpt lat="45.8372420" lon="9.3021470">
	<ele>1246.80</ele>
	<time>2024-03-25T11:25:56.000Z</time>
</trkpt>
<trkpt lat="45.8372380" lon="9.3021440">
	<ele>1247.00</ele>
	<time>2024-03-25T11:25:57.000Z</time>
</trkpt>
<trkpt lat="45.8372350" lon="9.3021410">
	<ele>1247.00</ele>
	<time>2024-03-25T11:25:58.000Z</time>
</trkpt>
<trkpt lat="45.8372330" lon="9.3021370">
	<ele>1247.00</ele>
	<time>2024-03-25T11:25:59.000Z</time>
</trkpt>
<trkpt lat="45.8372300" lon="9.3021330">
	<ele>1247.20</ele>
	<time>2024-03-25T11:26:00.000Z</time>
</trkpt>
<trkpt lat="45.8372280" lon="9.3021300">
	<ele>1247.40</ele>
	<time>2024-03-25T11:26:01.000Z</time>
</trkpt>
<trkpt lat="45.8372240" lon="9.3021250">
	<ele>1247.40</ele>
	<time>2024-03-25T11:26:02.000Z</time>
</trkpt>
<trkpt lat="45.8372230" lon="9.3021230">
	<ele>1247.60</ele>
	<time>2024-03-25T11:26:03.000Z</time>
</trkpt>
<trkpt lat="45.8372200" lon="9.3021230">
	<ele>1247.80</ele>
	<time>2024-03-25T11:26:04.000Z</time>
</trkpt>
<trkpt lat="45.8372150" lon="9.3021230">
	<ele>1248.00</ele>
	<time>2024-03-25T11:26:05.000Z</time>
</trkpt>
<trkpt lat="45.8372090" lon="9.3021260">
	<ele>1248.20</ele>
	<time>2024-03-25T11:26:06.000Z</time>
</trkpt>
<trkpt lat="45.8372040" lon="9.3021260">
	<ele>1248.40</ele>
	<time>2024-03-25T11:26:07.000Z</time>
</trkpt>
<trkpt lat="45.8371990" lon="9.3021270">
	<ele>1248.40</ele>
	<time>2024-03-25T11:26:08.000Z</time>
</trkpt>
<trkpt lat="45.8371940" lon="9.3021270">
	<ele>1248.60</ele>
	<time>2024-03-25T11:26:09.000Z</time>
</trkpt>
<trkpt lat="45.8371860" lon="9.3021250">
	<ele>1248.80</ele>
	<time>2024-03-25T11:26:10.000Z</time>
</trkpt>
<trkpt lat="45.8371790" lon="9.3021240">
	<ele>1248.80</ele>
	<time>2024-03-25T11:26:11.000Z</time>
</trkpt>
<trkpt lat="45.8371710" lon="9.3021200">
	<ele>1249.00</ele>
	<time>2024-03-25T11:26:12.000Z</time>
</trkpt>
<trkpt lat="45.8371630" lon="9.3021190">
	<ele>1249.20</ele>
	<time>2024-03-25T11:26:13.000Z</time>
</trkpt>
<trkpt lat="45.8371570" lon="9.3021180">
	<ele>1249.20</ele>
	<time>2024-03-25T11:26:14.000Z</time>
</trkpt>
<trkpt lat="45.8371510" lon="9.3021180">
	<ele>1249.40</ele>
	<time>2024-03-25T11:26:15.000Z</time>
</trkpt>
<trkpt lat="45.8371440" lon="9.3021190">
	<ele>1249.40</ele>
	<time>2024-03-25T11:26:16.000Z</time>
</trkpt>
<trkpt lat="45.8371390" lon="9.3021230">
	<ele>1249.60</ele>
	<time>2024-03-25T11:26:17.000Z</time>
</trkpt>
<trkpt lat="45.8371310" lon="9.3021260">
	<ele>1249.80</ele>
	<time>2024-03-25T11:26:18.000Z</time>
</trkpt>
<trkpt lat="45.8371250" lon="9.3021250">
	<ele>1250.00</ele>
	<time>2024-03-25T11:26:19.000Z</time>
</trkpt>
<trkpt lat="45.8371210" lon="9.3021240">
	<ele>1250.00</ele>
	<time>2024-03-25T11:26:20.000Z</time>
</trkpt>
<trkpt lat="45.8371190" lon="9.3021240">
	<ele>1250.20</ele>
	<time>2024-03-25T11:26:21.000Z</time>
</trkpt>
<trkpt lat="45.8371120" lon="9.3021210">
	<ele>1250.20</ele>
	<time>2024-03-25T11:26:22.000Z</time>
</trkpt>
<trkpt lat="45.8371090" lon="9.3021150">
	<ele>1250.20</ele>
	<time>2024-03-25T11:26:23.000Z</time>
</trkpt>
<trkpt lat="45.8371070" lon="9.3021100">
	<ele>1250.60</ele>
	<time>2024-03-25T11:26:24.000Z</time>
</trkpt>
<trkpt lat="45.8371050" lon="9.3021060">
	<ele>1250.80</ele>
	<time>2024-03-25T11:26:25.000Z</time>
</trkpt>
<trkpt lat="45.8371040" lon="9.3021010">
	<ele>1250.80</ele>
	<time>2024-03-25T11:26:26.000Z</time>
</trkpt>
<trkpt lat="45.8371010" lon="9.3020980">
	<ele>1251.00</ele>
	<time>2024-03-25T11:26:27.000Z</time>
</trkpt>
<trkpt lat="45.8371000" lon="9.3020970">
	<ele>1251.00</ele>
	<time>2024-03-25T11:26:28.000Z</time>
</trkpt>
<trkpt lat="45.8371010" lon="9.3020950">
	<ele>1251.20</ele>
	<time>2024-03-25T11:26:29.000Z</time>
</trkpt>
<trkpt lat="45.8371010" lon="9.3020920">
	<ele>1251.20</ele>
	<time>2024-03-25T11:26:30.000Z</time>
</trkpt>
<trkpt lat="45.8371010" lon="9.3020910">
	<ele>1251.60</ele>
	<time>2024-03-25T11:26:31.000Z</time>
</trkpt>
<trkpt lat="45.8371030" lon="9.3020890">
	<ele>1251.80</ele>
	<time>2024-03-25T11:26:32.000Z</time>
</trkpt>
<trkpt lat="45.8371050" lon="9.3020870">
	<ele>1251.80</ele>
	<time>2024-03-25T11:26:33.000Z</time>
</trkpt>
<trkpt lat="45.8371070" lon="9.3020860">
	<ele>1251.80</ele>
	<time>2024-03-25T11:26:34.000Z</time>
</trkpt>
<trkpt lat="45.8371140" lon="9.3020820">
	<ele>1252.00</ele>
	<time>2024-03-25T11:26:35.000Z</time>
</trkpt>
<trkpt lat="45.8371200" lon="9.3020740">
	<ele>1252.00</ele>
	<time>2024-03-25T11:26:36.000Z</time>
</trkpt>
<trkpt lat="45.8371250" lon="9.3020640">
	<ele>1252.00</ele>
	<time>2024-03-25T11:26:37.000Z</time>
</trkpt>
<trkpt lat="45.8371290" lon="9.3020560">
	<ele>1252.00</ele>
	<time>2024-03-25T11:26:38.000Z</time>
</trkpt>
<trkpt lat="45.8371340" lon="9.3020480">
	<ele>1252.20</ele>
	<time>2024-03-25T11:26:39.000Z</time>
</trkpt>
<trkpt lat="45.8371380" lon="9.3020440">
	<ele>1252.40</ele>
	<time>2024-03-25T11:26:40.000Z</time>
</trkpt>
<trkpt lat="45.8371440" lon="9.3020410">
	<ele>1252.60</ele>
	<time>2024-03-25T11:26:41.000Z</time>
</trkpt>
<trkpt lat="45.8371470" lon="9.3020370">
	<ele>1252.60</ele>
	<time>2024-03-25T11:26:42.000Z</time>
</trkpt>
<trkpt lat="45.8371500" lon="9.3020320">
	<ele>1253.00</ele>
	<time>2024-03-25T11:26:43.000Z</time>
</trkpt>
<trkpt lat="45.8371530" lon="9.3020280">
	<ele>1253.20</ele>
	<time>2024-03-25T11:26:44.000Z</time>
</trkpt>
<trkpt lat="45.8371570" lon="9.3020220">
	<ele>1253.20</ele>
	<time>2024-03-25T11:26:45.000Z</time>
</trkpt>
<trkpt lat="45.8371610" lon="9.3020150">
	<ele>1253.40</ele>
	<time>2024-03-25T11:26:46.000Z</time>
</trkpt>
<trkpt lat="45.8371650" lon="9.3020090">
	<ele>1253.40</ele>
	<time>2024-03-25T11:26:47.000Z</time>
</trkpt>
<trkpt lat="45.8371700" lon="9.3020070">
	<ele>1253.40</ele>
	<time>2024-03-25T11:26:48.000Z</time>
</trkpt>
<trkpt lat="45.8371760" lon="9.3020050">
	<ele>1253.40</ele>
	<time>2024-03-25T11:26:49.000Z</time>
</trkpt>
<trkpt lat="45.8371840" lon="9.3020020">
	<ele>1253.40</ele>
	<time>2024-03-25T11:26:50.000Z</time>
</trkpt>
<trkpt lat="45.8371940" lon="9.3019970">
	<ele>1253.40</ele>
	<time>2024-03-25T11:26:51.000Z</time>
</trkpt>
<trkpt lat="45.8371980" lon="9.3019880">
	<ele>1253.40</ele>
	<time>2024-03-25T11:26:52.000Z</time>
</trkpt>
<trkpt lat="45.8372010" lon="9.3019800">
	<ele>1253.40</ele>
	<time>2024-03-25T11:26:53.000Z</time>
</trkpt>
<trkpt lat="45.8372040" lon="9.3019760">
	<ele>1253.40</ele>
	<time>2024-03-25T11:26:54.000Z</time>
</trkpt>
<trkpt lat="45.8372050" lon="9.3019750">
	<ele>1253.40</ele>
	<time>2024-03-25T11:26:55.000Z</time>
</trkpt>
<trkpt lat="45.8372050" lon="9.3019710">
	<ele>1253.40</ele>
	<time>2024-03-25T11:26:56.000Z</time>
</trkpt>
<trkpt lat="45.8372060" lon="9.3019700">
	<ele>1253.60</ele>
	<time>2024-03-25T11:26:57.000Z</time>
</trkpt>
<trkpt lat="45.8372100" lon="9.3019720">
	<ele>1253.60</ele>
	<time>2024-03-25T11:26:58.000Z</time>
</trkpt>
<trkpt lat="45.8372110" lon="9.3019730">
	<ele>1253.80</ele>
	<time>2024-03-25T11:26:59.000Z</time>
</trkpt>
<trkpt lat="45.8372110" lon="9.3019760">
	<ele>1253.80</ele>
	<time>2024-03-25T11:27:00.000Z</time>
</trkpt>
<trkpt lat="45.8372100" lon="9.3019770">
	<ele>1254.00</ele>
	<time>2024-03-25T11:27:01.000Z</time>
</trkpt>
<trkpt lat="45.8372110" lon="9.3019780">
	<ele>1254.00</ele>
	<time>2024-03-25T11:27:02.000Z</time>
</trkpt>
<trkpt lat="45.8372120" lon="9.3019790">
	<ele>1254.00</ele>
	<time>2024-03-25T11:27:03.000Z</time>
</trkpt>
<trkpt lat="45.8372120" lon="9.3019800">
	<ele>1254.00</ele>
	<time>2024-03-25T11:27:04.000Z</time>
</trkpt>
<trkpt lat="45.8372120" lon="9.3019800">
	<ele>1254.00</ele>
	<time>2024-03-25T11:27:05.000Z</time>
</trkpt>
<trkpt lat="45.8372120" lon="9.3019800">
	<ele>1253.80</ele>
	<time>2024-03-25T11:27:06.000Z</time>
</trkpt>
<trkpt lat="45.8372120" lon="9.3019800">
	<ele>1253.80</ele>
	<time>2024-03-25T11:27:07.000Z</time>
</trkpt>
<trkpt lat="45.8372120" lon="9.3019800">
	<ele>1253.80</ele>
	<time>2024-03-25T11:27:08.000Z</time>
</trkpt>
<trkpt lat="45.8372120" lon="9.3019800">
	<ele>1253.80</ele>
	<time>2024-03-25T11:27:09.000Z</time>
</trkpt>
<trkpt lat="45.8372120" lon="9.3019800">
	<ele>1253.80</ele>
	<time>2024-03-25T11:27:10.000Z</time>
</trkpt>
<trkpt lat="45.8372080" lon="9.3019790">
	<ele>1254.00</ele>
	<time>2024-03-25T11:27:11.000Z</time>
</trkpt>
<trkpt lat="45.8371960" lon="9.3019680">
	<ele>1254.20</ele>
	<time>2024-03-25T11:27:12.000Z</time>
</trkpt>
<trkpt lat="45.8371810" lon="9.3019560">
	<ele>1254.20</ele>
	<time>2024-03-25T11:27:13.000Z</time>
</trkpt>
<trkpt lat="45.8371660" lon="9.3019440">
	<ele>1254.20</ele>
	<time>2024-03-25T11:27:14.000Z</time>
</trkpt>
<trkpt lat="45.8371500" lon="9.3019310">
	<ele>1254.20</ele>
	<time>2024-03-25T11:27:15.000Z</time>
</trkpt>
<trkpt lat="45.8371380" lon="9.3019210">
	<ele>1254.20</ele>
	<time>2024-03-25T11:27:16.000Z</time>
</trkpt>
<trkpt lat="45.8371270" lon="9.3019160">
	<ele>1254.20</ele>
	<time>2024-03-25T11:27:17.000Z</time>
</trkpt>
<trkpt lat="45.8371180" lon="9.3019190">
	<ele>1254.20</ele>
	<time>2024-03-25T11:27:18.000Z</time>
</trkpt>
<trkpt lat="45.8371110" lon="9.3019300">
	<ele>1254.40</ele>
	<time>2024-03-25T11:27:19.000Z</time>
</trkpt>
<trkpt lat="45.8371120" lon="9.3019370">
	<ele>1254.40</ele>
	<time>2024-03-25T11:27:20.000Z</time>
</trkpt>
<trkpt lat="45.8371180" lon="9.3019360">
	<ele>1254.40</ele>
	<time>2024-03-25T11:27:21.000Z</time>
</trkpt>
<trkpt lat="45.8371240" lon="9.3019410">
	<ele>1254.20</ele>
	<time>2024-03-25T11:27:22.000Z</time>
</trkpt>
<trkpt lat="45.8371290" lon="9.3019460">
	<ele>1254.20</ele>
	<time>2024-03-25T11:27:23.000Z</time>
</trkpt>
<trkpt lat="45.8371330" lon="9.3019480">
	<ele>1254.20</ele>
	<time>2024-03-25T11:27:24.000Z</time>
</trkpt>
<trkpt lat="45.8371350" lon="9.3019490">
	<ele>1254.20</ele>
	<time>2024-03-25T11:27:25.000Z</time>
</trkpt>
<trkpt lat="45.8371400" lon="9.3019540">
	<ele>1254.20</ele>
	<time>2024-03-25T11:27:26.000Z</time>
</trkpt>
<trkpt lat="45.8371440" lon="9.3019560">
	<ele>1254.20</ele>
	<time>2024-03-25T11:27:27.000Z</time>
</trkpt>
<trkpt lat="45.8371460" lon="9.3019560">
	<ele>1254.20</ele>
	<time>2024-03-25T11:27:28.000Z</time>
</trkpt>
<trkpt lat="45.8371460" lon="9.3019580">
	<ele>1254.20</ele>
	<time>2024-03-25T11:27:29.000Z</time>
</trkpt>
<trkpt lat="45.8371460" lon="9.3019580">
	<ele>1254.00</ele>
	<time>2024-03-25T11:27:30.000Z</time>
</trkpt>
<trkpt lat="45.8371460" lon="9.3019580">
	<ele>1254.00</ele>
	<time>2024-03-25T11:27:31.000Z</time>
</trkpt>
<trkpt lat="45.8371460" lon="9.3019580">
	<ele>1254.00</ele>
	<time>2024-03-25T11:27:32.000Z</time>
</trkpt>
<trkpt lat="45.8371460" lon="9.3019580">
	<ele>1254.20</ele>
	<time>2024-03-25T11:27:33.000Z</time>
</trkpt>
<trkpt lat="45.8371460" lon="9.3019580">
	<ele>1254.20</ele>
	<time>2024-03-25T11:27:34.000Z</time>
</trkpt>
<trkpt lat="45.8371460" lon="9.3019580">
	<ele>1254.20</ele>
	<time>2024-03-25T11:27:35.000Z</time>
</trkpt>
<trkpt lat="45.8371460" lon="9.3019580">
	<ele>1254.20</ele>
	<time>2024-03-25T11:27:36.000Z</time>
</trkpt>
<trkpt lat="45.8371460" lon="9.3019580">
	<ele>1254.20</ele>
	<time>2024-03-25T11:27:37.000Z</time>
</trkpt>
<trkpt lat="45.8371460" lon="9.3019580">
	<ele>1254.20</ele>
	<time>2024-03-25T11:27:38.000Z</time>
</trkpt>
<trkpt lat="45.8371460" lon="9.3019580">
	<ele>1254.40</ele>
	<time>2024-03-25T11:27:39.000Z</time>
</trkpt>
<trkpt lat="45.8371460" lon="9.3019580">
	<ele>1254.40</ele>
	<time>2024-03-25T11:27:40.000Z</time>
</trkpt>
<trkpt lat="45.8371460" lon="9.3019580">
	<ele>1254.40</ele>
	<time>2024-03-25T11:27:41.000Z</time>
</trkpt>
<trkpt lat="45.8371460" lon="9.3019580">
	<ele>1254.40</ele>
	<time>2024-03-25T11:27:42.000Z</time>
</trkpt>
<trkpt lat="45.8371460" lon="9.3019580">
	<ele>1254.40</ele>
	<time>2024-03-25T11:27:43.000Z</time>
</trkpt>
<trkpt lat="45.8371460" lon="9.3019580">
	<ele>1254.40</ele>
	<time>2024-03-25T11:27:44.000Z</time>
</trkpt>
<trkpt lat="45.8371450" lon="9.3019660">
	<ele>1254.20</ele>
	<time>2024-03-25T11:27:45.000Z</time>
</trkpt>
<trkpt lat="45.8371390" lon="9.3019800">
	<ele>1254.00</ele>
	<time>2024-03-25T11:27:46.000Z</time>
</trkpt>
<trkpt lat="45.8371280" lon="9.3019980">
	<ele>1253.80</ele>
	<time>2024-03-25T11:27:47.000Z</time>
</trkpt>
<trkpt lat="45.8371180" lon="9.3020160">
	<ele>1253.80</ele>
	<time>2024-03-25T11:27:48.000Z</time>
</trkpt>
<trkpt lat="45.8371070" lon="9.3020330">
	<ele>1253.60</ele>
	<time>2024-03-25T11:27:49.000Z</time>
</trkpt>
<trkpt lat="45.8371020" lon="9.3020500">
	<ele>1253.40</ele>
	<time>2024-03-25T11:27:50.000Z</time>
</trkpt>
<trkpt lat="45.8371010" lon="9.3020610">
	<ele>1253.40</ele>
	<time>2024-03-25T11:27:51.000Z</time>
</trkpt>
<trkpt lat="45.8371000" lon="9.3020710">
	<ele>1253.20</ele>
	<time>2024-03-25T11:27:52.000Z</time>
</trkpt>
<trkpt lat="45.8370960" lon="9.3020860">
	<ele>1253.20</ele>
	<time>2024-03-25T11:27:53.000Z</time>
</trkpt>
<trkpt lat="45.8370880" lon="9.3021020">
	<ele>1253.20</ele>
	<time>2024-03-25T11:27:54.000Z</time>
</trkpt>
<trkpt lat="45.8370810" lon="9.3021110">
	<ele>1253.00</ele>
	<time>2024-03-25T11:27:55.000Z</time>
</trkpt>
<trkpt lat="45.8370740" lon="9.3021230">
	<ele>1253.00</ele>
	<time>2024-03-25T11:27:56.000Z</time>
</trkpt>
<trkpt lat="45.8370670" lon="9.3021320">
	<ele>1253.00</ele>
	<time>2024-03-25T11:27:57.000Z</time>
</trkpt>
<trkpt lat="45.8370650" lon="9.3021350">
	<ele>1253.00</ele>
	<time>2024-03-25T11:27:58.000Z</time>
</trkpt>
<trkpt lat="45.8370650" lon="9.3021330">
	<ele>1253.00</ele>
	<time>2024-03-25T11:27:59.000Z</time>
</trkpt>
<trkpt lat="45.8370660" lon="9.3021290">
	<ele>1253.00</ele>
	<time>2024-03-25T11:28:00.000Z</time>
</trkpt>
<trkpt lat="45.8370660" lon="9.3021270">
	<ele>1253.00</ele>
	<time>2024-03-25T11:28:01.000Z</time>
</trkpt>
<trkpt lat="45.8370660" lon="9.3021250">
	<ele>1253.00</ele>
	<time>2024-03-25T11:28:02.000Z</time>
</trkpt>
<trkpt lat="45.8370640" lon="9.3021240">
	<ele>1253.20</ele>
	<time>2024-03-25T11:28:03.000Z</time>
</trkpt>
<trkpt lat="45.8370610" lon="9.3021230">
	<ele>1253.20</ele>
	<time>2024-03-25T11:28:04.000Z</time>
</trkpt>
<trkpt lat="45.8370600" lon="9.3021220">
	<ele>1253.40</ele>
	<time>2024-03-25T11:28:05.000Z</time>
</trkpt>
<trkpt lat="45.8370600" lon="9.3021210">
	<ele>1253.40</ele>
	<time>2024-03-25T11:28:06.000Z</time>
</trkpt>
<trkpt lat="45.8370600" lon="9.3021200">
	<ele>1253.60</ele>
	<time>2024-03-25T11:28:07.000Z</time>
</trkpt>
<trkpt lat="45.8370610" lon="9.3021200">
	<ele>1253.60</ele>
	<time>2024-03-25T11:28:08.000Z</time>
</trkpt>
<trkpt lat="45.8370630" lon="9.3021190">
	<ele>1253.60</ele>
	<time>2024-03-25T11:28:09.000Z</time>
</trkpt>
<trkpt lat="45.8370640" lon="9.3021190">
	<ele>1253.60</ele>
	<time>2024-03-25T11:28:10.000Z</time>
</trkpt>
<trkpt lat="45.8370660" lon="9.3021170">
	<ele>1253.60</ele>
	<time>2024-03-25T11:28:11.000Z</time>
</trkpt>
<trkpt lat="45.8370660" lon="9.3021170">
	<ele>1253.60</ele>
	<time>2024-03-25T11:28:12.000Z</time>
</trkpt>
<trkpt lat="45.8370660" lon="9.3021170">
	<ele>1253.60</ele>
	<time>2024-03-25T11:28:13.000Z</time>
</trkpt>
<trkpt lat="45.8370660" lon="9.3021170">
	<ele>1253.60</ele>
	<time>2024-03-25T11:28:14.000Z</time>
</trkpt>
<trkpt lat="45.8370660" lon="9.3021170">
	<ele>1253.60</ele>
	<time>2024-03-25T11:28:15.000Z</time>
</trkpt>
<trkpt lat="45.8370660" lon="9.3021170">
	<ele>1253.60</ele>
	<time>2024-03-25T11:28:16.000Z</time>
</trkpt>
<trkpt lat="45.8370660" lon="9.3021170">
	<ele>1253.60</ele>
	<time>2024-03-25T11:28:17.000Z</time>
</trkpt>
<trkpt lat="45.8370660" lon="9.3021170">
	<ele>1253.60</ele>
	<time>2024-03-25T11:28:18.000Z</time>
</trkpt>
<trkpt lat="45.8370660" lon="9.3021170">
	<ele>1253.60</ele>
	<time>2024-03-25T11:28:19.000Z</time>
</trkpt>
<trkpt lat="45.8370660" lon="9.3021170">
	<ele>1253.60</ele>
	<time>2024-03-25T11:28:20.000Z</time>
</trkpt>
<trkpt lat="45.8370650" lon="9.3021170">
	<ele>1253.60</ele>
	<time>2024-03-25T11:28:21.000Z</time>
</trkpt>
<trkpt lat="45.8370640" lon="9.3021170">
	<ele>1253.60</ele>
	<time>2024-03-25T11:28:22.000Z</time>
</trkpt>
<trkpt lat="45.8370630" lon="9.3021170">
	<ele>1253.60</ele>
	<time>2024-03-25T11:28:23.000Z</time>
</trkpt>
<trkpt lat="45.8370630" lon="9.3021170">
	<ele>1253.60</ele>
	<time>2024-03-25T11:28:24.000Z</time>
</trkpt>
<trkpt lat="45.8370620" lon="9.3021170">
	<ele>1253.40</ele>
	<time>2024-03-25T11:28:25.000Z</time>
</trkpt>
<trkpt lat="45.8370610" lon="9.3021170">
	<ele>1253.40</ele>
	<time>2024-03-25T11:28:26.000Z</time>
</trkpt>
<trkpt lat="45.8370610" lon="9.3021170">
	<ele>1253.00</ele>
	<time>2024-03-25T11:28:27.000Z</time>
</trkpt>
<trkpt lat="45.8370610" lon="9.3021170">
	<ele>1252.80</ele>
	<time>2024-03-25T11:28:28.000Z</time>
</trkpt>
<trkpt lat="45.8370610" lon="9.3021140">
	<ele>1252.80</ele>
	<time>2024-03-25T11:28:29.000Z</time>
</trkpt>
<trkpt lat="45.8370600" lon="9.3021130">
	<ele>1252.60</ele>
	<time>2024-03-25T11:28:30.000Z</time>
</trkpt>
<trkpt lat="45.8370600" lon="9.3021090">
	<ele>1252.60</ele>
	<time>2024-03-25T11:28:31.000Z</time>
</trkpt>
<trkpt lat="45.8370600" lon="9.3021000">
	<ele>1252.60</ele>
	<time>2024-03-25T11:28:32.000Z</time>
</trkpt>
<trkpt lat="45.8370600" lon="9.3020920">
	<ele>1252.60</ele>
	<time>2024-03-25T11:28:33.000Z</time>
</trkpt>
<trkpt lat="45.8370590" lon="9.3020800">
	<ele>1252.60</ele>
	<time>2024-03-25T11:28:34.000Z</time>
</trkpt>
<trkpt lat="45.8370580" lon="9.3020790">
	<ele>1252.60</ele>
	<time>2024-03-25T11:28:35.000Z</time>
</trkpt>
<trkpt lat="45.8370570" lon="9.3020760">
	<ele>1252.60</ele>
	<time>2024-03-25T11:28:36.000Z</time>
</trkpt>
<trkpt lat="45.8370570" lon="9.3020750">
	<ele>1252.60</ele>
	<time>2024-03-25T11:28:37.000Z</time>
</trkpt>
<trkpt lat="45.8370560" lon="9.3020740">
	<ele>1252.80</ele>
	<time>2024-03-25T11:28:38.000Z</time>
</trkpt>
<trkpt lat="45.8370560" lon="9.3020740">
	<ele>1252.80</ele>
	<time>2024-03-25T11:28:39.000Z</time>
</trkpt>
<trkpt lat="45.8370560" lon="9.3020730">
	<ele>1252.80</ele>
	<time>2024-03-25T11:28:40.000Z</time>
</trkpt>
<trkpt lat="45.8370550" lon="9.3020710">
	<ele>1253.00</ele>
	<time>2024-03-25T11:28:41.000Z</time>
</trkpt>
<trkpt lat="45.8370550" lon="9.3020700">
	<ele>1253.00</ele>
	<time>2024-03-25T11:28:42.000Z</time>
</trkpt>
<trkpt lat="45.8370550" lon="9.3020700">
	<ele>1253.00</ele>
	<time>2024-03-25T11:28:43.000Z</time>
</trkpt>
<trkpt lat="45.8370550" lon="9.3020690">
	<ele>1253.00</ele>
	<time>2024-03-25T11:28:44.000Z</time>
</trkpt>
<trkpt lat="45.8370550" lon="9.3020690">
	<ele>1253.00</ele>
	<time>2024-03-25T11:28:45.000Z</time>
</trkpt>
<trkpt lat="45.8370550" lon="9.3020690">
	<ele>1252.80</ele>
	<time>2024-03-25T11:28:46.000Z</time>
</trkpt>
<trkpt lat="45.8370550" lon="9.3020680">
	<ele>1252.80</ele>
	<time>2024-03-25T11:28:47.000Z</time>
</trkpt>
<trkpt lat="45.8370550" lon="9.3020680">
	<ele>1252.80</ele>
	<time>2024-03-25T11:28:48.000Z</time>
</trkpt>
<trkpt lat="45.8370550" lon="9.3020680">
	<ele>1252.80</ele>
	<time>2024-03-25T11:28:49.000Z</time>
</trkpt>
<trkpt lat="45.8370550" lon="9.3020680">
	<ele>1252.60</ele>
	<time>2024-03-25T11:28:50.000Z</time>
</trkpt>
<trkpt lat="45.8370550" lon="9.3020660">
	<ele>1252.60</ele>
	<time>2024-03-25T11:28:51.000Z</time>
</trkpt>
<trkpt lat="45.8370550" lon="9.3020640">
	<ele>1252.40</ele>
	<time>2024-03-25T11:28:52.000Z</time>
</trkpt>
<trkpt lat="45.8370550" lon="9.3020630">
	<ele>1252.40</ele>
	<time>2024-03-25T11:28:53.000Z</time>
</trkpt>
<trkpt lat="45.8370550" lon="9.3020620">
	<ele>1252.20</ele>
	<time>2024-03-25T11:28:54.000Z</time>
</trkpt>
<trkpt lat="45.8370550" lon="9.3020610">
	<ele>1252.20</ele>
	<time>2024-03-25T11:28:55.000Z</time>
</trkpt>
<trkpt lat="45.8370550" lon="9.3020600">
	<ele>1252.00</ele>
	<time>2024-03-25T11:28:56.000Z</time>
</trkpt>
<trkpt lat="45.8370550" lon="9.3020600">
	<ele>1252.00</ele>
	<time>2024-03-25T11:28:57.000Z</time>
</trkpt>
<trkpt lat="45.8370550" lon="9.3020590">
	<ele>1252.00</ele>
	<time>2024-03-25T11:28:58.000Z</time>
</trkpt>
<trkpt lat="45.8370550" lon="9.3020580">
	<ele>1252.00</ele>
	<time>2024-03-25T11:28:59.000Z</time>
</trkpt>
<trkpt lat="45.8370550" lon="9.3020580">
	<ele>1252.00</ele>
	<time>2024-03-25T11:29:00.000Z</time>
</trkpt>
<trkpt lat="45.8370550" lon="9.3020570">
	<ele>1252.00</ele>
	<time>2024-03-25T11:29:01.000Z</time>
</trkpt>
<trkpt lat="45.8370550" lon="9.3020570">
	<ele>1252.00</ele>
	<time>2024-03-25T11:29:02.000Z</time>
</trkpt>
<trkpt lat="45.8370550" lon="9.3020570">
	<ele>1252.00</ele>
	<time>2024-03-25T11:29:03.000Z</time>
</trkpt>
<trkpt lat="45.8370550" lon="9.3020570">
	<ele>1252.00</ele>
	<time>2024-03-25T11:29:04.000Z</time>
</trkpt>
<trkpt lat="45.8370550" lon="9.3020560">
	<ele>1252.00</ele>
	<time>2024-03-25T11:29:05.000Z</time>
</trkpt>
<trkpt lat="45.8370560" lon="9.3020560">
	<ele>1252.00</ele>
	<time>2024-03-25T11:29:06.000Z</time>
</trkpt>
<trkpt lat="45.8370570" lon="9.3020560">
	<ele>1252.00</ele>
	<time>2024-03-25T11:29:07.000Z</time>
</trkpt>
<trkpt lat="45.8370580" lon="9.3020550">
	<ele>1252.00</ele>
	<time>2024-03-25T11:29:08.000Z</time>
</trkpt>
<trkpt lat="45.8370590" lon="9.3020550">
	<ele>1252.00</ele>
	<time>2024-03-25T11:29:09.000Z</time>
</trkpt>
<trkpt lat="45.8370600" lon="9.3020540">
	<ele>1252.00</ele>
	<time>2024-03-25T11:29:10.000Z</time>
</trkpt>
<trkpt lat="45.8370600" lon="9.3020540">
	<ele>1252.00</ele>
	<time>2024-03-25T11:29:11.000Z</time>
</trkpt>
<trkpt lat="45.8370610" lon="9.3020540">
	<ele>1252.00</ele>
	<time>2024-03-25T11:29:12.000Z</time>
</trkpt>
<trkpt lat="45.8370610" lon="9.3020530">
	<ele>1252.00</ele>
	<time>2024-03-25T11:29:13.000Z</time>
</trkpt>
<trkpt lat="45.8370610" lon="9.3020530">
	<ele>1252.20</ele>
	<time>2024-03-25T11:29:14.000Z</time>
</trkpt>
<trkpt lat="45.8370620" lon="9.3020530">
	<ele>1252.20</ele>
	<time>2024-03-25T11:29:15.000Z</time>
</trkpt>
<trkpt lat="45.8370620" lon="9.3020510">
	<ele>1252.40</ele>
	<time>2024-03-25T11:29:16.000Z</time>
</trkpt>
<trkpt lat="45.8370620" lon="9.3020470">
	<ele>1252.40</ele>
	<time>2024-03-25T11:29:17.000Z</time>
</trkpt>
<trkpt lat="45.8370620" lon="9.3020440">
	<ele>1252.40</ele>
	<time>2024-03-25T11:29:18.000Z</time>
</trkpt>
<trkpt lat="45.8370620" lon="9.3020430">
	<ele>1252.40</ele>
	<time>2024-03-25T11:29:19.000Z</time>
</trkpt>
<trkpt lat="45.8370620" lon="9.3020420">
	<ele>1252.40</ele>
	<time>2024-03-25T11:29:20.000Z</time>
</trkpt>
<trkpt lat="45.8370630" lon="9.3020410">
	<ele>1252.40</ele>
	<time>2024-03-25T11:29:21.000Z</time>
</trkpt>
<trkpt lat="45.8370630" lon="9.3020400">
	<ele>1252.40</ele>
	<time>2024-03-25T11:29:22.000Z</time>
</trkpt>
<trkpt lat="45.8370630" lon="9.3020400">
	<ele>1252.40</ele>
	<time>2024-03-25T11:29:23.000Z</time>
</trkpt>
<trkpt lat="45.8370630" lon="9.3020370">
	<ele>1252.40</ele>
	<time>2024-03-25T11:29:24.000Z</time>
</trkpt>
<trkpt lat="45.8370630" lon="9.3020360">
	<ele>1252.40</ele>
	<time>2024-03-25T11:29:25.000Z</time>
</trkpt>
<trkpt lat="45.8370630" lon="9.3020340">
	<ele>1252.40</ele>
	<time>2024-03-25T11:29:26.000Z</time>
</trkpt>
<trkpt lat="45.8370630" lon="9.3020330">
	<ele>1252.40</ele>
	<time>2024-03-25T11:29:27.000Z</time>
</trkpt>
<trkpt lat="45.8370620" lon="9.3020330">
	<ele>1252.20</ele>
	<time>2024-03-25T11:29:28.000Z</time>
</trkpt>
<trkpt lat="45.8370620" lon="9.3020330">
	<ele>1252.20</ele>
	<time>2024-03-25T11:29:29.000Z</time>
</trkpt>
<trkpt lat="45.8370620" lon="9.3020330">
	<ele>1252.20</ele>
	<time>2024-03-25T11:29:30.000Z</time>
</trkpt>
<trkpt lat="45.8370620" lon="9.3020330">
	<ele>1252.20</ele>
	<time>2024-03-25T11:29:31.000Z</time>
</trkpt>
<trkpt lat="45.8370620" lon="9.3020330">
	<ele>1252.20</ele>
	<time>2024-03-25T11:29:32.000Z</time>
</trkpt>
<trkpt lat="45.8370620" lon="9.3020330">
	<ele>1252.40</ele>
	<time>2024-03-25T11:29:33.000Z</time>
</trkpt>
<trkpt lat="45.8370620" lon="9.3020330">
	<ele>1252.40</ele>
	<time>2024-03-25T11:29:34.000Z</time>
</trkpt>
<trkpt lat="45.8370620" lon="9.3020330">
	<ele>1252.40</ele>
	<time>2024-03-25T11:29:35.000Z</time>
</trkpt>
<trkpt lat="45.8370630" lon="9.3020330">
	<ele>1252.20</ele>
	<time>2024-03-25T11:29:36.000Z</time>
</trkpt>
<trkpt lat="45.8370630" lon="9.3020330">
	<ele>1252.20</ele>
	<time>2024-03-25T11:29:37.000Z</time>
</trkpt>
<trkpt lat="45.8370630" lon="9.3020330">
	<ele>1252.20</ele>
	<time>2024-03-25T11:29:38.000Z</time>
</trkpt>
<trkpt lat="45.8370630" lon="9.3020330">
	<ele>1252.20</ele>
	<time>2024-03-25T11:29:39.000Z</time>
</trkpt>
<trkpt lat="45.8370630" lon="9.3020330">
	<ele>1252.20</ele>
	<time>2024-03-25T11:29:40.000Z</time>
</trkpt>
<trkpt lat="45.8370620" lon="9.3020350">
	<ele>1252.20</ele>
	<time>2024-03-25T11:29:41.000Z</time>
</trkpt>
<trkpt lat="45.8370620" lon="9.3020360">
	<ele>1252.20</ele>
	<time>2024-03-25T11:29:42.000Z</time>
</trkpt>
<trkpt lat="45.8370630" lon="9.3020380">
	<ele>1252.40</ele>
	<time>2024-03-25T11:29:43.000Z</time>
</trkpt>
<trkpt lat="45.8370630" lon="9.3020410">
	<ele>1252.40</ele>
	<time>2024-03-25T11:29:44.000Z</time>
</trkpt>
<trkpt lat="45.8370630" lon="9.3020420">
	<ele>1252.40</ele>
	<time>2024-03-25T11:29:45.000Z</time>
</trkpt>
<trkpt lat="45.8370630" lon="9.3020430">
	<ele>1252.40</ele>
	<time>2024-03-25T11:29:46.000Z</time>
</trkpt>
<trkpt lat="45.8370630" lon="9.3020440">
	<ele>1252.40</ele>
	<time>2024-03-25T11:29:47.000Z</time>
</trkpt>
<trkpt lat="45.8370630" lon="9.3020450">
	<ele>1252.40</ele>
	<time>2024-03-25T11:29:48.000Z</time>
</trkpt>
<trkpt lat="45.8370630" lon="9.3020450">
	<ele>1252.60</ele>
	<time>2024-03-25T11:29:49.000Z</time>
</trkpt>
<trkpt lat="45.8370630" lon="9.3020460">
	<ele>1252.60</ele>
	<time>2024-03-25T11:29:50.000Z</time>
</trkpt>
<trkpt lat="45.8370630" lon="9.3020460">
	<ele>1252.60</ele>
	<time>2024-03-25T11:29:51.000Z</time>
</trkpt>
<trkpt lat="45.8370630" lon="9.3020460">
	<ele>1252.60</ele>
	<time>2024-03-25T11:29:52.000Z</time>
</trkpt>
<trkpt lat="45.8370630" lon="9.3020470">
	<ele>1252.60</ele>
	<time>2024-03-25T11:29:53.000Z</time>
</trkpt>
<trkpt lat="45.8370630" lon="9.3020480">
	<ele>1252.60</ele>
	<time>2024-03-25T11:29:54.000Z</time>
</trkpt>
<trkpt lat="45.8370630" lon="9.3020480">
	<ele>1252.60</ele>
	<time>2024-03-25T11:29:55.000Z</time>
</trkpt>
<trkpt lat="45.8370630" lon="9.3020480">
	<ele>1252.60</ele>
	<time>2024-03-25T11:29:56.000Z</time>
</trkpt>
<trkpt lat="45.8370630" lon="9.3020480">
	<ele>1252.60</ele>
	<time>2024-03-25T11:29:57.000Z</time>
</trkpt>
<trkpt lat="45.8370630" lon="9.3020480">
	<ele>1252.60</ele>
	<time>2024-03-25T11:29:58.000Z</time>
</trkpt>
<trkpt lat="45.8370630" lon="9.3020490">
	<ele>1252.60</ele>
	<time>2024-03-25T11:29:59.000Z</time>
</trkpt>
<trkpt lat="45.8370630" lon="9.3020490">
	<ele>1252.60</ele>
	<time>2024-03-25T11:30:00.000Z</time>
</trkpt>
<trkpt lat="45.8370630" lon="9.3020500">
	<ele>1252.40</ele>
	<time>2024-03-25T11:30:01.000Z</time>
</trkpt>
<trkpt lat="45.8370630" lon="9.3020510">
	<ele>1252.40</ele>
	<time>2024-03-25T11:30:02.000Z</time>
</trkpt>
<trkpt lat="45.8370630" lon="9.3020520">
	<ele>1252.20</ele>
	<time>2024-03-25T11:30:03.000Z</time>
</trkpt>
<trkpt lat="45.8370630" lon="9.3020530">
	<ele>1252.00</ele>
	<time>2024-03-25T11:30:04.000Z</time>
</trkpt>
<trkpt lat="45.8370630" lon="9.3020540">
	<ele>1252.00</ele>
	<time>2024-03-25T11:30:05.000Z</time>
</trkpt>
<trkpt lat="45.8370620" lon="9.3020550">
	<ele>1251.80</ele>
	<time>2024-03-25T11:30:06.000Z</time>
</trkpt>
<trkpt lat="45.8370620" lon="9.3020550">
	<ele>1251.80</ele>
	<time>2024-03-25T11:30:07.000Z</time>
</trkpt>
<trkpt lat="45.8370620" lon="9.3020560">
	<ele>1251.80</ele>
	<time>2024-03-25T11:30:08.000Z</time>
</trkpt>
<trkpt lat="45.8370630" lon="9.3020560">
	<ele>1251.80</ele>
	<time>2024-03-25T11:30:09.000Z</time>
</trkpt>
<trkpt lat="45.8370630" lon="9.3020580">
	<ele>1251.80</ele>
	<time>2024-03-25T11:30:10.000Z</time>
</trkpt>
<trkpt lat="45.8370630" lon="9.3020580">
	<ele>1251.80</ele>
	<time>2024-03-25T11:30:11.000Z</time>
</trkpt>
<trkpt lat="45.8370630" lon="9.3020590">
	<ele>1251.80</ele>
	<time>2024-03-25T11:30:12.000Z</time>
</trkpt>
<trkpt lat="45.8370630" lon="9.3020590">
	<ele>1251.80</ele>
	<time>2024-03-25T11:30:13.000Z</time>
</trkpt>
<trkpt lat="45.8370630" lon="9.3020600">
	<ele>1251.60</ele>
	<time>2024-03-25T11:30:14.000Z</time>
</trkpt>
<trkpt lat="45.8370630" lon="9.3020600">
	<ele>1251.60</ele>
	<time>2024-03-25T11:30:15.000Z</time>
</trkpt>
<trkpt lat="45.8370630" lon="9.3020610">
	<ele>1251.60</ele>
	<time>2024-03-25T11:30:16.000Z</time>
</trkpt>
<trkpt lat="45.8370630" lon="9.3020610">
	<ele>1251.60</ele>
	<time>2024-03-25T11:30:17.000Z</time>
</trkpt>
<trkpt lat="45.8370630" lon="9.3020620">
	<ele>1251.60</ele>
	<time>2024-03-25T11:30:18.000Z</time>
</trkpt>
<trkpt lat="45.8370630" lon="9.3020620">
	<ele>1251.60</ele>
	<time>2024-03-25T11:30:19.000Z</time>
</trkpt>
<trkpt lat="45.8370630" lon="9.3020630">
	<ele>1251.60</ele>
	<time>2024-03-25T11:30:20.000Z</time>
</trkpt>
<trkpt lat="45.8370630" lon="9.3020640">
	<ele>1251.60</ele>
	<time>2024-03-25T11:30:21.000Z</time>
</trkpt>
<trkpt lat="45.8370640" lon="9.3020640">
	<ele>1251.60</ele>
	<time>2024-03-25T11:30:22.000Z</time>
</trkpt>
<trkpt lat="45.8370640" lon="9.3020650">
	<ele>1251.40</ele>
	<time>2024-03-25T11:30:23.000Z</time>
</trkpt>
<trkpt lat="45.8370650" lon="9.3020650">
	<ele>1251.40</ele>
	<time>2024-03-25T11:30:24.000Z</time>
</trkpt>
<trkpt lat="45.8370650" lon="9.3020660">
	<ele>1251.40</ele>
	<time>2024-03-25T11:30:25.000Z</time>
</trkpt>
<trkpt lat="45.8370650" lon="9.3020670">
	<ele>1251.40</ele>
	<time>2024-03-25T11:30:26.000Z</time>
</trkpt>
<trkpt lat="45.8370660" lon="9.3020680">
	<ele>1251.40</ele>
	<time>2024-03-25T11:30:27.000Z</time>
</trkpt>
<trkpt lat="45.8370680" lon="9.3020700">
	<ele>1251.40</ele>
	<time>2024-03-25T11:30:28.000Z</time>
</trkpt>
<trkpt lat="45.8370690" lon="9.3020720">
	<ele>1251.40</ele>
	<time>2024-03-25T11:30:29.000Z</time>
</trkpt>
<trkpt lat="45.8370700" lon="9.3020730">
	<ele>1251.40</ele>
	<time>2024-03-25T11:30:30.000Z</time>
</trkpt>
<trkpt lat="45.8370710" lon="9.3020740">
	<ele>1251.40</ele>
	<time>2024-03-25T11:30:31.000Z</time>
</trkpt>
<trkpt lat="45.8370720" lon="9.3020750">
	<ele>1251.40</ele>
	<time>2024-03-25T11:30:32.000Z</time>
</trkpt>
<trkpt lat="45.8370740" lon="9.3020770">
	<ele>1251.40</ele>
	<time>2024-03-25T11:30:33.000Z</time>
</trkpt>
<trkpt lat="45.8370750" lon="9.3020790">
	<ele>1251.40</ele>
	<time>2024-03-25T11:30:34.000Z</time>
</trkpt>
<trkpt lat="45.8370760" lon="9.3020800">
	<ele>1251.40</ele>
	<time>2024-03-25T11:30:35.000Z</time>
</trkpt>
<trkpt lat="45.8370770" lon="9.3020810">
	<ele>1251.40</ele>
	<time>2024-03-25T11:30:36.000Z</time>
</trkpt>
<trkpt lat="45.8370780" lon="9.3020810">
	<ele>1251.40</ele>
	<time>2024-03-25T11:30:37.000Z</time>
</trkpt>
<trkpt lat="45.8370790" lon="9.3020820">
	<ele>1251.40</ele>
	<time>2024-03-25T11:30:38.000Z</time>
</trkpt>
<trkpt lat="45.8370790" lon="9.3020830">
	<ele>1251.40</ele>
	<time>2024-03-25T11:30:39.000Z</time>
</trkpt>
<trkpt lat="45.8370790" lon="9.3020830">
	<ele>1251.40</ele>
	<time>2024-03-25T11:30:40.000Z</time>
</trkpt>
<trkpt lat="45.8370790" lon="9.3020840">
	<ele>1251.40</ele>
	<time>2024-03-25T11:30:41.000Z</time>
</trkpt>
<trkpt lat="45.8370800" lon="9.3020840">
	<ele>1251.20</ele>
	<time>2024-03-25T11:30:42.000Z</time>
</trkpt>
<trkpt lat="45.8370800" lon="9.3020850">
	<ele>1251.20</ele>
	<time>2024-03-25T11:30:43.000Z</time>
</trkpt>
<trkpt lat="45.8370800" lon="9.3020850">
	<ele>1251.20</ele>
	<time>2024-03-25T11:30:44.000Z</time>
</trkpt>
<trkpt lat="45.8370800" lon="9.3020850">
	<ele>1251.20</ele>
	<time>2024-03-25T11:30:45.000Z</time>
</trkpt>
<trkpt lat="45.8370800" lon="9.3020850">
	<ele>1251.20</ele>
	<time>2024-03-25T11:30:46.000Z</time>
</trkpt>
<trkpt lat="45.8370800" lon="9.3020850">
	<ele>1251.20</ele>
	<time>2024-03-25T11:30:47.000Z</time>
</trkpt>
<trkpt lat="45.8370800" lon="9.3020850">
	<ele>1251.20</ele>
	<time>2024-03-25T11:30:48.000Z</time>
</trkpt>
<trkpt lat="45.8370800" lon="9.3020850">
	<ele>1251.40</ele>
	<time>2024-03-25T11:30:49.000Z</time>
</trkpt>
<trkpt lat="45.8370800" lon="9.3020850">
	<ele>1251.40</ele>
	<time>2024-03-25T11:30:50.000Z</time>
</trkpt>
<trkpt lat="45.8370800" lon="9.3020850">
	<ele>1251.20</ele>
	<time>2024-03-25T11:30:51.000Z</time>
</trkpt>
<trkpt lat="45.8370800" lon="9.3020850">
	<ele>1251.40</ele>
	<time>2024-03-25T11:30:52.000Z</time>
</trkpt>
<trkpt lat="45.8370800" lon="9.3020850">
	<ele>1251.40</ele>
	<time>2024-03-25T11:30:53.000Z</time>
</trkpt>
<trkpt lat="45.8370800" lon="9.3020840">
	<ele>1251.40</ele>
	<time>2024-03-25T11:30:54.000Z</time>
</trkpt>
<trkpt lat="45.8370800" lon="9.3020840">
	<ele>1251.40</ele>
	<time>2024-03-25T11:30:55.000Z</time>
</trkpt>
<trkpt lat="45.8370800" lon="9.3020840">
	<ele>1251.20</ele>
	<time>2024-03-25T11:30:56.000Z</time>
</trkpt>
<trkpt lat="45.8370800" lon="9.3020830">
	<ele>1251.20</ele>
	<time>2024-03-25T11:30:57.000Z</time>
</trkpt>
<trkpt lat="45.8370800" lon="9.3020830">
	<ele>1251.20</ele>
	<time>2024-03-25T11:30:58.000Z</time>
</trkpt>
<trkpt lat="45.8370800" lon="9.3020830">
	<ele>1251.20</ele>
	<time>2024-03-25T11:30:59.000Z</time>
</trkpt>
<trkpt lat="45.8370800" lon="9.3020820">
	<ele>1251.20</ele>
	<time>2024-03-25T11:31:00.000Z</time>
</trkpt>
<trkpt lat="45.8370800" lon="9.3020820">
	<ele>1251.20</ele>
	<time>2024-03-25T11:31:01.000Z</time>
</trkpt>
<trkpt lat="45.8370800" lon="9.3020820">
	<ele>1251.20</ele>
	<time>2024-03-25T11:31:02.000Z</time>
</trkpt>
<trkpt lat="45.8370800" lon="9.3020820">
	<ele>1251.20</ele>
	<time>2024-03-25T11:31:03.000Z</time>
</trkpt>
<trkpt lat="45.8370800" lon="9.3020820">
	<ele>1251.20</ele>
	<time>2024-03-25T11:31:04.000Z</time>
</trkpt>
<trkpt lat="45.8370810" lon="9.3020810">
	<ele>1251.20</ele>
	<time>2024-03-25T11:31:05.000Z</time>
</trkpt>
<trkpt lat="45.8370810" lon="9.3020810">
	<ele>1251.20</ele>
	<time>2024-03-25T11:31:06.000Z</time>
</trkpt>
<trkpt lat="45.8370810" lon="9.3020810">
	<ele>1251.20</ele>
	<time>2024-03-25T11:31:07.000Z</time>
</trkpt>
<trkpt lat="45.8370810" lon="9.3020800">
	<ele>1251.20</ele>
	<time>2024-03-25T11:31:08.000Z</time>
</trkpt>
<trkpt lat="45.8370810" lon="9.3020800">
	<ele>1251.20</ele>
	<time>2024-03-25T11:31:09.000Z</time>
</trkpt>
<trkpt lat="45.8370810" lon="9.3020800">
	<ele>1251.20</ele>
	<time>2024-03-25T11:31:10.000Z</time>
</trkpt>
<trkpt lat="45.8370820" lon="9.3020800">
	<ele>1251.20</ele>
	<time>2024-03-25T11:31:11.000Z</time>
</trkpt>
<trkpt lat="45.8370820" lon="9.3020790">
	<ele>1251.20</ele>
	<time>2024-03-25T11:31:12.000Z</time>
</trkpt>
<trkpt lat="45.8370820" lon="9.3020790">
	<ele>1251.40</ele>
	<time>2024-03-25T11:31:13.000Z</time>
</trkpt>
<trkpt lat="45.8370820" lon="9.3020770">
	<ele>1251.40</ele>
	<time>2024-03-25T11:31:14.000Z</time>
</trkpt>
<trkpt lat="45.8370820" lon="9.3020760">
	<ele>1252.00</ele>
	<time>2024-03-25T11:31:15.000Z</time>
</trkpt>
<trkpt lat="45.8370830" lon="9.3020750">
	<ele>1252.00</ele>
	<time>2024-03-25T11:31:16.000Z</time>
</trkpt>
<trkpt lat="45.8370830" lon="9.3020750">
	<ele>1252.00</ele>
	<time>2024-03-25T11:31:17.000Z</time>
</trkpt>
<trkpt lat="45.8370830" lon="9.3020740">
	<ele>1252.00</ele>
	<time>2024-03-25T11:31:18.000Z</time>
</trkpt>
<trkpt lat="45.8370830" lon="9.3020730">
	<ele>1252.00</ele>
	<time>2024-03-25T11:31:19.000Z</time>
</trkpt>
<trkpt lat="45.8370830" lon="9.3020730">
	<ele>1252.00</ele>
	<time>2024-03-25T11:31:20.000Z</time>
</trkpt>
<trkpt lat="45.8370830" lon="9.3020730">
	<ele>1252.00</ele>
	<time>2024-03-25T11:31:21.000Z</time>
</trkpt>
<trkpt lat="45.8370830" lon="9.3020720">
	<ele>1252.00</ele>
	<time>2024-03-25T11:31:22.000Z</time>
</trkpt>
<trkpt lat="45.8370830" lon="9.3020720">
	<ele>1252.00</ele>
	<time>2024-03-25T11:31:23.000Z</time>
</trkpt>
<trkpt lat="45.8370830" lon="9.3020720">
	<ele>1252.00</ele>
	<time>2024-03-25T11:31:24.000Z</time>
</trkpt>
<trkpt lat="45.8370830" lon="9.3020710">
	<ele>1252.00</ele>
	<time>2024-03-25T11:31:25.000Z</time>
</trkpt>
<trkpt lat="45.8370830" lon="9.3020710">
	<ele>1252.00</ele>
	<time>2024-03-25T11:31:26.000Z</time>
</trkpt>
<trkpt lat="45.8370830" lon="9.3020710">
	<ele>1252.00</ele>
	<time>2024-03-25T11:31:27.000Z</time>
</trkpt>
<trkpt lat="45.8370840" lon="9.3020710">
	<ele>1252.00</ele>
	<time>2024-03-25T11:31:28.000Z</time>
</trkpt>
<trkpt lat="45.8370840" lon="9.3020710">
	<ele>1252.00</ele>
	<time>2024-03-25T11:31:29.000Z</time>
</trkpt>
<trkpt lat="45.8370840" lon="9.3020710">
	<ele>1252.00</ele>
	<time>2024-03-25T11:31:30.000Z</time>
</trkpt>
<trkpt lat="45.8370840" lon="9.3020710">
	<ele>1252.00</ele>
	<time>2024-03-25T11:31:31.000Z</time>
</trkpt>
<trkpt lat="45.8370840" lon="9.3020710">
	<ele>1252.00</ele>
	<time>2024-03-25T11:31:32.000Z</time>
</trkpt>
<trkpt lat="45.8370840" lon="9.3020710">
	<ele>1252.00</ele>
	<time>2024-03-25T11:31:33.000Z</time>
</trkpt>
<trkpt lat="45.8370830" lon="9.3020710">
	<ele>1252.00</ele>
	<time>2024-03-25T11:31:34.000Z</time>
</trkpt>
<trkpt lat="45.8370830" lon="9.3020710">
	<ele>1252.00</ele>
	<time>2024-03-25T11:31:35.000Z</time>
</trkpt>
<trkpt lat="45.8370830" lon="9.3020710">
	<ele>1252.00</ele>
	<time>2024-03-25T11:31:36.000Z</time>
</trkpt>
<trkpt lat="45.8370830" lon="9.3020700">
	<ele>1252.00</ele>
	<time>2024-03-25T11:31:37.000Z</time>
</trkpt>
<trkpt lat="45.8370830" lon="9.3020700">
	<ele>1252.00</ele>
	<time>2024-03-25T11:31:38.000Z</time>
</trkpt>
<trkpt lat="45.8370830" lon="9.3020700">
	<ele>1252.00</ele>
	<time>2024-03-25T11:31:39.000Z</time>
</trkpt>
<trkpt lat="45.8370830" lon="9.3020700">
	<ele>1252.00</ele>
	<time>2024-03-25T11:31:40.000Z</time>
</trkpt>
<trkpt lat="45.8370830" lon="9.3020700">
	<ele>1252.00</ele>
	<time>2024-03-25T11:31:41.000Z</time>
</trkpt>
<trkpt lat="45.8370830" lon="9.3020700">
	<ele>1252.00</ele>
	<time>2024-03-25T11:31:42.000Z</time>
</trkpt>
<trkpt lat="45.8370830" lon="9.3020700">
	<ele>1252.00</ele>
	<time>2024-03-25T11:31:43.000Z</time>
</trkpt>
<trkpt lat="45.8370830" lon="9.3020700">
	<ele>1252.00</ele>
	<time>2024-03-25T11:31:44.000Z</time>
</trkpt>
<trkpt lat="45.8370830" lon="9.3020700">
	<ele>1252.00</ele>
	<time>2024-03-25T11:31:45.000Z</time>
</trkpt>
<trkpt lat="45.8370830" lon="9.3020700">
	<ele>1252.00</ele>
	<time>2024-03-25T11:31:46.000Z</time>
</trkpt>
<trkpt lat="45.8370830" lon="9.3020700">
	<ele>1252.00</ele>
	<time>2024-03-25T11:31:47.000Z</time>
</trkpt>
<trkpt lat="45.8370830" lon="9.3020700">
	<ele>1252.00</ele>
	<time>2024-03-25T11:31:48.000Z</time>
</trkpt>
<trkpt lat="45.8370830" lon="9.3020700">
	<ele>1252.00</ele>
	<time>2024-03-25T11:31:49.000Z</time>
</trkpt>
<trkpt lat="45.8370830" lon="9.3020700">
	<ele>1252.00</ele>
	<time>2024-03-25T11:31:50.000Z</time>
</trkpt>
<trkpt lat="45.8370830" lon="9.3020700">
	<ele>1252.00</ele>
	<time>2024-03-25T11:31:51.000Z</time>
</trkpt>
<trkpt lat="45.8370830" lon="9.3020700">
	<ele>1252.00</ele>
	<time>2024-03-25T11:31:52.000Z</time>
</trkpt>
<trkpt lat="45.8370840" lon="9.3020710">
	<ele>1252.00</ele>
	<time>2024-03-25T11:31:53.000Z</time>
</trkpt>
<trkpt lat="45.8370840" lon="9.3020710">
	<ele>1252.00</ele>
	<time>2024-03-25T11:31:54.000Z</time>
</trkpt>
<trkpt lat="45.8370840" lon="9.3020710">
	<ele>1252.00</ele>
	<time>2024-03-25T11:31:55.000Z</time>
</trkpt>
<trkpt lat="45.8370840" lon="9.3020710">
	<ele>1252.00</ele>
	<time>2024-03-25T11:31:56.000Z</time>
</trkpt>
<trkpt lat="45.8370830" lon="9.3020710">
	<ele>1252.00</ele>
	<time>2024-03-25T11:31:57.000Z</time>
</trkpt>
<trkpt lat="45.8370830" lon="9.3020710">
	<ele>1252.00</ele>
	<time>2024-03-25T11:31:58.000Z</time>
</trkpt>
<trkpt lat="45.8370830" lon="9.3020710">
	<ele>1252.00</ele>
	<time>2024-03-25T11:31:59.000Z</time>
</trkpt>
<trkpt lat="45.8370840" lon="9.3020710">
	<ele>1252.00</ele>
	<time>2024-03-25T11:32:00.000Z</time>
</trkpt>
<trkpt lat="45.8370830" lon="9.3020710">
	<ele>1252.00</ele>
	<time>2024-03-25T11:32:01.000Z</time>
</trkpt>
<trkpt lat="45.8370830" lon="9.3020710">
	<ele>1252.00</ele>
	<time>2024-03-25T11:32:02.000Z</time>
</trkpt>
<trkpt lat="45.8370830" lon="9.3020710">
	<ele>1252.00</ele>
	<time>2024-03-25T11:32:03.000Z</time>
</trkpt>
<trkpt lat="45.8370830" lon="9.3020710">
	<ele>1252.00</ele>
	<time>2024-03-25T11:32:04.000Z</time>
</trkpt>
<trkpt lat="45.8370830" lon="9.3020700">
	<ele>1252.00</ele>
	<time>2024-03-25T11:32:05.000Z</time>
</trkpt>
<trkpt lat="45.8370830" lon="9.3020700">
	<ele>1252.00</ele>
	<time>2024-03-25T11:32:06.000Z</time>
</trkpt>
<trkpt lat="45.8370830" lon="9.3020700">
	<ele>1252.00</ele>
	<time>2024-03-25T11:32:07.000Z</time>
</trkpt>
<trkpt lat="45.8370830" lon="9.3020700">
	<ele>1252.00</ele>
	<time>2024-03-25T11:32:08.000Z</time>
</trkpt>
<trkpt lat="45.8370830" lon="9.3020700">
	<ele>1252.00</ele>
	<time>2024-03-25T11:32:09.000Z</time>
</trkpt>
<trkpt lat="45.8370830" lon="9.3020700">
	<ele>1252.00</ele>
	<time>2024-03-25T11:32:10.000Z</time>
</trkpt>
<trkpt lat="45.8370830" lon="9.3020700">
	<ele>1252.00</ele>
	<time>2024-03-25T11:32:11.000Z</time>
</trkpt>
<trkpt lat="45.8370830" lon="9.3020700">
	<ele>1252.00</ele>
	<time>2024-03-25T11:32:12.000Z</time>
</trkpt>
<trkpt lat="45.8370830" lon="9.3020700">
	<ele>1252.00</ele>
	<time>2024-03-25T11:32:13.000Z</time>
</trkpt>
<trkpt lat="45.8370830" lon="9.3020700">
	<ele>1252.00</ele>
	<time>2024-03-25T11:32:14.000Z</time>
</trkpt>
<trkpt lat="45.8370830" lon="9.3020690">
	<ele>1252.00</ele>
	<time>2024-03-25T11:32:15.000Z</time>
</trkpt>
<trkpt lat="45.8370830" lon="9.3020690">
	<ele>1252.00</ele>
	<time>2024-03-25T11:32:16.000Z</time>
</trkpt>
<trkpt lat="45.8370830" lon="9.3020690">
	<ele>1252.00</ele>
	<time>2024-03-25T11:32:17.000Z</time>
</trkpt>
<trkpt lat="45.8370830" lon="9.3020690">
	<ele>1252.00</ele>
	<time>2024-03-25T11:32:18.000Z</time>
</trkpt>
<trkpt lat="45.8370830" lon="9.3020690">
	<ele>1252.00</ele>
	<time>2024-03-25T11:32:19.000Z</time>
</trkpt>
<trkpt lat="45.8370830" lon="9.3020690">
	<ele>1252.00</ele>
	<time>2024-03-25T11:32:20.000Z</time>
</trkpt>
<trkpt lat="45.8370830" lon="9.3020690">
	<ele>1252.00</ele>
	<time>2024-03-25T11:32:21.000Z</time>
</trkpt>
<trkpt lat="45.8370830" lon="9.3020690">
	<ele>1252.00</ele>
	<time>2024-03-25T11:32:22.000Z</time>
</trkpt>
<trkpt lat="45.8370830" lon="9.3020690">
	<ele>1252.00</ele>
	<time>2024-03-25T11:32:23.000Z</time>
</trkpt>
<trkpt lat="45.8370830" lon="9.3020690">
	<ele>1252.00</ele>
	<time>2024-03-25T11:32:24.000Z</time>
</trkpt>
<trkpt lat="45.8370830" lon="9.3020690">
	<ele>1252.00</ele>
	<time>2024-03-25T11:32:25.000Z</time>
</trkpt>
<trkpt lat="45.8370830" lon="9.3020690">
	<ele>1252.00</ele>
	<time>2024-03-25T11:32:26.000Z</time>
</trkpt>
<trkpt lat="45.8370830" lon="9.3020690">
	<ele>1252.00</ele>
	<time>2024-03-25T11:32:27.000Z</time>
</trkpt>
<trkpt lat="45.8370820" lon="9.3020690">
	<ele>1252.00</ele>
	<time>2024-03-25T11:32:28.000Z</time>
</trkpt>
<trkpt lat="45.8370820" lon="9.3020690">
	<ele>1252.00</ele>
	<time>2024-03-25T11:32:29.000Z</time>
</trkpt>
<trkpt lat="45.8370820" lon="9.3020690">
	<ele>1252.00</ele>
	<time>2024-03-25T11:32:30.000Z</time>
</trkpt>
<trkpt lat="45.8370820" lon="9.3020690">
	<ele>1252.00</ele>
	<time>2024-03-25T11:32:31.000Z</time>
</trkpt>
<trkpt lat="45.8370820" lon="9.3020690">
	<ele>1252.00</ele>
	<time>2024-03-25T11:32:32.000Z</time>
</trkpt>
<trkpt lat="45.8370820" lon="9.3020690">
	<ele>1252.00</ele>
	<time>2024-03-25T11:32:33.000Z</time>
</trkpt>
<trkpt lat="45.8370820" lon="9.3020690">
	<ele>1252.00</ele>
	<time>2024-03-25T11:32:34.000Z</time>
</trkpt>
<trkpt lat="45.8370820" lon="9.3020690">
	<ele>1252.00</ele>
	<time>2024-03-25T11:32:35.000Z</time>
</trkpt>
<trkpt lat="45.8370820" lon="9.3020690">
	<ele>1252.00</ele>
	<time>2024-03-25T11:32:36.000Z</time>
</trkpt>
<trkpt lat="45.8370820" lon="9.3020690">
	<ele>1252.00</ele>
	<time>2024-03-25T11:32:37.000Z</time>
</trkpt>
<trkpt lat="45.8370820" lon="9.3020690">
	<ele>1252.00</ele>
	<time>2024-03-25T11:32:38.000Z</time>
</trkpt>
<trkpt lat="45.8370820" lon="9.3020690">
	<ele>1252.00</ele>
	<time>2024-03-25T11:32:39.000Z</time>
</trkpt>
<trkpt lat="45.8370820" lon="9.3020700">
	<ele>1252.00</ele>
	<time>2024-03-25T11:32:40.000Z</time>
</trkpt>
<trkpt lat="45.8370830" lon="9.3020700">
	<ele>1252.00</ele>
	<time>2024-03-25T11:32:41.000Z</time>
</trkpt>
<trkpt lat="45.8370830" lon="9.3020690">
	<ele>1252.00</ele>
	<time>2024-03-25T11:32:42.000Z</time>
</trkpt>
<trkpt lat="45.8370830" lon="9.3020690">
	<ele>1252.00</ele>
	<time>2024-03-25T11:32:43.000Z</time>
</trkpt>
<trkpt lat="45.8370820" lon="9.3020690">
	<ele>1252.00</ele>
	<time>2024-03-25T11:32:44.000Z</time>
</trkpt>
<trkpt lat="45.8370820" lon="9.3020690">
	<ele>1252.00</ele>
	<time>2024-03-25T11:32:45.000Z</time>
</trkpt>
<trkpt lat="45.8370820" lon="9.3020690">
	<ele>1252.00</ele>
	<time>2024-03-25T11:32:46.000Z</time>
</trkpt>
<trkpt lat="45.8370820" lon="9.3020690">
	<ele>1252.00</ele>
	<time>2024-03-25T11:32:47.000Z</time>
</trkpt>
<trkpt lat="45.8370820" lon="9.3020690">
	<ele>1252.00</ele>
	<time>2024-03-25T11:32:48.000Z</time>
</trkpt>
<trkpt lat="45.8370830" lon="9.3020690">
	<ele>1252.00</ele>
	<time>2024-03-25T11:32:49.000Z</time>
</trkpt>
<trkpt lat="45.8370820" lon="9.3020690">
	<ele>1252.00</ele>
	<time>2024-03-25T11:32:50.000Z</time>
</trkpt>
<trkpt lat="45.8370830" lon="9.3020690">
	<ele>1252.00</ele>
	<time>2024-03-25T11:32:51.000Z</time>
</trkpt>
<trkpt lat="45.8370830" lon="9.3020690">
	<ele>1252.00</ele>
	<time>2024-03-25T11:32:52.000Z</time>
</trkpt>
<trkpt lat="45.8370830" lon="9.3020690">
	<ele>1252.00</ele>
	<time>2024-03-25T11:32:53.000Z</time>
</trkpt>
<trkpt lat="45.8370820" lon="9.3020690">
	<ele>1252.00</ele>
	<time>2024-03-25T11:32:54.000Z</time>
</trkpt>
<trkpt lat="45.8370820" lon="9.3020690">
	<ele>1252.00</ele>
	<time>2024-03-25T11:32:55.000Z</time>
</trkpt>
<trkpt lat="45.8370820" lon="9.3020690">
	<ele>1252.00</ele>
	<time>2024-03-25T11:32:56.000Z</time>
</trkpt>
<trkpt lat="45.8370820" lon="9.3020690">
	<ele>1252.00</ele>
	<time>2024-03-25T11:32:57.000Z</time>
</trkpt>
<trkpt lat="45.8370820" lon="9.3020680">
	<ele>1252.00</ele>
	<time>2024-03-25T11:32:58.000Z</time>
</trkpt>
<trkpt lat="45.8370820" lon="9.3020690">
	<ele>1252.00</ele>
	<time>2024-03-25T11:32:59.000Z</time>
</trkpt>
<trkpt lat="45.8370820" lon="9.3020690">
	<ele>1252.00</ele>
	<time>2024-03-25T11:33:00.000Z</time>
</trkpt>
<trkpt lat="45.8370820" lon="9.3020690">
	<ele>1252.00</ele>
	<time>2024-03-25T11:33:01.000Z</time>
</trkpt>
<trkpt lat="45.8370820" lon="9.3020690">
	<ele>1252.00</ele>
	<time>2024-03-25T11:33:02.000Z</time>
</trkpt>
<trkpt lat="45.8370820" lon="9.3020680">
	<ele>1252.00</ele>
	<time>2024-03-25T11:33:03.000Z</time>
</trkpt>
<trkpt lat="45.8370820" lon="9.3020680">
	<ele>1252.00</ele>
	<time>2024-03-25T11:33:04.000Z</time>
</trkpt>
<trkpt lat="45.8370820" lon="9.3020680">
	<ele>1252.00</ele>
	<time>2024-03-25T11:33:05.000Z</time>
</trkpt>
<trkpt lat="45.8370820" lon="9.3020680">
	<ele>1252.00</ele>
	<time>2024-03-25T11:33:06.000Z</time>
</trkpt>
<trkpt lat="45.8370820" lon="9.3020680">
	<ele>1252.00</ele>
	<time>2024-03-25T11:33:07.000Z</time>
</trkpt>
<trkpt lat="45.8370820" lon="9.3020680">
	<ele>1252.00</ele>
	<time>2024-03-25T11:33:08.000Z</time>
</trkpt>
<trkpt lat="45.8370820" lon="9.3020680">
	<ele>1252.00</ele>
	<time>2024-03-25T11:33:09.000Z</time>
</trkpt>
<trkpt lat="45.8370820" lon="9.3020680">
	<ele>1252.00</ele>
	<time>2024-03-25T11:33:10.000Z</time>
</trkpt>
<trkpt lat="45.8370820" lon="9.3020680">
	<ele>1252.00</ele>
	<time>2024-03-25T11:33:11.000Z</time>
</trkpt>
<trkpt lat="45.8370820" lon="9.3020680">
	<ele>1252.00</ele>
	<time>2024-03-25T11:33:12.000Z</time>
</trkpt>
<trkpt lat="45.8370820" lon="9.3020680">
	<ele>1252.00</ele>
	<time>2024-03-25T11:33:13.000Z</time>
</trkpt>
<trkpt lat="45.8370820" lon="9.3020680">
	<ele>1252.00</ele>
	<time>2024-03-25T11:33:14.000Z</time>
</trkpt>
<trkpt lat="45.8370810" lon="9.3020680">
	<ele>1252.00</ele>
	<time>2024-03-25T11:33:15.000Z</time>
</trkpt>
<trkpt lat="45.8370810" lon="9.3020680">
	<ele>1252.00</ele>
	<time>2024-03-25T11:33:16.000Z</time>
</trkpt>
<trkpt lat="45.8370820" lon="9.3020680">
	<ele>1252.00</ele>
	<time>2024-03-25T11:33:17.000Z</time>
</trkpt>
<trkpt lat="45.8370820" lon="9.3020680">
	<ele>1252.00</ele>
	<time>2024-03-25T11:33:18.000Z</time>
</trkpt>
<trkpt lat="45.8370820" lon="9.3020680">
	<ele>1252.00</ele>
	<time>2024-03-25T11:33:19.000Z</time>
</trkpt>
<trkpt lat="45.8370820" lon="9.3020680">
	<ele>1252.00</ele>
	<time>2024-03-25T11:33:20.000Z</time>
</trkpt>
<trkpt lat="45.8370820" lon="9.3020680">
	<ele>1252.00</ele>
	<time>2024-03-25T11:33:21.000Z</time>
</trkpt>
<trkpt lat="45.8370820" lon="9.3020680">
	<ele>1252.00</ele>
	<time>2024-03-25T11:33:22.000Z</time>
</trkpt>
<trkpt lat="45.8370820" lon="9.3020680">
	<ele>1252.00</ele>
	<time>2024-03-25T11:33:23.000Z</time>
</trkpt>
<trkpt lat="45.8370820" lon="9.3020680">
	<ele>1252.00</ele>
	<time>2024-03-25T11:33:24.000Z</time>
</trkpt>
<trkpt lat="45.8370820" lon="9.3020680">
	<ele>1252.00</ele>
	<time>2024-03-25T11:33:25.000Z</time>
</trkpt>
<trkpt lat="45.8370820" lon="9.3020680">
	<ele>1252.00</ele>
	<time>2024-03-25T11:33:26.000Z</time>
</trkpt>
<trkpt lat="45.8370820" lon="9.3020680">
	<ele>1252.00</ele>
	<time>2024-03-25T11:33:27.000Z</time>
</trkpt>
<trkpt lat="45.8370820" lon="9.3020680">
	<ele>1252.00</ele>
	<time>2024-03-25T11:33:28.000Z</time>
</trkpt>
<trkpt lat="45.8370820" lon="9.3020670">
	<ele>1252.00</ele>
	<time>2024-03-25T11:33:29.000Z</time>
</trkpt>
<trkpt lat="45.8370820" lon="9.3020670">
	<ele>1252.00</ele>
	<time>2024-03-25T11:33:30.000Z</time>
</trkpt>
<trkpt lat="45.8370820" lon="9.3020670">
	<ele>1252.00</ele>
	<time>2024-03-25T11:33:31.000Z</time>
</trkpt>
<trkpt lat="45.8370820" lon="9.3020670">
	<ele>1252.00</ele>
	<time>2024-03-25T11:33:32.000Z</time>
</trkpt>
<trkpt lat="45.8370820" lon="9.3020670">
	<ele>1252.00</ele>
	<time>2024-03-25T11:33:33.000Z</time>
</trkpt>
<trkpt lat="45.8370820" lon="9.3020670">
	<ele>1252.00</ele>
	<time>2024-03-25T11:33:34.000Z</time>
</trkpt>
<trkpt lat="45.8370810" lon="9.3020670">
	<ele>1252.00</ele>
	<time>2024-03-25T11:33:35.000Z</time>
</trkpt>
<trkpt lat="45.8370810" lon="9.3020670">
	<ele>1252.00</ele>
	<time>2024-03-25T11:33:36.000Z</time>
</trkpt>
<trkpt lat="45.8370810" lon="9.3020670">
	<ele>1252.00</ele>
	<time>2024-03-25T11:33:37.000Z</time>
</trkpt>
<trkpt lat="45.8370820" lon="9.3020670">
	<ele>1252.00</ele>
	<time>2024-03-25T11:33:38.000Z</time>
</trkpt>
<trkpt lat="45.8370810" lon="9.3020660">
	<ele>1252.00</ele>
	<time>2024-03-25T11:33:39.000Z</time>
</trkpt>
<trkpt lat="45.8370810" lon="9.3020660">
	<ele>1252.00</ele>
	<time>2024-03-25T11:33:40.000Z</time>
</trkpt>
<trkpt lat="45.8370810" lon="9.3020660">
	<ele>1252.00</ele>
	<time>2024-03-25T11:33:41.000Z</time>
</trkpt>
<trkpt lat="45.8370810" lon="9.3020550">
	<ele>1252.00</ele>
	<time>2024-03-25T11:33:42.000Z</time>
</trkpt>
<trkpt lat="45.8370810" lon="9.3020410">
	<ele>1252.00</ele>
	<time>2024-03-25T11:33:43.000Z</time>
</trkpt>
<trkpt lat="45.8370800" lon="9.3020280">
	<ele>1252.00</ele>
	<time>2024-03-25T11:33:44.000Z</time>
</trkpt>
<trkpt lat="45.8370780" lon="9.3020160">
	<ele>1252.00</ele>
	<time>2024-03-25T11:33:45.000Z</time>
</trkpt>
<trkpt lat="45.8370760" lon="9.3020030">
	<ele>1252.00</ele>
	<time>2024-03-25T11:33:46.000Z</time>
</trkpt>
<trkpt lat="45.8370740" lon="9.3019910">
	<ele>1252.00</ele>
	<time>2024-03-25T11:33:47.000Z</time>
</trkpt>
<trkpt lat="45.8370710" lon="9.3019810">
	<ele>1252.00</ele>
	<time>2024-03-25T11:33:48.000Z</time>
</trkpt>
<trkpt lat="45.8370690" lon="9.3019690">
	<ele>1252.00</ele>
	<time>2024-03-25T11:33:49.000Z</time>
</trkpt>
<trkpt lat="45.8370660" lon="9.3019570">
	<ele>1252.00</ele>
	<time>2024-03-25T11:33:50.000Z</time>
</trkpt>
<trkpt lat="45.8370630" lon="9.3019450">
	<ele>1252.00</ele>
	<time>2024-03-25T11:33:51.000Z</time>
</trkpt>
<trkpt lat="45.8370620" lon="9.3019450">
	<ele>1252.00</ele>
	<time>2024-03-25T11:33:52.000Z</time>
</trkpt>
<trkpt lat="45.8370620" lon="9.3019460">
	<ele>1252.00</ele>
	<time>2024-03-25T11:33:53.000Z</time>
</trkpt>
<trkpt lat="45.8370620" lon="9.3019460">
	<ele>1252.00</ele>
	<time>2024-03-25T11:33:54.000Z</time>
</trkpt>
<trkpt lat="45.8370620" lon="9.3019460">
	<ele>1252.00</ele>
	<time>2024-03-25T11:33:55.000Z</time>
</trkpt>
<trkpt lat="45.8370620" lon="9.3019460">
	<ele>1252.00</ele>
	<time>2024-03-25T11:33:56.000Z</time>
</trkpt>
<trkpt lat="45.8370620" lon="9.3019460">
	<ele>1252.00</ele>
	<time>2024-03-25T11:33:57.000Z</time>
</trkpt>
<trkpt lat="45.8370620" lon="9.3019460">
	<ele>1252.00</ele>
	<time>2024-03-25T11:33:58.000Z</time>
</trkpt>
<trkpt lat="45.8370620" lon="9.3019460">
	<ele>1252.00</ele>
	<time>2024-03-25T11:33:59.000Z</time>
</trkpt>
<trkpt lat="45.8370620" lon="9.3019460">
	<ele>1252.00</ele>
	<time>2024-03-25T11:34:00.000Z</time>
</trkpt>
<trkpt lat="45.8370620" lon="9.3019460">
	<ele>1252.00</ele>
	<time>2024-03-25T11:34:01.000Z</time>
</trkpt>
<trkpt lat="45.8370620" lon="9.3019460">
	<ele>1252.00</ele>
	<time>2024-03-25T11:34:02.000Z</time>
</trkpt>
<trkpt lat="45.8370630" lon="9.3019460">
	<ele>1252.00</ele>
	<time>2024-03-25T11:34:03.000Z</time>
</trkpt>
<trkpt lat="45.8370630" lon="9.3019460">
	<ele>1252.00</ele>
	<time>2024-03-25T11:34:04.000Z</time>
</trkpt>
<trkpt lat="45.8370630" lon="9.3019460">
	<ele>1252.00</ele>
	<time>2024-03-25T11:34:05.000Z</time>
</trkpt>
<trkpt lat="45.8370630" lon="9.3019460">
	<ele>1252.00</ele>
	<time>2024-03-25T11:34:06.000Z</time>
</trkpt>
<trkpt lat="45.8370640" lon="9.3019460">
	<ele>1252.00</ele>
	<time>2024-03-25T11:34:07.000Z</time>
</trkpt>
<trkpt lat="45.8370640" lon="9.3019460">
	<ele>1252.00</ele>
	<time>2024-03-25T11:34:08.000Z</time>
</trkpt>
<trkpt lat="45.8370640" lon="9.3019460">
	<ele>1252.00</ele>
	<time>2024-03-25T11:34:09.000Z</time>
</trkpt>
<trkpt lat="45.8370640" lon="9.3019460">
	<ele>1252.00</ele>
	<time>2024-03-25T11:34:10.000Z</time>
</trkpt>
<trkpt lat="45.8370640" lon="9.3019460">
	<ele>1252.00</ele>
	<time>2024-03-25T11:34:11.000Z</time>
</trkpt>
<trkpt lat="45.8370640" lon="9.3019460">
	<ele>1252.00</ele>
	<time>2024-03-25T11:34:12.000Z</time>
</trkpt>
<trkpt lat="45.8370640" lon="9.3019460">
	<ele>1252.00</ele>
	<time>2024-03-25T11:34:13.000Z</time>
</trkpt>
<trkpt lat="45.8370640" lon="9.3019460">
	<ele>1252.00</ele>
	<time>2024-03-25T11:34:14.000Z</time>
</trkpt>
<trkpt lat="45.8370640" lon="9.3019460">
	<ele>1252.00</ele>
	<time>2024-03-25T11:34:15.000Z</time>
</trkpt>
<trkpt lat="45.8370640" lon="9.3019460">
	<ele>1252.00</ele>
	<time>2024-03-25T11:34:16.000Z</time>
</trkpt>
<trkpt lat="45.8370640" lon="9.3019460">
	<ele>1252.00</ele>
	<time>2024-03-25T11:34:17.000Z</time>
</trkpt>
<trkpt lat="45.8370640" lon="9.3019460">
	<ele>1252.00</ele>
	<time>2024-03-25T11:34:18.000Z</time>
</trkpt>
<trkpt lat="45.8370640" lon="9.3019460">
	<ele>1252.00</ele>
	<time>2024-03-25T11:34:19.000Z</time>
</trkpt>
<trkpt lat="45.8370640" lon="9.3019460">
	<ele>1252.00</ele>
	<time>2024-03-25T11:34:20.000Z</time>
</trkpt>
<trkpt lat="45.8370640" lon="9.3019480">
	<ele>1252.00</ele>
	<time>2024-03-25T11:34:21.000Z</time>
</trkpt>
<trkpt lat="45.8370640" lon="9.3019490">
	<ele>1252.00</ele>
	<time>2024-03-25T11:34:22.000Z</time>
</trkpt>
<trkpt lat="45.8370640" lon="9.3019500">
	<ele>1252.00</ele>
	<time>2024-03-25T11:34:23.000Z</time>
</trkpt>
<trkpt lat="45.8370650" lon="9.3019510">
	<ele>1252.00</ele>
	<time>2024-03-25T11:34:24.000Z</time>
</trkpt>
<trkpt lat="45.8370650" lon="9.3019540">
	<ele>1252.00</ele>
	<time>2024-03-25T11:34:25.000Z</time>
</trkpt>
<trkpt lat="45.8370660" lon="9.3019590">
	<ele>1252.00</ele>
	<time>2024-03-25T11:34:26.000Z</time>
</trkpt>
<trkpt lat="45.8370660" lon="9.3019650">
	<ele>1252.00</ele>
	<time>2024-03-25T11:34:27.000Z</time>
</trkpt>
<trkpt lat="45.8370660" lon="9.3019700">
	<ele>1252.00</ele>
	<time>2024-03-25T11:34:28.000Z</time>
</trkpt>
<trkpt lat="45.8370660" lon="9.3019760">
	<ele>1252.00</ele>
	<time>2024-03-25T11:34:29.000Z</time>
</trkpt>
<trkpt lat="45.8370660" lon="9.3019820">
	<ele>1252.00</ele>
	<time>2024-03-25T11:34:30.000Z</time>
</trkpt>
<trkpt lat="45.8370660" lon="9.3019880">
	<ele>1252.00</ele>
	<time>2024-03-25T11:34:31.000Z</time>
</trkpt>
<trkpt lat="45.8370660" lon="9.3019940">
	<ele>1252.00</ele>
	<time>2024-03-25T11:34:32.000Z</time>
</trkpt>
<trkpt lat="45.8370660" lon="9.3019990">
	<ele>1252.00</ele>
	<time>2024-03-25T11:34:33.000Z</time>
</trkpt>
<trkpt lat="45.8370660" lon="9.3020030">
	<ele>1252.00</ele>
	<time>2024-03-25T11:34:34.000Z</time>
</trkpt>
<trkpt lat="45.8370660" lon="9.3020080">
	<ele>1252.00</ele>
	<time>2024-03-25T11:34:35.000Z</time>
</trkpt>
<trkpt lat="45.8370660" lon="9.3020120">
	<ele>1252.00</ele>
	<time>2024-03-25T11:34:36.000Z</time>
</trkpt>
<trkpt lat="45.8370660" lon="9.3020140">
	<ele>1252.00</ele>
	<time>2024-03-25T11:34:37.000Z</time>
</trkpt>
<trkpt lat="45.8370660" lon="9.3020140">
	<ele>1252.00</ele>
	<time>2024-03-25T11:34:38.000Z</time>
</trkpt>
<trkpt lat="45.8370660" lon="9.3020150">
	<ele>1252.00</ele>
	<time>2024-03-25T11:34:39.000Z</time>
</trkpt>
<trkpt lat="45.8370660" lon="9.3020150">
	<ele>1252.00</ele>
	<time>2024-03-25T11:34:40.000Z</time>
</trkpt>
<trkpt lat="45.8370660" lon="9.3020150">
	<ele>1252.00</ele>
	<time>2024-03-25T11:34:41.000Z</time>
</trkpt>
<trkpt lat="45.8370660" lon="9.3020160">
	<ele>1252.00</ele>
	<time>2024-03-25T11:34:42.000Z</time>
</trkpt>
<trkpt lat="45.8370660" lon="9.3020160">
	<ele>1252.00</ele>
	<time>2024-03-25T11:34:43.000Z</time>
</trkpt>
<trkpt lat="45.8370660" lon="9.3020160">
	<ele>1252.00</ele>
	<time>2024-03-25T11:34:44.000Z</time>
</trkpt>
<trkpt lat="45.8370670" lon="9.3020160">
	<ele>1252.00</ele>
	<time>2024-03-25T11:34:45.000Z</time>
</trkpt>
<trkpt lat="45.8370670" lon="9.3020160">
	<ele>1252.00</ele>
	<time>2024-03-25T11:34:46.000Z</time>
</trkpt>
<trkpt lat="45.8370680" lon="9.3020160">
	<ele>1252.00</ele>
	<time>2024-03-25T11:34:47.000Z</time>
</trkpt>
<trkpt lat="45.8370680" lon="9.3020160">
	<ele>1252.00</ele>
	<time>2024-03-25T11:34:48.000Z</time>
</trkpt>
<trkpt lat="45.8370690" lon="9.3020160">
	<ele>1252.00</ele>
	<time>2024-03-25T11:34:49.000Z</time>
</trkpt>
<trkpt lat="45.8370690" lon="9.3020160">
	<ele>1252.00</ele>
	<time>2024-03-25T11:34:50.000Z</time>
</trkpt>
<trkpt lat="45.8370690" lon="9.3020160">
	<ele>1252.00</ele>
	<time>2024-03-25T11:34:51.000Z</time>
</trkpt>
<trkpt lat="45.8370690" lon="9.3020160">
	<ele>1252.00</ele>
	<time>2024-03-25T11:34:52.000Z</time>
</trkpt>
<trkpt lat="45.8370690" lon="9.3020160">
	<ele>1252.00</ele>
	<time>2024-03-25T11:34:53.000Z</time>
</trkpt>
<trkpt lat="45.8370690" lon="9.3020160">
	<ele>1252.00</ele>
	<time>2024-03-25T11:34:54.000Z</time>
</trkpt>
<trkpt lat="45.8370690" lon="9.3020160">
	<ele>1252.00</ele>
	<time>2024-03-25T11:34:55.000Z</time>
</trkpt>
<trkpt lat="45.8370690" lon="9.3020160">
	<ele>1252.00</ele>
	<time>2024-03-25T11:34:56.000Z</time>
</trkpt>
<trkpt lat="45.8370690" lon="9.3020160">
	<ele>1252.00</ele>
	<time>2024-03-25T11:34:57.000Z</time>
</trkpt>
<trkpt lat="45.8370720" lon="9.3020160">
	<ele>1252.00</ele>
	<time>2024-03-25T11:34:58.000Z</time>
</trkpt>
<trkpt lat="45.8370750" lon="9.3020160">
	<ele>1252.00</ele>
	<time>2024-03-25T11:34:59.000Z</time>
</trkpt>
<trkpt lat="45.8370770" lon="9.3020160">
	<ele>1252.00</ele>
	<time>2024-03-25T11:35:00.000Z</time>
</trkpt>
<trkpt lat="45.8370780" lon="9.3020160">
	<ele>1252.00</ele>
	<time>2024-03-25T11:35:01.000Z</time>
</trkpt>
<trkpt lat="45.8370800" lon="9.3020160">
	<ele>1252.00</ele>
	<time>2024-03-25T11:35:02.000Z</time>
</trkpt>
<trkpt lat="45.8370800" lon="9.3020160">
	<ele>1252.00</ele>
	<time>2024-03-25T11:35:03.000Z</time>
</trkpt>
<trkpt lat="45.8370820" lon="9.3020160">
	<ele>1252.00</ele>
	<time>2024-03-25T11:35:04.000Z</time>
</trkpt>
<trkpt lat="45.8370860" lon="9.3020260">
	<ele>1252.00</ele>
	<time>2024-03-25T11:35:05.000Z</time>
</trkpt>
<trkpt lat="45.8370980" lon="9.3020330">
	<ele>1252.00</ele>
	<time>2024-03-25T11:35:06.000Z</time>
</trkpt>
<trkpt lat="45.8371090" lon="9.3020430">
	<ele>1252.00</ele>
	<time>2024-03-25T11:35:07.000Z</time>
</trkpt>
<trkpt lat="45.8371230" lon="9.3020540">
	<ele>1252.00</ele>
	<time>2024-03-25T11:35:08.000Z</time>
</trkpt>
<trkpt lat="45.8371360" lon="9.3020640">
	<ele>1252.00</ele>
	<time>2024-03-25T11:35:09.000Z</time>
</trkpt>
<trkpt lat="45.8371480" lon="9.3020720">
	<ele>1252.00</ele>
	<time>2024-03-25T11:35:10.000Z</time>
</trkpt>
<trkpt lat="45.8371610" lon="9.3020800">
	<ele>1252.00</ele>
	<time>2024-03-25T11:35:11.000Z</time>
</trkpt>
<trkpt lat="45.8371710" lon="9.3020880">
	<ele>1252.00</ele>
	<time>2024-03-25T11:35:12.000Z</time>
</trkpt>
<trkpt lat="45.8371820" lon="9.3020960">
	<ele>1252.00</ele>
	<time>2024-03-25T11:35:13.000Z</time>
</trkpt>
<trkpt lat="45.8371920" lon="9.3021040">
	<ele>1251.00</ele>
	<time>2024-03-25T11:35:14.000Z</time>
</trkpt>
<trkpt lat="45.8371990" lon="9.3021060">
	<ele>1250.20</ele>
	<time>2024-03-25T11:35:15.000Z</time>
</trkpt>
<trkpt lat="45.8372050" lon="9.3021070">
	<ele>1250.00</ele>
	<time>2024-03-25T11:35:16.000Z</time>
</trkpt>
<trkpt lat="45.8372100" lon="9.3021110">
	<ele>1249.80</ele>
	<time>2024-03-25T11:35:17.000Z</time>
</trkpt>
<trkpt lat="45.8372140" lon="9.3021100">
	<ele>1249.60</ele>
	<time>2024-03-25T11:35:18.000Z</time>
</trkpt>
<trkpt lat="45.8372190" lon="9.3021160">
	<ele>1249.40</ele>
	<time>2024-03-25T11:35:19.000Z</time>
</trkpt>
<trkpt lat="45.8372240" lon="9.3021240">
	<ele>1249.40</ele>
	<time>2024-03-25T11:35:20.000Z</time>
</trkpt>
<trkpt lat="45.8372290" lon="9.3021340">
	<ele>1249.40</ele>
	<time>2024-03-25T11:35:21.000Z</time>
</trkpt>
<trkpt lat="45.8372330" lon="9.3021420">
	<ele>1249.20</ele>
	<time>2024-03-25T11:35:22.000Z</time>
</trkpt>
<trkpt lat="45.8372370" lon="9.3021460">
	<ele>1249.00</ele>
	<time>2024-03-25T11:35:23.000Z</time>
</trkpt>
<trkpt lat="45.8372450" lon="9.3021530">
	<ele>1248.60</ele>
	<time>2024-03-25T11:35:24.000Z</time>
</trkpt>
<trkpt lat="45.8372550" lon="9.3021540">
	<ele>1248.40</ele>
	<time>2024-03-25T11:35:25.000Z</time>
</trkpt>
<trkpt lat="45.8372630" lon="9.3021510">
	<ele>1248.00</ele>
	<time>2024-03-25T11:35:26.000Z</time>
</trkpt>
<trkpt lat="45.8372680" lon="9.3021490">
	<ele>1248.00</ele>
	<time>2024-03-25T11:35:27.000Z</time>
</trkpt>
<trkpt lat="45.8372720" lon="9.3021490">
	<ele>1247.80</ele>
	<time>2024-03-25T11:35:28.000Z</time>
</trkpt>
<trkpt lat="45.8372740" lon="9.3021500">
	<ele>1247.80</ele>
	<time>2024-03-25T11:35:29.000Z</time>
</trkpt>
<trkpt lat="45.8372770" lon="9.3021520">
	<ele>1247.80</ele>
	<time>2024-03-25T11:35:30.000Z</time>
</trkpt>
<trkpt lat="45.8372790" lon="9.3021530">
	<ele>1247.80</ele>
	<time>2024-03-25T11:35:31.000Z</time>
</trkpt>
<trkpt lat="45.8372800" lon="9.3021530">
	<ele>1248.00</ele>
	<time>2024-03-25T11:35:32.000Z</time>
</trkpt>
<trkpt lat="45.8372790" lon="9.3021570">
	<ele>1248.00</ele>
	<time>2024-03-25T11:35:33.000Z</time>
</trkpt>
<trkpt lat="45.8372820" lon="9.3021610">
	<ele>1247.80</ele>
	<time>2024-03-25T11:35:34.000Z</time>
</trkpt>
<trkpt lat="45.8372880" lon="9.3021670">
	<ele>1247.80</ele>
	<time>2024-03-25T11:35:35.000Z</time>
</trkpt>
<trkpt lat="45.8372960" lon="9.3021750">
	<ele>1247.20</ele>
	<time>2024-03-25T11:35:36.000Z</time>
</trkpt>
<trkpt lat="45.8373010" lon="9.3021790">
	<ele>1246.80</ele>
	<time>2024-03-25T11:35:37.000Z</time>
</trkpt>
<trkpt lat="45.8373070" lon="9.3021780">
	<ele>1246.40</ele>
	<time>2024-03-25T11:35:38.000Z</time>
</trkpt>
<trkpt lat="45.8373110" lon="9.3021810">
	<ele>1245.80</ele>
	<time>2024-03-25T11:35:39.000Z</time>
</trkpt>
<trkpt lat="45.8373170" lon="9.3021850">
	<ele>1245.60</ele>
	<time>2024-03-25T11:35:40.000Z</time>
</trkpt>
<trkpt lat="45.8373240" lon="9.3021900">
	<ele>1245.20</ele>
	<time>2024-03-25T11:35:41.000Z</time>
</trkpt>
<trkpt lat="45.8373300" lon="9.3021910">
	<ele>1245.20</ele>
	<time>2024-03-25T11:35:42.000Z</time>
</trkpt>
<trkpt lat="45.8373360" lon="9.3021890">
	<ele>1245.00</ele>
	<time>2024-03-25T11:35:43.000Z</time>
</trkpt>
<trkpt lat="45.8373440" lon="9.3021880">
	<ele>1244.80</ele>
	<time>2024-03-25T11:35:44.000Z</time>
</trkpt>
<trkpt lat="45.8373520" lon="9.3021860">
	<ele>1244.60</ele>
	<time>2024-03-25T11:35:45.000Z</time>
</trkpt>
<trkpt lat="45.8373600" lon="9.3021880">
	<ele>1244.40</ele>
	<time>2024-03-25T11:35:46.000Z</time>
</trkpt>
<trkpt lat="45.8373710" lon="9.3021920">
	<ele>1244.20</ele>
	<time>2024-03-25T11:35:47.000Z</time>
</trkpt>
<trkpt lat="45.8373810" lon="9.3021920">
	<ele>1244.00</ele>
	<time>2024-03-25T11:35:48.000Z</time>
</trkpt>
<trkpt lat="45.8373870" lon="9.3021920">
	<ele>1243.80</ele>
	<time>2024-03-25T11:35:49.000Z</time>
</trkpt>
<trkpt lat="45.8373920" lon="9.3021900">
	<ele>1243.60</ele>
	<time>2024-03-25T11:35:50.000Z</time>
</trkpt>
<trkpt lat="45.8373990" lon="9.3021920">
	<ele>1243.40</ele>
	<time>2024-03-25T11:35:51.000Z</time>
</trkpt>
<trkpt lat="45.8374060" lon="9.3021930">
	<ele>1243.20</ele>
	<time>2024-03-25T11:35:52.000Z</time>
</trkpt>
<trkpt lat="45.8374150" lon="9.3021970">
	<ele>1243.00</ele>
	<time>2024-03-25T11:35:53.000Z</time>
</trkpt>
<trkpt lat="45.8374210" lon="9.3021950">
	<ele>1243.00</ele>
	<time>2024-03-25T11:35:54.000Z</time>
</trkpt>
<trkpt lat="45.8374250" lon="9.3021950">
	<ele>1242.80</ele>
	<time>2024-03-25T11:35:55.000Z</time>
</trkpt>
<trkpt lat="45.8374310" lon="9.3021980">
	<ele>1242.60</ele>
	<time>2024-03-25T11:35:56.000Z</time>
</trkpt>
<trkpt lat="45.8374370" lon="9.3022010">
	<ele>1242.40</ele>
	<time>2024-03-25T11:35:57.000Z</time>
</trkpt>
<trkpt lat="45.8374430" lon="9.3022020">
	<ele>1242.20</ele>
	<time>2024-03-25T11:35:58.000Z</time>
</trkpt>
<trkpt lat="45.8374510" lon="9.3022060">
	<ele>1242.00</ele>
	<time>2024-03-25T11:35:59.000Z</time>
</trkpt>
<trkpt lat="45.8374570" lon="9.3022100">
	<ele>1241.80</ele>
	<time>2024-03-25T11:36:00.000Z</time>
</trkpt>
<trkpt lat="45.8374610" lon="9.3022100">
	<ele>1241.80</ele>
	<time>2024-03-25T11:36:01.000Z</time>
</trkpt>
<trkpt lat="45.8374670" lon="9.3022100">
	<ele>1241.60</ele>
	<time>2024-03-25T11:36:02.000Z</time>
</trkpt>
<trkpt lat="45.8374680" lon="9.3022110">
	<ele>1241.20</ele>
	<time>2024-03-25T11:36:03.000Z</time>
</trkpt>
<trkpt lat="45.8374690" lon="9.3022110">
	<ele>1241.20</ele>
	<time>2024-03-25T11:36:04.000Z</time>
</trkpt>
<trkpt lat="45.8374690" lon="9.3022090">
	<ele>1241.00</ele>
	<time>2024-03-25T11:36:05.000Z</time>
</trkpt>
<trkpt lat="45.8374710" lon="9.3022070">
	<ele>1241.00</ele>
	<time>2024-03-25T11:36:06.000Z</time>
</trkpt>
<trkpt lat="45.8374730" lon="9.3022040">
	<ele>1241.00</ele>
	<time>2024-03-25T11:36:07.000Z</time>
</trkpt>
<trkpt lat="45.8374740" lon="9.3022020">
	<ele>1241.00</ele>
	<time>2024-03-25T11:36:08.000Z</time>
</trkpt>
<trkpt lat="45.8374760" lon="9.3022020">
	<ele>1241.40</ele>
	<time>2024-03-25T11:36:09.000Z</time>
</trkpt>
<trkpt lat="45.8374770" lon="9.3022020">
	<ele>1241.60</ele>
	<time>2024-03-25T11:36:10.000Z</time>
</trkpt>
<trkpt lat="45.8374770" lon="9.3022010">
	<ele>1241.60</ele>
	<time>2024-03-25T11:36:11.000Z</time>
</trkpt>
<trkpt lat="45.8374770" lon="9.3022000">
	<ele>1241.80</ele>
	<time>2024-03-25T11:36:12.000Z</time>
</trkpt>
<trkpt lat="45.8374770" lon="9.3022000">
	<ele>1241.80</ele>
	<time>2024-03-25T11:36:13.000Z</time>
</trkpt>
<trkpt lat="45.8374770" lon="9.3022000">
	<ele>1241.80</ele>
	<time>2024-03-25T11:36:14.000Z</time>
</trkpt>
<trkpt lat="45.8374770" lon="9.3022000">
	<ele>1241.80</ele>
	<time>2024-03-25T11:36:15.000Z</time>
</trkpt>
<trkpt lat="45.8374770" lon="9.3022000">
	<ele>1241.60</ele>
	<time>2024-03-25T11:36:16.000Z</time>
</trkpt>
<trkpt lat="45.8374770" lon="9.3022000">
	<ele>1241.60</ele>
	<time>2024-03-25T11:36:17.000Z</time>
</trkpt>
<trkpt lat="45.8374770" lon="9.3022000">
	<ele>1241.60</ele>
	<time>2024-03-25T11:36:18.000Z</time>
</trkpt>
<trkpt lat="45.8374770" lon="9.3022000">
	<ele>1241.60</ele>
	<time>2024-03-25T11:36:19.000Z</time>
</trkpt>
<trkpt lat="45.8374770" lon="9.3022000">
	<ele>1241.60</ele>
	<time>2024-03-25T11:36:20.000Z</time>
</trkpt>
<trkpt lat="45.8374770" lon="9.3022000">
	<ele>1241.40</ele>
	<time>2024-03-25T11:36:21.000Z</time>
</trkpt>
<trkpt lat="45.8374770" lon="9.3022000">
	<ele>1241.40</ele>
	<time>2024-03-25T11:36:22.000Z</time>
</trkpt>
<trkpt lat="45.8374770" lon="9.3022000">
	<ele>1241.40</ele>
	<time>2024-03-25T11:36:23.000Z</time>
</trkpt>
<trkpt lat="45.8374800" lon="9.3022000">
	<ele>1241.40</ele>
	<time>2024-03-25T11:36:24.000Z</time>
</trkpt>
<trkpt lat="45.8374920" lon="9.3022040">
	<ele>1241.40</ele>
	<time>2024-03-25T11:36:25.000Z</time>
</trkpt>
<trkpt lat="45.8375040" lon="9.3022070">
	<ele>1241.20</ele>
	<time>2024-03-25T11:36:26.000Z</time>
</trkpt>
<trkpt lat="45.8375180" lon="9.3022100">
	<ele>1241.00</ele>
	<time>2024-03-25T11:36:27.000Z</time>
</trkpt>
<trkpt lat="45.8375330" lon="9.3022150">
	<ele>1240.80</ele>
	<time>2024-03-25T11:36:28.000Z</time>
</trkpt>
<trkpt lat="45.8375480" lon="9.3022180">
	<ele>1240.60</ele>
	<time>2024-03-25T11:36:29.000Z</time>
</trkpt>
<trkpt lat="45.8375610" lon="9.3022180">
	<ele>1240.40</ele>
	<time>2024-03-25T11:36:30.000Z</time>
</trkpt>
<trkpt lat="45.8375700" lon="9.3022180">
	<ele>1240.20</ele>
	<time>2024-03-25T11:36:31.000Z</time>
</trkpt>
<trkpt lat="45.8375760" lon="9.3022200">
	<ele>1239.80</ele>
	<time>2024-03-25T11:36:32.000Z</time>
</trkpt>
<trkpt lat="45.8375810" lon="9.3022230">
	<ele>1239.80</ele>
	<time>2024-03-25T11:36:33.000Z</time>
</trkpt>
<trkpt lat="45.8375820" lon="9.3022290">
	<ele>1239.60</ele>
	<time>2024-03-25T11:36:34.000Z</time>
</trkpt>
<trkpt lat="45.8375820" lon="9.3022450">
	<ele>1239.40</ele>
	<time>2024-03-25T11:36:35.000Z</time>
</trkpt>
<trkpt lat="45.8375850" lon="9.3022560">
	<ele>1239.20</ele>
	<time>2024-03-25T11:36:36.000Z</time>
</trkpt>
<trkpt lat="45.8375910" lon="9.3022660">
	<ele>1239.00</ele>
	<time>2024-03-25T11:36:37.000Z</time>
</trkpt>
<trkpt lat="45.8375990" lon="9.3022720">
	<ele>1238.40</ele>
	<time>2024-03-25T11:36:38.000Z</time>
</trkpt>
<trkpt lat="45.8376040" lon="9.3022740">
	<ele>1238.20</ele>
	<time>2024-03-25T11:36:39.000Z</time>
</trkpt>
<trkpt lat="45.8376100" lon="9.3022740">
	<ele>1238.00</ele>
	<time>2024-03-25T11:36:40.000Z</time>
</trkpt>
<trkpt lat="45.8376150" lon="9.3022750">
	<ele>1238.00</ele>
	<time>2024-03-25T11:36:41.000Z</time>
</trkpt>
<trkpt lat="45.8376180" lon="9.3022750">
	<ele>1237.80</ele>
	<time>2024-03-25T11:36:42.000Z</time>
</trkpt>
<trkpt lat="45.8376200" lon="9.3022740">
	<ele>1237.60</ele>
	<time>2024-03-25T11:36:43.000Z</time>
</trkpt>
<trkpt lat="45.8376220" lon="9.3022740">
	<ele>1237.60</ele>
	<time>2024-03-25T11:36:44.000Z</time>
</trkpt>
<trkpt lat="45.8376290" lon="9.3022740">
	<ele>1237.40</ele>
	<time>2024-03-25T11:36:45.000Z</time>
</trkpt>
<trkpt lat="45.8376330" lon="9.3022710">
	<ele>1237.40</ele>
	<time>2024-03-25T11:36:46.000Z</time>
</trkpt>
<trkpt lat="45.8376370" lon="9.3022650">
	<ele>1237.20</ele>
	<time>2024-03-25T11:36:47.000Z</time>
</trkpt>
<trkpt lat="45.8376390" lon="9.3022620">
	<ele>1237.00</ele>
	<time>2024-03-25T11:36:48.000Z</time>
</trkpt>
<trkpt lat="45.8376400" lon="9.3022600">
	<ele>1236.80</ele>
	<time>2024-03-25T11:36:49.000Z</time>
</trkpt>
<trkpt lat="45.8376410" lon="9.3022590">
	<ele>1236.60</ele>
	<time>2024-03-25T11:36:50.000Z</time>
</trkpt>
<trkpt lat="45.8376440" lon="9.3022570">
	<ele>1236.60</ele>
	<time>2024-03-25T11:36:51.000Z</time>
</trkpt>
<trkpt lat="45.8376480" lon="9.3022570">
	<ele>1236.60</ele>
	<time>2024-03-25T11:36:52.000Z</time>
</trkpt>
<trkpt lat="45.8376530" lon="9.3022590">
	<ele>1236.40</ele>
	<time>2024-03-25T11:36:53.000Z</time>
</trkpt>
<trkpt lat="45.8376560" lon="9.3022600">
	<ele>1236.40</ele>
	<time>2024-03-25T11:36:54.000Z</time>
</trkpt>
<trkpt lat="45.8376620" lon="9.3022580">
	<ele>1236.20</ele>
	<time>2024-03-25T11:36:55.000Z</time>
</trkpt>
<trkpt lat="45.8376660" lon="9.3022550">
	<ele>1235.80</ele>
	<time>2024-03-25T11:36:56.000Z</time>
</trkpt>
<trkpt lat="45.8376690" lon="9.3022540">
	<ele>1235.60</ele>
	<time>2024-03-25T11:36:57.000Z</time>
</trkpt>
<trkpt lat="45.8376700" lon="9.3022560">
	<ele>1235.40</ele>
	<time>2024-03-25T11:36:58.000Z</time>
</trkpt>
<trkpt lat="45.8376720" lon="9.3022640">
	<ele>1235.20</ele>
	<time>2024-03-25T11:36:59.000Z</time>
</trkpt>
<trkpt lat="45.8376760" lon="9.3022680">
	<ele>1235.00</ele>
	<time>2024-03-25T11:37:00.000Z</time>
</trkpt>
<trkpt lat="45.8376820" lon="9.3022760">
	<ele>1234.80</ele>
	<time>2024-03-25T11:37:01.000Z</time>
</trkpt>
<trkpt lat="45.8376890" lon="9.3022860">
	<ele>1234.80</ele>
	<time>2024-03-25T11:37:02.000Z</time>
</trkpt>
<trkpt lat="45.8376920" lon="9.3022910">
	<ele>1234.80</ele>
	<time>2024-03-25T11:37:03.000Z</time>
</trkpt>
<trkpt lat="45.8376920" lon="9.3022980">
	<ele>1234.60</ele>
	<time>2024-03-25T11:37:04.000Z</time>
</trkpt>
<trkpt lat="45.8376930" lon="9.3023060">
	<ele>1234.40</ele>
	<time>2024-03-25T11:37:05.000Z</time>
</trkpt>
<trkpt lat="45.8376900" lon="9.3023130">
	<ele>1234.40</ele>
	<time>2024-03-25T11:37:06.000Z</time>
</trkpt>
<trkpt lat="45.8376880" lon="9.3023190">
	<ele>1234.20</ele>
	<time>2024-03-25T11:37:07.000Z</time>
</trkpt>
<trkpt lat="45.8376860" lon="9.3023270">
	<ele>1234.00</ele>
	<time>2024-03-25T11:37:08.000Z</time>
</trkpt>
<trkpt lat="45.8376860" lon="9.3023360">
	<ele>1233.80</ele>
	<time>2024-03-25T11:37:09.000Z</time>
</trkpt>
<trkpt lat="45.8376870" lon="9.3023400">
	<ele>1233.40</ele>
	<time>2024-03-25T11:37:10.000Z</time>
</trkpt>
<trkpt lat="45.8376860" lon="9.3023410">
	<ele>1233.20</ele>
	<time>2024-03-25T11:37:11.000Z</time>
</trkpt>
<trkpt lat="45.8376870" lon="9.3023450">
	<ele>1233.00</ele>
	<time>2024-03-25T11:37:12.000Z</time>
</trkpt>
<trkpt lat="45.8376880" lon="9.3023500">
	<ele>1232.60</ele>
	<time>2024-03-25T11:37:13.000Z</time>
</trkpt>
<trkpt lat="45.8376890" lon="9.3023540">
	<ele>1232.40</ele>
	<time>2024-03-25T11:37:14.000Z</time>
</trkpt>
<trkpt lat="45.8376910" lon="9.3023570">
	<ele>1232.40</ele>
	<time>2024-03-25T11:37:15.000Z</time>
</trkpt>
<trkpt lat="45.8376910" lon="9.3023600">
	<ele>1232.20</ele>
	<time>2024-03-25T11:37:16.000Z</time>
</trkpt>
<trkpt lat="45.8376890" lon="9.3023600">
	<ele>1231.80</ele>
	<time>2024-03-25T11:37:17.000Z</time>
</trkpt>
<trkpt lat="45.8376890" lon="9.3023620">
	<ele>1231.60</ele>
	<time>2024-03-25T11:37:18.000Z</time>
</trkpt>
<trkpt lat="45.8376900" lon="9.3023660">
	<ele>1231.60</ele>
	<time>2024-03-25T11:37:19.000Z</time>
</trkpt>
<trkpt lat="45.8376940" lon="9.3023700">
	<ele>1231.40</ele>
	<time>2024-03-25T11:37:20.000Z</time>
</trkpt>
<trkpt lat="45.8376970" lon="9.3023740">
	<ele>1231.40</ele>
	<time>2024-03-25T11:37:21.000Z</time>
</trkpt>
<trkpt lat="45.8377020" lon="9.3023760">
	<ele>1231.00</ele>
	<time>2024-03-25T11:37:22.000Z</time>
</trkpt>
<trkpt lat="45.8377030" lon="9.3023770">
	<ele>1230.60</ele>
	<time>2024-03-25T11:37:23.000Z</time>
</trkpt>
<trkpt lat="45.8377050" lon="9.3023790">
	<ele>1230.40</ele>
	<time>2024-03-25T11:37:24.000Z</time>
</trkpt>
<trkpt lat="45.8377050" lon="9.3023840">
	<ele>1230.20</ele>
	<time>2024-03-25T11:37:25.000Z</time>
</trkpt>
<trkpt lat="45.8377030" lon="9.3023900">
	<ele>1230.00</ele>
	<time>2024-03-25T11:37:26.000Z</time>
</trkpt>
<trkpt lat="45.8377030" lon="9.3023980">
	<ele>1229.80</ele>
	<time>2024-03-25T11:37:27.000Z</time>
</trkpt>
<trkpt lat="45.8377010" lon="9.3024070">
	<ele>1229.80</ele>
	<time>2024-03-25T11:37:28.000Z</time>
</trkpt>
<trkpt lat="45.8377030" lon="9.3024160">
	<ele>1229.40</ele>
	<time>2024-03-25T11:37:29.000Z</time>
</trkpt>
<trkpt lat="45.8377090" lon="9.3024200">
	<ele>1229.20</ele>
	<time>2024-03-25T11:37:30.000Z</time>
</trkpt>
<trkpt lat="45.8377170" lon="9.3024210">
	<ele>1229.00</ele>
	<time>2024-03-25T11:37:31.000Z</time>
</trkpt>
<trkpt lat="45.8377240" lon="9.3024180">
	<ele>1229.00</ele>
	<time>2024-03-25T11:37:32.000Z</time>
</trkpt>
<trkpt lat="45.8377320" lon="9.3024170">
	<ele>1228.60</ele>
	<time>2024-03-25T11:37:33.000Z</time>
</trkpt>
<trkpt lat="45.8377400" lon="9.3024190">
	<ele>1228.40</ele>
	<time>2024-03-25T11:37:34.000Z</time>
</trkpt>
<trkpt lat="45.8377460" lon="9.3024210">
	<ele>1228.00</ele>
	<time>2024-03-25T11:37:35.000Z</time>
</trkpt>
<trkpt lat="45.8377530" lon="9.3024270">
	<ele>1227.80</ele>
	<time>2024-03-25T11:37:36.000Z</time>
</trkpt>
<trkpt lat="45.8377600" lon="9.3024270">
	<ele>1227.60</ele>
	<time>2024-03-25T11:37:37.000Z</time>
</trkpt>
<trkpt lat="45.8377670" lon="9.3024240">
	<ele>1227.20</ele>
	<time>2024-03-25T11:37:38.000Z</time>
</trkpt>
<trkpt lat="45.8377770" lon="9.3024220">
	<ele>1227.00</ele>
	<time>2024-03-25T11:37:39.000Z</time>
</trkpt>
<trkpt lat="45.8377860" lon="9.3024280">
	<ele>1226.80</ele>
	<time>2024-03-25T11:37:40.000Z</time>
</trkpt>
<trkpt lat="45.8377930" lon="9.3024360">
	<ele>1226.80</ele>
	<time>2024-03-25T11:37:41.000Z</time>
</trkpt>
<trkpt lat="45.8378010" lon="9.3024390">
	<ele>1226.60</ele>
	<time>2024-03-25T11:37:42.000Z</time>
</trkpt>
<trkpt lat="45.8378100" lon="9.3024430">
	<ele>1226.60</ele>
	<time>2024-03-25T11:37:43.000Z</time>
</trkpt>
<trkpt lat="45.8378170" lon="9.3024450">
	<ele>1226.40</ele>
	<time>2024-03-25T11:37:44.000Z</time>
</trkpt>
<trkpt lat="45.8378240" lon="9.3024460">
	<ele>1226.20</ele>
	<time>2024-03-25T11:37:45.000Z</time>
</trkpt>
<trkpt lat="45.8378340" lon="9.3024410">
	<ele>1225.80</ele>
	<time>2024-03-25T11:37:46.000Z</time>
</trkpt>
<trkpt lat="45.8378420" lon="9.3024400">
	<ele>1225.60</ele>
	<time>2024-03-25T11:37:47.000Z</time>
</trkpt>
<trkpt lat="45.8378470" lon="9.3024380">
	<ele>1225.40</ele>
	<time>2024-03-25T11:37:48.000Z</time>
</trkpt>
<trkpt lat="45.8378520" lon="9.3024360">
	<ele>1225.20</ele>
	<time>2024-03-25T11:37:49.000Z</time>
</trkpt>
<trkpt lat="45.8378610" lon="9.3024400">
	<ele>1225.20</ele>
	<time>2024-03-25T11:37:50.000Z</time>
</trkpt>
<trkpt lat="45.8378660" lon="9.3024470">
	<ele>1224.80</ele>
	<time>2024-03-25T11:37:51.000Z</time>
</trkpt>
<trkpt lat="45.8378720" lon="9.3024540">
	<ele>1224.80</ele>
	<time>2024-03-25T11:37:52.000Z</time>
</trkpt>
<trkpt lat="45.8378780" lon="9.3024600">
	<ele>1224.60</ele>
	<time>2024-03-25T11:37:53.000Z</time>
</trkpt>
<trkpt lat="45.8378840" lon="9.3024630">
	<ele>1224.20</ele>
	<time>2024-03-25T11:37:54.000Z</time>
</trkpt>
<trkpt lat="45.8378940" lon="9.3024650">
	<ele>1224.00</ele>
	<time>2024-03-25T11:37:55.000Z</time>
</trkpt>
<trkpt lat="45.8379030" lon="9.3024710">
	<ele>1223.80</ele>
	<time>2024-03-25T11:37:56.000Z</time>
</trkpt>
<trkpt lat="45.8379150" lon="9.3024810">
	<ele>1223.60</ele>
	<time>2024-03-25T11:37:57.000Z</time>
</trkpt>
<trkpt lat="45.8379250" lon="9.3024860">
	<ele>1223.40</ele>
	<time>2024-03-25T11:37:58.000Z</time>
</trkpt>
<trkpt lat="45.8379330" lon="9.3024830">
	<ele>1223.20</ele>
	<time>2024-03-25T11:37:59.000Z</time>
</trkpt>
<trkpt lat="45.8379400" lon="9.3024720">
	<ele>1223.00</ele>
	<time>2024-03-25T11:38:00.000Z</time>
</trkpt>
<trkpt lat="45.8379440" lon="9.3024600">
	<ele>1223.00</ele>
	<time>2024-03-25T11:38:01.000Z</time>
</trkpt>
<trkpt lat="45.8379450" lon="9.3024520">
	<ele>1222.80</ele>
	<time>2024-03-25T11:38:02.000Z</time>
</trkpt>
<trkpt lat="45.8379430" lon="9.3024420">
	<ele>1222.60</ele>
	<time>2024-03-25T11:38:03.000Z</time>
</trkpt>
<trkpt lat="45.8379410" lon="9.3024350">
	<ele>1222.40</ele>
	<time>2024-03-25T11:38:04.000Z</time>
</trkpt>
<trkpt lat="45.8379440" lon="9.3024310">
	<ele>1222.20</ele>
	<time>2024-03-25T11:38:05.000Z</time>
</trkpt>
<trkpt lat="45.8379480" lon="9.3024290">
	<ele>1222.00</ele>
	<time>2024-03-25T11:38:06.000Z</time>
</trkpt>
<trkpt lat="45.8379520" lon="9.3024290">
	<ele>1221.80</ele>
	<time>2024-03-25T11:38:07.000Z</time>
</trkpt>
<trkpt lat="45.8379570" lon="9.3024270">
	<ele>1221.80</ele>
	<time>2024-03-25T11:38:08.000Z</time>
</trkpt>
<trkpt lat="45.8379630" lon="9.3024270">
	<ele>1221.40</ele>
	<time>2024-03-25T11:38:09.000Z</time>
</trkpt>
<trkpt lat="45.8379680" lon="9.3024310">
	<ele>1221.00</ele>
	<time>2024-03-25T11:38:10.000Z</time>
</trkpt>
<trkpt lat="45.8379740" lon="9.3024300">
	<ele>1221.00</ele>
	<time>2024-03-25T11:38:11.000Z</time>
</trkpt>
<trkpt lat="45.8379810" lon="9.3024270">
	<ele>1220.80</ele>
	<time>2024-03-25T11:38:12.000Z</time>
</trkpt>
<trkpt lat="45.8379880" lon="9.3024270">
	<ele>1220.60</ele>
	<time>2024-03-25T11:38:13.000Z</time>
</trkpt>
<trkpt lat="45.8379920" lon="9.3024290">
	<ele>1220.40</ele>
	<time>2024-03-25T11:38:14.000Z</time>
</trkpt>
<trkpt lat="45.8379970" lon="9.3024320">
	<ele>1220.00</ele>
	<time>2024-03-25T11:38:15.000Z</time>
</trkpt>
<trkpt lat="45.8380020" lon="9.3024300">
	<ele>1219.60</ele>
	<time>2024-03-25T11:38:16.000Z</time>
</trkpt>
<trkpt lat="45.8380090" lon="9.3024280">
	<ele>1219.60</ele>
	<time>2024-03-25T11:38:17.000Z</time>
</trkpt>
<trkpt lat="45.8380140" lon="9.3024250">
	<ele>1219.40</ele>
	<time>2024-03-25T11:38:18.000Z</time>
</trkpt>
<trkpt lat="45.8380170" lon="9.3024280">
	<ele>1219.20</ele>
	<time>2024-03-25T11:38:19.000Z</time>
</trkpt>
<trkpt lat="45.8380230" lon="9.3024300">
	<ele>1219.20</ele>
	<time>2024-03-25T11:38:20.000Z</time>
</trkpt>
<trkpt lat="45.8380280" lon="9.3024340">
	<ele>1219.00</ele>
	<time>2024-03-25T11:38:21.000Z</time>
</trkpt>
<trkpt lat="45.8380330" lon="9.3024370">
	<ele>1218.80</ele>
	<time>2024-03-25T11:38:22.000Z</time>
</trkpt>
<trkpt lat="45.8380400" lon="9.3024380">
	<ele>1218.40</ele>
	<time>2024-03-25T11:38:23.000Z</time>
</trkpt>
<trkpt lat="45.8380490" lon="9.3024400">
	<ele>1218.20</ele>
	<time>2024-03-25T11:38:24.000Z</time>
</trkpt>
<trkpt lat="45.8380560" lon="9.3024400">
	<ele>1218.00</ele>
	<time>2024-03-25T11:38:25.000Z</time>
</trkpt>
<trkpt lat="45.8380620" lon="9.3024390">
	<ele>1217.80</ele>
	<time>2024-03-25T11:38:26.000Z</time>
</trkpt>
<trkpt lat="45.8380670" lon="9.3024420">
	<ele>1217.60</ele>
	<time>2024-03-25T11:38:27.000Z</time>
</trkpt>
<trkpt lat="45.8380750" lon="9.3024450">
	<ele>1217.20</ele>
	<time>2024-03-25T11:38:28.000Z</time>
</trkpt>
<trkpt lat="45.8380840" lon="9.3024470">
	<ele>1217.00</ele>
	<time>2024-03-25T11:38:29.000Z</time>
</trkpt>
<trkpt lat="45.8380930" lon="9.3024500">
	<ele>1216.80</ele>
	<time>2024-03-25T11:38:30.000Z</time>
</trkpt>
<trkpt lat="45.8381010" lon="9.3024490">
	<ele>1216.80</ele>
	<time>2024-03-25T11:38:31.000Z</time>
</trkpt>
<trkpt lat="45.8381110" lon="9.3024510">
	<ele>1216.40</ele>
	<time>2024-03-25T11:38:32.000Z</time>
</trkpt>
<trkpt lat="45.8381180" lon="9.3024540">
	<ele>1216.40</ele>
	<time>2024-03-25T11:38:33.000Z</time>
</trkpt>
<trkpt lat="45.8381250" lon="9.3024570">
	<ele>1216.00</ele>
	<time>2024-03-25T11:38:34.000Z</time>
</trkpt>
<trkpt lat="45.8381320" lon="9.3024580">
	<ele>1215.80</ele>
	<time>2024-03-25T11:38:35.000Z</time>
</trkpt>
<trkpt lat="45.8381400" lon="9.3024590">
	<ele>1215.60</ele>
	<time>2024-03-25T11:38:36.000Z</time>
</trkpt>
<trkpt lat="45.8381470" lon="9.3024600">
	<ele>1215.40</ele>
	<time>2024-03-25T11:38:37.000Z</time>
</trkpt>
<trkpt lat="45.8381530" lon="9.3024560">
	<ele>1215.00</ele>
	<time>2024-03-25T11:38:38.000Z</time>
</trkpt>
<trkpt lat="45.8381590" lon="9.3024540">
	<ele>1215.00</ele>
	<time>2024-03-25T11:38:39.000Z</time>
</trkpt>
<trkpt lat="45.8381660" lon="9.3024580">
	<ele>1214.80</ele>
	<time>2024-03-25T11:38:40.000Z</time>
</trkpt>
<trkpt lat="45.8381710" lon="9.3024640">
	<ele>1214.60</ele>
	<time>2024-03-25T11:38:41.000Z</time>
</trkpt>
<trkpt lat="45.8381740" lon="9.3024680">
	<ele>1214.40</ele>
	<time>2024-03-25T11:38:42.000Z</time>
</trkpt>
<trkpt lat="45.8381770" lon="9.3024700">
	<ele>1214.20</ele>
	<time>2024-03-25T11:38:43.000Z</time>
</trkpt>
<trkpt lat="45.8381790" lon="9.3024670">
	<ele>1214.20</ele>
	<time>2024-03-25T11:38:44.000Z</time>
</trkpt>
<trkpt lat="45.8381820" lon="9.3024630">
	<ele>1214.00</ele>
	<time>2024-03-25T11:38:45.000Z</time>
</trkpt>
<trkpt lat="45.8381850" lon="9.3024600">
	<ele>1213.80</ele>
	<time>2024-03-25T11:38:46.000Z</time>
</trkpt>
<trkpt lat="45.8381870" lon="9.3024590">
	<ele>1213.60</ele>
	<time>2024-03-25T11:38:47.000Z</time>
</trkpt>
<trkpt lat="45.8381890" lon="9.3024580">
	<ele>1213.40</ele>
	<time>2024-03-25T11:38:48.000Z</time>
</trkpt>
<trkpt lat="45.8381920" lon="9.3024600">
	<ele>1213.40</ele>
	<time>2024-03-25T11:38:49.000Z</time>
</trkpt>
<trkpt lat="45.8381970" lon="9.3024540">
	<ele>1213.00</ele>
	<time>2024-03-25T11:38:50.000Z</time>
</trkpt>
<trkpt lat="45.8382010" lon="9.3024440">
	<ele>1212.80</ele>
	<time>2024-03-25T11:38:51.000Z</time>
</trkpt>
<trkpt lat="45.8382030" lon="9.3024380">
	<ele>1212.80</ele>
	<time>2024-03-25T11:38:52.000Z</time>
</trkpt>
<trkpt lat="45.8382050" lon="9.3024350">
	<ele>1212.60</ele>
	<time>2024-03-25T11:38:53.000Z</time>
</trkpt>
<trkpt lat="45.8382100" lon="9.3024320">
	<ele>1212.60</ele>
	<time>2024-03-25T11:38:54.000Z</time>
</trkpt>
<trkpt lat="45.8382150" lon="9.3024290">
	<ele>1212.20</ele>
	<time>2024-03-25T11:38:55.000Z</time>
</trkpt>
<trkpt lat="45.8382200" lon="9.3024290">
	<ele>1212.00</ele>
	<time>2024-03-25T11:38:56.000Z</time>
</trkpt>
<trkpt lat="45.8382260" lon="9.3024300">
	<ele>1211.80</ele>
	<time>2024-03-25T11:38:57.000Z</time>
</trkpt>
<trkpt lat="45.8382310" lon="9.3024300">
	<ele>1211.80</ele>
	<time>2024-03-25T11:38:58.000Z</time>
</trkpt>
<trkpt lat="45.8382370" lon="9.3024300">
	<ele>1211.40</ele>
	<time>2024-03-25T11:38:59.000Z</time>
</trkpt>
<trkpt lat="45.8382440" lon="9.3024320">
	<ele>1211.40</ele>
	<time>2024-03-25T11:39:00.000Z</time>
</trkpt>
<trkpt lat="45.8382520" lon="9.3024380">
	<ele>1211.20</ele>
	<time>2024-03-25T11:39:01.000Z</time>
</trkpt>
<trkpt lat="45.8382580" lon="9.3024430">
	<ele>1211.20</ele>
	<time>2024-03-25T11:39:02.000Z</time>
</trkpt>
<trkpt lat="45.8382640" lon="9.3024460">
	<ele>1211.00</ele>
	<time>2024-03-25T11:39:03.000Z</time>
</trkpt>
<trkpt lat="45.8382730" lon="9.3024450">
	<ele>1211.00</ele>
	<time>2024-03-25T11:39:04.000Z</time>
</trkpt>
<trkpt lat="45.8382820" lon="9.3024460">
	<ele>1211.00</ele>
	<time>2024-03-25T11:39:05.000Z</time>
</trkpt>
<trkpt lat="45.8382900" lon="9.3024470">
	<ele>1210.60</ele>
	<time>2024-03-25T11:39:06.000Z</time>
</trkpt>
<trkpt lat="45.8382970" lon="9.3024500">
	<ele>1210.20</ele>
	<time>2024-03-25T11:39:07.000Z</time>
</trkpt>
<trkpt lat="45.8383030" lon="9.3024520">
	<ele>1210.00</ele>
	<time>2024-03-25T11:39:08.000Z</time>
</trkpt>
<trkpt lat="45.8383070" lon="9.3024540">
	<ele>1209.80</ele>
	<time>2024-03-25T11:39:09.000Z</time>
</trkpt>
<trkpt lat="45.8383110" lon="9.3024540">
	<ele>1209.60</ele>
	<time>2024-03-25T11:39:10.000Z</time>
</trkpt>
<trkpt lat="45.8383140" lon="9.3024560">
	<ele>1209.40</ele>
	<time>2024-03-25T11:39:11.000Z</time>
</trkpt>
<trkpt lat="45.8383170" lon="9.3024580">
	<ele>1209.40</ele>
	<time>2024-03-25T11:39:12.000Z</time>
</trkpt>
<trkpt lat="45.8383210" lon="9.3024600">
	<ele>1209.40</ele>
	<time>2024-03-25T11:39:13.000Z</time>
</trkpt>
<trkpt lat="45.8383260" lon="9.3024620">
	<ele>1209.20</ele>
	<time>2024-03-25T11:39:14.000Z</time>
</trkpt>
<trkpt lat="45.8383310" lon="9.3024620">
	<ele>1209.00</ele>
	<time>2024-03-25T11:39:15.000Z</time>
</trkpt>
<trkpt lat="45.8383360" lon="9.3024610">
	<ele>1208.80</ele>
	<time>2024-03-25T11:39:16.000Z</time>
</trkpt>
<trkpt lat="45.8383420" lon="9.3024610">
	<ele>1208.60</ele>
	<time>2024-03-25T11:39:17.000Z</time>
</trkpt>
<trkpt lat="45.8383470" lon="9.3024590">
	<ele>1208.00</ele>
	<time>2024-03-25T11:39:18.000Z</time>
</trkpt>
<trkpt lat="45.8383530" lon="9.3024580">
	<ele>1207.60</ele>
	<time>2024-03-25T11:39:19.000Z</time>
</trkpt>
<trkpt lat="45.8383570" lon="9.3024600">
	<ele>1207.20</ele>
	<time>2024-03-25T11:39:20.000Z</time>
</trkpt>
<trkpt lat="45.8383620" lon="9.3024670">
	<ele>1207.00</ele>
	<time>2024-03-25T11:39:21.000Z</time>
</trkpt>
<trkpt lat="45.8383690" lon="9.3024730">
	<ele>1206.60</ele>
	<time>2024-03-25T11:39:22.000Z</time>
</trkpt>
<trkpt lat="45.8383740" lon="9.3024780">
	<ele>1206.40</ele>
	<time>2024-03-25T11:39:23.000Z</time>
</trkpt>
<trkpt lat="45.8383780" lon="9.3024830">
	<ele>1206.20</ele>
	<time>2024-03-25T11:39:24.000Z</time>
</trkpt>
<trkpt lat="45.8383830" lon="9.3024880">
	<ele>1205.80</ele>
	<time>2024-03-25T11:39:25.000Z</time>
</trkpt>
<trkpt lat="45.8383880" lon="9.3024930">
	<ele>1205.80</ele>
	<time>2024-03-25T11:39:26.000Z</time>
</trkpt>
<trkpt lat="45.8383960" lon="9.3024950">
	<ele>1205.60</ele>
	<time>2024-03-25T11:39:27.000Z</time>
</trkpt>
<trkpt lat="45.8384050" lon="9.3024960">
	<ele>1205.40</ele>
	<time>2024-03-25T11:39:28.000Z</time>
</trkpt>
<trkpt lat="45.8384130" lon="9.3024960">
	<ele>1205.40</ele>
	<time>2024-03-25T11:39:29.000Z</time>
</trkpt>
<trkpt lat="45.8384180" lon="9.3024920">
	<ele>1205.20</ele>
	<time>2024-03-25T11:39:30.000Z</time>
</trkpt>
<trkpt lat="45.8384210" lon="9.3024920">
	<ele>1205.00</ele>
	<time>2024-03-25T11:39:31.000Z</time>
</trkpt>
<trkpt lat="45.8384280" lon="9.3025010">
	<ele>1205.00</ele>
	<time>2024-03-25T11:39:32.000Z</time>
</trkpt>
<trkpt lat="45.8384330" lon="9.3025090">
	<ele>1204.80</ele>
	<time>2024-03-25T11:39:33.000Z</time>
</trkpt>
<trkpt lat="45.8384370" lon="9.3025130">
	<ele>1204.60</ele>
	<time>2024-03-25T11:39:34.000Z</time>
</trkpt>
<trkpt lat="45.8384420" lon="9.3025180">
	<ele>1204.40</ele>
	<time>2024-03-25T11:39:35.000Z</time>
</trkpt>
<trkpt lat="45.8384500" lon="9.3025250">
	<ele>1204.20</ele>
	<time>2024-03-25T11:39:36.000Z</time>
</trkpt>
<trkpt lat="45.8384570" lon="9.3025340">
	<ele>1204.00</ele>
	<time>2024-03-25T11:39:37.000Z</time>
</trkpt>
<trkpt lat="45.8384620" lon="9.3025460">
	<ele>1203.80</ele>
	<time>2024-03-25T11:39:38.000Z</time>
</trkpt>
<trkpt lat="45.8384690" lon="9.3025580">
	<ele>1203.60</ele>
	<time>2024-03-25T11:39:39.000Z</time>
</trkpt>
<trkpt lat="45.8384760" lon="9.3025670">
	<ele>1203.40</ele>
	<time>2024-03-25T11:39:40.000Z</time>
</trkpt>
<trkpt lat="45.8384820" lon="9.3025740">
	<ele>1203.20</ele>
	<time>2024-03-25T11:39:41.000Z</time>
</trkpt>
<trkpt lat="45.8384870" lon="9.3025830">
	<ele>1203.20</ele>
	<time>2024-03-25T11:39:42.000Z</time>
</trkpt>
<trkpt lat="45.8384900" lon="9.3025880">
	<ele>1203.00</ele>
	<time>2024-03-25T11:39:43.000Z</time>
</trkpt>
<trkpt lat="45.8384940" lon="9.3025940">
	<ele>1202.80</ele>
	<time>2024-03-25T11:39:44.000Z</time>
</trkpt>
<trkpt lat="45.8384990" lon="9.3026000">
	<ele>1202.60</ele>
	<time>2024-03-25T11:39:45.000Z</time>
</trkpt>
<trkpt lat="45.8385060" lon="9.3026070">
	<ele>1202.40</ele>
	<time>2024-03-25T11:39:46.000Z</time>
</trkpt>
<trkpt lat="45.8385170" lon="9.3026140">
	<ele>1202.20</ele>
	<time>2024-03-25T11:39:47.000Z</time>
</trkpt>
<trkpt lat="45.8385240" lon="9.3026190">
	<ele>1202.20</ele>
	<time>2024-03-25T11:39:48.000Z</time>
</trkpt>
<trkpt lat="45.8385320" lon="9.3026240">
	<ele>1201.80</ele>
	<time>2024-03-25T11:39:49.000Z</time>
</trkpt>
<trkpt lat="45.8385390" lon="9.3026280">
	<ele>1201.80</ele>
	<time>2024-03-25T11:39:50.000Z</time>
</trkpt>
<trkpt lat="45.8385450" lon="9.3026310">
	<ele>1201.60</ele>
	<time>2024-03-25T11:39:51.000Z</time>
</trkpt>
<trkpt lat="45.8385520" lon="9.3026300">
	<ele>1201.40</ele>
	<time>2024-03-25T11:39:52.000Z</time>
</trkpt>
<trkpt lat="45.8385560" lon="9.3026330">
	<ele>1201.20</ele>
	<time>2024-03-25T11:39:53.000Z</time>
</trkpt>
<trkpt lat="45.8385620" lon="9.3026360">
	<ele>1201.00</ele>
	<time>2024-03-25T11:39:54.000Z</time>
</trkpt>
<trkpt lat="45.8385650" lon="9.3026440">
	<ele>1201.00</ele>
	<time>2024-03-25T11:39:55.000Z</time>
</trkpt>
<trkpt lat="45.8385700" lon="9.3026510">
	<ele>1200.60</ele>
	<time>2024-03-25T11:39:56.000Z</time>
</trkpt>
<trkpt lat="45.8385760" lon="9.3026540">
	<ele>1200.40</ele>
	<time>2024-03-25T11:39:57.000Z</time>
</trkpt>
<trkpt lat="45.8385820" lon="9.3026520">
	<ele>1200.00</ele>
	<time>2024-03-25T11:39:58.000Z</time>
</trkpt>
<trkpt lat="45.8385860" lon="9.3026510">
	<ele>1199.80</ele>
	<time>2024-03-25T11:39:59.000Z</time>
</trkpt>
<trkpt lat="45.8385900" lon="9.3026510">
	<ele>1199.60</ele>
	<time>2024-03-25T11:40:00.000Z</time>
</trkpt>
<trkpt lat="45.8385930" lon="9.3026560">
	<ele>1199.60</ele>
	<time>2024-03-25T11:40:01.000Z</time>
</trkpt>
<trkpt lat="45.8385930" lon="9.3026580">
	<ele>1199.60</ele>
	<time>2024-03-25T11:40:02.000Z</time>
</trkpt>
<trkpt lat="45.8385920" lon="9.3026620">
	<ele>1199.60</ele>
	<time>2024-03-25T11:40:03.000Z</time>
</trkpt>
<trkpt lat="45.8385900" lon="9.3026670">
	<ele>1199.60</ele>
	<time>2024-03-25T11:40:04.000Z</time>
</trkpt>
<trkpt lat="45.8385860" lon="9.3026720">
	<ele>1199.60</ele>
	<time>2024-03-25T11:40:05.000Z</time>
</trkpt>
<trkpt lat="45.8385820" lon="9.3026820">
	<ele>1199.60</ele>
	<time>2024-03-25T11:40:06.000Z</time>
</trkpt>
<trkpt lat="45.8385790" lon="9.3026880">
	<ele>1199.20</ele>
	<time>2024-03-25T11:40:07.000Z</time>
</trkpt>
<trkpt lat="45.8385770" lon="9.3026960">
	<ele>1199.00</ele>
	<time>2024-03-25T11:40:08.000Z</time>
</trkpt>
<trkpt lat="45.8385760" lon="9.3027080">
	<ele>1198.80</ele>
	<time>2024-03-25T11:40:09.000Z</time>
</trkpt>
<trkpt lat="45.8385780" lon="9.3027170">
	<ele>1198.60</ele>
	<time>2024-03-25T11:40:10.000Z</time>
</trkpt>
<trkpt lat="45.8385790" lon="9.3027220">
	<ele>1198.20</ele>
	<time>2024-03-25T11:40:11.000Z</time>
</trkpt>
<trkpt lat="45.8385790" lon="9.3027230">
	<ele>1197.80</ele>
	<time>2024-03-25T11:40:12.000Z</time>
</trkpt>
<trkpt lat="45.8385790" lon="9.3027230">
	<ele>1197.60</ele>
	<time>2024-03-25T11:40:13.000Z</time>
</trkpt>
<trkpt lat="45.8385790" lon="9.3027230">
	<ele>1197.60</ele>
	<time>2024-03-25T11:40:14.000Z</time>
</trkpt>
<trkpt lat="45.8385790" lon="9.3027230">
	<ele>1197.40</ele>
	<time>2024-03-25T11:40:15.000Z</time>
</trkpt>
<trkpt lat="45.8385790" lon="9.3027230">
	<ele>1197.20</ele>
	<time>2024-03-25T11:40:16.000Z</time>
</trkpt>
<trkpt lat="45.8385790" lon="9.3027230">
	<ele>1197.20</ele>
	<time>2024-03-25T11:40:17.000Z</time>
</trkpt>
<trkpt lat="45.8385790" lon="9.3027230">
	<ele>1197.00</ele>
	<time>2024-03-25T11:40:18.000Z</time>
</trkpt>
<trkpt lat="45.8385790" lon="9.3027230">
	<ele>1196.80</ele>
	<time>2024-03-25T11:40:19.000Z</time>
</trkpt>
<trkpt lat="45.8385790" lon="9.3027230">
	<ele>1196.60</ele>
	<time>2024-03-25T11:40:20.000Z</time>
</trkpt>
<trkpt lat="45.8385790" lon="9.3027230">
	<ele>1196.20</ele>
	<time>2024-03-25T11:40:21.000Z</time>
</trkpt>
<trkpt lat="45.8385790" lon="9.3027230">
	<ele>1195.80</ele>
	<time>2024-03-25T11:40:22.000Z</time>
</trkpt>
<trkpt lat="45.8385790" lon="9.3027230">
	<ele>1195.60</ele>
	<time>2024-03-25T11:40:23.000Z</time>
</trkpt>
<trkpt lat="45.8385790" lon="9.3027230">
	<ele>1195.40</ele>
	<time>2024-03-25T11:40:24.000Z</time>
</trkpt>
<trkpt lat="45.8385790" lon="9.3027230">
	<ele>1195.40</ele>
	<time>2024-03-25T11:40:25.000Z</time>
</trkpt>
<trkpt lat="45.8385800" lon="9.3027230">
	<ele>1195.20</ele>
	<time>2024-03-25T11:40:26.000Z</time>
</trkpt>
<trkpt lat="45.8385820" lon="9.3027230">
	<ele>1195.20</ele>
	<time>2024-03-25T11:40:27.000Z</time>
</trkpt>
<trkpt lat="45.8385830" lon="9.3027240">
	<ele>1195.20</ele>
	<time>2024-03-25T11:40:28.000Z</time>
</trkpt>
<trkpt lat="45.8385840" lon="9.3027270">
	<ele>1195.20</ele>
	<time>2024-03-25T11:40:29.000Z</time>
</trkpt>
<trkpt lat="45.8385860" lon="9.3027330">
	<ele>1195.20</ele>
	<time>2024-03-25T11:40:30.000Z</time>
</trkpt>
<trkpt lat="45.8385860" lon="9.3027420">
	<ele>1195.20</ele>
	<time>2024-03-25T11:40:31.000Z</time>
</trkpt>
<trkpt lat="45.8385880" lon="9.3027520">
	<ele>1195.20</ele>
	<time>2024-03-25T11:40:32.000Z</time>
</trkpt>
<trkpt lat="45.8385900" lon="9.3027570">
	<ele>1195.20</ele>
	<time>2024-03-25T11:40:33.000Z</time>
</trkpt>
<trkpt lat="45.8385930" lon="9.3027600">
	<ele>1195.20</ele>
	<time>2024-03-25T11:40:34.000Z</time>
</trkpt>
<trkpt lat="45.8385990" lon="9.3027610">
	<ele>1195.20</ele>
	<time>2024-03-25T11:40:35.000Z</time>
</trkpt>
<trkpt lat="45.8386050" lon="9.3027640">
	<ele>1195.00</ele>
	<time>2024-03-25T11:40:36.000Z</time>
</trkpt>
<trkpt lat="45.8386110" lon="9.3027640">
	<ele>1194.60</ele>
	<time>2024-03-25T11:40:37.000Z</time>
</trkpt>
<trkpt lat="45.8386180" lon="9.3027650">
	<ele>1194.40</ele>
	<time>2024-03-25T11:40:38.000Z</time>
</trkpt>
<trkpt lat="45.8386250" lon="9.3027660">
	<ele>1194.00</ele>
	<time>2024-03-25T11:40:39.000Z</time>
</trkpt>
<trkpt lat="45.8386260" lon="9.3027670">
	<ele>1193.80</ele>
	<time>2024-03-25T11:40:40.000Z</time>
</trkpt>
<trkpt lat="45.8386260" lon="9.3027680">
	<ele>1193.40</ele>
	<time>2024-03-25T11:40:41.000Z</time>
</trkpt>
<trkpt lat="45.8386260" lon="9.3027690">
	<ele>1192.80</ele>
	<time>2024-03-25T11:40:42.000Z</time>
</trkpt>
<trkpt lat="45.8386260" lon="9.3027700">
	<ele>1192.60</ele>
	<time>2024-03-25T11:40:43.000Z</time>
</trkpt>
<trkpt lat="45.8386260" lon="9.3027760">
	<ele>1192.40</ele>
	<time>2024-03-25T11:40:44.000Z</time>
</trkpt>
<trkpt lat="45.8386270" lon="9.3027790">
	<ele>1192.00</ele>
	<time>2024-03-25T11:40:45.000Z</time>
</trkpt>
<trkpt lat="45.8386290" lon="9.3027850">
	<ele>1191.60</ele>
	<time>2024-03-25T11:40:46.000Z</time>
</trkpt>
<trkpt lat="45.8386310" lon="9.3027890">
	<ele>1191.60</ele>
	<time>2024-03-25T11:40:47.000Z</time>
</trkpt>
<trkpt lat="45.8386310" lon="9.3027940">
	<ele>1191.40</ele>
	<time>2024-03-25T11:40:48.000Z</time>
</trkpt>
<trkpt lat="45.8386310" lon="9.3028000">
	<ele>1191.20</ele>
	<time>2024-03-25T11:40:49.000Z</time>
</trkpt>
<trkpt lat="45.8386310" lon="9.3028060">
	<ele>1191.20</ele>
	<time>2024-03-25T11:40:50.000Z</time>
</trkpt>
<trkpt lat="45.8386310" lon="9.3028180">
	<ele>1190.80</ele>
	<time>2024-03-25T11:40:51.000Z</time>
</trkpt>
<trkpt lat="45.8386290" lon="9.3028360">
	<ele>1190.60</ele>
	<time>2024-03-25T11:40:52.000Z</time>
</trkpt>
<trkpt lat="45.8386290" lon="9.3028540">
	<ele>1190.40</ele>
	<time>2024-03-25T11:40:53.000Z</time>
</trkpt>
<trkpt lat="45.8386280" lon="9.3028700">
	<ele>1190.20</ele>
	<time>2024-03-25T11:40:54.000Z</time>
</trkpt>
<trkpt lat="45.8386260" lon="9.3028890">
	<ele>1190.20</ele>
	<time>2024-03-25T11:40:55.000Z</time>
</trkpt>
<trkpt lat="45.8386240" lon="9.3029090">
	<ele>1190.00</ele>
	<time>2024-03-25T11:40:56.000Z</time>
</trkpt>
<trkpt lat="45.8386220" lon="9.3029360">
	<ele>1190.00</ele>
	<time>2024-03-25T11:40:57.000Z</time>
</trkpt>
<trkpt lat="45.8386210" lon="9.3029590">
	<ele>1189.40</ele>
	<time>2024-03-25T11:40:58.000Z</time>
</trkpt>
<trkpt lat="45.8386230" lon="9.3029800">
	<ele>1189.20</ele>
	<time>2024-03-25T11:40:59.000Z</time>
</trkpt>
<trkpt lat="45.8386280" lon="9.3029950">
	<ele>1189.00</ele>
	<time>2024-03-25T11:41:00.000Z</time>
</trkpt>
<trkpt lat="45.8386330" lon="9.3029980">
	<ele>1188.60</ele>
	<time>2024-03-25T11:41:01.000Z</time>
</trkpt>
<trkpt lat="45.8386380" lon="9.3030070">
	<ele>1188.40</ele>
	<time>2024-03-25T11:41:02.000Z</time>
</trkpt>
<trkpt lat="45.8386440" lon="9.3030130">
	<ele>1188.00</ele>
	<time>2024-03-25T11:41:03.000Z</time>
</trkpt>
<trkpt lat="45.8386500" lon="9.3030170">
	<ele>1187.80</ele>
	<time>2024-03-25T11:41:04.000Z</time>
</trkpt>
<trkpt lat="45.8386520" lon="9.3030250">
	<ele>1187.60</ele>
	<time>2024-03-25T11:41:05.000Z</time>
</trkpt>
<trkpt lat="45.8386550" lon="9.3030320">
	<ele>1187.60</ele>
	<time>2024-03-25T11:41:06.000Z</time>
</trkpt>
<trkpt lat="45.8386590" lon="9.3030400">
	<ele>1187.20</ele>
	<time>2024-03-25T11:41:07.000Z</time>
</trkpt>
<trkpt lat="45.8386640" lon="9.3030470">
	<ele>1187.00</ele>
	<time>2024-03-25T11:41:08.000Z</time>
</trkpt>
<trkpt lat="45.8386690" lon="9.3030570">
	<ele>1186.60</ele>
	<time>2024-03-25T11:41:09.000Z</time>
</trkpt>
<trkpt lat="45.8386720" lon="9.3030670">
	<ele>1186.40</ele>
	<time>2024-03-25T11:41:10.000Z</time>
</trkpt>
<trkpt lat="45.8386750" lon="9.3030730">
	<ele>1186.20</ele>
	<time>2024-03-25T11:41:11.000Z</time>
</trkpt>
<trkpt lat="45.8386780" lon="9.3030800">
	<ele>1185.80</ele>
	<time>2024-03-25T11:41:12.000Z</time>
</trkpt>
<trkpt lat="45.8386810" lon="9.3030860">
	<ele>1185.60</ele>
	<time>2024-03-25T11:41:13.000Z</time>
</trkpt>
<trkpt lat="45.8386840" lon="9.3030940">
	<ele>1185.40</ele>
	<time>2024-03-25T11:41:14.000Z</time>
</trkpt>
<trkpt lat="45.8386860" lon="9.3031050">
	<ele>1185.20</ele>
	<time>2024-03-25T11:41:15.000Z</time>
</trkpt>
<trkpt lat="45.8386880" lon="9.3031150">
	<ele>1185.00</ele>
	<time>2024-03-25T11:41:16.000Z</time>
</trkpt>
<trkpt lat="45.8386890" lon="9.3031250">
	<ele>1184.60</ele>
	<time>2024-03-25T11:41:17.000Z</time>
</trkpt>
<trkpt lat="45.8386930" lon="9.3031340">
	<ele>1184.40</ele>
	<time>2024-03-25T11:41:18.000Z</time>
</trkpt>
<trkpt lat="45.8386980" lon="9.3031410">
	<ele>1184.00</ele>
	<time>2024-03-25T11:41:19.000Z</time>
</trkpt>
<trkpt lat="45.8387030" lon="9.3031460">
	<ele>1183.80</ele>
	<time>2024-03-25T11:41:20.000Z</time>
</trkpt>
<trkpt lat="45.8387090" lon="9.3031510">
	<ele>1183.60</ele>
	<time>2024-03-25T11:41:21.000Z</time>
</trkpt>
<trkpt lat="45.8387170" lon="9.3031530">
	<ele>1183.40</ele>
	<time>2024-03-25T11:41:22.000Z</time>
</trkpt>
<trkpt lat="45.8387240" lon="9.3031560">
	<ele>1183.20</ele>
	<time>2024-03-25T11:41:23.000Z</time>
</trkpt>
<trkpt lat="45.8387290" lon="9.3031600">
	<ele>1183.00</ele>
	<time>2024-03-25T11:41:24.000Z</time>
</trkpt>
<trkpt lat="45.8387340" lon="9.3031680">
	<ele>1182.80</ele>
	<time>2024-03-25T11:41:25.000Z</time>
</trkpt>
<trkpt lat="45.8387380" lon="9.3031790">
	<ele>1182.60</ele>
	<time>2024-03-25T11:41:26.000Z</time>
</trkpt>
<trkpt lat="45.8387420" lon="9.3031920">
	<ele>1182.40</ele>
	<time>2024-03-25T11:41:27.000Z</time>
</trkpt>
<trkpt lat="45.8387450" lon="9.3032040">
	<ele>1182.20</ele>
	<time>2024-03-25T11:41:28.000Z</time>
</trkpt>
<trkpt lat="45.8387490" lon="9.3032120">
	<ele>1181.80</ele>
	<time>2024-03-25T11:41:29.000Z</time>
</trkpt>
<trkpt lat="45.8387530" lon="9.3032170">
	<ele>1181.40</ele>
	<time>2024-03-25T11:41:30.000Z</time>
</trkpt>
<trkpt lat="45.8387570" lon="9.3032260">
	<ele>1181.00</ele>
	<time>2024-03-25T11:41:31.000Z</time>
</trkpt>
<trkpt lat="45.8387590" lon="9.3032340">
	<ele>1180.80</ele>
	<time>2024-03-25T11:41:32.000Z</time>
</trkpt>
<trkpt lat="45.8387620" lon="9.3032430">
	<ele>1180.60</ele>
	<time>2024-03-25T11:41:33.000Z</time>
</trkpt>
<trkpt lat="45.8387660" lon="9.3032540">
	<ele>1180.40</ele>
	<time>2024-03-25T11:41:34.000Z</time>
</trkpt>
<trkpt lat="45.8387670" lon="9.3032640">
	<ele>1180.40</ele>
	<time>2024-03-25T11:41:35.000Z</time>
</trkpt>
<trkpt lat="45.8387690" lon="9.3032750">
	<ele>1180.00</ele>
	<time>2024-03-25T11:41:36.000Z</time>
</trkpt>
<trkpt lat="45.8387730" lon="9.3032900">
	<ele>1179.80</ele>
	<time>2024-03-25T11:41:37.000Z</time>
</trkpt>
<trkpt lat="45.8387740" lon="9.3033050">
	<ele>1179.40</ele>
	<time>2024-03-25T11:41:38.000Z</time>
</trkpt>
<trkpt lat="45.8387760" lon="9.3033170">
	<ele>1179.20</ele>
	<time>2024-03-25T11:41:39.000Z</time>
</trkpt>
<trkpt lat="45.8387780" lon="9.3033270">
	<ele>1179.00</ele>
	<time>2024-03-25T11:41:40.000Z</time>
</trkpt>
<trkpt lat="45.8387790" lon="9.3033390">
	<ele>1178.60</ele>
	<time>2024-03-25T11:41:41.000Z</time>
</trkpt>
<trkpt lat="45.8387800" lon="9.3033490">
	<ele>1178.40</ele>
	<time>2024-03-25T11:41:42.000Z</time>
</trkpt>
<trkpt lat="45.8387790" lon="9.3033600">
	<ele>1178.20</ele>
	<time>2024-03-25T11:41:43.000Z</time>
</trkpt>
<trkpt lat="45.8387810" lon="9.3033730">
	<ele>1178.20</ele>
	<time>2024-03-25T11:41:44.000Z</time>
</trkpt>
<trkpt lat="45.8387840" lon="9.3033860">
	<ele>1177.80</ele>
	<time>2024-03-25T11:41:45.000Z</time>
</trkpt>
<trkpt lat="45.8387890" lon="9.3033980">
	<ele>1177.60</ele>
	<time>2024-03-25T11:41:46.000Z</time>
</trkpt>
<trkpt lat="45.8387930" lon="9.3034090">
	<ele>1177.40</ele>
	<time>2024-03-25T11:41:47.000Z</time>
</trkpt>
<trkpt lat="45.8387940" lon="9.3034210">
	<ele>1177.20</ele>
	<time>2024-03-25T11:41:48.000Z</time>
</trkpt>
<trkpt lat="45.8387970" lon="9.3034320">
	<ele>1177.20</ele>
	<time>2024-03-25T11:41:49.000Z</time>
</trkpt>
<trkpt lat="45.8387990" lon="9.3034420">
	<ele>1177.00</ele>
	<time>2024-03-25T11:41:50.000Z</time>
</trkpt>
<trkpt lat="45.8387970" lon="9.3034480">
	<ele>1176.80</ele>
	<time>2024-03-25T11:41:51.000Z</time>
</trkpt>
<trkpt lat="45.8387980" lon="9.3034580">
	<ele>1176.40</ele>
	<time>2024-03-25T11:41:52.000Z</time>
</trkpt>
<trkpt lat="45.8387980" lon="9.3034660">
	<ele>1176.00</ele>
	<time>2024-03-25T11:41:53.000Z</time>
</trkpt>
<trkpt lat="45.8388010" lon="9.3034750">
	<ele>1175.60</ele>
	<time>2024-03-25T11:41:54.000Z</time>
</trkpt>
<trkpt lat="45.8388040" lon="9.3034850">
	<ele>1175.40</ele>
	<time>2024-03-25T11:41:55.000Z</time>
</trkpt>
<trkpt lat="45.8388050" lon="9.3034970">
	<ele>1175.20</ele>
	<time>2024-03-25T11:41:56.000Z</time>
</trkpt>
<trkpt lat="45.8388020" lon="9.3035090">
	<ele>1174.80</ele>
	<time>2024-03-25T11:41:57.000Z</time>
</trkpt>
<trkpt lat="45.8387990" lon="9.3035210">
	<ele>1174.40</ele>
	<time>2024-03-25T11:41:58.000Z</time>
</trkpt>
<trkpt lat="45.8387950" lon="9.3035370">
	<ele>1174.00</ele>
	<time>2024-03-25T11:41:59.000Z</time>
</trkpt>
<trkpt lat="45.8387960" lon="9.3035560">
	<ele>1173.80</ele>
	<time>2024-03-25T11:42:00.000Z</time>
</trkpt>
<trkpt lat="45.8388010" lon="9.3035700">
	<ele>1173.40</ele>
	<time>2024-03-25T11:42:01.000Z</time>
</trkpt>
<trkpt lat="45.8388080" lon="9.3035810">
	<ele>1173.00</ele>
	<time>2024-03-25T11:42:02.000Z</time>
</trkpt>
<trkpt lat="45.8388170" lon="9.3035920">
	<ele>1172.80</ele>
	<time>2024-03-25T11:42:03.000Z</time>
</trkpt>
<trkpt lat="45.8388260" lon="9.3036010">
	<ele>1172.80</ele>
	<time>2024-03-25T11:42:04.000Z</time>
</trkpt>
<trkpt lat="45.8388320" lon="9.3036100">
	<ele>1172.60</ele>
	<time>2024-03-25T11:42:05.000Z</time>
</trkpt>
<trkpt lat="45.8388400" lon="9.3036180">
	<ele>1172.60</ele>
	<time>2024-03-25T11:42:06.000Z</time>
</trkpt>
<trkpt lat="45.8388480" lon="9.3036260">
	<ele>1172.40</ele>
	<time>2024-03-25T11:42:07.000Z</time>
</trkpt>
<trkpt lat="45.8388540" lon="9.3036340">
	<ele>1172.20</ele>
	<time>2024-03-25T11:42:08.000Z</time>
</trkpt>
<trkpt lat="45.8388600" lon="9.3036430">
	<ele>1171.80</ele>
	<time>2024-03-25T11:42:09.000Z</time>
</trkpt>
<trkpt lat="45.8388660" lon="9.3036500">
	<ele>1171.60</ele>
	<time>2024-03-25T11:42:10.000Z</time>
</trkpt>
<trkpt lat="45.8388740" lon="9.3036600">
	<ele>1171.20</ele>
	<time>2024-03-25T11:42:11.000Z</time>
</trkpt>
<trkpt lat="45.8388820" lon="9.3036720">
	<ele>1171.00</ele>
	<time>2024-03-25T11:42:12.000Z</time>
</trkpt>
<trkpt lat="45.8388880" lon="9.3036850">
	<ele>1170.80</ele>
	<time>2024-03-25T11:42:13.000Z</time>
</trkpt>
<trkpt lat="45.8388930" lon="9.3036960">
	<ele>1170.60</ele>
	<time>2024-03-25T11:42:14.000Z</time>
</trkpt>
<trkpt lat="45.8388960" lon="9.3037100">
	<ele>1170.40</ele>
	<time>2024-03-25T11:42:15.000Z</time>
</trkpt>
<trkpt lat="45.8389020" lon="9.3037220">
	<ele>1170.20</ele>
	<time>2024-03-25T11:42:16.000Z</time>
</trkpt>
<trkpt lat="45.8389080" lon="9.3037330">
	<ele>1170.00</ele>
	<time>2024-03-25T11:42:17.000Z</time>
</trkpt>
<trkpt lat="45.8389100" lon="9.3037430">
	<ele>1170.00</ele>
	<time>2024-03-25T11:42:18.000Z</time>
</trkpt>
<trkpt lat="45.8389120" lon="9.3037540">
	<ele>1169.60</ele>
	<time>2024-03-25T11:42:19.000Z</time>
</trkpt>
<trkpt lat="45.8389130" lon="9.3037640">
	<ele>1169.40</ele>
	<time>2024-03-25T11:42:20.000Z</time>
</trkpt>
<trkpt lat="45.8389140" lon="9.3037750">
	<ele>1169.20</ele>
	<time>2024-03-25T11:42:21.000Z</time>
</trkpt>
<trkpt lat="45.8389190" lon="9.3037840">
	<ele>1169.00</ele>
	<time>2024-03-25T11:42:22.000Z</time>
</trkpt>
<trkpt lat="45.8389250" lon="9.3037920">
	<ele>1169.00</ele>
	<time>2024-03-25T11:42:23.000Z</time>
</trkpt>
<trkpt lat="45.8389310" lon="9.3038020">
	<ele>1168.60</ele>
	<time>2024-03-25T11:42:24.000Z</time>
</trkpt>
<trkpt lat="45.8389340" lon="9.3038120">
	<ele>1168.40</ele>
	<time>2024-03-25T11:42:25.000Z</time>
</trkpt>
<trkpt lat="45.8389380" lon="9.3038230">
	<ele>1168.00</ele>
	<time>2024-03-25T11:42:26.000Z</time>
</trkpt>
<trkpt lat="45.8389430" lon="9.3038330">
	<ele>1167.60</ele>
	<time>2024-03-25T11:42:27.000Z</time>
</trkpt>
<trkpt lat="45.8389470" lon="9.3038440">
	<ele>1167.40</ele>
	<time>2024-03-25T11:42:28.000Z</time>
</trkpt>
<trkpt lat="45.8389530" lon="9.3038540">
	<ele>1167.20</ele>
	<time>2024-03-25T11:42:29.000Z</time>
</trkpt>
<trkpt lat="45.8389590" lon="9.3038630">
	<ele>1167.00</ele>
	<time>2024-03-25T11:42:30.000Z</time>
</trkpt>
<trkpt lat="45.8389660" lon="9.3038690">
	<ele>1167.00</ele>
	<time>2024-03-25T11:42:31.000Z</time>
</trkpt>
<trkpt lat="45.8389680" lon="9.3038810">
	<ele>1166.80</ele>
	<time>2024-03-25T11:42:32.000Z</time>
</trkpt>
<trkpt lat="45.8389720" lon="9.3038910">
	<ele>1166.60</ele>
	<time>2024-03-25T11:42:33.000Z</time>
</trkpt>
<trkpt lat="45.8389750" lon="9.3039030">
	<ele>1166.40</ele>
	<time>2024-03-25T11:42:34.000Z</time>
</trkpt>
<trkpt lat="45.8389780" lon="9.3039150">
	<ele>1166.20</ele>
	<time>2024-03-25T11:42:35.000Z</time>
</trkpt>
<trkpt lat="45.8389830" lon="9.3039260">
	<ele>1165.80</ele>
	<time>2024-03-25T11:42:36.000Z</time>
</trkpt>
<trkpt lat="45.8389880" lon="9.3039350">
	<ele>1165.60</ele>
	<time>2024-03-25T11:42:37.000Z</time>
</trkpt>
<trkpt lat="45.8389930" lon="9.3039480">
	<ele>1165.20</ele>
	<time>2024-03-25T11:42:38.000Z</time>
</trkpt>
<trkpt lat="45.8389990" lon="9.3039590">
	<ele>1164.80</ele>
	<time>2024-03-25T11:42:39.000Z</time>
</trkpt>
<trkpt lat="45.8390060" lon="9.3039700">
	<ele>1164.40</ele>
	<time>2024-03-25T11:42:40.000Z</time>
</trkpt>
<trkpt lat="45.8390120" lon="9.3039830">
	<ele>1164.20</ele>
	<time>2024-03-25T11:42:41.000Z</time>
</trkpt>
<trkpt lat="45.8390180" lon="9.3039950">
	<ele>1164.00</ele>
	<time>2024-03-25T11:42:42.000Z</time>
</trkpt>
<trkpt lat="45.8390200" lon="9.3040080">
	<ele>1163.80</ele>
	<time>2024-03-25T11:42:43.000Z</time>
</trkpt>
<trkpt lat="45.8390220" lon="9.3040190">
	<ele>1163.40</ele>
	<time>2024-03-25T11:42:44.000Z</time>
</trkpt>
<trkpt lat="45.8390250" lon="9.3040270">
	<ele>1163.20</ele>
	<time>2024-03-25T11:42:45.000Z</time>
</trkpt>
<trkpt lat="45.8390260" lon="9.3040430">
	<ele>1162.80</ele>
	<time>2024-03-25T11:42:46.000Z</time>
</trkpt>
<trkpt lat="45.8390240" lon="9.3040550">
	<ele>1162.60</ele>
	<time>2024-03-25T11:42:47.000Z</time>
</trkpt>
<trkpt lat="45.8390250" lon="9.3040650">
	<ele>1162.40</ele>
	<time>2024-03-25T11:42:48.000Z</time>
</trkpt>
<trkpt lat="45.8390270" lon="9.3040760">
	<ele>1162.00</ele>
	<time>2024-03-25T11:42:49.000Z</time>
</trkpt>
<trkpt lat="45.8390290" lon="9.3040870">
	<ele>1161.80</ele>
	<time>2024-03-25T11:42:50.000Z</time>
</trkpt>
<trkpt lat="45.8390310" lon="9.3040990">
	<ele>1161.60</ele>
	<time>2024-03-25T11:42:51.000Z</time>
</trkpt>
<trkpt lat="45.8390320" lon="9.3041070">
	<ele>1161.20</ele>
	<time>2024-03-25T11:42:52.000Z</time>
</trkpt>
<trkpt lat="45.8390370" lon="9.3041140">
	<ele>1161.00</ele>
	<time>2024-03-25T11:42:53.000Z</time>
</trkpt>
<trkpt lat="45.8390410" lon="9.3041230">
	<ele>1160.80</ele>
	<time>2024-03-25T11:42:54.000Z</time>
</trkpt>
<trkpt lat="45.8390440" lon="9.3041320">
	<ele>1160.80</ele>
	<time>2024-03-25T11:42:55.000Z</time>
</trkpt>
<trkpt lat="45.8390490" lon="9.3041420">
	<ele>1160.60</ele>
	<time>2024-03-25T11:42:56.000Z</time>
</trkpt>
<trkpt lat="45.8390530" lon="9.3041510">
	<ele>1160.40</ele>
	<time>2024-03-25T11:42:57.000Z</time>
</trkpt>
<trkpt lat="45.8390580" lon="9.3041600">
	<ele>1160.20</ele>
	<time>2024-03-25T11:42:58.000Z</time>
</trkpt>
<trkpt lat="45.8390630" lon="9.3041690">
	<ele>1160.00</ele>
	<time>2024-03-25T11:42:59.000Z</time>
</trkpt>
<trkpt lat="45.8390670" lon="9.3041820">
	<ele>1159.60</ele>
	<time>2024-03-25T11:43:00.000Z</time>
</trkpt>
<trkpt lat="45.8390710" lon="9.3041960">
	<ele>1159.60</ele>
	<time>2024-03-25T11:43:01.000Z</time>
</trkpt>
<trkpt lat="45.8390750" lon="9.3042080">
	<ele>1159.00</ele>
	<time>2024-03-25T11:43:02.000Z</time>
</trkpt>
<trkpt lat="45.8390800" lon="9.3042200">
	<ele>1158.80</ele>
	<time>2024-03-25T11:43:03.000Z</time>
</trkpt>
<trkpt lat="45.8390850" lon="9.3042300">
	<ele>1158.60</ele>
	<time>2024-03-25T11:43:04.000Z</time>
</trkpt>
<trkpt lat="45.8390900" lon="9.3042420">
	<ele>1158.40</ele>
	<time>2024-03-25T11:43:05.000Z</time>
</trkpt>
<trkpt lat="45.8390940" lon="9.3042520">
	<ele>1158.00</ele>
	<time>2024-03-25T11:43:06.000Z</time>
</trkpt>
<trkpt lat="45.8391000" lon="9.3042630">
	<ele>1157.80</ele>
	<time>2024-03-25T11:43:07.000Z</time>
</trkpt>
<trkpt lat="45.8391050" lon="9.3042690">
	<ele>1157.40</ele>
	<time>2024-03-25T11:43:08.000Z</time>
</trkpt>
<trkpt lat="45.8391120" lon="9.3042760">
	<ele>1157.00</ele>
	<time>2024-03-25T11:43:09.000Z</time>
</trkpt>
<trkpt lat="45.8391180" lon="9.3042870">
	<ele>1156.60</ele>
	<time>2024-03-25T11:43:10.000Z</time>
</trkpt>
<trkpt lat="45.8391250" lon="9.3042970">
	<ele>1156.40</ele>
	<time>2024-03-25T11:43:11.000Z</time>
</trkpt>
<trkpt lat="45.8391320" lon="9.3043080">
	<ele>1156.00</ele>
	<time>2024-03-25T11:43:12.000Z</time>
</trkpt>
<trkpt lat="45.8391380" lon="9.3043210">
	<ele>1155.80</ele>
	<time>2024-03-25T11:43:13.000Z</time>
</trkpt>
<trkpt lat="45.8391410" lon="9.3043340">
	<ele>1155.60</ele>
	<time>2024-03-25T11:43:14.000Z</time>
</trkpt>
<trkpt lat="45.8391450" lon="9.3043470">
	<ele>1155.40</ele>
	<time>2024-03-25T11:43:15.000Z</time>
</trkpt>
<trkpt lat="45.8391470" lon="9.3043580">
	<ele>1155.40</ele>
	<time>2024-03-25T11:43:16.000Z</time>
</trkpt>
<trkpt lat="45.8391520" lon="9.3043650">
	<ele>1155.00</ele>
	<time>2024-03-25T11:43:17.000Z</time>
</trkpt>
<trkpt lat="45.8391570" lon="9.3043730">
	<ele>1154.80</ele>
	<time>2024-03-25T11:43:18.000Z</time>
</trkpt>
<trkpt lat="45.8391650" lon="9.3043820">
	<ele>1154.80</ele>
	<time>2024-03-25T11:43:19.000Z</time>
</trkpt>
<trkpt lat="45.8391700" lon="9.3043890">
	<ele>1154.40</ele>
	<time>2024-03-25T11:43:20.000Z</time>
</trkpt>
<trkpt lat="45.8391770" lon="9.3043970">
	<ele>1154.00</ele>
	<time>2024-03-25T11:43:21.000Z</time>
</trkpt>
<trkpt lat="45.8391830" lon="9.3044050">
	<ele>1153.80</ele>
	<time>2024-03-25T11:43:22.000Z</time>
</trkpt>
<trkpt lat="45.8391880" lon="9.3044090">
	<ele>1153.80</ele>
	<time>2024-03-25T11:43:23.000Z</time>
</trkpt>
<trkpt lat="45.8391940" lon="9.3044120">
	<ele>1153.80</ele>
	<time>2024-03-25T11:43:24.000Z</time>
</trkpt>
<trkpt lat="45.8391990" lon="9.3044150">
	<ele>1153.60</ele>
	<time>2024-03-25T11:43:25.000Z</time>
</trkpt>
<trkpt lat="45.8392040" lon="9.3044240">
	<ele>1153.60</ele>
	<time>2024-03-25T11:43:26.000Z</time>
</trkpt>
<trkpt lat="45.8392090" lon="9.3044350">
	<ele>1153.40</ele>
	<time>2024-03-25T11:43:27.000Z</time>
</trkpt>
<trkpt lat="45.8392130" lon="9.3044460">
	<ele>1153.40</ele>
	<time>2024-03-25T11:43:28.000Z</time>
</trkpt>
<trkpt lat="45.8392200" lon="9.3044550">
	<ele>1153.20</ele>
	<time>2024-03-25T11:43:29.000Z</time>
</trkpt>
<trkpt lat="45.8392270" lon="9.3044630">
	<ele>1153.00</ele>
	<time>2024-03-25T11:43:30.000Z</time>
</trkpt>
<trkpt lat="45.8392330" lon="9.3044690">
	<ele>1153.00</ele>
	<time>2024-03-25T11:43:31.000Z</time>
</trkpt>
<trkpt lat="45.8392390" lon="9.3044720">
	<ele>1153.00</ele>
	<time>2024-03-25T11:43:32.000Z</time>
</trkpt>
<trkpt lat="45.8392490" lon="9.3044770">
	<ele>1152.80</ele>
	<time>2024-03-25T11:43:33.000Z</time>
</trkpt>
<trkpt lat="45.8392540" lon="9.3044820">
	<ele>1152.40</ele>
	<time>2024-03-25T11:43:34.000Z</time>
</trkpt>
<trkpt lat="45.8392580" lon="9.3044850">
	<ele>1152.20</ele>
	<time>2024-03-25T11:43:35.000Z</time>
</trkpt>
<trkpt lat="45.8392610" lon="9.3044910">
	<ele>1151.60</ele>
	<time>2024-03-25T11:43:36.000Z</time>
</trkpt>
<trkpt lat="45.8392650" lon="9.3044990">
	<ele>1151.20</ele>
	<time>2024-03-25T11:43:37.000Z</time>
</trkpt>
<trkpt lat="45.8392670" lon="9.3045050">
	<ele>1150.80</ele>
	<time>2024-03-25T11:43:38.000Z</time>
</trkpt>
<trkpt lat="45.8392700" lon="9.3045130">
	<ele>1150.60</ele>
	<time>2024-03-25T11:43:39.000Z</time>
</trkpt>
<trkpt lat="45.8392750" lon="9.3045210">
	<ele>1150.40</ele>
	<time>2024-03-25T11:43:40.000Z</time>
</trkpt>
<trkpt lat="45.8392810" lon="9.3045300">
	<ele>1150.20</ele>
	<time>2024-03-25T11:43:41.000Z</time>
</trkpt>
<trkpt lat="45.8392840" lon="9.3045350">
	<ele>1150.00</ele>
	<time>2024-03-25T11:43:42.000Z</time>
</trkpt>
<trkpt lat="45.8392880" lon="9.3045410">
	<ele>1149.40</ele>
	<time>2024-03-25T11:43:43.000Z</time>
</trkpt>
<trkpt lat="45.8392900" lon="9.3045480">
	<ele>1149.00</ele>
	<time>2024-03-25T11:43:44.000Z</time>
</trkpt>
<trkpt lat="45.8392910" lon="9.3045560">
	<ele>1148.80</ele>
	<time>2024-03-25T11:43:45.000Z</time>
</trkpt>
<trkpt lat="45.8392940" lon="9.3045630">
	<ele>1148.40</ele>
	<time>2024-03-25T11:43:46.000Z</time>
</trkpt>
<trkpt lat="45.8392930" lon="9.3045680">
	<ele>1147.80</ele>
	<time>2024-03-25T11:43:47.000Z</time>
</trkpt>
<trkpt lat="45.8392910" lon="9.3045760">
	<ele>1147.20</ele>
	<time>2024-03-25T11:43:48.000Z</time>
</trkpt>
<trkpt lat="45.8392910" lon="9.3045840">
	<ele>1146.80</ele>
	<time>2024-03-25T11:43:49.000Z</time>
</trkpt>
<trkpt lat="45.8392910" lon="9.3045960">
	<ele>1146.60</ele>
	<time>2024-03-25T11:43:50.000Z</time>
</trkpt>
<trkpt lat="45.8392920" lon="9.3046080">
	<ele>1146.20</ele>
	<time>2024-03-25T11:43:51.000Z</time>
</trkpt>
<trkpt lat="45.8392930" lon="9.3046200">
	<ele>1146.00</ele>
	<time>2024-03-25T11:43:52.000Z</time>
</trkpt>
<trkpt lat="45.8392960" lon="9.3046340">
	<ele>1145.80</ele>
	<time>2024-03-25T11:43:53.000Z</time>
</trkpt>
<trkpt lat="45.8393000" lon="9.3046480">
	<ele>1145.40</ele>
	<time>2024-03-25T11:43:54.000Z</time>
</trkpt>
<trkpt lat="45.8393040" lon="9.3046620">
	<ele>1145.00</ele>
	<time>2024-03-25T11:43:55.000Z</time>
</trkpt>
<trkpt lat="45.8393070" lon="9.3046780">
	<ele>1144.60</ele>
	<time>2024-03-25T11:43:56.000Z</time>
</trkpt>
<trkpt lat="45.8393090" lon="9.3046910">
	<ele>1144.40</ele>
	<time>2024-03-25T11:43:57.000Z</time>
</trkpt>
<trkpt lat="45.8393120" lon="9.3047040">
	<ele>1144.20</ele>
	<time>2024-03-25T11:43:58.000Z</time>
</trkpt>
<trkpt lat="45.8393150" lon="9.3047170">
	<ele>1144.00</ele>
	<time>2024-03-25T11:43:59.000Z</time>
</trkpt>
<trkpt lat="45.8393180" lon="9.3047270">
	<ele>1144.00</ele>
	<time>2024-03-25T11:44:00.000Z</time>
</trkpt>
<trkpt lat="45.8393190" lon="9.3047390">
	<ele>1143.60</ele>
	<time>2024-03-25T11:44:01.000Z</time>
</trkpt>
<trkpt lat="45.8393210" lon="9.3047500">
	<ele>1143.40</ele>
	<time>2024-03-25T11:44:02.000Z</time>
</trkpt>
<trkpt lat="45.8393230" lon="9.3047630">
	<ele>1143.00</ele>
	<time>2024-03-25T11:44:03.000Z</time>
</trkpt>
<trkpt lat="45.8393250" lon="9.3047750">
	<ele>1142.80</ele>
	<time>2024-03-25T11:44:04.000Z</time>
</trkpt>
<trkpt lat="45.8393290" lon="9.3047880">
	<ele>1142.60</ele>
	<time>2024-03-25T11:44:05.000Z</time>
</trkpt>
<trkpt lat="45.8393300" lon="9.3048030">
	<ele>1142.20</ele>
	<time>2024-03-25T11:44:06.000Z</time>
</trkpt>
<trkpt lat="45.8393320" lon="9.3048150">
	<ele>1142.20</ele>
	<time>2024-03-25T11:44:07.000Z</time>
</trkpt>
<trkpt lat="45.8393360" lon="9.3048230">
	<ele>1142.00</ele>
	<time>2024-03-25T11:44:08.000Z</time>
</trkpt>
<trkpt lat="45.8393410" lon="9.3048330">
	<ele>1141.40</ele>
	<time>2024-03-25T11:44:09.000Z</time>
</trkpt>
<trkpt lat="45.8393470" lon="9.3048450">
	<ele>1141.00</ele>
	<time>2024-03-25T11:44:10.000Z</time>
</trkpt>
<trkpt lat="45.8393510" lon="9.3048580">
	<ele>1140.80</ele>
	<time>2024-03-25T11:44:11.000Z</time>
</trkpt>
<trkpt lat="45.8393540" lon="9.3048710">
	<ele>1140.40</ele>
	<time>2024-03-25T11:44:12.000Z</time>
</trkpt>
<trkpt lat="45.8393590" lon="9.3048850">
	<ele>1140.40</ele>
	<time>2024-03-25T11:44:13.000Z</time>
</trkpt>
<trkpt lat="45.8393620" lon="9.3048960">
	<ele>1140.20</ele>
	<time>2024-03-25T11:44:14.000Z</time>
</trkpt>
<trkpt lat="45.8393640" lon="9.3049060">
	<ele>1139.80</ele>
	<time>2024-03-25T11:44:15.000Z</time>
</trkpt>
<trkpt lat="45.8393660" lon="9.3049150">
	<ele>1139.40</ele>
	<time>2024-03-25T11:44:16.000Z</time>
</trkpt>
<trkpt lat="45.8393690" lon="9.3049240">
	<ele>1139.20</ele>
	<time>2024-03-25T11:44:17.000Z</time>
</trkpt>
<trkpt lat="45.8393720" lon="9.3049320">
	<ele>1139.20</ele>
	<time>2024-03-25T11:44:18.000Z</time>
</trkpt>
<trkpt lat="45.8393770" lon="9.3049420">
	<ele>1139.00</ele>
	<time>2024-03-25T11:44:19.000Z</time>
</trkpt>
<trkpt lat="45.8393800" lon="9.3049540">
	<ele>1138.80</ele>
	<time>2024-03-25T11:44:20.000Z</time>
</trkpt>
<trkpt lat="45.8393830" lon="9.3049660">
	<ele>1138.60</ele>
	<time>2024-03-25T11:44:21.000Z</time>
</trkpt>
<trkpt lat="45.8393850" lon="9.3049810">
	<ele>1138.20</ele>
	<time>2024-03-25T11:44:22.000Z</time>
</trkpt>
<trkpt lat="45.8393890" lon="9.3049950">
	<ele>1137.80</ele>
	<time>2024-03-25T11:44:23.000Z</time>
</trkpt>
<trkpt lat="45.8393930" lon="9.3050060">
	<ele>1137.40</ele>
	<time>2024-03-25T11:44:24.000Z</time>
</trkpt>
<trkpt lat="45.8393950" lon="9.3050190">
	<ele>1137.00</ele>
	<time>2024-03-25T11:44:25.000Z</time>
</trkpt>
<trkpt lat="45.8393980" lon="9.3050280">
	<ele>1136.80</ele>
	<time>2024-03-25T11:44:26.000Z</time>
</trkpt>
<trkpt lat="45.8394020" lon="9.3050400">
	<ele>1136.60</ele>
	<time>2024-03-25T11:44:27.000Z</time>
</trkpt>
<trkpt lat="45.8394050" lon="9.3050490">
	<ele>1136.60</ele>
	<time>2024-03-25T11:44:28.000Z</time>
</trkpt>
<trkpt lat="45.8394090" lon="9.3050610">
	<ele>1136.40</ele>
	<time>2024-03-25T11:44:29.000Z</time>
</trkpt>
<trkpt lat="45.8394130" lon="9.3050740">
	<ele>1136.20</ele>
	<time>2024-03-25T11:44:30.000Z</time>
</trkpt>
<trkpt lat="45.8394150" lon="9.3050890">
	<ele>1136.00</ele>
	<time>2024-03-25T11:44:31.000Z</time>
</trkpt>
<trkpt lat="45.8394160" lon="9.3051030">
	<ele>1135.80</ele>
	<time>2024-03-25T11:44:32.000Z</time>
</trkpt>
<trkpt lat="45.8394190" lon="9.3051170">
	<ele>1135.60</ele>
	<time>2024-03-25T11:44:33.000Z</time>
</trkpt>
<trkpt lat="45.8394220" lon="9.3051310">
	<ele>1135.40</ele>
	<time>2024-03-25T11:44:34.000Z</time>
</trkpt>
<trkpt lat="45.8394230" lon="9.3051430">
	<ele>1135.20</ele>
	<time>2024-03-25T11:44:35.000Z</time>
</trkpt>
<trkpt lat="45.8394260" lon="9.3051570">
	<ele>1135.00</ele>
	<time>2024-03-25T11:44:36.000Z</time>
</trkpt>
<trkpt lat="45.8394270" lon="9.3051690">
	<ele>1135.00</ele>
	<time>2024-03-25T11:44:37.000Z</time>
</trkpt>
<trkpt lat="45.8394300" lon="9.3051820">
	<ele>1134.80</ele>
	<time>2024-03-25T11:44:38.000Z</time>
</trkpt>
<trkpt lat="45.8394340" lon="9.3051980">
	<ele>1134.80</ele>
	<time>2024-03-25T11:44:39.000Z</time>
</trkpt>
<trkpt lat="45.8394370" lon="9.3052140">
	<ele>1134.60</ele>
	<time>2024-03-25T11:44:40.000Z</time>
</trkpt>
<trkpt lat="45.8394390" lon="9.3052290">
	<ele>1134.20</ele>
	<time>2024-03-25T11:44:41.000Z</time>
</trkpt>
<trkpt lat="45.8394410" lon="9.3052400">
	<ele>1133.80</ele>
	<time>2024-03-25T11:44:42.000Z</time>
</trkpt>
<trkpt lat="45.8394460" lon="9.3052530">
	<ele>1133.80</ele>
	<time>2024-03-25T11:44:43.000Z</time>
</trkpt>
<trkpt lat="45.8394490" lon="9.3052670">
	<ele>1133.60</ele>
	<time>2024-03-25T11:44:44.000Z</time>
</trkpt>
<trkpt lat="45.8394500" lon="9.3052790">
	<ele>1133.60</ele>
	<time>2024-03-25T11:44:45.000Z</time>
</trkpt>
<trkpt lat="45.8394530" lon="9.3052900">
	<ele>1133.40</ele>
	<time>2024-03-25T11:44:46.000Z</time>
</trkpt>
<trkpt lat="45.8394560" lon="9.3053010">
	<ele>1133.20</ele>
	<time>2024-03-25T11:44:47.000Z</time>
</trkpt>
<trkpt lat="45.8394570" lon="9.3053160">
	<ele>1133.00</ele>
	<time>2024-03-25T11:44:48.000Z</time>
</trkpt>
<trkpt lat="45.8394550" lon="9.3053310">
	<ele>1133.00</ele>
	<time>2024-03-25T11:44:49.000Z</time>
</trkpt>
<trkpt lat="45.8394540" lon="9.3053480">
	<ele>1132.80</ele>
	<time>2024-03-25T11:44:50.000Z</time>
</trkpt>
<trkpt lat="45.8394570" lon="9.3053660">
	<ele>1132.80</ele>
	<time>2024-03-25T11:44:51.000Z</time>
</trkpt>
<trkpt lat="45.8394580" lon="9.3053830">
	<ele>1132.80</ele>
	<time>2024-03-25T11:44:52.000Z</time>
</trkpt>
<trkpt lat="45.8394600" lon="9.3053970">
	<ele>1132.60</ele>
	<time>2024-03-25T11:44:53.000Z</time>
</trkpt>
<trkpt lat="45.8394610" lon="9.3054080">
	<ele>1132.60</ele>
	<time>2024-03-25T11:44:54.000Z</time>
</trkpt>
<trkpt lat="45.8394630" lon="9.3054220">
	<ele>1132.60</ele>
	<time>2024-03-25T11:44:55.000Z</time>
</trkpt>
<trkpt lat="45.8394640" lon="9.3054390">
	<ele>1132.60</ele>
	<time>2024-03-25T11:44:56.000Z</time>
</trkpt>
<trkpt lat="45.8394640" lon="9.3054560">
	<ele>1132.60</ele>
	<time>2024-03-25T11:44:57.000Z</time>
</trkpt>
<trkpt lat="45.8394630" lon="9.3054740">
	<ele>1132.40</ele>
	<time>2024-03-25T11:44:58.000Z</time>
</trkpt>
<trkpt lat="45.8394620" lon="9.3054890">
	<ele>1132.40</ele>
	<time>2024-03-25T11:44:59.000Z</time>
</trkpt>
<trkpt lat="45.8394600" lon="9.3055050">
	<ele>1132.20</ele>
	<time>2024-03-25T11:45:00.000Z</time>
</trkpt>
<trkpt lat="45.8394580" lon="9.3055200">
	<ele>1131.80</ele>
	<time>2024-03-25T11:45:01.000Z</time>
</trkpt>
<trkpt lat="45.8394550" lon="9.3055360">
	<ele>1131.60</ele>
	<time>2024-03-25T11:45:02.000Z</time>
</trkpt>
<trkpt lat="45.8394560" lon="9.3055500">
	<ele>1131.40</ele>
	<time>2024-03-25T11:45:03.000Z</time>
</trkpt>
<trkpt lat="45.8394570" lon="9.3055670">
	<ele>1131.20</ele>
	<time>2024-03-25T11:45:04.000Z</time>
</trkpt>
<trkpt lat="45.8394580" lon="9.3055820">
	<ele>1131.20</ele>
	<time>2024-03-25T11:45:05.000Z</time>
</trkpt>
<trkpt lat="45.8394570" lon="9.3055930">
	<ele>1131.00</ele>
	<time>2024-03-25T11:45:06.000Z</time>
</trkpt>
<trkpt lat="45.8394570" lon="9.3056110">
	<ele>1130.80</ele>
	<time>2024-03-25T11:45:07.000Z</time>
</trkpt>
<trkpt lat="45.8394570" lon="9.3056280">
	<ele>1130.60</ele>
	<time>2024-03-25T11:45:08.000Z</time>
</trkpt>
<trkpt lat="45.8394560" lon="9.3056430">
	<ele>1130.40</ele>
	<time>2024-03-25T11:45:09.000Z</time>
</trkpt>
<trkpt lat="45.8394530" lon="9.3056610">
	<ele>1130.00</ele>
	<time>2024-03-25T11:45:10.000Z</time>
</trkpt>
<trkpt lat="45.8394490" lon="9.3056790">
	<ele>1130.00</ele>
	<time>2024-03-25T11:45:11.000Z</time>
</trkpt>
<trkpt lat="45.8394450" lon="9.3056970">
	<ele>1129.80</ele>
	<time>2024-03-25T11:45:12.000Z</time>
</trkpt>
<trkpt lat="45.8394410" lon="9.3057160">
	<ele>1129.80</ele>
	<time>2024-03-25T11:45:13.000Z</time>
</trkpt>
<trkpt lat="45.8394400" lon="9.3057340">
	<ele>1129.60</ele>
	<time>2024-03-25T11:45:14.000Z</time>
</trkpt>
<trkpt lat="45.8394400" lon="9.3057520">
	<ele>1129.60</ele>
	<time>2024-03-25T11:45:15.000Z</time>
</trkpt>
<trkpt lat="45.8394410" lon="9.3057710">
	<ele>1129.40</ele>
	<time>2024-03-25T11:45:16.000Z</time>
</trkpt>
<trkpt lat="45.8394400" lon="9.3057860">
	<ele>1129.20</ele>
	<time>2024-03-25T11:45:17.000Z</time>
</trkpt>
<trkpt lat="45.8394400" lon="9.3057910">
	<ele>1129.20</ele>
	<time>2024-03-25T11:45:18.000Z</time>
</trkpt>
<trkpt lat="45.8394360" lon="9.3057910">
	<ele>1129.00</ele>
	<time>2024-03-25T11:45:19.000Z</time>
</trkpt>
<trkpt lat="45.8394280" lon="9.3057860">
	<ele>1128.80</ele>
	<time>2024-03-25T11:45:20.000Z</time>
</trkpt>
<trkpt lat="45.8394190" lon="9.3057800">
	<ele>1128.60</ele>
	<time>2024-03-25T11:45:21.000Z</time>
</trkpt>
<trkpt lat="45.8394100" lon="9.3057740">
	<ele>1128.40</ele>
	<time>2024-03-25T11:45:22.000Z</time>
</trkpt>
<trkpt lat="45.8394010" lon="9.3057720">
	<ele>1128.20</ele>
	<time>2024-03-25T11:45:23.000Z</time>
</trkpt>
<trkpt lat="45.8393940" lon="9.3057740">
	<ele>1128.20</ele>
	<time>2024-03-25T11:45:24.000Z</time>
</trkpt>
<trkpt lat="45.8393900" lon="9.3057770">
	<ele>1128.00</ele>
	<time>2024-03-25T11:45:25.000Z</time>
</trkpt>
<trkpt lat="45.8393850" lon="9.3057760">
	<ele>1128.00</ele>
	<time>2024-03-25T11:45:26.000Z</time>
</trkpt>
<trkpt lat="45.8393790" lon="9.3057770">
	<ele>1128.00</ele>
	<time>2024-03-25T11:45:27.000Z</time>
</trkpt>
<trkpt lat="45.8393720" lon="9.3057810">
	<ele>1128.00</ele>
	<time>2024-03-25T11:45:28.000Z</time>
</trkpt>
<trkpt lat="45.8393660" lon="9.3057850">
	<ele>1127.80</ele>
	<time>2024-03-25T11:45:29.000Z</time>
</trkpt>
<trkpt lat="45.8393600" lon="9.3057950">
	<ele>1127.60</ele>
	<time>2024-03-25T11:45:30.000Z</time>
</trkpt>
<trkpt lat="45.8393570" lon="9.3058070">
	<ele>1127.20</ele>
	<time>2024-03-25T11:45:31.000Z</time>
</trkpt>
<trkpt lat="45.8393540" lon="9.3058190">
	<ele>1126.80</ele>
	<time>2024-03-25T11:45:32.000Z</time>
</trkpt>
<trkpt lat="45.8393530" lon="9.3058350">
	<ele>1126.60</ele>
	<time>2024-03-25T11:45:33.000Z</time>
</trkpt>
<trkpt lat="45.8393540" lon="9.3058510">
	<ele>1126.40</ele>
	<time>2024-03-25T11:45:34.000Z</time>
</trkpt>
<trkpt lat="45.8393560" lon="9.3058670">
	<ele>1126.20</ele>
	<time>2024-03-25T11:45:35.000Z</time>
</trkpt>
<trkpt lat="45.8393600" lon="9.3058840">
	<ele>1126.20</ele>
	<time>2024-03-25T11:45:36.000Z</time>
</trkpt>
<trkpt lat="45.8393650" lon="9.3059010">
	<ele>1126.00</ele>
	<time>2024-03-25T11:45:37.000Z</time>
</trkpt>
<trkpt lat="45.8393740" lon="9.3059170">
	<ele>1126.00</ele>
	<time>2024-03-25T11:45:38.000Z</time>
</trkpt>
<trkpt lat="45.8393790" lon="9.3059350">
	<ele>1125.80</ele>
	<time>2024-03-25T11:45:39.000Z</time>
</trkpt>
<trkpt lat="45.8393870" lon="9.3059490">
	<ele>1125.80</ele>
	<time>2024-03-25T11:45:40.000Z</time>
</trkpt>
<trkpt lat="45.8393930" lon="9.3059590">
	<ele>1125.80</ele>
	<time>2024-03-25T11:45:41.000Z</time>
</trkpt>
<trkpt lat="45.8393990" lon="9.3059700">
	<ele>1125.60</ele>
	<time>2024-03-25T11:45:42.000Z</time>
</trkpt>
<trkpt lat="45.8394050" lon="9.3059830">
	<ele>1125.60</ele>
	<time>2024-03-25T11:45:43.000Z</time>
</trkpt>
<trkpt lat="45.8394110" lon="9.3060000">
	<ele>1125.40</ele>
	<time>2024-03-25T11:45:44.000Z</time>
</trkpt>
<trkpt lat="45.8394180" lon="9.3060170">
	<ele>1125.40</ele>
	<time>2024-03-25T11:45:45.000Z</time>
</trkpt>
<trkpt lat="45.8394250" lon="9.3060370">
	<ele>1125.40</ele>
	<time>2024-03-25T11:45:46.000Z</time>
</trkpt>
<trkpt lat="45.8394330" lon="9.3060530">
	<ele>1125.40</ele>
	<time>2024-03-25T11:45:47.000Z</time>
</trkpt>
<trkpt lat="45.8394370" lon="9.3060720">
	<ele>1125.40</ele>
	<time>2024-03-25T11:45:48.000Z</time>
</trkpt>
<trkpt lat="45.8394420" lon="9.3060850">
	<ele>1125.40</ele>
	<time>2024-03-25T11:45:49.000Z</time>
</trkpt>
<trkpt lat="45.8394490" lon="9.3060980">
	<ele>1125.40</ele>
	<time>2024-03-25T11:45:50.000Z</time>
</trkpt>
<trkpt lat="45.8394570" lon="9.3061120">
	<ele>1125.40</ele>
	<time>2024-03-25T11:45:51.000Z</time>
</trkpt>
<trkpt lat="45.8394620" lon="9.3061240">
	<ele>1125.40</ele>
	<time>2024-03-25T11:45:52.000Z</time>
</trkpt>
<trkpt lat="45.8394700" lon="9.3061350">
	<ele>1125.40</ele>
	<time>2024-03-25T11:45:53.000Z</time>
</trkpt>
<trkpt lat="45.8394750" lon="9.3061480">
	<ele>1125.40</ele>
	<time>2024-03-25T11:45:54.000Z</time>
</trkpt>
<trkpt lat="45.8394830" lon="9.3061600">
	<ele>1125.40</ele>
	<time>2024-03-25T11:45:55.000Z</time>
</trkpt>
<trkpt lat="45.8394900" lon="9.3061730">
	<ele>1125.40</ele>
	<time>2024-03-25T11:45:56.000Z</time>
</trkpt>
<trkpt lat="45.8394960" lon="9.3061880">
	<ele>1125.40</ele>
	<time>2024-03-25T11:45:57.000Z</time>
</trkpt>
<trkpt lat="45.8395030" lon="9.3062030">
	<ele>1125.40</ele>
	<time>2024-03-25T11:45:58.000Z</time>
</trkpt>
<trkpt lat="45.8395100" lon="9.3062180">
	<ele>1125.60</ele>
	<time>2024-03-25T11:45:59.000Z</time>
</trkpt>
<trkpt lat="45.8395160" lon="9.3062320">
	<ele>1125.60</ele>
	<time>2024-03-25T11:46:00.000Z</time>
</trkpt>
<trkpt lat="45.8395230" lon="9.3062440">
	<ele>1125.60</ele>
	<time>2024-03-25T11:46:01.000Z</time>
</trkpt>
<trkpt lat="45.8395280" lon="9.3062580">
	<ele>1125.60</ele>
	<time>2024-03-25T11:46:02.000Z</time>
</trkpt>
<trkpt lat="45.8395330" lon="9.3062730">
	<ele>1125.60</ele>
	<time>2024-03-25T11:46:03.000Z</time>
</trkpt>
<trkpt lat="45.8395400" lon="9.3062900">
	<ele>1125.60</ele>
	<time>2024-03-25T11:46:04.000Z</time>
</trkpt>
<trkpt lat="45.8395430" lon="9.3063060">
	<ele>1125.60</ele>
	<time>2024-03-25T11:46:05.000Z</time>
</trkpt>
<trkpt lat="45.8395430" lon="9.3063190">
	<ele>1125.40</ele>
	<time>2024-03-25T11:46:06.000Z</time>
</trkpt>
<trkpt lat="45.8395460" lon="9.3063320">
	<ele>1125.40</ele>
	<time>2024-03-25T11:46:07.000Z</time>
</trkpt>
<trkpt lat="45.8395530" lon="9.3063420">
	<ele>1125.40</ele>
	<time>2024-03-25T11:46:08.000Z</time>
</trkpt>
<trkpt lat="45.8395630" lon="9.3063560">
	<ele>1125.40</ele>
	<time>2024-03-25T11:46:09.000Z</time>
</trkpt>
<trkpt lat="45.8395730" lon="9.3063700">
	<ele>1125.40</ele>
	<time>2024-03-25T11:46:10.000Z</time>
</trkpt>
<trkpt lat="45.8395800" lon="9.3063840">
	<ele>1125.40</ele>
	<time>2024-03-25T11:46:11.000Z</time>
</trkpt>
<trkpt lat="45.8395870" lon="9.3063960">
	<ele>1125.40</ele>
	<time>2024-03-25T11:46:12.000Z</time>
</trkpt>
<trkpt lat="45.8395910" lon="9.3064080">
	<ele>1125.40</ele>
	<time>2024-03-25T11:46:13.000Z</time>
</trkpt>
<trkpt lat="45.8395960" lon="9.3064230">
	<ele>1125.60</ele>
	<time>2024-03-25T11:46:14.000Z</time>
</trkpt>
<trkpt lat="45.8396020" lon="9.3064370">
	<ele>1125.60</ele>
	<time>2024-03-25T11:46:15.000Z</time>
</trkpt>
<trkpt lat="45.8396080" lon="9.3064530">
	<ele>1125.60</ele>
	<time>2024-03-25T11:46:16.000Z</time>
</trkpt>
<trkpt lat="45.8396130" lon="9.3064680">
	<ele>1125.60</ele>
	<time>2024-03-25T11:46:17.000Z</time>
</trkpt>
<trkpt lat="45.8396190" lon="9.3064810">
	<ele>1125.60</ele>
	<time>2024-03-25T11:46:18.000Z</time>
</trkpt>
<trkpt lat="45.8396220" lon="9.3064960">
	<ele>1125.40</ele>
	<time>2024-03-25T11:46:19.000Z</time>
</trkpt>
<trkpt lat="45.8396240" lon="9.3065110">
	<ele>1125.40</ele>
	<time>2024-03-25T11:46:20.000Z</time>
</trkpt>
<trkpt lat="45.8396240" lon="9.3065250">
	<ele>1125.40</ele>
	<time>2024-03-25T11:46:21.000Z</time>
</trkpt>
<trkpt lat="45.8396250" lon="9.3065340">
	<ele>1125.20</ele>
	<time>2024-03-25T11:46:22.000Z</time>
</trkpt>
<trkpt lat="45.8396260" lon="9.3065380">
	<ele>1125.40</ele>
	<time>2024-03-25T11:46:23.000Z</time>
</trkpt>
<trkpt lat="45.8396260" lon="9.3065390">
	<ele>1125.60</ele>
	<time>2024-03-25T11:46:24.000Z</time>
</trkpt>
<trkpt lat="45.8396270" lon="9.3065380">
	<ele>1125.60</ele>
	<time>2024-03-25T11:46:25.000Z</time>
</trkpt>
<trkpt lat="45.8396280" lon="9.3065370">
	<ele>1125.60</ele>
	<time>2024-03-25T11:46:26.000Z</time>
</trkpt>
<trkpt lat="45.8396290" lon="9.3065390">
	<ele>1125.60</ele>
	<time>2024-03-25T11:46:27.000Z</time>
</trkpt>
<trkpt lat="45.8396280" lon="9.3065400">
	<ele>1125.40</ele>
	<time>2024-03-25T11:46:28.000Z</time>
</trkpt>
<trkpt lat="45.8396270" lon="9.3065410">
	<ele>1125.40</ele>
	<time>2024-03-25T11:46:29.000Z</time>
</trkpt>
<trkpt lat="45.8396250" lon="9.3065430">
	<ele>1125.40</ele>
	<time>2024-03-25T11:46:30.000Z</time>
</trkpt>
<trkpt lat="45.8396250" lon="9.3065470">
	<ele>1125.20</ele>
	<time>2024-03-25T11:46:31.000Z</time>
</trkpt>
<trkpt lat="45.8396280" lon="9.3065500">
	<ele>1125.20</ele>
	<time>2024-03-25T11:46:32.000Z</time>
</trkpt>
<trkpt lat="45.8396320" lon="9.3065510">
	<ele>1125.20</ele>
	<time>2024-03-25T11:46:33.000Z</time>
</trkpt>
<trkpt lat="45.8396300" lon="9.3065530">
	<ele>1125.40</ele>
	<time>2024-03-25T11:46:34.000Z</time>
</trkpt>
<trkpt lat="45.8396300" lon="9.3065530">
	<ele>1125.40</ele>
	<time>2024-03-25T11:46:35.000Z</time>
</trkpt>
<trkpt lat="45.8396320" lon="9.3065500">
	<ele>1125.40</ele>
	<time>2024-03-25T11:46:36.000Z</time>
</trkpt>
<trkpt lat="45.8396310" lon="9.3065500">
	<ele>1125.40</ele>
	<time>2024-03-25T11:46:37.000Z</time>
</trkpt>
<trkpt lat="45.8396310" lon="9.3065500">
	<ele>1125.40</ele>
	<time>2024-03-25T11:46:38.000Z</time>
</trkpt>
<trkpt lat="45.8396310" lon="9.3065500">
	<ele>1125.40</ele>
	<time>2024-03-25T11:46:39.000Z</time>
</trkpt>
<trkpt lat="45.8396310" lon="9.3065490">
	<ele>1125.40</ele>
	<time>2024-03-25T11:46:40.000Z</time>
</trkpt>
<trkpt lat="45.8396310" lon="9.3065490">
	<ele>1125.40</ele>
	<time>2024-03-25T11:46:41.000Z</time>
</trkpt>
<trkpt lat="45.8396310" lon="9.3065490">
	<ele>1125.40</ele>
	<time>2024-03-25T11:46:42.000Z</time>
</trkpt>
<trkpt lat="45.8396310" lon="9.3065490">
	<ele>1125.40</ele>
	<time>2024-03-25T11:46:43.000Z</time>
</trkpt>
<trkpt lat="45.8396310" lon="9.3065490">
	<ele>1125.60</ele>
	<time>2024-03-25T11:46:44.000Z</time>
</trkpt>
<trkpt lat="45.8396310" lon="9.3065490">
	<ele>1125.60</ele>
	<time>2024-03-25T11:46:45.000Z</time>
</trkpt>
<trkpt lat="45.8396310" lon="9.3065490">
	<ele>1125.60</ele>
	<time>2024-03-25T11:46:46.000Z</time>
</trkpt>
<trkpt lat="45.8396310" lon="9.3065490">
	<ele>1125.80</ele>
	<time>2024-03-25T11:46:47.000Z</time>
</trkpt>
<trkpt lat="45.8396310" lon="9.3065490">
	<ele>1125.80</ele>
	<time>2024-03-25T11:46:48.000Z</time>
</trkpt>
<trkpt lat="45.8396310" lon="9.3065490">
	<ele>1125.80</ele>
	<time>2024-03-25T11:46:49.000Z</time>
</trkpt>
<trkpt lat="45.8396310" lon="9.3065500">
	<ele>1125.80</ele>
	<time>2024-03-25T11:46:50.000Z</time>
</trkpt>
<trkpt lat="45.8396310" lon="9.3065500">
	<ele>1126.00</ele>
	<time>2024-03-25T11:46:51.000Z</time>
</trkpt>
<trkpt lat="45.8396310" lon="9.3065500">
	<ele>1126.00</ele>
	<time>2024-03-25T11:46:52.000Z</time>
</trkpt>
<trkpt lat="45.8396310" lon="9.3065500">
	<ele>1126.00</ele>
	<time>2024-03-25T11:46:53.000Z</time>
</trkpt>
<trkpt lat="45.8396310" lon="9.3065510">
	<ele>1126.00</ele>
	<time>2024-03-25T11:46:54.000Z</time>
</trkpt>
<trkpt lat="45.8396310" lon="9.3065510">
	<ele>1126.00</ele>
	<time>2024-03-25T11:46:55.000Z</time>
</trkpt>
<trkpt lat="45.8396310" lon="9.3065520">
	<ele>1126.00</ele>
	<time>2024-03-25T11:46:56.000Z</time>
</trkpt>
<trkpt lat="45.8396300" lon="9.3065520">
	<ele>1126.00</ele>
	<time>2024-03-25T11:46:57.000Z</time>
</trkpt>
<trkpt lat="45.8396300" lon="9.3065530">
	<ele>1126.00</ele>
	<time>2024-03-25T11:46:58.000Z</time>
</trkpt>
<trkpt lat="45.8396300" lon="9.3065530">
	<ele>1126.00</ele>
	<time>2024-03-25T11:46:59.000Z</time>
</trkpt>
<trkpt lat="45.8396300" lon="9.3065530">
	<ele>1125.80</ele>
	<time>2024-03-25T11:47:00.000Z</time>
</trkpt>
<trkpt lat="45.8396300" lon="9.3065530">
	<ele>1125.80</ele>
	<time>2024-03-25T11:47:01.000Z</time>
</trkpt>
<trkpt lat="45.8396300" lon="9.3065530">
	<ele>1125.80</ele>
	<time>2024-03-25T11:47:02.000Z</time>
</trkpt>
<trkpt lat="45.8396300" lon="9.3065540">
	<ele>1125.80</ele>
	<time>2024-03-25T11:47:03.000Z</time>
</trkpt>
<trkpt lat="45.8396300" lon="9.3065550">
	<ele>1125.80</ele>
	<time>2024-03-25T11:47:04.000Z</time>
</trkpt>
<trkpt lat="45.8396300" lon="9.3065550">
	<ele>1125.80</ele>
	<time>2024-03-25T11:47:05.000Z</time>
</trkpt>
<trkpt lat="45.8396300" lon="9.3065570">
	<ele>1126.00</ele>
	<time>2024-03-25T11:47:06.000Z</time>
</trkpt>
<trkpt lat="45.8396300" lon="9.3065580">
	<ele>1126.00</ele>
	<time>2024-03-25T11:47:07.000Z</time>
</trkpt>
<trkpt lat="45.8396300" lon="9.3065590">
	<ele>1126.20</ele>
	<time>2024-03-25T11:47:08.000Z</time>
</trkpt>
<trkpt lat="45.8396300" lon="9.3065600">
	<ele>1126.20</ele>
	<time>2024-03-25T11:47:09.000Z</time>
</trkpt>
<trkpt lat="45.8396300" lon="9.3065610">
	<ele>1126.40</ele>
	<time>2024-03-25T11:47:10.000Z</time>
</trkpt>
<trkpt lat="45.8396300" lon="9.3065630">
	<ele>1126.40</ele>
	<time>2024-03-25T11:47:11.000Z</time>
</trkpt>
<trkpt lat="45.8396300" lon="9.3065650">
	<ele>1126.40</ele>
	<time>2024-03-25T11:47:12.000Z</time>
</trkpt>
<trkpt lat="45.8396300" lon="9.3065660">
	<ele>1126.20</ele>
	<time>2024-03-25T11:47:13.000Z</time>
</trkpt>
<trkpt lat="45.8396310" lon="9.3065660">
	<ele>1126.00</ele>
	<time>2024-03-25T11:47:14.000Z</time>
</trkpt>
<trkpt lat="45.8396310" lon="9.3065660">
	<ele>1126.00</ele>
	<time>2024-03-25T11:47:15.000Z</time>
</trkpt>
<trkpt lat="45.8396320" lon="9.3065660">
	<ele>1125.80</ele>
	<time>2024-03-25T11:47:16.000Z</time>
</trkpt>
<trkpt lat="45.8396320" lon="9.3065660">
	<ele>1125.80</ele>
	<time>2024-03-25T11:47:17.000Z</time>
</trkpt>
<trkpt lat="45.8396320" lon="9.3065660">
	<ele>1125.60</ele>
	<time>2024-03-25T11:47:18.000Z</time>
</trkpt>
<trkpt lat="45.8396330" lon="9.3065660">
	<ele>1125.60</ele>
	<time>2024-03-25T11:47:19.000Z</time>
</trkpt>
<trkpt lat="45.8396330" lon="9.3065660">
	<ele>1125.80</ele>
	<time>2024-03-25T11:47:20.000Z</time>
</trkpt>
<trkpt lat="45.8396330" lon="9.3065660">
	<ele>1125.80</ele>
	<time>2024-03-25T11:47:21.000Z</time>
</trkpt>
<trkpt lat="45.8396340" lon="9.3065660">
	<ele>1125.80</ele>
	<time>2024-03-25T11:47:22.000Z</time>
</trkpt>
<trkpt lat="45.8396340" lon="9.3065660">
	<ele>1125.80</ele>
	<time>2024-03-25T11:47:23.000Z</time>
</trkpt>
<trkpt lat="45.8396340" lon="9.3065660">
	<ele>1125.80</ele>
	<time>2024-03-25T11:47:24.000Z</time>
</trkpt>
<trkpt lat="45.8396350" lon="9.3065660">
	<ele>1125.80</ele>
	<time>2024-03-25T11:47:25.000Z</time>
</trkpt>
<trkpt lat="45.8396350" lon="9.3065660">
	<ele>1125.60</ele>
	<time>2024-03-25T11:47:26.000Z</time>
</trkpt>
<trkpt lat="45.8396350" lon="9.3065660">
	<ele>1125.60</ele>
	<time>2024-03-25T11:47:27.000Z</time>
</trkpt>
<trkpt lat="45.8396350" lon="9.3065650">
	<ele>1125.60</ele>
	<time>2024-03-25T11:47:28.000Z</time>
</trkpt>
<trkpt lat="45.8396360" lon="9.3065640">
	<ele>1125.60</ele>
	<time>2024-03-25T11:47:29.000Z</time>
</trkpt>
<trkpt lat="45.8396360" lon="9.3065620">
	<ele>1125.40</ele>
	<time>2024-03-25T11:47:30.000Z</time>
</trkpt>
<trkpt lat="45.8396360" lon="9.3065600">
	<ele>1125.40</ele>
	<time>2024-03-25T11:47:31.000Z</time>
</trkpt>
<trkpt lat="45.8396370" lon="9.3065600">
	<ele>1125.40</ele>
	<time>2024-03-25T11:47:32.000Z</time>
</trkpt>
<trkpt lat="45.8396370" lon="9.3065590">
	<ele>1125.40</ele>
	<time>2024-03-25T11:47:33.000Z</time>
</trkpt>
<trkpt lat="45.8396380" lon="9.3065590">
	<ele>1125.40</ele>
	<time>2024-03-25T11:47:34.000Z</time>
</trkpt>
<trkpt lat="45.8396380" lon="9.3065590">
	<ele>1125.40</ele>
	<time>2024-03-25T11:47:35.000Z</time>
</trkpt>
<trkpt lat="45.8396390" lon="9.3065590">
	<ele>1125.40</ele>
	<time>2024-03-25T11:47:36.000Z</time>
</trkpt>
<trkpt lat="45.8396390" lon="9.3065580">
	<ele>1125.40</ele>
	<time>2024-03-25T11:47:37.000Z</time>
</trkpt>
<trkpt lat="45.8396390" lon="9.3065570">
	<ele>1125.40</ele>
	<time>2024-03-25T11:47:38.000Z</time>
</trkpt>
<trkpt lat="45.8396390" lon="9.3065570">
	<ele>1125.40</ele>
	<time>2024-03-25T11:47:39.000Z</time>
</trkpt>
<trkpt lat="45.8396400" lon="9.3065560">
	<ele>1125.40</ele>
	<time>2024-03-25T11:47:40.000Z</time>
</trkpt>
<trkpt lat="45.8396400" lon="9.3065550">
	<ele>1125.20</ele>
	<time>2024-03-25T11:47:41.000Z</time>
</trkpt>
<trkpt lat="45.8396400" lon="9.3065540">
	<ele>1125.20</ele>
	<time>2024-03-25T11:47:42.000Z</time>
</trkpt>
<trkpt lat="45.8396410" lon="9.3065530">
	<ele>1125.20</ele>
	<time>2024-03-25T11:47:43.000Z</time>
</trkpt>
<trkpt lat="45.8396420" lon="9.3065520">
	<ele>1125.20</ele>
	<time>2024-03-25T11:47:44.000Z</time>
</trkpt>
<trkpt lat="45.8396420" lon="9.3065510">
	<ele>1125.20</ele>
	<time>2024-03-25T11:47:45.000Z</time>
</trkpt>
<trkpt lat="45.8396420" lon="9.3065500">
	<ele>1125.20</ele>
	<time>2024-03-25T11:47:46.000Z</time>
</trkpt>
<trkpt lat="45.8396420" lon="9.3065490">
	<ele>1125.20</ele>
	<time>2024-03-25T11:47:47.000Z</time>
</trkpt>
<trkpt lat="45.8396420" lon="9.3065490">
	<ele>1125.20</ele>
	<time>2024-03-25T11:47:48.000Z</time>
</trkpt>
<trkpt lat="45.8396430" lon="9.3065480">
	<ele>1125.20</ele>
	<time>2024-03-25T11:47:49.000Z</time>
</trkpt>
<trkpt lat="45.8396430" lon="9.3065480">
	<ele>1125.00</ele>
	<time>2024-03-25T11:47:50.000Z</time>
</trkpt>
<trkpt lat="45.8396430" lon="9.3065480">
	<ele>1125.00</ele>
	<time>2024-03-25T11:47:51.000Z</time>
</trkpt>
<trkpt lat="45.8396430" lon="9.3065480">
	<ele>1125.00</ele>
	<time>2024-03-25T11:47:52.000Z</time>
</trkpt>
<trkpt lat="45.8396430" lon="9.3065470">
	<ele>1125.00</ele>
	<time>2024-03-25T11:47:53.000Z</time>
</trkpt>
<trkpt lat="45.8396430" lon="9.3065470">
	<ele>1125.00</ele>
	<time>2024-03-25T11:47:54.000Z</time>
</trkpt>
<trkpt lat="45.8396430" lon="9.3065470">
	<ele>1125.00</ele>
	<time>2024-03-25T11:47:55.000Z</time>
</trkpt>
<trkpt lat="45.8396430" lon="9.3065470">
	<ele>1125.00</ele>
	<time>2024-03-25T11:47:56.000Z</time>
</trkpt>
<trkpt lat="45.8396430" lon="9.3065460">
	<ele>1125.00</ele>
	<time>2024-03-25T11:47:57.000Z</time>
</trkpt>
<trkpt lat="45.8396430" lon="9.3065450">
	<ele>1125.00</ele>
	<time>2024-03-25T11:47:58.000Z</time>
</trkpt>
<trkpt lat="45.8396430" lon="9.3065440">
	<ele>1125.00</ele>
	<time>2024-03-25T11:47:59.000Z</time>
</trkpt>
<trkpt lat="45.8396430" lon="9.3065430">
	<ele>1125.00</ele>
	<time>2024-03-25T11:48:00.000Z</time>
</trkpt>
<trkpt lat="45.8396430" lon="9.3065420">
	<ele>1125.20</ele>
	<time>2024-03-25T11:48:01.000Z</time>
</trkpt>
<trkpt lat="45.8396430" lon="9.3065410">
	<ele>1125.20</ele>
	<time>2024-03-25T11:48:02.000Z</time>
</trkpt>
<trkpt lat="45.8396420" lon="9.3065390">
	<ele>1125.20</ele>
	<time>2024-03-25T11:48:03.000Z</time>
</trkpt>
<trkpt lat="45.8396420" lon="9.3065370">
	<ele>1125.20</ele>
	<time>2024-03-25T11:48:04.000Z</time>
</trkpt>
<trkpt lat="45.8396420" lon="9.3065360">
	<ele>1125.40</ele>
	<time>2024-03-25T11:48:05.000Z</time>
</trkpt>
<trkpt lat="45.8396420" lon="9.3065360">
	<ele>1125.40</ele>
	<time>2024-03-25T11:48:06.000Z</time>
</trkpt>
<trkpt lat="45.8396420" lon="9.3065360">
	<ele>1125.20</ele>
	<time>2024-03-25T11:48:07.000Z</time>
</trkpt>
<trkpt lat="45.8396420" lon="9.3065350">
	<ele>1125.40</ele>
	<time>2024-03-25T11:48:08.000Z</time>
</trkpt>
<trkpt lat="45.8396420" lon="9.3065350">
	<ele>1125.40</ele>
	<time>2024-03-25T11:48:09.000Z</time>
</trkpt>
<trkpt lat="45.8396420" lon="9.3065350">
	<ele>1125.40</ele>
	<time>2024-03-25T11:48:10.000Z</time>
</trkpt>
<trkpt lat="45.8396420" lon="9.3065340">
	<ele>1125.20</ele>
	<time>2024-03-25T11:48:11.000Z</time>
</trkpt>
<trkpt lat="45.8396420" lon="9.3065340">
	<ele>1125.20</ele>
	<time>2024-03-25T11:48:12.000Z</time>
</trkpt>
<trkpt lat="45.8396420" lon="9.3065330">
	<ele>1125.20</ele>
	<time>2024-03-25T11:48:13.000Z</time>
</trkpt>
<trkpt lat="45.8396420" lon="9.3065320">
	<ele>1125.20</ele>
	<time>2024-03-25T11:48:14.000Z</time>
</trkpt>
<trkpt lat="45.8396420" lon="9.3065320">
	<ele>1125.20</ele>
	<time>2024-03-25T11:48:15.000Z</time>
</trkpt>
<trkpt lat="45.8396420" lon="9.3065320">
	<ele>1125.20</ele>
	<time>2024-03-25T11:48:16.000Z</time>
</trkpt>
<trkpt lat="45.8396420" lon="9.3065310">
	<ele>1125.00</ele>
	<time>2024-03-25T11:48:17.000Z</time>
</trkpt>
<trkpt lat="45.8396420" lon="9.3065310">
	<ele>1125.00</ele>
	<time>2024-03-25T11:48:18.000Z</time>
</trkpt>
<trkpt lat="45.8396420" lon="9.3065310">
	<ele>1125.00</ele>
	<time>2024-03-25T11:48:19.000Z</time>
</trkpt>
<trkpt lat="45.8396420" lon="9.3065310">
	<ele>1125.00</ele>
	<time>2024-03-25T11:48:20.000Z</time>
</trkpt>
<trkpt lat="45.8396430" lon="9.3065320">
	<ele>1125.00</ele>
	<time>2024-03-25T11:48:21.000Z</time>
</trkpt>
<trkpt lat="45.8396430" lon="9.3065320">
	<ele>1125.00</ele>
	<time>2024-03-25T11:48:22.000Z</time>
</trkpt>
<trkpt lat="45.8396430" lon="9.3065330">
	<ele>1125.20</ele>
	<time>2024-03-25T11:48:23.000Z</time>
</trkpt>
<trkpt lat="45.8396440" lon="9.3065330">
	<ele>1125.20</ele>
	<time>2024-03-25T11:48:24.000Z</time>
</trkpt>
<trkpt lat="45.8396440" lon="9.3065330">
	<ele>1125.20</ele>
	<time>2024-03-25T11:48:25.000Z</time>
</trkpt>
<trkpt lat="45.8396440" lon="9.3065330">
	<ele>1125.20</ele>
	<time>2024-03-25T11:48:26.000Z</time>
</trkpt>
<trkpt lat="45.8396440" lon="9.3065330">
	<ele>1125.20</ele>
	<time>2024-03-25T11:48:27.000Z</time>
</trkpt>
<trkpt lat="45.8396440" lon="9.3065340">
	<ele>1125.00</ele>
	<time>2024-03-25T11:48:28.000Z</time>
</trkpt>
<trkpt lat="45.8396440" lon="9.3065340">
	<ele>1125.00</ele>
	<time>2024-03-25T11:48:29.000Z</time>
</trkpt>
<trkpt lat="45.8396440" lon="9.3065340">
	<ele>1125.00</ele>
	<time>2024-03-25T11:48:30.000Z</time>
</trkpt>
<trkpt lat="45.8396440" lon="9.3065350">
	<ele>1125.00</ele>
	<time>2024-03-25T11:48:31.000Z</time>
</trkpt>
<trkpt lat="45.8396440" lon="9.3065350">
	<ele>1125.00</ele>
	<time>2024-03-25T11:48:32.000Z</time>
</trkpt>
<trkpt lat="45.8396440" lon="9.3065350">
	<ele>1125.00</ele>
	<time>2024-03-25T11:48:33.000Z</time>
</trkpt>
<trkpt lat="45.8396450" lon="9.3065350">
	<ele>1125.20</ele>
	<time>2024-03-25T11:48:34.000Z</time>
</trkpt>
<trkpt lat="45.8396450" lon="9.3065350">
	<ele>1125.20</ele>
	<time>2024-03-25T11:48:35.000Z</time>
</trkpt>
<trkpt lat="45.8396450" lon="9.3065350">
	<ele>1125.20</ele>
	<time>2024-03-25T11:48:36.000Z</time>
</trkpt>
<trkpt lat="45.8396460" lon="9.3065340">
	<ele>1125.20</ele>
	<time>2024-03-25T11:48:37.000Z</time>
</trkpt>
<trkpt lat="45.8396460" lon="9.3065340">
	<ele>1125.20</ele>
	<time>2024-03-25T11:48:38.000Z</time>
</trkpt>
<trkpt lat="45.8396460" lon="9.3065340">
	<ele>1125.20</ele>
	<time>2024-03-25T11:48:39.000Z</time>
</trkpt>
<trkpt lat="45.8396460" lon="9.3065340">
	<ele>1125.20</ele>
	<time>2024-03-25T11:48:40.000Z</time>
</trkpt>
<trkpt lat="45.8396470" lon="9.3065340">
	<ele>1125.20</ele>
	<time>2024-03-25T11:48:41.000Z</time>
</trkpt>
<trkpt lat="45.8396470" lon="9.3065340">
	<ele>1125.40</ele>
	<time>2024-03-25T11:48:42.000Z</time>
</trkpt>
<trkpt lat="45.8396470" lon="9.3065340">
	<ele>1125.40</ele>
	<time>2024-03-25T11:48:43.000Z</time>
</trkpt>
<trkpt lat="45.8396470" lon="9.3065340">
	<ele>1125.20</ele>
	<time>2024-03-25T11:48:44.000Z</time>
</trkpt>
<trkpt lat="45.8396470" lon="9.3065340">
	<ele>1125.20</ele>
	<time>2024-03-25T11:48:45.000Z</time>
</trkpt>
<trkpt lat="45.8396480" lon="9.3065340">
	<ele>1125.20</ele>
	<time>2024-03-25T11:48:46.000Z</time>
</trkpt>
<trkpt lat="45.8396500" lon="9.3065340">
	<ele>1125.20</ele>
	<time>2024-03-25T11:48:47.000Z</time>
</trkpt>
<trkpt lat="45.8396520" lon="9.3065330">
	<ele>1125.20</ele>
	<time>2024-03-25T11:48:48.000Z</time>
</trkpt>
<trkpt lat="45.8396550" lon="9.3065310">
	<ele>1125.20</ele>
	<time>2024-03-25T11:48:49.000Z</time>
</trkpt>
<trkpt lat="45.8396590" lon="9.3065290">
	<ele>1125.20</ele>
	<time>2024-03-25T11:48:50.000Z</time>
</trkpt>
<trkpt lat="45.8396610" lon="9.3065280">
	<ele>1125.20</ele>
	<time>2024-03-25T11:48:51.000Z</time>
</trkpt>
<trkpt lat="45.8396620" lon="9.3065270">
	<ele>1125.20</ele>
	<time>2024-03-25T11:48:52.000Z</time>
</trkpt>
<trkpt lat="45.8396630" lon="9.3065250">
	<ele>1125.20</ele>
	<time>2024-03-25T11:48:53.000Z</time>
</trkpt>
<trkpt lat="45.8396640" lon="9.3065240">
	<ele>1125.20</ele>
	<time>2024-03-25T11:48:54.000Z</time>
</trkpt>
<trkpt lat="45.8396640" lon="9.3065240">
	<ele>1125.20</ele>
	<time>2024-03-25T11:48:55.000Z</time>
</trkpt>
<trkpt lat="45.8396650" lon="9.3065230">
	<ele>1125.20</ele>
	<time>2024-03-25T11:48:56.000Z</time>
</trkpt>
<trkpt lat="45.8396670" lon="9.3065210">
	<ele>1125.20</ele>
	<time>2024-03-25T11:48:57.000Z</time>
</trkpt>
<trkpt lat="45.8396680" lon="9.3065190">
	<ele>1125.20</ele>
	<time>2024-03-25T11:48:58.000Z</time>
</trkpt>
<trkpt lat="45.8396690" lon="9.3065170">
	<ele>1125.20</ele>
	<time>2024-03-25T11:48:59.000Z</time>
</trkpt>
<trkpt lat="45.8396690" lon="9.3065160">
	<ele>1125.20</ele>
	<time>2024-03-25T11:49:00.000Z</time>
</trkpt>
<trkpt lat="45.8396700" lon="9.3065140">
	<ele>1125.00</ele>
	<time>2024-03-25T11:49:01.000Z</time>
</trkpt>
<trkpt lat="45.8396700" lon="9.3065130">
	<ele>1125.00</ele>
	<time>2024-03-25T11:49:02.000Z</time>
</trkpt>
<trkpt lat="45.8396710" lon="9.3065120">
	<ele>1125.00</ele>
	<time>2024-03-25T11:49:03.000Z</time>
</trkpt>
<trkpt lat="45.8396710" lon="9.3065100">
	<ele>1125.00</ele>
	<time>2024-03-25T11:49:04.000Z</time>
</trkpt>
<trkpt lat="45.8396710" lon="9.3065080">
	<ele>1125.00</ele>
	<time>2024-03-25T11:49:05.000Z</time>
</trkpt>
<trkpt lat="45.8396710" lon="9.3065070">
	<ele>1125.00</ele>
	<time>2024-03-25T11:49:06.000Z</time>
</trkpt>
<trkpt lat="45.8396720" lon="9.3065050">
	<ele>1125.00</ele>
	<time>2024-03-25T11:49:07.000Z</time>
</trkpt>
<trkpt lat="45.8396720" lon="9.3065030">
	<ele>1125.20</ele>
	<time>2024-03-25T11:49:08.000Z</time>
</trkpt>
<trkpt lat="45.8396720" lon="9.3065020">
	<ele>1125.20</ele>
	<time>2024-03-25T11:49:09.000Z</time>
</trkpt>
<trkpt lat="45.8396720" lon="9.3065010">
	<ele>1125.20</ele>
	<time>2024-03-25T11:49:10.000Z</time>
</trkpt>
<trkpt lat="45.8396720" lon="9.3065000">
	<ele>1125.20</ele>
	<time>2024-03-25T11:49:11.000Z</time>
</trkpt>
<trkpt lat="45.8396720" lon="9.3065000">
	<ele>1125.40</ele>
	<time>2024-03-25T11:49:12.000Z</time>
</trkpt>
<trkpt lat="45.8396720" lon="9.3064990">
	<ele>1125.40</ele>
	<time>2024-03-25T11:49:13.000Z</time>
</trkpt>
<trkpt lat="45.8396730" lon="9.3064980">
	<ele>1125.40</ele>
	<time>2024-03-25T11:49:14.000Z</time>
</trkpt>
<trkpt lat="45.8396730" lon="9.3064980">
	<ele>1125.40</ele>
	<time>2024-03-25T11:49:15.000Z</time>
</trkpt>
<trkpt lat="45.8396730" lon="9.3064980">
	<ele>1125.40</ele>
	<time>2024-03-25T11:49:16.000Z</time>
</trkpt>
<trkpt lat="45.8396720" lon="9.3064980">
	<ele>1125.20</ele>
	<time>2024-03-25T11:49:17.000Z</time>
</trkpt>
<trkpt lat="45.8396720" lon="9.3064970">
	<ele>1125.20</ele>
	<time>2024-03-25T11:49:18.000Z</time>
</trkpt>
<trkpt lat="45.8396720" lon="9.3064970">
	<ele>1125.00</ele>
	<time>2024-03-25T11:49:19.000Z</time>
</trkpt>
<trkpt lat="45.8396720" lon="9.3064970">
	<ele>1125.00</ele>
	<time>2024-03-25T11:49:20.000Z</time>
</trkpt>
<trkpt lat="45.8396720" lon="9.3064970">
	<ele>1125.00</ele>
	<time>2024-03-25T11:49:21.000Z</time>
</trkpt>
<trkpt lat="45.8396720" lon="9.3064970">
	<ele>1125.20</ele>
	<time>2024-03-25T11:49:22.000Z</time>
</trkpt>
<trkpt lat="45.8396720" lon="9.3064970">
	<ele>1125.40</ele>
	<time>2024-03-25T11:49:23.000Z</time>
</trkpt>
<trkpt lat="45.8396720" lon="9.3064970">
	<ele>1125.60</ele>
	<time>2024-03-25T11:49:24.000Z</time>
</trkpt>
<trkpt lat="45.8396720" lon="9.3064970">
	<ele>1125.80</ele>
	<time>2024-03-25T11:49:25.000Z</time>
</trkpt>
<trkpt lat="45.8396720" lon="9.3064970">
	<ele>1125.80</ele>
	<time>2024-03-25T11:49:26.000Z</time>
</trkpt>
<trkpt lat="45.8396720" lon="9.3064970">
	<ele>1126.00</ele>
	<time>2024-03-25T11:49:27.000Z</time>
</trkpt>
<trkpt lat="45.8396720" lon="9.3064970">
	<ele>1126.00</ele>
	<time>2024-03-25T11:49:28.000Z</time>
</trkpt>
<trkpt lat="45.8396720" lon="9.3064980">
	<ele>1125.80</ele>
	<time>2024-03-25T11:49:29.000Z</time>
</trkpt>
<trkpt lat="45.8396720" lon="9.3064980">
	<ele>1125.80</ele>
	<time>2024-03-25T11:49:30.000Z</time>
</trkpt>
<trkpt lat="45.8396720" lon="9.3064980">
	<ele>1125.80</ele>
	<time>2024-03-25T11:49:31.000Z</time>
</trkpt>
<trkpt lat="45.8396720" lon="9.3064980">
	<ele>1125.60</ele>
	<time>2024-03-25T11:49:32.000Z</time>
</trkpt>
<trkpt lat="45.8396720" lon="9.3064980">
	<ele>1125.60</ele>
	<time>2024-03-25T11:49:33.000Z</time>
</trkpt>
<trkpt lat="45.8396720" lon="9.3064980">
	<ele>1125.60</ele>
	<time>2024-03-25T11:49:34.000Z</time>
</trkpt>
<trkpt lat="45.8396720" lon="9.3064980">
	<ele>1125.40</ele>
	<time>2024-03-25T11:49:35.000Z</time>
</trkpt>
<trkpt lat="45.8396710" lon="9.3064980">
	<ele>1125.40</ele>
	<time>2024-03-25T11:49:36.000Z</time>
</trkpt>
<trkpt lat="45.8396710" lon="9.3064980">
	<ele>1125.40</ele>
	<time>2024-03-25T11:49:37.000Z</time>
</trkpt>
<trkpt lat="45.8396710" lon="9.3064980">
	<ele>1125.40</ele>
	<time>2024-03-25T11:49:38.000Z</time>
</trkpt>
<trkpt lat="45.8396710" lon="9.3064980">
	<ele>1125.40</ele>
	<time>2024-03-25T11:49:39.000Z</time>
</trkpt>
<trkpt lat="45.8396710" lon="9.3064980">
	<ele>1125.40</ele>
	<time>2024-03-25T11:49:40.000Z</time>
</trkpt>
<trkpt lat="45.8396710" lon="9.3064990">
	<ele>1125.20</ele>
	<time>2024-03-25T11:49:41.000Z</time>
</trkpt>
<trkpt lat="45.8396710" lon="9.3064990">
	<ele>1125.20</ele>
	<time>2024-03-25T11:49:42.000Z</time>
</trkpt>
<trkpt lat="45.8396710" lon="9.3064990">
	<ele>1125.20</ele>
	<time>2024-03-25T11:49:43.000Z</time>
</trkpt>
<trkpt lat="45.8396710" lon="9.3064990">
	<ele>1125.20</ele>
	<time>2024-03-25T11:49:44.000Z</time>
</trkpt>
<trkpt lat="45.8396710" lon="9.3064990">
	<ele>1125.20</ele>
	<time>2024-03-25T11:49:45.000Z</time>
</trkpt>
<trkpt lat="45.8396710" lon="9.3064990">
	<ele>1125.20</ele>
	<time>2024-03-25T11:49:46.000Z</time>
</trkpt>
<trkpt lat="45.8396710" lon="9.3064990">
	<ele>1125.20</ele>
	<time>2024-03-25T11:49:47.000Z</time>
</trkpt>
<trkpt lat="45.8396710" lon="9.3064990">
	<ele>1125.20</ele>
	<time>2024-03-25T11:49:48.000Z</time>
</trkpt>
<trkpt lat="45.8396710" lon="9.3064990">
	<ele>1125.20</ele>
	<time>2024-03-25T11:49:49.000Z</time>
</trkpt>
<trkpt lat="45.8396710" lon="9.3064990">
	<ele>1125.20</ele>
	<time>2024-03-25T11:49:50.000Z</time>
</trkpt>
<trkpt lat="45.8396710" lon="9.3065000">
	<ele>1125.20</ele>
	<time>2024-03-25T11:49:51.000Z</time>
</trkpt>
<trkpt lat="45.8396710" lon="9.3065000">
	<ele>1125.20</ele>
	<time>2024-03-25T11:49:52.000Z</time>
</trkpt>
<trkpt lat="45.8396710" lon="9.3065000">
	<ele>1125.20</ele>
	<time>2024-03-25T11:49:53.000Z</time>
</trkpt>
<trkpt lat="45.8396710" lon="9.3065000">
	<ele>1125.20</ele>
	<time>2024-03-25T11:49:54.000Z</time>
</trkpt>
<trkpt lat="45.8396710" lon="9.3065000">
	<ele>1125.20</ele>
	<time>2024-03-25T11:49:55.000Z</time>
</trkpt>
<trkpt lat="45.8396710" lon="9.3065000">
	<ele>1125.20</ele>
	<time>2024-03-25T11:49:56.000Z</time>
</trkpt>
<trkpt lat="45.8396710" lon="9.3065010">
	<ele>1125.20</ele>
	<time>2024-03-25T11:49:57.000Z</time>
</trkpt>
<trkpt lat="45.8396710" lon="9.3065010">
	<ele>1125.20</ele>
	<time>2024-03-25T11:49:58.000Z</time>
</trkpt>
<trkpt lat="45.8396710" lon="9.3065010">
	<ele>1125.60</ele>
	<time>2024-03-25T11:49:59.000Z</time>
</trkpt>
<trkpt lat="45.8396710" lon="9.3065010">
	<ele>1125.80</ele>
	<time>2024-03-25T11:50:00.000Z</time>
</trkpt>
<trkpt lat="45.8396700" lon="9.3065010">
	<ele>1126.00</ele>
	<time>2024-03-25T11:50:01.000Z</time>
</trkpt>
<trkpt lat="45.8396700" lon="9.3065010">
	<ele>1126.00</ele>
	<time>2024-03-25T11:50:02.000Z</time>
</trkpt>
<trkpt lat="45.8396700" lon="9.3065010">
	<ele>1126.20</ele>
	<time>2024-03-25T11:50:03.000Z</time>
</trkpt>
<trkpt lat="45.8396700" lon="9.3065010">
	<ele>1126.00</ele>
	<time>2024-03-25T11:50:04.000Z</time>
</trkpt>
<trkpt lat="45.8396700" lon="9.3065010">
	<ele>1126.00</ele>
	<time>2024-03-25T11:50:05.000Z</time>
</trkpt>
<trkpt lat="45.8396700" lon="9.3065010">
	<ele>1125.80</ele>
	<time>2024-03-25T11:50:06.000Z</time>
</trkpt>
<trkpt lat="45.8396700" lon="9.3065010">
	<ele>1125.80</ele>
	<time>2024-03-25T11:50:07.000Z</time>
</trkpt>
<trkpt lat="45.8396700" lon="9.3065010">
	<ele>1125.60</ele>
	<time>2024-03-25T11:50:08.000Z</time>
</trkpt>
<trkpt lat="45.8396700" lon="9.3065020">
	<ele>1125.60</ele>
	<time>2024-03-25T11:50:09.000Z</time>
</trkpt>
<trkpt lat="45.8396700" lon="9.3065020">
	<ele>1125.60</ele>
	<time>2024-03-25T11:50:10.000Z</time>
</trkpt>
<trkpt lat="45.8396700" lon="9.3065020">
	<ele>1125.60</ele>
	<time>2024-03-25T11:50:11.000Z</time>
</trkpt>
<trkpt lat="45.8396700" lon="9.3065030">
	<ele>1125.40</ele>
	<time>2024-03-25T11:50:12.000Z</time>
</trkpt>
<trkpt lat="45.8396690" lon="9.3065030">
	<ele>1125.60</ele>
	<time>2024-03-25T11:50:13.000Z</time>
</trkpt>
<trkpt lat="45.8396690" lon="9.3065030">
	<ele>1125.60</ele>
	<time>2024-03-25T11:50:14.000Z</time>
</trkpt>
<trkpt lat="45.8396690" lon="9.3065020">
	<ele>1125.60</ele>
	<time>2024-03-25T11:50:15.000Z</time>
</trkpt>
<trkpt lat="45.8396690" lon="9.3065020">
	<ele>1125.60</ele>
	<time>2024-03-25T11:50:16.000Z</time>
</trkpt>
<trkpt lat="45.8396690" lon="9.3065020">
	<ele>1125.80</ele>
	<time>2024-03-25T11:50:17.000Z</time>
</trkpt>
<trkpt lat="45.8396690" lon="9.3065020">
	<ele>1125.80</ele>
	<time>2024-03-25T11:50:18.000Z</time>
</trkpt>
<trkpt lat="45.8396690" lon="9.3065020">
	<ele>1125.80</ele>
	<time>2024-03-25T11:50:19.000Z</time>
</trkpt>
<trkpt lat="45.8396690" lon="9.3065020">
	<ele>1125.80</ele>
	<time>2024-03-25T11:50:20.000Z</time>
</trkpt>
<trkpt lat="45.8396690" lon="9.3065020">
	<ele>1125.80</ele>
	<time>2024-03-25T11:50:21.000Z</time>
</trkpt>
<trkpt lat="45.8396690" lon="9.3065020">
	<ele>1125.80</ele>
	<time>2024-03-25T11:50:22.000Z</time>
</trkpt>
<trkpt lat="45.8396690" lon="9.3065030">
	<ele>1125.80</ele>
	<time>2024-03-25T11:50:23.000Z</time>
</trkpt>
<trkpt lat="45.8396690" lon="9.3065030">
	<ele>1125.80</ele>
	<time>2024-03-25T11:50:24.000Z</time>
</trkpt>
<trkpt lat="45.8396690" lon="9.3065030">
	<ele>1125.80</ele>
	<time>2024-03-25T11:50:25.000Z</time>
</trkpt>
<trkpt lat="45.8396690" lon="9.3065030">
	<ele>1125.80</ele>
	<time>2024-03-25T11:50:26.000Z</time>
</trkpt>
<trkpt lat="45.8396680" lon="9.3065030">
	<ele>1125.80</ele>
	<time>2024-03-25T11:50:27.000Z</time>
</trkpt>
<trkpt lat="45.8396680" lon="9.3065020">
	<ele>1125.80</ele>
	<time>2024-03-25T11:50:28.000Z</time>
</trkpt>
<trkpt lat="45.8396680" lon="9.3065020">
	<ele>1125.80</ele>
	<time>2024-03-25T11:50:29.000Z</time>
</trkpt>
<trkpt lat="45.8396680" lon="9.3065020">
	<ele>1125.80</ele>
	<time>2024-03-25T11:50:30.000Z</time>
</trkpt>
<trkpt lat="45.8396680" lon="9.3065020">
	<ele>1125.80</ele>
	<time>2024-03-25T11:50:31.000Z</time>
</trkpt>
<trkpt lat="45.8396680" lon="9.3065020">
	<ele>1125.80</ele>
	<time>2024-03-25T11:50:32.000Z</time>
</trkpt>
<trkpt lat="45.8396680" lon="9.3065020">
	<ele>1125.80</ele>
	<time>2024-03-25T11:50:33.000Z</time>
</trkpt>
<trkpt lat="45.8396680" lon="9.3065020">
	<ele>1125.80</ele>
	<time>2024-03-25T11:50:34.000Z</time>
</trkpt>
<trkpt lat="45.8396680" lon="9.3065020">
	<ele>1125.80</ele>
	<time>2024-03-25T11:50:35.000Z</time>
</trkpt>
<trkpt lat="45.8396680" lon="9.3065020">
	<ele>1125.80</ele>
	<time>2024-03-25T11:50:36.000Z</time>
</trkpt>
<trkpt lat="45.8396680" lon="9.3065020">
	<ele>1125.80</ele>
	<time>2024-03-25T11:50:37.000Z</time>
</trkpt>
<trkpt lat="45.8396680" lon="9.3065010">
	<ele>1125.80</ele>
	<time>2024-03-25T11:50:38.000Z</time>
</trkpt>
<trkpt lat="45.8396680" lon="9.3065010">
	<ele>1125.80</ele>
	<time>2024-03-25T11:50:39.000Z</time>
</trkpt>
<trkpt lat="45.8396680" lon="9.3065010">
	<ele>1125.80</ele>
	<time>2024-03-25T11:50:40.000Z</time>
</trkpt>
<trkpt lat="45.8396680" lon="9.3065010">
	<ele>1125.80</ele>
	<time>2024-03-25T11:50:41.000Z</time>
</trkpt>
<trkpt lat="45.8396680" lon="9.3065010">
	<ele>1125.80</ele>
	<time>2024-03-25T11:50:42.000Z</time>
</trkpt>
<trkpt lat="45.8396680" lon="9.3065010">
	<ele>1125.80</ele>
	<time>2024-03-25T11:50:43.000Z</time>
</trkpt>
<trkpt lat="45.8396680" lon="9.3065010">
	<ele>1125.80</ele>
	<time>2024-03-25T11:50:44.000Z</time>
</trkpt>
<trkpt lat="45.8396680" lon="9.3065010">
	<ele>1125.80</ele>
	<time>2024-03-25T11:50:45.000Z</time>
</trkpt>
<trkpt lat="45.8396680" lon="9.3065010">
	<ele>1125.80</ele>
	<time>2024-03-25T11:50:46.000Z</time>
</trkpt>
<trkpt lat="45.8396680" lon="9.3065010">
	<ele>1125.80</ele>
	<time>2024-03-25T11:50:47.000Z</time>
</trkpt>
<trkpt lat="45.8396680" lon="9.3065010">
	<ele>1125.80</ele>
	<time>2024-03-25T11:50:48.000Z</time>
</trkpt>
<trkpt lat="45.8396680" lon="9.3065010">
	<ele>1125.80</ele>
	<time>2024-03-25T11:50:49.000Z</time>
</trkpt>
<trkpt lat="45.8396680" lon="9.3065010">
	<ele>1125.80</ele>
	<time>2024-03-25T11:50:50.000Z</time>
</trkpt>
<trkpt lat="45.8396680" lon="9.3065010">
	<ele>1125.80</ele>
	<time>2024-03-25T11:50:51.000Z</time>
</trkpt>
<trkpt lat="45.8396680" lon="9.3065010">
	<ele>1125.80</ele>
	<time>2024-03-25T11:50:52.000Z</time>
</trkpt>
<trkpt lat="45.8396680" lon="9.3065010">
	<ele>1125.80</ele>
	<time>2024-03-25T11:50:53.000Z</time>
</trkpt>
<trkpt lat="45.8396680" lon="9.3065010">
	<ele>1125.80</ele>
	<time>2024-03-25T11:50:54.000Z</time>
</trkpt>
<trkpt lat="45.8396680" lon="9.3065010">
	<ele>1125.80</ele>
	<time>2024-03-25T11:50:55.000Z</time>
</trkpt>
<trkpt lat="45.8396680" lon="9.3065010">
	<ele>1125.80</ele>
	<time>2024-03-25T11:50:56.000Z</time>
</trkpt>
<trkpt lat="45.8396670" lon="9.3065010">
	<ele>1125.80</ele>
	<time>2024-03-25T11:50:57.000Z</time>
</trkpt>
<trkpt lat="45.8396670" lon="9.3065010">
	<ele>1125.80</ele>
	<time>2024-03-25T11:50:58.000Z</time>
</trkpt>
<trkpt lat="45.8396670" lon="9.3065010">
	<ele>1125.80</ele>
	<time>2024-03-25T11:50:59.000Z</time>
</trkpt>
<trkpt lat="45.8396670" lon="9.3065010">
	<ele>1125.80</ele>
	<time>2024-03-25T11:51:00.000Z</time>
</trkpt>
<trkpt lat="45.8396670" lon="9.3065010">
	<ele>1125.80</ele>
	<time>2024-03-25T11:51:01.000Z</time>
</trkpt>
<trkpt lat="45.8396670" lon="9.3065010">
	<ele>1125.80</ele>
	<time>2024-03-25T11:51:02.000Z</time>
</trkpt>
<trkpt lat="45.8396670" lon="9.3065020">
	<ele>1125.80</ele>
	<time>2024-03-25T11:51:03.000Z</time>
</trkpt>
<trkpt lat="45.8396670" lon="9.3065020">
	<ele>1125.80</ele>
	<time>2024-03-25T11:51:04.000Z</time>
</trkpt>
<trkpt lat="45.8396670" lon="9.3065020">
	<ele>1125.80</ele>
	<time>2024-03-25T11:51:05.000Z</time>
</trkpt>
<trkpt lat="45.8396670" lon="9.3065020">
	<ele>1125.80</ele>
	<time>2024-03-25T11:51:06.000Z</time>
</trkpt>
<trkpt lat="45.8396670" lon="9.3065020">
	<ele>1125.80</ele>
	<time>2024-03-25T11:51:07.000Z</time>
</trkpt>
<trkpt lat="45.8396670" lon="9.3065020">
	<ele>1125.80</ele>
	<time>2024-03-25T11:51:08.000Z</time>
</trkpt>
<trkpt lat="45.8396670" lon="9.3065020">
	<ele>1125.80</ele>
	<time>2024-03-25T11:51:09.000Z</time>
</trkpt>
<trkpt lat="45.8396670" lon="9.3065020">
	<ele>1125.80</ele>
	<time>2024-03-25T11:51:10.000Z</time>
</trkpt>
<trkpt lat="45.8396660" lon="9.3065020">
	<ele>1125.80</ele>
	<time>2024-03-25T11:51:11.000Z</time>
</trkpt>
<trkpt lat="45.8396660" lon="9.3065020">
	<ele>1125.80</ele>
	<time>2024-03-25T11:51:12.000Z</time>
</trkpt>
<trkpt lat="45.8396660" lon="9.3065020">
	<ele>1125.80</ele>
	<time>2024-03-25T11:51:13.000Z</time>
</trkpt>
<trkpt lat="45.8396660" lon="9.3065020">
	<ele>1125.80</ele>
	<time>2024-03-25T11:51:14.000Z</time>
</trkpt>
<trkpt lat="45.8396660" lon="9.3065020">
	<ele>1125.80</ele>
	<time>2024-03-25T11:51:15.000Z</time>
</trkpt>
<trkpt lat="45.8396670" lon="9.3065020">
	<ele>1125.80</ele>
	<time>2024-03-25T11:51:16.000Z</time>
</trkpt>
<trkpt lat="45.8396670" lon="9.3065020">
	<ele>1125.80</ele>
	<time>2024-03-25T11:51:17.000Z</time>
</trkpt>
<trkpt lat="45.8396670" lon="9.3065020">
	<ele>1125.80</ele>
	<time>2024-03-25T11:51:18.000Z</time>
</trkpt>
<trkpt lat="45.8396660" lon="9.3065020">
	<ele>1125.80</ele>
	<time>2024-03-25T11:51:19.000Z</time>
</trkpt>
<trkpt lat="45.8396660" lon="9.3065020">
	<ele>1125.80</ele>
	<time>2024-03-25T11:51:20.000Z</time>
</trkpt>
<trkpt lat="45.8396660" lon="9.3065020">
	<ele>1125.80</ele>
	<time>2024-03-25T11:51:21.000Z</time>
</trkpt>
<trkpt lat="45.8396660" lon="9.3065020">
	<ele>1125.80</ele>
	<time>2024-03-25T11:51:22.000Z</time>
</trkpt>
<trkpt lat="45.8396660" lon="9.3065020">
	<ele>1125.80</ele>
	<time>2024-03-25T11:51:23.000Z</time>
</trkpt>
<trkpt lat="45.8396660" lon="9.3065020">
	<ele>1125.80</ele>
	<time>2024-03-25T11:51:24.000Z</time>
</trkpt>
<trkpt lat="45.8396660" lon="9.3065020">
	<ele>1125.80</ele>
	<time>2024-03-25T11:51:25.000Z</time>
</trkpt>
<trkpt lat="45.8396660" lon="9.3065020">
	<ele>1125.80</ele>
	<time>2024-03-25T11:51:26.000Z</time>
</trkpt>
<trkpt lat="45.8396660" lon="9.3065020">
	<ele>1125.80</ele>
	<time>2024-03-25T11:51:27.000Z</time>
</trkpt>
<trkpt lat="45.8396660" lon="9.3065020">
	<ele>1125.80</ele>
	<time>2024-03-25T11:51:28.000Z</time>
</trkpt>
<trkpt lat="45.8396660" lon="9.3065020">
	<ele>1125.80</ele>
	<time>2024-03-25T11:51:29.000Z</time>
</trkpt>
<trkpt lat="45.8396660" lon="9.3065020">
	<ele>1125.80</ele>
	<time>2024-03-25T11:51:30.000Z</time>
</trkpt>
<trkpt lat="45.8396660" lon="9.3065020">
	<ele>1125.80</ele>
	<time>2024-03-25T11:51:31.000Z</time>
</trkpt>
<trkpt lat="45.8396660" lon="9.3065020">
	<ele>1125.80</ele>
	<time>2024-03-25T11:51:32.000Z</time>
</trkpt>
<trkpt lat="45.8396660" lon="9.3065020">
	<ele>1125.80</ele>
	<time>2024-03-25T11:51:33.000Z</time>
</trkpt>
<trkpt lat="45.8396660" lon="9.3065020">
	<ele>1125.80</ele>
	<time>2024-03-25T11:51:34.000Z</time>
</trkpt>
<trkpt lat="45.8396660" lon="9.3065020">
	<ele>1125.80</ele>
	<time>2024-03-25T11:51:35.000Z</time>
</trkpt>
<trkpt lat="45.8396660" lon="9.3065020">
	<ele>1125.80</ele>
	<time>2024-03-25T11:51:36.000Z</time>
</trkpt>
<trkpt lat="45.8396650" lon="9.3065020">
	<ele>1125.80</ele>
	<time>2024-03-25T11:51:37.000Z</time>
</trkpt>
<trkpt lat="45.8396650" lon="9.3065020">
	<ele>1125.80</ele>
	<time>2024-03-25T11:51:38.000Z</time>
</trkpt>
<trkpt lat="45.8396650" lon="9.3065020">
	<ele>1125.80</ele>
	<time>2024-03-25T11:51:39.000Z</time>
</trkpt>
<trkpt lat="45.8396650" lon="9.3065020">
	<ele>1125.80</ele>
	<time>2024-03-25T11:51:40.000Z</time>
</trkpt>
<trkpt lat="45.8396650" lon="9.3065020">
	<ele>1125.80</ele>
	<time>2024-03-25T11:51:41.000Z</time>
</trkpt>
<trkpt lat="45.8396650" lon="9.3065020">
	<ele>1125.80</ele>
	<time>2024-03-25T11:51:42.000Z</time>
</trkpt>
<trkpt lat="45.8396650" lon="9.3065020">
	<ele>1125.80</ele>
	<time>2024-03-25T11:51:43.000Z</time>
</trkpt>
<trkpt lat="45.8396650" lon="9.3065020">
	<ele>1125.80</ele>
	<time>2024-03-25T11:51:44.000Z</time>
</trkpt>
<trkpt lat="45.8396650" lon="9.3065020">
	<ele>1125.80</ele>
	<time>2024-03-25T11:51:45.000Z</time>
</trkpt>
<trkpt lat="45.8396650" lon="9.3065020">
	<ele>1125.80</ele>
	<time>2024-03-25T11:51:46.000Z</time>
</trkpt>
<trkpt lat="45.8396650" lon="9.3065020">
	<ele>1125.80</ele>
	<time>2024-03-25T11:51:47.000Z</time>
</trkpt>
<trkpt lat="45.8396650" lon="9.3065020">
	<ele>1125.80</ele>
	<time>2024-03-25T11:51:48.000Z</time>
</trkpt>
<trkpt lat="45.8396650" lon="9.3065020">
	<ele>1125.80</ele>
	<time>2024-03-25T11:51:49.000Z</time>
</trkpt>
<trkpt lat="45.8396650" lon="9.3065020">
	<ele>1125.80</ele>
	<time>2024-03-25T11:51:50.000Z</time>
</trkpt>
<trkpt lat="45.8396650" lon="9.3065020">
	<ele>1125.80</ele>
	<time>2024-03-25T11:51:51.000Z</time>
</trkpt>
<trkpt lat="45.8396650" lon="9.3065020">
	<ele>1125.80</ele>
	<time>2024-03-25T11:51:52.000Z</time>
</trkpt>
<trkpt lat="45.8396650" lon="9.3065020">
	<ele>1125.80</ele>
	<time>2024-03-25T11:51:53.000Z</time>
</trkpt>
<trkpt lat="45.8396650" lon="9.3065020">
	<ele>1125.80</ele>
	<time>2024-03-25T11:51:54.000Z</time>
</trkpt>
<trkpt lat="45.8396650" lon="9.3065020">
	<ele>1125.80</ele>
	<time>2024-03-25T11:51:55.000Z</time>
</trkpt>
<trkpt lat="45.8396650" lon="9.3065020">
	<ele>1125.80</ele>
	<time>2024-03-25T11:51:56.000Z</time>
</trkpt>
<trkpt lat="45.8396640" lon="9.3065020">
	<ele>1125.80</ele>
	<time>2024-03-25T11:51:57.000Z</time>
</trkpt>
<trkpt lat="45.8396640" lon="9.3065030">
	<ele>1125.80</ele>
	<time>2024-03-25T11:51:58.000Z</time>
</trkpt>
<trkpt lat="45.8396640" lon="9.3065030">
	<ele>1125.80</ele>
	<time>2024-03-25T11:51:59.000Z</time>
</trkpt>
<trkpt lat="45.8396640" lon="9.3065030">
	<ele>1125.80</ele>
	<time>2024-03-25T11:52:00.000Z</time>
</trkpt>
<trkpt lat="45.8396640" lon="9.3065030">
	<ele>1125.80</ele>
	<time>2024-03-25T11:52:01.000Z</time>
</trkpt>
<trkpt lat="45.8396640" lon="9.3065030">
	<ele>1125.80</ele>
	<time>2024-03-25T11:52:02.000Z</time>
</trkpt>
<trkpt lat="45.8396640" lon="9.3065030">
	<ele>1125.80</ele>
	<time>2024-03-25T11:52:03.000Z</time>
</trkpt>
<trkpt lat="45.8396640" lon="9.3065030">
	<ele>1125.80</ele>
	<time>2024-03-25T11:52:04.000Z</time>
</trkpt>
<trkpt lat="45.8396640" lon="9.3065030">
	<ele>1125.80</ele>
	<time>2024-03-25T11:52:05.000Z</time>
</trkpt>
<trkpt lat="45.8396640" lon="9.3065030">
	<ele>1125.80</ele>
	<time>2024-03-25T11:52:06.000Z</time>
</trkpt>
<trkpt lat="45.8396640" lon="9.3065030">
	<ele>1125.80</ele>
	<time>2024-03-25T11:52:07.000Z</time>
</trkpt>
<trkpt lat="45.8396640" lon="9.3065030">
	<ele>1125.80</ele>
	<time>2024-03-25T11:52:08.000Z</time>
</trkpt>
<trkpt lat="45.8396640" lon="9.3065040">
	<ele>1125.80</ele>
	<time>2024-03-25T11:52:09.000Z</time>
</trkpt>
<trkpt lat="45.8396630" lon="9.3065040">
	<ele>1125.80</ele>
	<time>2024-03-25T11:52:10.000Z</time>
</trkpt>
<trkpt lat="45.8396630" lon="9.3065040">
	<ele>1125.80</ele>
	<time>2024-03-25T11:52:11.000Z</time>
</trkpt>
<trkpt lat="45.8396630" lon="9.3065040">
	<ele>1125.80</ele>
	<time>2024-03-25T11:52:12.000Z</time>
</trkpt>
<trkpt lat="45.8396630" lon="9.3065040">
	<ele>1125.80</ele>
	<time>2024-03-25T11:52:13.000Z</time>
</trkpt>
<trkpt lat="45.8396630" lon="9.3065040">
	<ele>1125.80</ele>
	<time>2024-03-25T11:52:14.000Z</time>
</trkpt>
<trkpt lat="45.8396630" lon="9.3065040">
	<ele>1125.80</ele>
	<time>2024-03-25T11:52:15.000Z</time>
</trkpt>
<trkpt lat="45.8396630" lon="9.3065040">
	<ele>1125.80</ele>
	<time>2024-03-25T11:52:16.000Z</time>
</trkpt>
<trkpt lat="45.8396630" lon="9.3065040">
	<ele>1125.80</ele>
	<time>2024-03-25T11:52:17.000Z</time>
</trkpt>
<trkpt lat="45.8396630" lon="9.3065050">
	<ele>1125.80</ele>
	<time>2024-03-25T11:52:18.000Z</time>
</trkpt>
<trkpt lat="45.8396630" lon="9.3065050">
	<ele>1125.80</ele>
	<time>2024-03-25T11:52:19.000Z</time>
</trkpt>
<trkpt lat="45.8396630" lon="9.3065050">
	<ele>1125.80</ele>
	<time>2024-03-25T11:52:20.000Z</time>
</trkpt>
<trkpt lat="45.8396630" lon="9.3065050">
	<ele>1125.80</ele>
	<time>2024-03-25T11:52:21.000Z</time>
</trkpt>
<trkpt lat="45.8396630" lon="9.3065050">
	<ele>1125.80</ele>
	<time>2024-03-25T11:52:22.000Z</time>
</trkpt>
<trkpt lat="45.8396640" lon="9.3065100">
	<ele>1125.80</ele>
	<time>2024-03-25T11:52:23.000Z</time>
</trkpt>
<trkpt lat="45.8396630" lon="9.3065210">
	<ele>1125.80</ele>
	<time>2024-03-25T11:52:24.000Z</time>
</trkpt>
<trkpt lat="45.8396630" lon="9.3065320">
	<ele>1125.80</ele>
	<time>2024-03-25T11:52:25.000Z</time>
</trkpt>
<trkpt lat="45.8396640" lon="9.3065400">
	<ele>1125.80</ele>
	<time>2024-03-25T11:52:26.000Z</time>
</trkpt>
<trkpt lat="45.8396640" lon="9.3065440">
	<ele>1125.80</ele>
	<time>2024-03-25T11:52:27.000Z</time>
</trkpt>
<trkpt lat="45.8396640" lon="9.3065490">
	<ele>1125.80</ele>
	<time>2024-03-25T11:52:28.000Z</time>
</trkpt>
<trkpt lat="45.8396640" lon="9.3065660">
	<ele>1125.80</ele>
	<time>2024-03-25T11:52:29.000Z</time>
</trkpt>
<trkpt lat="45.8396640" lon="9.3065820">
	<ele>1125.80</ele>
	<time>2024-03-25T11:52:30.000Z</time>
</trkpt>
<trkpt lat="45.8396660" lon="9.3065900">
	<ele>1125.80</ele>
	<time>2024-03-25T11:52:31.000Z</time>
</trkpt>
<trkpt lat="45.8396680" lon="9.3065980">
	<ele>1125.80</ele>
	<time>2024-03-25T11:52:32.000Z</time>
</trkpt>
<trkpt lat="45.8396700" lon="9.3065980">
	<ele>1125.80</ele>
	<time>2024-03-25T11:52:33.000Z</time>
</trkpt>
<trkpt lat="45.8396720" lon="9.3065990">
	<ele>1125.80</ele>
	<time>2024-03-25T11:52:34.000Z</time>
</trkpt>
<trkpt lat="45.8396740" lon="9.3066010">
	<ele>1125.80</ele>
	<time>2024-03-25T11:52:35.000Z</time>
</trkpt>
<trkpt lat="45.8396690" lon="9.3065920">
	<ele>1125.80</ele>
	<time>2024-03-25T11:52:36.000Z</time>
</trkpt>
<trkpt lat="45.8396680" lon="9.3065890">
	<ele>1125.80</ele>
	<time>2024-03-25T11:52:37.000Z</time>
</trkpt>
<trkpt lat="45.8396660" lon="9.3065890">
	<ele>1125.80</ele>
	<time>2024-03-25T11:52:38.000Z</time>
</trkpt>
<trkpt lat="45.8396650" lon="9.3065890">
	<ele>1125.80</ele>
	<time>2024-03-25T11:52:39.000Z</time>
</trkpt>
<trkpt lat="45.8396670" lon="9.3065880">
	<ele>1125.80</ele>
	<time>2024-03-25T11:52:40.000Z</time>
</trkpt>
<trkpt lat="45.8396690" lon="9.3065880">
	<ele>1125.80</ele>
	<time>2024-03-25T11:52:41.000Z</time>
</trkpt>
<trkpt lat="45.8396710" lon="9.3065860">
	<ele>1125.80</ele>
	<time>2024-03-25T11:52:42.000Z</time>
</trkpt>
<trkpt lat="45.8396710" lon="9.3065830">
	<ele>1125.80</ele>
	<time>2024-03-25T11:52:43.000Z</time>
</trkpt>
<trkpt lat="45.8396710" lon="9.3065820">
	<ele>1125.80</ele>
	<time>2024-03-25T11:52:44.000Z</time>
</trkpt>
<trkpt lat="45.8396730" lon="9.3065820">
	<ele>1125.80</ele>
	<time>2024-03-25T11:52:45.000Z</time>
</trkpt>
<trkpt lat="45.8396750" lon="9.3065800">
	<ele>1125.80</ele>
	<time>2024-03-25T11:52:46.000Z</time>
</trkpt>
<trkpt lat="45.8396760" lon="9.3065800">
	<ele>1125.80</ele>
	<time>2024-03-25T11:52:47.000Z</time>
</trkpt>
<trkpt lat="45.8396760" lon="9.3065830">
	<ele>1125.80</ele>
	<time>2024-03-25T11:52:48.000Z</time>
</trkpt>
<trkpt lat="45.8396790" lon="9.3065870">
	<ele>1125.80</ele>
	<time>2024-03-25T11:52:49.000Z</time>
</trkpt>
<trkpt lat="45.8396820" lon="9.3065900">
	<ele>1125.80</ele>
	<time>2024-03-25T11:52:50.000Z</time>
</trkpt>
<trkpt lat="45.8396780" lon="9.3065930">
	<ele>1125.80</ele>
	<time>2024-03-25T11:52:51.000Z</time>
</trkpt>
<trkpt lat="45.8396730" lon="9.3065940">
	<ele>1125.80</ele>
	<time>2024-03-25T11:52:52.000Z</time>
</trkpt>
<trkpt lat="45.8396710" lon="9.3065970">
	<ele>1125.80</ele>
	<time>2024-03-25T11:52:53.000Z</time>
</trkpt>
<trkpt lat="45.8396740" lon="9.3065990">
	<ele>1125.80</ele>
	<time>2024-03-25T11:52:54.000Z</time>
</trkpt>
<trkpt lat="45.8396770" lon="9.3066060">
	<ele>1125.80</ele>
	<time>2024-03-25T11:52:55.000Z</time>
</trkpt>
<trkpt lat="45.8396770" lon="9.3066140">
	<ele>1125.80</ele>
	<time>2024-03-25T11:52:56.000Z</time>
</trkpt>
<trkpt lat="45.8396790" lon="9.3066230">
	<ele>1125.80</ele>
	<time>2024-03-25T11:52:57.000Z</time>
</trkpt>
<trkpt lat="45.8396790" lon="9.3066300">
	<ele>1125.80</ele>
	<time>2024-03-25T11:52:58.000Z</time>
</trkpt>
<trkpt lat="45.8396750" lon="9.3066280">
	<ele>1125.80</ele>
	<time>2024-03-25T11:52:59.000Z</time>
</trkpt>
<trkpt lat="45.8396760" lon="9.3066360">
	<ele>1125.80</ele>
	<time>2024-03-25T11:53:00.000Z</time>
</trkpt>
<trkpt lat="45.8396850" lon="9.3066540">
	<ele>1125.80</ele>
	<time>2024-03-25T11:53:01.000Z</time>
</trkpt>
<trkpt lat="45.8396910" lon="9.3066620">
	<ele>1125.80</ele>
	<time>2024-03-25T11:53:02.000Z</time>
</trkpt>
<trkpt lat="45.8396990" lon="9.3066690">
	<ele>1125.80</ele>
	<time>2024-03-25T11:53:03.000Z</time>
</trkpt>
<trkpt lat="45.8397000" lon="9.3066820">
	<ele>1125.80</ele>
	<time>2024-03-25T11:53:04.000Z</time>
</trkpt>
<trkpt lat="45.8397020" lon="9.3066940">
	<ele>1125.80</ele>
	<time>2024-03-25T11:53:05.000Z</time>
</trkpt>
<trkpt lat="45.8397050" lon="9.3066990">
	<ele>1125.80</ele>
	<time>2024-03-25T11:53:06.000Z</time>
</trkpt>
<trkpt lat="45.8397070" lon="9.3067010">
	<ele>1125.80</ele>
	<time>2024-03-25T11:53:07.000Z</time>
</trkpt>
<trkpt lat="45.8397130" lon="9.3067010">
	<ele>1125.80</ele>
	<time>2024-03-25T11:53:08.000Z</time>
</trkpt>
<trkpt lat="45.8397160" lon="9.3066990">
	<ele>1125.80</ele>
	<time>2024-03-25T11:53:09.000Z</time>
</trkpt>
<trkpt lat="45.8397130" lon="9.3067000">
	<ele>1125.80</ele>
	<time>2024-03-25T11:53:10.000Z</time>
</trkpt>
<trkpt lat="45.8396910" lon="9.3067190">
	<ele>1125.80</ele>
	<time>2024-03-25T11:53:11.000Z</time>
</trkpt>
<trkpt lat="45.8396680" lon="9.3066900">
	<ele>1125.80</ele>
	<time>2024-03-25T11:53:12.000Z</time>
</trkpt>
<trkpt lat="45.8396610" lon="9.3066950">
	<ele>1125.80</ele>
	<time>2024-03-25T11:53:13.000Z</time>
</trkpt>
<trkpt lat="45.8396580" lon="9.3066950">
	<ele>1125.80</ele>
	<time>2024-03-25T11:53:14.000Z</time>
</trkpt>
<trkpt lat="45.8396560" lon="9.3066780">
	<ele>1125.80</ele>
	<time>2024-03-25T11:53:15.000Z</time>
</trkpt>
<trkpt lat="45.8396560" lon="9.3066760">
	<ele>1125.80</ele>
	<time>2024-03-25T11:53:16.000Z</time>
</trkpt>
<trkpt lat="45.8396550" lon="9.3066760">
	<ele>1125.80</ele>
	<time>2024-03-25T11:53:17.000Z</time>
</trkpt>
<trkpt lat="45.8396550" lon="9.3066760">
	<ele>1125.80</ele>
	<time>2024-03-25T11:53:18.000Z</time>
</trkpt>
<trkpt lat="45.8396550" lon="9.3066760">
	<ele>1125.80</ele>
	<time>2024-03-25T11:53:19.000Z</time>
</trkpt>
<trkpt lat="45.8396550" lon="9.3066760">
	<ele>1125.80</ele>
	<time>2024-03-25T11:53:20.000Z</time>
</trkpt>
<trkpt lat="45.8396550" lon="9.3066760">
	<ele>1125.80</ele>
	<time>2024-03-25T11:53:21.000Z</time>
</trkpt>
<trkpt lat="45.8396550" lon="9.3066760">
	<ele>1125.80</ele>
	<time>2024-03-25T11:53:22.000Z</time>
</trkpt>
<trkpt lat="45.8396550" lon="9.3066760">
	<ele>1125.80</ele>
	<time>2024-03-25T11:53:23.000Z</time>
</trkpt>
<trkpt lat="45.8396550" lon="9.3066760">
	<ele>1125.80</ele>
	<time>2024-03-25T11:53:24.000Z</time>
</trkpt>
<trkpt lat="45.8396550" lon="9.3066760">
	<ele>1125.80</ele>
	<time>2024-03-25T11:53:25.000Z</time>
</trkpt>
<trkpt lat="45.8396550" lon="9.3066760">
	<ele>1125.80</ele>
	<time>2024-03-25T11:53:26.000Z</time>
</trkpt>
<trkpt lat="45.8396550" lon="9.3066760">
	<ele>1125.80</ele>
	<time>2024-03-25T11:53:27.000Z</time>
</trkpt>
<trkpt lat="45.8396550" lon="9.3066770">
	<ele>1125.80</ele>
	<time>2024-03-25T11:53:28.000Z</time>
</trkpt>
<trkpt lat="45.8396550" lon="9.3066770">
	<ele>1125.80</ele>
	<time>2024-03-25T11:53:29.000Z</time>
</trkpt>
<trkpt lat="45.8396550" lon="9.3066770">
	<ele>1125.80</ele>
	<time>2024-03-25T11:53:30.000Z</time>
</trkpt>
<trkpt lat="45.8396550" lon="9.3066770">
	<ele>1125.80</ele>
	<time>2024-03-25T11:53:31.000Z</time>
</trkpt>
<trkpt lat="45.8396550" lon="9.3066770">
	<ele>1125.80</ele>
	<time>2024-03-25T11:53:32.000Z</time>
</trkpt>
<trkpt lat="45.8396550" lon="9.3066770">
	<ele>1125.80</ele>
	<time>2024-03-25T11:53:33.000Z</time>
</trkpt>
<trkpt lat="45.8396530" lon="9.3066770">
	<ele>1125.80</ele>
	<time>2024-03-25T11:53:34.000Z</time>
</trkpt>
<trkpt lat="45.8396520" lon="9.3066770">
	<ele>1125.80</ele>
	<time>2024-03-25T11:53:35.000Z</time>
</trkpt>
<trkpt lat="45.8396520" lon="9.3066770">
	<ele>1125.80</ele>
	<time>2024-03-25T11:53:36.000Z</time>
</trkpt>
<trkpt lat="45.8396510" lon="9.3066770">
	<ele>1125.80</ele>
	<time>2024-03-25T11:53:37.000Z</time>
</trkpt>
<trkpt lat="45.8396510" lon="9.3066770">
	<ele>1125.80</ele>
	<time>2024-03-25T11:53:38.000Z</time>
</trkpt>
<trkpt lat="45.8396500" lon="9.3066770">
	<ele>1125.80</ele>
	<time>2024-03-25T11:53:39.000Z</time>
</trkpt>
<trkpt lat="45.8396500" lon="9.3066760">
	<ele>1125.80</ele>
	<time>2024-03-25T11:53:40.000Z</time>
</trkpt>
<trkpt lat="45.8396490" lon="9.3066760">
	<ele>1125.80</ele>
	<time>2024-03-25T11:53:41.000Z</time>
</trkpt>
<trkpt lat="45.8396490" lon="9.3066750">
	<ele>1125.80</ele>
	<time>2024-03-25T11:53:42.000Z</time>
</trkpt>
<trkpt lat="45.8396490" lon="9.3066660">
	<ele>1125.80</ele>
	<time>2024-03-25T11:53:43.000Z</time>
</trkpt>
<trkpt lat="45.8396490" lon="9.3066650">
	<ele>1125.80</ele>
	<time>2024-03-25T11:53:44.000Z</time>
</trkpt>
<trkpt lat="45.8396480" lon="9.3066640">
	<ele>1125.80</ele>
	<time>2024-03-25T11:53:45.000Z</time>
</trkpt>
<trkpt lat="45.8396470" lon="9.3066620">
	<ele>1125.80</ele>
	<time>2024-03-25T11:53:46.000Z</time>
</trkpt>
<trkpt lat="45.8396460" lon="9.3066610">
	<ele>1125.80</ele>
	<time>2024-03-25T11:53:47.000Z</time>
</trkpt>
<trkpt lat="45.8396440" lon="9.3066600">
	<ele>1125.80</ele>
	<time>2024-03-25T11:53:48.000Z</time>
</trkpt>
<trkpt lat="45.8396420" lon="9.3066590">
	<ele>1125.80</ele>
	<time>2024-03-25T11:53:49.000Z</time>
</trkpt>
<trkpt lat="45.8396410" lon="9.3066590">
	<ele>1125.80</ele>
	<time>2024-03-25T11:53:50.000Z</time>
</trkpt>
<trkpt lat="45.8396410" lon="9.3066580">
	<ele>1125.80</ele>
	<time>2024-03-25T11:53:51.000Z</time>
</trkpt>
<trkpt lat="45.8396410" lon="9.3066580">
	<ele>1125.80</ele>
	<time>2024-03-25T11:53:52.000Z</time>
</trkpt>
<trkpt lat="45.8396410" lon="9.3066580">
	<ele>1125.80</ele>
	<time>2024-03-25T11:53:53.000Z</time>
</trkpt>
<trkpt lat="45.8396400" lon="9.3066580">
	<ele>1125.80</ele>
	<time>2024-03-25T11:53:54.000Z</time>
</trkpt>
<trkpt lat="45.8396370" lon="9.3066570">
	<ele>1125.80</ele>
	<time>2024-03-25T11:53:55.000Z</time>
</trkpt>
<trkpt lat="45.8396340" lon="9.3066560">
	<ele>1125.80</ele>
	<time>2024-03-25T11:53:56.000Z</time>
</trkpt>
<trkpt lat="45.8396300" lon="9.3066550">
	<ele>1125.80</ele>
	<time>2024-03-25T11:53:57.000Z</time>
</trkpt>
<trkpt lat="45.8396280" lon="9.3066550">
	<ele>1125.80</ele>
	<time>2024-03-25T11:53:58.000Z</time>
</trkpt>
<trkpt lat="45.8396270" lon="9.3066540">
	<ele>1125.80</ele>
	<time>2024-03-25T11:53:59.000Z</time>
</trkpt>
<trkpt lat="45.8396240" lon="9.3066540">
	<ele>1125.80</ele>
	<time>2024-03-25T11:54:00.000Z</time>
</trkpt>
<trkpt lat="45.8396220" lon="9.3066540">
	<ele>1125.80</ele>
	<time>2024-03-25T11:54:01.000Z</time>
</trkpt>
<trkpt lat="45.8396210" lon="9.3066540">
	<ele>1125.80</ele>
	<time>2024-03-25T11:54:02.000Z</time>
</trkpt>
<trkpt lat="45.8396200" lon="9.3066530">
	<ele>1125.80</ele>
	<time>2024-03-25T11:54:03.000Z</time>
</trkpt>
<trkpt lat="45.8396180" lon="9.3066530">
	<ele>1125.80</ele>
	<time>2024-03-25T11:54:04.000Z</time>
</trkpt>
<trkpt lat="45.8396170" lon="9.3066530">
	<ele>1125.80</ele>
	<time>2024-03-25T11:54:05.000Z</time>
</trkpt>
<trkpt lat="45.8396170" lon="9.3066520">
	<ele>1125.80</ele>
	<time>2024-03-25T11:54:06.000Z</time>
</trkpt>
<trkpt lat="45.8396170" lon="9.3066520">
	<ele>1125.80</ele>
	<time>2024-03-25T11:54:07.000Z</time>
</trkpt>
<trkpt lat="45.8396170" lon="9.3066520">
	<ele>1125.80</ele>
	<time>2024-03-25T11:54:08.000Z</time>
</trkpt>
<trkpt lat="45.8396170" lon="9.3066510">
	<ele>1125.80</ele>
	<time>2024-03-25T11:54:09.000Z</time>
</trkpt>
<trkpt lat="45.8396160" lon="9.3066480">
	<ele>1125.80</ele>
	<time>2024-03-25T11:54:10.000Z</time>
</trkpt>
<trkpt lat="45.8396160" lon="9.3066470">
	<ele>1125.80</ele>
	<time>2024-03-25T11:54:11.000Z</time>
</trkpt>
<trkpt lat="45.8396160" lon="9.3066470">
	<ele>1125.80</ele>
	<time>2024-03-25T11:54:12.000Z</time>
</trkpt>
<trkpt lat="45.8396150" lon="9.3066460">
	<ele>1125.80</ele>
	<time>2024-03-25T11:54:13.000Z</time>
</trkpt>
<trkpt lat="45.8396150" lon="9.3066460">
	<ele>1125.80</ele>
	<time>2024-03-25T11:54:14.000Z</time>
</trkpt>
<trkpt lat="45.8396140" lon="9.3066460">
	<ele>1125.80</ele>
	<time>2024-03-25T11:54:15.000Z</time>
</trkpt>
<trkpt lat="45.8396140" lon="9.3066460">
	<ele>1125.80</ele>
	<time>2024-03-25T11:54:16.000Z</time>
</trkpt>
<trkpt lat="45.8396140" lon="9.3066460">
	<ele>1125.80</ele>
	<time>2024-03-25T11:54:17.000Z</time>
</trkpt>
<trkpt lat="45.8396140" lon="9.3066460">
	<ele>1125.80</ele>
	<time>2024-03-25T11:54:18.000Z</time>
</trkpt>
<trkpt lat="45.8396140" lon="9.3066460">
	<ele>1125.80</ele>
	<time>2024-03-25T11:54:19.000Z</time>
</trkpt>
<trkpt lat="45.8396140" lon="9.3066450">
	<ele>1125.80</ele>
	<time>2024-03-25T11:54:20.000Z</time>
</trkpt>
<trkpt lat="45.8396140" lon="9.3066430">
	<ele>1125.80</ele>
	<time>2024-03-25T11:54:21.000Z</time>
</trkpt>
<trkpt lat="45.8396140" lon="9.3066420">
	<ele>1125.80</ele>
	<time>2024-03-25T11:54:22.000Z</time>
</trkpt>
<trkpt lat="45.8396140" lon="9.3066410">
	<ele>1125.80</ele>
	<time>2024-03-25T11:54:23.000Z</time>
</trkpt>
<trkpt lat="45.8396140" lon="9.3066410">
	<ele>1125.80</ele>
	<time>2024-03-25T11:54:24.000Z</time>
</trkpt>
<trkpt lat="45.8396140" lon="9.3066410">
	<ele>1125.80</ele>
	<time>2024-03-25T11:54:25.000Z</time>
</trkpt>
<trkpt lat="45.8396140" lon="9.3066400">
	<ele>1125.80</ele>
	<time>2024-03-25T11:54:26.000Z</time>
</trkpt>
<trkpt lat="45.8396140" lon="9.3066400">
	<ele>1125.80</ele>
	<time>2024-03-25T11:54:27.000Z</time>
</trkpt>
<trkpt lat="45.8396140" lon="9.3066400">
	<ele>1125.80</ele>
	<time>2024-03-25T11:54:28.000Z</time>
</trkpt>
<trkpt lat="45.8396140" lon="9.3066390">
	<ele>1125.80</ele>
	<time>2024-03-25T11:54:29.000Z</time>
</trkpt>
<trkpt lat="45.8396140" lon="9.3066390">
	<ele>1125.80</ele>
	<time>2024-03-25T11:54:30.000Z</time>
</trkpt>
<trkpt lat="45.8396130" lon="9.3066390">
	<ele>1125.80</ele>
	<time>2024-03-25T11:54:31.000Z</time>
</trkpt>
<trkpt lat="45.8396130" lon="9.3066380">
	<ele>1125.80</ele>
	<time>2024-03-25T11:54:32.000Z</time>
</trkpt>
<trkpt lat="45.8396130" lon="9.3066370">
	<ele>1125.80</ele>
	<time>2024-03-25T11:54:33.000Z</time>
</trkpt>
<trkpt lat="45.8396130" lon="9.3066350">
	<ele>1125.80</ele>
	<time>2024-03-25T11:54:34.000Z</time>
</trkpt>
<trkpt lat="45.8396130" lon="9.3066340">
	<ele>1125.80</ele>
	<time>2024-03-25T11:54:35.000Z</time>
</trkpt>
<trkpt lat="45.8396130" lon="9.3066330">
	<ele>1125.80</ele>
	<time>2024-03-25T11:54:36.000Z</time>
</trkpt>
<trkpt lat="45.8396130" lon="9.3066320">
	<ele>1125.80</ele>
	<time>2024-03-25T11:54:37.000Z</time>
</trkpt>
<trkpt lat="45.8396130" lon="9.3066320">
	<ele>1125.80</ele>
	<time>2024-03-25T11:54:38.000Z</time>
</trkpt>
<trkpt lat="45.8396130" lon="9.3066320">
	<ele>1125.80</ele>
	<time>2024-03-25T11:54:39.000Z</time>
</trkpt>
<trkpt lat="45.8396130" lon="9.3066310">
	<ele>1125.80</ele>
	<time>2024-03-25T11:54:40.000Z</time>
</trkpt>
<trkpt lat="45.8396120" lon="9.3066300">
	<ele>1125.80</ele>
	<time>2024-03-25T11:54:41.000Z</time>
</trkpt>
<trkpt lat="45.8396120" lon="9.3066300">
	<ele>1125.80</ele>
	<time>2024-03-25T11:54:42.000Z</time>
</trkpt>
<trkpt lat="45.8396120" lon="9.3066300">
	<ele>1125.80</ele>
	<time>2024-03-25T11:54:43.000Z</time>
</trkpt>
<trkpt lat="45.8396120" lon="9.3066290">
	<ele>1125.80</ele>
	<time>2024-03-25T11:54:44.000Z</time>
</trkpt>
<trkpt lat="45.8396120" lon="9.3066280">
	<ele>1125.80</ele>
	<time>2024-03-25T11:54:45.000Z</time>
</trkpt>
<trkpt lat="45.8396120" lon="9.3066270">
	<ele>1125.80</ele>
	<time>2024-03-25T11:54:46.000Z</time>
</trkpt>
<trkpt lat="45.8396110" lon="9.3066270">
	<ele>1125.80</ele>
	<time>2024-03-25T11:54:47.000Z</time>
</trkpt>
<trkpt lat="45.8396110" lon="9.3066260">
	<ele>1125.80</ele>
	<time>2024-03-25T11:54:48.000Z</time>
</trkpt>
<trkpt lat="45.8396110" lon="9.3066250">
	<ele>1125.80</ele>
	<time>2024-03-25T11:54:49.000Z</time>
</trkpt>
<trkpt lat="45.8396100" lon="9.3066250">
	<ele>1125.80</ele>
	<time>2024-03-25T11:54:50.000Z</time>
</trkpt>
<trkpt lat="45.8396090" lon="9.3066240">
	<ele>1125.80</ele>
	<time>2024-03-25T11:54:51.000Z</time>
</trkpt>
<trkpt lat="45.8396080" lon="9.3066240">
	<ele>1125.80</ele>
	<time>2024-03-25T11:54:52.000Z</time>
</trkpt>
<trkpt lat="45.8396060" lon="9.3066200">
	<ele>1125.80</ele>
	<time>2024-03-25T11:54:53.000Z</time>
</trkpt>
<trkpt lat="45.8396040" lon="9.3066190">
	<ele>1125.80</ele>
	<time>2024-03-25T11:54:54.000Z</time>
</trkpt>
<trkpt lat="45.8396020" lon="9.3066180">
	<ele>1125.80</ele>
	<time>2024-03-25T11:54:55.000Z</time>
</trkpt>
<trkpt lat="45.8396010" lon="9.3066170">
	<ele>1125.80</ele>
	<time>2024-03-25T11:54:56.000Z</time>
</trkpt>
<trkpt lat="45.8396000" lon="9.3066160">
	<ele>1125.80</ele>
	<time>2024-03-25T11:54:57.000Z</time>
</trkpt>
<trkpt lat="45.8396000" lon="9.3066160">
	<ele>1125.80</ele>
	<time>2024-03-25T11:54:58.000Z</time>
</trkpt>
<trkpt lat="45.8395990" lon="9.3066140">
	<ele>1125.80</ele>
	<time>2024-03-25T11:54:59.000Z</time>
</trkpt>
<trkpt lat="45.8395990" lon="9.3066140">
	<ele>1125.80</ele>
	<time>2024-03-25T11:55:00.000Z</time>
</trkpt>
<trkpt lat="45.8395980" lon="9.3066130">
	<ele>1125.80</ele>
	<time>2024-03-25T11:55:01.000Z</time>
</trkpt>
<trkpt lat="45.8395970" lon="9.3066110">
	<ele>1125.80</ele>
	<time>2024-03-25T11:55:02.000Z</time>
</trkpt>
<trkpt lat="45.8395960" lon="9.3066090">
	<ele>1125.80</ele>
	<time>2024-03-25T11:55:03.000Z</time>
</trkpt>
<trkpt lat="45.8395960" lon="9.3066060">
	<ele>1125.80</ele>
	<time>2024-03-25T11:55:04.000Z</time>
</trkpt>
<trkpt lat="45.8395950" lon="9.3066030">
	<ele>1125.80</ele>
	<time>2024-03-25T11:55:05.000Z</time>
</trkpt>
<trkpt lat="45.8395950" lon="9.3066000">
	<ele>1125.80</ele>
	<time>2024-03-25T11:55:06.000Z</time>
</trkpt>
<trkpt lat="45.8395940" lon="9.3065980">
	<ele>1125.80</ele>
	<time>2024-03-25T11:55:07.000Z</time>
</trkpt>
<trkpt lat="45.8395940" lon="9.3065970">
	<ele>1125.80</ele>
	<time>2024-03-25T11:55:08.000Z</time>
</trkpt>
<trkpt lat="45.8395930" lon="9.3065970">
	<ele>1125.80</ele>
	<time>2024-03-25T11:55:09.000Z</time>
</trkpt>
<trkpt lat="45.8395920" lon="9.3065960">
	<ele>1125.80</ele>
	<time>2024-03-25T11:55:10.000Z</time>
</trkpt>
<trkpt lat="45.8395920" lon="9.3065960">
	<ele>1125.80</ele>
	<time>2024-03-25T11:55:11.000Z</time>
</trkpt>
<trkpt lat="45.8395910" lon="9.3065960">
	<ele>1125.80</ele>
	<time>2024-03-25T11:55:12.000Z</time>
</trkpt>
<trkpt lat="45.8395900" lon="9.3065950">
	<ele>1125.80</ele>
	<time>2024-03-25T11:55:13.000Z</time>
</trkpt>
<trkpt lat="45.8395900" lon="9.3065950">
	<ele>1125.80</ele>
	<time>2024-03-25T11:55:14.000Z</time>
</trkpt>
<trkpt lat="45.8395900" lon="9.3065950">
	<ele>1125.80</ele>
	<time>2024-03-25T11:55:15.000Z</time>
</trkpt>
<trkpt lat="45.8395890" lon="9.3065950">
	<ele>1125.80</ele>
	<time>2024-03-25T11:55:16.000Z</time>
</trkpt>
<trkpt lat="45.8395890" lon="9.3065950">
	<ele>1125.80</ele>
	<time>2024-03-25T11:55:17.000Z</time>
</trkpt>
<trkpt lat="45.8395880" lon="9.3065940">
	<ele>1125.80</ele>
	<time>2024-03-25T11:55:18.000Z</time>
</trkpt>
<trkpt lat="45.8395880" lon="9.3065940">
	<ele>1125.80</ele>
	<time>2024-03-25T11:55:19.000Z</time>
</trkpt>
<trkpt lat="45.8395880" lon="9.3065940">
	<ele>1125.80</ele>
	<time>2024-03-25T11:55:20.000Z</time>
</trkpt>
<trkpt lat="45.8395880" lon="9.3065930">
	<ele>1125.80</ele>
	<time>2024-03-25T11:55:21.000Z</time>
</trkpt>
<trkpt lat="45.8395870" lon="9.3065920">
	<ele>1125.80</ele>
	<time>2024-03-25T11:55:22.000Z</time>
</trkpt>
<trkpt lat="45.8395870" lon="9.3065910">
	<ele>1125.80</ele>
	<time>2024-03-25T11:55:23.000Z</time>
</trkpt>
<trkpt lat="45.8395870" lon="9.3065910">
	<ele>1125.80</ele>
	<time>2024-03-25T11:55:24.000Z</time>
</trkpt>
<trkpt lat="45.8395870" lon="9.3065900">
	<ele>1125.80</ele>
	<time>2024-03-25T11:55:25.000Z</time>
</trkpt>
<trkpt lat="45.8395870" lon="9.3065900">
	<ele>1125.80</ele>
	<time>2024-03-25T11:55:26.000Z</time>
</trkpt>
<trkpt lat="45.8395870" lon="9.3065890">
	<ele>1125.80</ele>
	<time>2024-03-25T11:55:27.000Z</time>
</trkpt>
<trkpt lat="45.8395870" lon="9.3065890">
	<ele>1125.80</ele>
	<time>2024-03-25T11:55:28.000Z</time>
</trkpt>
<trkpt lat="45.8395860" lon="9.3065880">
	<ele>1125.80</ele>
	<time>2024-03-25T11:55:29.000Z</time>
</trkpt>
<trkpt lat="45.8395860" lon="9.3065880">
	<ele>1125.80</ele>
	<time>2024-03-25T11:55:30.000Z</time>
</trkpt>
<trkpt lat="45.8395860" lon="9.3065880">
	<ele>1125.80</ele>
	<time>2024-03-25T11:55:31.000Z</time>
</trkpt>
<trkpt lat="45.8395860" lon="9.3065870">
	<ele>1125.80</ele>
	<time>2024-03-25T11:55:32.000Z</time>
</trkpt>
<trkpt lat="45.8395860" lon="9.3065870">
	<ele>1125.80</ele>
	<time>2024-03-25T11:55:33.000Z</time>
</trkpt>
<trkpt lat="45.8395860" lon="9.3065870">
	<ele>1125.80</ele>
	<time>2024-03-25T11:55:34.000Z</time>
</trkpt>
<trkpt lat="45.8395860" lon="9.3065860">
	<ele>1125.80</ele>
	<time>2024-03-25T11:55:35.000Z</time>
</trkpt>
<trkpt lat="45.8395860" lon="9.3065850">
	<ele>1125.80</ele>
	<time>2024-03-25T11:55:36.000Z</time>
</trkpt>
<trkpt lat="45.8395860" lon="9.3065820">
	<ele>1125.80</ele>
	<time>2024-03-25T11:55:37.000Z</time>
</trkpt>
<trkpt lat="45.8395860" lon="9.3065800">
	<ele>1125.80</ele>
	<time>2024-03-25T11:55:38.000Z</time>
</trkpt>
<trkpt lat="45.8395850" lon="9.3065770">
	<ele>1125.80</ele>
	<time>2024-03-25T11:55:39.000Z</time>
</trkpt>
<trkpt lat="45.8395840" lon="9.3065750">
	<ele>1125.80</ele>
	<time>2024-03-25T11:55:40.000Z</time>
</trkpt>
<trkpt lat="45.8395830" lon="9.3065730">
	<ele>1125.80</ele>
	<time>2024-03-25T11:55:41.000Z</time>
</trkpt>
<trkpt lat="45.8395830" lon="9.3065710">
	<ele>1125.80</ele>
	<time>2024-03-25T11:55:42.000Z</time>
</trkpt>
<trkpt lat="45.8395820" lon="9.3065700">
	<ele>1125.80</ele>
	<time>2024-03-25T11:55:43.000Z</time>
</trkpt>
<trkpt lat="45.8395810" lon="9.3065690">
	<ele>1125.80</ele>
	<time>2024-03-25T11:55:44.000Z</time>
</trkpt>
<trkpt lat="45.8395810" lon="9.3065680">
	<ele>1125.80</ele>
	<time>2024-03-25T11:55:45.000Z</time>
</trkpt>
<trkpt lat="45.8395800" lon="9.3065670">
	<ele>1125.80</ele>
	<time>2024-03-25T11:55:46.000Z</time>
</trkpt>
<trkpt lat="45.8395800" lon="9.3065660">
	<ele>1125.80</ele>
	<time>2024-03-25T11:55:47.000Z</time>
</trkpt>
<trkpt lat="45.8395800" lon="9.3065650">
	<ele>1125.80</ele>
	<time>2024-03-25T11:55:48.000Z</time>
</trkpt>
<trkpt lat="45.8395790" lon="9.3065650">
	<ele>1125.80</ele>
	<time>2024-03-25T11:55:49.000Z</time>
</trkpt>
<trkpt lat="45.8395790" lon="9.3065630">
	<ele>1125.80</ele>
	<time>2024-03-25T11:55:50.000Z</time>
</trkpt>
<trkpt lat="45.8395790" lon="9.3065610">
	<ele>1125.80</ele>
	<time>2024-03-25T11:55:51.000Z</time>
</trkpt>
<trkpt lat="45.8395790" lon="9.3065600">
	<ele>1125.80</ele>
	<time>2024-03-25T11:55:52.000Z</time>
</trkpt>
<trkpt lat="45.8395780" lon="9.3065580">
	<ele>1125.80</ele>
	<time>2024-03-25T11:55:53.000Z</time>
</trkpt>
<trkpt lat="45.8395780" lon="9.3065570">
	<ele>1125.80</ele>
	<time>2024-03-25T11:55:54.000Z</time>
</trkpt>
<trkpt lat="45.8395780" lon="9.3065540">
	<ele>1125.80</ele>
	<time>2024-03-25T11:55:55.000Z</time>
</trkpt>
<trkpt lat="45.8395780" lon="9.3065520">
	<ele>1125.80</ele>
	<time>2024-03-25T11:55:56.000Z</time>
</trkpt>
<trkpt lat="45.8395780" lon="9.3065500">
	<ele>1125.80</ele>
	<time>2024-03-25T11:55:57.000Z</time>
</trkpt>
<trkpt lat="45.8395780" lon="9.3065480">
	<ele>1125.80</ele>
	<time>2024-03-25T11:55:58.000Z</time>
</trkpt>
<trkpt lat="45.8395780" lon="9.3065470">
	<ele>1125.80</ele>
	<time>2024-03-25T11:55:59.000Z</time>
</trkpt>
<trkpt lat="45.8395780" lon="9.3065460">
	<ele>1125.80</ele>
	<time>2024-03-25T11:56:00.000Z</time>
</trkpt>
<trkpt lat="45.8395770" lon="9.3065450">
	<ele>1125.80</ele>
	<time>2024-03-25T11:56:01.000Z</time>
</trkpt>
<trkpt lat="45.8395770" lon="9.3065450">
	<ele>1125.80</ele>
	<time>2024-03-25T11:56:02.000Z</time>
</trkpt>
<trkpt lat="45.8395770" lon="9.3065440">
	<ele>1125.80</ele>
	<time>2024-03-25T11:56:03.000Z</time>
</trkpt>
<trkpt lat="45.8395770" lon="9.3065440">
	<ele>1125.80</ele>
	<time>2024-03-25T11:56:04.000Z</time>
</trkpt>
<trkpt lat="45.8395770" lon="9.3065440">
	<ele>1125.80</ele>
	<time>2024-03-25T11:56:05.000Z</time>
</trkpt>
<trkpt lat="45.8395770" lon="9.3065430">
	<ele>1125.80</ele>
	<time>2024-03-25T11:56:06.000Z</time>
</trkpt>
<trkpt lat="45.8395770" lon="9.3065430">
	<ele>1125.80</ele>
	<time>2024-03-25T11:56:07.000Z</time>
</trkpt>
<trkpt lat="45.8395770" lon="9.3065430">
	<ele>1125.80</ele>
	<time>2024-03-25T11:56:08.000Z</time>
</trkpt>
<trkpt lat="45.8395770" lon="9.3065430">
	<ele>1125.80</ele>
	<time>2024-03-25T11:56:09.000Z</time>
</trkpt>
<trkpt lat="45.8395770" lon="9.3065430">
	<ele>1125.80</ele>
	<time>2024-03-25T11:56:10.000Z</time>
</trkpt>
<trkpt lat="45.8395760" lon="9.3065430">
	<ele>1125.80</ele>
	<time>2024-03-25T11:56:11.000Z</time>
</trkpt>
<trkpt lat="45.8395760" lon="9.3065430">
	<ele>1125.80</ele>
	<time>2024-03-25T11:56:12.000Z</time>
</trkpt>
<trkpt lat="45.8395760" lon="9.3065430">
	<ele>1125.80</ele>
	<time>2024-03-25T11:56:13.000Z</time>
</trkpt>
<trkpt lat="45.8395760" lon="9.3065430">
	<ele>1125.80</ele>
	<time>2024-03-25T11:56:14.000Z</time>
</trkpt>
<trkpt lat="45.8395760" lon="9.3065430">
	<ele>1125.80</ele>
	<time>2024-03-25T11:56:15.000Z</time>
</trkpt>
<trkpt lat="45.8395760" lon="9.3065420">
	<ele>1125.80</ele>
	<time>2024-03-25T11:56:16.000Z</time>
</trkpt>
<trkpt lat="45.8395750" lon="9.3065420">
	<ele>1125.80</ele>
	<time>2024-03-25T11:56:17.000Z</time>
</trkpt>
<trkpt lat="45.8395750" lon="9.3065420">
	<ele>1125.80</ele>
	<time>2024-03-25T11:56:18.000Z</time>
</trkpt>
<trkpt lat="45.8395750" lon="9.3065420">
	<ele>1125.80</ele>
	<time>2024-03-25T11:56:19.000Z</time>
</trkpt>
<trkpt lat="45.8395750" lon="9.3065420">
	<ele>1125.80</ele>
	<time>2024-03-25T11:56:20.000Z</time>
</trkpt>
<trkpt lat="45.8395750" lon="9.3065420">
	<ele>1125.80</ele>
	<time>2024-03-25T11:56:21.000Z</time>
</trkpt>
<trkpt lat="45.8395750" lon="9.3065420">
	<ele>1125.80</ele>
	<time>2024-03-25T11:56:22.000Z</time>
</trkpt>
<trkpt lat="45.8395750" lon="9.3065420">
	<ele>1125.80</ele>
	<time>2024-03-25T11:56:23.000Z</time>
</trkpt>
<trkpt lat="45.8395740" lon="9.3065420">
	<ele>1125.80</ele>
	<time>2024-03-25T11:56:24.000Z</time>
</trkpt>
<trkpt lat="45.8395740" lon="9.3065420">
	<ele>1125.80</ele>
	<time>2024-03-25T11:56:25.000Z</time>
</trkpt>
<trkpt lat="45.8395740" lon="9.3065420">
	<ele>1125.80</ele>
	<time>2024-03-25T11:56:26.000Z</time>
</trkpt>
<trkpt lat="45.8395740" lon="9.3065420">
	<ele>1125.80</ele>
	<time>2024-03-25T11:56:27.000Z</time>
</trkpt>
<trkpt lat="45.8395740" lon="9.3065420">
	<ele>1125.80</ele>
	<time>2024-03-25T11:56:28.000Z</time>
</trkpt>
<trkpt lat="45.8395740" lon="9.3065420">
	<ele>1125.80</ele>
	<time>2024-03-25T11:56:29.000Z</time>
</trkpt>
<trkpt lat="45.8395740" lon="9.3065410">
	<ele>1125.80</ele>
	<time>2024-03-25T11:56:30.000Z</time>
</trkpt>
<trkpt lat="45.8395740" lon="9.3065410">
	<ele>1125.80</ele>
	<time>2024-03-25T11:56:31.000Z</time>
</trkpt>
<trkpt lat="45.8395740" lon="9.3065410">
	<ele>1125.80</ele>
	<time>2024-03-25T11:56:32.000Z</time>
</trkpt>
<trkpt lat="45.8395740" lon="9.3065410">
	<ele>1125.80</ele>
	<time>2024-03-25T11:56:33.000Z</time>
</trkpt>
<trkpt lat="45.8395740" lon="9.3065410">
	<ele>1125.80</ele>
	<time>2024-03-25T11:56:34.000Z</time>
</trkpt>
<trkpt lat="45.8395740" lon="9.3065410">
	<ele>1125.80</ele>
	<time>2024-03-25T11:56:35.000Z</time>
</trkpt>
<trkpt lat="45.8395740" lon="9.3065410">
	<ele>1125.80</ele>
	<time>2024-03-25T11:56:36.000Z</time>
</trkpt>
<trkpt lat="45.8395740" lon="9.3065410">
	<ele>1125.80</ele>
	<time>2024-03-25T11:56:37.000Z</time>
</trkpt>
<trkpt lat="45.8395740" lon="9.3065400">
	<ele>1125.80</ele>
	<time>2024-03-25T11:56:38.000Z</time>
</trkpt>
<trkpt lat="45.8395740" lon="9.3065400">
	<ele>1125.80</ele>
	<time>2024-03-25T11:56:39.000Z</time>
</trkpt>
<trkpt lat="45.8395740" lon="9.3065400">
	<ele>1125.80</ele>
	<time>2024-03-25T11:56:40.000Z</time>
</trkpt>
<trkpt lat="45.8395740" lon="9.3065400">
	<ele>1125.80</ele>
	<time>2024-03-25T11:56:41.000Z</time>
</trkpt>
<trkpt lat="45.8395740" lon="9.3065400">
	<ele>1125.80</ele>
	<time>2024-03-25T11:56:42.000Z</time>
</trkpt>
<trkpt lat="45.8395740" lon="9.3065400">
	<ele>1125.80</ele>
	<time>2024-03-25T11:56:43.000Z</time>
</trkpt>
<trkpt lat="45.8395740" lon="9.3065400">
	<ele>1125.80</ele>
	<time>2024-03-25T11:56:44.000Z</time>
</trkpt>
<trkpt lat="45.8395740" lon="9.3065410">
	<ele>1125.80</ele>
	<time>2024-03-25T11:56:45.000Z</time>
</trkpt>
<trkpt lat="45.8395750" lon="9.3065410">
	<ele>1125.80</ele>
	<time>2024-03-25T11:56:46.000Z</time>
</trkpt>
<trkpt lat="45.8395750" lon="9.3065410">
	<ele>1125.80</ele>
	<time>2024-03-25T11:56:47.000Z</time>
</trkpt>
<trkpt lat="45.8395750" lon="9.3065410">
	<ele>1125.80</ele>
	<time>2024-03-25T11:56:48.000Z</time>
</trkpt>
<trkpt lat="45.8395750" lon="9.3065410">
	<ele>1125.80</ele>
	<time>2024-03-25T11:56:49.000Z</time>
</trkpt>
<trkpt lat="45.8395750" lon="9.3065410">
	<ele>1125.80</ele>
	<time>2024-03-25T11:56:50.000Z</time>
</trkpt>
<trkpt lat="45.8395750" lon="9.3065400">
	<ele>1125.80</ele>
	<time>2024-03-25T11:56:51.000Z</time>
</trkpt>
<trkpt lat="45.8395760" lon="9.3065400">
	<ele>1125.80</ele>
	<time>2024-03-25T11:56:52.000Z</time>
</trkpt>
<trkpt lat="45.8395760" lon="9.3065400">
	<ele>1125.80</ele>
	<time>2024-03-25T11:56:53.000Z</time>
</trkpt>
<trkpt lat="45.8395760" lon="9.3065400">
	<ele>1125.80</ele>
	<time>2024-03-25T11:56:54.000Z</time>
</trkpt>
<trkpt lat="45.8395760" lon="9.3065400">
	<ele>1125.80</ele>
	<time>2024-03-25T11:56:55.000Z</time>
</trkpt>
<trkpt lat="45.8395760" lon="9.3065400">
	<ele>1125.80</ele>
	<time>2024-03-25T11:56:56.000Z</time>
</trkpt>
<trkpt lat="45.8395760" lon="9.3065400">
	<ele>1125.80</ele>
	<time>2024-03-25T11:56:57.000Z</time>
</trkpt>
<trkpt lat="45.8395760" lon="9.3065400">
	<ele>1125.80</ele>
	<time>2024-03-25T11:56:58.000Z</time>
</trkpt>
<trkpt lat="45.8395760" lon="9.3065400">
	<ele>1125.80</ele>
	<time>2024-03-25T11:56:59.000Z</time>
</trkpt>
<trkpt lat="45.8395760" lon="9.3065400">
	<ele>1125.80</ele>
	<time>2024-03-25T11:57:00.000Z</time>
</trkpt>
<trkpt lat="45.8395760" lon="9.3065400">
	<ele>1125.80</ele>
	<time>2024-03-25T11:57:01.000Z</time>
</trkpt>
<trkpt lat="45.8395760" lon="9.3065400">
	<ele>1125.80</ele>
	<time>2024-03-25T11:57:02.000Z</time>
</trkpt>
<trkpt lat="45.8395760" lon="9.3065400">
	<ele>1125.80</ele>
	<time>2024-03-25T11:57:03.000Z</time>
</trkpt>
<trkpt lat="45.8395770" lon="9.3065400">
	<ele>1125.80</ele>
	<time>2024-03-25T11:57:04.000Z</time>
</trkpt>
<trkpt lat="45.8395770" lon="9.3065400">
	<ele>1125.80</ele>
	<time>2024-03-25T11:57:05.000Z</time>
</trkpt>
<trkpt lat="45.8395770" lon="9.3065400">
	<ele>1125.80</ele>
	<time>2024-03-25T11:57:06.000Z</time>
</trkpt>
<trkpt lat="45.8395770" lon="9.3065400">
	<ele>1125.80</ele>
	<time>2024-03-25T11:57:07.000Z</time>
</trkpt>
<trkpt lat="45.8395770" lon="9.3065400">
	<ele>1125.80</ele>
	<time>2024-03-25T11:57:08.000Z</time>
</trkpt>
<trkpt lat="45.8395770" lon="9.3065400">
	<ele>1125.80</ele>
	<time>2024-03-25T11:57:09.000Z</time>
</trkpt>
<trkpt lat="45.8395770" lon="9.3065400">
	<ele>1125.80</ele>
	<time>2024-03-25T11:57:10.000Z</time>
</trkpt>
<trkpt lat="45.8395770" lon="9.3065400">
	<ele>1125.80</ele>
	<time>2024-03-25T11:57:11.000Z</time>
</trkpt>
<trkpt lat="45.8395770" lon="9.3065400">
	<ele>1125.80</ele>
	<time>2024-03-25T11:57:12.000Z</time>
</trkpt>
<trkpt lat="45.8395770" lon="9.3065400">
	<ele>1125.80</ele>
	<time>2024-03-25T11:57:13.000Z</time>
</trkpt>
<trkpt lat="45.8395770" lon="9.3065400">
	<ele>1125.80</ele>
	<time>2024-03-25T11:57:14.000Z</time>
</trkpt>
<trkpt lat="45.8395770" lon="9.3065400">
	<ele>1125.80</ele>
	<time>2024-03-25T11:57:15.000Z</time>
</trkpt>
<trkpt lat="45.8395770" lon="9.3065400">
	<ele>1125.80</ele>
	<time>2024-03-25T11:57:16.000Z</time>
</trkpt>
<trkpt lat="45.8395770" lon="9.3065400">
	<ele>1125.80</ele>
	<time>2024-03-25T11:57:17.000Z</time>
</trkpt>
<trkpt lat="45.8395770" lon="9.3065400">
	<ele>1125.80</ele>
	<time>2024-03-25T11:57:18.000Z</time>
</trkpt>
<trkpt lat="45.8395780" lon="9.3065400">
	<ele>1125.80</ele>
	<time>2024-03-25T11:57:19.000Z</time>
</trkpt>
<trkpt lat="45.8395780" lon="9.3065400">
	<ele>1125.80</ele>
	<time>2024-03-25T11:57:20.000Z</time>
</trkpt>
<trkpt lat="45.8395780" lon="9.3065400">
	<ele>1125.80</ele>
	<time>2024-03-25T11:57:21.000Z</time>
</trkpt>
<trkpt lat="45.8395780" lon="9.3065410">
	<ele>1125.80</ele>
	<time>2024-03-25T11:57:22.000Z</time>
</trkpt>
<trkpt lat="45.8395780" lon="9.3065410">
	<ele>1125.80</ele>
	<time>2024-03-25T11:57:23.000Z</time>
</trkpt>
<trkpt lat="45.8395780" lon="9.3065400">
	<ele>1125.80</ele>
	<time>2024-03-25T11:57:24.000Z</time>
</trkpt>
<trkpt lat="45.8395780" lon="9.3065400">
	<ele>1125.80</ele>
	<time>2024-03-25T11:57:25.000Z</time>
</trkpt>
<trkpt lat="45.8395780" lon="9.3065400">
	<ele>1125.80</ele>
	<time>2024-03-25T11:57:26.000Z</time>
</trkpt>
<trkpt lat="45.8395780" lon="9.3065400">
	<ele>1125.80</ele>
	<time>2024-03-25T11:57:27.000Z</time>
</trkpt>
<trkpt lat="45.8395790" lon="9.3065410">
	<ele>1125.80</ele>
	<time>2024-03-25T11:57:28.000Z</time>
</trkpt>
<trkpt lat="45.8395790" lon="9.3065400">
	<ele>1125.80</ele>
	<time>2024-03-25T11:57:29.000Z</time>
</trkpt>
<trkpt lat="45.8395790" lon="9.3065400">
	<ele>1125.80</ele>
	<time>2024-03-25T11:57:30.000Z</time>
</trkpt>
<trkpt lat="45.8395790" lon="9.3065400">
	<ele>1125.80</ele>
	<time>2024-03-25T11:57:31.000Z</time>
</trkpt>
<trkpt lat="45.8395790" lon="9.3065400">
	<ele>1125.80</ele>
	<time>2024-03-25T11:57:32.000Z</time>
</trkpt>
<trkpt lat="45.8395790" lon="9.3065400">
	<ele>1125.80</ele>
	<time>2024-03-25T11:57:33.000Z</time>
</trkpt>
<trkpt lat="45.8395790" lon="9.3065400">
	<ele>1125.80</ele>
	<time>2024-03-25T11:57:34.000Z</time>
</trkpt>
<trkpt lat="45.8395790" lon="9.3065400">
	<ele>1125.80</ele>
	<time>2024-03-25T11:57:35.000Z</time>
</trkpt>
<trkpt lat="45.8395790" lon="9.3065400">
	<ele>1125.80</ele>
	<time>2024-03-25T11:57:36.000Z</time>
</trkpt>
<trkpt lat="45.8395790" lon="9.3065400">
	<ele>1125.80</ele>
	<time>2024-03-25T11:57:37.000Z</time>
</trkpt>
<trkpt lat="45.8395790" lon="9.3065400">
	<ele>1125.80</ele>
	<time>2024-03-25T11:57:38.000Z</time>
</trkpt>
<trkpt lat="45.8395790" lon="9.3065400">
	<ele>1125.80</ele>
	<time>2024-03-25T11:57:39.000Z</time>
</trkpt>
<trkpt lat="45.8395790" lon="9.3065400">
	<ele>1125.80</ele>
	<time>2024-03-25T11:57:40.000Z</time>
</trkpt>
<trkpt lat="45.8395790" lon="9.3065400">
	<ele>1125.80</ele>
	<time>2024-03-25T11:57:41.000Z</time>
</trkpt>
<trkpt lat="45.8395790" lon="9.3065400">
	<ele>1125.80</ele>
	<time>2024-03-25T11:57:42.000Z</time>
</trkpt>
<trkpt lat="45.8395790" lon="9.3065400">
	<ele>1125.80</ele>
	<time>2024-03-25T11:57:43.000Z</time>
</trkpt>
<trkpt lat="45.8395790" lon="9.3065400">
	<ele>1125.80</ele>
	<time>2024-03-25T11:57:44.000Z</time>
</trkpt>
<trkpt lat="45.8395790" lon="9.3065400">
	<ele>1125.80</ele>
	<time>2024-03-25T11:57:45.000Z</time>
</trkpt>
<trkpt lat="45.8395790" lon="9.3065400">
	<ele>1125.80</ele>
	<time>2024-03-25T11:57:46.000Z</time>
</trkpt>
<trkpt lat="45.8395790" lon="9.3065410">
	<ele>1125.80</ele>
	<time>2024-03-25T11:57:47.000Z</time>
</trkpt>
<trkpt lat="45.8395800" lon="9.3065410">
	<ele>1125.80</ele>
	<time>2024-03-25T11:57:48.000Z</time>
</trkpt>
<trkpt lat="45.8395800" lon="9.3065410">
	<ele>1125.80</ele>
	<time>2024-03-25T11:57:49.000Z</time>
</trkpt>
<trkpt lat="45.8395800" lon="9.3065410">
	<ele>1125.80</ele>
	<time>2024-03-25T11:57:50.000Z</time>
</trkpt>
<trkpt lat="45.8395800" lon="9.3065410">
	<ele>1125.80</ele>
	<time>2024-03-25T11:57:51.000Z</time>
</trkpt>
<trkpt lat="45.8395800" lon="9.3065410">
	<ele>1125.80</ele>
	<time>2024-03-25T11:57:52.000Z</time>
</trkpt>
<trkpt lat="45.8395800" lon="9.3065410">
	<ele>1125.80</ele>
	<time>2024-03-25T11:57:53.000Z</time>
</trkpt>
<trkpt lat="45.8395800" lon="9.3065410">
	<ele>1125.80</ele>
	<time>2024-03-25T11:57:54.000Z</time>
</trkpt>
<trkpt lat="45.8395800" lon="9.3065410">
	<ele>1125.80</ele>
	<time>2024-03-25T11:57:55.000Z</time>
</trkpt>
<trkpt lat="45.8395800" lon="9.3065410">
	<ele>1125.80</ele>
	<time>2024-03-25T11:57:56.000Z</time>
</trkpt>
<trkpt lat="45.8395800" lon="9.3065410">
	<ele>1125.80</ele>
	<time>2024-03-25T11:57:57.000Z</time>
</trkpt>
<trkpt lat="45.8395800" lon="9.3065410">
	<ele>1125.80</ele>
	<time>2024-03-25T11:57:58.000Z</time>
</trkpt>
<trkpt lat="45.8395800" lon="9.3065410">
	<ele>1125.80</ele>
	<time>2024-03-25T11:57:59.000Z</time>
</trkpt>
<trkpt lat="45.8395800" lon="9.3065410">
	<ele>1125.80</ele>
	<time>2024-03-25T11:58:00.000Z</time>
</trkpt>
<trkpt lat="45.8395800" lon="9.3065410">
	<ele>1125.80</ele>
	<time>2024-03-25T11:58:01.000Z</time>
</trkpt>
<trkpt lat="45.8395800" lon="9.3065410">
	<ele>1125.80</ele>
	<time>2024-03-25T11:58:02.000Z</time>
</trkpt>
<trkpt lat="45.8395810" lon="9.3065410">
	<ele>1125.80</ele>
	<time>2024-03-25T11:58:03.000Z</time>
</trkpt>
<trkpt lat="45.8395810" lon="9.3065410">
	<ele>1125.80</ele>
	<time>2024-03-25T11:58:04.000Z</time>
</trkpt>
<trkpt lat="45.8395810" lon="9.3065410">
	<ele>1125.80</ele>
	<time>2024-03-25T11:58:05.000Z</time>
</trkpt>
<trkpt lat="45.8395810" lon="9.3065410">
	<ele>1125.80</ele>
	<time>2024-03-25T11:58:06.000Z</time>
</trkpt>
<trkpt lat="45.8395810" lon="9.3065410">
	<ele>1125.80</ele>
	<time>2024-03-25T11:58:07.000Z</time>
</trkpt>
<trkpt lat="45.8395810" lon="9.3065410">
	<ele>1125.80</ele>
	<time>2024-03-25T11:58:08.000Z</time>
</trkpt>
<trkpt lat="45.8395810" lon="9.3065410">
	<ele>1125.80</ele>
	<time>2024-03-25T11:58:09.000Z</time>
</trkpt>
<trkpt lat="45.8395810" lon="9.3065410">
	<ele>1125.80</ele>
	<time>2024-03-25T11:58:10.000Z</time>
</trkpt>
<trkpt lat="45.8395810" lon="9.3065410">
	<ele>1125.80</ele>
	<time>2024-03-25T11:58:11.000Z</time>
</trkpt>
<trkpt lat="45.8395810" lon="9.3065410">
	<ele>1125.80</ele>
	<time>2024-03-25T11:58:12.000Z</time>
</trkpt>
<trkpt lat="45.8395810" lon="9.3065410">
	<ele>1125.80</ele>
	<time>2024-03-25T11:58:13.000Z</time>
</trkpt>
<trkpt lat="45.8395810" lon="9.3065410">
	<ele>1125.80</ele>
	<time>2024-03-25T11:58:14.000Z</time>
</trkpt>
<trkpt lat="45.8395820" lon="9.3065410">
	<ele>1125.80</ele>
	<time>2024-03-25T11:58:15.000Z</time>
</trkpt>
<trkpt lat="45.8395820" lon="9.3065400">
	<ele>1125.80</ele>
	<time>2024-03-25T11:58:16.000Z</time>
</trkpt>
<trkpt lat="45.8395820" lon="9.3065400">
	<ele>1125.80</ele>
	<time>2024-03-25T11:58:17.000Z</time>
</trkpt>
<trkpt lat="45.8395820" lon="9.3065400">
	<ele>1125.80</ele>
	<time>2024-03-25T11:58:18.000Z</time>
</trkpt>
<trkpt lat="45.8395820" lon="9.3065400">
	<ele>1125.80</ele>
	<time>2024-03-25T11:58:19.000Z</time>
</trkpt>
<trkpt lat="45.8395820" lon="9.3065400">
	<ele>1125.80</ele>
	<time>2024-03-25T11:58:20.000Z</time>
</trkpt>
<trkpt lat="45.8395820" lon="9.3065400">
	<ele>1125.80</ele>
	<time>2024-03-25T11:58:21.000Z</time>
</trkpt>
<trkpt lat="45.8395820" lon="9.3065400">
	<ele>1125.80</ele>
	<time>2024-03-25T11:58:22.000Z</time>
</trkpt>
<trkpt lat="45.8395820" lon="9.3065400">
	<ele>1125.80</ele>
	<time>2024-03-25T11:58:23.000Z</time>
</trkpt>
<trkpt lat="45.8395820" lon="9.3065400">
	<ele>1125.80</ele>
	<time>2024-03-25T11:58:24.000Z</time>
</trkpt>
<trkpt lat="45.8395820" lon="9.3065410">
	<ele>1125.80</ele>
	<time>2024-03-25T11:58:25.000Z</time>
</trkpt>
<trkpt lat="45.8395820" lon="9.3065400">
	<ele>1125.80</ele>
	<time>2024-03-25T11:58:26.000Z</time>
</trkpt>
<trkpt lat="45.8395830" lon="9.3065400">
	<ele>1125.80</ele>
	<time>2024-03-25T11:58:27.000Z</time>
</trkpt>
<trkpt lat="45.8395830" lon="9.3065400">
	<ele>1125.80</ele>
	<time>2024-03-25T11:58:28.000Z</time>
</trkpt>
<trkpt lat="45.8395830" lon="9.3065400">
	<ele>1125.80</ele>
	<time>2024-03-25T11:58:29.000Z</time>
</trkpt>
<trkpt lat="45.8395830" lon="9.3065400">
	<ele>1125.80</ele>
	<time>2024-03-25T11:58:30.000Z</time>
</trkpt>
<trkpt lat="45.8395830" lon="9.3065400">
	<ele>1125.80</ele>
	<time>2024-03-25T11:58:31.000Z</time>
</trkpt>
<trkpt lat="45.8395830" lon="9.3065400">
	<ele>1125.80</ele>
	<time>2024-03-25T11:58:32.000Z</time>
</trkpt>
<trkpt lat="45.8395830" lon="9.3065400">
	<ele>1125.80</ele>
	<time>2024-03-25T11:58:33.000Z</time>
</trkpt>
<trkpt lat="45.8395830" lon="9.3065400">
	<ele>1125.80</ele>
	<time>2024-03-25T11:58:34.000Z</time>
</trkpt>
<trkpt lat="45.8395830" lon="9.3065400">
	<ele>1125.80</ele>
	<time>2024-03-25T11:58:35.000Z</time>
</trkpt>
<trkpt lat="45.8395830" lon="9.3065400">
	<ele>1125.80</ele>
	<time>2024-03-25T11:58:36.000Z</time>
</trkpt>
<trkpt lat="45.8395830" lon="9.3065400">
	<ele>1125.80</ele>
	<time>2024-03-25T11:58:37.000Z</time>
</trkpt>
<trkpt lat="45.8395830" lon="9.3065400">
	<ele>1125.80</ele>
	<time>2024-03-25T11:58:38.000Z</time>
</trkpt>
<trkpt lat="45.8395830" lon="9.3065400">
	<ele>1125.80</ele>
	<time>2024-03-25T11:58:39.000Z</time>
</trkpt>
<trkpt lat="45.8395830" lon="9.3065400">
	<ele>1125.80</ele>
	<time>2024-03-25T11:58:40.000Z</time>
</trkpt>
<trkpt lat="45.8395830" lon="9.3065400">
	<ele>1125.80</ele>
	<time>2024-03-25T11:58:41.000Z</time>
</trkpt>
<trkpt lat="45.8395830" lon="9.3065400">
	<ele>1125.80</ele>
	<time>2024-03-25T11:58:42.000Z</time>
</trkpt>
<trkpt lat="45.8395830" lon="9.3065400">
	<ele>1125.80</ele>
	<time>2024-03-25T11:58:43.000Z</time>
</trkpt>
<trkpt lat="45.8395830" lon="9.3065400">
	<ele>1125.80</ele>
	<time>2024-03-25T11:58:44.000Z</time>
</trkpt>
<trkpt lat="45.8395830" lon="9.3065400">
	<ele>1125.80</ele>
	<time>2024-03-25T11:58:45.000Z</time>
</trkpt>
<trkpt lat="45.8395830" lon="9.3065400">
	<ele>1125.80</ele>
	<time>2024-03-25T11:58:46.000Z</time>
</trkpt>
<trkpt lat="45.8395830" lon="9.3065400">
	<ele>1125.80</ele>
	<time>2024-03-25T11:58:47.000Z</time>
</trkpt>
<trkpt lat="45.8395830" lon="9.3065390">
	<ele>1125.80</ele>
	<time>2024-03-25T11:58:48.000Z</time>
</trkpt>
<trkpt lat="45.8395840" lon="9.3065390">
	<ele>1125.80</ele>
	<time>2024-03-25T11:58:49.000Z</time>
</trkpt>
<trkpt lat="45.8395840" lon="9.3065390">
	<ele>1125.80</ele>
	<time>2024-03-25T11:58:50.000Z</time>
</trkpt>
<trkpt lat="45.8395840" lon="9.3065390">
	<ele>1125.80</ele>
	<time>2024-03-25T11:58:51.000Z</time>
</trkpt>
<trkpt lat="45.8395840" lon="9.3065390">
	<ele>1125.80</ele>
	<time>2024-03-25T11:58:52.000Z</time>
</trkpt>
<trkpt lat="45.8395840" lon="9.3065380">
	<ele>1125.80</ele>
	<time>2024-03-25T11:58:53.000Z</time>
</trkpt>
<trkpt lat="45.8395840" lon="9.3065380">
	<ele>1125.80</ele>
	<time>2024-03-25T11:58:54.000Z</time>
</trkpt>
<trkpt lat="45.8395840" lon="9.3065380">
	<ele>1125.80</ele>
	<time>2024-03-25T11:58:55.000Z</time>
</trkpt>
<trkpt lat="45.8395840" lon="9.3065380">
	<ele>1125.80</ele>
	<time>2024-03-25T11:58:56.000Z</time>
</trkpt>
<trkpt lat="45.8395840" lon="9.3065380">
	<ele>1125.80</ele>
	<time>2024-03-25T11:58:57.000Z</time>
</trkpt>
<trkpt lat="45.8395840" lon="9.3065380">
	<ele>1125.80</ele>
	<time>2024-03-25T11:58:58.000Z</time>
</trkpt>
<trkpt lat="45.8395840" lon="9.3065380">
	<ele>1125.80</ele>
	<time>2024-03-25T11:58:59.000Z</time>
</trkpt>
<trkpt lat="45.8395840" lon="9.3065380">
	<ele>1125.80</ele>
	<time>2024-03-25T11:59:00.000Z</time>
</trkpt>
<trkpt lat="45.8395840" lon="9.3065380">
	<ele>1125.80</ele>
	<time>2024-03-25T11:59:01.000Z</time>
</trkpt>
<trkpt lat="45.8395840" lon="9.3065370">
	<ele>1125.80</ele>
	<time>2024-03-25T11:59:02.000Z</time>
</trkpt>
<trkpt lat="45.8395840" lon="9.3065370">
	<ele>1125.80</ele>
	<time>2024-03-25T11:59:03.000Z</time>
</trkpt>
<trkpt lat="45.8395840" lon="9.3065370">
	<ele>1125.80</ele>
	<time>2024-03-25T11:59:04.000Z</time>
</trkpt>
<trkpt lat="45.8395840" lon="9.3065370">
	<ele>1125.80</ele>
	<time>2024-03-25T11:59:05.000Z</time>
</trkpt>
<trkpt lat="45.8395840" lon="9.3065370">
	<ele>1125.80</ele>
	<time>2024-03-25T11:59:06.000Z</time>
</trkpt>
<trkpt lat="45.8395840" lon="9.3065370">
	<ele>1125.80</ele>
	<time>2024-03-25T11:59:07.000Z</time>
</trkpt>
<trkpt lat="45.8395840" lon="9.3065360">
	<ele>1125.80</ele>
	<time>2024-03-25T11:59:08.000Z</time>
</trkpt>
<trkpt lat="45.8395850" lon="9.3065360">
	<ele>1125.80</ele>
	<time>2024-03-25T11:59:09.000Z</time>
</trkpt>
<trkpt lat="45.8395850" lon="9.3065360">
	<ele>1125.80</ele>
	<time>2024-03-25T11:59:10.000Z</time>
</trkpt>
<trkpt lat="45.8395850" lon="9.3065360">
	<ele>1125.80</ele>
	<time>2024-03-25T11:59:11.000Z</time>
</trkpt>
<trkpt lat="45.8395850" lon="9.3065360">
	<ele>1125.80</ele>
	<time>2024-03-25T11:59:12.000Z</time>
</trkpt>
<trkpt lat="45.8395850" lon="9.3065360">
	<ele>1125.80</ele>
	<time>2024-03-25T11:59:13.000Z</time>
</trkpt>
<trkpt lat="45.8395850" lon="9.3065360">
	<ele>1125.80</ele>
	<time>2024-03-25T11:59:14.000Z</time>
</trkpt>
<trkpt lat="45.8395850" lon="9.3065360">
	<ele>1125.80</ele>
	<time>2024-03-25T11:59:15.000Z</time>
</trkpt>
<trkpt lat="45.8395850" lon="9.3065360">
	<ele>1125.80</ele>
	<time>2024-03-25T11:59:16.000Z</time>
</trkpt>
<trkpt lat="45.8395850" lon="9.3065360">
	<ele>1125.80</ele>
	<time>2024-03-25T11:59:17.000Z</time>
</trkpt>
<trkpt lat="45.8395850" lon="9.3065360">
	<ele>1125.80</ele>
	<time>2024-03-25T11:59:18.000Z</time>
</trkpt>
<trkpt lat="45.8395850" lon="9.3065360">
	<ele>1125.80</ele>
	<time>2024-03-25T11:59:19.000Z</time>
</trkpt>
<trkpt lat="45.8395850" lon="9.3065360">
	<ele>1125.80</ele>
	<time>2024-03-25T11:59:20.000Z</time>
</trkpt>
<trkpt lat="45.8395850" lon="9.3065360">
	<ele>1125.80</ele>
	<time>2024-03-25T11:59:21.000Z</time>
</trkpt>
<trkpt lat="45.8395850" lon="9.3065360">
	<ele>1125.80</ele>
	<time>2024-03-25T11:59:22.000Z</time>
</trkpt>
<trkpt lat="45.8395850" lon="9.3065360">
	<ele>1125.80</ele>
	<time>2024-03-25T11:59:23.000Z</time>
</trkpt>
<trkpt lat="45.8395850" lon="9.3065360">
	<ele>1125.80</ele>
	<time>2024-03-25T11:59:24.000Z</time>
</trkpt>
<trkpt lat="45.8395850" lon="9.3065360">
	<ele>1125.80</ele>
	<time>2024-03-25T11:59:25.000Z</time>
</trkpt>
<trkpt lat="45.8395850" lon="9.3065360">
	<ele>1125.80</ele>
	<time>2024-03-25T11:59:26.000Z</time>
</trkpt>
<trkpt lat="45.8395850" lon="9.3065360">
	<ele>1125.80</ele>
	<time>2024-03-25T11:59:27.000Z</time>
</trkpt>
<trkpt lat="45.8395850" lon="9.3065360">
	<ele>1125.80</ele>
	<time>2024-03-25T11:59:28.000Z</time>
</trkpt>
<trkpt lat="45.8395850" lon="9.3065360">
	<ele>1125.80</ele>
	<time>2024-03-25T11:59:29.000Z</time>
</trkpt>
<trkpt lat="45.8395850" lon="9.3065360">
	<ele>1125.80</ele>
	<time>2024-03-25T11:59:30.000Z</time>
</trkpt>
<trkpt lat="45.8395850" lon="9.3065360">
	<ele>1125.80</ele>
	<time>2024-03-25T11:59:31.000Z</time>
</trkpt>
<trkpt lat="45.8395850" lon="9.3065360">
	<ele>1125.80</ele>
	<time>2024-03-25T11:59:32.000Z</time>
</trkpt>
<trkpt lat="45.8395850" lon="9.3065360">
	<ele>1125.80</ele>
	<time>2024-03-25T11:59:33.000Z</time>
</trkpt>
<trkpt lat="45.8395850" lon="9.3065360">
	<ele>1125.80</ele>
	<time>2024-03-25T11:59:34.000Z</time>
</trkpt>
<trkpt lat="45.8395850" lon="9.3065360">
	<ele>1125.80</ele>
	<time>2024-03-25T11:59:35.000Z</time>
</trkpt>
<trkpt lat="45.8395850" lon="9.3065360">
	<ele>1125.80</ele>
	<time>2024-03-25T11:59:36.000Z</time>
</trkpt>
<trkpt lat="45.8395850" lon="9.3065360">
	<ele>1125.80</ele>
	<time>2024-03-25T11:59:37.000Z</time>
</trkpt>
<trkpt lat="45.8395850" lon="9.3065360">
	<ele>1125.80</ele>
	<time>2024-03-25T11:59:38.000Z</time>
</trkpt>
<trkpt lat="45.8395850" lon="9.3065360">
	<ele>1125.80</ele>
	<time>2024-03-25T11:59:39.000Z</time>
</trkpt>
<trkpt lat="45.8395850" lon="9.3065360">
	<ele>1125.80</ele>
	<time>2024-03-25T11:59:40.000Z</time>
</trkpt>
<trkpt lat="45.8395850" lon="9.3065360">
	<ele>1125.80</ele>
	<time>2024-03-25T11:59:41.000Z</time>
</trkpt>
<trkpt lat="45.8395850" lon="9.3065360">
	<ele>1125.80</ele>
	<time>2024-03-25T11:59:42.000Z</time>
</trkpt>
<trkpt lat="45.8395850" lon="9.3065360">
	<ele>1125.80</ele>
	<time>2024-03-25T11:59:43.000Z</time>
</trkpt>
<trkpt lat="45.8395850" lon="9.3065360">
	<ele>1125.80</ele>
	<time>2024-03-25T11:59:44.000Z</time>
</trkpt>
<trkpt lat="45.8395860" lon="9.3065360">
	<ele>1125.80</ele>
	<time>2024-03-25T11:59:45.000Z</time>
</trkpt>
<trkpt lat="45.8395860" lon="9.3065360">
	<ele>1125.80</ele>
	<time>2024-03-25T11:59:46.000Z</time>
</trkpt>
<trkpt lat="45.8395860" lon="9.3065360">
	<ele>1125.80</ele>
	<time>2024-03-25T11:59:47.000Z</time>
</trkpt>
<trkpt lat="45.8395860" lon="9.3065360">
	<ele>1125.80</ele>
	<time>2024-03-25T11:59:48.000Z</time>
</trkpt>
<trkpt lat="45.8395860" lon="9.3065360">
	<ele>1125.80</ele>
	<time>2024-03-25T11:59:49.000Z</time>
</trkpt>
<trkpt lat="45.8395860" lon="9.3065360">
	<ele>1125.80</ele>
	<time>2024-03-25T11:59:50.000Z</time>
</trkpt>
<trkpt lat="45.8395860" lon="9.3065360">
	<ele>1125.80</ele>
	<time>2024-03-25T11:59:51.000Z</time>
</trkpt>
<trkpt lat="45.8395850" lon="9.3065360">
	<ele>1125.80</ele>
	<time>2024-03-25T11:59:52.000Z</time>
</trkpt>
<trkpt lat="45.8395850" lon="9.3065360">
	<ele>1125.80</ele>
	<time>2024-03-25T11:59:53.000Z</time>
</trkpt>
<trkpt lat="45.8395850" lon="9.3065360">
	<ele>1125.80</ele>
	<time>2024-03-25T11:59:54.000Z</time>
</trkpt>
<trkpt lat="45.8395850" lon="9.3065360">
	<ele>1125.80</ele>
	<time>2024-03-25T11:59:55.000Z</time>
</trkpt>
<trkpt lat="45.8395850" lon="9.3065360">
	<ele>1125.80</ele>
	<time>2024-03-25T11:59:56.000Z</time>
</trkpt>
<trkpt lat="45.8395860" lon="9.3065360">
	<ele>1125.80</ele>
	<time>2024-03-25T11:59:57.000Z</time>
</trkpt>
<trkpt lat="45.8395860" lon="9.3065360">
	<ele>1125.80</ele>
	<time>2024-03-25T11:59:58.000Z</time>
</trkpt>
<trkpt lat="45.8395860" lon="9.3065360">
	<ele>1125.80</ele>
	<time>2024-03-25T11:59:59.000Z</time>
</trkpt>
<trkpt lat="45.8395860" lon="9.3065360">
	<ele>1125.80</ele>
	<time>2024-03-25T12:00:00.000Z</time>
</trkpt>
<trkpt lat="45.8395860" lon="9.3065360">
	<ele>1125.80</ele>
	<time>2024-03-25T12:00:01.000Z</time>
</trkpt>
<trkpt lat="45.8395860" lon="9.3065360">
	<ele>1125.80</ele>
	<time>2024-03-25T12:00:02.000Z</time>
</trkpt>
<trkpt lat="45.8395860" lon="9.3065360">
	<ele>1125.80</ele>
	<time>2024-03-25T12:00:03.000Z</time>
</trkpt>
<trkpt lat="45.8395860" lon="9.3065360">
	<ele>1125.80</ele>
	<time>2024-03-25T12:00:04.000Z</time>
</trkpt>
<trkpt lat="45.8395860" lon="9.3065360">
	<ele>1125.80</ele>
	<time>2024-03-25T12:00:05.000Z</time>
</trkpt>
<trkpt lat="45.8395860" lon="9.3065360">
	<ele>1125.80</ele>
	<time>2024-03-25T12:00:06.000Z</time>
</trkpt>
<trkpt lat="45.8395870" lon="9.3065360">
	<ele>1125.80</ele>
	<time>2024-03-25T12:00:07.000Z</time>
</trkpt>
<trkpt lat="45.8395870" lon="9.3065360">
	<ele>1125.80</ele>
	<time>2024-03-25T12:00:08.000Z</time>
</trkpt>
<trkpt lat="45.8395870" lon="9.3065360">
	<ele>1125.80</ele>
	<time>2024-03-25T12:00:09.000Z</time>
</trkpt>
<trkpt lat="45.8395870" lon="9.3065360">
	<ele>1125.80</ele>
	<time>2024-03-25T12:00:10.000Z</time>
</trkpt>
<trkpt lat="45.8395870" lon="9.3065350">
	<ele>1125.80</ele>
	<time>2024-03-25T12:00:11.000Z</time>
</trkpt>
<trkpt lat="45.8395870" lon="9.3065350">
	<ele>1125.80</ele>
	<time>2024-03-25T12:00:12.000Z</time>
</trkpt>
<trkpt lat="45.8395870" lon="9.3065350">
	<ele>1125.80</ele>
	<time>2024-03-25T12:00:13.000Z</time>
</trkpt>
<trkpt lat="45.8395870" lon="9.3065350">
	<ele>1125.80</ele>
	<time>2024-03-25T12:00:14.000Z</time>
</trkpt>
<trkpt lat="45.8395870" lon="9.3065350">
	<ele>1125.80</ele>
	<time>2024-03-25T12:00:15.000Z</time>
</trkpt>
<trkpt lat="45.8395910" lon="9.3065370">
	<ele>1125.80</ele>
	<time>2024-03-25T12:00:16.000Z</time>
</trkpt>
<trkpt lat="45.8395970" lon="9.3065350">
	<ele>1125.80</ele>
	<time>2024-03-25T12:00:17.000Z</time>
</trkpt>
<trkpt lat="45.8396020" lon="9.3065310">
	<ele>1125.80</ele>
	<time>2024-03-25T12:00:18.000Z</time>
</trkpt>
<trkpt lat="45.8396060" lon="9.3065300">
	<ele>1125.80</ele>
	<time>2024-03-25T12:00:19.000Z</time>
</trkpt>
<trkpt lat="45.8396120" lon="9.3065280">
	<ele>1125.80</ele>
	<time>2024-03-25T12:00:20.000Z</time>
</trkpt>
<trkpt lat="45.8396200" lon="9.3065270">
	<ele>1125.80</ele>
	<time>2024-03-25T12:00:21.000Z</time>
</trkpt>
<trkpt lat="45.8396200" lon="9.3065180">
	<ele>1125.80</ele>
	<time>2024-03-25T12:00:22.000Z</time>
</trkpt>
<trkpt lat="45.8396300" lon="9.3065100">
	<ele>1125.80</ele>
	<time>2024-03-25T12:00:23.000Z</time>
</trkpt>
<trkpt lat="45.8396370" lon="9.3065110">
	<ele>1125.80</ele>
	<time>2024-03-25T12:00:24.000Z</time>
</trkpt>
<trkpt lat="45.8396380" lon="9.3065190">
	<ele>1125.80</ele>
	<time>2024-03-25T12:00:25.000Z</time>
</trkpt>
<trkpt lat="45.8396370" lon="9.3065160">
	<ele>1125.80</ele>
	<time>2024-03-25T12:00:26.000Z</time>
</trkpt>
<trkpt lat="45.8396370" lon="9.3065140">
	<ele>1125.80</ele>
	<time>2024-03-25T12:00:27.000Z</time>
</trkpt>
<trkpt lat="45.8396360" lon="9.3065130">
	<ele>1125.80</ele>
	<time>2024-03-25T12:00:28.000Z</time>
</trkpt>
<trkpt lat="45.8396360" lon="9.3065130">
	<ele>1125.80</ele>
	<time>2024-03-25T12:00:29.000Z</time>
</trkpt>
<trkpt lat="45.8396350" lon="9.3065140">
	<ele>1125.80</ele>
	<time>2024-03-25T12:00:30.000Z</time>
</trkpt>
<trkpt lat="45.8396340" lon="9.3065160">
	<ele>1125.80</ele>
	<time>2024-03-25T12:00:31.000Z</time>
</trkpt>
<trkpt lat="45.8396330" lon="9.3065190">
	<ele>1125.80</ele>
	<time>2024-03-25T12:00:32.000Z</time>
</trkpt>
<trkpt lat="45.8396340" lon="9.3065210">
	<ele>1125.80</ele>
	<time>2024-03-25T12:00:33.000Z</time>
</trkpt>
<trkpt lat="45.8396360" lon="9.3065220">
	<ele>1125.80</ele>
	<time>2024-03-25T12:00:34.000Z</time>
</trkpt>
<trkpt lat="45.8396360" lon="9.3065220">
	<ele>1125.80</ele>
	<time>2024-03-25T12:00:35.000Z</time>
</trkpt>
<trkpt lat="45.8396360" lon="9.3065220">
	<ele>1125.80</ele>
	<time>2024-03-25T12:00:36.000Z</time>
</trkpt>
<trkpt lat="45.8396360" lon="9.3065220">
	<ele>1125.80</ele>
	<time>2024-03-25T12:00:37.000Z</time>
</trkpt>
<trkpt lat="45.8396360" lon="9.3065220">
	<ele>1125.80</ele>
	<time>2024-03-25T12:00:38.000Z</time>
</trkpt>
<trkpt lat="45.8396360" lon="9.3065220">
	<ele>1125.80</ele>
	<time>2024-03-25T12:00:39.000Z</time>
</trkpt>
<trkpt lat="45.8396360" lon="9.3065220">
	<ele>1125.80</ele>
	<time>2024-03-25T12:00:40.000Z</time>
</trkpt>
<trkpt lat="45.8396360" lon="9.3065220">
	<ele>1125.80</ele>
	<time>2024-03-25T12:00:41.000Z</time>
</trkpt>
<trkpt lat="45.8396360" lon="9.3065220">
	<ele>1125.80</ele>
	<time>2024-03-25T12:00:42.000Z</time>
</trkpt>
<trkpt lat="45.8396360" lon="9.3065220">
	<ele>1125.80</ele>
	<time>2024-03-25T12:00:43.000Z</time>
</trkpt>
<trkpt lat="45.8396360" lon="9.3065220">
	<ele>1125.80</ele>
	<time>2024-03-25T12:00:44.000Z</time>
</trkpt>
<trkpt lat="45.8396360" lon="9.3065210">
	<ele>1125.80</ele>
	<time>2024-03-25T12:00:45.000Z</time>
</trkpt>
<trkpt lat="45.8396360" lon="9.3065200">
	<ele>1125.80</ele>
	<time>2024-03-25T12:00:46.000Z</time>
</trkpt>
<trkpt lat="45.8396360" lon="9.3065190">
	<ele>1125.80</ele>
	<time>2024-03-25T12:00:47.000Z</time>
</trkpt>
<trkpt lat="45.8396360" lon="9.3065190">
	<ele>1125.80</ele>
	<time>2024-03-25T12:00:48.000Z</time>
</trkpt>
<trkpt lat="45.8396360" lon="9.3065180">
	<ele>1125.80</ele>
	<time>2024-03-25T12:00:49.000Z</time>
</trkpt>
<trkpt lat="45.8396360" lon="9.3065170">
	<ele>1125.80</ele>
	<time>2024-03-25T12:00:50.000Z</time>
</trkpt>
<trkpt lat="45.8396360" lon="9.3065170">
	<ele>1125.80</ele>
	<time>2024-03-25T12:00:51.000Z</time>
</trkpt>
<trkpt lat="45.8396360" lon="9.3065170">
	<ele>1125.80</ele>
	<time>2024-03-25T12:00:52.000Z</time>
</trkpt>
<trkpt lat="45.8396370" lon="9.3065170">
	<ele>1125.80</ele>
	<time>2024-03-25T12:00:53.000Z</time>
</trkpt>
<trkpt lat="45.8396370" lon="9.3065170">
	<ele>1125.80</ele>
	<time>2024-03-25T12:00:54.000Z</time>
</trkpt>
<trkpt lat="45.8396370" lon="9.3065170">
	<ele>1125.80</ele>
	<time>2024-03-25T12:00:55.000Z</time>
</trkpt>
<trkpt lat="45.8396370" lon="9.3065170">
	<ele>1125.80</ele>
	<time>2024-03-25T12:00:56.000Z</time>
</trkpt>
<trkpt lat="45.8396360" lon="9.3065170">
	<ele>1125.80</ele>
	<time>2024-03-25T12:00:57.000Z</time>
</trkpt>
<trkpt lat="45.8396360" lon="9.3065180">
	<ele>1125.80</ele>
	<time>2024-03-25T12:00:58.000Z</time>
</trkpt>
<trkpt lat="45.8396360" lon="9.3065180">
	<ele>1125.80</ele>
	<time>2024-03-25T12:00:59.000Z</time>
</trkpt>
<trkpt lat="45.8396360" lon="9.3065180">
	<ele>1125.80</ele>
	<time>2024-03-25T12:01:00.000Z</time>
</trkpt>
<trkpt lat="45.8396360" lon="9.3065190">
	<ele>1125.80</ele>
	<time>2024-03-25T12:01:01.000Z</time>
</trkpt>
<trkpt lat="45.8396360" lon="9.3065190">
	<ele>1125.80</ele>
	<time>2024-03-25T12:01:02.000Z</time>
</trkpt>
<trkpt lat="45.8396360" lon="9.3065190">
	<ele>1125.80</ele>
	<time>2024-03-25T12:01:03.000Z</time>
</trkpt>
<trkpt lat="45.8396360" lon="9.3065190">
	<ele>1125.80</ele>
	<time>2024-03-25T12:01:04.000Z</time>
</trkpt>
<trkpt lat="45.8396360" lon="9.3065190">
	<ele>1125.80</ele>
	<time>2024-03-25T12:01:05.000Z</time>
</trkpt>
<trkpt lat="45.8396360" lon="9.3065190">
	<ele>1125.80</ele>
	<time>2024-03-25T12:01:06.000Z</time>
</trkpt>
<trkpt lat="45.8396360" lon="9.3065190">
	<ele>1125.80</ele>
	<time>2024-03-25T12:01:07.000Z</time>
</trkpt>
<trkpt lat="45.8396360" lon="9.3065200">
	<ele>1125.80</ele>
	<time>2024-03-25T12:01:08.000Z</time>
</trkpt>
<trkpt lat="45.8396360" lon="9.3065210">
	<ele>1125.80</ele>
	<time>2024-03-25T12:01:09.000Z</time>
</trkpt>
<trkpt lat="45.8396360" lon="9.3065230">
	<ele>1125.80</ele>
	<time>2024-03-25T12:01:10.000Z</time>
</trkpt>
<trkpt lat="45.8396360" lon="9.3065240">
	<ele>1125.80</ele>
	<time>2024-03-25T12:01:11.000Z</time>
</trkpt>
<trkpt lat="45.8396360" lon="9.3065250">
	<ele>1125.80</ele>
	<time>2024-03-25T12:01:12.000Z</time>
</trkpt>
<trkpt lat="45.8396360" lon="9.3065260">
	<ele>1125.80</ele>
	<time>2024-03-25T12:01:13.000Z</time>
</trkpt>
<trkpt lat="45.8396360" lon="9.3065260">
	<ele>1125.80</ele>
	<time>2024-03-25T12:01:14.000Z</time>
</trkpt>
<trkpt lat="45.8396360" lon="9.3065260">
	<ele>1125.80</ele>
	<time>2024-03-25T12:01:15.000Z</time>
</trkpt>
<trkpt lat="45.8396360" lon="9.3065270">
	<ele>1125.80</ele>
	<time>2024-03-25T12:01:16.000Z</time>
</trkpt>
<trkpt lat="45.8396360" lon="9.3065280">
	<ele>1125.80</ele>
	<time>2024-03-25T12:01:17.000Z</time>
</trkpt>
<trkpt lat="45.8396360" lon="9.3065290">
	<ele>1125.80</ele>
	<time>2024-03-25T12:01:18.000Z</time>
</trkpt>
<trkpt lat="45.8396360" lon="9.3065300">
	<ele>1125.80</ele>
	<time>2024-03-25T12:01:19.000Z</time>
</trkpt>
<trkpt lat="45.8396360" lon="9.3065300">
	<ele>1125.80</ele>
	<time>2024-03-25T12:01:20.000Z</time>
</trkpt>
<trkpt lat="45.8396360" lon="9.3065300">
	<ele>1125.80</ele>
	<time>2024-03-25T12:01:21.000Z</time>
</trkpt>
<trkpt lat="45.8396360" lon="9.3065300">
	<ele>1125.80</ele>
	<time>2024-03-25T12:01:22.000Z</time>
</trkpt>
<trkpt lat="45.8396370" lon="9.3065300">
	<ele>1125.80</ele>
	<time>2024-03-25T12:01:23.000Z</time>
</trkpt>
<trkpt lat="45.8396370" lon="9.3065300">
	<ele>1125.80</ele>
	<time>2024-03-25T12:01:24.000Z</time>
</trkpt>
<trkpt lat="45.8396380" lon="9.3065300">
	<ele>1125.80</ele>
	<time>2024-03-25T12:01:25.000Z</time>
</trkpt>
<trkpt lat="45.8396390" lon="9.3065300">
	<ele>1125.80</ele>
	<time>2024-03-25T12:01:26.000Z</time>
</trkpt>
<trkpt lat="45.8396390" lon="9.3065300">
	<ele>1125.80</ele>
	<time>2024-03-25T12:01:27.000Z</time>
</trkpt>
<trkpt lat="45.8396400" lon="9.3065300">
	<ele>1125.80</ele>
	<time>2024-03-25T12:01:28.000Z</time>
</trkpt>
<trkpt lat="45.8396410" lon="9.3065300">
	<ele>1125.80</ele>
	<time>2024-03-25T12:01:29.000Z</time>
</trkpt>
<trkpt lat="45.8396420" lon="9.3065300">
	<ele>1125.80</ele>
	<time>2024-03-25T12:01:30.000Z</time>
</trkpt>
<trkpt lat="45.8396430" lon="9.3065300">
	<ele>1125.80</ele>
	<time>2024-03-25T12:01:31.000Z</time>
</trkpt>
<trkpt lat="45.8396450" lon="9.3065300">
	<ele>1125.80</ele>
	<time>2024-03-25T12:01:32.000Z</time>
</trkpt>
<trkpt lat="45.8396460" lon="9.3065250">
	<ele>1125.80</ele>
	<time>2024-03-25T12:01:33.000Z</time>
</trkpt>
<trkpt lat="45.8396460" lon="9.3065200">
	<ele>1125.80</ele>
	<time>2024-03-25T12:01:34.000Z</time>
</trkpt>
<trkpt lat="45.8396470" lon="9.3065180">
	<ele>1125.80</ele>
	<time>2024-03-25T12:01:35.000Z</time>
</trkpt>
<trkpt lat="45.8396470" lon="9.3065160">
	<ele>1125.80</ele>
	<time>2024-03-25T12:01:36.000Z</time>
</trkpt>
<trkpt lat="45.8396470" lon="9.3065150">
	<ele>1125.80</ele>
	<time>2024-03-25T12:01:37.000Z</time>
</trkpt>
<trkpt lat="45.8396480" lon="9.3065130">
	<ele>1125.80</ele>
	<time>2024-03-25T12:01:38.000Z</time>
</trkpt>
<trkpt lat="45.8396480" lon="9.3065110">
	<ele>1125.80</ele>
	<time>2024-03-25T12:01:39.000Z</time>
</trkpt>
<trkpt lat="45.8396490" lon="9.3065110">
	<ele>1125.80</ele>
	<time>2024-03-25T12:01:40.000Z</time>
</trkpt>
<trkpt lat="45.8396490" lon="9.3065100">
	<ele>1125.80</ele>
	<time>2024-03-25T12:01:41.000Z</time>
</trkpt>
<trkpt lat="45.8396490" lon="9.3065090">
	<ele>1125.80</ele>
	<time>2024-03-25T12:01:42.000Z</time>
</trkpt>
<trkpt lat="45.8396490" lon="9.3065090">
	<ele>1125.80</ele>
	<time>2024-03-25T12:01:43.000Z</time>
</trkpt>
<trkpt lat="45.8396490" lon="9.3065080">
	<ele>1125.80</ele>
	<time>2024-03-25T12:01:44.000Z</time>
</trkpt>
<trkpt lat="45.8396490" lon="9.3065080">
	<ele>1125.80</ele>
	<time>2024-03-25T12:01:45.000Z</time>
</trkpt>
<trkpt lat="45.8396490" lon="9.3065080">
	<ele>1125.80</ele>
	<time>2024-03-25T12:01:46.000Z</time>
</trkpt>
<trkpt lat="45.8396490" lon="9.3065080">
	<ele>1125.80</ele>
	<time>2024-03-25T12:01:47.000Z</time>
</trkpt>
<trkpt lat="45.8396490" lon="9.3065080">
	<ele>1125.80</ele>
	<time>2024-03-25T12:01:48.000Z</time>
</trkpt>
<trkpt lat="45.8396490" lon="9.3065070">
	<ele>1125.80</ele>
	<time>2024-03-25T12:01:49.000Z</time>
</trkpt>
<trkpt lat="45.8396490" lon="9.3065070">
	<ele>1125.80</ele>
	<time>2024-03-25T12:01:50.000Z</time>
</trkpt>
<trkpt lat="45.8396500" lon="9.3065070">
	<ele>1125.80</ele>
	<time>2024-03-25T12:01:51.000Z</time>
</trkpt>
<trkpt lat="45.8396500" lon="9.3065070">
	<ele>1125.80</ele>
	<time>2024-03-25T12:01:52.000Z</time>
</trkpt>
<trkpt lat="45.8396500" lon="9.3065070">
	<ele>1125.80</ele>
	<time>2024-03-25T12:01:53.000Z</time>
</trkpt>
<trkpt lat="45.8396500" lon="9.3065070">
	<ele>1125.80</ele>
	<time>2024-03-25T12:01:54.000Z</time>
</trkpt>
<trkpt lat="45.8396500" lon="9.3065070">
	<ele>1125.80</ele>
	<time>2024-03-25T12:01:55.000Z</time>
</trkpt>
<trkpt lat="45.8396500" lon="9.3065070">
	<ele>1125.80</ele>
	<time>2024-03-25T12:01:56.000Z</time>
</trkpt>
<trkpt lat="45.8396500" lon="9.3065070">
	<ele>1125.80</ele>
	<time>2024-03-25T12:01:57.000Z</time>
</trkpt>
<trkpt lat="45.8396500" lon="9.3065060">
	<ele>1125.80</ele>
	<time>2024-03-25T12:01:58.000Z</time>
</trkpt>
<trkpt lat="45.8396500" lon="9.3065050">
	<ele>1125.80</ele>
	<time>2024-03-25T12:01:59.000Z</time>
</trkpt>
<trkpt lat="45.8396510" lon="9.3065040">
	<ele>1125.80</ele>
	<time>2024-03-25T12:02:00.000Z</time>
</trkpt>
<trkpt lat="45.8396510" lon="9.3065020">
	<ele>1125.80</ele>
	<time>2024-03-25T12:02:01.000Z</time>
</trkpt>
<trkpt lat="45.8396510" lon="9.3065010">
	<ele>1125.80</ele>
	<time>2024-03-25T12:02:02.000Z</time>
</trkpt>
<trkpt lat="45.8396530" lon="9.3065010">
	<ele>1125.80</ele>
	<time>2024-03-25T12:02:03.000Z</time>
</trkpt>
<trkpt lat="45.8396540" lon="9.3065000">
	<ele>1125.80</ele>
	<time>2024-03-25T12:02:04.000Z</time>
</trkpt>
<trkpt lat="45.8396540" lon="9.3065000">
	<ele>1125.80</ele>
	<time>2024-03-25T12:02:05.000Z</time>
</trkpt>
<trkpt lat="45.8396540" lon="9.3065000">
	<ele>1125.80</ele>
	<time>2024-03-25T12:02:06.000Z</time>
</trkpt>
<trkpt lat="45.8396540" lon="9.3065000">
	<ele>1125.80</ele>
	<time>2024-03-25T12:02:07.000Z</time>
</trkpt>
<trkpt lat="45.8396540" lon="9.3065000">
	<ele>1125.80</ele>
	<time>2024-03-25T12:02:08.000Z</time>
</trkpt>
<trkpt lat="45.8396540" lon="9.3065000">
	<ele>1125.80</ele>
	<time>2024-03-25T12:02:09.000Z</time>
</trkpt>
<trkpt lat="45.8396540" lon="9.3065000">
	<ele>1125.80</ele>
	<time>2024-03-25T12:02:10.000Z</time>
</trkpt>
<trkpt lat="45.8396540" lon="9.3065000">
	<ele>1125.80</ele>
	<time>2024-03-25T12:02:11.000Z</time>
</trkpt>
<trkpt lat="45.8396540" lon="9.3065000">
	<ele>1125.80</ele>
	<time>2024-03-25T12:02:12.000Z</time>
</trkpt>
<trkpt lat="45.8396540" lon="9.3065000">
	<ele>1125.80</ele>
	<time>2024-03-25T12:02:13.000Z</time>
</trkpt>
<trkpt lat="45.8396540" lon="9.3065000">
	<ele>1125.80</ele>
	<time>2024-03-25T12:02:14.000Z</time>
</trkpt>
<trkpt lat="45.8396540" lon="9.3065000">
	<ele>1125.80</ele>
	<time>2024-03-25T12:02:15.000Z</time>
</trkpt>
<trkpt lat="45.8396540" lon="9.3065000">
	<ele>1125.80</ele>
	<time>2024-03-25T12:02:16.000Z</time>
</trkpt>
<trkpt lat="45.8396540" lon="9.3065010">
	<ele>1125.80</ele>
	<time>2024-03-25T12:02:17.000Z</time>
</trkpt>
<trkpt lat="45.8396540" lon="9.3065010">
	<ele>1125.80</ele>
	<time>2024-03-25T12:02:18.000Z</time>
</trkpt>
<trkpt lat="45.8396540" lon="9.3065010">
	<ele>1125.80</ele>
	<time>2024-03-25T12:02:19.000Z</time>
</trkpt>
<trkpt lat="45.8396530" lon="9.3065010">
	<ele>1125.80</ele>
	<time>2024-03-25T12:02:20.000Z</time>
</trkpt>
<trkpt lat="45.8396520" lon="9.3065010">
	<ele>1125.80</ele>
	<time>2024-03-25T12:02:21.000Z</time>
</trkpt>
<trkpt lat="45.8396520" lon="9.3065010">
	<ele>1125.80</ele>
	<time>2024-03-25T12:02:22.000Z</time>
</trkpt>
<trkpt lat="45.8396520" lon="9.3065010">
	<ele>1125.80</ele>
	<time>2024-03-25T12:02:23.000Z</time>
</trkpt>
<trkpt lat="45.8396510" lon="9.3065010">
	<ele>1125.80</ele>
	<time>2024-03-25T12:02:24.000Z</time>
</trkpt>
<trkpt lat="45.8396510" lon="9.3065010">
	<ele>1125.80</ele>
	<time>2024-03-25T12:02:25.000Z</time>
</trkpt>
<trkpt lat="45.8396500" lon="9.3065010">
	<ele>1125.80</ele>
	<time>2024-03-25T12:02:26.000Z</time>
</trkpt>
<trkpt lat="45.8396500" lon="9.3065010">
	<ele>1125.80</ele>
	<time>2024-03-25T12:02:27.000Z</time>
</trkpt>
<trkpt lat="45.8396490" lon="9.3065010">
	<ele>1125.80</ele>
	<time>2024-03-25T12:02:28.000Z</time>
</trkpt>
<trkpt lat="45.8396490" lon="9.3065010">
	<ele>1125.80</ele>
	<time>2024-03-25T12:02:29.000Z</time>
</trkpt>
<trkpt lat="45.8396490" lon="9.3065010">
	<ele>1125.80</ele>
	<time>2024-03-25T12:02:30.000Z</time>
</trkpt>
<trkpt lat="45.8396490" lon="9.3065010">
	<ele>1125.80</ele>
	<time>2024-03-25T12:02:31.000Z</time>
</trkpt>
<trkpt lat="45.8396480" lon="9.3065010">
	<ele>1125.80</ele>
	<time>2024-03-25T12:02:32.000Z</time>
</trkpt>
<trkpt lat="45.8396480" lon="9.3065010">
	<ele>1125.80</ele>
	<time>2024-03-25T12:02:33.000Z</time>
</trkpt>
<trkpt lat="45.8396480" lon="9.3065000">
	<ele>1125.80</ele>
	<time>2024-03-25T12:02:34.000Z</time>
</trkpt>
<trkpt lat="45.8396480" lon="9.3065000">
	<ele>1125.80</ele>
	<time>2024-03-25T12:02:35.000Z</time>
</trkpt>
<trkpt lat="45.8396480" lon="9.3065000">
	<ele>1125.80</ele>
	<time>2024-03-25T12:02:36.000Z</time>
</trkpt>
<trkpt lat="45.8396470" lon="9.3064990">
	<ele>1125.80</ele>
	<time>2024-03-25T12:02:37.000Z</time>
</trkpt>
<trkpt lat="45.8396470" lon="9.3064980">
	<ele>1125.80</ele>
	<time>2024-03-25T12:02:38.000Z</time>
</trkpt>
<trkpt lat="45.8396470" lon="9.3064970">
	<ele>1125.80</ele>
	<time>2024-03-25T12:02:39.000Z</time>
</trkpt>
<trkpt lat="45.8396470" lon="9.3064960">
	<ele>1125.80</ele>
	<time>2024-03-25T12:02:40.000Z</time>
</trkpt>
<trkpt lat="45.8396470" lon="9.3064960">
	<ele>1125.80</ele>
	<time>2024-03-25T12:02:41.000Z</time>
</trkpt>
<trkpt lat="45.8396470" lon="9.3064960">
	<ele>1125.80</ele>
	<time>2024-03-25T12:02:42.000Z</time>
</trkpt>
<trkpt lat="45.8396470" lon="9.3064950">
	<ele>1125.80</ele>
	<time>2024-03-25T12:02:43.000Z</time>
</trkpt>
<trkpt lat="45.8396460" lon="9.3064950">
	<ele>1125.80</ele>
	<time>2024-03-25T12:02:44.000Z</time>
</trkpt>
<trkpt lat="45.8396460" lon="9.3064950">
	<ele>1125.80</ele>
	<time>2024-03-25T12:02:45.000Z</time>
</trkpt>
<trkpt lat="45.8396460" lon="9.3064950">
	<ele>1125.80</ele>
	<time>2024-03-25T12:02:46.000Z</time>
</trkpt>
<trkpt lat="45.8396460" lon="9.3064950">
	<ele>1125.80</ele>
	<time>2024-03-25T12:02:47.000Z</time>
</trkpt>
<trkpt lat="45.8396460" lon="9.3064950">
	<ele>1125.80</ele>
	<time>2024-03-25T12:02:48.000Z</time>
</trkpt>
<trkpt lat="45.8396450" lon="9.3064950">
	<ele>1125.80</ele>
	<time>2024-03-25T12:02:49.000Z</time>
</trkpt>
<trkpt lat="45.8396440" lon="9.3064950">
	<ele>1125.80</ele>
	<time>2024-03-25T12:02:50.000Z</time>
</trkpt>
<trkpt lat="45.8396440" lon="9.3064950">
	<ele>1125.80</ele>
	<time>2024-03-25T12:02:51.000Z</time>
</trkpt>
<trkpt lat="45.8396430" lon="9.3064950">
	<ele>1125.80</ele>
	<time>2024-03-25T12:02:52.000Z</time>
</trkpt>
<trkpt lat="45.8396430" lon="9.3064950">
	<ele>1125.80</ele>
	<time>2024-03-25T12:02:53.000Z</time>
</trkpt>
<trkpt lat="45.8396430" lon="9.3064950">
	<ele>1125.80</ele>
	<time>2024-03-25T12:02:54.000Z</time>
</trkpt>
<trkpt lat="45.8396420" lon="9.3064950">
	<ele>1125.80</ele>
	<time>2024-03-25T12:02:55.000Z</time>
</trkpt>
<trkpt lat="45.8396420" lon="9.3064950">
	<ele>1125.80</ele>
	<time>2024-03-25T12:02:56.000Z</time>
</trkpt>
<trkpt lat="45.8396420" lon="9.3064950">
	<ele>1125.80</ele>
	<time>2024-03-25T12:02:57.000Z</time>
</trkpt>
<trkpt lat="45.8396420" lon="9.3064960">
	<ele>1125.80</ele>
	<time>2024-03-25T12:02:58.000Z</time>
</trkpt>
<trkpt lat="45.8396420" lon="9.3064960">
	<ele>1125.80</ele>
	<time>2024-03-25T12:02:59.000Z</time>
</trkpt>
<trkpt lat="45.8396420" lon="9.3064960">
	<ele>1125.80</ele>
	<time>2024-03-25T12:03:00.000Z</time>
</trkpt>
<trkpt lat="45.8396420" lon="9.3064970">
	<ele>1125.80</ele>
	<time>2024-03-25T12:03:01.000Z</time>
</trkpt>
<trkpt lat="45.8396420" lon="9.3064980">
	<ele>1125.80</ele>
	<time>2024-03-25T12:03:02.000Z</time>
</trkpt>
<trkpt lat="45.8396420" lon="9.3064990">
	<ele>1125.80</ele>
	<time>2024-03-25T12:03:03.000Z</time>
</trkpt>
<trkpt lat="45.8396420" lon="9.3065020">
	<ele>1125.80</ele>
	<time>2024-03-25T12:03:04.000Z</time>
</trkpt>
<trkpt lat="45.8396420" lon="9.3065030">
	<ele>1125.80</ele>
	<time>2024-03-25T12:03:05.000Z</time>
</trkpt>
<trkpt lat="45.8396420" lon="9.3065060">
	<ele>1125.80</ele>
	<time>2024-03-25T12:03:06.000Z</time>
</trkpt>
<trkpt lat="45.8396410" lon="9.3065080">
	<ele>1125.80</ele>
	<time>2024-03-25T12:03:07.000Z</time>
</trkpt>
<trkpt lat="45.8396410" lon="9.3065100">
	<ele>1125.80</ele>
	<time>2024-03-25T12:03:08.000Z</time>
</trkpt>
<trkpt lat="45.8396410" lon="9.3065110">
	<ele>1125.80</ele>
	<time>2024-03-25T12:03:09.000Z</time>
</trkpt>
<trkpt lat="45.8396410" lon="9.3065120">
	<ele>1125.80</ele>
	<time>2024-03-25T12:03:10.000Z</time>
</trkpt>
<trkpt lat="45.8396410" lon="9.3065130">
	<ele>1125.80</ele>
	<time>2024-03-25T12:03:11.000Z</time>
</trkpt>
<trkpt lat="45.8396400" lon="9.3065130">
	<ele>1125.80</ele>
	<time>2024-03-25T12:03:12.000Z</time>
</trkpt>
<trkpt lat="45.8396400" lon="9.3065140">
	<ele>1125.80</ele>
	<time>2024-03-25T12:03:13.000Z</time>
</trkpt>
<trkpt lat="45.8396400" lon="9.3065140">
	<ele>1125.80</ele>
	<time>2024-03-25T12:03:14.000Z</time>
</trkpt>
<trkpt lat="45.8396400" lon="9.3065150">
	<ele>1125.80</ele>
	<time>2024-03-25T12:03:15.000Z</time>
</trkpt>
<trkpt lat="45.8396400" lon="9.3065150">
	<ele>1125.80</ele>
	<time>2024-03-25T12:03:16.000Z</time>
</trkpt>
<trkpt lat="45.8396400" lon="9.3065150">
	<ele>1125.80</ele>
	<time>2024-03-25T12:03:17.000Z</time>
</trkpt>
<trkpt lat="45.8396400" lon="9.3065150">
	<ele>1125.80</ele>
	<time>2024-03-25T12:03:18.000Z</time>
</trkpt>
<trkpt lat="45.8396400" lon="9.3065150">
	<ele>1125.80</ele>
	<time>2024-03-25T12:03:19.000Z</time>
</trkpt>
<trkpt lat="45.8396400" lon="9.3065150">
	<ele>1125.80</ele>
	<time>2024-03-25T12:03:20.000Z</time>
</trkpt>
<trkpt lat="45.8396390" lon="9.3065150">
	<ele>1125.80</ele>
	<time>2024-03-25T12:03:21.000Z</time>
</trkpt>
<trkpt lat="45.8396390" lon="9.3065160">
	<ele>1125.80</ele>
	<time>2024-03-25T12:03:22.000Z</time>
</trkpt>
<trkpt lat="45.8396390" lon="9.3065160">
	<ele>1125.80</ele>
	<time>2024-03-25T12:03:23.000Z</time>
</trkpt>
<trkpt lat="45.8396390" lon="9.3065160">
	<ele>1125.80</ele>
	<time>2024-03-25T12:03:24.000Z</time>
</trkpt>
<trkpt lat="45.8396390" lon="9.3065160">
	<ele>1125.80</ele>
	<time>2024-03-25T12:03:25.000Z</time>
</trkpt>
<trkpt lat="45.8396410" lon="9.3065100">
	<ele>1125.80</ele>
	<time>2024-03-25T12:03:26.000Z</time>
</trkpt>
<trkpt lat="45.8396520" lon="9.3064930">
	<ele>1125.80</ele>
	<time>2024-03-25T12:03:27.000Z</time>
</trkpt>
<trkpt lat="45.8396640" lon="9.3064790">
	<ele>1125.80</ele>
	<time>2024-03-25T12:03:28.000Z</time>
</trkpt>
<trkpt lat="45.8396700" lon="9.3064610">
	<ele>1125.80</ele>
	<time>2024-03-25T12:03:29.000Z</time>
</trkpt>
<trkpt lat="45.8396750" lon="9.3064440">
	<ele>1125.80</ele>
	<time>2024-03-25T12:03:30.000Z</time>
</trkpt>
<trkpt lat="45.8396820" lon="9.3064280">
	<ele>1125.80</ele>
	<time>2024-03-25T12:03:31.000Z</time>
</trkpt>
<trkpt lat="45.8396920" lon="9.3064130">
	<ele>1125.80</ele>
	<time>2024-03-25T12:03:32.000Z</time>
</trkpt>
<trkpt lat="45.8397040" lon="9.3063990">
	<ele>1125.80</ele>
	<time>2024-03-25T12:03:33.000Z</time>
</trkpt>
<trkpt lat="45.8397140" lon="9.3063840">
	<ele>1125.80</ele>
	<time>2024-03-25T12:03:34.000Z</time>
</trkpt>
<trkpt lat="45.8397260" lon="9.3063690">
	<ele>1125.80</ele>
	<time>2024-03-25T12:03:35.000Z</time>
</trkpt>
<trkpt lat="45.8397340" lon="9.3063590">
	<ele>1125.80</ele>
	<time>2024-03-25T12:03:36.000Z</time>
</trkpt>
<trkpt lat="45.8397430" lon="9.3063500">
	<ele>1125.80</ele>
	<time>2024-03-25T12:03:37.000Z</time>
</trkpt>
<trkpt lat="45.8397490" lon="9.3063390">
	<ele>1125.80</ele>
	<time>2024-03-25T12:03:38.000Z</time>
</trkpt>
<trkpt lat="45.8397530" lon="9.3063290">
	<ele>1125.80</ele>
	<time>2024-03-25T12:03:39.000Z</time>
</trkpt>
<trkpt lat="45.8397530" lon="9.3063240">
	<ele>1126.00</ele>
	<time>2024-03-25T12:03:40.000Z</time>
</trkpt>
<trkpt lat="45.8397510" lon="9.3063190">
	<ele>1126.00</ele>
	<time>2024-03-25T12:03:41.000Z</time>
</trkpt>
<trkpt lat="45.8397510" lon="9.3063160">
	<ele>1126.20</ele>
	<time>2024-03-25T12:03:42.000Z</time>
</trkpt>
<trkpt lat="45.8397510" lon="9.3063150">
	<ele>1126.20</ele>
	<time>2024-03-25T12:03:43.000Z</time>
</trkpt>
<trkpt lat="45.8397510" lon="9.3063150">
	<ele>1126.40</ele>
	<time>2024-03-25T12:03:44.000Z</time>
</trkpt>
<trkpt lat="45.8397510" lon="9.3063140">
	<ele>1126.40</ele>
	<time>2024-03-25T12:03:45.000Z</time>
</trkpt>
<trkpt lat="45.8397520" lon="9.3063130">
	<ele>1126.40</ele>
	<time>2024-03-25T12:03:46.000Z</time>
</trkpt>
<trkpt lat="45.8397530" lon="9.3063130">
	<ele>1126.40</ele>
	<time>2024-03-25T12:03:47.000Z</time>
</trkpt>
<trkpt lat="45.8397550" lon="9.3063120">
	<ele>1126.60</ele>
	<time>2024-03-25T12:03:48.000Z</time>
</trkpt>
<trkpt lat="45.8397560" lon="9.3063140">
	<ele>1126.80</ele>
	<time>2024-03-25T12:03:49.000Z</time>
</trkpt>
<trkpt lat="45.8397560" lon="9.3063150">
	<ele>1127.00</ele>
	<time>2024-03-25T12:03:50.000Z</time>
</trkpt>
<trkpt lat="45.8397560" lon="9.3063170">
	<ele>1127.00</ele>
	<time>2024-03-25T12:03:51.000Z</time>
</trkpt>
<trkpt lat="45.8397550" lon="9.3063180">
	<ele>1127.20</ele>
	<time>2024-03-25T12:03:52.000Z</time>
</trkpt>
<trkpt lat="45.8397530" lon="9.3063190">
	<ele>1127.20</ele>
	<time>2024-03-25T12:03:53.000Z</time>
</trkpt>
<trkpt lat="45.8397530" lon="9.3063190">
	<ele>1127.20</ele>
	<time>2024-03-25T12:03:54.000Z</time>
</trkpt>
<trkpt lat="45.8397530" lon="9.3063200">
	<ele>1127.00</ele>
	<time>2024-03-25T12:03:55.000Z</time>
</trkpt>
<trkpt lat="45.8397530" lon="9.3063200">
	<ele>1126.80</ele>
	<time>2024-03-25T12:03:56.000Z</time>
</trkpt>
<trkpt lat="45.8397530" lon="9.3063200">
	<ele>1126.60</ele>
	<time>2024-03-25T12:03:57.000Z</time>
</trkpt>
<trkpt lat="45.8397530" lon="9.3063200">
	<ele>1126.60</ele>
	<time>2024-03-25T12:03:58.000Z</time>
</trkpt>
<trkpt lat="45.8397530" lon="9.3063200">
	<ele>1126.60</ele>
	<time>2024-03-25T12:03:59.000Z</time>
</trkpt>
<trkpt lat="45.8397530" lon="9.3063200">
	<ele>1126.40</ele>
	<time>2024-03-25T12:04:00.000Z</time>
</trkpt>
<trkpt lat="45.8397530" lon="9.3063200">
	<ele>1126.40</ele>
	<time>2024-03-25T12:04:01.000Z</time>
</trkpt>
<trkpt lat="45.8397530" lon="9.3063200">
	<ele>1126.40</ele>
	<time>2024-03-25T12:04:02.000Z</time>
</trkpt>
<trkpt lat="45.8397530" lon="9.3063200">
	<ele>1126.40</ele>
	<time>2024-03-25T12:04:03.000Z</time>
</trkpt>
<trkpt lat="45.8397530" lon="9.3063200">
	<ele>1126.40</ele>
	<time>2024-03-25T12:04:04.000Z</time>
</trkpt>
<trkpt lat="45.8397530" lon="9.3063200">
	<ele>1126.20</ele>
	<time>2024-03-25T12:04:05.000Z</time>
</trkpt>
<trkpt lat="45.8397530" lon="9.3063200">
	<ele>1126.20</ele>
	<time>2024-03-25T12:04:06.000Z</time>
</trkpt>
<trkpt lat="45.8397540" lon="9.3063200">
	<ele>1126.00</ele>
	<time>2024-03-25T12:04:07.000Z</time>
</trkpt>
<trkpt lat="45.8397540" lon="9.3063200">
	<ele>1126.00</ele>
	<time>2024-03-25T12:04:08.000Z</time>
</trkpt>
<trkpt lat="45.8397540" lon="9.3063200">
	<ele>1126.00</ele>
	<time>2024-03-25T12:04:09.000Z</time>
</trkpt>
<trkpt lat="45.8397540" lon="9.3063200">
	<ele>1125.80</ele>
	<time>2024-03-25T12:04:10.000Z</time>
</trkpt>
<trkpt lat="45.8397580" lon="9.3063220">
	<ele>1125.80</ele>
	<time>2024-03-25T12:04:11.000Z</time>
</trkpt>
<trkpt lat="45.8397700" lon="9.3063200">
	<ele>1125.60</ele>
	<time>2024-03-25T12:04:12.000Z</time>
</trkpt>
<trkpt lat="45.8397790" lon="9.3063190">
	<ele>1125.60</ele>
	<time>2024-03-25T12:04:13.000Z</time>
</trkpt>
<trkpt lat="45.8397910" lon="9.3063120">
	<ele>1125.40</ele>
	<time>2024-03-25T12:04:14.000Z</time>
</trkpt>
<trkpt lat="45.8398040" lon="9.3063060">
	<ele>1125.40</ele>
	<time>2024-03-25T12:04:15.000Z</time>
</trkpt>
<trkpt lat="45.8398180" lon="9.3063030">
	<ele>1125.40</ele>
	<time>2024-03-25T12:04:16.000Z</time>
</trkpt>
<trkpt lat="45.8398300" lon="9.3062950">
	<ele>1125.40</ele>
	<time>2024-03-25T12:04:17.000Z</time>
</trkpt>
<trkpt lat="45.8398360" lon="9.3062890">
	<ele>1125.40</ele>
	<time>2024-03-25T12:04:18.000Z</time>
</trkpt>
<trkpt lat="45.8398430" lon="9.3062820">
	<ele>1125.40</ele>
	<time>2024-03-25T12:04:19.000Z</time>
</trkpt>
<trkpt lat="45.8398520" lon="9.3062770">
	<ele>1125.40</ele>
	<time>2024-03-25T12:04:20.000Z</time>
</trkpt>
<trkpt lat="45.8398570" lon="9.3062690">
	<ele>1125.40</ele>
	<time>2024-03-25T12:04:21.000Z</time>
</trkpt>
<trkpt lat="45.8398630" lon="9.3062590">
	<ele>1125.40</ele>
	<time>2024-03-25T12:04:22.000Z</time>
</trkpt>
<trkpt lat="45.8398680" lon="9.3062410">
	<ele>1125.60</ele>
	<time>2024-03-25T12:04:23.000Z</time>
</trkpt>
<trkpt lat="45.8398700" lon="9.3062230">
	<ele>1125.60</ele>
	<time>2024-03-25T12:04:24.000Z</time>
</trkpt>
<trkpt lat="45.8398660" lon="9.3062050">
	<ele>1125.60</ele>
	<time>2024-03-25T12:04:25.000Z</time>
</trkpt>
<trkpt lat="45.8398630" lon="9.3061870">
	<ele>1125.80</ele>
	<time>2024-03-25T12:04:26.000Z</time>
</trkpt>
<trkpt lat="45.8398550" lon="9.3061720">
	<ele>1125.80</ele>
	<time>2024-03-25T12:04:27.000Z</time>
</trkpt>
<trkpt lat="45.8398470" lon="9.3061580">
	<ele>1125.80</ele>
	<time>2024-03-25T12:04:28.000Z</time>
</trkpt>
<trkpt lat="45.8398420" lon="9.3061460">
	<ele>1126.00</ele>
	<time>2024-03-25T12:04:29.000Z</time>
</trkpt>
<trkpt lat="45.8398390" lon="9.3061320">
	<ele>1126.00</ele>
	<time>2024-03-25T12:04:30.000Z</time>
</trkpt>
<trkpt lat="45.8398370" lon="9.3061180">
	<ele>1126.00</ele>
	<time>2024-03-25T12:04:31.000Z</time>
</trkpt>
<trkpt lat="45.8398340" lon="9.3061030">
	<ele>1126.20</ele>
	<time>2024-03-25T12:04:32.000Z</time>
</trkpt>
<trkpt lat="45.8398310" lon="9.3060890">
	<ele>1126.40</ele>
	<time>2024-03-25T12:04:33.000Z</time>
</trkpt>
<trkpt lat="45.8398270" lon="9.3060750">
	<ele>1126.40</ele>
	<time>2024-03-25T12:04:34.000Z</time>
</trkpt>
<trkpt lat="45.8398230" lon="9.3060600">
	<ele>1126.60</ele>
	<time>2024-03-25T12:04:35.000Z</time>
</trkpt>
<trkpt lat="45.8398160" lon="9.3060490">
	<ele>1126.80</ele>
	<time>2024-03-25T12:04:36.000Z</time>
</trkpt>
<trkpt lat="45.8398090" lon="9.3060380">
	<ele>1126.80</ele>
	<time>2024-03-25T12:04:37.000Z</time>
</trkpt>
<trkpt lat="45.8398000" lon="9.3060290">
	<ele>1127.00</ele>
	<time>2024-03-25T12:04:38.000Z</time>
</trkpt>
<trkpt lat="45.8397920" lon="9.3060150">
	<ele>1127.00</ele>
	<time>2024-03-25T12:04:39.000Z</time>
</trkpt>
<trkpt lat="45.8397870" lon="9.3060000">
	<ele>1127.20</ele>
	<time>2024-03-25T12:04:40.000Z</time>
</trkpt>
<trkpt lat="45.8397800" lon="9.3059840">
	<ele>1127.20</ele>
	<time>2024-03-25T12:04:41.000Z</time>
</trkpt>
<trkpt lat="45.8397730" lon="9.3059720">
	<ele>1127.20</ele>
	<time>2024-03-25T12:04:42.000Z</time>
</trkpt>
<trkpt lat="45.8397640" lon="9.3059570">
	<ele>1127.40</ele>
	<time>2024-03-25T12:04:43.000Z</time>
</trkpt>
<trkpt lat="45.8397570" lon="9.3059430">
	<ele>1127.60</ele>
	<time>2024-03-25T12:04:44.000Z</time>
</trkpt>
<trkpt lat="45.8397520" lon="9.3059280">
	<ele>1127.60</ele>
	<time>2024-03-25T12:04:45.000Z</time>
</trkpt>
<trkpt lat="45.8397470" lon="9.3059120">
	<ele>1127.60</ele>
	<time>2024-03-25T12:04:46.000Z</time>
</trkpt>
<trkpt lat="45.8397450" lon="9.3058960">
	<ele>1127.60</ele>
	<time>2024-03-25T12:04:47.000Z</time>
</trkpt>
<trkpt lat="45.8397450" lon="9.3058820">
	<ele>1127.60</ele>
	<time>2024-03-25T12:04:48.000Z</time>
</trkpt>
<trkpt lat="45.8397470" lon="9.3058670">
	<ele>1127.80</ele>
	<time>2024-03-25T12:04:49.000Z</time>
</trkpt>
<trkpt lat="45.8397470" lon="9.3058540">
	<ele>1127.80</ele>
	<time>2024-03-25T12:04:50.000Z</time>
</trkpt>
<trkpt lat="45.8397450" lon="9.3058410">
	<ele>1127.80</ele>
	<time>2024-03-25T12:04:51.000Z</time>
</trkpt>
<trkpt lat="45.8397360" lon="9.3058270">
	<ele>1127.80</ele>
	<time>2024-03-25T12:04:52.000Z</time>
</trkpt>
<trkpt lat="45.8397300" lon="9.3058120">
	<ele>1127.80</ele>
	<time>2024-03-25T12:04:53.000Z</time>
</trkpt>
<trkpt lat="45.8397240" lon="9.3057970">
	<ele>1127.80</ele>
	<time>2024-03-25T12:04:54.000Z</time>
</trkpt>
<trkpt lat="45.8397200" lon="9.3057860">
	<ele>1128.00</ele>
	<time>2024-03-25T12:04:55.000Z</time>
</trkpt>
<trkpt lat="45.8397150" lon="9.3057740">
	<ele>1128.00</ele>
	<time>2024-03-25T12:04:56.000Z</time>
</trkpt>
<trkpt lat="45.8397090" lon="9.3057620">
	<ele>1128.00</ele>
	<time>2024-03-25T12:04:57.000Z</time>
</trkpt>
<trkpt lat="45.8397040" lon="9.3057460">
	<ele>1128.00</ele>
	<time>2024-03-25T12:04:58.000Z</time>
</trkpt>
<trkpt lat="45.8397000" lon="9.3057310">
	<ele>1128.00</ele>
	<time>2024-03-25T12:04:59.000Z</time>
</trkpt>
<trkpt lat="45.8396990" lon="9.3057160">
	<ele>1128.20</ele>
	<time>2024-03-25T12:05:00.000Z</time>
</trkpt>
<trkpt lat="45.8397000" lon="9.3057010">
	<ele>1128.20</ele>
	<time>2024-03-25T12:05:01.000Z</time>
</trkpt>
<trkpt lat="45.8397000" lon="9.3056870">
	<ele>1128.40</ele>
	<time>2024-03-25T12:05:02.000Z</time>
</trkpt>
<trkpt lat="45.8397070" lon="9.3056710">
	<ele>1128.60</ele>
	<time>2024-03-25T12:05:03.000Z</time>
</trkpt>
<trkpt lat="45.8397160" lon="9.3056560">
	<ele>1128.40</ele>
	<time>2024-03-25T12:05:04.000Z</time>
</trkpt>
<trkpt lat="45.8397270" lon="9.3056410">
	<ele>1128.40</ele>
	<time>2024-03-25T12:05:05.000Z</time>
</trkpt>
<trkpt lat="45.8397350" lon="9.3056260">
	<ele>1128.20</ele>
	<time>2024-03-25T12:05:06.000Z</time>
</trkpt>
<trkpt lat="45.8397440" lon="9.3056100">
	<ele>1128.20</ele>
	<time>2024-03-25T12:05:07.000Z</time>
</trkpt>
<trkpt lat="45.8397500" lon="9.3055990">
	<ele>1128.00</ele>
	<time>2024-03-25T12:05:08.000Z</time>
</trkpt>
<trkpt lat="45.8397540" lon="9.3055820">
	<ele>1128.00</ele>
	<time>2024-03-25T12:05:09.000Z</time>
</trkpt>
<trkpt lat="45.8397590" lon="9.3055670">
	<ele>1128.00</ele>
	<time>2024-03-25T12:05:10.000Z</time>
</trkpt>
<trkpt lat="45.8397630" lon="9.3055550">
	<ele>1128.00</ele>
	<time>2024-03-25T12:05:11.000Z</time>
</trkpt>
<trkpt lat="45.8397680" lon="9.3055400">
	<ele>1128.00</ele>
	<time>2024-03-25T12:05:12.000Z</time>
</trkpt>
<trkpt lat="45.8397750" lon="9.3055270">
	<ele>1127.80</ele>
	<time>2024-03-25T12:05:13.000Z</time>
</trkpt>
<trkpt lat="45.8397820" lon="9.3055130">
	<ele>1127.60</ele>
	<time>2024-03-25T12:05:14.000Z</time>
</trkpt>
<trkpt lat="45.8397890" lon="9.3054960">
	<ele>1127.60</ele>
	<time>2024-03-25T12:05:15.000Z</time>
</trkpt>
<trkpt lat="45.8397970" lon="9.3054790">
	<ele>1127.40</ele>
	<time>2024-03-25T12:05:16.000Z</time>
</trkpt>
<trkpt lat="45.8398070" lon="9.3054650">
	<ele>1127.40</ele>
	<time>2024-03-25T12:05:17.000Z</time>
</trkpt>
<trkpt lat="45.8398150" lon="9.3054520">
	<ele>1127.20</ele>
	<time>2024-03-25T12:05:18.000Z</time>
</trkpt>
<trkpt lat="45.8398240" lon="9.3054370">
	<ele>1127.20</ele>
	<time>2024-03-25T12:05:19.000Z</time>
</trkpt>
<trkpt lat="45.8398320" lon="9.3054220">
	<ele>1127.00</ele>
	<time>2024-03-25T12:05:20.000Z</time>
</trkpt>
<trkpt lat="45.8398390" lon="9.3054050">
	<ele>1126.80</ele>
	<time>2024-03-25T12:05:21.000Z</time>
</trkpt>
<trkpt lat="45.8398450" lon="9.3053890">
	<ele>1126.80</ele>
	<time>2024-03-25T12:05:22.000Z</time>
</trkpt>
<trkpt lat="45.8398500" lon="9.3053740">
	<ele>1126.60</ele>
	<time>2024-03-25T12:05:23.000Z</time>
</trkpt>
<trkpt lat="45.8398570" lon="9.3053590">
	<ele>1126.40</ele>
	<time>2024-03-25T12:05:24.000Z</time>
</trkpt>
<trkpt lat="45.8398630" lon="9.3053460">
	<ele>1126.40</ele>
	<time>2024-03-25T12:05:25.000Z</time>
</trkpt>
<trkpt lat="45.8398680" lon="9.3053300">
	<ele>1126.20</ele>
	<time>2024-03-25T12:05:26.000Z</time>
</trkpt>
<trkpt lat="45.8398730" lon="9.3053130">
	<ele>1126.00</ele>
	<time>2024-03-25T12:05:27.000Z</time>
</trkpt>
<trkpt lat="45.8398780" lon="9.3052950">
	<ele>1125.80</ele>
	<time>2024-03-25T12:05:28.000Z</time>
</trkpt>
<trkpt lat="45.8398850" lon="9.3052760">
	<ele>1125.60</ele>
	<time>2024-03-25T12:05:29.000Z</time>
</trkpt>
<trkpt lat="45.8398910" lon="9.3052550">
	<ele>1125.40</ele>
	<time>2024-03-25T12:05:30.000Z</time>
</trkpt>
<trkpt lat="45.8398970" lon="9.3052370">
	<ele>1125.40</ele>
	<time>2024-03-25T12:05:31.000Z</time>
</trkpt>
<trkpt lat="45.8399040" lon="9.3052190">
	<ele>1125.20</ele>
	<time>2024-03-25T12:05:32.000Z</time>
</trkpt>
<trkpt lat="45.8399110" lon="9.3052030">
	<ele>1125.00</ele>
	<time>2024-03-25T12:05:33.000Z</time>
</trkpt>
<trkpt lat="45.8399180" lon="9.3051920">
	<ele>1125.00</ele>
	<time>2024-03-25T12:05:34.000Z</time>
</trkpt>
<trkpt lat="45.8399200" lon="9.3051840">
	<ele>1124.80</ele>
	<time>2024-03-25T12:05:35.000Z</time>
</trkpt>
<trkpt lat="45.8399200" lon="9.3051790">
	<ele>1124.80</ele>
	<time>2024-03-25T12:05:36.000Z</time>
</trkpt>
<trkpt lat="45.8399200" lon="9.3051770">
	<ele>1124.80</ele>
	<time>2024-03-25T12:05:37.000Z</time>
</trkpt>
<trkpt lat="45.8399180" lon="9.3051750">
	<ele>1124.80</ele>
	<time>2024-03-25T12:05:38.000Z</time>
</trkpt>
<trkpt lat="45.8399160" lon="9.3051750">
	<ele>1124.80</ele>
	<time>2024-03-25T12:05:39.000Z</time>
</trkpt>
<trkpt lat="45.8399150" lon="9.3051740">
	<ele>1124.80</ele>
	<time>2024-03-25T12:05:40.000Z</time>
</trkpt>
<trkpt lat="45.8399150" lon="9.3051750">
	<ele>1124.80</ele>
	<time>2024-03-25T12:05:41.000Z</time>
</trkpt>
<trkpt lat="45.8399160" lon="9.3051750">
	<ele>1124.80</ele>
	<time>2024-03-25T12:05:42.000Z</time>
</trkpt>
<trkpt lat="45.8399170" lon="9.3051730">
	<ele>1124.80</ele>
	<time>2024-03-25T12:05:43.000Z</time>
</trkpt>
<trkpt lat="45.8399170" lon="9.3051640">
	<ele>1124.80</ele>
	<time>2024-03-25T12:05:44.000Z</time>
</trkpt>
<trkpt lat="45.8399180" lon="9.3051500">
	<ele>1124.80</ele>
	<time>2024-03-25T12:05:45.000Z</time>
</trkpt>
<trkpt lat="45.8399200" lon="9.3051310">
	<ele>1124.80</ele>
	<time>2024-03-25T12:05:46.000Z</time>
</trkpt>
<trkpt lat="45.8399260" lon="9.3051120">
	<ele>1124.80</ele>
	<time>2024-03-25T12:05:47.000Z</time>
</trkpt>
<trkpt lat="45.8399330" lon="9.3050970">
	<ele>1124.60</ele>
	<time>2024-03-25T12:05:48.000Z</time>
</trkpt>
<trkpt lat="45.8399420" lon="9.3050830">
	<ele>1124.60</ele>
	<time>2024-03-25T12:05:49.000Z</time>
</trkpt>
<trkpt lat="45.8399510" lon="9.3050710">
	<ele>1124.80</ele>
	<time>2024-03-25T12:05:50.000Z</time>
</trkpt>
<trkpt lat="45.8399610" lon="9.3050530">
	<ele>1124.80</ele>
	<time>2024-03-25T12:05:51.000Z</time>
</trkpt>
<trkpt lat="45.8399700" lon="9.3050400">
	<ele>1124.80</ele>
	<time>2024-03-25T12:05:52.000Z</time>
</trkpt>
<trkpt lat="45.8399810" lon="9.3050270">
	<ele>1124.80</ele>
	<time>2024-03-25T12:05:53.000Z</time>
</trkpt>
<trkpt lat="45.8399890" lon="9.3050160">
	<ele>1124.80</ele>
	<time>2024-03-25T12:05:54.000Z</time>
</trkpt>
<trkpt lat="45.8399980" lon="9.3050040">
	<ele>1124.80</ele>
	<time>2024-03-25T12:05:55.000Z</time>
</trkpt>
<trkpt lat="45.8400090" lon="9.3049930">
	<ele>1124.80</ele>
	<time>2024-03-25T12:05:56.000Z</time>
</trkpt>
<trkpt lat="45.8400160" lon="9.3049830">
	<ele>1124.80</ele>
	<time>2024-03-25T12:05:57.000Z</time>
</trkpt>
<trkpt lat="45.8400220" lon="9.3049700">
	<ele>1124.80</ele>
	<time>2024-03-25T12:05:58.000Z</time>
</trkpt>
<trkpt lat="45.8400330" lon="9.3049570">
	<ele>1124.80</ele>
	<time>2024-03-25T12:05:59.000Z</time>
</trkpt>
<trkpt lat="45.8400430" lon="9.3049440">
	<ele>1124.60</ele>
	<time>2024-03-25T12:06:00.000Z</time>
</trkpt>
<trkpt lat="45.8400540" lon="9.3049300">
	<ele>1124.60</ele>
	<time>2024-03-25T12:06:01.000Z</time>
</trkpt>
<trkpt lat="45.8400630" lon="9.3049160">
	<ele>1124.60</ele>
	<time>2024-03-25T12:06:02.000Z</time>
</trkpt>
<trkpt lat="45.8400710" lon="9.3049010">
	<ele>1124.80</ele>
	<time>2024-03-25T12:06:03.000Z</time>
</trkpt>
<trkpt lat="45.8400790" lon="9.3048870">
	<ele>1124.80</ele>
	<time>2024-03-25T12:06:04.000Z</time>
</trkpt>
<trkpt lat="45.8400880" lon="9.3048720">
	<ele>1124.80</ele>
	<time>2024-03-25T12:06:05.000Z</time>
</trkpt>
<trkpt lat="45.8400970" lon="9.3048600">
	<ele>1124.80</ele>
	<time>2024-03-25T12:06:06.000Z</time>
</trkpt>
<trkpt lat="45.8401090" lon="9.3048460">
	<ele>1124.80</ele>
	<time>2024-03-25T12:06:07.000Z</time>
</trkpt>
<trkpt lat="45.8401190" lon="9.3048290">
	<ele>1124.80</ele>
	<time>2024-03-25T12:06:08.000Z</time>
</trkpt>
<trkpt lat="45.8401270" lon="9.3048130">
	<ele>1124.80</ele>
	<time>2024-03-25T12:06:09.000Z</time>
</trkpt>
<trkpt lat="45.8401360" lon="9.3047980">
	<ele>1124.80</ele>
	<time>2024-03-25T12:06:10.000Z</time>
</trkpt>
<trkpt lat="45.8401450" lon="9.3047800">
	<ele>1124.80</ele>
	<time>2024-03-25T12:06:11.000Z</time>
</trkpt>
<trkpt lat="45.8401560" lon="9.3047590">
	<ele>1124.80</ele>
	<time>2024-03-25T12:06:12.000Z</time>
</trkpt>
<trkpt lat="45.8401650" lon="9.3047380">
	<ele>1124.80</ele>
	<time>2024-03-25T12:06:13.000Z</time>
</trkpt>
<trkpt lat="45.8401740" lon="9.3047180">
	<ele>1124.80</ele>
	<time>2024-03-25T12:06:14.000Z</time>
</trkpt>
<trkpt lat="45.8401810" lon="9.3046990">
	<ele>1124.80</ele>
	<time>2024-03-25T12:06:15.000Z</time>
</trkpt>
<trkpt lat="45.8401870" lon="9.3046820">
	<ele>1124.80</ele>
	<time>2024-03-25T12:06:16.000Z</time>
</trkpt>
<trkpt lat="45.8401940" lon="9.3046660">
	<ele>1125.00</ele>
	<time>2024-03-25T12:06:17.000Z</time>
</trkpt>
<trkpt lat="45.8402020" lon="9.3046460">
	<ele>1125.00</ele>
	<time>2024-03-25T12:06:18.000Z</time>
</trkpt>
<trkpt lat="45.8402110" lon="9.3046260">
	<ele>1124.80</ele>
	<time>2024-03-25T12:06:19.000Z</time>
</trkpt>
<trkpt lat="45.8402190" lon="9.3046090">
	<ele>1124.80</ele>
	<time>2024-03-25T12:06:20.000Z</time>
</trkpt>
<trkpt lat="45.8402250" lon="9.3045910">
	<ele>1124.80</ele>
	<time>2024-03-25T12:06:21.000Z</time>
</trkpt>
<trkpt lat="45.8402310" lon="9.3045720">
	<ele>1124.80</ele>
	<time>2024-03-25T12:06:22.000Z</time>
</trkpt>
<trkpt lat="45.8402360" lon="9.3045530">
	<ele>1124.60</ele>
	<time>2024-03-25T12:06:23.000Z</time>
</trkpt>
<trkpt lat="45.8402390" lon="9.3045360">
	<ele>1124.60</ele>
	<time>2024-03-25T12:06:24.000Z</time>
</trkpt>
<trkpt lat="45.8402420" lon="9.3045210">
	<ele>1124.60</ele>
	<time>2024-03-25T12:06:25.000Z</time>
</trkpt>
<trkpt lat="45.8402440" lon="9.3045070">
	<ele>1124.60</ele>
	<time>2024-03-25T12:06:26.000Z</time>
</trkpt>
<trkpt lat="45.8402500" lon="9.3044890">
	<ele>1124.60</ele>
	<time>2024-03-25T12:06:27.000Z</time>
</trkpt>
<trkpt lat="45.8402580" lon="9.3044720">
	<ele>1124.60</ele>
	<time>2024-03-25T12:06:28.000Z</time>
</trkpt>
<trkpt lat="45.8402650" lon="9.3044540">
	<ele>1124.60</ele>
	<time>2024-03-25T12:06:29.000Z</time>
</trkpt>
<trkpt lat="45.8402690" lon="9.3044380">
	<ele>1124.60</ele>
	<time>2024-03-25T12:06:30.000Z</time>
</trkpt>
<trkpt lat="45.8402760" lon="9.3044210">
	<ele>1124.60</ele>
	<time>2024-03-25T12:06:31.000Z</time>
</trkpt>
<trkpt lat="45.8402810" lon="9.3044020">
	<ele>1124.60</ele>
	<time>2024-03-25T12:06:32.000Z</time>
</trkpt>
<trkpt lat="45.8402880" lon="9.3043830">
	<ele>1124.60</ele>
	<time>2024-03-25T12:06:33.000Z</time>
</trkpt>
<trkpt lat="45.8402960" lon="9.3043670">
	<ele>1124.60</ele>
	<time>2024-03-25T12:06:34.000Z</time>
</trkpt>
<trkpt lat="45.8403040" lon="9.3043490">
	<ele>1124.60</ele>
	<time>2024-03-25T12:06:35.000Z</time>
</trkpt>
<trkpt lat="45.8403110" lon="9.3043290">
	<ele>1124.60</ele>
	<time>2024-03-25T12:06:36.000Z</time>
</trkpt>
<trkpt lat="45.8403180" lon="9.3043100">
	<ele>1124.60</ele>
	<time>2024-03-25T12:06:37.000Z</time>
</trkpt>
<trkpt lat="45.8403250" lon="9.3042910">
	<ele>1124.60</ele>
	<time>2024-03-25T12:06:38.000Z</time>
</trkpt>
<trkpt lat="45.8403290" lon="9.3042740">
	<ele>1124.60</ele>
	<time>2024-03-25T12:06:39.000Z</time>
</trkpt>
<trkpt lat="45.8403340" lon="9.3042580">
	<ele>1124.60</ele>
	<time>2024-03-25T12:06:40.000Z</time>
</trkpt>
<trkpt lat="45.8403370" lon="9.3042410">
	<ele>1124.40</ele>
	<time>2024-03-25T12:06:41.000Z</time>
</trkpt>
<trkpt lat="45.8403380" lon="9.3042270">
	<ele>1124.40</ele>
	<time>2024-03-25T12:06:42.000Z</time>
</trkpt>
<trkpt lat="45.8403410" lon="9.3042130">
	<ele>1124.40</ele>
	<time>2024-03-25T12:06:43.000Z</time>
</trkpt>
<trkpt lat="45.8403440" lon="9.3041960">
	<ele>1124.40</ele>
	<time>2024-03-25T12:06:44.000Z</time>
</trkpt>
<trkpt lat="45.8403480" lon="9.3041810">
	<ele>1124.40</ele>
	<time>2024-03-25T12:06:45.000Z</time>
</trkpt>
<trkpt lat="45.8403510" lon="9.3041650">
	<ele>1124.40</ele>
	<time>2024-03-25T12:06:46.000Z</time>
</trkpt>
<trkpt lat="45.8403540" lon="9.3041490">
	<ele>1124.40</ele>
	<time>2024-03-25T12:06:47.000Z</time>
</trkpt>
<trkpt lat="45.8403630" lon="9.3041340">
	<ele>1124.40</ele>
	<time>2024-03-25T12:06:48.000Z</time>
</trkpt>
<trkpt lat="45.8403710" lon="9.3041150">
	<ele>1124.40</ele>
	<time>2024-03-25T12:06:49.000Z</time>
</trkpt>
<trkpt lat="45.8403750" lon="9.3040920">
	<ele>1124.40</ele>
	<time>2024-03-25T12:06:50.000Z</time>
</trkpt>
<trkpt lat="45.8403730" lon="9.3040720">
	<ele>1124.40</ele>
	<time>2024-03-25T12:06:51.000Z</time>
</trkpt>
<trkpt lat="45.8403700" lon="9.3040560">
	<ele>1124.40</ele>
	<time>2024-03-25T12:06:52.000Z</time>
</trkpt>
<trkpt lat="45.8403690" lon="9.3040380">
	<ele>1124.40</ele>
	<time>2024-03-25T12:06:53.000Z</time>
</trkpt>
<trkpt lat="45.8403670" lon="9.3040200">
	<ele>1124.40</ele>
	<time>2024-03-25T12:06:54.000Z</time>
</trkpt>
<trkpt lat="45.8403670" lon="9.3040020">
	<ele>1124.40</ele>
	<time>2024-03-25T12:06:55.000Z</time>
</trkpt>
<trkpt lat="45.8403680" lon="9.3039850">
	<ele>1124.40</ele>
	<time>2024-03-25T12:06:56.000Z</time>
</trkpt>
<trkpt lat="45.8403660" lon="9.3039670">
	<ele>1124.40</ele>
	<time>2024-03-25T12:06:57.000Z</time>
</trkpt>
<trkpt lat="45.8403670" lon="9.3039450">
	<ele>1124.40</ele>
	<time>2024-03-25T12:06:58.000Z</time>
</trkpt>
<trkpt lat="45.8403690" lon="9.3039220">
	<ele>1124.40</ele>
	<time>2024-03-25T12:06:59.000Z</time>
</trkpt>
<trkpt lat="45.8403660" lon="9.3039000">
	<ele>1124.40</ele>
	<time>2024-03-25T12:07:00.000Z</time>
</trkpt>
<trkpt lat="45.8403620" lon="9.3038790">
	<ele>1124.40</ele>
	<time>2024-03-25T12:07:01.000Z</time>
</trkpt>
<trkpt lat="45.8403610" lon="9.3038600">
	<ele>1124.20</ele>
	<time>2024-03-25T12:07:02.000Z</time>
</trkpt>
<trkpt lat="45.8403590" lon="9.3038460">
	<ele>1124.20</ele>
	<time>2024-03-25T12:07:03.000Z</time>
</trkpt>
<trkpt lat="45.8403610" lon="9.3038290">
	<ele>1124.20</ele>
	<time>2024-03-25T12:07:04.000Z</time>
</trkpt>
<trkpt lat="45.8403650" lon="9.3038120">
	<ele>1124.00</ele>
	<time>2024-03-25T12:07:05.000Z</time>
</trkpt>
<trkpt lat="45.8403690" lon="9.3037960">
	<ele>1124.00</ele>
	<time>2024-03-25T12:07:06.000Z</time>
</trkpt>
<trkpt lat="45.8403700" lon="9.3037830">
	<ele>1123.80</ele>
	<time>2024-03-25T12:07:07.000Z</time>
</trkpt>
<trkpt lat="45.8403700" lon="9.3037680">
	<ele>1123.80</ele>
	<time>2024-03-25T12:07:08.000Z</time>
</trkpt>
<trkpt lat="45.8403700" lon="9.3037510">
	<ele>1123.80</ele>
	<time>2024-03-25T12:07:09.000Z</time>
</trkpt>
<trkpt lat="45.8403700" lon="9.3037350">
	<ele>1123.60</ele>
	<time>2024-03-25T12:07:10.000Z</time>
</trkpt>
<trkpt lat="45.8403720" lon="9.3037170">
	<ele>1123.60</ele>
	<time>2024-03-25T12:07:11.000Z</time>
</trkpt>
<trkpt lat="45.8403740" lon="9.3037080">
	<ele>1123.40</ele>
	<time>2024-03-25T12:07:12.000Z</time>
</trkpt>
<trkpt lat="45.8403740" lon="9.3037020">
	<ele>1123.40</ele>
	<time>2024-03-25T12:07:13.000Z</time>
</trkpt>
<trkpt lat="45.8403780" lon="9.3036950">
	<ele>1123.20</ele>
	<time>2024-03-25T12:07:14.000Z</time>
</trkpt>
<trkpt lat="45.8403850" lon="9.3036870">
	<ele>1123.20</ele>
	<time>2024-03-25T12:07:15.000Z</time>
</trkpt>
<trkpt lat="45.8403930" lon="9.3036740">
	<ele>1123.00</ele>
	<time>2024-03-25T12:07:16.000Z</time>
</trkpt>
<trkpt lat="45.8404010" lon="9.3036600">
	<ele>1123.00</ele>
	<time>2024-03-25T12:07:17.000Z</time>
</trkpt>
<trkpt lat="45.8404080" lon="9.3036450">
	<ele>1122.80</ele>
	<time>2024-03-25T12:07:18.000Z</time>
</trkpt>
<trkpt lat="45.8404130" lon="9.3036360">
	<ele>1122.80</ele>
	<time>2024-03-25T12:07:19.000Z</time>
</trkpt>
<trkpt lat="45.8404210" lon="9.3036280">
	<ele>1122.40</ele>
	<time>2024-03-25T12:07:20.000Z</time>
</trkpt>
<trkpt lat="45.8404270" lon="9.3036200">
	<ele>1122.40</ele>
	<time>2024-03-25T12:07:21.000Z</time>
</trkpt>
<trkpt lat="45.8404320" lon="9.3036120">
	<ele>1122.20</ele>
	<time>2024-03-25T12:07:22.000Z</time>
</trkpt>
<trkpt lat="45.8404380" lon="9.3036000">
	<ele>1122.00</ele>
	<time>2024-03-25T12:07:23.000Z</time>
</trkpt>
<trkpt lat="45.8404410" lon="9.3035860">
	<ele>1121.80</ele>
	<time>2024-03-25T12:07:24.000Z</time>
</trkpt>
<trkpt lat="45.8404420" lon="9.3035680">
	<ele>1121.60</ele>
	<time>2024-03-25T12:07:25.000Z</time>
</trkpt>
<trkpt lat="45.8404400" lon="9.3035510">
	<ele>1121.40</ele>
	<time>2024-03-25T12:07:26.000Z</time>
</trkpt>
<trkpt lat="45.8404380" lon="9.3035400">
	<ele>1121.20</ele>
	<time>2024-03-25T12:07:27.000Z</time>
</trkpt>
<trkpt lat="45.8404370" lon="9.3035310">
	<ele>1121.00</ele>
	<time>2024-03-25T12:07:28.000Z</time>
</trkpt>
<trkpt lat="45.8404340" lon="9.3035260">
	<ele>1120.80</ele>
	<time>2024-03-25T12:07:29.000Z</time>
</trkpt>
<trkpt lat="45.8404330" lon="9.3035180">
	<ele>1120.60</ele>
	<time>2024-03-25T12:07:30.000Z</time>
</trkpt>
<trkpt lat="45.8404330" lon="9.3035050">
	<ele>1120.40</ele>
	<time>2024-03-25T12:07:31.000Z</time>
</trkpt>
<trkpt lat="45.8404330" lon="9.3034910">
	<ele>1120.20</ele>
	<time>2024-03-25T12:07:32.000Z</time>
</trkpt>
<trkpt lat="45.8404280" lon="9.3034800">
	<ele>1120.00</ele>
	<time>2024-03-25T12:07:33.000Z</time>
</trkpt>
<trkpt lat="45.8404240" lon="9.3034740">
	<ele>1119.80</ele>
	<time>2024-03-25T12:07:34.000Z</time>
</trkpt>
<trkpt lat="45.8404220" lon="9.3034670">
	<ele>1119.60</ele>
	<time>2024-03-25T12:07:35.000Z</time>
</trkpt>
<trkpt lat="45.8404210" lon="9.3034630">
	<ele>1119.60</ele>
	<time>2024-03-25T12:07:36.000Z</time>
</trkpt>
<trkpt lat="45.8404180" lon="9.3034620">
	<ele>1119.20</ele>
	<time>2024-03-25T12:07:37.000Z</time>
</trkpt>
<trkpt lat="45.8404110" lon="9.3034590">
	<ele>1119.20</ele>
	<time>2024-03-25T12:07:38.000Z</time>
</trkpt>
<trkpt lat="45.8404070" lon="9.3034600">
	<ele>1119.00</ele>
	<time>2024-03-25T12:07:39.000Z</time>
</trkpt>
<trkpt lat="45.8404060" lon="9.3034620">
	<ele>1119.00</ele>
	<time>2024-03-25T12:07:40.000Z</time>
</trkpt>
<trkpt lat="45.8404050" lon="9.3034640">
	<ele>1118.80</ele>
	<time>2024-03-25T12:07:41.000Z</time>
</trkpt>
<trkpt lat="45.8404050" lon="9.3034650">
	<ele>1119.00</ele>
	<time>2024-03-25T12:07:42.000Z</time>
</trkpt>
<trkpt lat="45.8404050" lon="9.3034640">
	<ele>1119.00</ele>
	<time>2024-03-25T12:07:43.000Z</time>
</trkpt>
<trkpt lat="45.8404030" lon="9.3034570">
	<ele>1119.00</ele>
	<time>2024-03-25T12:07:44.000Z</time>
</trkpt>
<trkpt lat="45.8403990" lon="9.3034470">
	<ele>1119.00</ele>
	<time>2024-03-25T12:07:45.000Z</time>
</trkpt>
<trkpt lat="45.8403940" lon="9.3034390">
	<ele>1119.00</ele>
	<time>2024-03-25T12:07:46.000Z</time>
</trkpt>
<trkpt lat="45.8403910" lon="9.3034290">
	<ele>1119.00</ele>
	<time>2024-03-25T12:07:47.000Z</time>
</trkpt>
<trkpt lat="45.8403850" lon="9.3034170">
	<ele>1119.00</ele>
	<time>2024-03-25T12:07:48.000Z</time>
</trkpt>
<trkpt lat="45.8403860" lon="9.3034080">
	<ele>1118.80</ele>
	<time>2024-03-25T12:07:49.000Z</time>
</trkpt>
<trkpt lat="45.8403850" lon="9.3034020">
	<ele>1118.80</ele>
	<time>2024-03-25T12:07:50.000Z</time>
</trkpt>
<trkpt lat="45.8403830" lon="9.3033970">
	<ele>1118.40</ele>
	<time>2024-03-25T12:07:51.000Z</time>
</trkpt>
<trkpt lat="45.8403790" lon="9.3033870">
	<ele>1118.20</ele>
	<time>2024-03-25T12:07:52.000Z</time>
</trkpt>
<trkpt lat="45.8403760" lon="9.3033740">
	<ele>1118.00</ele>
	<time>2024-03-25T12:07:53.000Z</time>
</trkpt>
<trkpt lat="45.8403780" lon="9.3033590">
	<ele>1118.00</ele>
	<time>2024-03-25T12:07:54.000Z</time>
</trkpt>
<trkpt lat="45.8403770" lon="9.3033470">
	<ele>1117.80</ele>
	<time>2024-03-25T12:07:55.000Z</time>
</trkpt>
<trkpt lat="45.8403730" lon="9.3033340">
	<ele>1117.60</ele>
	<time>2024-03-25T12:07:56.000Z</time>
</trkpt>
<trkpt lat="45.8403680" lon="9.3033240">
	<ele>1117.40</ele>
	<time>2024-03-25T12:07:57.000Z</time>
</trkpt>
<trkpt lat="45.8403630" lon="9.3033130">
	<ele>1117.20</ele>
	<time>2024-03-25T12:07:58.000Z</time>
</trkpt>
<trkpt lat="45.8403630" lon="9.3033030">
	<ele>1117.00</ele>
	<time>2024-03-25T12:07:59.000Z</time>
</trkpt>
<trkpt lat="45.8403640" lon="9.3032920">
	<ele>1116.80</ele>
	<time>2024-03-25T12:08:00.000Z</time>
</trkpt>
<trkpt lat="45.8403610" lon="9.3032790">
	<ele>1116.40</ele>
	<time>2024-03-25T12:08:01.000Z</time>
</trkpt>
<trkpt lat="45.8403600" lon="9.3032590">
	<ele>1116.40</ele>
	<time>2024-03-25T12:08:02.000Z</time>
</trkpt>
<trkpt lat="45.8403540" lon="9.3032490">
	<ele>1116.00</ele>
	<time>2024-03-25T12:08:03.000Z</time>
</trkpt>
<trkpt lat="45.8403550" lon="9.3032260">
	<ele>1115.80</ele>
	<time>2024-03-25T12:08:04.000Z</time>
</trkpt>
<trkpt lat="45.8403550" lon="9.3031990">
	<ele>1115.60</ele>
	<time>2024-03-25T12:08:05.000Z</time>
</trkpt>
<trkpt lat="45.8403510" lon="9.3031880">
	<ele>1115.40</ele>
	<time>2024-03-25T12:08:06.000Z</time>
</trkpt>
<trkpt lat="45.8403470" lon="9.3031760">
	<ele>1115.00</ele>
	<time>2024-03-25T12:08:07.000Z</time>
</trkpt>
<trkpt lat="45.8403420" lon="9.3031630">
	<ele>1114.80</ele>
	<time>2024-03-25T12:08:08.000Z</time>
</trkpt>
<trkpt lat="45.8403390" lon="9.3031510">
	<ele>1114.60</ele>
	<time>2024-03-25T12:08:09.000Z</time>
</trkpt>
<trkpt lat="45.8403410" lon="9.3031330">
	<ele>1114.40</ele>
	<time>2024-03-25T12:08:10.000Z</time>
</trkpt>
<trkpt lat="45.8403420" lon="9.3031190">
	<ele>1114.40</ele>
	<time>2024-03-25T12:08:11.000Z</time>
</trkpt>
<trkpt lat="45.8403400" lon="9.3031030">
	<ele>1114.00</ele>
	<time>2024-03-25T12:08:12.000Z</time>
</trkpt>
<trkpt lat="45.8403380" lon="9.3030860">
	<ele>1113.60</ele>
	<time>2024-03-25T12:08:13.000Z</time>
</trkpt>
<trkpt lat="45.8403390" lon="9.3030700">
	<ele>1113.40</ele>
	<time>2024-03-25T12:08:14.000Z</time>
</trkpt>
<trkpt lat="45.8403410" lon="9.3030550">
	<ele>1113.00</ele>
	<time>2024-03-25T12:08:15.000Z</time>
</trkpt>
<trkpt lat="45.8403410" lon="9.3030440">
	<ele>1112.80</ele>
	<time>2024-03-25T12:08:16.000Z</time>
</trkpt>
<trkpt lat="45.8403390" lon="9.3030340">
	<ele>1112.60</ele>
	<time>2024-03-25T12:08:17.000Z</time>
</trkpt>
<trkpt lat="45.8403350" lon="9.3030190">
	<ele>1112.40</ele>
	<time>2024-03-25T12:08:18.000Z</time>
</trkpt>
<trkpt lat="45.8403340" lon="9.3030120">
	<ele>1112.40</ele>
	<time>2024-03-25T12:08:19.000Z</time>
</trkpt>
<trkpt lat="45.8403330" lon="9.3030080">
	<ele>1112.00</ele>
	<time>2024-03-25T12:08:20.000Z</time>
</trkpt>
<trkpt lat="45.8403350" lon="9.3030050">
	<ele>1111.80</ele>
	<time>2024-03-25T12:08:21.000Z</time>
</trkpt>
<trkpt lat="45.8403380" lon="9.3029850">
	<ele>1111.60</ele>
	<time>2024-03-25T12:08:22.000Z</time>
</trkpt>
<trkpt lat="45.8403390" lon="9.3029730">
	<ele>1111.40</ele>
	<time>2024-03-25T12:08:23.000Z</time>
</trkpt>
<trkpt lat="45.8403450" lon="9.3029600">
	<ele>1111.20</ele>
	<time>2024-03-25T12:08:24.000Z</time>
</trkpt>
<trkpt lat="45.8403490" lon="9.3029440">
	<ele>1110.80</ele>
	<time>2024-03-25T12:08:25.000Z</time>
</trkpt>
<trkpt lat="45.8403500" lon="9.3029380">
	<ele>1110.20</ele>
	<time>2024-03-25T12:08:26.000Z</time>
</trkpt>
<trkpt lat="45.8403510" lon="9.3029280">
	<ele>1110.00</ele>
	<time>2024-03-25T12:08:27.000Z</time>
</trkpt>
<trkpt lat="45.8403560" lon="9.3029130">
	<ele>1109.60</ele>
	<time>2024-03-25T12:08:28.000Z</time>
</trkpt>
<trkpt lat="45.8403470" lon="9.3028970">
	<ele>1109.20</ele>
	<time>2024-03-25T12:08:29.000Z</time>
</trkpt>
<trkpt lat="45.8403400" lon="9.3028870">
	<ele>1109.00</ele>
	<time>2024-03-25T12:08:30.000Z</time>
</trkpt>
<trkpt lat="45.8403350" lon="9.3028770">
	<ele>1108.80</ele>
	<time>2024-03-25T12:08:31.000Z</time>
</trkpt>
<trkpt lat="45.8403330" lon="9.3028660">
	<ele>1108.60</ele>
	<time>2024-03-25T12:08:32.000Z</time>
</trkpt>
<trkpt lat="45.8403320" lon="9.3028530">
	<ele>1108.00</ele>
	<time>2024-03-25T12:08:33.000Z</time>
</trkpt>
<trkpt lat="45.8403310" lon="9.3028390">
	<ele>1107.80</ele>
	<time>2024-03-25T12:08:34.000Z</time>
</trkpt>
<trkpt lat="45.8403300" lon="9.3028260">
	<ele>1107.60</ele>
	<time>2024-03-25T12:08:35.000Z</time>
</trkpt>
<trkpt lat="45.8403280" lon="9.3028140">
	<ele>1107.20</ele>
	<time>2024-03-25T12:08:36.000Z</time>
</trkpt>
<trkpt lat="45.8403290" lon="9.3028020">
	<ele>1107.00</ele>
	<time>2024-03-25T12:08:37.000Z</time>
</trkpt>
<trkpt lat="45.8403290" lon="9.3027940">
	<ele>1106.80</ele>
	<time>2024-03-25T12:08:38.000Z</time>
</trkpt>
<trkpt lat="45.8403290" lon="9.3027810">
	<ele>1106.40</ele>
	<time>2024-03-25T12:08:39.000Z</time>
</trkpt>
<trkpt lat="45.8403270" lon="9.3027720">
	<ele>1106.20</ele>
	<time>2024-03-25T12:08:40.000Z</time>
</trkpt>
<trkpt lat="45.8403250" lon="9.3027640">
	<ele>1106.00</ele>
	<time>2024-03-25T12:08:41.000Z</time>
</trkpt>
<trkpt lat="45.8403240" lon="9.3027520">
	<ele>1105.60</ele>
	<time>2024-03-25T12:08:42.000Z</time>
</trkpt>
<trkpt lat="45.8403250" lon="9.3027420">
	<ele>1105.40</ele>
	<time>2024-03-25T12:08:43.000Z</time>
</trkpt>
<trkpt lat="45.8403290" lon="9.3027310">
	<ele>1105.20</ele>
	<time>2024-03-25T12:08:44.000Z</time>
</trkpt>
<trkpt lat="45.8403340" lon="9.3027230">
	<ele>1104.80</ele>
	<time>2024-03-25T12:08:45.000Z</time>
</trkpt>
<trkpt lat="45.8403350" lon="9.3027150">
	<ele>1104.60</ele>
	<time>2024-03-25T12:08:46.000Z</time>
</trkpt>
<trkpt lat="45.8403360" lon="9.3027080">
	<ele>1104.40</ele>
	<time>2024-03-25T12:08:47.000Z</time>
</trkpt>
<trkpt lat="45.8403350" lon="9.3027000">
	<ele>1104.20</ele>
	<time>2024-03-25T12:08:48.000Z</time>
</trkpt>
<trkpt lat="45.8403370" lon="9.3026910">
	<ele>1103.80</ele>
	<time>2024-03-25T12:08:49.000Z</time>
</trkpt>
<trkpt lat="45.8403380" lon="9.3026840">
	<ele>1103.60</ele>
	<time>2024-03-25T12:08:50.000Z</time>
</trkpt>
<trkpt lat="45.8403380" lon="9.3026810">
	<ele>1103.40</ele>
	<time>2024-03-25T12:08:51.000Z</time>
</trkpt>
<trkpt lat="45.8403390" lon="9.3026780">
	<ele>1103.20</ele>
	<time>2024-03-25T12:08:52.000Z</time>
</trkpt>
<trkpt lat="45.8403390" lon="9.3026730">
	<ele>1103.20</ele>
	<time>2024-03-25T12:08:53.000Z</time>
</trkpt>
<trkpt lat="45.8403420" lon="9.3026570">
	<ele>1102.80</ele>
	<time>2024-03-25T12:08:54.000Z</time>
</trkpt>
<trkpt lat="45.8403430" lon="9.3026520">
	<ele>1102.60</ele>
	<time>2024-03-25T12:08:55.000Z</time>
</trkpt>
<trkpt lat="45.8403450" lon="9.3026480">
	<ele>1102.40</ele>
	<time>2024-03-25T12:08:56.000Z</time>
</trkpt>
<trkpt lat="45.8403460" lon="9.3026440">
	<ele>1102.20</ele>
	<time>2024-03-25T12:08:57.000Z</time>
</trkpt>
<trkpt lat="45.8403470" lon="9.3026360">
	<ele>1102.00</ele>
	<time>2024-03-25T12:08:58.000Z</time>
</trkpt>
<trkpt lat="45.8403470" lon="9.3026250">
	<ele>1101.40</ele>
	<time>2024-03-25T12:08:59.000Z</time>
</trkpt>
<trkpt lat="45.8403470" lon="9.3026110">
	<ele>1101.20</ele>
	<time>2024-03-25T12:09:00.000Z</time>
</trkpt>
<trkpt lat="45.8403430" lon="9.3025980">
	<ele>1101.00</ele>
	<time>2024-03-25T12:09:01.000Z</time>
</trkpt>
<trkpt lat="45.8403430" lon="9.3025840">
	<ele>1100.60</ele>
	<time>2024-03-25T12:09:02.000Z</time>
</trkpt>
<trkpt lat="45.8403460" lon="9.3025660">
	<ele>1100.40</ele>
	<time>2024-03-25T12:09:03.000Z</time>
</trkpt>
<trkpt lat="45.8403450" lon="9.3025600">
	<ele>1100.20</ele>
	<time>2024-03-25T12:09:04.000Z</time>
</trkpt>
<trkpt lat="45.8403490" lon="9.3025450">
	<ele>1100.20</ele>
	<time>2024-03-25T12:09:05.000Z</time>
</trkpt>
<trkpt lat="45.8403540" lon="9.3025260">
	<ele>1100.00</ele>
	<time>2024-03-25T12:09:06.000Z</time>
</trkpt>
<trkpt lat="45.8403550" lon="9.3025200">
	<ele>1099.60</ele>
	<time>2024-03-25T12:09:07.000Z</time>
</trkpt>
<trkpt lat="45.8403580" lon="9.3025080">
	<ele>1099.40</ele>
	<time>2024-03-25T12:09:08.000Z</time>
</trkpt>
<trkpt lat="45.8403620" lon="9.3025030">
	<ele>1099.20</ele>
	<time>2024-03-25T12:09:09.000Z</time>
</trkpt>
<trkpt lat="45.8403630" lon="9.3024960">
	<ele>1098.80</ele>
	<time>2024-03-25T12:09:10.000Z</time>
</trkpt>
<trkpt lat="45.8403630" lon="9.3024870">
	<ele>1098.60</ele>
	<time>2024-03-25T12:09:11.000Z</time>
</trkpt>
<trkpt lat="45.8403620" lon="9.3024830">
	<ele>1098.40</ele>
	<time>2024-03-25T12:09:12.000Z</time>
</trkpt>
<trkpt lat="45.8403600" lon="9.3024790">
	<ele>1098.00</ele>
	<time>2024-03-25T12:09:13.000Z</time>
</trkpt>
<trkpt lat="45.8403580" lon="9.3024770">
	<ele>1097.80</ele>
	<time>2024-03-25T12:09:14.000Z</time>
</trkpt>
<trkpt lat="45.8403570" lon="9.3024740">
	<ele>1097.60</ele>
	<time>2024-03-25T12:09:15.000Z</time>
</trkpt>
<trkpt lat="45.8403520" lon="9.3024650">
	<ele>1097.60</ele>
	<time>2024-03-25T12:09:16.000Z</time>
</trkpt>
<trkpt lat="45.8403580" lon="9.3024560">
	<ele>1097.40</ele>
	<time>2024-03-25T12:09:17.000Z</time>
</trkpt>
<trkpt lat="45.8403660" lon="9.3024470">
	<ele>1097.20</ele>
	<time>2024-03-25T12:09:18.000Z</time>
</trkpt>
<trkpt lat="45.8403760" lon="9.3024400">
	<ele>1097.00</ele>
	<time>2024-03-25T12:09:19.000Z</time>
</trkpt>
<trkpt lat="45.8403780" lon="9.3024340">
	<ele>1096.80</ele>
	<time>2024-03-25T12:09:20.000Z</time>
</trkpt>
<trkpt lat="45.8403790" lon="9.3024230">
	<ele>1096.60</ele>
	<time>2024-03-25T12:09:21.000Z</time>
</trkpt>
<trkpt lat="45.8403780" lon="9.3024120">
	<ele>1096.40</ele>
	<time>2024-03-25T12:09:22.000Z</time>
</trkpt>
<trkpt lat="45.8403810" lon="9.3024020">
	<ele>1096.40</ele>
	<time>2024-03-25T12:09:23.000Z</time>
</trkpt>
<trkpt lat="45.8403820" lon="9.3023970">
	<ele>1096.40</ele>
	<time>2024-03-25T12:09:24.000Z</time>
</trkpt>
<trkpt lat="45.8403840" lon="9.3023900">
	<ele>1096.00</ele>
	<time>2024-03-25T12:09:25.000Z</time>
</trkpt>
<trkpt lat="45.8403840" lon="9.3023830">
	<ele>1095.80</ele>
	<time>2024-03-25T12:09:26.000Z</time>
</trkpt>
<trkpt lat="45.8403830" lon="9.3023730">
	<ele>1095.40</ele>
	<time>2024-03-25T12:09:27.000Z</time>
</trkpt>
<trkpt lat="45.8403790" lon="9.3023710">
	<ele>1095.00</ele>
	<time>2024-03-25T12:09:28.000Z</time>
</trkpt>
<trkpt lat="45.8403770" lon="9.3023690">
	<ele>1094.80</ele>
	<time>2024-03-25T12:09:29.000Z</time>
</trkpt>
<trkpt lat="45.8403810" lon="9.3023660">
	<ele>1094.60</ele>
	<time>2024-03-25T12:09:30.000Z</time>
</trkpt>
<trkpt lat="45.8403900" lon="9.3023520">
	<ele>1094.60</ele>
	<time>2024-03-25T12:09:31.000Z</time>
</trkpt>
<trkpt lat="45.8403940" lon="9.3023350">
	<ele>1094.40</ele>
	<time>2024-03-25T12:09:32.000Z</time>
</trkpt>
<trkpt lat="45.8403950" lon="9.3023200">
	<ele>1094.00</ele>
	<time>2024-03-25T12:09:33.000Z</time>
</trkpt>
<trkpt lat="45.8403950" lon="9.3023080">
	<ele>1093.80</ele>
	<time>2024-03-25T12:09:34.000Z</time>
</trkpt>
<trkpt lat="45.8403980" lon="9.3022930">
	<ele>1093.80</ele>
	<time>2024-03-25T12:09:35.000Z</time>
</trkpt>
<trkpt lat="45.8404020" lon="9.3022770">
	<ele>1093.60</ele>
	<time>2024-03-25T12:09:36.000Z</time>
</trkpt>
<trkpt lat="45.8404060" lon="9.3022620">
	<ele>1093.40</ele>
	<time>2024-03-25T12:09:37.000Z</time>
</trkpt>
<trkpt lat="45.8404040" lon="9.3022470">
	<ele>1093.20</ele>
	<time>2024-03-25T12:09:38.000Z</time>
</trkpt>
<trkpt lat="45.8403960" lon="9.3022400">
	<ele>1093.00</ele>
	<time>2024-03-25T12:09:39.000Z</time>
</trkpt>
<trkpt lat="45.8403880" lon="9.3022310">
	<ele>1092.60</ele>
	<time>2024-03-25T12:09:40.000Z</time>
</trkpt>
<trkpt lat="45.8403890" lon="9.3022280">
	<ele>1092.40</ele>
	<time>2024-03-25T12:09:41.000Z</time>
</trkpt>
<trkpt lat="45.8403880" lon="9.3022270">
	<ele>1092.40</ele>
	<time>2024-03-25T12:09:42.000Z</time>
</trkpt>
<trkpt lat="45.8403880" lon="9.3022240">
	<ele>1092.20</ele>
	<time>2024-03-25T12:09:43.000Z</time>
</trkpt>
<trkpt lat="45.8403900" lon="9.3022180">
	<ele>1092.20</ele>
	<time>2024-03-25T12:09:44.000Z</time>
</trkpt>
<trkpt lat="45.8403910" lon="9.3022130">
	<ele>1092.00</ele>
	<time>2024-03-25T12:09:45.000Z</time>
</trkpt>
<trkpt lat="45.8403940" lon="9.3022040">
	<ele>1091.80</ele>
	<time>2024-03-25T12:09:46.000Z</time>
</trkpt>
<trkpt lat="45.8403960" lon="9.3022030">
	<ele>1091.60</ele>
	<time>2024-03-25T12:09:47.000Z</time>
</trkpt>
<trkpt lat="45.8403960" lon="9.3022040">
	<ele>1091.20</ele>
	<time>2024-03-25T12:09:48.000Z</time>
</trkpt>
<trkpt lat="45.8403910" lon="9.3022050">
	<ele>1091.00</ele>
	<time>2024-03-25T12:09:49.000Z</time>
</trkpt>
<trkpt lat="45.8403880" lon="9.3022060">
	<ele>1090.80</ele>
	<time>2024-03-25T12:09:50.000Z</time>
</trkpt>
<trkpt lat="45.8403870" lon="9.3022080">
	<ele>1090.80</ele>
	<time>2024-03-25T12:09:51.000Z</time>
</trkpt>
<trkpt lat="45.8403860" lon="9.3022090">
	<ele>1090.80</ele>
	<time>2024-03-25T12:09:52.000Z</time>
</trkpt>
<trkpt lat="45.8403850" lon="9.3022100">
	<ele>1090.80</ele>
	<time>2024-03-25T12:09:53.000Z</time>
</trkpt>
<trkpt lat="45.8403850" lon="9.3022090">
	<ele>1090.80</ele>
	<time>2024-03-25T12:09:54.000Z</time>
</trkpt>
<trkpt lat="45.8403850" lon="9.3022060">
	<ele>1091.00</ele>
	<time>2024-03-25T12:09:55.000Z</time>
</trkpt>
<trkpt lat="45.8403870" lon="9.3022060">
	<ele>1091.00</ele>
	<time>2024-03-25T12:09:56.000Z</time>
</trkpt>
<trkpt lat="45.8403880" lon="9.3022030">
	<ele>1091.20</ele>
	<time>2024-03-25T12:09:57.000Z</time>
</trkpt>
<trkpt lat="45.8403880" lon="9.3022000">
	<ele>1091.20</ele>
	<time>2024-03-25T12:09:58.000Z</time>
</trkpt>
<trkpt lat="45.8403890" lon="9.3021970">
	<ele>1091.20</ele>
	<time>2024-03-25T12:09:59.000Z</time>
</trkpt>
<trkpt lat="45.8403880" lon="9.3021940">
	<ele>1091.00</ele>
	<time>2024-03-25T12:10:00.000Z</time>
</trkpt>
<trkpt lat="45.8403880" lon="9.3021930">
	<ele>1091.00</ele>
	<time>2024-03-25T12:10:01.000Z</time>
</trkpt>
<trkpt lat="45.8403880" lon="9.3021910">
	<ele>1091.00</ele>
	<time>2024-03-25T12:10:02.000Z</time>
</trkpt>
<trkpt lat="45.8403890" lon="9.3021900">
	<ele>1090.80</ele>
	<time>2024-03-25T12:10:03.000Z</time>
</trkpt>
<trkpt lat="45.8403900" lon="9.3021870">
	<ele>1090.60</ele>
	<time>2024-03-25T12:10:04.000Z</time>
</trkpt>
<trkpt lat="45.8403910" lon="9.3021880">
	<ele>1090.60</ele>
	<time>2024-03-25T12:10:05.000Z</time>
</trkpt>
<trkpt lat="45.8403980" lon="9.3021900">
	<ele>1090.40</ele>
	<time>2024-03-25T12:10:06.000Z</time>
</trkpt>
<trkpt lat="45.8404020" lon="9.3021870">
	<ele>1090.40</ele>
	<time>2024-03-25T12:10:07.000Z</time>
</trkpt>
<trkpt lat="45.8404040" lon="9.3021860">
	<ele>1090.20</ele>
	<time>2024-03-25T12:10:08.000Z</time>
</trkpt>
<trkpt lat="45.8404070" lon="9.3021870">
	<ele>1090.00</ele>
	<time>2024-03-25T12:10:09.000Z</time>
</trkpt>
<trkpt lat="45.8404100" lon="9.3021930">
	<ele>1089.80</ele>
	<time>2024-03-25T12:10:10.000Z</time>
</trkpt>
<trkpt lat="45.8404130" lon="9.3022000">
	<ele>1089.80</ele>
	<time>2024-03-25T12:10:11.000Z</time>
</trkpt>
<trkpt lat="45.8404190" lon="9.3022040">
	<ele>1089.60</ele>
	<time>2024-03-25T12:10:12.000Z</time>
</trkpt>
<trkpt lat="45.8404260" lon="9.3022090">
	<ele>1089.40</ele>
	<time>2024-03-25T12:10:13.000Z</time>
</trkpt>
<trkpt lat="45.8404330" lon="9.3022170">
	<ele>1089.40</ele>
	<time>2024-03-25T12:10:14.000Z</time>
</trkpt>
<trkpt lat="45.8404430" lon="9.3022260">
	<ele>1089.20</ele>
	<time>2024-03-25T12:10:15.000Z</time>
</trkpt>
<trkpt lat="45.8404550" lon="9.3022330">
	<ele>1089.00</ele>
	<time>2024-03-25T12:10:16.000Z</time>
</trkpt>
<trkpt lat="45.8404670" lon="9.3022370">
	<ele>1088.80</ele>
	<time>2024-03-25T12:10:17.000Z</time>
</trkpt>
<trkpt lat="45.8404780" lon="9.3022390">
	<ele>1088.80</ele>
	<time>2024-03-25T12:10:18.000Z</time>
</trkpt>
<trkpt lat="45.8404860" lon="9.3022430">
	<ele>1088.60</ele>
	<time>2024-03-25T12:10:19.000Z</time>
</trkpt>
<trkpt lat="45.8404910" lon="9.3022530">
	<ele>1088.40</ele>
	<time>2024-03-25T12:10:20.000Z</time>
</trkpt>
<trkpt lat="45.8404950" lon="9.3022650">
	<ele>1088.40</ele>
	<time>2024-03-25T12:10:21.000Z</time>
</trkpt>
<trkpt lat="45.8404990" lon="9.3022740">
	<ele>1088.40</ele>
	<time>2024-03-25T12:10:22.000Z</time>
</trkpt>
<trkpt lat="45.8405040" lon="9.3022760">
	<ele>1088.40</ele>
	<time>2024-03-25T12:10:23.000Z</time>
</trkpt>
<trkpt lat="45.8405080" lon="9.3022780">
	<ele>1088.20</ele>
	<time>2024-03-25T12:10:24.000Z</time>
</trkpt>
<trkpt lat="45.8405130" lon="9.3022870">
	<ele>1088.20</ele>
	<time>2024-03-25T12:10:25.000Z</time>
</trkpt>
<trkpt lat="45.8405160" lon="9.3022960">
	<ele>1088.00</ele>
	<time>2024-03-25T12:10:26.000Z</time>
</trkpt>
<trkpt lat="45.8405170" lon="9.3023040">
	<ele>1088.00</ele>
	<time>2024-03-25T12:10:27.000Z</time>
</trkpt>
<trkpt lat="45.8405170" lon="9.3023120">
	<ele>1087.80</ele>
	<time>2024-03-25T12:10:28.000Z</time>
</trkpt>
<trkpt lat="45.8405190" lon="9.3023170">
	<ele>1087.60</ele>
	<time>2024-03-25T12:10:29.000Z</time>
</trkpt>
<trkpt lat="45.8405200" lon="9.3023270">
	<ele>1087.40</ele>
	<time>2024-03-25T12:10:30.000Z</time>
</trkpt>
<trkpt lat="45.8405180" lon="9.3023350">
	<ele>1087.20</ele>
	<time>2024-03-25T12:10:31.000Z</time>
</trkpt>
<trkpt lat="45.8405190" lon="9.3023490">
	<ele>1087.20</ele>
	<time>2024-03-25T12:10:32.000Z</time>
</trkpt>
<trkpt lat="45.8405220" lon="9.3023660">
	<ele>1087.00</ele>
	<time>2024-03-25T12:10:33.000Z</time>
</trkpt>
<trkpt lat="45.8405300" lon="9.3023840">
	<ele>1086.80</ele>
	<time>2024-03-25T12:10:34.000Z</time>
</trkpt>
<trkpt lat="45.8405340" lon="9.3023900">
	<ele>1086.60</ele>
	<time>2024-03-25T12:10:35.000Z</time>
</trkpt>
<trkpt lat="45.8405410" lon="9.3023910">
	<ele>1086.60</ele>
	<time>2024-03-25T12:10:36.000Z</time>
</trkpt>
<trkpt lat="45.8405530" lon="9.3023960">
	<ele>1086.20</ele>
	<time>2024-03-25T12:10:37.000Z</time>
</trkpt>
<trkpt lat="45.8405600" lon="9.3023970">
	<ele>1086.00</ele>
	<time>2024-03-25T12:10:38.000Z</time>
</trkpt>
<trkpt lat="45.8405640" lon="9.3024100">
	<ele>1085.80</ele>
	<time>2024-03-25T12:10:39.000Z</time>
</trkpt>
<trkpt lat="45.8405710" lon="9.3024150">
	<ele>1085.80</ele>
	<time>2024-03-25T12:10:40.000Z</time>
</trkpt>
<trkpt lat="45.8405710" lon="9.3024230">
	<ele>1085.60</ele>
	<time>2024-03-25T12:10:41.000Z</time>
</trkpt>
<trkpt lat="45.8405710" lon="9.3024320">
	<ele>1085.40</ele>
	<time>2024-03-25T12:10:42.000Z</time>
</trkpt>
<trkpt lat="45.8405770" lon="9.3024370">
	<ele>1085.40</ele>
	<time>2024-03-25T12:10:43.000Z</time>
</trkpt>
<trkpt lat="45.8405830" lon="9.3024400">
	<ele>1085.20</ele>
	<time>2024-03-25T12:10:44.000Z</time>
</trkpt>
<trkpt lat="45.8405880" lon="9.3024440">
	<ele>1085.20</ele>
	<time>2024-03-25T12:10:45.000Z</time>
</trkpt>
<trkpt lat="45.8405960" lon="9.3024460">
	<ele>1085.00</ele>
	<time>2024-03-25T12:10:46.000Z</time>
</trkpt>
<trkpt lat="45.8406040" lon="9.3024450">
	<ele>1084.80</ele>
	<time>2024-03-25T12:10:47.000Z</time>
</trkpt>
<trkpt lat="45.8406110" lon="9.3024360">
	<ele>1084.60</ele>
	<time>2024-03-25T12:10:48.000Z</time>
</trkpt>
<trkpt lat="45.8406170" lon="9.3024260">
	<ele>1084.40</ele>
	<time>2024-03-25T12:10:49.000Z</time>
</trkpt>
<trkpt lat="45.8406190" lon="9.3024190">
	<ele>1084.20</ele>
	<time>2024-03-25T12:10:50.000Z</time>
</trkpt>
<trkpt lat="45.8406190" lon="9.3024100">
	<ele>1084.00</ele>
	<time>2024-03-25T12:10:51.000Z</time>
</trkpt>
<trkpt lat="45.8406210" lon="9.3024080">
	<ele>1083.80</ele>
	<time>2024-03-25T12:10:52.000Z</time>
</trkpt>
<trkpt lat="45.8406230" lon="9.3024030">
	<ele>1083.60</ele>
	<time>2024-03-25T12:10:53.000Z</time>
</trkpt>
<trkpt lat="45.8406240" lon="9.3024000">
	<ele>1083.40</ele>
	<time>2024-03-25T12:10:54.000Z</time>
</trkpt>
<trkpt lat="45.8406370" lon="9.3023920">
	<ele>1083.20</ele>
	<time>2024-03-25T12:10:55.000Z</time>
</trkpt>
<trkpt lat="45.8406470" lon="9.3023880">
	<ele>1083.00</ele>
	<time>2024-03-25T12:10:56.000Z</time>
</trkpt>
<trkpt lat="45.8406530" lon="9.3023890">
	<ele>1082.80</ele>
	<time>2024-03-25T12:10:57.000Z</time>
</trkpt>
<trkpt lat="45.8406560" lon="9.3023890">
	<ele>1082.60</ele>
	<time>2024-03-25T12:10:58.000Z</time>
</trkpt>
<trkpt lat="45.8406580" lon="9.3023870">
	<ele>1082.40</ele>
	<time>2024-03-25T12:10:59.000Z</time>
</trkpt>
<trkpt lat="45.8406650" lon="9.3023830">
	<ele>1082.20</ele>
	<time>2024-03-25T12:11:00.000Z</time>
</trkpt>
<trkpt lat="45.8406700" lon="9.3023800">
	<ele>1082.00</ele>
	<time>2024-03-25T12:11:01.000Z</time>
</trkpt>
<trkpt lat="45.8406760" lon="9.3023810">
	<ele>1081.80</ele>
	<time>2024-03-25T12:11:02.000Z</time>
</trkpt>
<trkpt lat="45.8406860" lon="9.3023730">
	<ele>1081.60</ele>
	<time>2024-03-25T12:11:03.000Z</time>
</trkpt>
<trkpt lat="45.8406910" lon="9.3023740">
	<ele>1081.40</ele>
	<time>2024-03-25T12:11:04.000Z</time>
</trkpt>
<trkpt lat="45.8406960" lon="9.3023760">
	<ele>1081.20</ele>
	<time>2024-03-25T12:11:05.000Z</time>
</trkpt>
<trkpt lat="45.8407040" lon="9.3023760">
	<ele>1081.00</ele>
	<time>2024-03-25T12:11:06.000Z</time>
</trkpt>
<trkpt lat="45.8407140" lon="9.3023800">
	<ele>1081.00</ele>
	<time>2024-03-25T12:11:07.000Z</time>
</trkpt>
<trkpt lat="45.8407240" lon="9.3023830">
	<ele>1080.80</ele>
	<time>2024-03-25T12:11:08.000Z</time>
</trkpt>
<trkpt lat="45.8407330" lon="9.3023850">
	<ele>1080.80</ele>
	<time>2024-03-25T12:11:09.000Z</time>
</trkpt>
<trkpt lat="45.8407430" lon="9.3023900">
	<ele>1080.60</ele>
	<time>2024-03-25T12:11:10.000Z</time>
</trkpt>
<trkpt lat="45.8407520" lon="9.3023950">
	<ele>1080.60</ele>
	<time>2024-03-25T12:11:11.000Z</time>
</trkpt>
<trkpt lat="45.8407630" lon="9.3023970">
	<ele>1080.60</ele>
	<time>2024-03-25T12:11:12.000Z</time>
</trkpt>
<trkpt lat="45.8407700" lon="9.3023990">
	<ele>1080.60</ele>
	<time>2024-03-25T12:11:13.000Z</time>
</trkpt>
<trkpt lat="45.8407710" lon="9.3024020">
	<ele>1080.60</ele>
	<time>2024-03-25T12:11:14.000Z</time>
</trkpt>
<trkpt lat="45.8407750" lon="9.3024090">
	<ele>1080.60</ele>
	<time>2024-03-25T12:11:15.000Z</time>
</trkpt>
<trkpt lat="45.8407740" lon="9.3024120">
	<ele>1080.40</ele>
	<time>2024-03-25T12:11:16.000Z</time>
</trkpt>
<trkpt lat="45.8407760" lon="9.3024130">
	<ele>1080.40</ele>
	<time>2024-03-25T12:11:17.000Z</time>
</trkpt>
<trkpt lat="45.8407840" lon="9.3024070">
	<ele>1080.40</ele>
	<time>2024-03-25T12:11:18.000Z</time>
</trkpt>
<trkpt lat="45.8407850" lon="9.3024010">
	<ele>1080.20</ele>
	<time>2024-03-25T12:11:19.000Z</time>
</trkpt>
<trkpt lat="45.8407860" lon="9.3023970">
	<ele>1080.20</ele>
	<time>2024-03-25T12:11:20.000Z</time>
</trkpt>
<trkpt lat="45.8407860" lon="9.3023950">
	<ele>1080.20</ele>
	<time>2024-03-25T12:11:21.000Z</time>
</trkpt>
<trkpt lat="45.8407870" lon="9.3023950">
	<ele>1080.20</ele>
	<time>2024-03-25T12:11:22.000Z</time>
</trkpt>
<trkpt lat="45.8407950" lon="9.3023950">
	<ele>1080.20</ele>
	<time>2024-03-25T12:11:23.000Z</time>
</trkpt>
<trkpt lat="45.8407970" lon="9.3023920">
	<ele>1080.00</ele>
	<time>2024-03-25T12:11:24.000Z</time>
</trkpt>
<trkpt lat="45.8407970" lon="9.3023920">
	<ele>1080.00</ele>
	<time>2024-03-25T12:11:25.000Z</time>
</trkpt>
<trkpt lat="45.8408000" lon="9.3023940">
	<ele>1080.00</ele>
	<time>2024-03-25T12:11:26.000Z</time>
</trkpt>
<trkpt lat="45.8408040" lon="9.3023930">
	<ele>1080.00</ele>
	<time>2024-03-25T12:11:27.000Z</time>
</trkpt>
<trkpt lat="45.8408030" lon="9.3023930">
	<ele>1080.00</ele>
	<time>2024-03-25T12:11:28.000Z</time>
</trkpt>
<trkpt lat="45.8408000" lon="9.3023970">
	<ele>1080.00</ele>
	<time>2024-03-25T12:11:29.000Z</time>
</trkpt>
<trkpt lat="45.8407990" lon="9.3024010">
	<ele>1080.20</ele>
	<time>2024-03-25T12:11:30.000Z</time>
</trkpt>
<trkpt lat="45.8408050" lon="9.3023990">
	<ele>1080.20</ele>
	<time>2024-03-25T12:11:31.000Z</time>
</trkpt>
<trkpt lat="45.8408060" lon="9.3024020">
	<ele>1080.20</ele>
	<time>2024-03-25T12:11:32.000Z</time>
</trkpt>
<trkpt lat="45.8408070" lon="9.3024050">
	<ele>1080.60</ele>
	<time>2024-03-25T12:11:33.000Z</time>
</trkpt>
<trkpt lat="45.8408120" lon="9.3024080">
	<ele>1080.80</ele>
	<time>2024-03-25T12:11:34.000Z</time>
</trkpt>
<trkpt lat="45.8408160" lon="9.3024110">
	<ele>1081.00</ele>
	<time>2024-03-25T12:11:35.000Z</time>
</trkpt>
<trkpt lat="45.8408210" lon="9.3024140">
	<ele>1081.00</ele>
	<time>2024-03-25T12:11:36.000Z</time>
</trkpt>
<trkpt lat="45.8408280" lon="9.3024210">
	<ele>1081.20</ele>
	<time>2024-03-25T12:11:37.000Z</time>
</trkpt>
<trkpt lat="45.8408380" lon="9.3024290">
	<ele>1081.20</ele>
	<time>2024-03-25T12:11:38.000Z</time>
</trkpt>
<trkpt lat="45.8408480" lon="9.3024350">
	<ele>1081.20</ele>
	<time>2024-03-25T12:11:39.000Z</time>
</trkpt>
<trkpt lat="45.8408550" lon="9.3024390">
	<ele>1081.20</ele>
	<time>2024-03-25T12:11:40.000Z</time>
</trkpt>
<trkpt lat="45.8408580" lon="9.3024490">
	<ele>1081.20</ele>
	<time>2024-03-25T12:11:41.000Z</time>
</trkpt>
<trkpt lat="45.8408680" lon="9.3024560">
	<ele>1081.20</ele>
	<time>2024-03-25T12:11:42.000Z</time>
</trkpt>
<trkpt lat="45.8408740" lon="9.3024590">
	<ele>1081.20</ele>
	<time>2024-03-25T12:11:43.000Z</time>
</trkpt>
<trkpt lat="45.8408770" lon="9.3024610">
	<ele>1081.40</ele>
	<time>2024-03-25T12:11:44.000Z</time>
</trkpt>
<trkpt lat="45.8408840" lon="9.3024620">
	<ele>1081.40</ele>
	<time>2024-03-25T12:11:45.000Z</time>
</trkpt>
<trkpt lat="45.8408930" lon="9.3024630">
	<ele>1081.20</ele>
	<time>2024-03-25T12:11:46.000Z</time>
</trkpt>
<trkpt lat="45.8409040" lon="9.3024620">
	<ele>1081.20</ele>
	<time>2024-03-25T12:11:47.000Z</time>
</trkpt>
<trkpt lat="45.8409170" lon="9.3024660">
	<ele>1081.20</ele>
	<time>2024-03-25T12:11:48.000Z</time>
</trkpt>
<trkpt lat="45.8409300" lon="9.3024740">
	<ele>1081.00</ele>
	<time>2024-03-25T12:11:49.000Z</time>
</trkpt>
<trkpt lat="45.8409390" lon="9.3024850">
	<ele>1080.80</ele>
	<time>2024-03-25T12:11:50.000Z</time>
</trkpt>
<trkpt lat="45.8409500" lon="9.3024970">
	<ele>1080.80</ele>
	<time>2024-03-25T12:11:51.000Z</time>
</trkpt>
<trkpt lat="45.8409610" lon="9.3025100">
	<ele>1080.60</ele>
	<time>2024-03-25T12:11:52.000Z</time>
</trkpt>
<trkpt lat="45.8409710" lon="9.3025220">
	<ele>1080.40</ele>
	<time>2024-03-25T12:11:53.000Z</time>
</trkpt>
<trkpt lat="45.8409780" lon="9.3025350">
	<ele>1080.40</ele>
	<time>2024-03-25T12:11:54.000Z</time>
</trkpt>
<trkpt lat="45.8409870" lon="9.3025510">
	<ele>1080.20</ele>
	<time>2024-03-25T12:11:55.000Z</time>
</trkpt>
<trkpt lat="45.8409890" lon="9.3025750">
	<ele>1080.00</ele>
	<time>2024-03-25T12:11:56.000Z</time>
</trkpt>
<trkpt lat="45.8409950" lon="9.3025890">
	<ele>1079.80</ele>
	<time>2024-03-25T12:11:57.000Z</time>
</trkpt>
<trkpt lat="45.8410030" lon="9.3026000">
	<ele>1079.80</ele>
	<time>2024-03-25T12:11:58.000Z</time>
</trkpt>
<trkpt lat="45.8410080" lon="9.3026200">
	<ele>1079.60</ele>
	<time>2024-03-25T12:11:59.000Z</time>
</trkpt>
<trkpt lat="45.8410200" lon="9.3026400">
	<ele>1079.60</ele>
	<time>2024-03-25T12:12:00.000Z</time>
</trkpt>
<trkpt lat="45.8410330" lon="9.3026520">
	<ele>1079.40</ele>
	<time>2024-03-25T12:12:01.000Z</time>
</trkpt>
<trkpt lat="45.8410450" lon="9.3026650">
	<ele>1079.40</ele>
	<time>2024-03-25T12:12:02.000Z</time>
</trkpt>
<trkpt lat="45.8410490" lon="9.3026760">
	<ele>1079.20</ele>
	<time>2024-03-25T12:12:03.000Z</time>
</trkpt>
<trkpt lat="45.8410520" lon="9.3026850">
	<ele>1079.00</ele>
	<time>2024-03-25T12:12:04.000Z</time>
</trkpt>
<trkpt lat="45.8410520" lon="9.3026940">
	<ele>1078.80</ele>
	<time>2024-03-25T12:12:05.000Z</time>
</trkpt>
<trkpt lat="45.8410490" lon="9.3027080">
	<ele>1078.60</ele>
	<time>2024-03-25T12:12:06.000Z</time>
</trkpt>
<trkpt lat="45.8410520" lon="9.3027240">
	<ele>1078.40</ele>
	<time>2024-03-25T12:12:07.000Z</time>
</trkpt>
<trkpt lat="45.8410570" lon="9.3027360">
	<ele>1078.00</ele>
	<time>2024-03-25T12:12:08.000Z</time>
</trkpt>
<trkpt lat="45.8410690" lon="9.3027470">
	<ele>1078.00</ele>
	<time>2024-03-25T12:12:09.000Z</time>
</trkpt>
<trkpt lat="45.8410860" lon="9.3027490">
	<ele>1077.80</ele>
	<time>2024-03-25T12:12:10.000Z</time>
</trkpt>
<trkpt lat="45.8410970" lon="9.3027570">
	<ele>1077.60</ele>
	<time>2024-03-25T12:12:11.000Z</time>
</trkpt>
<trkpt lat="45.8411030" lon="9.3027680">
	<ele>1077.40</ele>
	<time>2024-03-25T12:12:12.000Z</time>
</trkpt>
<trkpt lat="45.8411040" lon="9.3027760">
	<ele>1077.20</ele>
	<time>2024-03-25T12:12:13.000Z</time>
</trkpt>
<trkpt lat="45.8411100" lon="9.3027820">
	<ele>1077.20</ele>
	<time>2024-03-25T12:12:14.000Z</time>
</trkpt>
<trkpt lat="45.8411170" lon="9.3027980">
	<ele>1077.00</ele>
	<time>2024-03-25T12:12:15.000Z</time>
</trkpt>
<trkpt lat="45.8411270" lon="9.3028080">
	<ele>1076.60</ele>
	<time>2024-03-25T12:12:16.000Z</time>
</trkpt>
<trkpt lat="45.8411340" lon="9.3028220">
	<ele>1076.40</ele>
	<time>2024-03-25T12:12:17.000Z</time>
</trkpt>
<trkpt lat="45.8411440" lon="9.3028380">
	<ele>1076.20</ele>
	<time>2024-03-25T12:12:18.000Z</time>
</trkpt>
<trkpt lat="45.8411520" lon="9.3028540">
	<ele>1076.00</ele>
	<time>2024-03-25T12:12:19.000Z</time>
</trkpt>
<trkpt lat="45.8411570" lon="9.3028730">
	<ele>1075.80</ele>
	<time>2024-03-25T12:12:20.000Z</time>
</trkpt>
<trkpt lat="45.8411610" lon="9.3028910">
	<ele>1075.80</ele>
	<time>2024-03-25T12:12:21.000Z</time>
</trkpt>
<trkpt lat="45.8411650" lon="9.3029110">
	<ele>1075.60</ele>
	<time>2024-03-25T12:12:22.000Z</time>
</trkpt>
<trkpt lat="45.8411750" lon="9.3029280">
	<ele>1075.60</ele>
	<time>2024-03-25T12:12:23.000Z</time>
</trkpt>
<trkpt lat="45.8411830" lon="9.3029440">
	<ele>1075.60</ele>
	<time>2024-03-25T12:12:24.000Z</time>
</trkpt>
<trkpt lat="45.8411930" lon="9.3029600">
	<ele>1075.60</ele>
	<time>2024-03-25T12:12:25.000Z</time>
</trkpt>
<trkpt lat="45.8412000" lon="9.3029760">
	<ele>1075.80</ele>
	<time>2024-03-25T12:12:26.000Z</time>
</trkpt>
<trkpt lat="45.8412090" lon="9.3029900">
	<ele>1075.80</ele>
	<time>2024-03-25T12:12:27.000Z</time>
</trkpt>
<trkpt lat="45.8412130" lon="9.3030090">
	<ele>1075.80</ele>
	<time>2024-03-25T12:12:28.000Z</time>
</trkpt>
<trkpt lat="45.8412160" lon="9.3030290">
	<ele>1076.00</ele>
	<time>2024-03-25T12:12:29.000Z</time>
</trkpt>
<trkpt lat="45.8412170" lon="9.3030480">
	<ele>1076.00</ele>
	<time>2024-03-25T12:12:30.000Z</time>
</trkpt>
<trkpt lat="45.8412200" lon="9.3030630">
	<ele>1076.00</ele>
	<time>2024-03-25T12:12:31.000Z</time>
</trkpt>
<trkpt lat="45.8412230" lon="9.3030820">
	<ele>1076.00</ele>
	<time>2024-03-25T12:12:32.000Z</time>
</trkpt>
<trkpt lat="45.8412270" lon="9.3031010">
	<ele>1075.80</ele>
	<time>2024-03-25T12:12:33.000Z</time>
</trkpt>
<trkpt lat="45.8412330" lon="9.3031190">
	<ele>1075.60</ele>
	<time>2024-03-25T12:12:34.000Z</time>
</trkpt>
<trkpt lat="45.8412410" lon="9.3031370">
	<ele>1075.60</ele>
	<time>2024-03-25T12:12:35.000Z</time>
</trkpt>
<trkpt lat="45.8412440" lon="9.3031570">
	<ele>1075.40</ele>
	<time>2024-03-25T12:12:36.000Z</time>
</trkpt>
<trkpt lat="45.8412440" lon="9.3031770">
	<ele>1075.00</ele>
	<time>2024-03-25T12:12:37.000Z</time>
</trkpt>
<trkpt lat="45.8412430" lon="9.3031970">
	<ele>1074.80</ele>
	<time>2024-03-25T12:12:38.000Z</time>
</trkpt>
<trkpt lat="45.8412460" lon="9.3032180">
	<ele>1074.60</ele>
	<time>2024-03-25T12:12:39.000Z</time>
</trkpt>
<trkpt lat="45.8412490" lon="9.3032390">
	<ele>1074.60</ele>
	<time>2024-03-25T12:12:40.000Z</time>
</trkpt>
<trkpt lat="45.8412540" lon="9.3032580">
	<ele>1074.40</ele>
	<time>2024-03-25T12:12:41.000Z</time>
</trkpt>
<trkpt lat="45.8412650" lon="9.3032740">
	<ele>1074.40</ele>
	<time>2024-03-25T12:12:42.000Z</time>
</trkpt>
<trkpt lat="45.8412770" lon="9.3032850">
	<ele>1074.20</ele>
	<time>2024-03-25T12:12:43.000Z</time>
</trkpt>
<trkpt lat="45.8412900" lon="9.3032970">
	<ele>1074.00</ele>
	<time>2024-03-25T12:12:44.000Z</time>
</trkpt>
<trkpt lat="45.8412980" lon="9.3033140">
	<ele>1073.80</ele>
	<time>2024-03-25T12:12:45.000Z</time>
</trkpt>
<trkpt lat="45.8413040" lon="9.3033330">
	<ele>1073.80</ele>
	<time>2024-03-25T12:12:46.000Z</time>
</trkpt>
<trkpt lat="45.8413190" lon="9.3033530">
	<ele>1073.60</ele>
	<time>2024-03-25T12:12:47.000Z</time>
</trkpt>
<trkpt lat="45.8413370" lon="9.3033590">
	<ele>1073.60</ele>
	<time>2024-03-25T12:12:48.000Z</time>
</trkpt>
<trkpt lat="45.8413420" lon="9.3033750">
	<ele>1073.60</ele>
	<time>2024-03-25T12:12:49.000Z</time>
</trkpt>
<trkpt lat="45.8413440" lon="9.3033930">
	<ele>1073.40</ele>
	<time>2024-03-25T12:12:50.000Z</time>
</trkpt>
<trkpt lat="45.8413480" lon="9.3034050">
	<ele>1073.40</ele>
	<time>2024-03-25T12:12:51.000Z</time>
</trkpt>
<trkpt lat="45.8413510" lon="9.3034200">
	<ele>1073.40</ele>
	<time>2024-03-25T12:12:52.000Z</time>
</trkpt>
<trkpt lat="45.8413550" lon="9.3034360">
	<ele>1073.20</ele>
	<time>2024-03-25T12:12:53.000Z</time>
</trkpt>
<trkpt lat="45.8413600" lon="9.3034510">
	<ele>1072.60</ele>
	<time>2024-03-25T12:12:54.000Z</time>
</trkpt>
<trkpt lat="45.8413660" lon="9.3034640">
	<ele>1072.40</ele>
	<time>2024-03-25T12:12:55.000Z</time>
</trkpt>
<trkpt lat="45.8413710" lon="9.3034770">
	<ele>1072.20</ele>
	<time>2024-03-25T12:12:56.000Z</time>
</trkpt>
<trkpt lat="45.8413770" lon="9.3034920">
	<ele>1072.00</ele>
	<time>2024-03-25T12:12:57.000Z</time>
</trkpt>
<trkpt lat="45.8413830" lon="9.3035030">
	<ele>1071.60</ele>
	<time>2024-03-25T12:12:58.000Z</time>
</trkpt>
<trkpt lat="45.8413930" lon="9.3035100">
	<ele>1071.40</ele>
	<time>2024-03-25T12:12:59.000Z</time>
</trkpt>
<trkpt lat="45.8414020" lon="9.3035170">
	<ele>1071.00</ele>
	<time>2024-03-25T12:13:00.000Z</time>
</trkpt>
<trkpt lat="45.8414110" lon="9.3035280">
	<ele>1070.80</ele>
	<time>2024-03-25T12:13:01.000Z</time>
</trkpt>
<trkpt lat="45.8414150" lon="9.3035420">
	<ele>1070.60</ele>
	<time>2024-03-25T12:13:02.000Z</time>
</trkpt>
<trkpt lat="45.8414200" lon="9.3035550">
	<ele>1070.20</ele>
	<time>2024-03-25T12:13:03.000Z</time>
</trkpt>
<trkpt lat="45.8414230" lon="9.3035680">
	<ele>1069.60</ele>
	<time>2024-03-25T12:13:04.000Z</time>
</trkpt>
<trkpt lat="45.8414250" lon="9.3035830">
	<ele>1069.40</ele>
	<time>2024-03-25T12:13:05.000Z</time>
</trkpt>
<trkpt lat="45.8414290" lon="9.3035960">
	<ele>1069.20</ele>
	<time>2024-03-25T12:13:06.000Z</time>
</trkpt>
<trkpt lat="45.8414370" lon="9.3036040">
	<ele>1069.00</ele>
	<time>2024-03-25T12:13:07.000Z</time>
</trkpt>
<trkpt lat="45.8414470" lon="9.3036100">
	<ele>1069.00</ele>
	<time>2024-03-25T12:13:08.000Z</time>
</trkpt>
<trkpt lat="45.8414550" lon="9.3036240">
	<ele>1068.80</ele>
	<time>2024-03-25T12:13:09.000Z</time>
</trkpt>
<trkpt lat="45.8414610" lon="9.3036370">
	<ele>1068.40</ele>
	<time>2024-03-25T12:13:10.000Z</time>
</trkpt>
<trkpt lat="45.8414640" lon="9.3036480">
	<ele>1068.20</ele>
	<time>2024-03-25T12:13:11.000Z</time>
</trkpt>
<trkpt lat="45.8414690" lon="9.3036560">
	<ele>1067.80</ele>
	<time>2024-03-25T12:13:12.000Z</time>
</trkpt>
<trkpt lat="45.8414680" lon="9.3036740">
	<ele>1067.60</ele>
	<time>2024-03-25T12:13:13.000Z</time>
</trkpt>
<trkpt lat="45.8414750" lon="9.3036980">
	<ele>1067.40</ele>
	<time>2024-03-25T12:13:14.000Z</time>
</trkpt>
<trkpt lat="45.8414780" lon="9.3037220">
	<ele>1067.00</ele>
	<time>2024-03-25T12:13:15.000Z</time>
</trkpt>
<trkpt lat="45.8414820" lon="9.3037410">
	<ele>1066.60</ele>
	<time>2024-03-25T12:13:16.000Z</time>
</trkpt>
<trkpt lat="45.8414840" lon="9.3037650">
	<ele>1066.60</ele>
	<time>2024-03-25T12:13:17.000Z</time>
</trkpt>
<trkpt lat="45.8414860" lon="9.3037820">
	<ele>1066.40</ele>
	<time>2024-03-25T12:13:18.000Z</time>
</trkpt>
<trkpt lat="45.8414890" lon="9.3037990">
	<ele>1066.20</ele>
	<time>2024-03-25T12:13:19.000Z</time>
</trkpt>
<trkpt lat="45.8414890" lon="9.3038150">
	<ele>1066.00</ele>
	<time>2024-03-25T12:13:20.000Z</time>
</trkpt>
<trkpt lat="45.8414890" lon="9.3038320">
	<ele>1065.80</ele>
	<time>2024-03-25T12:13:21.000Z</time>
</trkpt>
<trkpt lat="45.8414910" lon="9.3038370">
	<ele>1065.60</ele>
	<time>2024-03-25T12:13:22.000Z</time>
</trkpt>
<trkpt lat="45.8414950" lon="9.3038550">
	<ele>1065.40</ele>
	<time>2024-03-25T12:13:23.000Z</time>
</trkpt>
<trkpt lat="45.8415020" lon="9.3038670">
	<ele>1065.00</ele>
	<time>2024-03-25T12:13:24.000Z</time>
</trkpt>
<trkpt lat="45.8415050" lon="9.3038810">
	<ele>1064.60</ele>
	<time>2024-03-25T12:13:25.000Z</time>
</trkpt>
<trkpt lat="45.8415070" lon="9.3038940">
	<ele>1064.40</ele>
	<time>2024-03-25T12:13:26.000Z</time>
</trkpt>
<trkpt lat="45.8415020" lon="9.3039090">
	<ele>1064.20</ele>
	<time>2024-03-25T12:13:27.000Z</time>
</trkpt>
<trkpt lat="45.8414960" lon="9.3039250">
	<ele>1064.20</ele>
	<time>2024-03-25T12:13:28.000Z</time>
</trkpt>
<trkpt lat="45.8414930" lon="9.3039450">
	<ele>1064.00</ele>
	<time>2024-03-25T12:13:29.000Z</time>
</trkpt>
<trkpt lat="45.8414880" lon="9.3039650">
	<ele>1063.80</ele>
	<time>2024-03-25T12:13:30.000Z</time>
</trkpt>
<trkpt lat="45.8414860" lon="9.3039860">
	<ele>1063.80</ele>
	<time>2024-03-25T12:13:31.000Z</time>
</trkpt>
<trkpt lat="45.8414850" lon="9.3040070">
	<ele>1063.80</ele>
	<time>2024-03-25T12:13:32.000Z</time>
</trkpt>
<trkpt lat="45.8414870" lon="9.3040260">
	<ele>1063.60</ele>
	<time>2024-03-25T12:13:33.000Z</time>
</trkpt>
<trkpt lat="45.8414900" lon="9.3040410">
	<ele>1063.40</ele>
	<time>2024-03-25T12:13:34.000Z</time>
</trkpt>
<trkpt lat="45.8414910" lon="9.3040560">
	<ele>1063.40</ele>
	<time>2024-03-25T12:13:35.000Z</time>
</trkpt>
<trkpt lat="45.8414920" lon="9.3040680">
	<ele>1063.20</ele>
	<time>2024-03-25T12:13:36.000Z</time>
</trkpt>
<trkpt lat="45.8414930" lon="9.3040800">
	<ele>1063.20</ele>
	<time>2024-03-25T12:13:37.000Z</time>
</trkpt>
<trkpt lat="45.8414970" lon="9.3040900">
	<ele>1063.00</ele>
	<time>2024-03-25T12:13:38.000Z</time>
</trkpt>
<trkpt lat="45.8414970" lon="9.3040990">
	<ele>1063.00</ele>
	<time>2024-03-25T12:13:39.000Z</time>
</trkpt>
<trkpt lat="45.8414960" lon="9.3041080">
	<ele>1062.80</ele>
	<time>2024-03-25T12:13:40.000Z</time>
</trkpt>
<trkpt lat="45.8414940" lon="9.3041150">
	<ele>1062.60</ele>
	<time>2024-03-25T12:13:41.000Z</time>
</trkpt>
<trkpt lat="45.8414930" lon="9.3041160">
	<ele>1062.40</ele>
	<time>2024-03-25T12:13:42.000Z</time>
</trkpt>
<trkpt lat="45.8414970" lon="9.3041200">
	<ele>1062.00</ele>
	<time>2024-03-25T12:13:43.000Z</time>
</trkpt>
<trkpt lat="45.8414990" lon="9.3041220">
	<ele>1061.80</ele>
	<time>2024-03-25T12:13:44.000Z</time>
</trkpt>
<trkpt lat="45.8415020" lon="9.3041220">
	<ele>1061.80</ele>
	<time>2024-03-25T12:13:45.000Z</time>
</trkpt>
<trkpt lat="45.8415060" lon="9.3041250">
	<ele>1061.60</ele>
	<time>2024-03-25T12:13:46.000Z</time>
</trkpt>
<trkpt lat="45.8415110" lon="9.3041300">
	<ele>1061.40</ele>
	<time>2024-03-25T12:13:47.000Z</time>
</trkpt>
<trkpt lat="45.8415140" lon="9.3041460">
	<ele>1061.20</ele>
	<time>2024-03-25T12:13:48.000Z</time>
</trkpt>
<trkpt lat="45.8415190" lon="9.3041610">
	<ele>1061.00</ele>
	<time>2024-03-25T12:13:49.000Z</time>
</trkpt>
<trkpt lat="45.8415280" lon="9.3041810">
	<ele>1060.80</ele>
	<time>2024-03-25T12:13:50.000Z</time>
</trkpt>
<trkpt lat="45.8415350" lon="9.3042030">
	<ele>1060.40</ele>
	<time>2024-03-25T12:13:51.000Z</time>
</trkpt>
<trkpt lat="45.8415410" lon="9.3042270">
	<ele>1060.00</ele>
	<time>2024-03-25T12:13:52.000Z</time>
</trkpt>
<trkpt lat="45.8415420" lon="9.3042460">
	<ele>1059.60</ele>
	<time>2024-03-25T12:13:53.000Z</time>
</trkpt>
<trkpt lat="45.8415380" lon="9.3042650">
	<ele>1059.40</ele>
	<time>2024-03-25T12:13:54.000Z</time>
</trkpt>
<trkpt lat="45.8415340" lon="9.3042810">
	<ele>1059.20</ele>
	<time>2024-03-25T12:13:55.000Z</time>
</trkpt>
<trkpt lat="45.8415310" lon="9.3042900">
	<ele>1059.20</ele>
	<time>2024-03-25T12:13:56.000Z</time>
</trkpt>
<trkpt lat="45.8415250" lon="9.3043030">
	<ele>1059.00</ele>
	<time>2024-03-25T12:13:57.000Z</time>
</trkpt>
<trkpt lat="45.8415220" lon="9.3043190">
	<ele>1059.00</ele>
	<time>2024-03-25T12:13:58.000Z</time>
</trkpt>
<trkpt lat="45.8415210" lon="9.3043350">
	<ele>1059.00</ele>
	<time>2024-03-25T12:13:59.000Z</time>
</trkpt>
<trkpt lat="45.8415210" lon="9.3043500">
	<ele>1058.80</ele>
	<time>2024-03-25T12:14:00.000Z</time>
</trkpt>
<trkpt lat="45.8415230" lon="9.3043640">
	<ele>1058.80</ele>
	<time>2024-03-25T12:14:01.000Z</time>
</trkpt>
<trkpt lat="45.8415290" lon="9.3043750">
	<ele>1058.60</ele>
	<time>2024-03-25T12:14:02.000Z</time>
</trkpt>
<trkpt lat="45.8415320" lon="9.3043840">
	<ele>1058.40</ele>
	<time>2024-03-25T12:14:03.000Z</time>
</trkpt>
<trkpt lat="45.8415340" lon="9.3043900">
	<ele>1058.40</ele>
	<time>2024-03-25T12:14:04.000Z</time>
</trkpt>
<trkpt lat="45.8415350" lon="9.3044020">
	<ele>1058.40</ele>
	<time>2024-03-25T12:14:05.000Z</time>
</trkpt>
<trkpt lat="45.8415350" lon="9.3044190">
	<ele>1058.20</ele>
	<time>2024-03-25T12:14:06.000Z</time>
</trkpt>
<trkpt lat="45.8415340" lon="9.3044320">
	<ele>1058.20</ele>
	<time>2024-03-25T12:14:07.000Z</time>
</trkpt>
<trkpt lat="45.8415360" lon="9.3044420">
	<ele>1058.00</ele>
	<time>2024-03-25T12:14:08.000Z</time>
</trkpt>
<trkpt lat="45.8415340" lon="9.3044500">
	<ele>1058.00</ele>
	<time>2024-03-25T12:14:09.000Z</time>
</trkpt>
<trkpt lat="45.8415320" lon="9.3044550">
	<ele>1057.80</ele>
	<time>2024-03-25T12:14:10.000Z</time>
</trkpt>
<trkpt lat="45.8415280" lon="9.3044600">
	<ele>1057.60</ele>
	<time>2024-03-25T12:14:11.000Z</time>
</trkpt>
<trkpt lat="45.8415250" lon="9.3044670">
	<ele>1057.60</ele>
	<time>2024-03-25T12:14:12.000Z</time>
</trkpt>
<trkpt lat="45.8415230" lon="9.3044790">
	<ele>1057.40</ele>
	<time>2024-03-25T12:14:13.000Z</time>
</trkpt>
<trkpt lat="45.8415210" lon="9.3044930">
	<ele>1057.20</ele>
	<time>2024-03-25T12:14:14.000Z</time>
</trkpt>
<trkpt lat="45.8415220" lon="9.3045070">
	<ele>1057.00</ele>
	<time>2024-03-25T12:14:15.000Z</time>
</trkpt>
<trkpt lat="45.8415250" lon="9.3045220">
	<ele>1056.60</ele>
	<time>2024-03-25T12:14:16.000Z</time>
</trkpt>
<trkpt lat="45.8415260" lon="9.3045390">
	<ele>1056.20</ele>
	<time>2024-03-25T12:14:17.000Z</time>
</trkpt>
<trkpt lat="45.8415260" lon="9.3045570">
	<ele>1056.00</ele>
	<time>2024-03-25T12:14:18.000Z</time>
</trkpt>
<trkpt lat="45.8415260" lon="9.3045700">
	<ele>1055.80</ele>
	<time>2024-03-25T12:14:19.000Z</time>
</trkpt>
<trkpt lat="45.8415260" lon="9.3045760">
	<ele>1055.60</ele>
	<time>2024-03-25T12:14:20.000Z</time>
</trkpt>
<trkpt lat="45.8415260" lon="9.3045900">
	<ele>1055.40</ele>
	<time>2024-03-25T12:14:21.000Z</time>
</trkpt>
<trkpt lat="45.8415300" lon="9.3046020">
	<ele>1055.40</ele>
	<time>2024-03-25T12:14:22.000Z</time>
</trkpt>
<trkpt lat="45.8415340" lon="9.3046130">
	<ele>1055.00</ele>
	<time>2024-03-25T12:14:23.000Z</time>
</trkpt>
<trkpt lat="45.8415400" lon="9.3046230">
	<ele>1055.00</ele>
	<time>2024-03-25T12:14:24.000Z</time>
</trkpt>
<trkpt lat="45.8415410" lon="9.3046340">
	<ele>1054.80</ele>
	<time>2024-03-25T12:14:25.000Z</time>
</trkpt>
<trkpt lat="45.8415380" lon="9.3046490">
	<ele>1054.60</ele>
	<time>2024-03-25T12:14:26.000Z</time>
</trkpt>
<trkpt lat="45.8415340" lon="9.3046670">
	<ele>1054.20</ele>
	<time>2024-03-25T12:14:27.000Z</time>
</trkpt>
<trkpt lat="45.8415350" lon="9.3046810">
	<ele>1054.00</ele>
	<time>2024-03-25T12:14:28.000Z</time>
</trkpt>
<trkpt lat="45.8415370" lon="9.3047020">
	<ele>1053.80</ele>
	<time>2024-03-25T12:14:29.000Z</time>
</trkpt>
<trkpt lat="45.8415430" lon="9.3047300">
	<ele>1053.60</ele>
	<time>2024-03-25T12:14:30.000Z</time>
</trkpt>
<trkpt lat="45.8415450" lon="9.3047600">
	<ele>1053.60</ele>
	<time>2024-03-25T12:14:31.000Z</time>
</trkpt>
<trkpt lat="45.8415340" lon="9.3047890">
	<ele>1053.40</ele>
	<time>2024-03-25T12:14:32.000Z</time>
</trkpt>
<trkpt lat="45.8415300" lon="9.3048040">
	<ele>1053.40</ele>
	<time>2024-03-25T12:14:33.000Z</time>
</trkpt>
<trkpt lat="45.8415270" lon="9.3048200">
	<ele>1053.40</ele>
	<time>2024-03-25T12:14:34.000Z</time>
</trkpt>
<trkpt lat="45.8415240" lon="9.3048370">
	<ele>1053.40</ele>
	<time>2024-03-25T12:14:35.000Z</time>
</trkpt>
<trkpt lat="45.8415230" lon="9.3048470">
	<ele>1053.40</ele>
	<time>2024-03-25T12:14:36.000Z</time>
</trkpt>
<trkpt lat="45.8415230" lon="9.3048510">
	<ele>1053.40</ele>
	<time>2024-03-25T12:14:37.000Z</time>
</trkpt>
<trkpt lat="45.8415240" lon="9.3048640">
	<ele>1053.40</ele>
	<time>2024-03-25T12:14:38.000Z</time>
</trkpt>
<trkpt lat="45.8415290" lon="9.3048710">
	<ele>1053.40</ele>
	<time>2024-03-25T12:14:39.000Z</time>
</trkpt>
<trkpt lat="45.8415340" lon="9.3048720">
	<ele>1053.20</ele>
	<time>2024-03-25T12:14:40.000Z</time>
</trkpt>
<trkpt lat="45.8415380" lon="9.3048800">
	<ele>1053.00</ele>
	<time>2024-03-25T12:14:41.000Z</time>
</trkpt>
<trkpt lat="45.8415360" lon="9.3048960">
	<ele>1052.60</ele>
	<time>2024-03-25T12:14:42.000Z</time>
</trkpt>
<trkpt lat="45.8415310" lon="9.3049150">
	<ele>1052.60</ele>
	<time>2024-03-25T12:14:43.000Z</time>
</trkpt>
<trkpt lat="45.8415260" lon="9.3049340">
	<ele>1052.40</ele>
	<time>2024-03-25T12:14:44.000Z</time>
</trkpt>
<trkpt lat="45.8415220" lon="9.3049490">
	<ele>1052.20</ele>
	<time>2024-03-25T12:14:45.000Z</time>
</trkpt>
<trkpt lat="45.8415210" lon="9.3049560">
	<ele>1051.80</ele>
	<time>2024-03-25T12:14:46.000Z</time>
</trkpt>
<trkpt lat="45.8415160" lon="9.3049660">
	<ele>1051.80</ele>
	<time>2024-03-25T12:14:47.000Z</time>
</trkpt>
<trkpt lat="45.8415150" lon="9.3049780">
	<ele>1051.60</ele>
	<time>2024-03-25T12:14:48.000Z</time>
</trkpt>
<trkpt lat="45.8415150" lon="9.3049930">
	<ele>1051.40</ele>
	<time>2024-03-25T12:14:49.000Z</time>
</trkpt>
<trkpt lat="45.8415150" lon="9.3050090">
	<ele>1051.40</ele>
	<time>2024-03-25T12:14:50.000Z</time>
</trkpt>
<trkpt lat="45.8415140" lon="9.3050250">
	<ele>1051.20</ele>
	<time>2024-03-25T12:14:51.000Z</time>
</trkpt>
<trkpt lat="45.8415110" lon="9.3050420">
	<ele>1051.00</ele>
	<time>2024-03-25T12:14:52.000Z</time>
</trkpt>
<trkpt lat="45.8415060" lon="9.3050610">
	<ele>1051.00</ele>
	<time>2024-03-25T12:14:53.000Z</time>
</trkpt>
<trkpt lat="45.8415060" lon="9.3050780">
	<ele>1050.80</ele>
	<time>2024-03-25T12:14:54.000Z</time>
</trkpt>
<trkpt lat="45.8415080" lon="9.3050930">
	<ele>1050.60</ele>
	<time>2024-03-25T12:14:55.000Z</time>
</trkpt>
<trkpt lat="45.8415130" lon="9.3051100">
	<ele>1050.40</ele>
	<time>2024-03-25T12:14:56.000Z</time>
</trkpt>
<trkpt lat="45.8415180" lon="9.3051230">
	<ele>1050.00</ele>
	<time>2024-03-25T12:14:57.000Z</time>
</trkpt>
<trkpt lat="45.8415240" lon="9.3051320">
	<ele>1049.80</ele>
	<time>2024-03-25T12:14:58.000Z</time>
</trkpt>
<trkpt lat="45.8415260" lon="9.3051350">
	<ele>1049.80</ele>
	<time>2024-03-25T12:14:59.000Z</time>
</trkpt>
<trkpt lat="45.8415230" lon="9.3051460">
	<ele>1049.60</ele>
	<time>2024-03-25T12:15:00.000Z</time>
</trkpt>
<trkpt lat="45.8415250" lon="9.3051510">
	<ele>1049.60</ele>
	<time>2024-03-25T12:15:01.000Z</time>
</trkpt>
<trkpt lat="45.8415210" lon="9.3051530">
	<ele>1049.40</ele>
	<time>2024-03-25T12:15:02.000Z</time>
</trkpt>
<trkpt lat="45.8415220" lon="9.3051570">
	<ele>1049.40</ele>
	<time>2024-03-25T12:15:03.000Z</time>
</trkpt>
<trkpt lat="45.8415190" lon="9.3051580">
	<ele>1049.60</ele>
	<time>2024-03-25T12:15:04.000Z</time>
</trkpt>
<trkpt lat="45.8415150" lon="9.3051710">
	<ele>1049.60</ele>
	<time>2024-03-25T12:15:05.000Z</time>
</trkpt>
<trkpt lat="45.8415160" lon="9.3051720">
	<ele>1049.60</ele>
	<time>2024-03-25T12:15:06.000Z</time>
</trkpt>
<trkpt lat="45.8415150" lon="9.3051730">
	<ele>1049.60</ele>
	<time>2024-03-25T12:15:07.000Z</time>
</trkpt>
<trkpt lat="45.8415150" lon="9.3051710">
	<ele>1049.60</ele>
	<time>2024-03-25T12:15:08.000Z</time>
</trkpt>
<trkpt lat="45.8415180" lon="9.3051690">
	<ele>1049.80</ele>
	<time>2024-03-25T12:15:09.000Z</time>
</trkpt>
<trkpt lat="45.8415210" lon="9.3051700">
	<ele>1049.60</ele>
	<time>2024-03-25T12:15:10.000Z</time>
</trkpt>
<trkpt lat="45.8415240" lon="9.3051690">
	<ele>1049.60</ele>
	<time>2024-03-25T12:15:11.000Z</time>
</trkpt>
<trkpt lat="45.8415240" lon="9.3051710">
	<ele>1049.60</ele>
	<time>2024-03-25T12:15:12.000Z</time>
</trkpt>
<trkpt lat="45.8415280" lon="9.3051740">
	<ele>1049.40</ele>
	<time>2024-03-25T12:15:13.000Z</time>
</trkpt>
<trkpt lat="45.8415370" lon="9.3051740">
	<ele>1049.40</ele>
	<time>2024-03-25T12:15:14.000Z</time>
</trkpt>
<trkpt lat="45.8415450" lon="9.3051750">
	<ele>1049.40</ele>
	<time>2024-03-25T12:15:15.000Z</time>
</trkpt>
<trkpt lat="45.8415510" lon="9.3051710">
	<ele>1049.00</ele>
	<time>2024-03-25T12:15:16.000Z</time>
</trkpt>
<trkpt lat="45.8415590" lon="9.3051670">
	<ele>1048.40</ele>
	<time>2024-03-25T12:15:17.000Z</time>
</trkpt>
<trkpt lat="45.8415630" lon="9.3051570">
	<ele>1048.20</ele>
	<time>2024-03-25T12:15:18.000Z</time>
</trkpt>
<trkpt lat="45.8415620" lon="9.3051500">
	<ele>1048.00</ele>
	<time>2024-03-25T12:15:19.000Z</time>
</trkpt>
<trkpt lat="45.8415630" lon="9.3051460">
	<ele>1047.80</ele>
	<time>2024-03-25T12:15:20.000Z</time>
</trkpt>
<trkpt lat="45.8415650" lon="9.3051430">
	<ele>1047.60</ele>
	<time>2024-03-25T12:15:21.000Z</time>
</trkpt>
<trkpt lat="45.8415640" lon="9.3051390">
	<ele>1047.40</ele>
	<time>2024-03-25T12:15:22.000Z</time>
</trkpt>
<trkpt lat="45.8415660" lon="9.3051410">
	<ele>1047.20</ele>
	<time>2024-03-25T12:15:23.000Z</time>
</trkpt>
<trkpt lat="45.8415740" lon="9.3051440">
	<ele>1047.00</ele>
	<time>2024-03-25T12:15:24.000Z</time>
</trkpt>
<trkpt lat="45.8415760" lon="9.3051420">
	<ele>1047.00</ele>
	<time>2024-03-25T12:15:25.000Z</time>
</trkpt>
<trkpt lat="45.8415770" lon="9.3051370">
	<ele>1046.80</ele>
	<time>2024-03-25T12:15:26.000Z</time>
</trkpt>
<trkpt lat="45.8415820" lon="9.3051330">
	<ele>1046.40</ele>
	<time>2024-03-25T12:15:27.000Z</time>
</trkpt>
<trkpt lat="45.8415840" lon="9.3051320">
	<ele>1046.00</ele>
	<time>2024-03-25T12:15:28.000Z</time>
</trkpt>
<trkpt lat="45.8415870" lon="9.3051330">
	<ele>1045.80</ele>
	<time>2024-03-25T12:15:29.000Z</time>
</trkpt>
<trkpt lat="45.8415850" lon="9.3051320">
	<ele>1045.40</ele>
	<time>2024-03-25T12:15:30.000Z</time>
</trkpt>
<trkpt lat="45.8415850" lon="9.3051320">
	<ele>1045.20</ele>
	<time>2024-03-25T12:15:31.000Z</time>
</trkpt>
<trkpt lat="45.8415850" lon="9.3051320">
	<ele>1045.20</ele>
	<time>2024-03-25T12:15:32.000Z</time>
</trkpt>
<trkpt lat="45.8415850" lon="9.3051320">
	<ele>1045.00</ele>
	<time>2024-03-25T12:15:33.000Z</time>
</trkpt>
<trkpt lat="45.8415850" lon="9.3051320">
	<ele>1044.60</ele>
	<time>2024-03-25T12:15:34.000Z</time>
</trkpt>
<trkpt lat="45.8415850" lon="9.3051320">
	<ele>1044.40</ele>
	<time>2024-03-25T12:15:35.000Z</time>
</trkpt>
<trkpt lat="45.8415850" lon="9.3051320">
	<ele>1044.00</ele>
	<time>2024-03-25T12:15:36.000Z</time>
</trkpt>
<trkpt lat="45.8415850" lon="9.3051320">
	<ele>1043.80</ele>
	<time>2024-03-25T12:15:37.000Z</time>
</trkpt>
<trkpt lat="45.8415850" lon="9.3051320">
	<ele>1043.60</ele>
	<time>2024-03-25T12:15:38.000Z</time>
</trkpt>
<trkpt lat="45.8415850" lon="9.3051320">
	<ele>1043.20</ele>
	<time>2024-03-25T12:15:39.000Z</time>
</trkpt>
<trkpt lat="45.8415850" lon="9.3051320">
	<ele>1043.20</ele>
	<time>2024-03-25T12:15:40.000Z</time>
</trkpt>
<trkpt lat="45.8415850" lon="9.3051320">
	<ele>1043.00</ele>
	<time>2024-03-25T12:15:41.000Z</time>
</trkpt>
<trkpt lat="45.8415850" lon="9.3051320">
	<ele>1042.80</ele>
	<time>2024-03-25T12:15:42.000Z</time>
</trkpt>
<trkpt lat="45.8415850" lon="9.3051320">
	<ele>1042.40</ele>
	<time>2024-03-25T12:15:43.000Z</time>
</trkpt>
<trkpt lat="45.8415850" lon="9.3051320">
	<ele>1042.20</ele>
	<time>2024-03-25T12:15:44.000Z</time>
</trkpt>
<trkpt lat="45.8415870" lon="9.3051320">
	<ele>1042.00</ele>
	<time>2024-03-25T12:15:45.000Z</time>
</trkpt>
<trkpt lat="45.8415910" lon="9.3051320">
	<ele>1041.60</ele>
	<time>2024-03-25T12:15:46.000Z</time>
</trkpt>
<trkpt lat="45.8415960" lon="9.3051300">
	<ele>1041.20</ele>
	<time>2024-03-25T12:15:47.000Z</time>
</trkpt>
<trkpt lat="45.8416050" lon="9.3051290">
	<ele>1041.00</ele>
	<time>2024-03-25T12:15:48.000Z</time>
</trkpt>
<trkpt lat="45.8416070" lon="9.3051280">
	<ele>1041.00</ele>
	<time>2024-03-25T12:15:49.000Z</time>
</trkpt>
<trkpt lat="45.8416080" lon="9.3051270">
	<ele>1040.80</ele>
	<time>2024-03-25T12:15:50.000Z</time>
</trkpt>
<trkpt lat="45.8416110" lon="9.3051230">
	<ele>1040.60</ele>
	<time>2024-03-25T12:15:51.000Z</time>
</trkpt>
<trkpt lat="45.8416140" lon="9.3051220">
	<ele>1040.40</ele>
	<time>2024-03-25T12:15:52.000Z</time>
</trkpt>
<trkpt lat="45.8416140" lon="9.3051180">
	<ele>1040.20</ele>
	<time>2024-03-25T12:15:53.000Z</time>
</trkpt>
<trkpt lat="45.8416180" lon="9.3051170">
	<ele>1039.80</ele>
	<time>2024-03-25T12:15:54.000Z</time>
</trkpt>
<trkpt lat="45.8416210" lon="9.3051100">
	<ele>1039.60</ele>
	<time>2024-03-25T12:15:55.000Z</time>
</trkpt>
<trkpt lat="45.8416220" lon="9.3051040">
	<ele>1039.40</ele>
	<time>2024-03-25T12:15:56.000Z</time>
</trkpt>
<trkpt lat="45.8416260" lon="9.3051040">
	<ele>1039.20</ele>
	<time>2024-03-25T12:15:57.000Z</time>
</trkpt>
<trkpt lat="45.8416330" lon="9.3051030">
	<ele>1039.00</ele>
	<time>2024-03-25T12:15:58.000Z</time>
</trkpt>
<trkpt lat="45.8416370" lon="9.3051030">
	<ele>1038.80</ele>
	<time>2024-03-25T12:15:59.000Z</time>
</trkpt>
<trkpt lat="45.8416440" lon="9.3051030">
	<ele>1038.40</ele>
	<time>2024-03-25T12:16:00.000Z</time>
</trkpt>
<trkpt lat="45.8416510" lon="9.3051030">
	<ele>1038.20</ele>
	<time>2024-03-25T12:16:01.000Z</time>
</trkpt>
<trkpt lat="45.8416550" lon="9.3051030">
	<ele>1038.00</ele>
	<time>2024-03-25T12:16:02.000Z</time>
</trkpt>
<trkpt lat="45.8416630" lon="9.3051030">
	<ele>1038.00</ele>
	<time>2024-03-25T12:16:03.000Z</time>
</trkpt>
<trkpt lat="45.8416730" lon="9.3051030">
	<ele>1038.00</ele>
	<time>2024-03-25T12:16:04.000Z</time>
</trkpt>
<trkpt lat="45.8416800" lon="9.3051030">
	<ele>1038.00</ele>
	<time>2024-03-25T12:16:05.000Z</time>
</trkpt>
<trkpt lat="45.8416850" lon="9.3051030">
	<ele>1038.00</ele>
	<time>2024-03-25T12:16:06.000Z</time>
</trkpt>
<trkpt lat="45.8416870" lon="9.3051030">
	<ele>1038.00</ele>
	<time>2024-03-25T12:16:07.000Z</time>
</trkpt>
<trkpt lat="45.8416900" lon="9.3051030">
	<ele>1038.20</ele>
	<time>2024-03-25T12:16:08.000Z</time>
</trkpt>
<trkpt lat="45.8416910" lon="9.3051030">
	<ele>1038.40</ele>
	<time>2024-03-25T12:16:09.000Z</time>
</trkpt>
<trkpt lat="45.8416920" lon="9.3051030">
	<ele>1038.40</ele>
	<time>2024-03-25T12:16:10.000Z</time>
</trkpt>
<trkpt lat="45.8416920" lon="9.3051070">
	<ele>1038.40</ele>
	<time>2024-03-25T12:16:11.000Z</time>
</trkpt>
<trkpt lat="45.8416940" lon="9.3051170">
	<ele>1038.40</ele>
	<time>2024-03-25T12:16:12.000Z</time>
</trkpt>
<trkpt lat="45.8416940" lon="9.3051220">
	<ele>1038.40</ele>
	<time>2024-03-25T12:16:13.000Z</time>
</trkpt>
<trkpt lat="45.8416980" lon="9.3051290">
	<ele>1038.20</ele>
	<time>2024-03-25T12:16:14.000Z</time>
</trkpt>
<trkpt lat="45.8417030" lon="9.3051350">
	<ele>1038.20</ele>
	<time>2024-03-25T12:16:15.000Z</time>
</trkpt>
<trkpt lat="45.8417060" lon="9.3051370">
	<ele>1038.00</ele>
	<time>2024-03-25T12:16:16.000Z</time>
</trkpt>
<trkpt lat="45.8417160" lon="9.3051370">
	<ele>1037.80</ele>
	<time>2024-03-25T12:16:17.000Z</time>
</trkpt>
<trkpt lat="45.8417290" lon="9.3051310">
	<ele>1037.40</ele>
	<time>2024-03-25T12:16:18.000Z</time>
</trkpt>
<trkpt lat="45.8417420" lon="9.3051230">
	<ele>1037.20</ele>
	<time>2024-03-25T12:16:19.000Z</time>
</trkpt>
<trkpt lat="45.8417540" lon="9.3051110">
	<ele>1037.20</ele>
	<time>2024-03-25T12:16:20.000Z</time>
</trkpt>
<trkpt lat="45.8417590" lon="9.3051110">
	<ele>1037.20</ele>
	<time>2024-03-25T12:16:21.000Z</time>
</trkpt>
<trkpt lat="45.8417640" lon="9.3051110">
	<ele>1037.20</ele>
	<time>2024-03-25T12:16:22.000Z</time>
</trkpt>
<trkpt lat="45.8417680" lon="9.3051130">
	<ele>1037.00</ele>
	<time>2024-03-25T12:16:23.000Z</time>
</trkpt>
<trkpt lat="45.8417680" lon="9.3051160">
	<ele>1037.00</ele>
	<time>2024-03-25T12:16:24.000Z</time>
</trkpt>
<trkpt lat="45.8417720" lon="9.3051170">
	<ele>1037.00</ele>
	<time>2024-03-25T12:16:25.000Z</time>
</trkpt>
<trkpt lat="45.8417740" lon="9.3051180">
	<ele>1037.00</ele>
	<time>2024-03-25T12:16:26.000Z</time>
</trkpt>
<trkpt lat="45.8417730" lon="9.3051160">
	<ele>1037.00</ele>
	<time>2024-03-25T12:16:27.000Z</time>
</trkpt>
<trkpt lat="45.8417730" lon="9.3051170">
	<ele>1037.00</ele>
	<time>2024-03-25T12:16:28.000Z</time>
</trkpt>
<trkpt lat="45.8417720" lon="9.3051170">
	<ele>1037.00</ele>
	<time>2024-03-25T12:16:29.000Z</time>
</trkpt>
<trkpt lat="45.8417710" lon="9.3051180">
	<ele>1037.00</ele>
	<time>2024-03-25T12:16:30.000Z</time>
</trkpt>
<trkpt lat="45.8417710" lon="9.3051170">
	<ele>1037.00</ele>
	<time>2024-03-25T12:16:31.000Z</time>
</trkpt>
<trkpt lat="45.8417750" lon="9.3051120">
	<ele>1037.00</ele>
	<time>2024-03-25T12:16:32.000Z</time>
</trkpt>
<trkpt lat="45.8417850" lon="9.3051030">
	<ele>1037.00</ele>
	<time>2024-03-25T12:16:33.000Z</time>
</trkpt>
<trkpt lat="45.8417940" lon="9.3050960">
	<ele>1037.00</ele>
	<time>2024-03-25T12:16:34.000Z</time>
</trkpt>
<trkpt lat="45.8418010" lon="9.3050810">
	<ele>1037.00</ele>
	<time>2024-03-25T12:16:35.000Z</time>
</trkpt>
<trkpt lat="45.8418090" lon="9.3050620">
	<ele>1036.80</ele>
	<time>2024-03-25T12:16:36.000Z</time>
</trkpt>
<trkpt lat="45.8418170" lon="9.3050490">
	<ele>1036.80</ele>
	<time>2024-03-25T12:16:37.000Z</time>
</trkpt>
<trkpt lat="45.8418220" lon="9.3050350">
	<ele>1036.60</ele>
	<time>2024-03-25T12:16:38.000Z</time>
</trkpt>
<trkpt lat="45.8418250" lon="9.3050220">
	<ele>1036.60</ele>
	<time>2024-03-25T12:16:39.000Z</time>
</trkpt>
<trkpt lat="45.8418280" lon="9.3050120">
	<ele>1036.60</ele>
	<time>2024-03-25T12:16:40.000Z</time>
</trkpt>
<trkpt lat="45.8418300" lon="9.3050000">
	<ele>1036.60</ele>
	<time>2024-03-25T12:16:41.000Z</time>
</trkpt>
<trkpt lat="45.8418300" lon="9.3049880">
	<ele>1036.40</ele>
	<time>2024-03-25T12:16:42.000Z</time>
</trkpt>
<trkpt lat="45.8418320" lon="9.3049730">
	<ele>1036.00</ele>
	<time>2024-03-25T12:16:43.000Z</time>
</trkpt>
<trkpt lat="45.8418340" lon="9.3049610">
	<ele>1035.80</ele>
	<time>2024-03-25T12:16:44.000Z</time>
</trkpt>
<trkpt lat="45.8418410" lon="9.3049510">
	<ele>1035.60</ele>
	<time>2024-03-25T12:16:45.000Z</time>
</trkpt>
<trkpt lat="45.8418500" lon="9.3049430">
	<ele>1035.40</ele>
	<time>2024-03-25T12:16:46.000Z</time>
</trkpt>
<trkpt lat="45.8418590" lon="9.3049360">
	<ele>1035.40</ele>
	<time>2024-03-25T12:16:47.000Z</time>
</trkpt>
<trkpt lat="45.8418700" lon="9.3049290">
	<ele>1035.00</ele>
	<time>2024-03-25T12:16:48.000Z</time>
</trkpt>
<trkpt lat="45.8418790" lon="9.3049190">
	<ele>1035.00</ele>
	<time>2024-03-25T12:16:49.000Z</time>
</trkpt>
<trkpt lat="45.8418850" lon="9.3049090">
	<ele>1034.60</ele>
	<time>2024-03-25T12:16:50.000Z</time>
</trkpt>
<trkpt lat="45.8418890" lon="9.3048980">
	<ele>1034.60</ele>
	<time>2024-03-25T12:16:51.000Z</time>
</trkpt>
<trkpt lat="45.8418940" lon="9.3048870">
	<ele>1034.40</ele>
	<time>2024-03-25T12:16:52.000Z</time>
</trkpt>
<trkpt lat="45.8418980" lon="9.3048780">
	<ele>1034.20</ele>
	<time>2024-03-25T12:16:53.000Z</time>
</trkpt>
<trkpt lat="45.8419030" lon="9.3048680">
	<ele>1034.00</ele>
	<time>2024-03-25T12:16:54.000Z</time>
</trkpt>
<trkpt lat="45.8419070" lon="9.3048540">
	<ele>1034.00</ele>
	<time>2024-03-25T12:16:55.000Z</time>
</trkpt>
<trkpt lat="45.8419100" lon="9.3048440">
	<ele>1033.60</ele>
	<time>2024-03-25T12:16:56.000Z</time>
</trkpt>
<trkpt lat="45.8419100" lon="9.3048400">
	<ele>1033.40</ele>
	<time>2024-03-25T12:16:57.000Z</time>
</trkpt>
<trkpt lat="45.8419120" lon="9.3048340">
	<ele>1033.20</ele>
	<time>2024-03-25T12:16:58.000Z</time>
</trkpt>
<trkpt lat="45.8419170" lon="9.3048280">
	<ele>1033.00</ele>
	<time>2024-03-25T12:16:59.000Z</time>
</trkpt>
<trkpt lat="45.8419230" lon="9.3048230">
	<ele>1032.60</ele>
	<time>2024-03-25T12:17:00.000Z</time>
</trkpt>
<trkpt lat="45.8419290" lon="9.3048170">
	<ele>1032.20</ele>
	<time>2024-03-25T12:17:01.000Z</time>
</trkpt>
<trkpt lat="45.8419340" lon="9.3048110">
	<ele>1031.80</ele>
	<time>2024-03-25T12:17:02.000Z</time>
</trkpt>
<trkpt lat="45.8419470" lon="9.3048010">
	<ele>1031.60</ele>
	<time>2024-03-25T12:17:03.000Z</time>
</trkpt>
<trkpt lat="45.8419640" lon="9.3047950">
	<ele>1031.20</ele>
	<time>2024-03-25T12:17:04.000Z</time>
</trkpt>
<trkpt lat="45.8419770" lon="9.3047890">
	<ele>1031.00</ele>
	<time>2024-03-25T12:17:05.000Z</time>
</trkpt>
<trkpt lat="45.8419840" lon="9.3047770">
	<ele>1030.60</ele>
	<time>2024-03-25T12:17:06.000Z</time>
</trkpt>
<trkpt lat="45.8419910" lon="9.3047600">
	<ele>1030.40</ele>
	<time>2024-03-25T12:17:07.000Z</time>
</trkpt>
<trkpt lat="45.8419990" lon="9.3047450">
	<ele>1030.00</ele>
	<time>2024-03-25T12:17:08.000Z</time>
</trkpt>
<trkpt lat="45.8420020" lon="9.3047400">
	<ele>1029.60</ele>
	<time>2024-03-25T12:17:09.000Z</time>
</trkpt>
<trkpt lat="45.8420070" lon="9.3047360">
	<ele>1029.20</ele>
	<time>2024-03-25T12:17:10.000Z</time>
</trkpt>
<trkpt lat="45.8420160" lon="9.3047280">
	<ele>1028.80</ele>
	<time>2024-03-25T12:17:11.000Z</time>
</trkpt>
<trkpt lat="45.8420250" lon="9.3047190">
	<ele>1028.60</ele>
	<time>2024-03-25T12:17:12.000Z</time>
</trkpt>
<trkpt lat="45.8420370" lon="9.3047090">
	<ele>1028.20</ele>
	<time>2024-03-25T12:17:13.000Z</time>
</trkpt>
<trkpt lat="45.8420500" lon="9.3046960">
	<ele>1027.80</ele>
	<time>2024-03-25T12:17:14.000Z</time>
</trkpt>
<trkpt lat="45.8420590" lon="9.3046850">
	<ele>1027.60</ele>
	<time>2024-03-25T12:17:15.000Z</time>
</trkpt>
<trkpt lat="45.8420660" lon="9.3046750">
	<ele>1027.40</ele>
	<time>2024-03-25T12:17:16.000Z</time>
</trkpt>
<trkpt lat="45.8420740" lon="9.3046700">
	<ele>1027.20</ele>
	<time>2024-03-25T12:17:17.000Z</time>
</trkpt>
<trkpt lat="45.8420800" lon="9.3046640">
	<ele>1026.80</ele>
	<time>2024-03-25T12:17:18.000Z</time>
</trkpt>
<trkpt lat="45.8420940" lon="9.3046600">
	<ele>1026.60</ele>
	<time>2024-03-25T12:17:19.000Z</time>
</trkpt>
<trkpt lat="45.8421050" lon="9.3046570">
	<ele>1026.20</ele>
	<time>2024-03-25T12:17:20.000Z</time>
</trkpt>
<trkpt lat="45.8421120" lon="9.3046460">
	<ele>1026.00</ele>
	<time>2024-03-25T12:17:21.000Z</time>
</trkpt>
<trkpt lat="45.8421170" lon="9.3046320">
	<ele>1025.80</ele>
	<time>2024-03-25T12:17:22.000Z</time>
</trkpt>
<trkpt lat="45.8421220" lon="9.3046230">
	<ele>1025.40</ele>
	<time>2024-03-25T12:17:23.000Z</time>
</trkpt>
<trkpt lat="45.8421310" lon="9.3046120">
	<ele>1025.20</ele>
	<time>2024-03-25T12:17:24.000Z</time>
</trkpt>
<trkpt lat="45.8421370" lon="9.3045970">
	<ele>1025.00</ele>
	<time>2024-03-25T12:17:25.000Z</time>
</trkpt>
<trkpt lat="45.8421410" lon="9.3045770">
	<ele>1024.60</ele>
	<time>2024-03-25T12:17:26.000Z</time>
</trkpt>
<trkpt lat="45.8421460" lon="9.3045630">
	<ele>1024.40</ele>
	<time>2024-03-25T12:17:27.000Z</time>
</trkpt>
<trkpt lat="45.8421570" lon="9.3045490">
	<ele>1024.20</ele>
	<time>2024-03-25T12:17:28.000Z</time>
</trkpt>
<trkpt lat="45.8421680" lon="9.3045330">
	<ele>1023.80</ele>
	<time>2024-03-25T12:17:29.000Z</time>
</trkpt>
<trkpt lat="45.8421790" lon="9.3045180">
	<ele>1023.60</ele>
	<time>2024-03-25T12:17:30.000Z</time>
</trkpt>
<trkpt lat="45.8421840" lon="9.3045100">
	<ele>1023.40</ele>
	<time>2024-03-25T12:17:31.000Z</time>
</trkpt>
<trkpt lat="45.8421870" lon="9.3045060">
	<ele>1023.40</ele>
	<time>2024-03-25T12:17:32.000Z</time>
</trkpt>
<trkpt lat="45.8421900" lon="9.3045050">
	<ele>1023.20</ele>
	<time>2024-03-25T12:17:33.000Z</time>
</trkpt>
<trkpt lat="45.8421990" lon="9.3045100">
	<ele>1023.00</ele>
	<time>2024-03-25T12:17:34.000Z</time>
</trkpt>
<trkpt lat="45.8422080" lon="9.3045150">
	<ele>1023.00</ele>
	<time>2024-03-25T12:17:35.000Z</time>
</trkpt>
<trkpt lat="45.8422120" lon="9.3045150">
	<ele>1022.60</ele>
	<time>2024-03-25T12:17:36.000Z</time>
</trkpt>
<trkpt lat="45.8422220" lon="9.3045030">
	<ele>1022.20</ele>
	<time>2024-03-25T12:17:37.000Z</time>
</trkpt>
<trkpt lat="45.8422350" lon="9.3044880">
	<ele>1021.80</ele>
	<time>2024-03-25T12:17:38.000Z</time>
</trkpt>
<trkpt lat="45.8422460" lon="9.3044850">
	<ele>1021.60</ele>
	<time>2024-03-25T12:17:39.000Z</time>
</trkpt>
<trkpt lat="45.8422540" lon="9.3044800">
	<ele>1021.20</ele>
	<time>2024-03-25T12:17:40.000Z</time>
</trkpt>
<trkpt lat="45.8422590" lon="9.3044770">
	<ele>1020.80</ele>
	<time>2024-03-25T12:17:41.000Z</time>
</trkpt>
<trkpt lat="45.8422610" lon="9.3044740">
	<ele>1020.60</ele>
	<time>2024-03-25T12:17:42.000Z</time>
</trkpt>
<trkpt lat="45.8422630" lon="9.3044720">
	<ele>1020.40</ele>
	<time>2024-03-25T12:17:43.000Z</time>
</trkpt>
<trkpt lat="45.8422710" lon="9.3044580">
	<ele>1020.00</ele>
	<time>2024-03-25T12:17:44.000Z</time>
</trkpt>
<trkpt lat="45.8422770" lon="9.3044470">
	<ele>1020.00</ele>
	<time>2024-03-25T12:17:45.000Z</time>
</trkpt>
<trkpt lat="45.8422750" lon="9.3044340">
	<ele>1019.60</ele>
	<time>2024-03-25T12:17:46.000Z</time>
</trkpt>
<trkpt lat="45.8422790" lon="9.3044200">
	<ele>1019.20</ele>
	<time>2024-03-25T12:17:47.000Z</time>
</trkpt>
<trkpt lat="45.8422820" lon="9.3044100">
	<ele>1018.80</ele>
	<time>2024-03-25T12:17:48.000Z</time>
</trkpt>
<trkpt lat="45.8422890" lon="9.3044020">
	<ele>1018.60</ele>
	<time>2024-03-25T12:17:49.000Z</time>
</trkpt>
<trkpt lat="45.8422930" lon="9.3043990">
	<ele>1018.40</ele>
	<time>2024-03-25T12:17:50.000Z</time>
</trkpt>
<trkpt lat="45.8423050" lon="9.3043740">
	<ele>1018.20</ele>
	<time>2024-03-25T12:17:51.000Z</time>
</trkpt>
<trkpt lat="45.8423200" lon="9.3043690">
	<ele>1017.80</ele>
	<time>2024-03-25T12:17:52.000Z</time>
</trkpt>
<trkpt lat="45.8423220" lon="9.3043470">
	<ele>1017.60</ele>
	<time>2024-03-25T12:17:53.000Z</time>
</trkpt>
<trkpt lat="45.8423300" lon="9.3043210">
	<ele>1017.40</ele>
	<time>2024-03-25T12:17:54.000Z</time>
</trkpt>
<trkpt lat="45.8423350" lon="9.3043020">
	<ele>1017.20</ele>
	<time>2024-03-25T12:17:55.000Z</time>
</trkpt>
<trkpt lat="45.8423380" lon="9.3042900">
	<ele>1017.00</ele>
	<time>2024-03-25T12:17:56.000Z</time>
</trkpt>
<trkpt lat="45.8423400" lon="9.3042840">
	<ele>1017.00</ele>
	<time>2024-03-25T12:17:57.000Z</time>
</trkpt>
<trkpt lat="45.8423420" lon="9.3042860">
	<ele>1016.80</ele>
	<time>2024-03-25T12:17:58.000Z</time>
</trkpt>
<trkpt lat="45.8423440" lon="9.3042860">
	<ele>1016.60</ele>
	<time>2024-03-25T12:17:59.000Z</time>
</trkpt>
<trkpt lat="45.8423470" lon="9.3042840">
	<ele>1016.40</ele>
	<time>2024-03-25T12:18:00.000Z</time>
</trkpt>
<trkpt lat="45.8423490" lon="9.3042790">
	<ele>1016.00</ele>
	<time>2024-03-25T12:18:01.000Z</time>
</trkpt>
<trkpt lat="45.8423500" lon="9.3042810">
	<ele>1015.80</ele>
	<time>2024-03-25T12:18:02.000Z</time>
</trkpt>
<trkpt lat="45.8423520" lon="9.3042880">
	<ele>1015.60</ele>
	<time>2024-03-25T12:18:03.000Z</time>
</trkpt>
<trkpt lat="45.8423570" lon="9.3042980">
	<ele>1015.40</ele>
	<time>2024-03-25T12:18:04.000Z</time>
</trkpt>
<trkpt lat="45.8423630" lon="9.3043090">
	<ele>1015.20</ele>
	<time>2024-03-25T12:18:05.000Z</time>
</trkpt>
<trkpt lat="45.8423660" lon="9.3043090">
	<ele>1015.00</ele>
	<time>2024-03-25T12:18:06.000Z</time>
</trkpt>
<trkpt lat="45.8423690" lon="9.3043070">
	<ele>1014.80</ele>
	<time>2024-03-25T12:18:07.000Z</time>
</trkpt>
<trkpt lat="45.8423720" lon="9.3043040">
	<ele>1014.60</ele>
	<time>2024-03-25T12:18:08.000Z</time>
</trkpt>
<trkpt lat="45.8423750" lon="9.3043010">
	<ele>1014.20</ele>
	<time>2024-03-25T12:18:09.000Z</time>
</trkpt>
<trkpt lat="45.8423750" lon="9.3042970">
	<ele>1014.00</ele>
	<time>2024-03-25T12:18:10.000Z</time>
</trkpt>
<trkpt lat="45.8423770" lon="9.3042830">
	<ele>1013.80</ele>
	<time>2024-03-25T12:18:11.000Z</time>
</trkpt>
<trkpt lat="45.8423780" lon="9.3042780">
	<ele>1013.60</ele>
	<time>2024-03-25T12:18:12.000Z</time>
</trkpt>
<trkpt lat="45.8423830" lon="9.3042720">
	<ele>1013.40</ele>
	<time>2024-03-25T12:18:13.000Z</time>
</trkpt>
<trkpt lat="45.8423900" lon="9.3042720">
	<ele>1013.20</ele>
	<time>2024-03-25T12:18:14.000Z</time>
</trkpt>
<trkpt lat="45.8423910" lon="9.3042830">
	<ele>1013.00</ele>
	<time>2024-03-25T12:18:15.000Z</time>
</trkpt>
<trkpt lat="45.8423890" lon="9.3042960">
	<ele>1012.80</ele>
	<time>2024-03-25T12:18:16.000Z</time>
</trkpt>
<trkpt lat="45.8423900" lon="9.3043020">
	<ele>1012.40</ele>
	<time>2024-03-25T12:18:17.000Z</time>
</trkpt>
<trkpt lat="45.8423950" lon="9.3043010">
	<ele>1012.20</ele>
	<time>2024-03-25T12:18:18.000Z</time>
</trkpt>
<trkpt lat="45.8423990" lon="9.3042950">
	<ele>1011.80</ele>
	<time>2024-03-25T12:18:19.000Z</time>
</trkpt>
<trkpt lat="45.8424020" lon="9.3042880">
	<ele>1011.60</ele>
	<time>2024-03-25T12:18:20.000Z</time>
</trkpt>
<trkpt lat="45.8424020" lon="9.3042840">
	<ele>1011.40</ele>
	<time>2024-03-25T12:18:21.000Z</time>
</trkpt>
<trkpt lat="45.8424010" lon="9.3042830">
	<ele>1011.20</ele>
	<time>2024-03-25T12:18:22.000Z</time>
</trkpt>
<trkpt lat="45.8424040" lon="9.3042790">
	<ele>1011.00</ele>
	<time>2024-03-25T12:18:23.000Z</time>
</trkpt>
<trkpt lat="45.8424060" lon="9.3042790">
	<ele>1010.80</ele>
	<time>2024-03-25T12:18:24.000Z</time>
</trkpt>
<trkpt lat="45.8424110" lon="9.3042800">
	<ele>1010.40</ele>
	<time>2024-03-25T12:18:25.000Z</time>
</trkpt>
<trkpt lat="45.8424210" lon="9.3042860">
	<ele>1010.20</ele>
	<time>2024-03-25T12:18:26.000Z</time>
</trkpt>
<trkpt lat="45.8424250" lon="9.3042890">
	<ele>1009.80</ele>
	<time>2024-03-25T12:18:27.000Z</time>
</trkpt>
<trkpt lat="45.8424310" lon="9.3042910">
	<ele>1009.40</ele>
	<time>2024-03-25T12:18:28.000Z</time>
</trkpt>
<trkpt lat="45.8424390" lon="9.3042920">
	<ele>1009.20</ele>
	<time>2024-03-25T12:18:29.000Z</time>
</trkpt>
<trkpt lat="45.8424390" lon="9.3042880">
	<ele>1008.80</ele>
	<time>2024-03-25T12:18:30.000Z</time>
</trkpt>
<trkpt lat="45.8424450" lon="9.3042860">
	<ele>1008.60</ele>
	<time>2024-03-25T12:18:31.000Z</time>
</trkpt>
<trkpt lat="45.8424530" lon="9.3042830">
	<ele>1008.20</ele>
	<time>2024-03-25T12:18:32.000Z</time>
</trkpt>
<trkpt lat="45.8424670" lon="9.3042760">
	<ele>1007.80</ele>
	<time>2024-03-25T12:18:33.000Z</time>
</trkpt>
<trkpt lat="45.8424730" lon="9.3042660">
	<ele>1007.60</ele>
	<time>2024-03-25T12:18:34.000Z</time>
</trkpt>
<trkpt lat="45.8424750" lon="9.3042570">
	<ele>1007.60</ele>
	<time>2024-03-25T12:18:35.000Z</time>
</trkpt>
<trkpt lat="45.8424740" lon="9.3042520">
	<ele>1007.20</ele>
	<time>2024-03-25T12:18:36.000Z</time>
</trkpt>
<trkpt lat="45.8424760" lon="9.3042430">
	<ele>1007.00</ele>
	<time>2024-03-25T12:18:37.000Z</time>
</trkpt>
<trkpt lat="45.8424760" lon="9.3042340">
	<ele>1006.60</ele>
	<time>2024-03-25T12:18:38.000Z</time>
</trkpt>
<trkpt lat="45.8424720" lon="9.3042290">
	<ele>1006.20</ele>
	<time>2024-03-25T12:18:39.000Z</time>
</trkpt>
<trkpt lat="45.8424710" lon="9.3042190">
	<ele>1006.00</ele>
	<time>2024-03-25T12:18:40.000Z</time>
</trkpt>
<trkpt lat="45.8424730" lon="9.3042060">
	<ele>1005.80</ele>
	<time>2024-03-25T12:18:41.000Z</time>
</trkpt>
<trkpt lat="45.8424760" lon="9.3041950">
	<ele>1005.60</ele>
	<time>2024-03-25T12:18:42.000Z</time>
</trkpt>
<trkpt lat="45.8424780" lon="9.3041830">
	<ele>1005.40</ele>
	<time>2024-03-25T12:18:43.000Z</time>
</trkpt>
<trkpt lat="45.8424760" lon="9.3041750">
	<ele>1005.20</ele>
	<time>2024-03-25T12:18:44.000Z</time>
</trkpt>
<trkpt lat="45.8424720" lon="9.3041630">
	<ele>1004.80</ele>
	<time>2024-03-25T12:18:45.000Z</time>
</trkpt>
<trkpt lat="45.8424750" lon="9.3041440">
	<ele>1004.80</ele>
	<time>2024-03-25T12:18:46.000Z</time>
</trkpt>
<trkpt lat="45.8424780" lon="9.3041290">
	<ele>1004.60</ele>
	<time>2024-03-25T12:18:47.000Z</time>
</trkpt>
<trkpt lat="45.8424860" lon="9.3041080">
	<ele>1004.40</ele>
	<time>2024-03-25T12:18:48.000Z</time>
</trkpt>
<trkpt lat="45.8424870" lon="9.3041010">
	<ele>1004.00</ele>
	<time>2024-03-25T12:18:49.000Z</time>
</trkpt>
<trkpt lat="45.8424890" lon="9.3041040">
	<ele>1004.00</ele>
	<time>2024-03-25T12:18:50.000Z</time>
</trkpt>
<trkpt lat="45.8424940" lon="9.3041130">
	<ele>1003.80</ele>
	<time>2024-03-25T12:18:51.000Z</time>
</trkpt>
<trkpt lat="45.8425030" lon="9.3041140">
	<ele>1003.60</ele>
	<time>2024-03-25T12:18:52.000Z</time>
</trkpt>
<trkpt lat="45.8425140" lon="9.3041130">
	<ele>1003.40</ele>
	<time>2024-03-25T12:18:53.000Z</time>
</trkpt>
<trkpt lat="45.8425280" lon="9.3041100">
	<ele>1003.00</ele>
	<time>2024-03-25T12:18:54.000Z</time>
</trkpt>
<trkpt lat="45.8425430" lon="9.3041060">
	<ele>1002.80</ele>
	<time>2024-03-25T12:18:55.000Z</time>
</trkpt>
<trkpt lat="45.8425580" lon="9.3040960">
	<ele>1002.60</ele>
	<time>2024-03-25T12:18:56.000Z</time>
</trkpt>
<trkpt lat="45.8425630" lon="9.3040890">
	<ele>1002.20</ele>
	<time>2024-03-25T12:18:57.000Z</time>
</trkpt>
<trkpt lat="45.8425660" lon="9.3040850">
	<ele>1002.00</ele>
	<time>2024-03-25T12:18:58.000Z</time>
</trkpt>
<trkpt lat="45.8425700" lon="9.3040810">
	<ele>1001.60</ele>
	<time>2024-03-25T12:18:59.000Z</time>
</trkpt>
<trkpt lat="45.8425760" lon="9.3040840">
	<ele>1001.40</ele>
	<time>2024-03-25T12:19:00.000Z</time>
</trkpt>
<trkpt lat="45.8425830" lon="9.3040820">
	<ele>1001.20</ele>
	<time>2024-03-25T12:19:01.000Z</time>
</trkpt>
<trkpt lat="45.8425870" lon="9.3040690">
	<ele>1001.00</ele>
	<time>2024-03-25T12:19:02.000Z</time>
</trkpt>
<trkpt lat="45.8425900" lon="9.3040550">
	<ele>1000.80</ele>
	<time>2024-03-25T12:19:03.000Z</time>
</trkpt>
<trkpt lat="45.8425860" lon="9.3040540">
	<ele>1000.60</ele>
	<time>2024-03-25T12:19:04.000Z</time>
</trkpt>
<trkpt lat="45.8425840" lon="9.3040540">
	<ele>1000.60</ele>
	<time>2024-03-25T12:19:05.000Z</time>
</trkpt>
<trkpt lat="45.8425840" lon="9.3040560">
	<ele>1000.40</ele>
	<time>2024-03-25T12:19:06.000Z</time>
</trkpt>
<trkpt lat="45.8425840" lon="9.3040600">
	<ele>1000.40</ele>
	<time>2024-03-25T12:19:07.000Z</time>
</trkpt>
<trkpt lat="45.8425890" lon="9.3040530">
	<ele>1000.20</ele>
	<time>2024-03-25T12:19:08.000Z</time>
</trkpt>
<trkpt lat="45.8425950" lon="9.3040510">
	<ele>1000.20</ele>
	<time>2024-03-25T12:19:09.000Z</time>
</trkpt>
<trkpt lat="45.8425950" lon="9.3040520">
	<ele>1000.20</ele>
	<time>2024-03-25T12:19:10.000Z</time>
</trkpt>
<trkpt lat="45.8425930" lon="9.3040530">
	<ele>1000.20</ele>
	<time>2024-03-25T12:19:11.000Z</time>
</trkpt>
<trkpt lat="45.8425940" lon="9.3040540">
	<ele>1000.00</ele>
	<time>2024-03-25T12:19:12.000Z</time>
</trkpt>
<trkpt lat="45.8425960" lon="9.3040530">
	<ele>1000.00</ele>
	<time>2024-03-25T12:19:13.000Z</time>
</trkpt>
<trkpt lat="45.8425980" lon="9.3040520">
	<ele>1000.00</ele>
	<time>2024-03-25T12:19:14.000Z</time>
</trkpt>
<trkpt lat="45.8425980" lon="9.3040520">
	<ele>1000.00</ele>
	<time>2024-03-25T12:19:15.000Z</time>
</trkpt>
<trkpt lat="45.8425990" lon="9.3040530">
	<ele>999.80</ele>
	<time>2024-03-25T12:19:16.000Z</time>
</trkpt>
<trkpt lat="45.8425990" lon="9.3040530">
	<ele>999.80</ele>
	<time>2024-03-25T12:19:17.000Z</time>
</trkpt>
<trkpt lat="45.8425990" lon="9.3040530">
	<ele>1000.00</ele>
	<time>2024-03-25T12:19:18.000Z</time>
</trkpt>
<trkpt lat="45.8425990" lon="9.3040530">
	<ele>1000.00</ele>
	<time>2024-03-25T12:19:19.000Z</time>
</trkpt>
<trkpt lat="45.8425990" lon="9.3040530">
	<ele>1000.00</ele>
	<time>2024-03-25T12:19:20.000Z</time>
</trkpt>
<trkpt lat="45.8425990" lon="9.3040530">
	<ele>1000.00</ele>
	<time>2024-03-25T12:19:21.000Z</time>
</trkpt>
<trkpt lat="45.8425990" lon="9.3040530">
	<ele>1000.00</ele>
	<time>2024-03-25T12:19:22.000Z</time>
</trkpt>
<trkpt lat="45.8425990" lon="9.3040530">
	<ele>1000.00</ele>
	<time>2024-03-25T12:19:23.000Z</time>
</trkpt>
<trkpt lat="45.8425990" lon="9.3040530">
	<ele>1000.00</ele>
	<time>2024-03-25T12:19:24.000Z</time>
</trkpt>
<trkpt lat="45.8425990" lon="9.3040530">
	<ele>999.80</ele>
	<time>2024-03-25T12:19:25.000Z</time>
</trkpt>
<trkpt lat="45.8425990" lon="9.3040530">
	<ele>999.80</ele>
	<time>2024-03-25T12:19:26.000Z</time>
</trkpt>
<trkpt lat="45.8425990" lon="9.3040530">
	<ele>999.60</ele>
	<time>2024-03-25T12:19:27.000Z</time>
</trkpt>
<trkpt lat="45.8425990" lon="9.3040530">
	<ele>999.60</ele>
	<time>2024-03-25T12:19:28.000Z</time>
</trkpt>
<trkpt lat="45.8425990" lon="9.3040530">
	<ele>999.40</ele>
	<time>2024-03-25T12:19:29.000Z</time>
</trkpt>
<trkpt lat="45.8425990" lon="9.3040520">
	<ele>999.20</ele>
	<time>2024-03-25T12:19:30.000Z</time>
</trkpt>
<trkpt lat="45.8425990" lon="9.3040520">
	<ele>999.00</ele>
	<time>2024-03-25T12:19:31.000Z</time>
</trkpt>
<trkpt lat="45.8426010" lon="9.3040520">
	<ele>998.80</ele>
	<time>2024-03-25T12:19:32.000Z</time>
</trkpt>
<trkpt lat="45.8426030" lon="9.3040430">
	<ele>998.60</ele>
	<time>2024-03-25T12:19:33.000Z</time>
</trkpt>
<trkpt lat="45.8426090" lon="9.3040180">
	<ele>998.40</ele>
	<time>2024-03-25T12:19:34.000Z</time>
</trkpt>
<trkpt lat="45.8426100" lon="9.3040040">
	<ele>998.20</ele>
	<time>2024-03-25T12:19:35.000Z</time>
</trkpt>
<trkpt lat="45.8426120" lon="9.3039920">
	<ele>998.00</ele>
	<time>2024-03-25T12:19:36.000Z</time>
</trkpt>
<trkpt lat="45.8426160" lon="9.3039710">
	<ele>997.80</ele>
	<time>2024-03-25T12:19:37.000Z</time>
</trkpt>
<trkpt lat="45.8426210" lon="9.3039460">
	<ele>997.80</ele>
	<time>2024-03-25T12:19:38.000Z</time>
</trkpt>
<trkpt lat="45.8426240" lon="9.3039240">
	<ele>997.60</ele>
	<time>2024-03-25T12:19:39.000Z</time>
</trkpt>
<trkpt lat="45.8426240" lon="9.3039150">
	<ele>997.20</ele>
	<time>2024-03-25T12:19:40.000Z</time>
</trkpt>
<trkpt lat="45.8426250" lon="9.3039040">
	<ele>997.00</ele>
	<time>2024-03-25T12:19:41.000Z</time>
</trkpt>
<trkpt lat="45.8426290" lon="9.3038810">
	<ele>996.80</ele>
	<time>2024-03-25T12:19:42.000Z</time>
</trkpt>
<trkpt lat="45.8426310" lon="9.3038690">
	<ele>996.60</ele>
	<time>2024-03-25T12:19:43.000Z</time>
</trkpt>
<trkpt lat="45.8426300" lon="9.3038540">
	<ele>996.40</ele>
	<time>2024-03-25T12:19:44.000Z</time>
</trkpt>
<trkpt lat="45.8426330" lon="9.3038400">
	<ele>996.20</ele>
	<time>2024-03-25T12:19:45.000Z</time>
</trkpt>
<trkpt lat="45.8426320" lon="9.3038370">
	<ele>996.00</ele>
	<time>2024-03-25T12:19:46.000Z</time>
</trkpt>
<trkpt lat="45.8426360" lon="9.3038280">
	<ele>996.00</ele>
	<time>2024-03-25T12:19:47.000Z</time>
</trkpt>
<trkpt lat="45.8426400" lon="9.3038180">
	<ele>996.00</ele>
	<time>2024-03-25T12:19:48.000Z</time>
</trkpt>
<trkpt lat="45.8426400" lon="9.3038150">
	<ele>995.80</ele>
	<time>2024-03-25T12:19:49.000Z</time>
</trkpt>
<trkpt lat="45.8426420" lon="9.3038120">
	<ele>995.60</ele>
	<time>2024-03-25T12:19:50.000Z</time>
</trkpt>
<trkpt lat="45.8426500" lon="9.3037990">
	<ele>995.20</ele>
	<time>2024-03-25T12:19:51.000Z</time>
</trkpt>
<trkpt lat="45.8426520" lon="9.3037880">
	<ele>995.00</ele>
	<time>2024-03-25T12:19:52.000Z</time>
</trkpt>
<trkpt lat="45.8426510" lon="9.3037840">
	<ele>995.00</ele>
	<time>2024-03-25T12:19:53.000Z</time>
</trkpt>
<trkpt lat="45.8426490" lon="9.3037800">
	<ele>994.60</ele>
	<time>2024-03-25T12:19:54.000Z</time>
</trkpt>
<trkpt lat="45.8426520" lon="9.3037620">
	<ele>994.40</ele>
	<time>2024-03-25T12:19:55.000Z</time>
</trkpt>
<trkpt lat="45.8426540" lon="9.3037420">
	<ele>994.00</ele>
	<time>2024-03-25T12:19:56.000Z</time>
</trkpt>
<trkpt lat="45.8426540" lon="9.3037320">
	<ele>993.80</ele>
	<time>2024-03-25T12:19:57.000Z</time>
</trkpt>
<trkpt lat="45.8426550" lon="9.3037210">
	<ele>993.60</ele>
	<time>2024-03-25T12:19:58.000Z</time>
</trkpt>
<trkpt lat="45.8426560" lon="9.3037040">
	<ele>993.20</ele>
	<time>2024-03-25T12:19:59.000Z</time>
</trkpt>
<trkpt lat="45.8426570" lon="9.3036860">
	<ele>992.80</ele>
	<time>2024-03-25T12:20:00.000Z</time>
</trkpt>
<trkpt lat="45.8426630" lon="9.3036690">
	<ele>992.40</ele>
	<time>2024-03-25T12:20:01.000Z</time>
</trkpt>
<trkpt lat="45.8426690" lon="9.3036520">
	<ele>992.20</ele>
	<time>2024-03-25T12:20:02.000Z</time>
</trkpt>
<trkpt lat="45.8426780" lon="9.3036330">
	<ele>992.00</ele>
	<time>2024-03-25T12:20:03.000Z</time>
</trkpt>
<trkpt lat="45.8426850" lon="9.3036160">
	<ele>992.00</ele>
	<time>2024-03-25T12:20:04.000Z</time>
</trkpt>
<trkpt lat="45.8427000" lon="9.3035940">
	<ele>991.80</ele>
	<time>2024-03-25T12:20:05.000Z</time>
</trkpt>
<trkpt lat="45.8427160" lon="9.3035740">
	<ele>991.40</ele>
	<time>2024-03-25T12:20:06.000Z</time>
</trkpt>
<trkpt lat="45.8427260" lon="9.3035600">
	<ele>991.20</ele>
	<time>2024-03-25T12:20:07.000Z</time>
</trkpt>
<trkpt lat="45.8427290" lon="9.3035550">
	<ele>991.00</ele>
	<time>2024-03-25T12:20:08.000Z</time>
</trkpt>
<trkpt lat="45.8427370" lon="9.3035500">
	<ele>990.80</ele>
	<time>2024-03-25T12:20:09.000Z</time>
</trkpt>
<trkpt lat="45.8427540" lon="9.3035430">
	<ele>990.60</ele>
	<time>2024-03-25T12:20:10.000Z</time>
</trkpt>
<trkpt lat="45.8427680" lon="9.3035320">
	<ele>990.40</ele>
	<time>2024-03-25T12:20:11.000Z</time>
</trkpt>
<trkpt lat="45.8427800" lon="9.3035220">
	<ele>990.20</ele>
	<time>2024-03-25T12:20:12.000Z</time>
</trkpt>
<trkpt lat="45.8427950" lon="9.3035090">
	<ele>990.20</ele>
	<time>2024-03-25T12:20:13.000Z</time>
</trkpt>
<trkpt lat="45.8428090" lon="9.3034980">
	<ele>990.00</ele>
	<time>2024-03-25T12:20:14.000Z</time>
</trkpt>
<trkpt lat="45.8428210" lon="9.3034870">
	<ele>990.00</ele>
	<time>2024-03-25T12:20:15.000Z</time>
</trkpt>
<trkpt lat="45.8428300" lon="9.3034720">
	<ele>990.00</ele>
	<time>2024-03-25T12:20:16.000Z</time>
</trkpt>
<trkpt lat="45.8428390" lon="9.3034600">
	<ele>989.80</ele>
	<time>2024-03-25T12:20:17.000Z</time>
</trkpt>
<trkpt lat="45.8428460" lon="9.3034530">
	<ele>989.80</ele>
	<time>2024-03-25T12:20:18.000Z</time>
</trkpt>
<trkpt lat="45.8428470" lon="9.3034490">
	<ele>989.60</ele>
	<time>2024-03-25T12:20:19.000Z</time>
</trkpt>
<trkpt lat="45.8428560" lon="9.3034400">
	<ele>989.60</ele>
	<time>2024-03-25T12:20:20.000Z</time>
</trkpt>
<trkpt lat="45.8428680" lon="9.3034320">
	<ele>989.60</ele>
	<time>2024-03-25T12:20:21.000Z</time>
</trkpt>
<trkpt lat="45.8428720" lon="9.3034310">
	<ele>989.60</ele>
	<time>2024-03-25T12:20:22.000Z</time>
</trkpt>
<trkpt lat="45.8428850" lon="9.3034240">
	<ele>989.60</ele>
	<time>2024-03-25T12:20:23.000Z</time>
</trkpt>
<trkpt lat="45.8429030" lon="9.3034120">
	<ele>989.40</ele>
	<time>2024-03-25T12:20:24.000Z</time>
</trkpt>
<trkpt lat="45.8429150" lon="9.3033960">
	<ele>989.40</ele>
	<time>2024-03-25T12:20:25.000Z</time>
</trkpt>
<trkpt lat="45.8429280" lon="9.3033690">
	<ele>989.20</ele>
	<time>2024-03-25T12:20:26.000Z</time>
</trkpt>
<trkpt lat="45.8429270" lon="9.3033620">
	<ele>989.00</ele>
	<time>2024-03-25T12:20:27.000Z</time>
</trkpt>
<trkpt lat="45.8429380" lon="9.3033480">
	<ele>988.40</ele>
	<time>2024-03-25T12:20:28.000Z</time>
</trkpt>
<trkpt lat="45.8429410" lon="9.3033360">
	<ele>988.20</ele>
	<time>2024-03-25T12:20:29.000Z</time>
</trkpt>
<trkpt lat="45.8429520" lon="9.3033170">
	<ele>988.00</ele>
	<time>2024-03-25T12:20:30.000Z</time>
</trkpt>
<trkpt lat="45.8429560" lon="9.3033030">
	<ele>987.60</ele>
	<time>2024-03-25T12:20:31.000Z</time>
</trkpt>
<trkpt lat="45.8429630" lon="9.3032970">
	<ele>987.20</ele>
	<time>2024-03-25T12:20:32.000Z</time>
</trkpt>
<trkpt lat="45.8429750" lon="9.3032880">
	<ele>987.00</ele>
	<time>2024-03-25T12:20:33.000Z</time>
</trkpt>
<trkpt lat="45.8429920" lon="9.3032760">
	<ele>986.80</ele>
	<time>2024-03-25T12:20:34.000Z</time>
</trkpt>
<trkpt lat="45.8430070" lon="9.3032600">
	<ele>986.60</ele>
	<time>2024-03-25T12:20:35.000Z</time>
</trkpt>
<trkpt lat="45.8430210" lon="9.3032450">
	<ele>986.40</ele>
	<time>2024-03-25T12:20:36.000Z</time>
</trkpt>
<trkpt lat="45.8430330" lon="9.3032310">
	<ele>986.20</ele>
	<time>2024-03-25T12:20:37.000Z</time>
</trkpt>
<trkpt lat="45.8430440" lon="9.3032240">
	<ele>985.80</ele>
	<time>2024-03-25T12:20:38.000Z</time>
</trkpt>
<trkpt lat="45.8430530" lon="9.3032110">
	<ele>985.60</ele>
	<time>2024-03-25T12:20:39.000Z</time>
</trkpt>
<trkpt lat="45.8430590" lon="9.3032000">
	<ele>985.40</ele>
	<time>2024-03-25T12:20:40.000Z</time>
</trkpt>
<trkpt lat="45.8430700" lon="9.3031870">
	<ele>985.20</ele>
	<time>2024-03-25T12:20:41.000Z</time>
</trkpt>
<trkpt lat="45.8430780" lon="9.3031740">
	<ele>985.00</ele>
	<time>2024-03-25T12:20:42.000Z</time>
</trkpt>
<trkpt lat="45.8430820" lon="9.3031640">
	<ele>985.00</ele>
	<time>2024-03-25T12:20:43.000Z</time>
</trkpt>
<trkpt lat="45.8430830" lon="9.3031520">
	<ele>984.80</ele>
	<time>2024-03-25T12:20:44.000Z</time>
</trkpt>
<trkpt lat="45.8430850" lon="9.3031380">
	<ele>984.60</ele>
	<time>2024-03-25T12:20:45.000Z</time>
</trkpt>
<trkpt lat="45.8430850" lon="9.3031220">
	<ele>984.60</ele>
	<time>2024-03-25T12:20:46.000Z</time>
</trkpt>
<trkpt lat="45.8430900" lon="9.3031160">
	<ele>984.40</ele>
	<time>2024-03-25T12:20:47.000Z</time>
</trkpt>
<trkpt lat="45.8430940" lon="9.3031130">
	<ele>984.00</ele>
	<time>2024-03-25T12:20:48.000Z</time>
</trkpt>
<trkpt lat="45.8430940" lon="9.3031120">
	<ele>983.80</ele>
	<time>2024-03-25T12:20:49.000Z</time>
</trkpt>
<trkpt lat="45.8430950" lon="9.3031080">
	<ele>983.40</ele>
	<time>2024-03-25T12:20:50.000Z</time>
</trkpt>
<trkpt lat="45.8430970" lon="9.3031060">
	<ele>983.20</ele>
	<time>2024-03-25T12:20:51.000Z</time>
</trkpt>
<trkpt lat="45.8431000" lon="9.3030990">
	<ele>983.20</ele>
	<time>2024-03-25T12:20:52.000Z</time>
</trkpt>
<trkpt lat="45.8431050" lon="9.3030890">
	<ele>982.60</ele>
	<time>2024-03-25T12:20:53.000Z</time>
</trkpt>
<trkpt lat="45.8431080" lon="9.3030810">
	<ele>982.40</ele>
	<time>2024-03-25T12:20:54.000Z</time>
</trkpt>
<trkpt lat="45.8431190" lon="9.3030680">
	<ele>982.20</ele>
	<time>2024-03-25T12:20:55.000Z</time>
</trkpt>
<trkpt lat="45.8431260" lon="9.3030590">
	<ele>982.00</ele>
	<time>2024-03-25T12:20:56.000Z</time>
</trkpt>
<trkpt lat="45.8431290" lon="9.3030520">
	<ele>981.80</ele>
	<time>2024-03-25T12:20:57.000Z</time>
</trkpt>
<trkpt lat="45.8431350" lon="9.3030430">
	<ele>981.60</ele>
	<time>2024-03-25T12:20:58.000Z</time>
</trkpt>
<trkpt lat="45.8431360" lon="9.3030380">
	<ele>981.40</ele>
	<time>2024-03-25T12:20:59.000Z</time>
</trkpt>
<trkpt lat="45.8431350" lon="9.3030300">
	<ele>981.20</ele>
	<time>2024-03-25T12:21:00.000Z</time>
</trkpt>
<trkpt lat="45.8431300" lon="9.3030270">
	<ele>981.20</ele>
	<time>2024-03-25T12:21:01.000Z</time>
</trkpt>
<trkpt lat="45.8431270" lon="9.3030260">
	<ele>981.20</ele>
	<time>2024-03-25T12:21:02.000Z</time>
</trkpt>
<trkpt lat="45.8431260" lon="9.3030230">
	<ele>981.20</ele>
	<time>2024-03-25T12:21:03.000Z</time>
</trkpt>
<trkpt lat="45.8431210" lon="9.3030210">
	<ele>981.20</ele>
	<time>2024-03-25T12:21:04.000Z</time>
</trkpt>
<trkpt lat="45.8431220" lon="9.3030200">
	<ele>981.00</ele>
	<time>2024-03-25T12:21:05.000Z</time>
</trkpt>
<trkpt lat="45.8431240" lon="9.3030130">
	<ele>981.00</ele>
	<time>2024-03-25T12:21:06.000Z</time>
</trkpt>
<trkpt lat="45.8431240" lon="9.3030030">
	<ele>981.00</ele>
	<time>2024-03-25T12:21:07.000Z</time>
</trkpt>
<trkpt lat="45.8431230" lon="9.3029930">
	<ele>980.80</ele>
	<time>2024-03-25T12:21:08.000Z</time>
</trkpt>
<trkpt lat="45.8431270" lon="9.3029830">
	<ele>980.80</ele>
	<time>2024-03-25T12:21:09.000Z</time>
</trkpt>
<trkpt lat="45.8431370" lon="9.3029700">
	<ele>980.60</ele>
	<time>2024-03-25T12:21:10.000Z</time>
</trkpt>
<trkpt lat="45.8431400" lon="9.3029560">
	<ele>980.40</ele>
	<time>2024-03-25T12:21:11.000Z</time>
</trkpt>
<trkpt lat="45.8431400" lon="9.3029440">
	<ele>980.20</ele>
	<time>2024-03-25T12:21:12.000Z</time>
</trkpt>
<trkpt lat="45.8431350" lon="9.3029350">
	<ele>980.00</ele>
	<time>2024-03-25T12:21:13.000Z</time>
</trkpt>
<trkpt lat="45.8431340" lon="9.3029250">
	<ele>979.80</ele>
	<time>2024-03-25T12:21:14.000Z</time>
</trkpt>
<trkpt lat="45.8431350" lon="9.3029160">
	<ele>979.60</ele>
	<time>2024-03-25T12:21:15.000Z</time>
</trkpt>
<trkpt lat="45.8431390" lon="9.3029130">
	<ele>979.40</ele>
	<time>2024-03-25T12:21:16.000Z</time>
</trkpt>
<trkpt lat="45.8431420" lon="9.3029110">
	<ele>979.20</ele>
	<time>2024-03-25T12:21:17.000Z</time>
</trkpt>
<trkpt lat="45.8431450" lon="9.3029110">
	<ele>979.00</ele>
	<time>2024-03-25T12:21:18.000Z</time>
</trkpt>
<trkpt lat="45.8431480" lon="9.3029090">
	<ele>978.80</ele>
	<time>2024-03-25T12:21:19.000Z</time>
</trkpt>
<trkpt lat="45.8431470" lon="9.3029000">
	<ele>978.60</ele>
	<time>2024-03-25T12:21:20.000Z</time>
</trkpt>
<trkpt lat="45.8431560" lon="9.3028890">
	<ele>978.40</ele>
	<time>2024-03-25T12:21:21.000Z</time>
</trkpt>
<trkpt lat="45.8431620" lon="9.3028850">
	<ele>978.20</ele>
	<time>2024-03-25T12:21:22.000Z</time>
</trkpt>
<trkpt lat="45.8431750" lon="9.3028680">
	<ele>977.80</ele>
	<time>2024-03-25T12:21:23.000Z</time>
</trkpt>
<trkpt lat="45.8431810" lon="9.3028530">
	<ele>977.60</ele>
	<time>2024-03-25T12:21:24.000Z</time>
</trkpt>
<trkpt lat="45.8431920" lon="9.3028420">
	<ele>977.40</ele>
	<time>2024-03-25T12:21:25.000Z</time>
</trkpt>
<trkpt lat="45.8431990" lon="9.3028310">
	<ele>977.20</ele>
	<time>2024-03-25T12:21:26.000Z</time>
</trkpt>
<trkpt lat="45.8432070" lon="9.3028170">
	<ele>977.00</ele>
	<time>2024-03-25T12:21:27.000Z</time>
</trkpt>
<trkpt lat="45.8432160" lon="9.3028040">
	<ele>976.80</ele>
	<time>2024-03-25T12:21:28.000Z</time>
</trkpt>
<trkpt lat="45.8432270" lon="9.3027940">
	<ele>976.40</ele>
	<time>2024-03-25T12:21:29.000Z</time>
</trkpt>
<trkpt lat="45.8432370" lon="9.3027890">
	<ele>976.00</ele>
	<time>2024-03-25T12:21:30.000Z</time>
</trkpt>
<trkpt lat="45.8432470" lon="9.3027850">
	<ele>975.80</ele>
	<time>2024-03-25T12:21:31.000Z</time>
</trkpt>
<trkpt lat="45.8432580" lon="9.3027740">
	<ele>975.80</ele>
	<time>2024-03-25T12:21:32.000Z</time>
</trkpt>
<trkpt lat="45.8432690" lon="9.3027610">
	<ele>975.60</ele>
	<time>2024-03-25T12:21:33.000Z</time>
</trkpt>
<trkpt lat="45.8432770" lon="9.3027600">
	<ele>975.40</ele>
	<time>2024-03-25T12:21:34.000Z</time>
</trkpt>
<trkpt lat="45.8432810" lon="9.3027530">
	<ele>975.00</ele>
	<time>2024-03-25T12:21:35.000Z</time>
</trkpt>
<trkpt lat="45.8432860" lon="9.3027450">
	<ele>974.80</ele>
	<time>2024-03-25T12:21:36.000Z</time>
</trkpt>
<trkpt lat="45.8432950" lon="9.3027450">
	<ele>974.60</ele>
	<time>2024-03-25T12:21:37.000Z</time>
</trkpt>
<trkpt lat="45.8433090" lon="9.3027420">
	<ele>974.20</ele>
	<time>2024-03-25T12:21:38.000Z</time>
</trkpt>
<trkpt lat="45.8433180" lon="9.3027390">
	<ele>973.80</ele>
	<time>2024-03-25T12:21:39.000Z</time>
</trkpt>
<trkpt lat="45.8433240" lon="9.3027410">
	<ele>973.60</ele>
	<time>2024-03-25T12:21:40.000Z</time>
</trkpt>
<trkpt lat="45.8433300" lon="9.3027480">
	<ele>973.20</ele>
	<time>2024-03-25T12:21:41.000Z</time>
</trkpt>
<trkpt lat="45.8433400" lon="9.3027410">
	<ele>973.20</ele>
	<time>2024-03-25T12:21:42.000Z</time>
</trkpt>
<trkpt lat="45.8433460" lon="9.3027370">
	<ele>973.00</ele>
	<time>2024-03-25T12:21:43.000Z</time>
</trkpt>
<trkpt lat="45.8433540" lon="9.3027360">
	<ele>972.60</ele>
	<time>2024-03-25T12:21:44.000Z</time>
</trkpt>
<trkpt lat="45.8433630" lon="9.3027290">
	<ele>972.40</ele>
	<time>2024-03-25T12:21:45.000Z</time>
</trkpt>
<trkpt lat="45.8433660" lon="9.3027220">
	<ele>972.00</ele>
	<time>2024-03-25T12:21:46.000Z</time>
</trkpt>
<trkpt lat="45.8433730" lon="9.3027180">
	<ele>971.60</ele>
	<time>2024-03-25T12:21:47.000Z</time>
</trkpt>
<trkpt lat="45.8433810" lon="9.3027110">
	<ele>971.40</ele>
	<time>2024-03-25T12:21:48.000Z</time>
</trkpt>
<trkpt lat="45.8433920" lon="9.3027000">
	<ele>971.20</ele>
	<time>2024-03-25T12:21:49.000Z</time>
</trkpt>
<trkpt lat="45.8434040" lon="9.3026980">
	<ele>970.80</ele>
	<time>2024-03-25T12:21:50.000Z</time>
</trkpt>
<trkpt lat="45.8434090" lon="9.3026940">
	<ele>970.60</ele>
	<time>2024-03-25T12:21:51.000Z</time>
</trkpt>
<trkpt lat="45.8434120" lon="9.3026900">
	<ele>970.20</ele>
	<time>2024-03-25T12:21:52.000Z</time>
</trkpt>
<trkpt lat="45.8434150" lon="9.3026880">
	<ele>970.00</ele>
	<time>2024-03-25T12:21:53.000Z</time>
</trkpt>
<trkpt lat="45.8434180" lon="9.3026880">
	<ele>969.80</ele>
	<time>2024-03-25T12:21:54.000Z</time>
</trkpt>
<trkpt lat="45.8434210" lon="9.3026910">
	<ele>969.60</ele>
	<time>2024-03-25T12:21:55.000Z</time>
</trkpt>
<trkpt lat="45.8434250" lon="9.3027000">
	<ele>969.40</ele>
	<time>2024-03-25T12:21:56.000Z</time>
</trkpt>
<trkpt lat="45.8434240" lon="9.3027090">
	<ele>969.00</ele>
	<time>2024-03-25T12:21:57.000Z</time>
</trkpt>
<trkpt lat="45.8434250" lon="9.3027160">
	<ele>968.60</ele>
	<time>2024-03-25T12:21:58.000Z</time>
</trkpt>
<trkpt lat="45.8434270" lon="9.3027250">
	<ele>968.40</ele>
	<time>2024-03-25T12:21:59.000Z</time>
</trkpt>
<trkpt lat="45.8434250" lon="9.3027350">
	<ele>968.20</ele>
	<time>2024-03-25T12:22:00.000Z</time>
</trkpt>
<trkpt lat="45.8434250" lon="9.3027400">
	<ele>968.00</ele>
	<time>2024-03-25T12:22:01.000Z</time>
</trkpt>
<trkpt lat="45.8434300" lon="9.3027440">
	<ele>968.00</ele>
	<time>2024-03-25T12:22:02.000Z</time>
</trkpt>
<trkpt lat="45.8434370" lon="9.3027450">
	<ele>967.60</ele>
	<time>2024-03-25T12:22:03.000Z</time>
</trkpt>
<trkpt lat="45.8434410" lon="9.3027460">
	<ele>967.40</ele>
	<time>2024-03-25T12:22:04.000Z</time>
</trkpt>
<trkpt lat="45.8434430" lon="9.3027470">
	<ele>967.20</ele>
	<time>2024-03-25T12:22:05.000Z</time>
</trkpt>
<trkpt lat="45.8434450" lon="9.3027480">
	<ele>967.00</ele>
	<time>2024-03-25T12:22:06.000Z</time>
</trkpt>
<trkpt lat="45.8434460" lon="9.3027480">
	<ele>967.00</ele>
	<time>2024-03-25T12:22:07.000Z</time>
</trkpt>
<trkpt lat="45.8434470" lon="9.3027460">
	<ele>966.80</ele>
	<time>2024-03-25T12:22:08.000Z</time>
</trkpt>
<trkpt lat="45.8434470" lon="9.3027470">
	<ele>966.80</ele>
	<time>2024-03-25T12:22:09.000Z</time>
</trkpt>
<trkpt lat="45.8434470" lon="9.3027470">
	<ele>966.80</ele>
	<time>2024-03-25T12:22:10.000Z</time>
</trkpt>
<trkpt lat="45.8434470" lon="9.3027470">
	<ele>966.60</ele>
	<time>2024-03-25T12:22:11.000Z</time>
</trkpt>
<trkpt lat="45.8434470" lon="9.3027470">
	<ele>966.60</ele>
	<time>2024-03-25T12:22:12.000Z</time>
</trkpt>
<trkpt lat="45.8434470" lon="9.3027470">
	<ele>966.60</ele>
	<time>2024-03-25T12:22:13.000Z</time>
</trkpt>
<trkpt lat="45.8434470" lon="9.3027470">
	<ele>966.60</ele>
	<time>2024-03-25T12:22:14.000Z</time>
</trkpt>
<trkpt lat="45.8434470" lon="9.3027470">
	<ele>966.60</ele>
	<time>2024-03-25T12:22:15.000Z</time>
</trkpt>
<trkpt lat="45.8434470" lon="9.3027470">
	<ele>966.60</ele>
	<time>2024-03-25T12:22:16.000Z</time>
</trkpt>
<trkpt lat="45.8434470" lon="9.3027470">
	<ele>966.60</ele>
	<time>2024-03-25T12:22:17.000Z</time>
</trkpt>
<trkpt lat="45.8434470" lon="9.3027470">
	<ele>966.60</ele>
	<time>2024-03-25T12:22:18.000Z</time>
</trkpt>
<trkpt lat="45.8434470" lon="9.3027470">
	<ele>966.60</ele>
	<time>2024-03-25T12:22:19.000Z</time>
</trkpt>
<trkpt lat="45.8434470" lon="9.3027470">
	<ele>966.60</ele>
	<time>2024-03-25T12:22:20.000Z</time>
</trkpt>
<trkpt lat="45.8434470" lon="9.3027470">
	<ele>966.40</ele>
	<time>2024-03-25T12:22:21.000Z</time>
</trkpt>
<trkpt lat="45.8434470" lon="9.3027470">
	<ele>966.40</ele>
	<time>2024-03-25T12:22:22.000Z</time>
</trkpt>
<trkpt lat="45.8434470" lon="9.3027470">
	<ele>966.40</ele>
	<time>2024-03-25T12:22:23.000Z</time>
</trkpt>
<trkpt lat="45.8434470" lon="9.3027470">
	<ele>966.00</ele>
	<time>2024-03-25T12:22:24.000Z</time>
</trkpt>
<trkpt lat="45.8434470" lon="9.3027470">
	<ele>966.00</ele>
	<time>2024-03-25T12:22:25.000Z</time>
</trkpt>
<trkpt lat="45.8434470" lon="9.3027480">
	<ele>965.80</ele>
	<time>2024-03-25T12:22:26.000Z</time>
</trkpt>
<trkpt lat="45.8434470" lon="9.3027480">
	<ele>965.60</ele>
	<time>2024-03-25T12:22:27.000Z</time>
</trkpt>
<trkpt lat="45.8434470" lon="9.3027480">
	<ele>965.20</ele>
	<time>2024-03-25T12:22:28.000Z</time>
</trkpt>
<trkpt lat="45.8434480" lon="9.3027480">
	<ele>965.00</ele>
	<time>2024-03-25T12:22:29.000Z</time>
</trkpt>
<trkpt lat="45.8434480" lon="9.3027500">
	<ele>964.80</ele>
	<time>2024-03-25T12:22:30.000Z</time>
</trkpt>
<trkpt lat="45.8434480" lon="9.3027560">
	<ele>964.40</ele>
	<time>2024-03-25T12:22:31.000Z</time>
</trkpt>
<trkpt lat="45.8434500" lon="9.3027640">
	<ele>964.20</ele>
	<time>2024-03-25T12:22:32.000Z</time>
</trkpt>
<trkpt lat="45.8434510" lon="9.3027680">
	<ele>964.00</ele>
	<time>2024-03-25T12:22:33.000Z</time>
</trkpt>
<trkpt lat="45.8434510" lon="9.3027770">
	<ele>963.80</ele>
	<time>2024-03-25T12:22:34.000Z</time>
</trkpt>
<trkpt lat="45.8434520" lon="9.3027830">
	<ele>963.80</ele>
	<time>2024-03-25T12:22:35.000Z</time>
</trkpt>
<trkpt lat="45.8434520" lon="9.3027900">
	<ele>963.60</ele>
	<time>2024-03-25T12:22:36.000Z</time>
</trkpt>
<trkpt lat="45.8434530" lon="9.3027930">
	<ele>963.40</ele>
	<time>2024-03-25T12:22:37.000Z</time>
</trkpt>
<trkpt lat="45.8434540" lon="9.3028010">
	<ele>963.20</ele>
	<time>2024-03-25T12:22:38.000Z</time>
</trkpt>
<trkpt lat="45.8434550" lon="9.3028060">
	<ele>962.80</ele>
	<time>2024-03-25T12:22:39.000Z</time>
</trkpt>
<trkpt lat="45.8434560" lon="9.3028080">
	<ele>962.60</ele>
	<time>2024-03-25T12:22:40.000Z</time>
</trkpt>
<trkpt lat="45.8434580" lon="9.3028080">
	<ele>962.40</ele>
	<time>2024-03-25T12:22:41.000Z</time>
</trkpt>
<trkpt lat="45.8434650" lon="9.3028050">
	<ele>962.00</ele>
	<time>2024-03-25T12:22:42.000Z</time>
</trkpt>
<trkpt lat="45.8434810" lon="9.3027890">
	<ele>961.60</ele>
	<time>2024-03-25T12:22:43.000Z</time>
</trkpt>
<trkpt lat="45.8434960" lon="9.3027690">
	<ele>961.20</ele>
	<time>2024-03-25T12:22:44.000Z</time>
</trkpt>
<trkpt lat="45.8435110" lon="9.3027520">
	<ele>961.00</ele>
	<time>2024-03-25T12:22:45.000Z</time>
</trkpt>
<trkpt lat="45.8435250" lon="9.3027400">
	<ele>960.80</ele>
	<time>2024-03-25T12:22:46.000Z</time>
</trkpt>
<trkpt lat="45.8435390" lon="9.3027340">
	<ele>960.60</ele>
	<time>2024-03-25T12:22:47.000Z</time>
</trkpt>
<trkpt lat="45.8435500" lon="9.3027300">
	<ele>960.60</ele>
	<time>2024-03-25T12:22:48.000Z</time>
</trkpt>
<trkpt lat="45.8435570" lon="9.3027210">
	<ele>960.40</ele>
	<time>2024-03-25T12:22:49.000Z</time>
</trkpt>
<trkpt lat="45.8435620" lon="9.3027130">
	<ele>960.20</ele>
	<time>2024-03-25T12:22:50.000Z</time>
</trkpt>
<trkpt lat="45.8435670" lon="9.3027040">
	<ele>960.00</ele>
	<time>2024-03-25T12:22:51.000Z</time>
</trkpt>
<trkpt lat="45.8435730" lon="9.3026960">
	<ele>959.80</ele>
	<time>2024-03-25T12:22:52.000Z</time>
</trkpt>
<trkpt lat="45.8435810" lon="9.3026820">
	<ele>959.60</ele>
	<time>2024-03-25T12:22:53.000Z</time>
</trkpt>
<trkpt lat="45.8435820" lon="9.3026770">
	<ele>959.40</ele>
	<time>2024-03-25T12:22:54.000Z</time>
</trkpt>
<trkpt lat="45.8435820" lon="9.3026720">
	<ele>959.20</ele>
	<time>2024-03-25T12:22:55.000Z</time>
</trkpt>
<trkpt lat="45.8435810" lon="9.3026680">
	<ele>959.00</ele>
	<time>2024-03-25T12:22:56.000Z</time>
</trkpt>
<trkpt lat="45.8435890" lon="9.3026500">
	<ele>958.80</ele>
	<time>2024-03-25T12:22:57.000Z</time>
</trkpt>
<trkpt lat="45.8436000" lon="9.3026320">
	<ele>958.80</ele>
	<time>2024-03-25T12:22:58.000Z</time>
</trkpt>
<trkpt lat="45.8436060" lon="9.3026020">
	<ele>958.40</ele>
	<time>2024-03-25T12:22:59.000Z</time>
</trkpt>
<trkpt lat="45.8436140" lon="9.3025740">
	<ele>958.00</ele>
	<time>2024-03-25T12:23:00.000Z</time>
</trkpt>
<trkpt lat="45.8436180" lon="9.3025530">
	<ele>957.80</ele>
	<time>2024-03-25T12:23:01.000Z</time>
</trkpt>
<trkpt lat="45.8436220" lon="9.3025370">
	<ele>957.60</ele>
	<time>2024-03-25T12:23:02.000Z</time>
</trkpt>
<trkpt lat="45.8436230" lon="9.3025250">
	<ele>957.20</ele>
	<time>2024-03-25T12:23:03.000Z</time>
</trkpt>
<trkpt lat="45.8436270" lon="9.3025090">
	<ele>957.00</ele>
	<time>2024-03-25T12:23:04.000Z</time>
</trkpt>
<trkpt lat="45.8436360" lon="9.3024930">
	<ele>956.80</ele>
	<time>2024-03-25T12:23:05.000Z</time>
</trkpt>
<trkpt lat="45.8436500" lon="9.3024750">
	<ele>956.40</ele>
	<time>2024-03-25T12:23:06.000Z</time>
</trkpt>
<trkpt lat="45.8436640" lon="9.3024600">
	<ele>956.20</ele>
	<time>2024-03-25T12:23:07.000Z</time>
</trkpt>
<trkpt lat="45.8436730" lon="9.3024570">
	<ele>956.00</ele>
	<time>2024-03-25T12:23:08.000Z</time>
</trkpt>
<trkpt lat="45.8436760" lon="9.3024500">
	<ele>956.00</ele>
	<time>2024-03-25T12:23:09.000Z</time>
</trkpt>
<trkpt lat="45.8436790" lon="9.3024430">
	<ele>955.60</ele>
	<time>2024-03-25T12:23:10.000Z</time>
</trkpt>
<trkpt lat="45.8436950" lon="9.3024400">
	<ele>955.40</ele>
	<time>2024-03-25T12:23:11.000Z</time>
</trkpt>
<trkpt lat="45.8437060" lon="9.3024210">
	<ele>955.20</ele>
	<time>2024-03-25T12:23:12.000Z</time>
</trkpt>
<trkpt lat="45.8437220" lon="9.3024140">
	<ele>955.00</ele>
	<time>2024-03-25T12:23:13.000Z</time>
</trkpt>
<trkpt lat="45.8437420" lon="9.3024030">
	<ele>954.60</ele>
	<time>2024-03-25T12:23:14.000Z</time>
</trkpt>
<trkpt lat="45.8437550" lon="9.3024050">
	<ele>954.20</ele>
	<time>2024-03-25T12:23:15.000Z</time>
</trkpt>
<trkpt lat="45.8437610" lon="9.3024080">
	<ele>953.80</ele>
	<time>2024-03-25T12:23:16.000Z</time>
</trkpt>
<trkpt lat="45.8437760" lon="9.3024160">
	<ele>953.60</ele>
	<time>2024-03-25T12:23:17.000Z</time>
</trkpt>
<trkpt lat="45.8437890" lon="9.3024300">
	<ele>953.20</ele>
	<time>2024-03-25T12:23:18.000Z</time>
</trkpt>
<trkpt lat="45.8437970" lon="9.3024170">
	<ele>953.00</ele>
	<time>2024-03-25T12:23:19.000Z</time>
</trkpt>
<trkpt lat="45.8437990" lon="9.3023980">
	<ele>952.80</ele>
	<time>2024-03-25T12:23:20.000Z</time>
</trkpt>
<trkpt lat="45.8438030" lon="9.3023800">
	<ele>952.60</ele>
	<time>2024-03-25T12:23:21.000Z</time>
</trkpt>
<trkpt lat="45.8438180" lon="9.3023680">
	<ele>952.20</ele>
	<time>2024-03-25T12:23:22.000Z</time>
</trkpt>
<trkpt lat="45.8438350" lon="9.3023500">
	<ele>951.80</ele>
	<time>2024-03-25T12:23:23.000Z</time>
</trkpt>
<trkpt lat="45.8438660" lon="9.3023290">
	<ele>951.60</ele>
	<time>2024-03-25T12:23:24.000Z</time>
</trkpt>
<trkpt lat="45.8438910" lon="9.3023170">
	<ele>951.40</ele>
	<time>2024-03-25T12:23:25.000Z</time>
</trkpt>
<trkpt lat="45.8439060" lon="9.3023100">
	<ele>951.20</ele>
	<time>2024-03-25T12:23:26.000Z</time>
</trkpt>
<trkpt lat="45.8439200" lon="9.3022910">
	<ele>951.00</ele>
	<time>2024-03-25T12:23:27.000Z</time>
</trkpt>
<trkpt lat="45.8439180" lon="9.3022810">
	<ele>950.80</ele>
	<time>2024-03-25T12:23:28.000Z</time>
</trkpt>
<trkpt lat="45.8439190" lon="9.3022710">
	<ele>950.40</ele>
	<time>2024-03-25T12:23:29.000Z</time>
</trkpt>
<trkpt lat="45.8439270" lon="9.3022640">
	<ele>950.40</ele>
	<time>2024-03-25T12:23:30.000Z</time>
</trkpt>
<trkpt lat="45.8439290" lon="9.3022520">
	<ele>950.20</ele>
	<time>2024-03-25T12:23:31.000Z</time>
</trkpt>
<trkpt lat="45.8439410" lon="9.3022300">
	<ele>950.20</ele>
	<time>2024-03-25T12:23:32.000Z</time>
</trkpt>
<trkpt lat="45.8439430" lon="9.3022140">
	<ele>950.20</ele>
	<time>2024-03-25T12:23:33.000Z</time>
</trkpt>
<trkpt lat="45.8439580" lon="9.3021950">
	<ele>950.20</ele>
	<time>2024-03-25T12:23:34.000Z</time>
</trkpt>
<trkpt lat="45.8439620" lon="9.3021870">
	<ele>950.20</ele>
	<time>2024-03-25T12:23:35.000Z</time>
</trkpt>
<trkpt lat="45.8439920" lon="9.3021800">
	<ele>950.20</ele>
	<time>2024-03-25T12:23:36.000Z</time>
</trkpt>
<trkpt lat="45.8439960" lon="9.3021770">
	<ele>950.20</ele>
	<time>2024-03-25T12:23:37.000Z</time>
</trkpt>
<trkpt lat="45.8439870" lon="9.3021840">
	<ele>950.20</ele>
	<time>2024-03-25T12:23:38.000Z</time>
</trkpt>
<trkpt lat="45.8439820" lon="9.3021910">
	<ele>950.20</ele>
	<time>2024-03-25T12:23:39.000Z</time>
</trkpt>
<trkpt lat="45.8439710" lon="9.3022010">
	<ele>950.00</ele>
	<time>2024-03-25T12:23:40.000Z</time>
</trkpt>
<trkpt lat="45.8439780" lon="9.3022020">
	<ele>950.00</ele>
	<time>2024-03-25T12:23:41.000Z</time>
</trkpt>
<trkpt lat="45.8439940" lon="9.3021870">
	<ele>949.60</ele>
	<time>2024-03-25T12:23:42.000Z</time>
</trkpt>
<trkpt lat="45.8440050" lon="9.3021670">
	<ele>949.40</ele>
	<time>2024-03-25T12:23:43.000Z</time>
</trkpt>
<trkpt lat="45.8440120" lon="9.3021510">
	<ele>949.40</ele>
	<time>2024-03-25T12:23:44.000Z</time>
</trkpt>
<trkpt lat="45.8440190" lon="9.3021320">
	<ele>949.20</ele>
	<time>2024-03-25T12:23:45.000Z</time>
</trkpt>
<trkpt lat="45.8440250" lon="9.3021190">
	<ele>949.20</ele>
	<time>2024-03-25T12:23:46.000Z</time>
</trkpt>
<trkpt lat="45.8440310" lon="9.3021080">
	<ele>949.00</ele>
	<time>2024-03-25T12:23:47.000Z</time>
</trkpt>
<trkpt lat="45.8440340" lon="9.3020950">
	<ele>948.80</ele>
	<time>2024-03-25T12:23:48.000Z</time>
</trkpt>
<trkpt lat="45.8440330" lon="9.3020760">
	<ele>948.60</ele>
	<time>2024-03-25T12:23:49.000Z</time>
</trkpt>
<trkpt lat="45.8440330" lon="9.3020680">
	<ele>948.60</ele>
	<time>2024-03-25T12:23:50.000Z</time>
</trkpt>
<trkpt lat="45.8440310" lon="9.3020560">
	<ele>948.40</ele>
	<time>2024-03-25T12:23:51.000Z</time>
</trkpt>
<trkpt lat="45.8440320" lon="9.3020410">
	<ele>948.40</ele>
	<time>2024-03-25T12:23:52.000Z</time>
</trkpt>
<trkpt lat="45.8440290" lon="9.3020250">
	<ele>948.20</ele>
	<time>2024-03-25T12:23:53.000Z</time>
</trkpt>
<trkpt lat="45.8440230" lon="9.3020070">
	<ele>948.00</ele>
	<time>2024-03-25T12:23:54.000Z</time>
</trkpt>
<trkpt lat="45.8440120" lon="9.3019940">
	<ele>947.80</ele>
	<time>2024-03-25T12:23:55.000Z</time>
</trkpt>
<trkpt lat="45.8439960" lon="9.3019830">
	<ele>947.60</ele>
	<time>2024-03-25T12:23:56.000Z</time>
</trkpt>
<trkpt lat="45.8439890" lon="9.3019700">
	<ele>947.20</ele>
	<time>2024-03-25T12:23:57.000Z</time>
</trkpt>
<trkpt lat="45.8439850" lon="9.3019580">
	<ele>947.00</ele>
	<time>2024-03-25T12:23:58.000Z</time>
</trkpt>
<trkpt lat="45.8439840" lon="9.3019460">
	<ele>946.60</ele>
	<time>2024-03-25T12:23:59.000Z</time>
</trkpt>
<trkpt lat="45.8439840" lon="9.3019390">
	<ele>946.40</ele>
	<time>2024-03-25T12:24:00.000Z</time>
</trkpt>
<trkpt lat="45.8439790" lon="9.3019320">
	<ele>946.20</ele>
	<time>2024-03-25T12:24:01.000Z</time>
</trkpt>
<trkpt lat="45.8439820" lon="9.3019180">
	<ele>946.00</ele>
	<time>2024-03-25T12:24:02.000Z</time>
</trkpt>
<trkpt lat="45.8439840" lon="9.3019050">
	<ele>945.80</ele>
	<time>2024-03-25T12:24:03.000Z</time>
</trkpt>
<trkpt lat="45.8439880" lon="9.3018900">
	<ele>945.40</ele>
	<time>2024-03-25T12:24:04.000Z</time>
</trkpt>
<trkpt lat="45.8440020" lon="9.3018700">
	<ele>945.00</ele>
	<time>2024-03-25T12:24:05.000Z</time>
</trkpt>
<trkpt lat="45.8440150" lon="9.3018560">
	<ele>944.80</ele>
	<time>2024-03-25T12:24:06.000Z</time>
</trkpt>
<trkpt lat="45.8440180" lon="9.3018500">
	<ele>944.60</ele>
	<time>2024-03-25T12:24:07.000Z</time>
</trkpt>
<trkpt lat="45.8440290" lon="9.3018320">
	<ele>944.40</ele>
	<time>2024-03-25T12:24:08.000Z</time>
</trkpt>
<trkpt lat="45.8440330" lon="9.3018260">
	<ele>944.20</ele>
	<time>2024-03-25T12:24:09.000Z</time>
</trkpt>
<trkpt lat="45.8440390" lon="9.3018120">
	<ele>943.80</ele>
	<time>2024-03-25T12:24:10.000Z</time>
</trkpt>
<trkpt lat="45.8440540" lon="9.3017980">
	<ele>943.60</ele>
	<time>2024-03-25T12:24:11.000Z</time>
</trkpt>
<trkpt lat="45.8440500" lon="9.3017810">
	<ele>943.20</ele>
	<time>2024-03-25T12:24:12.000Z</time>
</trkpt>
<trkpt lat="45.8440530" lon="9.3017690">
	<ele>943.00</ele>
	<time>2024-03-25T12:24:13.000Z</time>
</trkpt>
<trkpt lat="45.8440560" lon="9.3017510">
	<ele>942.60</ele>
	<time>2024-03-25T12:24:14.000Z</time>
</trkpt>
<trkpt lat="45.8440460" lon="9.3017450">
	<ele>942.20</ele>
	<time>2024-03-25T12:24:15.000Z</time>
</trkpt>
<trkpt lat="45.8440440" lon="9.3017390">
	<ele>941.80</ele>
	<time>2024-03-25T12:24:16.000Z</time>
</trkpt>
<trkpt lat="45.8440250" lon="9.3017320">
	<ele>941.60</ele>
	<time>2024-03-25T12:24:17.000Z</time>
</trkpt>
<trkpt lat="45.8440310" lon="9.3017090">
	<ele>941.40</ele>
	<time>2024-03-25T12:24:18.000Z</time>
</trkpt>
<trkpt lat="45.8440440" lon="9.3016990">
	<ele>941.20</ele>
	<time>2024-03-25T12:24:19.000Z</time>
</trkpt>
<trkpt lat="45.8440560" lon="9.3016930">
	<ele>941.00</ele>
	<time>2024-03-25T12:24:20.000Z</time>
</trkpt>
<trkpt lat="45.8440690" lon="9.3016810">
	<ele>940.60</ele>
	<time>2024-03-25T12:24:21.000Z</time>
</trkpt>
<trkpt lat="45.8440770" lon="9.3016620">
	<ele>940.40</ele>
	<time>2024-03-25T12:24:22.000Z</time>
</trkpt>
<trkpt lat="45.8440870" lon="9.3016430">
	<ele>940.20</ele>
	<time>2024-03-25T12:24:23.000Z</time>
</trkpt>
<trkpt lat="45.8441010" lon="9.3016200">
	<ele>940.00</ele>
	<time>2024-03-25T12:24:24.000Z</time>
</trkpt>
<trkpt lat="45.8441080" lon="9.3016070">
	<ele>939.80</ele>
	<time>2024-03-25T12:24:25.000Z</time>
</trkpt>
<trkpt lat="45.8441150" lon="9.3015960">
	<ele>939.80</ele>
	<time>2024-03-25T12:24:26.000Z</time>
</trkpt>
<trkpt lat="45.8441250" lon="9.3015880">
	<ele>939.60</ele>
	<time>2024-03-25T12:24:27.000Z</time>
</trkpt>
<trkpt lat="45.8441380" lon="9.3015830">
	<ele>939.40</ele>
	<time>2024-03-25T12:24:28.000Z</time>
</trkpt>
<trkpt lat="45.8441490" lon="9.3015720">
	<ele>939.40</ele>
	<time>2024-03-25T12:24:29.000Z</time>
</trkpt>
<trkpt lat="45.8441610" lon="9.3015570">
	<ele>939.20</ele>
	<time>2024-03-25T12:24:30.000Z</time>
</trkpt>
<trkpt lat="45.8441740" lon="9.3015480">
	<ele>939.00</ele>
	<time>2024-03-25T12:24:31.000Z</time>
</trkpt>
<trkpt lat="45.8441840" lon="9.3015320">
	<ele>938.60</ele>
	<time>2024-03-25T12:24:32.000Z</time>
</trkpt>
<trkpt lat="45.8441930" lon="9.3015170">
	<ele>938.20</ele>
	<time>2024-03-25T12:24:33.000Z</time>
</trkpt>
<trkpt lat="45.8441990" lon="9.3015000">
	<ele>938.20</ele>
	<time>2024-03-25T12:24:34.000Z</time>
</trkpt>
<trkpt lat="45.8441990" lon="9.3014830">
	<ele>938.00</ele>
	<time>2024-03-25T12:24:35.000Z</time>
</trkpt>
<trkpt lat="45.8442000" lon="9.3014710">
	<ele>937.80</ele>
	<time>2024-03-25T12:24:36.000Z</time>
</trkpt>
<trkpt lat="45.8442020" lon="9.3014580">
	<ele>937.60</ele>
	<time>2024-03-25T12:24:37.000Z</time>
</trkpt>
<trkpt lat="45.8442080" lon="9.3014500">
	<ele>937.40</ele>
	<time>2024-03-25T12:24:38.000Z</time>
</trkpt>
<trkpt lat="45.8442170" lon="9.3014370">
	<ele>937.40</ele>
	<time>2024-03-25T12:24:39.000Z</time>
</trkpt>
<trkpt lat="45.8442280" lon="9.3014250">
	<ele>937.20</ele>
	<time>2024-03-25T12:24:40.000Z</time>
</trkpt>
<trkpt lat="45.8442250" lon="9.3014140">
	<ele>937.20</ele>
	<time>2024-03-25T12:24:41.000Z</time>
</trkpt>
<trkpt lat="45.8442240" lon="9.3014060">
	<ele>937.20</ele>
	<time>2024-03-25T12:24:42.000Z</time>
</trkpt>
<trkpt lat="45.8442240" lon="9.3014000">
	<ele>937.20</ele>
	<time>2024-03-25T12:24:43.000Z</time>
</trkpt>
<trkpt lat="45.8442260" lon="9.3013920">
	<ele>937.00</ele>
	<time>2024-03-25T12:24:44.000Z</time>
</trkpt>
<trkpt lat="45.8442290" lon="9.3013850">
	<ele>937.00</ele>
	<time>2024-03-25T12:24:45.000Z</time>
</trkpt>
<trkpt lat="45.8442380" lon="9.3013860">
	<ele>936.60</ele>
	<time>2024-03-25T12:24:46.000Z</time>
</trkpt>
<trkpt lat="45.8442500" lon="9.3013840">
	<ele>936.20</ele>
	<time>2024-03-25T12:24:47.000Z</time>
</trkpt>
<trkpt lat="45.8442620" lon="9.3013800">
	<ele>936.00</ele>
	<time>2024-03-25T12:24:48.000Z</time>
</trkpt>
<trkpt lat="45.8442760" lon="9.3013730">
	<ele>935.80</ele>
	<time>2024-03-25T12:24:49.000Z</time>
</trkpt>
<trkpt lat="45.8442890" lon="9.3013630">
	<ele>935.60</ele>
	<time>2024-03-25T12:24:50.000Z</time>
</trkpt>
<trkpt lat="45.8443030" lon="9.3013490">
	<ele>935.40</ele>
	<time>2024-03-25T12:24:51.000Z</time>
</trkpt>
<trkpt lat="45.8443160" lon="9.3013350">
	<ele>935.20</ele>
	<time>2024-03-25T12:24:52.000Z</time>
</trkpt>
<trkpt lat="45.8443260" lon="9.3013240">
	<ele>935.00</ele>
	<time>2024-03-25T12:24:53.000Z</time>
</trkpt>
<trkpt lat="45.8443330" lon="9.3013100">
	<ele>934.80</ele>
	<time>2024-03-25T12:24:54.000Z</time>
</trkpt>
<trkpt lat="45.8443340" lon="9.3012980">
	<ele>934.40</ele>
	<time>2024-03-25T12:24:55.000Z</time>
</trkpt>
<trkpt lat="45.8443360" lon="9.3012890">
	<ele>934.20</ele>
	<time>2024-03-25T12:24:56.000Z</time>
</trkpt>
<trkpt lat="45.8443470" lon="9.3012820">
	<ele>934.00</ele>
	<time>2024-03-25T12:24:57.000Z</time>
</trkpt>
<trkpt lat="45.8443650" lon="9.3012660">
	<ele>933.80</ele>
	<time>2024-03-25T12:24:58.000Z</time>
</trkpt>
<trkpt lat="45.8443760" lon="9.3012560">
	<ele>933.60</ele>
	<time>2024-03-25T12:24:59.000Z</time>
</trkpt>
<trkpt lat="45.8443880" lon="9.3012520">
	<ele>933.00</ele>
	<time>2024-03-25T12:25:00.000Z</time>
</trkpt>
<trkpt lat="45.8444010" lon="9.3012470">
	<ele>932.80</ele>
	<time>2024-03-25T12:25:01.000Z</time>
</trkpt>
<trkpt lat="45.8444120" lon="9.3012420">
	<ele>932.60</ele>
	<time>2024-03-25T12:25:02.000Z</time>
</trkpt>
<trkpt lat="45.8444170" lon="9.3012400">
	<ele>932.40</ele>
	<time>2024-03-25T12:25:03.000Z</time>
</trkpt>
<trkpt lat="45.8444260" lon="9.3012390">
	<ele>932.20</ele>
	<time>2024-03-25T12:25:04.000Z</time>
</trkpt>
<trkpt lat="45.8444270" lon="9.3012440">
	<ele>932.00</ele>
	<time>2024-03-25T12:25:05.000Z</time>
</trkpt>
<trkpt lat="45.8444370" lon="9.3012390">
	<ele>931.80</ele>
	<time>2024-03-25T12:25:06.000Z</time>
</trkpt>
<trkpt lat="45.8444600" lon="9.3012240">
	<ele>931.60</ele>
	<time>2024-03-25T12:25:07.000Z</time>
</trkpt>
<trkpt lat="45.8444780" lon="9.3012120">
	<ele>931.60</ele>
	<time>2024-03-25T12:25:08.000Z</time>
</trkpt>
<trkpt lat="45.8444840" lon="9.3012070">
	<ele>931.20</ele>
	<time>2024-03-25T12:25:09.000Z</time>
</trkpt>
<trkpt lat="45.8444920" lon="9.3011740">
	<ele>930.80</ele>
	<time>2024-03-25T12:25:10.000Z</time>
</trkpt>
<trkpt lat="45.8444980" lon="9.3011640">
	<ele>930.60</ele>
	<time>2024-03-25T12:25:11.000Z</time>
</trkpt>
<trkpt lat="45.8445000" lon="9.3011610">
	<ele>930.60</ele>
	<time>2024-03-25T12:25:12.000Z</time>
</trkpt>
<trkpt lat="45.8444990" lon="9.3011520">
	<ele>930.60</ele>
	<time>2024-03-25T12:25:13.000Z</time>
</trkpt>
<trkpt lat="45.8445020" lon="9.3011450">
	<ele>930.40</ele>
	<time>2024-03-25T12:25:14.000Z</time>
</trkpt>
<trkpt lat="45.8445040" lon="9.3011430">
	<ele>930.40</ele>
	<time>2024-03-25T12:25:15.000Z</time>
</trkpt>
<trkpt lat="45.8445040" lon="9.3011410">
	<ele>930.60</ele>
	<time>2024-03-25T12:25:16.000Z</time>
</trkpt>
<trkpt lat="45.8445120" lon="9.3011380">
	<ele>930.60</ele>
	<time>2024-03-25T12:25:17.000Z</time>
</trkpt>
<trkpt lat="45.8445120" lon="9.3011420">
	<ele>930.60</ele>
	<time>2024-03-25T12:25:18.000Z</time>
</trkpt>
<trkpt lat="45.8445100" lon="9.3011400">
	<ele>930.60</ele>
	<time>2024-03-25T12:25:19.000Z</time>
</trkpt>
<trkpt lat="45.8445100" lon="9.3011410">
	<ele>930.80</ele>
	<time>2024-03-25T12:25:20.000Z</time>
</trkpt>
<trkpt lat="45.8445130" lon="9.3011390">
	<ele>930.80</ele>
	<time>2024-03-25T12:25:21.000Z</time>
</trkpt>
<trkpt lat="45.8445220" lon="9.3011330">
	<ele>930.80</ele>
	<time>2024-03-25T12:25:22.000Z</time>
</trkpt>
<trkpt lat="45.8445300" lon="9.3011220">
	<ele>930.60</ele>
	<time>2024-03-25T12:25:23.000Z</time>
</trkpt>
<trkpt lat="45.8445320" lon="9.3011160">
	<ele>930.60</ele>
	<time>2024-03-25T12:25:24.000Z</time>
</trkpt>
<trkpt lat="45.8445430" lon="9.3011040">
	<ele>930.60</ele>
	<time>2024-03-25T12:25:25.000Z</time>
</trkpt>
<trkpt lat="45.8445530" lon="9.3010960">
	<ele>930.40</ele>
	<time>2024-03-25T12:25:26.000Z</time>
</trkpt>
<trkpt lat="45.8445570" lon="9.3010860">
	<ele>930.20</ele>
	<time>2024-03-25T12:25:27.000Z</time>
</trkpt>
<trkpt lat="45.8445650" lon="9.3010720">
	<ele>930.20</ele>
	<time>2024-03-25T12:25:28.000Z</time>
</trkpt>
<trkpt lat="45.8445710" lon="9.3010580">
	<ele>930.00</ele>
	<time>2024-03-25T12:25:29.000Z</time>
</trkpt>
<trkpt lat="45.8445810" lon="9.3010440">
	<ele>929.80</ele>
	<time>2024-03-25T12:25:30.000Z</time>
</trkpt>
<trkpt lat="45.8445930" lon="9.3010270">
	<ele>929.60</ele>
	<time>2024-03-25T12:25:31.000Z</time>
</trkpt>
<trkpt lat="45.8446050" lon="9.3010140">
	<ele>929.60</ele>
	<time>2024-03-25T12:25:32.000Z</time>
</trkpt>
<trkpt lat="45.8446150" lon="9.3010070">
	<ele>929.40</ele>
	<time>2024-03-25T12:25:33.000Z</time>
</trkpt>
<trkpt lat="45.8446150" lon="9.3010050">
	<ele>929.40</ele>
	<time>2024-03-25T12:25:34.000Z</time>
</trkpt>
<trkpt lat="45.8446200" lon="9.3010060">
	<ele>929.20</ele>
	<time>2024-03-25T12:25:35.000Z</time>
</trkpt>
<trkpt lat="45.8446270" lon="9.3010070">
	<ele>929.00</ele>
	<time>2024-03-25T12:25:36.000Z</time>
</trkpt>
<trkpt lat="45.8446370" lon="9.3010060">
	<ele>928.80</ele>
	<time>2024-03-25T12:25:37.000Z</time>
</trkpt>
<trkpt lat="45.8446470" lon="9.3009990">
	<ele>928.60</ele>
	<time>2024-03-25T12:25:38.000Z</time>
</trkpt>
<trkpt lat="45.8446560" lon="9.3009920">
	<ele>928.20</ele>
	<time>2024-03-25T12:25:39.000Z</time>
</trkpt>
<trkpt lat="45.8446640" lon="9.3009810">
	<ele>928.00</ele>
	<time>2024-03-25T12:25:40.000Z</time>
</trkpt>
<trkpt lat="45.8446690" lon="9.3009760">
	<ele>927.80</ele>
	<time>2024-03-25T12:25:41.000Z</time>
</trkpt>
<trkpt lat="45.8446740" lon="9.3009730">
	<ele>927.60</ele>
	<time>2024-03-25T12:25:42.000Z</time>
</trkpt>
<trkpt lat="45.8446790" lon="9.3009720">
	<ele>927.40</ele>
	<time>2024-03-25T12:25:43.000Z</time>
</trkpt>
<trkpt lat="45.8446850" lon="9.3009670">
	<ele>927.00</ele>
	<time>2024-03-25T12:25:44.000Z</time>
</trkpt>
<trkpt lat="45.8446890" lon="9.3009600">
	<ele>926.80</ele>
	<time>2024-03-25T12:25:45.000Z</time>
</trkpt>
<trkpt lat="45.8446960" lon="9.3009520">
	<ele>926.60</ele>
	<time>2024-03-25T12:25:46.000Z</time>
</trkpt>
<trkpt lat="45.8447030" lon="9.3009450">
	<ele>926.40</ele>
	<time>2024-03-25T12:25:47.000Z</time>
</trkpt>
<trkpt lat="45.8447120" lon="9.3009370">
	<ele>926.20</ele>
	<time>2024-03-25T12:25:48.000Z</time>
</trkpt>
<trkpt lat="45.8447220" lon="9.3009250">
	<ele>925.80</ele>
	<time>2024-03-25T12:25:49.000Z</time>
</trkpt>
<trkpt lat="45.8447340" lon="9.3009130">
	<ele>925.40</ele>
	<time>2024-03-25T12:25:50.000Z</time>
</trkpt>
<trkpt lat="45.8447410" lon="9.3009040">
	<ele>925.20</ele>
	<time>2024-03-25T12:25:51.000Z</time>
</trkpt>
<trkpt lat="45.8447460" lon="9.3008970">
	<ele>925.00</ele>
	<time>2024-03-25T12:25:52.000Z</time>
</trkpt>
<trkpt lat="45.8447480" lon="9.3008920">
	<ele>924.60</ele>
	<time>2024-03-25T12:25:53.000Z</time>
</trkpt>
<trkpt lat="45.8447570" lon="9.3008870">
	<ele>924.20</ele>
	<time>2024-03-25T12:25:54.000Z</time>
</trkpt>
<trkpt lat="45.8447630" lon="9.3008780">
	<ele>924.00</ele>
	<time>2024-03-25T12:25:55.000Z</time>
</trkpt>
<trkpt lat="45.8447720" lon="9.3008680">
	<ele>923.80</ele>
	<time>2024-03-25T12:25:56.000Z</time>
</trkpt>
<trkpt lat="45.8447800" lon="9.3008600">
	<ele>923.60</ele>
	<time>2024-03-25T12:25:57.000Z</time>
</trkpt>
<trkpt lat="45.8447840" lon="9.3008560">
	<ele>923.40</ele>
	<time>2024-03-25T12:25:58.000Z</time>
</trkpt>
<trkpt lat="45.8447940" lon="9.3008500">
	<ele>923.00</ele>
	<time>2024-03-25T12:25:59.000Z</time>
</trkpt>
<trkpt lat="45.8448020" lon="9.3008440">
	<ele>922.80</ele>
	<time>2024-03-25T12:26:00.000Z</time>
</trkpt>
<trkpt lat="45.8448110" lon="9.3008360">
	<ele>922.40</ele>
	<time>2024-03-25T12:26:01.000Z</time>
</trkpt>
<trkpt lat="45.8448210" lon="9.3008270">
	<ele>922.20</ele>
	<time>2024-03-25T12:26:02.000Z</time>
</trkpt>
<trkpt lat="45.8448270" lon="9.3008130">
	<ele>922.00</ele>
	<time>2024-03-25T12:26:03.000Z</time>
</trkpt>
<trkpt lat="45.8448350" lon="9.3008000">
	<ele>921.60</ele>
	<time>2024-03-25T12:26:04.000Z</time>
</trkpt>
<trkpt lat="45.8448420" lon="9.3007830">
	<ele>921.20</ele>
	<time>2024-03-25T12:26:05.000Z</time>
</trkpt>
<trkpt lat="45.8448520" lon="9.3007690">
	<ele>921.00</ele>
	<time>2024-03-25T12:26:06.000Z</time>
</trkpt>
<trkpt lat="45.8448560" lon="9.3007620">
	<ele>920.60</ele>
	<time>2024-03-25T12:26:07.000Z</time>
</trkpt>
<trkpt lat="45.8448680" lon="9.3007540">
	<ele>920.40</ele>
	<time>2024-03-25T12:26:08.000Z</time>
</trkpt>
<trkpt lat="45.8448780" lon="9.3007450">
	<ele>920.20</ele>
	<time>2024-03-25T12:26:09.000Z</time>
</trkpt>
<trkpt lat="45.8448880" lon="9.3007340">
	<ele>920.00</ele>
	<time>2024-03-25T12:26:10.000Z</time>
</trkpt>
<trkpt lat="45.8448980" lon="9.3007170">
	<ele>919.80</ele>
	<time>2024-03-25T12:26:11.000Z</time>
</trkpt>
<trkpt lat="45.8449120" lon="9.3007000">
	<ele>919.80</ele>
	<time>2024-03-25T12:26:12.000Z</time>
</trkpt>
<trkpt lat="45.8449260" lon="9.3006850">
	<ele>919.60</ele>
	<time>2024-03-25T12:26:13.000Z</time>
</trkpt>
<trkpt lat="45.8449320" lon="9.3006750">
	<ele>919.40</ele>
	<time>2024-03-25T12:26:14.000Z</time>
</trkpt>
<trkpt lat="45.8449370" lon="9.3006660">
	<ele>919.20</ele>
	<time>2024-03-25T12:26:15.000Z</time>
</trkpt>
<trkpt lat="45.8449420" lon="9.3006550">
	<ele>919.20</ele>
	<time>2024-03-25T12:26:16.000Z</time>
</trkpt>
<trkpt lat="45.8449490" lon="9.3006460">
	<ele>918.80</ele>
	<time>2024-03-25T12:26:17.000Z</time>
</trkpt>
<trkpt lat="45.8449500" lon="9.3006380">
	<ele>918.40</ele>
	<time>2024-03-25T12:26:18.000Z</time>
</trkpt>
<trkpt lat="45.8449500" lon="9.3006300">
	<ele>918.20</ele>
	<time>2024-03-25T12:26:19.000Z</time>
</trkpt>
<trkpt lat="45.8449530" lon="9.3006230">
	<ele>917.80</ele>
	<time>2024-03-25T12:26:20.000Z</time>
</trkpt>
<trkpt lat="45.8449590" lon="9.3006190">
	<ele>917.60</ele>
	<time>2024-03-25T12:26:21.000Z</time>
</trkpt>
<trkpt lat="45.8449660" lon="9.3006150">
	<ele>917.40</ele>
	<time>2024-03-25T12:26:22.000Z</time>
</trkpt>
<trkpt lat="45.8449730" lon="9.3006080">
	<ele>917.40</ele>
	<time>2024-03-25T12:26:23.000Z</time>
</trkpt>
<trkpt lat="45.8449800" lon="9.3005990">
	<ele>917.00</ele>
	<time>2024-03-25T12:26:24.000Z</time>
</trkpt>
<trkpt lat="45.8449870" lon="9.3005920">
	<ele>916.60</ele>
	<time>2024-03-25T12:26:25.000Z</time>
</trkpt>
<trkpt lat="45.8449900" lon="9.3005900">
	<ele>916.20</ele>
	<time>2024-03-25T12:26:26.000Z</time>
</trkpt>
<trkpt lat="45.8449950" lon="9.3005810">
	<ele>916.00</ele>
	<time>2024-03-25T12:26:27.000Z</time>
</trkpt>
<trkpt lat="45.8450000" lon="9.3005730">
	<ele>915.60</ele>
	<time>2024-03-25T12:26:28.000Z</time>
</trkpt>
<trkpt lat="45.8450030" lon="9.3005670">
	<ele>915.40</ele>
	<time>2024-03-25T12:26:29.000Z</time>
</trkpt>
<trkpt lat="45.8450120" lon="9.3005600">
	<ele>915.20</ele>
	<time>2024-03-25T12:26:30.000Z</time>
</trkpt>
<trkpt lat="45.8450220" lon="9.3005470">
	<ele>914.80</ele>
	<time>2024-03-25T12:26:31.000Z</time>
</trkpt>
<trkpt lat="45.8450290" lon="9.3005360">
	<ele>914.40</ele>
	<time>2024-03-25T12:26:32.000Z</time>
</trkpt>
<trkpt lat="45.8450360" lon="9.3005270">
	<ele>914.00</ele>
	<time>2024-03-25T12:26:33.000Z</time>
</trkpt>
<trkpt lat="45.8450430" lon="9.3005190">
	<ele>913.80</ele>
	<time>2024-03-25T12:26:34.000Z</time>
</trkpt>
<trkpt lat="45.8450470" lon="9.3005170">
	<ele>913.60</ele>
	<time>2024-03-25T12:26:35.000Z</time>
</trkpt>
<trkpt lat="45.8450500" lon="9.3005160">
	<ele>913.40</ele>
	<time>2024-03-25T12:26:36.000Z</time>
</trkpt>
<trkpt lat="45.8450560" lon="9.3005160">
	<ele>913.40</ele>
	<time>2024-03-25T12:26:37.000Z</time>
</trkpt>
<trkpt lat="45.8450730" lon="9.3005080">
	<ele>913.20</ele>
	<time>2024-03-25T12:26:38.000Z</time>
</trkpt>
<trkpt lat="45.8450870" lon="9.3004990">
	<ele>912.60</ele>
	<time>2024-03-25T12:26:39.000Z</time>
</trkpt>
<trkpt lat="45.8450950" lon="9.3004960">
	<ele>912.40</ele>
	<time>2024-03-25T12:26:40.000Z</time>
</trkpt>
<trkpt lat="45.8451020" lon="9.3004890">
	<ele>912.20</ele>
	<time>2024-03-25T12:26:41.000Z</time>
</trkpt>
<trkpt lat="45.8451150" lon="9.3004780">
	<ele>911.60</ele>
	<time>2024-03-25T12:26:42.000Z</time>
</trkpt>
<trkpt lat="45.8451250" lon="9.3004660">
	<ele>911.20</ele>
	<time>2024-03-25T12:26:43.000Z</time>
</trkpt>
<trkpt lat="45.8451330" lon="9.3004530">
	<ele>910.80</ele>
	<time>2024-03-25T12:26:44.000Z</time>
</trkpt>
<trkpt lat="45.8451370" lon="9.3004450">
	<ele>910.40</ele>
	<time>2024-03-25T12:26:45.000Z</time>
</trkpt>
<trkpt lat="45.8451450" lon="9.3004350">
	<ele>910.20</ele>
	<time>2024-03-25T12:26:46.000Z</time>
</trkpt>
<trkpt lat="45.8451430" lon="9.3004270">
	<ele>909.80</ele>
	<time>2024-03-25T12:26:47.000Z</time>
</trkpt>
<trkpt lat="45.8451500" lon="9.3004190">
	<ele>909.60</ele>
	<time>2024-03-25T12:26:48.000Z</time>
</trkpt>
<trkpt lat="45.8451540" lon="9.3004080">
	<ele>909.20</ele>
	<time>2024-03-25T12:26:49.000Z</time>
</trkpt>
<trkpt lat="45.8451640" lon="9.3004000">
	<ele>908.80</ele>
	<time>2024-03-25T12:26:50.000Z</time>
</trkpt>
<trkpt lat="45.8451660" lon="9.3003970">
	<ele>908.60</ele>
	<time>2024-03-25T12:26:51.000Z</time>
</trkpt>
<trkpt lat="45.8451760" lon="9.3003910">
	<ele>908.20</ele>
	<time>2024-03-25T12:26:52.000Z</time>
</trkpt>
<trkpt lat="45.8451760" lon="9.3003910">
	<ele>907.60</ele>
	<time>2024-03-25T12:26:53.000Z</time>
</trkpt>
<trkpt lat="45.8451870" lon="9.3003880">
	<ele>907.40</ele>
	<time>2024-03-25T12:26:54.000Z</time>
</trkpt>
<trkpt lat="45.8451970" lon="9.3003780">
	<ele>907.00</ele>
	<time>2024-03-25T12:26:55.000Z</time>
</trkpt>
<trkpt lat="45.8451980" lon="9.3003660">
	<ele>906.80</ele>
	<time>2024-03-25T12:26:56.000Z</time>
</trkpt>
<trkpt lat="45.8452000" lon="9.3003550">
	<ele>906.40</ele>
	<time>2024-03-25T12:26:57.000Z</time>
</trkpt>
<trkpt lat="45.8452000" lon="9.3003500">
	<ele>906.00</ele>
	<time>2024-03-25T12:26:58.000Z</time>
</trkpt>
<trkpt lat="45.8452000" lon="9.3003470">
	<ele>905.80</ele>
	<time>2024-03-25T12:26:59.000Z</time>
</trkpt>
<trkpt lat="45.8451970" lon="9.3003430">
	<ele>905.60</ele>
	<time>2024-03-25T12:27:00.000Z</time>
</trkpt>
<trkpt lat="45.8451940" lon="9.3003410">
	<ele>905.40</ele>
	<time>2024-03-25T12:27:01.000Z</time>
</trkpt>
<trkpt lat="45.8451930" lon="9.3003420">
	<ele>905.20</ele>
	<time>2024-03-25T12:27:02.000Z</time>
</trkpt>
<trkpt lat="45.8451910" lon="9.3003420">
	<ele>905.20</ele>
	<time>2024-03-25T12:27:03.000Z</time>
</trkpt>
<trkpt lat="45.8451880" lon="9.3003400">
	<ele>905.20</ele>
	<time>2024-03-25T12:27:04.000Z</time>
</trkpt>
<trkpt lat="45.8451880" lon="9.3003400">
	<ele>905.00</ele>
	<time>2024-03-25T12:27:05.000Z</time>
</trkpt>
<trkpt lat="45.8451880" lon="9.3003410">
	<ele>905.00</ele>
	<time>2024-03-25T12:27:06.000Z</time>
</trkpt>
<trkpt lat="45.8451880" lon="9.3003400">
	<ele>904.80</ele>
	<time>2024-03-25T12:27:07.000Z</time>
</trkpt>
<trkpt lat="45.8451890" lon="9.3003400">
	<ele>904.80</ele>
	<time>2024-03-25T12:27:08.000Z</time>
</trkpt>
<trkpt lat="45.8451940" lon="9.3003400">
	<ele>904.60</ele>
	<time>2024-03-25T12:27:09.000Z</time>
</trkpt>
<trkpt lat="45.8451960" lon="9.3003450">
	<ele>904.60</ele>
	<time>2024-03-25T12:27:10.000Z</time>
</trkpt>
<trkpt lat="45.8451970" lon="9.3003480">
	<ele>904.40</ele>
	<time>2024-03-25T12:27:11.000Z</time>
</trkpt>
<trkpt lat="45.8451970" lon="9.3003500">
	<ele>904.40</ele>
	<time>2024-03-25T12:27:12.000Z</time>
</trkpt>
<trkpt lat="45.8451970" lon="9.3003500">
	<ele>904.20</ele>
	<time>2024-03-25T12:27:13.000Z</time>
</trkpt>
<trkpt lat="45.8451970" lon="9.3003500">
	<ele>904.00</ele>
	<time>2024-03-25T12:27:14.000Z</time>
</trkpt>
<trkpt lat="45.8451970" lon="9.3003500">
	<ele>904.00</ele>
	<time>2024-03-25T12:27:15.000Z</time>
</trkpt>
<trkpt lat="45.8451970" lon="9.3003500">
	<ele>904.00</ele>
	<time>2024-03-25T12:27:16.000Z</time>
</trkpt>
<trkpt lat="45.8451970" lon="9.3003500">
	<ele>904.00</ele>
	<time>2024-03-25T12:27:17.000Z</time>
</trkpt>
<trkpt lat="45.8451970" lon="9.3003500">
	<ele>904.00</ele>
	<time>2024-03-25T12:27:18.000Z</time>
</trkpt>
<trkpt lat="45.8451970" lon="9.3003500">
	<ele>904.00</ele>
	<time>2024-03-25T12:27:19.000Z</time>
</trkpt>
<trkpt lat="45.8451970" lon="9.3003500">
	<ele>904.00</ele>
	<time>2024-03-25T12:27:20.000Z</time>
</trkpt>
<trkpt lat="45.8451970" lon="9.3003490">
	<ele>904.00</ele>
	<time>2024-03-25T12:27:21.000Z</time>
</trkpt>
<trkpt lat="45.8451970" lon="9.3003490">
	<ele>904.00</ele>
	<time>2024-03-25T12:27:22.000Z</time>
</trkpt>
<trkpt lat="45.8451970" lon="9.3003480">
	<ele>903.80</ele>
	<time>2024-03-25T12:27:23.000Z</time>
</trkpt>
<trkpt lat="45.8451970" lon="9.3003450">
	<ele>903.80</ele>
	<time>2024-03-25T12:27:24.000Z</time>
</trkpt>
<trkpt lat="45.8451970" lon="9.3003450">
	<ele>903.80</ele>
	<time>2024-03-25T12:27:25.000Z</time>
</trkpt>
<trkpt lat="45.8451970" lon="9.3003430">
	<ele>903.80</ele>
	<time>2024-03-25T12:27:26.000Z</time>
</trkpt>
<trkpt lat="45.8451970" lon="9.3003410">
	<ele>903.80</ele>
	<time>2024-03-25T12:27:27.000Z</time>
</trkpt>
<trkpt lat="45.8451980" lon="9.3003400">
	<ele>903.80</ele>
	<time>2024-03-25T12:27:28.000Z</time>
</trkpt>
<trkpt lat="45.8451980" lon="9.3003400">
	<ele>903.80</ele>
	<time>2024-03-25T12:27:29.000Z</time>
</trkpt>
<trkpt lat="45.8451990" lon="9.3003400">
	<ele>903.80</ele>
	<time>2024-03-25T12:27:30.000Z</time>
</trkpt>
<trkpt lat="45.8451990" lon="9.3003400">
	<ele>903.80</ele>
	<time>2024-03-25T12:27:31.000Z</time>
</trkpt>
<trkpt lat="45.8451990" lon="9.3003400">
	<ele>903.80</ele>
	<time>2024-03-25T12:27:32.000Z</time>
</trkpt>
<trkpt lat="45.8451990" lon="9.3003390">
	<ele>903.60</ele>
	<time>2024-03-25T12:27:33.000Z</time>
</trkpt>
<trkpt lat="45.8451990" lon="9.3003390">
	<ele>903.60</ele>
	<time>2024-03-25T12:27:34.000Z</time>
</trkpt>
<trkpt lat="45.8451990" lon="9.3003390">
	<ele>903.80</ele>
	<time>2024-03-25T12:27:35.000Z</time>
</trkpt>
<trkpt lat="45.8451990" lon="9.3003390">
	<ele>903.80</ele>
	<time>2024-03-25T12:27:36.000Z</time>
</trkpt>
<trkpt lat="45.8451990" lon="9.3003380">
	<ele>903.80</ele>
	<time>2024-03-25T12:27:37.000Z</time>
</trkpt>
<trkpt lat="45.8451990" lon="9.3003380">
	<ele>904.00</ele>
	<time>2024-03-25T12:27:38.000Z</time>
</trkpt>
<trkpt lat="45.8451990" lon="9.3003380">
	<ele>904.00</ele>
	<time>2024-03-25T12:27:39.000Z</time>
</trkpt>
<trkpt lat="45.8451990" lon="9.3003380">
	<ele>904.00</ele>
	<time>2024-03-25T12:27:40.000Z</time>
</trkpt>
<trkpt lat="45.8451990" lon="9.3003380">
	<ele>904.00</ele>
	<time>2024-03-25T12:27:41.000Z</time>
</trkpt>
<trkpt lat="45.8451990" lon="9.3003370">
	<ele>904.00</ele>
	<time>2024-03-25T12:27:42.000Z</time>
</trkpt>
<trkpt lat="45.8452000" lon="9.3003370">
	<ele>904.00</ele>
	<time>2024-03-25T12:27:43.000Z</time>
</trkpt>
<trkpt lat="45.8452000" lon="9.3003370">
	<ele>904.00</ele>
	<time>2024-03-25T12:27:44.000Z</time>
</trkpt>
<trkpt lat="45.8452000" lon="9.3003370">
	<ele>904.00</ele>
	<time>2024-03-25T12:27:45.000Z</time>
</trkpt>
<trkpt lat="45.8452000" lon="9.3003370">
	<ele>904.00</ele>
	<time>2024-03-25T12:27:46.000Z</time>
</trkpt>
<trkpt lat="45.8452010" lon="9.3003370">
	<ele>904.00</ele>
	<time>2024-03-25T12:27:47.000Z</time>
</trkpt>
<trkpt lat="45.8452010" lon="9.3003360">
	<ele>904.00</ele>
	<time>2024-03-25T12:27:48.000Z</time>
</trkpt>
<trkpt lat="45.8452010" lon="9.3003360">
	<ele>904.00</ele>
	<time>2024-03-25T12:27:49.000Z</time>
</trkpt>
<trkpt lat="45.8452010" lon="9.3003350">
	<ele>904.00</ele>
	<time>2024-03-25T12:27:50.000Z</time>
</trkpt>
<trkpt lat="45.8452010" lon="9.3003340">
	<ele>904.00</ele>
	<time>2024-03-25T12:27:51.000Z</time>
</trkpt>
<trkpt lat="45.8452010" lon="9.3003340">
	<ele>904.00</ele>
	<time>2024-03-25T12:27:52.000Z</time>
</trkpt>
<trkpt lat="45.8452010" lon="9.3003340">
	<ele>904.00</ele>
	<time>2024-03-25T12:27:53.000Z</time>
</trkpt>
<trkpt lat="45.8452010" lon="9.3003350">
	<ele>904.00</ele>
	<time>2024-03-25T12:27:54.000Z</time>
</trkpt>
<trkpt lat="45.8452010" lon="9.3003350">
	<ele>904.00</ele>
	<time>2024-03-25T12:27:55.000Z</time>
</trkpt>
<trkpt lat="45.8452010" lon="9.3003360">
	<ele>904.00</ele>
	<time>2024-03-25T12:27:56.000Z</time>
</trkpt>
<trkpt lat="45.8452010" lon="9.3003370">
	<ele>904.00</ele>
	<time>2024-03-25T12:27:57.000Z</time>
</trkpt>
<trkpt lat="45.8452010" lon="9.3003370">
	<ele>904.00</ele>
	<time>2024-03-25T12:27:58.000Z</time>
</trkpt>
<trkpt lat="45.8452010" lon="9.3003370">
	<ele>904.00</ele>
	<time>2024-03-25T12:27:59.000Z</time>
</trkpt>
<trkpt lat="45.8452010" lon="9.3003370">
	<ele>904.00</ele>
	<time>2024-03-25T12:28:00.000Z</time>
</trkpt>
<trkpt lat="45.8452010" lon="9.3003380">
	<ele>904.00</ele>
	<time>2024-03-25T12:28:01.000Z</time>
</trkpt>
<trkpt lat="45.8452010" lon="9.3003380">
	<ele>904.00</ele>
	<time>2024-03-25T12:28:02.000Z</time>
</trkpt>
<trkpt lat="45.8452010" lon="9.3003380">
	<ele>904.00</ele>
	<time>2024-03-25T12:28:03.000Z</time>
</trkpt>
<trkpt lat="45.8452010" lon="9.3003380">
	<ele>904.00</ele>
	<time>2024-03-25T12:28:04.000Z</time>
</trkpt>
<trkpt lat="45.8452020" lon="9.3003380">
	<ele>904.00</ele>
	<time>2024-03-25T12:28:05.000Z</time>
</trkpt>
<trkpt lat="45.8452020" lon="9.3003380">
	<ele>904.00</ele>
	<time>2024-03-25T12:28:06.000Z</time>
</trkpt>
<trkpt lat="45.8452020" lon="9.3003380">
	<ele>904.00</ele>
	<time>2024-03-25T12:28:07.000Z</time>
</trkpt>
<trkpt lat="45.8452020" lon="9.3003380">
	<ele>903.80</ele>
	<time>2024-03-25T12:28:08.000Z</time>
</trkpt>
<trkpt lat="45.8452020" lon="9.3003380">
	<ele>903.80</ele>
	<time>2024-03-25T12:28:09.000Z</time>
</trkpt>
<trkpt lat="45.8452020" lon="9.3003380">
	<ele>903.80</ele>
	<time>2024-03-25T12:28:10.000Z</time>
</trkpt>
<trkpt lat="45.8452020" lon="9.3003380">
	<ele>903.80</ele>
	<time>2024-03-25T12:28:11.000Z</time>
</trkpt>
<trkpt lat="45.8452020" lon="9.3003380">
	<ele>903.80</ele>
	<time>2024-03-25T12:28:12.000Z</time>
</trkpt>
<trkpt lat="45.8452020" lon="9.3003380">
	<ele>903.80</ele>
	<time>2024-03-25T12:28:13.000Z</time>
</trkpt>
<trkpt lat="45.8452020" lon="9.3003400">
	<ele>903.80</ele>
	<time>2024-03-25T12:28:14.000Z</time>
</trkpt>
<trkpt lat="45.8452020" lon="9.3003430">
	<ele>903.80</ele>
	<time>2024-03-25T12:28:15.000Z</time>
</trkpt>
<trkpt lat="45.8452010" lon="9.3003470">
	<ele>903.80</ele>
	<time>2024-03-25T12:28:16.000Z</time>
</trkpt>
<trkpt lat="45.8452010" lon="9.3003510">
	<ele>903.80</ele>
	<time>2024-03-25T12:28:17.000Z</time>
</trkpt>
<trkpt lat="45.8452010" lon="9.3003540">
	<ele>903.80</ele>
	<time>2024-03-25T12:28:18.000Z</time>
</trkpt>
<trkpt lat="45.8452010" lon="9.3003560">
	<ele>903.80</ele>
	<time>2024-03-25T12:28:19.000Z</time>
</trkpt>
<trkpt lat="45.8452000" lon="9.3003570">
	<ele>903.80</ele>
	<time>2024-03-25T12:28:20.000Z</time>
</trkpt>
<trkpt lat="45.8452000" lon="9.3003590">
	<ele>903.80</ele>
	<time>2024-03-25T12:28:21.000Z</time>
</trkpt>
<trkpt lat="45.8452000" lon="9.3003620">
	<ele>903.40</ele>
	<time>2024-03-25T12:28:22.000Z</time>
</trkpt>
<trkpt lat="45.8452000" lon="9.3003630">
	<ele>903.20</ele>
	<time>2024-03-25T12:28:23.000Z</time>
</trkpt>
<trkpt lat="45.8451990" lon="9.3003640">
	<ele>903.20</ele>
	<time>2024-03-25T12:28:24.000Z</time>
</trkpt>
<trkpt lat="45.8451980" lon="9.3003660">
	<ele>903.00</ele>
	<time>2024-03-25T12:28:25.000Z</time>
</trkpt>
<trkpt lat="45.8451970" lon="9.3003680">
	<ele>903.00</ele>
	<time>2024-03-25T12:28:26.000Z</time>
</trkpt>
<trkpt lat="45.8451960" lon="9.3003690">
	<ele>903.00</ele>
	<time>2024-03-25T12:28:27.000Z</time>
</trkpt>
<trkpt lat="45.8451960" lon="9.3003700">
	<ele>903.00</ele>
	<time>2024-03-25T12:28:28.000Z</time>
</trkpt>
<trkpt lat="45.8451960" lon="9.3003700">
	<ele>903.00</ele>
	<time>2024-03-25T12:28:29.000Z</time>
</trkpt>
<trkpt lat="45.8451960" lon="9.3003700">
	<ele>903.00</ele>
	<time>2024-03-25T12:28:30.000Z</time>
</trkpt>
<trkpt lat="45.8451960" lon="9.3003700">
	<ele>903.20</ele>
	<time>2024-03-25T12:28:31.000Z</time>
</trkpt>
<trkpt lat="45.8451960" lon="9.3003700">
	<ele>903.60</ele>
	<time>2024-03-25T12:28:32.000Z</time>
</trkpt>
<trkpt lat="45.8451960" lon="9.3003700">
	<ele>903.80</ele>
	<time>2024-03-25T12:28:33.000Z</time>
</trkpt>
<trkpt lat="45.8451960" lon="9.3003700">
	<ele>904.00</ele>
	<time>2024-03-25T12:28:34.000Z</time>
</trkpt>
<trkpt lat="45.8451960" lon="9.3003700">
	<ele>904.20</ele>
	<time>2024-03-25T12:28:35.000Z</time>
</trkpt>
<trkpt lat="45.8451960" lon="9.3003700">
	<ele>904.20</ele>
	<time>2024-03-25T12:28:36.000Z</time>
</trkpt>
<trkpt lat="45.8451960" lon="9.3003700">
	<ele>904.40</ele>
	<time>2024-03-25T12:28:37.000Z</time>
</trkpt>
<trkpt lat="45.8451960" lon="9.3003700">
	<ele>904.20</ele>
	<time>2024-03-25T12:28:38.000Z</time>
</trkpt>
<trkpt lat="45.8451960" lon="9.3003690">
	<ele>903.60</ele>
	<time>2024-03-25T12:28:39.000Z</time>
</trkpt>
<trkpt lat="45.8451960" lon="9.3003680">
	<ele>903.20</ele>
	<time>2024-03-25T12:28:40.000Z</time>
</trkpt>
<trkpt lat="45.8451960" lon="9.3003680">
	<ele>903.00</ele>
	<time>2024-03-25T12:28:41.000Z</time>
</trkpt>
<trkpt lat="45.8451960" lon="9.3003680">
	<ele>902.80</ele>
	<time>2024-03-25T12:28:42.000Z</time>
</trkpt>
<trkpt lat="45.8451960" lon="9.3003680">
	<ele>902.80</ele>
	<time>2024-03-25T12:28:43.000Z</time>
</trkpt>
<trkpt lat="45.8451970" lon="9.3003670">
	<ele>902.60</ele>
	<time>2024-03-25T12:28:44.000Z</time>
</trkpt>
<trkpt lat="45.8451980" lon="9.3003670">
	<ele>902.60</ele>
	<time>2024-03-25T12:28:45.000Z</time>
</trkpt>
<trkpt lat="45.8452070" lon="9.3003590">
	<ele>902.20</ele>
	<time>2024-03-25T12:28:46.000Z</time>
</trkpt>
<trkpt lat="45.8452270" lon="9.3003530">
	<ele>902.00</ele>
	<time>2024-03-25T12:28:47.000Z</time>
</trkpt>
<trkpt lat="45.8452410" lon="9.3003500">
	<ele>901.80</ele>
	<time>2024-03-25T12:28:48.000Z</time>
</trkpt>
<trkpt lat="45.8452540" lon="9.3003490">
	<ele>901.60</ele>
	<time>2024-03-25T12:28:49.000Z</time>
</trkpt>
<trkpt lat="45.8452660" lon="9.3003540">
	<ele>901.60</ele>
	<time>2024-03-25T12:28:50.000Z</time>
</trkpt>
<trkpt lat="45.8452790" lon="9.3003630">
	<ele>901.20</ele>
	<time>2024-03-25T12:28:51.000Z</time>
</trkpt>
<trkpt lat="45.8452860" lon="9.3003710">
	<ele>901.00</ele>
	<time>2024-03-25T12:28:52.000Z</time>
</trkpt>
<trkpt lat="45.8452960" lon="9.3003740">
	<ele>900.80</ele>
	<time>2024-03-25T12:28:53.000Z</time>
</trkpt>
<trkpt lat="45.8453070" lon="9.3003750">
	<ele>900.40</ele>
	<time>2024-03-25T12:28:54.000Z</time>
</trkpt>
<trkpt lat="45.8453190" lon="9.3003750">
	<ele>900.00</ele>
	<time>2024-03-25T12:28:55.000Z</time>
</trkpt>
<trkpt lat="45.8453230" lon="9.3003800">
	<ele>899.60</ele>
	<time>2024-03-25T12:28:56.000Z</time>
</trkpt>
<trkpt lat="45.8453240" lon="9.3003840">
	<ele>899.40</ele>
	<time>2024-03-25T12:28:57.000Z</time>
</trkpt>
<trkpt lat="45.8453180" lon="9.3003870">
	<ele>899.20</ele>
	<time>2024-03-25T12:28:58.000Z</time>
</trkpt>
<trkpt lat="45.8453120" lon="9.3003960">
	<ele>899.20</ele>
	<time>2024-03-25T12:28:59.000Z</time>
</trkpt>
<trkpt lat="45.8453100" lon="9.3004090">
	<ele>898.80</ele>
	<time>2024-03-25T12:29:00.000Z</time>
</trkpt>
<trkpt lat="45.8453070" lon="9.3004260">
	<ele>898.40</ele>
	<time>2024-03-25T12:29:01.000Z</time>
</trkpt>
<trkpt lat="45.8453100" lon="9.3004420">
	<ele>898.20</ele>
	<time>2024-03-25T12:29:02.000Z</time>
</trkpt>
<trkpt lat="45.8453130" lon="9.3004570">
	<ele>898.00</ele>
	<time>2024-03-25T12:29:03.000Z</time>
</trkpt>
<trkpt lat="45.8453140" lon="9.3004640">
	<ele>897.60</ele>
	<time>2024-03-25T12:29:04.000Z</time>
</trkpt>
<trkpt lat="45.8453120" lon="9.3004670">
	<ele>897.40</ele>
	<time>2024-03-25T12:29:05.000Z</time>
</trkpt>
<trkpt lat="45.8453090" lon="9.3004770">
	<ele>897.20</ele>
	<time>2024-03-25T12:29:06.000Z</time>
</trkpt>
<trkpt lat="45.8453050" lon="9.3004900">
	<ele>896.80</ele>
	<time>2024-03-25T12:29:07.000Z</time>
</trkpt>
<trkpt lat="45.8453070" lon="9.3005060">
	<ele>896.60</ele>
	<time>2024-03-25T12:29:08.000Z</time>
</trkpt>
<trkpt lat="45.8453070" lon="9.3005200">
	<ele>896.40</ele>
	<time>2024-03-25T12:29:09.000Z</time>
</trkpt>
<trkpt lat="45.8453100" lon="9.3005360">
	<ele>896.00</ele>
	<time>2024-03-25T12:29:10.000Z</time>
</trkpt>
<trkpt lat="45.8453140" lon="9.3005450">
	<ele>895.80</ele>
	<time>2024-03-25T12:29:11.000Z</time>
</trkpt>
<trkpt lat="45.8453180" lon="9.3005480">
	<ele>895.40</ele>
	<time>2024-03-25T12:29:12.000Z</time>
</trkpt>
<trkpt lat="45.8453140" lon="9.3005610">
	<ele>895.20</ele>
	<time>2024-03-25T12:29:13.000Z</time>
</trkpt>
<trkpt lat="45.8453040" lon="9.3005760">
	<ele>895.00</ele>
	<time>2024-03-25T12:29:14.000Z</time>
</trkpt>
<trkpt lat="45.8452980" lon="9.3005870">
	<ele>894.80</ele>
	<time>2024-03-25T12:29:15.000Z</time>
</trkpt>
<trkpt lat="45.8452930" lon="9.3006000">
	<ele>894.60</ele>
	<time>2024-03-25T12:29:16.000Z</time>
</trkpt>
<trkpt lat="45.8452900" lon="9.3006100">
	<ele>894.20</ele>
	<time>2024-03-25T12:29:17.000Z</time>
</trkpt>
<trkpt lat="45.8452830" lon="9.3006240">
	<ele>894.00</ele>
	<time>2024-03-25T12:29:18.000Z</time>
</trkpt>
<trkpt lat="45.8452810" lon="9.3006410">
	<ele>893.80</ele>
	<time>2024-03-25T12:29:19.000Z</time>
</trkpt>
<trkpt lat="45.8452770" lon="9.3006600">
	<ele>893.60</ele>
	<time>2024-03-25T12:29:20.000Z</time>
</trkpt>
<trkpt lat="45.8452670" lon="9.3006750">
	<ele>893.60</ele>
	<time>2024-03-25T12:29:21.000Z</time>
</trkpt>
<trkpt lat="45.8452590" lon="9.3006920">
	<ele>893.40</ele>
	<time>2024-03-25T12:29:22.000Z</time>
</trkpt>
<trkpt lat="45.8452560" lon="9.3007060">
	<ele>893.20</ele>
	<time>2024-03-25T12:29:23.000Z</time>
</trkpt>
<trkpt lat="45.8452580" lon="9.3007190">
	<ele>893.00</ele>
	<time>2024-03-25T12:29:24.000Z</time>
</trkpt>
<trkpt lat="45.8452610" lon="9.3007250">
	<ele>892.80</ele>
	<time>2024-03-25T12:29:25.000Z</time>
</trkpt>
<trkpt lat="45.8452650" lon="9.3007340">
	<ele>892.80</ele>
	<time>2024-03-25T12:29:26.000Z</time>
</trkpt>
<trkpt lat="45.8452640" lon="9.3007450">
	<ele>892.60</ele>
	<time>2024-03-25T12:29:27.000Z</time>
</trkpt>
<trkpt lat="45.8452620" lon="9.3007570">
	<ele>892.40</ele>
	<time>2024-03-25T12:29:28.000Z</time>
</trkpt>
<trkpt lat="45.8452560" lon="9.3007700">
	<ele>892.00</ele>
	<time>2024-03-25T12:29:29.000Z</time>
</trkpt>
<trkpt lat="45.8452600" lon="9.3007800">
	<ele>891.80</ele>
	<time>2024-03-25T12:29:30.000Z</time>
</trkpt>
<trkpt lat="45.8452590" lon="9.3007860">
	<ele>891.40</ele>
	<time>2024-03-25T12:29:31.000Z</time>
</trkpt>
<trkpt lat="45.8452590" lon="9.3007930">
	<ele>891.20</ele>
	<time>2024-03-25T12:29:32.000Z</time>
</trkpt>
<trkpt lat="45.8452570" lon="9.3007980">
	<ele>891.20</ele>
	<time>2024-03-25T12:29:33.000Z</time>
</trkpt>
<trkpt lat="45.8452540" lon="9.3008050">
	<ele>891.00</ele>
	<time>2024-03-25T12:29:34.000Z</time>
</trkpt>
<trkpt lat="45.8452510" lon="9.3008060">
	<ele>890.80</ele>
	<time>2024-03-25T12:29:35.000Z</time>
</trkpt>
<trkpt lat="45.8452500" lon="9.3008020">
	<ele>890.40</ele>
	<time>2024-03-25T12:29:36.000Z</time>
</trkpt>
<trkpt lat="45.8452540" lon="9.3007960">
	<ele>890.20</ele>
	<time>2024-03-25T12:29:37.000Z</time>
</trkpt>
<trkpt lat="45.8452600" lon="9.3007890">
	<ele>889.80</ele>
	<time>2024-03-25T12:29:38.000Z</time>
</trkpt>
<trkpt lat="45.8452720" lon="9.3007850">
	<ele>889.80</ele>
	<time>2024-03-25T12:29:39.000Z</time>
</trkpt>
<trkpt lat="45.8452800" lon="9.3007760">
	<ele>889.40</ele>
	<time>2024-03-25T12:29:40.000Z</time>
</trkpt>
<trkpt lat="45.8452840" lon="9.3007670">
	<ele>889.20</ele>
	<time>2024-03-25T12:29:41.000Z</time>
</trkpt>
<trkpt lat="45.8452870" lon="9.3007610">
	<ele>888.80</ele>
	<time>2024-03-25T12:29:42.000Z</time>
</trkpt>
<trkpt lat="45.8452950" lon="9.3007570">
	<ele>888.60</ele>
	<time>2024-03-25T12:29:43.000Z</time>
</trkpt>
<trkpt lat="45.8453010" lon="9.3007520">
	<ele>888.40</ele>
	<time>2024-03-25T12:29:44.000Z</time>
</trkpt>
<trkpt lat="45.8453120" lon="9.3007460">
	<ele>888.20</ele>
	<time>2024-03-25T12:29:45.000Z</time>
</trkpt>
<trkpt lat="45.8453210" lon="9.3007410">
	<ele>887.80</ele>
	<time>2024-03-25T12:29:46.000Z</time>
</trkpt>
<trkpt lat="45.8453310" lon="9.3007420">
	<ele>887.40</ele>
	<time>2024-03-25T12:29:47.000Z</time>
</trkpt>
<trkpt lat="45.8453410" lon="9.3007470">
	<ele>887.20</ele>
	<time>2024-03-25T12:29:48.000Z</time>
</trkpt>
<trkpt lat="45.8453490" lon="9.3007470">
	<ele>886.80</ele>
	<time>2024-03-25T12:29:49.000Z</time>
</trkpt>
<trkpt lat="45.8453630" lon="9.3007520">
	<ele>886.60</ele>
	<time>2024-03-25T12:29:50.000Z</time>
</trkpt>
<trkpt lat="45.8453800" lon="9.3007520">
	<ele>886.00</ele>
	<time>2024-03-25T12:29:51.000Z</time>
</trkpt>
<trkpt lat="45.8453900" lon="9.3007450">
	<ele>885.80</ele>
	<time>2024-03-25T12:29:52.000Z</time>
</trkpt>
<trkpt lat="45.8453970" lon="9.3007380">
	<ele>885.40</ele>
	<time>2024-03-25T12:29:53.000Z</time>
</trkpt>
<trkpt lat="45.8454100" lon="9.3007270">
	<ele>885.20</ele>
	<time>2024-03-25T12:29:54.000Z</time>
</trkpt>
<trkpt lat="45.8454220" lon="9.3007200">
	<ele>885.00</ele>
	<time>2024-03-25T12:29:55.000Z</time>
</trkpt>
<trkpt lat="45.8454260" lon="9.3007120">
	<ele>884.80</ele>
	<time>2024-03-25T12:29:56.000Z</time>
</trkpt>
<trkpt lat="45.8454300" lon="9.3007040">
	<ele>884.40</ele>
	<time>2024-03-25T12:29:57.000Z</time>
</trkpt>
<trkpt lat="45.8454370" lon="9.3007000">
	<ele>884.20</ele>
	<time>2024-03-25T12:29:58.000Z</time>
</trkpt>
<trkpt lat="45.8454460" lon="9.3006940">
	<ele>884.20</ele>
	<time>2024-03-25T12:29:59.000Z</time>
</trkpt>
<trkpt lat="45.8454580" lon="9.3006850">
	<ele>884.00</ele>
	<time>2024-03-25T12:30:00.000Z</time>
</trkpt>
<trkpt lat="45.8454680" lon="9.3006740">
	<ele>884.00</ele>
	<time>2024-03-25T12:30:01.000Z</time>
</trkpt>
<trkpt lat="45.8454850" lon="9.3006660">
	<ele>883.60</ele>
	<time>2024-03-25T12:30:02.000Z</time>
</trkpt>
<trkpt lat="45.8455010" lon="9.3006710">
	<ele>883.40</ele>
	<time>2024-03-25T12:30:03.000Z</time>
</trkpt>
<trkpt lat="45.8455160" lon="9.3006740">
	<ele>883.00</ele>
	<time>2024-03-25T12:30:04.000Z</time>
</trkpt>
<trkpt lat="45.8455260" lon="9.3006720">
	<ele>882.80</ele>
	<time>2024-03-25T12:30:05.000Z</time>
</trkpt>
<trkpt lat="45.8455410" lon="9.3006650">
	<ele>882.40</ele>
	<time>2024-03-25T12:30:06.000Z</time>
</trkpt>
<trkpt lat="45.8455520" lon="9.3006500">
	<ele>882.20</ele>
	<time>2024-03-25T12:30:07.000Z</time>
</trkpt>
<trkpt lat="45.8455600" lon="9.3006390">
	<ele>881.80</ele>
	<time>2024-03-25T12:30:08.000Z</time>
</trkpt>
<trkpt lat="45.8455710" lon="9.3006300">
	<ele>881.60</ele>
	<time>2024-03-25T12:30:09.000Z</time>
</trkpt>
<trkpt lat="45.8455790" lon="9.3006200">
	<ele>881.40</ele>
	<time>2024-03-25T12:30:10.000Z</time>
</trkpt>
<trkpt lat="45.8455870" lon="9.3006110">
	<ele>881.00</ele>
	<time>2024-03-25T12:30:11.000Z</time>
</trkpt>
<trkpt lat="45.8455910" lon="9.3006110">
	<ele>880.80</ele>
	<time>2024-03-25T12:30:12.000Z</time>
</trkpt>
<trkpt lat="45.8455920" lon="9.3006100">
	<ele>880.60</ele>
	<time>2024-03-25T12:30:13.000Z</time>
</trkpt>
<trkpt lat="45.8455940" lon="9.3006090">
	<ele>880.20</ele>
	<time>2024-03-25T12:30:14.000Z</time>
</trkpt>
<trkpt lat="45.8456010" lon="9.3006120">
	<ele>879.60</ele>
	<time>2024-03-25T12:30:15.000Z</time>
</trkpt>
<trkpt lat="45.8456120" lon="9.3006160">
	<ele>879.40</ele>
	<time>2024-03-25T12:30:16.000Z</time>
</trkpt>
<trkpt lat="45.8456220" lon="9.3006180">
	<ele>879.00</ele>
	<time>2024-03-25T12:30:17.000Z</time>
</trkpt>
<trkpt lat="45.8456260" lon="9.3006200">
	<ele>878.60</ele>
	<time>2024-03-25T12:30:18.000Z</time>
</trkpt>
<trkpt lat="45.8456270" lon="9.3006240">
	<ele>878.40</ele>
	<time>2024-03-25T12:30:19.000Z</time>
</trkpt>
<trkpt lat="45.8456330" lon="9.3006200">
	<ele>878.20</ele>
	<time>2024-03-25T12:30:20.000Z</time>
</trkpt>
<trkpt lat="45.8456370" lon="9.3006150">
	<ele>878.00</ele>
	<time>2024-03-25T12:30:21.000Z</time>
</trkpt>
<trkpt lat="45.8456380" lon="9.3006090">
	<ele>877.80</ele>
	<time>2024-03-25T12:30:22.000Z</time>
</trkpt>
<trkpt lat="45.8456430" lon="9.3006010">
	<ele>877.80</ele>
	<time>2024-03-25T12:30:23.000Z</time>
</trkpt>
<trkpt lat="45.8456530" lon="9.3005850">
	<ele>877.80</ele>
	<time>2024-03-25T12:30:24.000Z</time>
</trkpt>
<trkpt lat="45.8456620" lon="9.3005740">
	<ele>877.60</ele>
	<time>2024-03-25T12:30:25.000Z</time>
</trkpt>
<trkpt lat="45.8456770" lon="9.3005580">
	<ele>877.60</ele>
	<time>2024-03-25T12:30:26.000Z</time>
</trkpt>
<trkpt lat="45.8456870" lon="9.3005530">
	<ele>877.60</ele>
	<time>2024-03-25T12:30:27.000Z</time>
</trkpt>
<trkpt lat="45.8456980" lon="9.3005470">
	<ele>877.40</ele>
	<time>2024-03-25T12:30:28.000Z</time>
</trkpt>
<trkpt lat="45.8457020" lon="9.3005440">
	<ele>877.40</ele>
	<time>2024-03-25T12:30:29.000Z</time>
</trkpt>
<trkpt lat="45.8457130" lon="9.3005480">
	<ele>877.00</ele>
	<time>2024-03-25T12:30:30.000Z</time>
</trkpt>
<trkpt lat="45.8457140" lon="9.3005480">
	<ele>876.80</ele>
	<time>2024-03-25T12:30:31.000Z</time>
</trkpt>
<trkpt lat="45.8457280" lon="9.3005540">
	<ele>876.40</ele>
	<time>2024-03-25T12:30:32.000Z</time>
</trkpt>
<trkpt lat="45.8457460" lon="9.3005570">
	<ele>876.20</ele>
	<time>2024-03-25T12:30:33.000Z</time>
</trkpt>
<trkpt lat="45.8457630" lon="9.3005570">
	<ele>876.00</ele>
	<time>2024-03-25T12:30:34.000Z</time>
</trkpt>
<trkpt lat="45.8457800" lon="9.3005450">
	<ele>875.80</ele>
	<time>2024-03-25T12:30:35.000Z</time>
</trkpt>
<trkpt lat="45.8457970" lon="9.3005270">
	<ele>875.80</ele>
	<time>2024-03-25T12:30:36.000Z</time>
</trkpt>
<trkpt lat="45.8458150" lon="9.3005140">
	<ele>875.60</ele>
	<time>2024-03-25T12:30:37.000Z</time>
</trkpt>
<trkpt lat="45.8458320" lon="9.3005030">
	<ele>875.40</ele>
	<time>2024-03-25T12:30:38.000Z</time>
</trkpt>
<trkpt lat="45.8458450" lon="9.3004980">
	<ele>875.20</ele>
	<time>2024-03-25T12:30:39.000Z</time>
</trkpt>
<trkpt lat="45.8458550" lon="9.3004940">
	<ele>875.20</ele>
	<time>2024-03-25T12:30:40.000Z</time>
</trkpt>
<trkpt lat="45.8458670" lon="9.3004880">
	<ele>875.00</ele>
	<time>2024-03-25T12:30:41.000Z</time>
</trkpt>
<trkpt lat="45.8458780" lon="9.3004810">
	<ele>875.00</ele>
	<time>2024-03-25T12:30:42.000Z</time>
</trkpt>
<trkpt lat="45.8458900" lon="9.3004730">
	<ele>874.80</ele>
	<time>2024-03-25T12:30:43.000Z</time>
</trkpt>
<trkpt lat="45.8458990" lon="9.3004640">
	<ele>874.60</ele>
	<time>2024-03-25T12:30:44.000Z</time>
</trkpt>
<trkpt lat="45.8459070" lon="9.3004550">
	<ele>874.40</ele>
	<time>2024-03-25T12:30:45.000Z</time>
</trkpt>
<trkpt lat="45.8459170" lon="9.3004460">
	<ele>874.40</ele>
	<time>2024-03-25T12:30:46.000Z</time>
</trkpt>
<trkpt lat="45.8459230" lon="9.3004400">
	<ele>874.20</ele>
	<time>2024-03-25T12:30:47.000Z</time>
</trkpt>
<trkpt lat="45.8459300" lon="9.3004360">
	<ele>874.00</ele>
	<time>2024-03-25T12:30:48.000Z</time>
</trkpt>
<trkpt lat="45.8459460" lon="9.3004300">
	<ele>873.80</ele>
	<time>2024-03-25T12:30:49.000Z</time>
</trkpt>
<trkpt lat="45.8459640" lon="9.3004230">
	<ele>873.60</ele>
	<time>2024-03-25T12:30:50.000Z</time>
</trkpt>
<trkpt lat="45.8459780" lon="9.3004140">
	<ele>873.40</ele>
	<time>2024-03-25T12:30:51.000Z</time>
</trkpt>
<trkpt lat="45.8459920" lon="9.3004060">
	<ele>873.20</ele>
	<time>2024-03-25T12:30:52.000Z</time>
</trkpt>
<trkpt lat="45.8460070" lon="9.3003940">
	<ele>873.20</ele>
	<time>2024-03-25T12:30:53.000Z</time>
</trkpt>
<trkpt lat="45.8460190" lon="9.3003830">
	<ele>873.00</ele>
	<time>2024-03-25T12:30:54.000Z</time>
</trkpt>
<trkpt lat="45.8460290" lon="9.3003790">
	<ele>873.00</ele>
	<time>2024-03-25T12:30:55.000Z</time>
</trkpt>
<trkpt lat="45.8460370" lon="9.3003740">
	<ele>873.00</ele>
	<time>2024-03-25T12:30:56.000Z</time>
</trkpt>
<trkpt lat="45.8460470" lon="9.3003690">
	<ele>873.00</ele>
	<time>2024-03-25T12:30:57.000Z</time>
</trkpt>
<trkpt lat="45.8460590" lon="9.3003620">
	<ele>873.00</ele>
	<time>2024-03-25T12:30:58.000Z</time>
</trkpt>
<trkpt lat="45.8460730" lon="9.3003530">
	<ele>873.00</ele>
	<time>2024-03-25T12:30:59.000Z</time>
</trkpt>
<trkpt lat="45.8460840" lon="9.3003440">
	<ele>872.80</ele>
	<time>2024-03-25T12:31:00.000Z</time>
</trkpt>
<trkpt lat="45.8460960" lon="9.3003330">
	<ele>872.80</ele>
	<time>2024-03-25T12:31:01.000Z</time>
</trkpt>
<trkpt lat="45.8461100" lon="9.3003210">
	<ele>872.80</ele>
	<time>2024-03-25T12:31:02.000Z</time>
</trkpt>
<trkpt lat="45.8461240" lon="9.3003130">
	<ele>872.80</ele>
	<time>2024-03-25T12:31:03.000Z</time>
</trkpt>
<trkpt lat="45.8461370" lon="9.3003050">
	<ele>872.60</ele>
	<time>2024-03-25T12:31:04.000Z</time>
</trkpt>
<trkpt lat="45.8461530" lon="9.3003000">
	<ele>872.60</ele>
	<time>2024-03-25T12:31:05.000Z</time>
</trkpt>
<trkpt lat="45.8461630" lon="9.3002940">
	<ele>872.40</ele>
	<time>2024-03-25T12:31:06.000Z</time>
</trkpt>
<trkpt lat="45.8461740" lon="9.3002890">
	<ele>872.20</ele>
	<time>2024-03-25T12:31:07.000Z</time>
</trkpt>
<trkpt lat="45.8461830" lon="9.3002840">
	<ele>872.20</ele>
	<time>2024-03-25T12:31:08.000Z</time>
</trkpt>
<trkpt lat="45.8461920" lon="9.3002760">
	<ele>872.20</ele>
	<time>2024-03-25T12:31:09.000Z</time>
</trkpt>
<trkpt lat="45.8462020" lon="9.3002680">
	<ele>872.00</ele>
	<time>2024-03-25T12:31:10.000Z</time>
</trkpt>
<trkpt lat="45.8462080" lon="9.3002610">
	<ele>872.00</ele>
	<time>2024-03-25T12:31:11.000Z</time>
</trkpt>
<trkpt lat="45.8462210" lon="9.3002530">
	<ele>872.00</ele>
	<time>2024-03-25T12:31:12.000Z</time>
</trkpt>
<trkpt lat="45.8462320" lon="9.3002470">
	<ele>871.80</ele>
	<time>2024-03-25T12:31:13.000Z</time>
</trkpt>
<trkpt lat="45.8462400" lon="9.3002450">
	<ele>871.80</ele>
	<time>2024-03-25T12:31:14.000Z</time>
</trkpt>
<trkpt lat="45.8462490" lon="9.3002420">
	<ele>871.80</ele>
	<time>2024-03-25T12:31:15.000Z</time>
</trkpt>
<trkpt lat="45.8462630" lon="9.3002390">
	<ele>871.80</ele>
	<time>2024-03-25T12:31:16.000Z</time>
</trkpt>
<trkpt lat="45.8462770" lon="9.3002360">
	<ele>871.60</ele>
	<time>2024-03-25T12:31:17.000Z</time>
</trkpt>
<trkpt lat="45.8462910" lon="9.3002290">
	<ele>871.40</ele>
	<time>2024-03-25T12:31:18.000Z</time>
</trkpt>
<trkpt lat="45.8463040" lon="9.3002200">
	<ele>871.40</ele>
	<time>2024-03-25T12:31:19.000Z</time>
</trkpt>
<trkpt lat="45.8463150" lon="9.3002070">
	<ele>871.20</ele>
	<time>2024-03-25T12:31:20.000Z</time>
</trkpt>
<trkpt lat="45.8463340" lon="9.3001840">
	<ele>871.20</ele>
	<time>2024-03-25T12:31:21.000Z</time>
</trkpt>
<trkpt lat="45.8463450" lon="9.3001690">
	<ele>871.20</ele>
	<time>2024-03-25T12:31:22.000Z</time>
</trkpt>
<trkpt lat="45.8463450" lon="9.3001630">
	<ele>871.20</ele>
	<time>2024-03-25T12:31:23.000Z</time>
</trkpt>
<trkpt lat="45.8463510" lon="9.3001540">
	<ele>871.20</ele>
	<time>2024-03-25T12:31:24.000Z</time>
</trkpt>
<trkpt lat="45.8463500" lon="9.3001470">
	<ele>871.20</ele>
	<time>2024-03-25T12:31:25.000Z</time>
</trkpt>
<trkpt lat="45.8463480" lon="9.3001470">
	<ele>871.20</ele>
	<time>2024-03-25T12:31:26.000Z</time>
</trkpt>
<trkpt lat="45.8463450" lon="9.3001450">
	<ele>871.20</ele>
	<time>2024-03-25T12:31:27.000Z</time>
</trkpt>
<trkpt lat="45.8463450" lon="9.3001430">
	<ele>871.20</ele>
	<time>2024-03-25T12:31:28.000Z</time>
</trkpt>
<trkpt lat="45.8463450" lon="9.3001420">
	<ele>871.20</ele>
	<time>2024-03-25T12:31:29.000Z</time>
</trkpt>
<trkpt lat="45.8463460" lon="9.3001420">
	<ele>871.20</ele>
	<time>2024-03-25T12:31:30.000Z</time>
</trkpt>
<trkpt lat="45.8463480" lon="9.3001420">
	<ele>871.20</ele>
	<time>2024-03-25T12:31:31.000Z</time>
</trkpt>
<trkpt lat="45.8463480" lon="9.3001420">
	<ele>871.20</ele>
	<time>2024-03-25T12:31:32.000Z</time>
</trkpt>
<trkpt lat="45.8463470" lon="9.3001420">
	<ele>871.40</ele>
	<time>2024-03-25T12:31:33.000Z</time>
</trkpt>
<trkpt lat="45.8463460" lon="9.3001410">
	<ele>871.60</ele>
	<time>2024-03-25T12:31:34.000Z</time>
</trkpt>
<trkpt lat="45.8463450" lon="9.3001380">
	<ele>871.60</ele>
	<time>2024-03-25T12:31:35.000Z</time>
</trkpt>
<trkpt lat="45.8463430" lon="9.3001370">
	<ele>871.60</ele>
	<time>2024-03-25T12:31:36.000Z</time>
</trkpt>
<trkpt lat="45.8463420" lon="9.3001380">
	<ele>871.60</ele>
	<time>2024-03-25T12:31:37.000Z</time>
</trkpt>
<trkpt lat="45.8463400" lon="9.3001410">
	<ele>871.60</ele>
	<time>2024-03-25T12:31:38.000Z</time>
</trkpt>
<trkpt lat="45.8463420" lon="9.3001390">
	<ele>871.60</ele>
	<time>2024-03-25T12:31:39.000Z</time>
</trkpt>
<trkpt lat="45.8463420" lon="9.3001390">
	<ele>871.60</ele>
	<time>2024-03-25T12:31:40.000Z</time>
</trkpt>
<trkpt lat="45.8463420" lon="9.3001390">
	<ele>871.60</ele>
	<time>2024-03-25T12:31:41.000Z</time>
</trkpt>
<trkpt lat="45.8463420" lon="9.3001390">
	<ele>871.60</ele>
	<time>2024-03-25T12:31:42.000Z</time>
</trkpt>
<trkpt lat="45.8463420" lon="9.3001390">
	<ele>871.60</ele>
	<time>2024-03-25T12:31:43.000Z</time>
</trkpt>
<trkpt lat="45.8463420" lon="9.3001390">
	<ele>871.40</ele>
	<time>2024-03-25T12:31:44.000Z</time>
</trkpt>
<trkpt lat="45.8463420" lon="9.3001390">
	<ele>871.40</ele>
	<time>2024-03-25T12:31:45.000Z</time>
</trkpt>
<trkpt lat="45.8463420" lon="9.3001390">
	<ele>871.40</ele>
	<time>2024-03-25T12:31:46.000Z</time>
</trkpt>
<trkpt lat="45.8463420" lon="9.3001390">
	<ele>871.60</ele>
	<time>2024-03-25T12:31:47.000Z</time>
</trkpt>
<trkpt lat="45.8463420" lon="9.3001390">
	<ele>871.40</ele>
	<time>2024-03-25T12:31:48.000Z</time>
</trkpt>
<trkpt lat="45.8463430" lon="9.3001390">
	<ele>871.40</ele>
	<time>2024-03-25T12:31:49.000Z</time>
</trkpt>
<trkpt lat="45.8463430" lon="9.3001390">
	<ele>871.40</ele>
	<time>2024-03-25T12:31:50.000Z</time>
</trkpt>
<trkpt lat="45.8463440" lon="9.3001330">
	<ele>871.40</ele>
	<time>2024-03-25T12:31:51.000Z</time>
</trkpt>
<trkpt lat="45.8463450" lon="9.3001190">
	<ele>871.40</ele>
	<time>2024-03-25T12:31:52.000Z</time>
</trkpt>
<trkpt lat="45.8463450" lon="9.3001020">
	<ele>871.40</ele>
	<time>2024-03-25T12:31:53.000Z</time>
</trkpt>
<trkpt lat="45.8463410" lon="9.3000900">
	<ele>871.40</ele>
	<time>2024-03-25T12:31:54.000Z</time>
</trkpt>
<trkpt lat="45.8463400" lon="9.3000800">
	<ele>871.40</ele>
	<time>2024-03-25T12:31:55.000Z</time>
</trkpt>
<trkpt lat="45.8463410" lon="9.3000710">
	<ele>871.40</ele>
	<time>2024-03-25T12:31:56.000Z</time>
</trkpt>
<trkpt lat="45.8463390" lon="9.3000580">
	<ele>871.20</ele>
	<time>2024-03-25T12:31:57.000Z</time>
</trkpt>
<trkpt lat="45.8463350" lon="9.3000460">
	<ele>871.20</ele>
	<time>2024-03-25T12:31:58.000Z</time>
</trkpt>
<trkpt lat="45.8463340" lon="9.3000370">
	<ele>871.20</ele>
	<time>2024-03-25T12:31:59.000Z</time>
</trkpt>
<trkpt lat="45.8463360" lon="9.3000280">
	<ele>871.20</ele>
	<time>2024-03-25T12:32:00.000Z</time>
</trkpt>
<trkpt lat="45.8463380" lon="9.3000160">
	<ele>871.20</ele>
	<time>2024-03-25T12:32:01.000Z</time>
</trkpt>
<trkpt lat="45.8463370" lon="9.3000040">
	<ele>871.20</ele>
	<time>2024-03-25T12:32:02.000Z</time>
</trkpt>
<trkpt lat="45.8463320" lon="9.2999970">
	<ele>871.20</ele>
	<time>2024-03-25T12:32:03.000Z</time>
</trkpt>
<trkpt lat="45.8463230" lon="9.2999950">
	<ele>871.20</ele>
	<time>2024-03-25T12:32:04.000Z</time>
</trkpt>
<trkpt lat="45.8463190" lon="9.2999880">
	<ele>871.00</ele>
	<time>2024-03-25T12:32:05.000Z</time>
</trkpt>
<trkpt lat="45.8463130" lon="9.2999810">
	<ele>870.60</ele>
	<time>2024-03-25T12:32:06.000Z</time>
</trkpt>
<trkpt lat="45.8463040" lon="9.2999740">
	<ele>870.40</ele>
	<time>2024-03-25T12:32:07.000Z</time>
</trkpt>
<trkpt lat="45.8463010" lon="9.2999570">
	<ele>870.00</ele>
	<time>2024-03-25T12:32:08.000Z</time>
</trkpt>
<trkpt lat="45.8463020" lon="9.2999440">
	<ele>869.80</ele>
	<time>2024-03-25T12:32:09.000Z</time>
</trkpt>
<trkpt lat="45.8463030" lon="9.2999250">
	<ele>869.60</ele>
	<time>2024-03-25T12:32:10.000Z</time>
</trkpt>
<trkpt lat="45.8463010" lon="9.2999140">
	<ele>869.00</ele>
	<time>2024-03-25T12:32:11.000Z</time>
</trkpt>
<trkpt lat="45.8462970" lon="9.2999040">
	<ele>868.60</ele>
	<time>2024-03-25T12:32:12.000Z</time>
</trkpt>
<trkpt lat="45.8462950" lon="9.2998950">
	<ele>868.40</ele>
	<time>2024-03-25T12:32:13.000Z</time>
</trkpt>
<trkpt lat="45.8462970" lon="9.2998840">
	<ele>867.80</ele>
	<time>2024-03-25T12:32:14.000Z</time>
</trkpt>
<trkpt lat="45.8462940" lon="9.2998790">
	<ele>867.20</ele>
	<time>2024-03-25T12:32:15.000Z</time>
</trkpt>
<trkpt lat="45.8462960" lon="9.2998760">
	<ele>867.00</ele>
	<time>2024-03-25T12:32:16.000Z</time>
</trkpt>
<trkpt lat="45.8462960" lon="9.2998700">
	<ele>866.80</ele>
	<time>2024-03-25T12:32:17.000Z</time>
</trkpt>
<trkpt lat="45.8462940" lon="9.2998620">
	<ele>866.60</ele>
	<time>2024-03-25T12:32:18.000Z</time>
</trkpt>
<trkpt lat="45.8462940" lon="9.2998580">
	<ele>866.20</ele>
	<time>2024-03-25T12:32:19.000Z</time>
</trkpt>
<trkpt lat="45.8462850" lon="9.2998480">
	<ele>866.00</ele>
	<time>2024-03-25T12:32:20.000Z</time>
</trkpt>
<trkpt lat="45.8462760" lon="9.2998440">
	<ele>866.00</ele>
	<time>2024-03-25T12:32:21.000Z</time>
</trkpt>
<trkpt lat="45.8462700" lon="9.2998370">
	<ele>865.80</ele>
	<time>2024-03-25T12:32:22.000Z</time>
</trkpt>
<trkpt lat="45.8462670" lon="9.2998280">
	<ele>865.20</ele>
	<time>2024-03-25T12:32:23.000Z</time>
</trkpt>
<trkpt lat="45.8462600" lon="9.2998240">
	<ele>864.80</ele>
	<time>2024-03-25T12:32:24.000Z</time>
</trkpt>
<trkpt lat="45.8462530" lon="9.2998240">
	<ele>864.40</ele>
	<time>2024-03-25T12:32:25.000Z</time>
</trkpt>
<trkpt lat="45.8462490" lon="9.2998250">
	<ele>864.20</ele>
	<time>2024-03-25T12:32:26.000Z</time>
</trkpt>
<trkpt lat="45.8462440" lon="9.2998260">
	<ele>864.20</ele>
	<time>2024-03-25T12:32:27.000Z</time>
</trkpt>
<trkpt lat="45.8462410" lon="9.2998300">
	<ele>864.00</ele>
	<time>2024-03-25T12:32:28.000Z</time>
</trkpt>
<trkpt lat="45.8462400" lon="9.2998300">
	<ele>863.60</ele>
	<time>2024-03-25T12:32:29.000Z</time>
</trkpt>
<trkpt lat="45.8462390" lon="9.2998290">
	<ele>863.20</ele>
	<time>2024-03-25T12:32:30.000Z</time>
</trkpt>
<trkpt lat="45.8462350" lon="9.2998290">
	<ele>863.00</ele>
	<time>2024-03-25T12:32:31.000Z</time>
</trkpt>
<trkpt lat="45.8462240" lon="9.2998200">
	<ele>862.80</ele>
	<time>2024-03-25T12:32:32.000Z</time>
</trkpt>
<trkpt lat="45.8462230" lon="9.2998170">
	<ele>862.80</ele>
	<time>2024-03-25T12:32:33.000Z</time>
</trkpt>
<trkpt lat="45.8462220" lon="9.2998040">
	<ele>862.40</ele>
	<time>2024-03-25T12:32:34.000Z</time>
</trkpt>
<trkpt lat="45.8462210" lon="9.2997970">
	<ele>862.00</ele>
	<time>2024-03-25T12:32:35.000Z</time>
</trkpt>
<trkpt lat="45.8462210" lon="9.2997930">
	<ele>861.80</ele>
	<time>2024-03-25T12:32:36.000Z</time>
</trkpt>
<trkpt lat="45.8462170" lon="9.2997880">
	<ele>861.60</ele>
	<time>2024-03-25T12:32:37.000Z</time>
</trkpt>
<trkpt lat="45.8462130" lon="9.2997810">
	<ele>861.20</ele>
	<time>2024-03-25T12:32:38.000Z</time>
</trkpt>
<trkpt lat="45.8462090" lon="9.2997690">
	<ele>861.00</ele>
	<time>2024-03-25T12:32:39.000Z</time>
</trkpt>
<trkpt lat="45.8462030" lon="9.2997650">
	<ele>860.60</ele>
	<time>2024-03-25T12:32:40.000Z</time>
</trkpt>
<trkpt lat="45.8461970" lon="9.2997610">
	<ele>860.40</ele>
	<time>2024-03-25T12:32:41.000Z</time>
</trkpt>
<trkpt lat="45.8461900" lon="9.2997460">
	<ele>860.00</ele>
	<time>2024-03-25T12:32:42.000Z</time>
</trkpt>
<trkpt lat="45.8461850" lon="9.2997430">
	<ele>859.80</ele>
	<time>2024-03-25T12:32:43.000Z</time>
</trkpt>
<trkpt lat="45.8461780" lon="9.2997390">
	<ele>859.40</ele>
	<time>2024-03-25T12:32:44.000Z</time>
</trkpt>
<trkpt lat="45.8461730" lon="9.2997370">
	<ele>859.00</ele>
	<time>2024-03-25T12:32:45.000Z</time>
</trkpt>
<trkpt lat="45.8461670" lon="9.2997250">
	<ele>858.60</ele>
	<time>2024-03-25T12:32:46.000Z</time>
</trkpt>
<trkpt lat="45.8461600" lon="9.2997120">
	<ele>858.20</ele>
	<time>2024-03-25T12:32:47.000Z</time>
</trkpt>
<trkpt lat="45.8461580" lon="9.2997010">
	<ele>857.80</ele>
	<time>2024-03-25T12:32:48.000Z</time>
</trkpt>
<trkpt lat="45.8461590" lon="9.2996930">
	<ele>857.60</ele>
	<time>2024-03-25T12:32:49.000Z</time>
</trkpt>
<trkpt lat="45.8461570" lon="9.2996890">
	<ele>857.20</ele>
	<time>2024-03-25T12:32:50.000Z</time>
</trkpt>
<trkpt lat="45.8461590" lon="9.2996740">
	<ele>857.20</ele>
	<time>2024-03-25T12:32:51.000Z</time>
</trkpt>
<trkpt lat="45.8461560" lon="9.2996590">
	<ele>857.20</ele>
	<time>2024-03-25T12:32:52.000Z</time>
</trkpt>
<trkpt lat="45.8461520" lon="9.2996440">
	<ele>857.00</ele>
	<time>2024-03-25T12:32:53.000Z</time>
</trkpt>
<trkpt lat="45.8461430" lon="9.2996330">
	<ele>856.80</ele>
	<time>2024-03-25T12:32:54.000Z</time>
</trkpt>
<trkpt lat="45.8461380" lon="9.2996290">
	<ele>856.80</ele>
	<time>2024-03-25T12:32:55.000Z</time>
</trkpt>
<trkpt lat="45.8461360" lon="9.2996250">
	<ele>856.00</ele>
	<time>2024-03-25T12:32:56.000Z</time>
</trkpt>
<trkpt lat="45.8461340" lon="9.2996210">
	<ele>855.60</ele>
	<time>2024-03-25T12:32:57.000Z</time>
</trkpt>
<trkpt lat="45.8461250" lon="9.2996160">
	<ele>855.20</ele>
	<time>2024-03-25T12:32:58.000Z</time>
</trkpt>
<trkpt lat="45.8461180" lon="9.2996130">
	<ele>855.00</ele>
	<time>2024-03-25T12:32:59.000Z</time>
</trkpt>
<trkpt lat="45.8461160" lon="9.2996100">
	<ele>854.60</ele>
	<time>2024-03-25T12:33:00.000Z</time>
</trkpt>
<trkpt lat="45.8461210" lon="9.2996100">
	<ele>854.20</ele>
	<time>2024-03-25T12:33:01.000Z</time>
</trkpt>
<trkpt lat="45.8461220" lon="9.2996060">
	<ele>854.00</ele>
	<time>2024-03-25T12:33:02.000Z</time>
</trkpt>
<trkpt lat="45.8461220" lon="9.2996030">
	<ele>854.00</ele>
	<time>2024-03-25T12:33:03.000Z</time>
</trkpt>
<trkpt lat="45.8461200" lon="9.2995950">
	<ele>853.80</ele>
	<time>2024-03-25T12:33:04.000Z</time>
</trkpt>
<trkpt lat="45.8461180" lon="9.2995900">
	<ele>853.80</ele>
	<time>2024-03-25T12:33:05.000Z</time>
</trkpt>
<trkpt lat="45.8461150" lon="9.2995870">
	<ele>853.60</ele>
	<time>2024-03-25T12:33:06.000Z</time>
</trkpt>
<trkpt lat="45.8461090" lon="9.2995820">
	<ele>853.20</ele>
	<time>2024-03-25T12:33:07.000Z</time>
</trkpt>
<trkpt lat="45.8461030" lon="9.2995770">
	<ele>852.60</ele>
	<time>2024-03-25T12:33:08.000Z</time>
</trkpt>
<trkpt lat="45.8460930" lon="9.2995730">
	<ele>852.20</ele>
	<time>2024-03-25T12:33:09.000Z</time>
</trkpt>
<trkpt lat="45.8460830" lon="9.2995660">
	<ele>851.80</ele>
	<time>2024-03-25T12:33:10.000Z</time>
</trkpt>
<trkpt lat="45.8460720" lon="9.2995540">
	<ele>851.40</ele>
	<time>2024-03-25T12:33:11.000Z</time>
</trkpt>
<trkpt lat="45.8460610" lon="9.2995470">
	<ele>851.20</ele>
	<time>2024-03-25T12:33:12.000Z</time>
</trkpt>
<trkpt lat="45.8460490" lon="9.2995440">
	<ele>851.00</ele>
	<time>2024-03-25T12:33:13.000Z</time>
</trkpt>
<trkpt lat="45.8460370" lon="9.2995400">
	<ele>850.80</ele>
	<time>2024-03-25T12:33:14.000Z</time>
</trkpt>
<trkpt lat="45.8460260" lon="9.2995300">
	<ele>850.40</ele>
	<time>2024-03-25T12:33:15.000Z</time>
</trkpt>
<trkpt lat="45.8460140" lon="9.2995110">
	<ele>850.20</ele>
	<time>2024-03-25T12:33:16.000Z</time>
</trkpt>
<trkpt lat="45.8460010" lon="9.2994960">
	<ele>850.00</ele>
	<time>2024-03-25T12:33:17.000Z</time>
</trkpt>
<trkpt lat="45.8459890" lon="9.2994760">
	<ele>849.60</ele>
	<time>2024-03-25T12:33:18.000Z</time>
</trkpt>
<trkpt lat="45.8459770" lon="9.2994650">
	<ele>849.40</ele>
	<time>2024-03-25T12:33:19.000Z</time>
</trkpt>
<trkpt lat="45.8459640" lon="9.2994600">
	<ele>849.20</ele>
	<time>2024-03-25T12:33:20.000Z</time>
</trkpt>
<trkpt lat="45.8459550" lon="9.2994530">
	<ele>849.20</ele>
	<time>2024-03-25T12:33:21.000Z</time>
</trkpt>
<trkpt lat="45.8459470" lon="9.2994470">
	<ele>848.80</ele>
	<time>2024-03-25T12:33:22.000Z</time>
</trkpt>
<trkpt lat="45.8459440" lon="9.2994420">
	<ele>848.60</ele>
	<time>2024-03-25T12:33:23.000Z</time>
</trkpt>
<trkpt lat="45.8459400" lon="9.2994350">
	<ele>848.60</ele>
	<time>2024-03-25T12:33:24.000Z</time>
</trkpt>
<trkpt lat="45.8459340" lon="9.2994240">
	<ele>848.20</ele>
	<time>2024-03-25T12:33:25.000Z</time>
</trkpt>
<trkpt lat="45.8459320" lon="9.2994220">
	<ele>848.00</ele>
	<time>2024-03-25T12:33:26.000Z</time>
</trkpt>
<trkpt lat="45.8459280" lon="9.2994220">
	<ele>847.60</ele>
	<time>2024-03-25T12:33:27.000Z</time>
</trkpt>
<trkpt lat="45.8459240" lon="9.2994210">
	<ele>847.20</ele>
	<time>2024-03-25T12:33:28.000Z</time>
</trkpt>
<trkpt lat="45.8459150" lon="9.2994240">
	<ele>847.00</ele>
	<time>2024-03-25T12:33:29.000Z</time>
</trkpt>
<trkpt lat="45.8458950" lon="9.2994160">
	<ele>846.80</ele>
	<time>2024-03-25T12:33:30.000Z</time>
</trkpt>
<trkpt lat="45.8458850" lon="9.2993990">
	<ele>846.60</ele>
	<time>2024-03-25T12:33:31.000Z</time>
</trkpt>
<trkpt lat="45.8458790" lon="9.2993700">
	<ele>846.40</ele>
	<time>2024-03-25T12:33:32.000Z</time>
</trkpt>
<trkpt lat="45.8458780" lon="9.2993610">
	<ele>846.20</ele>
	<time>2024-03-25T12:33:33.000Z</time>
</trkpt>
<trkpt lat="45.8458780" lon="9.2993560">
	<ele>846.00</ele>
	<time>2024-03-25T12:33:34.000Z</time>
</trkpt>
<trkpt lat="45.8458740" lon="9.2993570">
	<ele>845.80</ele>
	<time>2024-03-25T12:33:35.000Z</time>
</trkpt>
<trkpt lat="45.8458690" lon="9.2993490">
	<ele>845.40</ele>
	<time>2024-03-25T12:33:36.000Z</time>
</trkpt>
<trkpt lat="45.8458600" lon="9.2993390">
	<ele>845.20</ele>
	<time>2024-03-25T12:33:37.000Z</time>
</trkpt>
<trkpt lat="45.8458480" lon="9.2993250">
	<ele>844.60</ele>
	<time>2024-03-25T12:33:38.000Z</time>
</trkpt>
<trkpt lat="45.8458360" lon="9.2993150">
	<ele>844.20</ele>
	<time>2024-03-25T12:33:39.000Z</time>
</trkpt>
<trkpt lat="45.8458280" lon="9.2993090">
	<ele>843.80</ele>
	<time>2024-03-25T12:33:40.000Z</time>
</trkpt>
<trkpt lat="45.8458230" lon="9.2992980">
	<ele>843.40</ele>
	<time>2024-03-25T12:33:41.000Z</time>
</trkpt>
<trkpt lat="45.8458100" lon="9.2992870">
	<ele>843.00</ele>
	<time>2024-03-25T12:33:42.000Z</time>
</trkpt>
<trkpt lat="45.8458040" lon="9.2992770">
	<ele>842.60</ele>
	<time>2024-03-25T12:33:43.000Z</time>
</trkpt>
<trkpt lat="45.8457930" lon="9.2992760">
	<ele>842.20</ele>
	<time>2024-03-25T12:33:44.000Z</time>
</trkpt>
<trkpt lat="45.8457850" lon="9.2992760">
	<ele>841.80</ele>
	<time>2024-03-25T12:33:45.000Z</time>
</trkpt>
<trkpt lat="45.8457760" lon="9.2992680">
	<ele>841.60</ele>
	<time>2024-03-25T12:33:46.000Z</time>
</trkpt>
<trkpt lat="45.8457650" lon="9.2992610">
	<ele>841.40</ele>
	<time>2024-03-25T12:33:47.000Z</time>
</trkpt>
<trkpt lat="45.8457520" lon="9.2992450">
	<ele>841.20</ele>
	<time>2024-03-25T12:33:48.000Z</time>
</trkpt>
<trkpt lat="45.8457470" lon="9.2992370">
	<ele>841.00</ele>
	<time>2024-03-25T12:33:49.000Z</time>
</trkpt>
<trkpt lat="45.8457450" lon="9.2992260">
	<ele>841.00</ele>
	<time>2024-03-25T12:33:50.000Z</time>
</trkpt>
<trkpt lat="45.8457340" lon="9.2992250">
	<ele>840.80</ele>
	<time>2024-03-25T12:33:51.000Z</time>
</trkpt>
<trkpt lat="45.8457230" lon="9.2992440">
	<ele>840.60</ele>
	<time>2024-03-25T12:33:52.000Z</time>
</trkpt>
<trkpt lat="45.8457170" lon="9.2992540">
	<ele>840.40</ele>
	<time>2024-03-25T12:33:53.000Z</time>
</trkpt>
<trkpt lat="45.8457130" lon="9.2992570">
	<ele>840.00</ele>
	<time>2024-03-25T12:33:54.000Z</time>
</trkpt>
<trkpt lat="45.8457160" lon="9.2992540">
	<ele>839.80</ele>
	<time>2024-03-25T12:33:55.000Z</time>
</trkpt>
<trkpt lat="45.8457190" lon="9.2992420">
	<ele>839.40</ele>
	<time>2024-03-25T12:33:56.000Z</time>
</trkpt>
<trkpt lat="45.8457190" lon="9.2992340">
	<ele>839.20</ele>
	<time>2024-03-25T12:33:57.000Z</time>
</trkpt>
<trkpt lat="45.8457160" lon="9.2992180">
	<ele>839.00</ele>
	<time>2024-03-25T12:33:58.000Z</time>
</trkpt>
<trkpt lat="45.8457140" lon="9.2992000">
	<ele>838.60</ele>
	<time>2024-03-25T12:33:59.000Z</time>
</trkpt>
<trkpt lat="45.8457160" lon="9.2991680">
	<ele>838.20</ele>
	<time>2024-03-25T12:34:00.000Z</time>
</trkpt>
<trkpt lat="45.8457130" lon="9.2991580">
	<ele>837.80</ele>
	<time>2024-03-25T12:34:01.000Z</time>
</trkpt>
<trkpt lat="45.8457170" lon="9.2991310">
	<ele>837.40</ele>
	<time>2024-03-25T12:34:02.000Z</time>
</trkpt>
<trkpt lat="45.8457100" lon="9.2991190">
	<ele>837.20</ele>
	<time>2024-03-25T12:34:03.000Z</time>
</trkpt>
<trkpt lat="45.8456980" lon="9.2991160">
	<ele>836.80</ele>
	<time>2024-03-25T12:34:04.000Z</time>
</trkpt>
<trkpt lat="45.8456910" lon="9.2991130">
	<ele>836.40</ele>
	<time>2024-03-25T12:34:05.000Z</time>
</trkpt>
<trkpt lat="45.8456840" lon="9.2991020">
	<ele>836.00</ele>
	<time>2024-03-25T12:34:06.000Z</time>
</trkpt>
<trkpt lat="45.8456800" lon="9.2990820">
	<ele>835.80</ele>
	<time>2024-03-25T12:34:07.000Z</time>
</trkpt>
<trkpt lat="45.8456730" lon="9.2990650">
	<ele>835.40</ele>
	<time>2024-03-25T12:34:08.000Z</time>
</trkpt>
<trkpt lat="45.8456700" lon="9.2990660">
	<ele>835.00</ele>
	<time>2024-03-25T12:34:09.000Z</time>
</trkpt>
<trkpt lat="45.8456640" lon="9.2990680">
	<ele>834.80</ele>
	<time>2024-03-25T12:34:10.000Z</time>
</trkpt>
<trkpt lat="45.8456560" lon="9.2990580">
	<ele>834.20</ele>
	<time>2024-03-25T12:34:11.000Z</time>
</trkpt>
<trkpt lat="45.8456510" lon="9.2990610">
	<ele>833.80</ele>
	<time>2024-03-25T12:34:12.000Z</time>
</trkpt>
<trkpt lat="45.8456470" lon="9.2990610">
	<ele>833.40</ele>
	<time>2024-03-25T12:34:13.000Z</time>
</trkpt>
<trkpt lat="45.8456450" lon="9.2990580">
	<ele>833.20</ele>
	<time>2024-03-25T12:34:14.000Z</time>
</trkpt>
<trkpt lat="45.8456410" lon="9.2990530">
	<ele>832.80</ele>
	<time>2024-03-25T12:34:15.000Z</time>
</trkpt>
<trkpt lat="45.8456360" lon="9.2990400">
	<ele>832.60</ele>
	<time>2024-03-25T12:34:16.000Z</time>
</trkpt>
<trkpt lat="45.8456280" lon="9.2990380">
	<ele>832.20</ele>
	<time>2024-03-25T12:34:17.000Z</time>
</trkpt>
<trkpt lat="45.8456220" lon="9.2990380">
	<ele>831.80</ele>
	<time>2024-03-25T12:34:18.000Z</time>
</trkpt>
<trkpt lat="45.8456210" lon="9.2990330">
	<ele>831.60</ele>
	<time>2024-03-25T12:34:19.000Z</time>
</trkpt>
<trkpt lat="45.8456210" lon="9.2990310">
	<ele>831.20</ele>
	<time>2024-03-25T12:34:20.000Z</time>
</trkpt>
<trkpt lat="45.8456230" lon="9.2990300">
	<ele>831.00</ele>
	<time>2024-03-25T12:34:21.000Z</time>
</trkpt>
<trkpt lat="45.8456230" lon="9.2990310">
	<ele>830.80</ele>
	<time>2024-03-25T12:34:22.000Z</time>
</trkpt>
<trkpt lat="45.8456220" lon="9.2990330">
	<ele>830.60</ele>
	<time>2024-03-25T12:34:23.000Z</time>
</trkpt>
<trkpt lat="45.8456210" lon="9.2990340">
	<ele>830.40</ele>
	<time>2024-03-25T12:34:24.000Z</time>
</trkpt>
<trkpt lat="45.8456200" lon="9.2990350">
	<ele>830.40</ele>
	<time>2024-03-25T12:34:25.000Z</time>
</trkpt>
<trkpt lat="45.8456200" lon="9.2990350">
	<ele>830.40</ele>
	<time>2024-03-25T12:34:26.000Z</time>
</trkpt>
<trkpt lat="45.8456200" lon="9.2990350">
	<ele>830.40</ele>
	<time>2024-03-25T12:34:27.000Z</time>
</trkpt>
<trkpt lat="45.8456200" lon="9.2990350">
	<ele>830.40</ele>
	<time>2024-03-25T12:34:28.000Z</time>
</trkpt>
<trkpt lat="45.8456200" lon="9.2990350">
	<ele>830.40</ele>
	<time>2024-03-25T12:34:29.000Z</time>
</trkpt>
<trkpt lat="45.8456200" lon="9.2990350">
	<ele>830.40</ele>
	<time>2024-03-25T12:34:30.000Z</time>
</trkpt>
<trkpt lat="45.8456200" lon="9.2990350">
	<ele>830.40</ele>
	<time>2024-03-25T12:34:31.000Z</time>
</trkpt>
<trkpt lat="45.8456200" lon="9.2990350">
	<ele>830.40</ele>
	<time>2024-03-25T12:34:32.000Z</time>
</trkpt>
<trkpt lat="45.8456200" lon="9.2990350">
	<ele>830.40</ele>
	<time>2024-03-25T12:34:33.000Z</time>
</trkpt>
<trkpt lat="45.8456200" lon="9.2990350">
	<ele>830.20</ele>
	<time>2024-03-25T12:34:34.000Z</time>
</trkpt>
<trkpt lat="45.8456200" lon="9.2990350">
	<ele>830.20</ele>
	<time>2024-03-25T12:34:35.000Z</time>
</trkpt>
<trkpt lat="45.8456200" lon="9.2990350">
	<ele>830.20</ele>
	<time>2024-03-25T12:34:36.000Z</time>
</trkpt>
<trkpt lat="45.8456200" lon="9.2990350">
	<ele>830.00</ele>
	<time>2024-03-25T12:34:37.000Z</time>
</trkpt>
<trkpt lat="45.8456200" lon="9.2990350">
	<ele>830.00</ele>
	<time>2024-03-25T12:34:38.000Z</time>
</trkpt>
<trkpt lat="45.8456200" lon="9.2990350">
	<ele>830.00</ele>
	<time>2024-03-25T12:34:39.000Z</time>
</trkpt>
<trkpt lat="45.8456200" lon="9.2990350">
	<ele>829.80</ele>
	<time>2024-03-25T12:34:40.000Z</time>
</trkpt>
<trkpt lat="45.8456200" lon="9.2990340">
	<ele>829.60</ele>
	<time>2024-03-25T12:34:41.000Z</time>
</trkpt>
<trkpt lat="45.8456200" lon="9.2990340">
	<ele>829.60</ele>
	<time>2024-03-25T12:34:42.000Z</time>
</trkpt>
<trkpt lat="45.8456200" lon="9.2990340">
	<ele>829.20</ele>
	<time>2024-03-25T12:34:43.000Z</time>
</trkpt>
<trkpt lat="45.8456200" lon="9.2990340">
	<ele>829.00</ele>
	<time>2024-03-25T12:34:44.000Z</time>
</trkpt>
<trkpt lat="45.8456200" lon="9.2990340">
	<ele>829.00</ele>
	<time>2024-03-25T12:34:45.000Z</time>
</trkpt>
<trkpt lat="45.8456200" lon="9.2990330">
	<ele>828.80</ele>
	<time>2024-03-25T12:34:46.000Z</time>
</trkpt>
<trkpt lat="45.8456200" lon="9.2990330">
	<ele>828.40</ele>
	<time>2024-03-25T12:34:47.000Z</time>
</trkpt>
<trkpt lat="45.8456200" lon="9.2990330">
	<ele>828.00</ele>
	<time>2024-03-25T12:34:48.000Z</time>
</trkpt>
<trkpt lat="45.8456200" lon="9.2990310">
	<ele>827.80</ele>
	<time>2024-03-25T12:34:49.000Z</time>
</trkpt>
<trkpt lat="45.8456200" lon="9.2990310">
	<ele>827.40</ele>
	<time>2024-03-25T12:34:50.000Z</time>
</trkpt>
<trkpt lat="45.8456200" lon="9.2990310">
	<ele>827.20</ele>
	<time>2024-03-25T12:34:51.000Z</time>
</trkpt>
<trkpt lat="45.8456200" lon="9.2990310">
	<ele>827.00</ele>
	<time>2024-03-25T12:34:52.000Z</time>
</trkpt>
<trkpt lat="45.8456200" lon="9.2990260">
	<ele>826.80</ele>
	<time>2024-03-25T12:34:53.000Z</time>
</trkpt>
<trkpt lat="45.8456200" lon="9.2990140">
	<ele>826.40</ele>
	<time>2024-03-25T12:34:54.000Z</time>
</trkpt>
<trkpt lat="45.8456280" lon="9.2990120">
	<ele>826.20</ele>
	<time>2024-03-25T12:34:55.000Z</time>
</trkpt>
<trkpt lat="45.8456410" lon="9.2990090">
	<ele>825.80</ele>
	<time>2024-03-25T12:34:56.000Z</time>
</trkpt>
<trkpt lat="45.8456530" lon="9.2990040">
	<ele>825.40</ele>
	<time>2024-03-25T12:34:57.000Z</time>
</trkpt>
<trkpt lat="45.8456640" lon="9.2990010">
	<ele>825.20</ele>
	<time>2024-03-25T12:34:58.000Z</time>
</trkpt>
<trkpt lat="45.8456760" lon="9.2989980">
	<ele>824.80</ele>
	<time>2024-03-25T12:34:59.000Z</time>
</trkpt>
<trkpt lat="45.8456880" lon="9.2989920">
	<ele>824.60</ele>
	<time>2024-03-25T12:35:00.000Z</time>
</trkpt>
<trkpt lat="45.8457040" lon="9.2989870">
	<ele>824.40</ele>
	<time>2024-03-25T12:35:01.000Z</time>
</trkpt>
<trkpt lat="45.8457130" lon="9.2989730">
	<ele>824.00</ele>
	<time>2024-03-25T12:35:02.000Z</time>
</trkpt>
<trkpt lat="45.8457230" lon="9.2989640">
	<ele>823.60</ele>
	<time>2024-03-25T12:35:03.000Z</time>
</trkpt>
<trkpt lat="45.8457330" lon="9.2989590">
	<ele>823.40</ele>
	<time>2024-03-25T12:35:04.000Z</time>
</trkpt>
<trkpt lat="45.8457370" lon="9.2989550">
	<ele>823.20</ele>
	<time>2024-03-25T12:35:05.000Z</time>
</trkpt>
<trkpt lat="45.8457400" lon="9.2989530">
	<ele>823.00</ele>
	<time>2024-03-25T12:35:06.000Z</time>
</trkpt>
<trkpt lat="45.8457430" lon="9.2989480">
	<ele>822.60</ele>
	<time>2024-03-25T12:35:07.000Z</time>
</trkpt>
<trkpt lat="45.8457520" lon="9.2989440">
	<ele>822.20</ele>
	<time>2024-03-25T12:35:08.000Z</time>
</trkpt>
<trkpt lat="45.8457660" lon="9.2989390">
	<ele>822.00</ele>
	<time>2024-03-25T12:35:09.000Z</time>
</trkpt>
<trkpt lat="45.8457770" lon="9.2989340">
	<ele>821.80</ele>
	<time>2024-03-25T12:35:10.000Z</time>
</trkpt>
<trkpt lat="45.8457810" lon="9.2989280">
	<ele>821.40</ele>
	<time>2024-03-25T12:35:11.000Z</time>
</trkpt>
<trkpt lat="45.8457870" lon="9.2989230">
	<ele>821.20</ele>
	<time>2024-03-25T12:35:12.000Z</time>
</trkpt>
<trkpt lat="45.8457890" lon="9.2989140">
	<ele>820.80</ele>
	<time>2024-03-25T12:35:13.000Z</time>
</trkpt>
<trkpt lat="45.8457890" lon="9.2989080">
	<ele>820.80</ele>
	<time>2024-03-25T12:35:14.000Z</time>
</trkpt>
<trkpt lat="45.8457890" lon="9.2989030">
	<ele>820.40</ele>
	<time>2024-03-25T12:35:15.000Z</time>
</trkpt>
<trkpt lat="45.8457970" lon="9.2988970">
	<ele>820.20</ele>
	<time>2024-03-25T12:35:16.000Z</time>
</trkpt>
<trkpt lat="45.8458010" lon="9.2988920">
	<ele>819.80</ele>
	<time>2024-03-25T12:35:17.000Z</time>
</trkpt>
<trkpt lat="45.8458070" lon="9.2988890">
	<ele>819.80</ele>
	<time>2024-03-25T12:35:18.000Z</time>
</trkpt>
<trkpt lat="45.8458150" lon="9.2988870">
	<ele>819.60</ele>
	<time>2024-03-25T12:35:19.000Z</time>
</trkpt>
<trkpt lat="45.8458210" lon="9.2988880">
	<ele>819.40</ele>
	<time>2024-03-25T12:35:20.000Z</time>
</trkpt>
<trkpt lat="45.8458290" lon="9.2988890">
	<ele>819.20</ele>
	<time>2024-03-25T12:35:21.000Z</time>
</trkpt>
<trkpt lat="45.8458350" lon="9.2988850">
	<ele>819.00</ele>
	<time>2024-03-25T12:35:22.000Z</time>
</trkpt>
<trkpt lat="45.8458430" lon="9.2988830">
	<ele>818.80</ele>
	<time>2024-03-25T12:35:23.000Z</time>
</trkpt>
<trkpt lat="45.8458500" lon="9.2988820">
	<ele>818.40</ele>
	<time>2024-03-25T12:35:24.000Z</time>
</trkpt>
<trkpt lat="45.8458640" lon="9.2988850">
	<ele>818.20</ele>
	<time>2024-03-25T12:35:25.000Z</time>
</trkpt>
<trkpt lat="45.8458830" lon="9.2988830">
	<ele>818.00</ele>
	<time>2024-03-25T12:35:26.000Z</time>
</trkpt>
<trkpt lat="45.8458860" lon="9.2988840">
	<ele>817.60</ele>
	<time>2024-03-25T12:35:27.000Z</time>
</trkpt>
<trkpt lat="45.8458910" lon="9.2988810">
	<ele>817.40</ele>
	<time>2024-03-25T12:35:28.000Z</time>
</trkpt>
<trkpt lat="45.8459000" lon="9.2988840">
	<ele>817.20</ele>
	<time>2024-03-25T12:35:29.000Z</time>
</trkpt>
<trkpt lat="45.8459160" lon="9.2988910">
	<ele>817.00</ele>
	<time>2024-03-25T12:35:30.000Z</time>
</trkpt>
<trkpt lat="45.8459300" lon="9.2988880">
	<ele>816.80</ele>
	<time>2024-03-25T12:35:31.000Z</time>
</trkpt>
<trkpt lat="45.8459380" lon="9.2988840">
	<ele>816.60</ele>
	<time>2024-03-25T12:35:32.000Z</time>
</trkpt>
<trkpt lat="45.8459410" lon="9.2988760">
	<ele>816.20</ele>
	<time>2024-03-25T12:35:33.000Z</time>
</trkpt>
<trkpt lat="45.8459400" lon="9.2988700">
	<ele>815.80</ele>
	<time>2024-03-25T12:35:34.000Z</time>
</trkpt>
<trkpt lat="45.8459410" lon="9.2988680">
	<ele>815.40</ele>
	<time>2024-03-25T12:35:35.000Z</time>
</trkpt>
<trkpt lat="45.8459390" lon="9.2988630">
	<ele>815.20</ele>
	<time>2024-03-25T12:35:36.000Z</time>
</trkpt>
<trkpt lat="45.8459400" lon="9.2988570">
	<ele>815.00</ele>
	<time>2024-03-25T12:35:37.000Z</time>
</trkpt>
<trkpt lat="45.8459390" lon="9.2988450">
	<ele>814.80</ele>
	<time>2024-03-25T12:35:38.000Z</time>
</trkpt>
<trkpt lat="45.8459350" lon="9.2988330">
	<ele>814.60</ele>
	<time>2024-03-25T12:35:39.000Z</time>
</trkpt>
<trkpt lat="45.8459350" lon="9.2988240">
	<ele>814.20</ele>
	<time>2024-03-25T12:35:40.000Z</time>
</trkpt>
<trkpt lat="45.8459330" lon="9.2988190">
	<ele>814.00</ele>
	<time>2024-03-25T12:35:41.000Z</time>
</trkpt>
<trkpt lat="45.8459310" lon="9.2988180">
	<ele>813.80</ele>
	<time>2024-03-25T12:35:42.000Z</time>
</trkpt>
<trkpt lat="45.8459260" lon="9.2988010">
	<ele>813.20</ele>
	<time>2024-03-25T12:35:43.000Z</time>
</trkpt>
<trkpt lat="45.8459210" lon="9.2987950">
	<ele>813.00</ele>
	<time>2024-03-25T12:35:44.000Z</time>
</trkpt>
<trkpt lat="45.8459230" lon="9.2987850">
	<ele>812.60</ele>
	<time>2024-03-25T12:35:45.000Z</time>
</trkpt>
<trkpt lat="45.8459220" lon="9.2987700">
	<ele>812.40</ele>
	<time>2024-03-25T12:35:46.000Z</time>
</trkpt>
<trkpt lat="45.8459200" lon="9.2987550">
	<ele>812.20</ele>
	<time>2024-03-25T12:35:47.000Z</time>
</trkpt>
<trkpt lat="45.8459160" lon="9.2987520">
	<ele>811.80</ele>
	<time>2024-03-25T12:35:48.000Z</time>
</trkpt>
<trkpt lat="45.8459130" lon="9.2987550">
	<ele>811.60</ele>
	<time>2024-03-25T12:35:49.000Z</time>
</trkpt>
<trkpt lat="45.8459070" lon="9.2987600">
	<ele>811.20</ele>
	<time>2024-03-25T12:35:50.000Z</time>
</trkpt>
<trkpt lat="45.8459070" lon="9.2987610">
	<ele>810.80</ele>
	<time>2024-03-25T12:35:51.000Z</time>
</trkpt>
<trkpt lat="45.8459120" lon="9.2987630">
	<ele>810.60</ele>
	<time>2024-03-25T12:35:52.000Z</time>
</trkpt>
<trkpt lat="45.8459190" lon="9.2987580">
	<ele>810.40</ele>
	<time>2024-03-25T12:35:53.000Z</time>
</trkpt>
<trkpt lat="45.8459280" lon="9.2987560">
	<ele>810.20</ele>
	<time>2024-03-25T12:35:54.000Z</time>
</trkpt>
<trkpt lat="45.8459360" lon="9.2987540">
	<ele>809.80</ele>
	<time>2024-03-25T12:35:55.000Z</time>
</trkpt>
<trkpt lat="45.8459410" lon="9.2987490">
	<ele>809.60</ele>
	<time>2024-03-25T12:35:56.000Z</time>
</trkpt>
<trkpt lat="45.8459430" lon="9.2987440">
	<ele>809.40</ele>
	<time>2024-03-25T12:35:57.000Z</time>
</trkpt>
<trkpt lat="45.8459480" lon="9.2987400">
	<ele>809.40</ele>
	<time>2024-03-25T12:35:58.000Z</time>
</trkpt>
<trkpt lat="45.8459540" lon="9.2987360">
	<ele>809.00</ele>
	<time>2024-03-25T12:35:59.000Z</time>
</trkpt>
<trkpt lat="45.8459530" lon="9.2987320">
	<ele>808.60</ele>
	<time>2024-03-25T12:36:00.000Z</time>
</trkpt>
<trkpt lat="45.8459670" lon="9.2987420">
	<ele>808.40</ele>
	<time>2024-03-25T12:36:01.000Z</time>
</trkpt>
<trkpt lat="45.8459750" lon="9.2987490">
	<ele>808.20</ele>
	<time>2024-03-25T12:36:02.000Z</time>
</trkpt>
<trkpt lat="45.8459840" lon="9.2987470">
	<ele>807.80</ele>
	<time>2024-03-25T12:36:03.000Z</time>
</trkpt>
<trkpt lat="45.8459920" lon="9.2987450">
	<ele>807.60</ele>
	<time>2024-03-25T12:36:04.000Z</time>
</trkpt>
<trkpt lat="45.8460030" lon="9.2987420">
	<ele>807.40</ele>
	<time>2024-03-25T12:36:05.000Z</time>
</trkpt>
<trkpt lat="45.8460090" lon="9.2987330">
	<ele>807.00</ele>
	<time>2024-03-25T12:36:06.000Z</time>
</trkpt>
<trkpt lat="45.8460100" lon="9.2987260">
	<ele>806.80</ele>
	<time>2024-03-25T12:36:07.000Z</time>
</trkpt>
<trkpt lat="45.8460080" lon="9.2987220">
	<ele>806.60</ele>
	<time>2024-03-25T12:36:08.000Z</time>
</trkpt>
<trkpt lat="45.8460060" lon="9.2987170">
	<ele>806.00</ele>
	<time>2024-03-25T12:36:09.000Z</time>
</trkpt>
<trkpt lat="45.8460030" lon="9.2987160">
	<ele>805.60</ele>
	<time>2024-03-25T12:36:10.000Z</time>
</trkpt>
<trkpt lat="45.8460040" lon="9.2987180">
	<ele>805.40</ele>
	<time>2024-03-25T12:36:11.000Z</time>
</trkpt>
<trkpt lat="45.8460040" lon="9.2987160">
	<ele>805.00</ele>
	<time>2024-03-25T12:36:12.000Z</time>
</trkpt>
<trkpt lat="45.8460030" lon="9.2987110">
	<ele>804.60</ele>
	<time>2024-03-25T12:36:13.000Z</time>
</trkpt>
<trkpt lat="45.8460010" lon="9.2987090">
	<ele>804.40</ele>
	<time>2024-03-25T12:36:14.000Z</time>
</trkpt>
<trkpt lat="45.8460060" lon="9.2987000">
	<ele>804.20</ele>
	<time>2024-03-25T12:36:15.000Z</time>
</trkpt>
<trkpt lat="45.8460050" lon="9.2986860">
	<ele>803.80</ele>
	<time>2024-03-25T12:36:16.000Z</time>
</trkpt>
<trkpt lat="45.8460030" lon="9.2986750">
	<ele>803.60</ele>
	<time>2024-03-25T12:36:17.000Z</time>
</trkpt>
<trkpt lat="45.8460000" lon="9.2986750">
	<ele>803.20</ele>
	<time>2024-03-25T12:36:18.000Z</time>
</trkpt>
<trkpt lat="45.8459980" lon="9.2986650">
	<ele>802.80</ele>
	<time>2024-03-25T12:36:19.000Z</time>
</trkpt>
<trkpt lat="45.8459980" lon="9.2986550">
	<ele>802.40</ele>
	<time>2024-03-25T12:36:20.000Z</time>
</trkpt>
<trkpt lat="45.8459960" lon="9.2986530">
	<ele>802.20</ele>
	<time>2024-03-25T12:36:21.000Z</time>
</trkpt>
<trkpt lat="45.8459940" lon="9.2986400">
	<ele>802.00</ele>
	<time>2024-03-25T12:36:22.000Z</time>
</trkpt>
<trkpt lat="45.8459940" lon="9.2986280">
	<ele>801.60</ele>
	<time>2024-03-25T12:36:23.000Z</time>
</trkpt>
<trkpt lat="45.8459910" lon="9.2986090">
	<ele>801.40</ele>
	<time>2024-03-25T12:36:24.000Z</time>
</trkpt>
<trkpt lat="45.8459890" lon="9.2985920">
	<ele>801.20</ele>
	<time>2024-03-25T12:36:25.000Z</time>
</trkpt>
<trkpt lat="45.8459870" lon="9.2985790">
	<ele>800.80</ele>
	<time>2024-03-25T12:36:26.000Z</time>
</trkpt>
<trkpt lat="45.8459800" lon="9.2985700">
	<ele>800.60</ele>
	<time>2024-03-25T12:36:27.000Z</time>
</trkpt>
<trkpt lat="45.8459720" lon="9.2985680">
	<ele>800.40</ele>
	<time>2024-03-25T12:36:28.000Z</time>
</trkpt>
<trkpt lat="45.8459700" lon="9.2985710">
	<ele>800.00</ele>
	<time>2024-03-25T12:36:29.000Z</time>
</trkpt>
<trkpt lat="45.8459670" lon="9.2985700">
	<ele>799.60</ele>
	<time>2024-03-25T12:36:30.000Z</time>
</trkpt>
<trkpt lat="45.8459640" lon="9.2985690">
	<ele>799.40</ele>
	<time>2024-03-25T12:36:31.000Z</time>
</trkpt>
<trkpt lat="45.8459620" lon="9.2985720">
	<ele>799.00</ele>
	<time>2024-03-25T12:36:32.000Z</time>
</trkpt>
<trkpt lat="45.8459610" lon="9.2985720">
	<ele>798.60</ele>
	<time>2024-03-25T12:36:33.000Z</time>
</trkpt>
<trkpt lat="45.8459610" lon="9.2985700">
	<ele>798.40</ele>
	<time>2024-03-25T12:36:34.000Z</time>
</trkpt>
<trkpt lat="45.8459660" lon="9.2985630">
	<ele>798.00</ele>
	<time>2024-03-25T12:36:35.000Z</time>
</trkpt>
<trkpt lat="45.8459660" lon="9.2985530">
	<ele>797.80</ele>
	<time>2024-03-25T12:36:36.000Z</time>
</trkpt>
<trkpt lat="45.8459660" lon="9.2985510">
	<ele>797.40</ele>
	<time>2024-03-25T12:36:37.000Z</time>
</trkpt>
<trkpt lat="45.8459650" lon="9.2985420">
	<ele>797.20</ele>
	<time>2024-03-25T12:36:38.000Z</time>
</trkpt>
<trkpt lat="45.8459630" lon="9.2985410">
	<ele>797.00</ele>
	<time>2024-03-25T12:36:39.000Z</time>
</trkpt>
<trkpt lat="45.8459600" lon="9.2985360">
	<ele>796.60</ele>
	<time>2024-03-25T12:36:40.000Z</time>
</trkpt>
<trkpt lat="45.8459560" lon="9.2985350">
	<ele>796.20</ele>
	<time>2024-03-25T12:36:41.000Z</time>
</trkpt>
<trkpt lat="45.8459460" lon="9.2985220">
	<ele>796.00</ele>
	<time>2024-03-25T12:36:42.000Z</time>
</trkpt>
<trkpt lat="45.8459420" lon="9.2985190">
	<ele>795.60</ele>
	<time>2024-03-25T12:36:43.000Z</time>
</trkpt>
<trkpt lat="45.8459370" lon="9.2985120">
	<ele>795.40</ele>
	<time>2024-03-25T12:36:44.000Z</time>
</trkpt>
<trkpt lat="45.8459350" lon="9.2985100">
	<ele>795.20</ele>
	<time>2024-03-25T12:36:45.000Z</time>
</trkpt>
<trkpt lat="45.8459260" lon="9.2985210">
	<ele>794.80</ele>
	<time>2024-03-25T12:36:46.000Z</time>
</trkpt>
<trkpt lat="45.8459230" lon="9.2985220">
	<ele>794.60</ele>
	<time>2024-03-25T12:36:47.000Z</time>
</trkpt>
<trkpt lat="45.8459170" lon="9.2985240">
	<ele>794.20</ele>
	<time>2024-03-25T12:36:48.000Z</time>
</trkpt>
<trkpt lat="45.8459100" lon="9.2985240">
	<ele>793.80</ele>
	<time>2024-03-25T12:36:49.000Z</time>
</trkpt>
<trkpt lat="45.8459020" lon="9.2985190">
	<ele>793.60</ele>
	<time>2024-03-25T12:36:50.000Z</time>
</trkpt>
<trkpt lat="45.8458930" lon="9.2985080">
	<ele>793.20</ele>
	<time>2024-03-25T12:36:51.000Z</time>
</trkpt>
<trkpt lat="45.8458840" lon="9.2984950">
	<ele>792.80</ele>
	<time>2024-03-25T12:36:52.000Z</time>
</trkpt>
<trkpt lat="45.8458750" lon="9.2984800">
	<ele>792.60</ele>
	<time>2024-03-25T12:36:53.000Z</time>
</trkpt>
<trkpt lat="45.8458730" lon="9.2984810">
	<ele>792.20</ele>
	<time>2024-03-25T12:36:54.000Z</time>
</trkpt>
<trkpt lat="45.8458690" lon="9.2984730">
	<ele>792.00</ele>
	<time>2024-03-25T12:36:55.000Z</time>
</trkpt>
<trkpt lat="45.8458650" lon="9.2984700">
	<ele>791.60</ele>
	<time>2024-03-25T12:36:56.000Z</time>
</trkpt>
<trkpt lat="45.8458620" lon="9.2984660">
	<ele>791.40</ele>
	<time>2024-03-25T12:36:57.000Z</time>
</trkpt>
<trkpt lat="45.8458570" lon="9.2984620">
	<ele>791.00</ele>
	<time>2024-03-25T12:36:58.000Z</time>
</trkpt>
<trkpt lat="45.8458540" lon="9.2984630">
	<ele>790.80</ele>
	<time>2024-03-25T12:36:59.000Z</time>
</trkpt>
<trkpt lat="45.8458470" lon="9.2984570">
	<ele>790.40</ele>
	<time>2024-03-25T12:37:00.000Z</time>
</trkpt>
<trkpt lat="45.8458420" lon="9.2984500">
	<ele>790.20</ele>
	<time>2024-03-25T12:37:01.000Z</time>
</trkpt>
<trkpt lat="45.8458370" lon="9.2984430">
	<ele>790.00</ele>
	<time>2024-03-25T12:37:02.000Z</time>
</trkpt>
<trkpt lat="45.8458280" lon="9.2984300">
	<ele>789.80</ele>
	<time>2024-03-25T12:37:03.000Z</time>
</trkpt>
<trkpt lat="45.8458230" lon="9.2984260">
	<ele>789.40</ele>
	<time>2024-03-25T12:37:04.000Z</time>
</trkpt>
<trkpt lat="45.8458120" lon="9.2984060">
	<ele>789.00</ele>
	<time>2024-03-25T12:37:05.000Z</time>
</trkpt>
<trkpt lat="45.8458020" lon="9.2983830">
	<ele>788.60</ele>
	<time>2024-03-25T12:37:06.000Z</time>
</trkpt>
<trkpt lat="45.8457950" lon="9.2983700">
	<ele>788.40</ele>
	<time>2024-03-25T12:37:07.000Z</time>
</trkpt>
<trkpt lat="45.8457930" lon="9.2983560">
	<ele>788.00</ele>
	<time>2024-03-25T12:37:08.000Z</time>
</trkpt>
<trkpt lat="45.8457920" lon="9.2983420">
	<ele>787.80</ele>
	<time>2024-03-25T12:37:09.000Z</time>
</trkpt>
<trkpt lat="45.8457880" lon="9.2983390">
	<ele>787.40</ele>
	<time>2024-03-25T12:37:10.000Z</time>
</trkpt>
<trkpt lat="45.8457860" lon="9.2983430">
	<ele>787.20</ele>
	<time>2024-03-25T12:37:11.000Z</time>
</trkpt>
<trkpt lat="45.8457840" lon="9.2983420">
	<ele>787.00</ele>
	<time>2024-03-25T12:37:12.000Z</time>
</trkpt>
<trkpt lat="45.8457870" lon="9.2983360">
	<ele>786.80</ele>
	<time>2024-03-25T12:37:13.000Z</time>
</trkpt>
<trkpt lat="45.8457940" lon="9.2983290">
	<ele>786.60</ele>
	<time>2024-03-25T12:37:14.000Z</time>
</trkpt>
<trkpt lat="45.8458010" lon="9.2983220">
	<ele>786.40</ele>
	<time>2024-03-25T12:37:15.000Z</time>
</trkpt>
<trkpt lat="45.8458030" lon="9.2983100">
	<ele>786.20</ele>
	<time>2024-03-25T12:37:16.000Z</time>
</trkpt>
<trkpt lat="45.8458060" lon="9.2983040">
	<ele>786.00</ele>
	<time>2024-03-25T12:37:17.000Z</time>
</trkpt>
<trkpt lat="45.8458130" lon="9.2982970">
	<ele>785.40</ele>
	<time>2024-03-25T12:37:18.000Z</time>
</trkpt>
<trkpt lat="45.8458190" lon="9.2982950">
	<ele>785.00</ele>
	<time>2024-03-25T12:37:19.000Z</time>
</trkpt>
<trkpt lat="45.8458260" lon="9.2982950">
	<ele>784.60</ele>
	<time>2024-03-25T12:37:20.000Z</time>
</trkpt>
<trkpt lat="45.8458310" lon="9.2982950">
	<ele>784.40</ele>
	<time>2024-03-25T12:37:21.000Z</time>
</trkpt>
<trkpt lat="45.8458370" lon="9.2982860">
	<ele>784.00</ele>
	<time>2024-03-25T12:37:22.000Z</time>
</trkpt>
<trkpt lat="45.8458380" lon="9.2982790">
	<ele>783.80</ele>
	<time>2024-03-25T12:37:23.000Z</time>
</trkpt>
<trkpt lat="45.8458450" lon="9.2982840">
	<ele>783.60</ele>
	<time>2024-03-25T12:37:24.000Z</time>
</trkpt>
<trkpt lat="45.8458560" lon="9.2982900">
	<ele>783.20</ele>
	<time>2024-03-25T12:37:25.000Z</time>
</trkpt>
<trkpt lat="45.8458660" lon="9.2983060">
	<ele>783.20</ele>
	<time>2024-03-25T12:37:26.000Z</time>
</trkpt>
<trkpt lat="45.8458730" lon="9.2983140">
	<ele>783.00</ele>
	<time>2024-03-25T12:37:27.000Z</time>
</trkpt>
<trkpt lat="45.8458820" lon="9.2983180">
	<ele>782.60</ele>
	<time>2024-03-25T12:37:28.000Z</time>
</trkpt>
<trkpt lat="45.8458900" lon="9.2983140">
	<ele>782.40</ele>
	<time>2024-03-25T12:37:29.000Z</time>
</trkpt>
<trkpt lat="45.8458950" lon="9.2983060">
	<ele>782.20</ele>
	<time>2024-03-25T12:37:30.000Z</time>
</trkpt>
<trkpt lat="45.8458980" lon="9.2982990">
	<ele>782.00</ele>
	<time>2024-03-25T12:37:31.000Z</time>
</trkpt>
<trkpt lat="45.8459000" lon="9.2982930">
	<ele>781.60</ele>
	<time>2024-03-25T12:37:32.000Z</time>
</trkpt>
<trkpt lat="45.8458990" lon="9.2982850">
	<ele>781.20</ele>
	<time>2024-03-25T12:37:33.000Z</time>
</trkpt>
<trkpt lat="45.8459030" lon="9.2982740">
	<ele>780.80</ele>
	<time>2024-03-25T12:37:34.000Z</time>
</trkpt>
<trkpt lat="45.8459040" lon="9.2982710">
	<ele>780.60</ele>
	<time>2024-03-25T12:37:35.000Z</time>
</trkpt>
<trkpt lat="45.8459070" lon="9.2982690">
	<ele>780.40</ele>
	<time>2024-03-25T12:37:36.000Z</time>
</trkpt>
<trkpt lat="45.8459210" lon="9.2982600">
	<ele>780.20</ele>
	<time>2024-03-25T12:37:37.000Z</time>
</trkpt>
<trkpt lat="45.8459330" lon="9.2982590">
	<ele>779.80</ele>
	<time>2024-03-25T12:37:38.000Z</time>
</trkpt>
<trkpt lat="45.8459440" lon="9.2982520">
	<ele>779.40</ele>
	<time>2024-03-25T12:37:39.000Z</time>
</trkpt>
<trkpt lat="45.8459530" lon="9.2982480">
	<ele>779.20</ele>
	<time>2024-03-25T12:37:40.000Z</time>
</trkpt>
<trkpt lat="45.8459520" lon="9.2982390">
	<ele>778.80</ele>
	<time>2024-03-25T12:37:41.000Z</time>
</trkpt>
<trkpt lat="45.8459560" lon="9.2982340">
	<ele>778.60</ele>
	<time>2024-03-25T12:37:42.000Z</time>
</trkpt>
<trkpt lat="45.8459630" lon="9.2982280">
	<ele>778.40</ele>
	<time>2024-03-25T12:37:43.000Z</time>
</trkpt>
<trkpt lat="45.8459670" lon="9.2982270">
	<ele>778.20</ele>
	<time>2024-03-25T12:37:44.000Z</time>
</trkpt>
<trkpt lat="45.8459710" lon="9.2982250">
	<ele>778.00</ele>
	<time>2024-03-25T12:37:45.000Z</time>
</trkpt>
<trkpt lat="45.8459760" lon="9.2982190">
	<ele>777.80</ele>
	<time>2024-03-25T12:37:46.000Z</time>
</trkpt>
<trkpt lat="45.8459790" lon="9.2982130">
	<ele>777.60</ele>
	<time>2024-03-25T12:37:47.000Z</time>
</trkpt>
<trkpt lat="45.8459760" lon="9.2982010">
	<ele>777.00</ele>
	<time>2024-03-25T12:37:48.000Z</time>
</trkpt>
<trkpt lat="45.8459790" lon="9.2981960">
	<ele>776.80</ele>
	<time>2024-03-25T12:37:49.000Z</time>
</trkpt>
<trkpt lat="45.8459820" lon="9.2981880">
	<ele>776.40</ele>
	<time>2024-03-25T12:37:50.000Z</time>
</trkpt>
<trkpt lat="45.8459870" lon="9.2981810">
	<ele>776.20</ele>
	<time>2024-03-25T12:37:51.000Z</time>
</trkpt>
<trkpt lat="45.8459900" lon="9.2981690">
	<ele>776.00</ele>
	<time>2024-03-25T12:37:52.000Z</time>
</trkpt>
<trkpt lat="45.8459960" lon="9.2981640">
	<ele>775.60</ele>
	<time>2024-03-25T12:37:53.000Z</time>
</trkpt>
<trkpt lat="45.8460000" lon="9.2981670">
	<ele>775.40</ele>
	<time>2024-03-25T12:37:54.000Z</time>
</trkpt>
<trkpt lat="45.8460030" lon="9.2981640">
	<ele>775.20</ele>
	<time>2024-03-25T12:37:55.000Z</time>
</trkpt>
<trkpt lat="45.8460050" lon="9.2981670">
	<ele>774.80</ele>
	<time>2024-03-25T12:37:56.000Z</time>
</trkpt>
<trkpt lat="45.8460030" lon="9.2981670">
	<ele>774.40</ele>
	<time>2024-03-25T12:37:57.000Z</time>
</trkpt>
<trkpt lat="45.8460030" lon="9.2981650">
	<ele>774.00</ele>
	<time>2024-03-25T12:37:58.000Z</time>
</trkpt>
<trkpt lat="45.8460080" lon="9.2981560">
	<ele>773.80</ele>
	<time>2024-03-25T12:37:59.000Z</time>
</trkpt>
<trkpt lat="45.8460180" lon="9.2981520">
	<ele>773.60</ele>
	<time>2024-03-25T12:38:00.000Z</time>
</trkpt>
<trkpt lat="45.8460260" lon="9.2981560">
	<ele>773.20</ele>
	<time>2024-03-25T12:38:01.000Z</time>
</trkpt>
<trkpt lat="45.8460310" lon="9.2981590">
	<ele>772.80</ele>
	<time>2024-03-25T12:38:02.000Z</time>
</trkpt>
<trkpt lat="45.8460370" lon="9.2981530">
	<ele>772.40</ele>
	<time>2024-03-25T12:38:03.000Z</time>
</trkpt>
<trkpt lat="45.8460440" lon="9.2981390">
	<ele>772.20</ele>
	<time>2024-03-25T12:38:04.000Z</time>
</trkpt>
<trkpt lat="45.8460460" lon="9.2981260">
	<ele>772.00</ele>
	<time>2024-03-25T12:38:05.000Z</time>
</trkpt>
<trkpt lat="45.8460470" lon="9.2981220">
	<ele>771.60</ele>
	<time>2024-03-25T12:38:06.000Z</time>
</trkpt>
<trkpt lat="45.8460530" lon="9.2981240">
	<ele>771.20</ele>
	<time>2024-03-25T12:38:07.000Z</time>
</trkpt>
<trkpt lat="45.8460560" lon="9.2981250">
	<ele>771.00</ele>
	<time>2024-03-25T12:38:08.000Z</time>
</trkpt>
<trkpt lat="45.8460610" lon="9.2981210">
	<ele>770.60</ele>
	<time>2024-03-25T12:38:09.000Z</time>
</trkpt>
<trkpt lat="45.8460700" lon="9.2981130">
	<ele>770.40</ele>
	<time>2024-03-25T12:38:10.000Z</time>
</trkpt>
<trkpt lat="45.8460700" lon="9.2981080">
	<ele>770.20</ele>
	<time>2024-03-25T12:38:11.000Z</time>
</trkpt>
<trkpt lat="45.8460760" lon="9.2980970">
	<ele>770.00</ele>
	<time>2024-03-25T12:38:12.000Z</time>
</trkpt>
<trkpt lat="45.8460750" lon="9.2980810">
	<ele>769.60</ele>
	<time>2024-03-25T12:38:13.000Z</time>
</trkpt>
<trkpt lat="45.8460730" lon="9.2980600">
	<ele>769.40</ele>
	<time>2024-03-25T12:38:14.000Z</time>
</trkpt>
<trkpt lat="45.8460690" lon="9.2980430">
	<ele>769.20</ele>
	<time>2024-03-25T12:38:15.000Z</time>
</trkpt>
<trkpt lat="45.8460670" lon="9.2980220">
	<ele>768.80</ele>
	<time>2024-03-25T12:38:16.000Z</time>
</trkpt>
<trkpt lat="45.8460580" lon="9.2980120">
	<ele>768.60</ele>
	<time>2024-03-25T12:38:17.000Z</time>
</trkpt>
<trkpt lat="45.8460540" lon="9.2980110">
	<ele>768.40</ele>
	<time>2024-03-25T12:38:18.000Z</time>
</trkpt>
<trkpt lat="45.8460500" lon="9.2980070">
	<ele>768.20</ele>
	<time>2024-03-25T12:38:19.000Z</time>
</trkpt>
<trkpt lat="45.8460490" lon="9.2980050">
	<ele>767.80</ele>
	<time>2024-03-25T12:38:20.000Z</time>
</trkpt>
<trkpt lat="45.8460470" lon="9.2980090">
	<ele>767.60</ele>
	<time>2024-03-25T12:38:21.000Z</time>
</trkpt>
<trkpt lat="45.8460440" lon="9.2980120">
	<ele>767.20</ele>
	<time>2024-03-25T12:38:22.000Z</time>
</trkpt>
<trkpt lat="45.8460370" lon="9.2980180">
	<ele>767.00</ele>
	<time>2024-03-25T12:38:23.000Z</time>
</trkpt>
<trkpt lat="45.8460330" lon="9.2980200">
	<ele>767.00</ele>
	<time>2024-03-25T12:38:24.000Z</time>
</trkpt>
<trkpt lat="45.8460300" lon="9.2980210">
	<ele>766.80</ele>
	<time>2024-03-25T12:38:25.000Z</time>
</trkpt>
<trkpt lat="45.8460290" lon="9.2980180">
	<ele>766.60</ele>
	<time>2024-03-25T12:38:26.000Z</time>
</trkpt>
<trkpt lat="45.8460230" lon="9.2980130">
	<ele>766.20</ele>
	<time>2024-03-25T12:38:27.000Z</time>
</trkpt>
<trkpt lat="45.8460190" lon="9.2980100">
	<ele>765.80</ele>
	<time>2024-03-25T12:38:28.000Z</time>
</trkpt>
<trkpt lat="45.8460150" lon="9.2980040">
	<ele>765.40</ele>
	<time>2024-03-25T12:38:29.000Z</time>
</trkpt>
<trkpt lat="45.8460180" lon="9.2979960">
	<ele>765.20</ele>
	<time>2024-03-25T12:38:30.000Z</time>
</trkpt>
<trkpt lat="45.8460170" lon="9.2979950">
	<ele>764.80</ele>
	<time>2024-03-25T12:38:31.000Z</time>
</trkpt>
<trkpt lat="45.8460110" lon="9.2979930">
	<ele>764.60</ele>
	<time>2024-03-25T12:38:32.000Z</time>
</trkpt>
<trkpt lat="45.8460100" lon="9.2980010">
	<ele>764.40</ele>
	<time>2024-03-25T12:38:33.000Z</time>
</trkpt>
<trkpt lat="45.8460020" lon="9.2980010">
	<ele>764.00</ele>
	<time>2024-03-25T12:38:34.000Z</time>
</trkpt>
<trkpt lat="45.8460020" lon="9.2980030">
	<ele>764.00</ele>
	<time>2024-03-25T12:38:35.000Z</time>
</trkpt>
<trkpt lat="45.8460030" lon="9.2980040">
	<ele>763.60</ele>
	<time>2024-03-25T12:38:36.000Z</time>
</trkpt>
<trkpt lat="45.8460050" lon="9.2979920">
	<ele>763.20</ele>
	<time>2024-03-25T12:38:37.000Z</time>
</trkpt>
<trkpt lat="45.8460060" lon="9.2979880">
	<ele>763.20</ele>
	<time>2024-03-25T12:38:38.000Z</time>
</trkpt>
<trkpt lat="45.8460040" lon="9.2979860">
	<ele>762.80</ele>
	<time>2024-03-25T12:38:39.000Z</time>
</trkpt>
<trkpt lat="45.8460040" lon="9.2979830">
	<ele>762.60</ele>
	<time>2024-03-25T12:38:40.000Z</time>
</trkpt>
<trkpt lat="45.8460010" lon="9.2979810">
	<ele>762.40</ele>
	<time>2024-03-25T12:38:41.000Z</time>
</trkpt>
<trkpt lat="45.8459990" lon="9.2979790">
	<ele>762.20</ele>
	<time>2024-03-25T12:38:42.000Z</time>
</trkpt>
<trkpt lat="45.8459980" lon="9.2979760">
	<ele>762.00</ele>
	<time>2024-03-25T12:38:43.000Z</time>
</trkpt>
<trkpt lat="45.8459980" lon="9.2979760">
	<ele>761.80</ele>
	<time>2024-03-25T12:38:44.000Z</time>
</trkpt>
<trkpt lat="45.8459970" lon="9.2979760">
	<ele>761.60</ele>
	<time>2024-03-25T12:38:45.000Z</time>
</trkpt>
<trkpt lat="45.8459950" lon="9.2979740">
	<ele>761.40</ele>
	<time>2024-03-25T12:38:46.000Z</time>
</trkpt>
<trkpt lat="45.8459960" lon="9.2979740">
	<ele>761.20</ele>
	<time>2024-03-25T12:38:47.000Z</time>
</trkpt>
<trkpt lat="45.8459910" lon="9.2979720">
	<ele>761.00</ele>
	<time>2024-03-25T12:38:48.000Z</time>
</trkpt>
<trkpt lat="45.8459890" lon="9.2979730">
	<ele>760.60</ele>
	<time>2024-03-25T12:38:49.000Z</time>
</trkpt>
<trkpt lat="45.8459880" lon="9.2979690">
	<ele>760.40</ele>
	<time>2024-03-25T12:38:50.000Z</time>
</trkpt>
<trkpt lat="45.8459860" lon="9.2979530">
	<ele>760.20</ele>
	<time>2024-03-25T12:38:51.000Z</time>
</trkpt>
<trkpt lat="45.8459870" lon="9.2979430">
	<ele>759.80</ele>
	<time>2024-03-25T12:38:52.000Z</time>
</trkpt>
<trkpt lat="45.8459880" lon="9.2979270">
	<ele>759.40</ele>
	<time>2024-03-25T12:38:53.000Z</time>
</trkpt>
<trkpt lat="45.8459900" lon="9.2979080">
	<ele>759.20</ele>
	<time>2024-03-25T12:38:54.000Z</time>
</trkpt>
<trkpt lat="45.8459900" lon="9.2979090">
	<ele>759.00</ele>
	<time>2024-03-25T12:38:55.000Z</time>
</trkpt>
<trkpt lat="45.8459890" lon="9.2979070">
	<ele>759.00</ele>
	<time>2024-03-25T12:38:56.000Z</time>
</trkpt>
<trkpt lat="45.8459860" lon="9.2979050">
	<ele>758.60</ele>
	<time>2024-03-25T12:38:57.000Z</time>
</trkpt>
<trkpt lat="45.8459820" lon="9.2979010">
	<ele>758.40</ele>
	<time>2024-03-25T12:38:58.000Z</time>
</trkpt>
<trkpt lat="45.8459810" lon="9.2978990">
	<ele>758.20</ele>
	<time>2024-03-25T12:38:59.000Z</time>
</trkpt>
<trkpt lat="45.8459800" lon="9.2978960">
	<ele>757.80</ele>
	<time>2024-03-25T12:39:00.000Z</time>
</trkpt>
<trkpt lat="45.8459790" lon="9.2978860">
	<ele>757.60</ele>
	<time>2024-03-25T12:39:01.000Z</time>
</trkpt>
<trkpt lat="45.8459720" lon="9.2978750">
	<ele>757.40</ele>
	<time>2024-03-25T12:39:02.000Z</time>
</trkpt>
<trkpt lat="45.8459690" lon="9.2978600">
	<ele>757.40</ele>
	<time>2024-03-25T12:39:03.000Z</time>
</trkpt>
<trkpt lat="45.8459680" lon="9.2978450">
	<ele>757.20</ele>
	<time>2024-03-25T12:39:04.000Z</time>
</trkpt>
<trkpt lat="45.8459630" lon="9.2978350">
	<ele>757.00</ele>
	<time>2024-03-25T12:39:05.000Z</time>
</trkpt>
<trkpt lat="45.8459580" lon="9.2978260">
	<ele>757.00</ele>
	<time>2024-03-25T12:39:06.000Z</time>
</trkpt>
<trkpt lat="45.8459550" lon="9.2978140">
	<ele>756.60</ele>
	<time>2024-03-25T12:39:07.000Z</time>
</trkpt>
<trkpt lat="45.8459550" lon="9.2978040">
	<ele>756.40</ele>
	<time>2024-03-25T12:39:08.000Z</time>
</trkpt>
<trkpt lat="45.8459500" lon="9.2977950">
	<ele>756.00</ele>
	<time>2024-03-25T12:39:09.000Z</time>
</trkpt>
<trkpt lat="45.8459410" lon="9.2977920">
	<ele>755.80</ele>
	<time>2024-03-25T12:39:10.000Z</time>
</trkpt>
<trkpt lat="45.8459330" lon="9.2977880">
	<ele>755.60</ele>
	<time>2024-03-25T12:39:11.000Z</time>
</trkpt>
<trkpt lat="45.8459230" lon="9.2977800">
	<ele>755.40</ele>
	<time>2024-03-25T12:39:12.000Z</time>
</trkpt>
<trkpt lat="45.8459190" lon="9.2977730">
	<ele>755.20</ele>
	<time>2024-03-25T12:39:13.000Z</time>
</trkpt>
<trkpt lat="45.8459210" lon="9.2977650">
	<ele>755.00</ele>
	<time>2024-03-25T12:39:14.000Z</time>
</trkpt>
<trkpt lat="45.8459200" lon="9.2977570">
	<ele>754.80</ele>
	<time>2024-03-25T12:39:15.000Z</time>
</trkpt>
<trkpt lat="45.8459200" lon="9.2977600">
	<ele>754.60</ele>
	<time>2024-03-25T12:39:16.000Z</time>
</trkpt>
<trkpt lat="45.8459170" lon="9.2977550">
	<ele>754.40</ele>
	<time>2024-03-25T12:39:17.000Z</time>
</trkpt>
<trkpt lat="45.8459160" lon="9.2977550">
	<ele>754.40</ele>
	<time>2024-03-25T12:39:18.000Z</time>
</trkpt>
<trkpt lat="45.8459130" lon="9.2977540">
	<ele>754.00</ele>
	<time>2024-03-25T12:39:19.000Z</time>
</trkpt>
<trkpt lat="45.8459040" lon="9.2977580">
	<ele>753.80</ele>
	<time>2024-03-25T12:39:20.000Z</time>
</trkpt>
<trkpt lat="45.8458950" lon="9.2977600">
	<ele>753.40</ele>
	<time>2024-03-25T12:39:21.000Z</time>
</trkpt>
<trkpt lat="45.8458880" lon="9.2977530">
	<ele>753.20</ele>
	<time>2024-03-25T12:39:22.000Z</time>
</trkpt>
<trkpt lat="45.8458860" lon="9.2977360">
	<ele>753.00</ele>
	<time>2024-03-25T12:39:23.000Z</time>
</trkpt>
<trkpt lat="45.8458810" lon="9.2977150">
	<ele>752.60</ele>
	<time>2024-03-25T12:39:24.000Z</time>
</trkpt>
<trkpt lat="45.8458780" lon="9.2977000">
	<ele>752.40</ele>
	<time>2024-03-25T12:39:25.000Z</time>
</trkpt>
<trkpt lat="45.8458710" lon="9.2976890">
	<ele>752.00</ele>
	<time>2024-03-25T12:39:26.000Z</time>
</trkpt>
<trkpt lat="45.8458600" lon="9.2976810">
	<ele>751.60</ele>
	<time>2024-03-25T12:39:27.000Z</time>
</trkpt>
<trkpt lat="45.8458490" lon="9.2976650">
	<ele>751.40</ele>
	<time>2024-03-25T12:39:28.000Z</time>
</trkpt>
<trkpt lat="45.8458410" lon="9.2976550">
	<ele>751.20</ele>
	<time>2024-03-25T12:39:29.000Z</time>
</trkpt>
<trkpt lat="45.8458330" lon="9.2976500">
	<ele>751.20</ele>
	<time>2024-03-25T12:39:30.000Z</time>
</trkpt>
<trkpt lat="45.8458290" lon="9.2976430">
	<ele>750.80</ele>
	<time>2024-03-25T12:39:31.000Z</time>
</trkpt>
<trkpt lat="45.8458170" lon="9.2976340">
	<ele>750.40</ele>
	<time>2024-03-25T12:39:32.000Z</time>
</trkpt>
<trkpt lat="45.8458110" lon="9.2976220">
	<ele>750.20</ele>
	<time>2024-03-25T12:39:33.000Z</time>
</trkpt>
<trkpt lat="45.8458060" lon="9.2976060">
	<ele>749.80</ele>
	<time>2024-03-25T12:39:34.000Z</time>
</trkpt>
<trkpt lat="45.8457980" lon="9.2975910">
	<ele>749.60</ele>
	<time>2024-03-25T12:39:35.000Z</time>
</trkpt>
<trkpt lat="45.8457850" lon="9.2975790">
	<ele>749.40</ele>
	<time>2024-03-25T12:39:36.000Z</time>
</trkpt>
<trkpt lat="45.8457760" lon="9.2975800">
	<ele>749.00</ele>
	<time>2024-03-25T12:39:37.000Z</time>
</trkpt>
<trkpt lat="45.8457710" lon="9.2975770">
	<ele>748.80</ele>
	<time>2024-03-25T12:39:38.000Z</time>
</trkpt>
<trkpt lat="45.8457650" lon="9.2975740">
	<ele>748.60</ele>
	<time>2024-03-25T12:39:39.000Z</time>
</trkpt>
<trkpt lat="45.8457600" lon="9.2975730">
	<ele>748.40</ele>
	<time>2024-03-25T12:39:40.000Z</time>
</trkpt>
<trkpt lat="45.8457510" lon="9.2975720">
	<ele>748.20</ele>
	<time>2024-03-25T12:39:41.000Z</time>
</trkpt>
<trkpt lat="45.8457430" lon="9.2975660">
	<ele>748.20</ele>
	<time>2024-03-25T12:39:42.000Z</time>
</trkpt>
<trkpt lat="45.8457390" lon="9.2975660">
	<ele>748.00</ele>
	<time>2024-03-25T12:39:43.000Z</time>
</trkpt>
<trkpt lat="45.8457390" lon="9.2975610">
	<ele>747.80</ele>
	<time>2024-03-25T12:39:44.000Z</time>
</trkpt>
<trkpt lat="45.8457410" lon="9.2975600">
	<ele>747.60</ele>
	<time>2024-03-25T12:39:45.000Z</time>
</trkpt>
<trkpt lat="45.8457400" lon="9.2975530">
	<ele>747.40</ele>
	<time>2024-03-25T12:39:46.000Z</time>
</trkpt>
<trkpt lat="45.8457390" lon="9.2975500">
	<ele>747.20</ele>
	<time>2024-03-25T12:39:47.000Z</time>
</trkpt>
<trkpt lat="45.8457370" lon="9.2975470">
	<ele>747.00</ele>
	<time>2024-03-25T12:39:48.000Z</time>
</trkpt>
<trkpt lat="45.8457330" lon="9.2975450">
	<ele>746.80</ele>
	<time>2024-03-25T12:39:49.000Z</time>
</trkpt>
<trkpt lat="45.8457270" lon="9.2975440">
	<ele>746.60</ele>
	<time>2024-03-25T12:39:50.000Z</time>
</trkpt>
<trkpt lat="45.8457190" lon="9.2975330">
	<ele>746.20</ele>
	<time>2024-03-25T12:39:51.000Z</time>
</trkpt>
<trkpt lat="45.8457100" lon="9.2975230">
	<ele>746.00</ele>
	<time>2024-03-25T12:39:52.000Z</time>
</trkpt>
<trkpt lat="45.8456990" lon="9.2975010">
	<ele>745.60</ele>
	<time>2024-03-25T12:39:53.000Z</time>
</trkpt>
<trkpt lat="45.8456990" lon="9.2974960">
	<ele>745.40</ele>
	<time>2024-03-25T12:39:54.000Z</time>
</trkpt>
<trkpt lat="45.8456990" lon="9.2974950">
	<ele>745.00</ele>
	<time>2024-03-25T12:39:55.000Z</time>
</trkpt>
<trkpt lat="45.8456980" lon="9.2974920">
	<ele>744.80</ele>
	<time>2024-03-25T12:39:56.000Z</time>
</trkpt>
<trkpt lat="45.8456930" lon="9.2974710">
	<ele>744.60</ele>
	<time>2024-03-25T12:39:57.000Z</time>
</trkpt>
<trkpt lat="45.8456890" lon="9.2974530">
	<ele>744.00</ele>
	<time>2024-03-25T12:39:58.000Z</time>
</trkpt>
<trkpt lat="45.8456780" lon="9.2974380">
	<ele>743.60</ele>
	<time>2024-03-25T12:39:59.000Z</time>
</trkpt>
<trkpt lat="45.8456710" lon="9.2974290">
	<ele>743.40</ele>
	<time>2024-03-25T12:40:00.000Z</time>
</trkpt>
<trkpt lat="45.8456630" lon="9.2974220">
	<ele>743.00</ele>
	<time>2024-03-25T12:40:01.000Z</time>
</trkpt>
<trkpt lat="45.8456530" lon="9.2974180">
	<ele>742.80</ele>
	<time>2024-03-25T12:40:02.000Z</time>
</trkpt>
<trkpt lat="45.8456430" lon="9.2974130">
	<ele>742.60</ele>
	<time>2024-03-25T12:40:03.000Z</time>
</trkpt>
<trkpt lat="45.8456340" lon="9.2974020">
	<ele>742.20</ele>
	<time>2024-03-25T12:40:04.000Z</time>
</trkpt>
<trkpt lat="45.8456260" lon="9.2973890">
	<ele>742.00</ele>
	<time>2024-03-25T12:40:05.000Z</time>
</trkpt>
<trkpt lat="45.8456170" lon="9.2973770">
	<ele>741.80</ele>
	<time>2024-03-25T12:40:06.000Z</time>
</trkpt>
<trkpt lat="45.8456090" lon="9.2973600">
	<ele>741.40</ele>
	<time>2024-03-25T12:40:07.000Z</time>
</trkpt>
<trkpt lat="45.8456030" lon="9.2973440">
	<ele>741.20</ele>
	<time>2024-03-25T12:40:08.000Z</time>
</trkpt>
<trkpt lat="45.8455970" lon="9.2973290">
	<ele>740.80</ele>
	<time>2024-03-25T12:40:09.000Z</time>
</trkpt>
<trkpt lat="45.8455950" lon="9.2973260">
	<ele>740.60</ele>
	<time>2024-03-25T12:40:10.000Z</time>
</trkpt>
<trkpt lat="45.8455870" lon="9.2973160">
	<ele>740.40</ele>
	<time>2024-03-25T12:40:11.000Z</time>
</trkpt>
<trkpt lat="45.8455770" lon="9.2973020">
	<ele>740.00</ele>
	<time>2024-03-25T12:40:12.000Z</time>
</trkpt>
<trkpt lat="45.8455650" lon="9.2972890">
	<ele>739.80</ele>
	<time>2024-03-25T12:40:13.000Z</time>
</trkpt>
<trkpt lat="45.8455560" lon="9.2972800">
	<ele>739.40</ele>
	<time>2024-03-25T12:40:14.000Z</time>
</trkpt>
<trkpt lat="45.8455520" lon="9.2972770">
	<ele>739.20</ele>
	<time>2024-03-25T12:40:15.000Z</time>
</trkpt>
<trkpt lat="45.8455440" lon="9.2972740">
	<ele>739.00</ele>
	<time>2024-03-25T12:40:16.000Z</time>
</trkpt>
<trkpt lat="45.8455430" lon="9.2972770">
	<ele>738.80</ele>
	<time>2024-03-25T12:40:17.000Z</time>
</trkpt>
<trkpt lat="45.8455380" lon="9.2972740">
	<ele>738.60</ele>
	<time>2024-03-25T12:40:18.000Z</time>
</trkpt>
<trkpt lat="45.8455290" lon="9.2972610">
	<ele>738.40</ele>
	<time>2024-03-25T12:40:19.000Z</time>
</trkpt>
<trkpt lat="45.8455190" lon="9.2972530">
	<ele>738.20</ele>
	<time>2024-03-25T12:40:20.000Z</time>
</trkpt>
<trkpt lat="45.8455160" lon="9.2972380">
	<ele>738.20</ele>
	<time>2024-03-25T12:40:21.000Z</time>
</trkpt>
<trkpt lat="45.8455160" lon="9.2972310">
	<ele>737.80</ele>
	<time>2024-03-25T12:40:22.000Z</time>
</trkpt>
<trkpt lat="45.8455140" lon="9.2972270">
	<ele>737.80</ele>
	<time>2024-03-25T12:40:23.000Z</time>
</trkpt>
<trkpt lat="45.8455140" lon="9.2972230">
	<ele>737.40</ele>
	<time>2024-03-25T12:40:24.000Z</time>
</trkpt>
<trkpt lat="45.8455140" lon="9.2972190">
	<ele>737.00</ele>
	<time>2024-03-25T12:40:25.000Z</time>
</trkpt>
<trkpt lat="45.8455140" lon="9.2972140">
	<ele>736.80</ele>
	<time>2024-03-25T12:40:26.000Z</time>
</trkpt>
<trkpt lat="45.8455120" lon="9.2972160">
	<ele>736.80</ele>
	<time>2024-03-25T12:40:27.000Z</time>
</trkpt>
<trkpt lat="45.8455100" lon="9.2972130">
	<ele>736.60</ele>
	<time>2024-03-25T12:40:28.000Z</time>
</trkpt>
<trkpt lat="45.8455070" lon="9.2972040">
	<ele>736.40</ele>
	<time>2024-03-25T12:40:29.000Z</time>
</trkpt>
<trkpt lat="45.8455060" lon="9.2971950">
	<ele>736.00</ele>
	<time>2024-03-25T12:40:30.000Z</time>
</trkpt>
<trkpt lat="45.8455100" lon="9.2971820">
	<ele>735.80</ele>
	<time>2024-03-25T12:40:31.000Z</time>
</trkpt>
<trkpt lat="45.8455110" lon="9.2971690">
	<ele>735.80</ele>
	<time>2024-03-25T12:40:32.000Z</time>
</trkpt>
<trkpt lat="45.8455130" lon="9.2971590">
	<ele>735.60</ele>
	<time>2024-03-25T12:40:33.000Z</time>
</trkpt>
<trkpt lat="45.8455130" lon="9.2971490">
	<ele>735.40</ele>
	<time>2024-03-25T12:40:34.000Z</time>
</trkpt>
<trkpt lat="45.8455080" lon="9.2971400">
	<ele>735.20</ele>
	<time>2024-03-25T12:40:35.000Z</time>
</trkpt>
<trkpt lat="45.8455090" lon="9.2971340">
	<ele>735.00</ele>
	<time>2024-03-25T12:40:36.000Z</time>
</trkpt>
<trkpt lat="45.8455090" lon="9.2971300">
	<ele>734.80</ele>
	<time>2024-03-25T12:40:37.000Z</time>
</trkpt>
<trkpt lat="45.8455120" lon="9.2971210">
	<ele>734.40</ele>
	<time>2024-03-25T12:40:38.000Z</time>
</trkpt>
<trkpt lat="45.8455170" lon="9.2971160">
	<ele>734.20</ele>
	<time>2024-03-25T12:40:39.000Z</time>
</trkpt>
<trkpt lat="45.8455190" lon="9.2971080">
	<ele>734.00</ele>
	<time>2024-03-25T12:40:40.000Z</time>
</trkpt>
<trkpt lat="45.8455220" lon="9.2971060">
	<ele>733.80</ele>
	<time>2024-03-25T12:40:41.000Z</time>
</trkpt>
<trkpt lat="45.8455250" lon="9.2971020">
	<ele>733.40</ele>
	<time>2024-03-25T12:40:42.000Z</time>
</trkpt>
<trkpt lat="45.8455300" lon="9.2970940">
	<ele>733.00</ele>
	<time>2024-03-25T12:40:43.000Z</time>
</trkpt>
<trkpt lat="45.8455340" lon="9.2970860">
	<ele>732.80</ele>
	<time>2024-03-25T12:40:44.000Z</time>
</trkpt>
<trkpt lat="45.8455380" lon="9.2970840">
	<ele>732.40</ele>
	<time>2024-03-25T12:40:45.000Z</time>
</trkpt>
<trkpt lat="45.8455460" lon="9.2970780">
	<ele>732.20</ele>
	<time>2024-03-25T12:40:46.000Z</time>
</trkpt>
<trkpt lat="45.8455480" lon="9.2970730">
	<ele>731.80</ele>
	<time>2024-03-25T12:40:47.000Z</time>
</trkpt>
<trkpt lat="45.8455490" lon="9.2970710">
	<ele>731.60</ele>
	<time>2024-03-25T12:40:48.000Z</time>
</trkpt>
<trkpt lat="45.8455490" lon="9.2970690">
	<ele>731.20</ele>
	<time>2024-03-25T12:40:49.000Z</time>
</trkpt>
<trkpt lat="45.8455500" lon="9.2970700">
	<ele>731.20</ele>
	<time>2024-03-25T12:40:50.000Z</time>
</trkpt>
<trkpt lat="45.8455530" lon="9.2970660">
	<ele>730.80</ele>
	<time>2024-03-25T12:40:51.000Z</time>
</trkpt>
<trkpt lat="45.8455630" lon="9.2970670">
	<ele>730.60</ele>
	<time>2024-03-25T12:40:52.000Z</time>
</trkpt>
<trkpt lat="45.8455720" lon="9.2970700">
	<ele>730.40</ele>
	<time>2024-03-25T12:40:53.000Z</time>
</trkpt>
<trkpt lat="45.8455810" lon="9.2970760">
	<ele>730.00</ele>
	<time>2024-03-25T12:40:54.000Z</time>
</trkpt>
<trkpt lat="45.8455870" lon="9.2970820">
	<ele>729.80</ele>
	<time>2024-03-25T12:40:55.000Z</time>
</trkpt>
<trkpt lat="45.8455950" lon="9.2970830">
	<ele>729.60</ele>
	<time>2024-03-25T12:40:56.000Z</time>
</trkpt>
<trkpt lat="45.8456040" lon="9.2970850">
	<ele>729.40</ele>
	<time>2024-03-25T12:40:57.000Z</time>
</trkpt>
<trkpt lat="45.8456130" lon="9.2970870">
	<ele>729.20</ele>
	<time>2024-03-25T12:40:58.000Z</time>
</trkpt>
<trkpt lat="45.8456150" lon="9.2970860">
	<ele>729.00</ele>
	<time>2024-03-25T12:40:59.000Z</time>
</trkpt>
<trkpt lat="45.8456250" lon="9.2970850">
	<ele>728.80</ele>
	<time>2024-03-25T12:41:00.000Z</time>
</trkpt>
<trkpt lat="45.8456360" lon="9.2970820">
	<ele>728.40</ele>
	<time>2024-03-25T12:41:01.000Z</time>
</trkpt>
<trkpt lat="45.8456450" lon="9.2970840">
	<ele>728.20</ele>
	<time>2024-03-25T12:41:02.000Z</time>
</trkpt>
<trkpt lat="45.8456540" lon="9.2970820">
	<ele>727.80</ele>
	<time>2024-03-25T12:41:03.000Z</time>
</trkpt>
<trkpt lat="45.8456650" lon="9.2970760">
	<ele>727.60</ele>
	<time>2024-03-25T12:41:04.000Z</time>
</trkpt>
<trkpt lat="45.8456710" lon="9.2970750">
	<ele>727.40</ele>
	<time>2024-03-25T12:41:05.000Z</time>
</trkpt>
<trkpt lat="45.8456750" lon="9.2970740">
	<ele>727.00</ele>
	<time>2024-03-25T12:41:06.000Z</time>
</trkpt>
<trkpt lat="45.8456780" lon="9.2970730">
	<ele>726.80</ele>
	<time>2024-03-25T12:41:07.000Z</time>
</trkpt>
<trkpt lat="45.8456870" lon="9.2970680">
	<ele>726.40</ele>
	<time>2024-03-25T12:41:08.000Z</time>
</trkpt>
<trkpt lat="45.8456910" lon="9.2970660">
	<ele>726.20</ele>
	<time>2024-03-25T12:41:09.000Z</time>
</trkpt>
<trkpt lat="45.8457000" lon="9.2970640">
	<ele>726.00</ele>
	<time>2024-03-25T12:41:10.000Z</time>
</trkpt>
<trkpt lat="45.8457120" lon="9.2970590">
	<ele>725.80</ele>
	<time>2024-03-25T12:41:11.000Z</time>
</trkpt>
<trkpt lat="45.8457180" lon="9.2970560">
	<ele>725.80</ele>
	<time>2024-03-25T12:41:12.000Z</time>
</trkpt>
<trkpt lat="45.8457220" lon="9.2970580">
	<ele>725.60</ele>
	<time>2024-03-25T12:41:13.000Z</time>
</trkpt>
<trkpt lat="45.8457280" lon="9.2970550">
	<ele>725.40</ele>
	<time>2024-03-25T12:41:14.000Z</time>
</trkpt>
<trkpt lat="45.8457350" lon="9.2970540">
	<ele>725.20</ele>
	<time>2024-03-25T12:41:15.000Z</time>
</trkpt>
<trkpt lat="45.8457420" lon="9.2970500">
	<ele>725.00</ele>
	<time>2024-03-25T12:41:16.000Z</time>
</trkpt>
<trkpt lat="45.8457440" lon="9.2970470">
	<ele>725.00</ele>
	<time>2024-03-25T12:41:17.000Z</time>
</trkpt>
<trkpt lat="45.8457490" lon="9.2970430">
	<ele>724.60</ele>
	<time>2024-03-25T12:41:18.000Z</time>
</trkpt>
<trkpt lat="45.8457510" lon="9.2970380">
	<ele>724.40</ele>
	<time>2024-03-25T12:41:19.000Z</time>
</trkpt>
<trkpt lat="45.8457540" lon="9.2970350">
	<ele>724.20</ele>
	<time>2024-03-25T12:41:20.000Z</time>
</trkpt>
<trkpt lat="45.8457570" lon="9.2970390">
	<ele>723.80</ele>
	<time>2024-03-25T12:41:21.000Z</time>
</trkpt>
<trkpt lat="45.8457650" lon="9.2970410">
	<ele>723.60</ele>
	<time>2024-03-25T12:41:22.000Z</time>
</trkpt>
<trkpt lat="45.8457770" lon="9.2970470">
	<ele>723.20</ele>
	<time>2024-03-25T12:41:23.000Z</time>
</trkpt>
<trkpt lat="45.8457910" lon="9.2970540">
	<ele>722.80</ele>
	<time>2024-03-25T12:41:24.000Z</time>
</trkpt>
<trkpt lat="45.8458090" lon="9.2970610">
	<ele>722.60</ele>
	<time>2024-03-25T12:41:25.000Z</time>
</trkpt>
<trkpt lat="45.8458200" lon="9.2970590">
	<ele>722.20</ele>
	<time>2024-03-25T12:41:26.000Z</time>
</trkpt>
<trkpt lat="45.8458230" lon="9.2970500">
	<ele>722.20</ele>
	<time>2024-03-25T12:41:27.000Z</time>
</trkpt>
<trkpt lat="45.8458200" lon="9.2970410">
	<ele>721.80</ele>
	<time>2024-03-25T12:41:28.000Z</time>
</trkpt>
<trkpt lat="45.8458170" lon="9.2970330">
	<ele>721.40</ele>
	<time>2024-03-25T12:41:29.000Z</time>
</trkpt>
<trkpt lat="45.8458190" lon="9.2970220">
	<ele>721.40</ele>
	<time>2024-03-25T12:41:30.000Z</time>
</trkpt>
<trkpt lat="45.8458230" lon="9.2970120">
	<ele>721.20</ele>
	<time>2024-03-25T12:41:31.000Z</time>
</trkpt>
<trkpt lat="45.8458210" lon="9.2970050">
	<ele>720.80</ele>
	<time>2024-03-25T12:41:32.000Z</time>
</trkpt>
<trkpt lat="45.8458150" lon="9.2969980">
	<ele>720.60</ele>
	<time>2024-03-25T12:41:33.000Z</time>
</trkpt>
<trkpt lat="45.8458110" lon="9.2969930">
	<ele>720.40</ele>
	<time>2024-03-25T12:41:34.000Z</time>
</trkpt>
<trkpt lat="45.8458050" lon="9.2969820">
	<ele>720.00</ele>
	<time>2024-03-25T12:41:35.000Z</time>
</trkpt>
<trkpt lat="45.8458030" lon="9.2969790">
	<ele>719.60</ele>
	<time>2024-03-25T12:41:36.000Z</time>
</trkpt>
<trkpt lat="45.8458000" lon="9.2969760">
	<ele>719.20</ele>
	<time>2024-03-25T12:41:37.000Z</time>
</trkpt>
<trkpt lat="45.8458000" lon="9.2969730">
	<ele>719.00</ele>
	<time>2024-03-25T12:41:38.000Z</time>
</trkpt>
<trkpt lat="45.8457970" lon="9.2969570">
	<ele>718.80</ele>
	<time>2024-03-25T12:41:39.000Z</time>
</trkpt>
<trkpt lat="45.8457970" lon="9.2969450">
	<ele>718.60</ele>
	<time>2024-03-25T12:41:40.000Z</time>
</trkpt>
<trkpt lat="45.8457950" lon="9.2969400">
	<ele>718.60</ele>
	<time>2024-03-25T12:41:41.000Z</time>
</trkpt>
<trkpt lat="45.8457960" lon="9.2969380">
	<ele>718.40</ele>
	<time>2024-03-25T12:41:42.000Z</time>
</trkpt>
<trkpt lat="45.8457970" lon="9.2969400">
	<ele>718.40</ele>
	<time>2024-03-25T12:41:43.000Z</time>
</trkpt>
<trkpt lat="45.8457980" lon="9.2969420">
	<ele>718.60</ele>
	<time>2024-03-25T12:41:44.000Z</time>
</trkpt>
<trkpt lat="45.8458010" lon="9.2969420">
	<ele>718.60</ele>
	<time>2024-03-25T12:41:45.000Z</time>
</trkpt>
<trkpt lat="45.8458040" lon="9.2969410">
	<ele>718.80</ele>
	<time>2024-03-25T12:41:46.000Z</time>
</trkpt>
<trkpt lat="45.8458040" lon="9.2969440">
	<ele>718.80</ele>
	<time>2024-03-25T12:41:47.000Z</time>
</trkpt>
<trkpt lat="45.8458020" lon="9.2969410">
	<ele>718.80</ele>
	<time>2024-03-25T12:41:48.000Z</time>
</trkpt>
<trkpt lat="45.8458020" lon="9.2969410">
	<ele>718.80</ele>
	<time>2024-03-25T12:41:49.000Z</time>
</trkpt>
<trkpt lat="45.8458020" lon="9.2969410">
	<ele>718.80</ele>
	<time>2024-03-25T12:41:50.000Z</time>
</trkpt>
<trkpt lat="45.8458020" lon="9.2969410">
	<ele>718.80</ele>
	<time>2024-03-25T12:41:51.000Z</time>
</trkpt>
<trkpt lat="45.8458020" lon="9.2969410">
	<ele>718.80</ele>
	<time>2024-03-25T12:41:52.000Z</time>
</trkpt>
<trkpt lat="45.8458020" lon="9.2969410">
	<ele>718.80</ele>
	<time>2024-03-25T12:41:53.000Z</time>
</trkpt>
<trkpt lat="45.8458020" lon="9.2969410">
	<ele>718.80</ele>
	<time>2024-03-25T12:41:54.000Z</time>
</trkpt>
<trkpt lat="45.8458020" lon="9.2969410">
	<ele>718.80</ele>
	<time>2024-03-25T12:41:55.000Z</time>
</trkpt>
<trkpt lat="45.8458020" lon="9.2969410">
	<ele>718.80</ele>
	<time>2024-03-25T12:41:56.000Z</time>
</trkpt>
<trkpt lat="45.8458020" lon="9.2969410">
	<ele>718.80</ele>
	<time>2024-03-25T12:41:57.000Z</time>
</trkpt>
<trkpt lat="45.8458020" lon="9.2969410">
	<ele>718.80</ele>
	<time>2024-03-25T12:41:58.000Z</time>
</trkpt>
<trkpt lat="45.8458020" lon="9.2969410">
	<ele>718.80</ele>
	<time>2024-03-25T12:41:59.000Z</time>
</trkpt>
<trkpt lat="45.8458020" lon="9.2969410">
	<ele>719.00</ele>
	<time>2024-03-25T12:42:00.000Z</time>
</trkpt>
<trkpt lat="45.8458020" lon="9.2969400">
	<ele>719.20</ele>
	<time>2024-03-25T12:42:01.000Z</time>
</trkpt>
<trkpt lat="45.8458020" lon="9.2969400">
	<ele>719.40</ele>
	<time>2024-03-25T12:42:02.000Z</time>
</trkpt>
<trkpt lat="45.8458020" lon="9.2969400">
	<ele>719.40</ele>
	<time>2024-03-25T12:42:03.000Z</time>
</trkpt>
<trkpt lat="45.8458020" lon="9.2969390">
	<ele>719.40</ele>
	<time>2024-03-25T12:42:04.000Z</time>
</trkpt>
<trkpt lat="45.8458020" lon="9.2969380">
	<ele>719.40</ele>
	<time>2024-03-25T12:42:05.000Z</time>
</trkpt>
<trkpt lat="45.8458020" lon="9.2969380">
	<ele>719.40</ele>
	<time>2024-03-25T12:42:06.000Z</time>
</trkpt>
<trkpt lat="45.8458020" lon="9.2969360">
	<ele>719.20</ele>
	<time>2024-03-25T12:42:07.000Z</time>
</trkpt>
<trkpt lat="45.8458020" lon="9.2969340">
	<ele>719.00</ele>
	<time>2024-03-25T12:42:08.000Z</time>
</trkpt>
<trkpt lat="45.8458020" lon="9.2969330">
	<ele>718.80</ele>
	<time>2024-03-25T12:42:09.000Z</time>
</trkpt>
<trkpt lat="45.8458040" lon="9.2969290">
	<ele>718.60</ele>
	<time>2024-03-25T12:42:10.000Z</time>
</trkpt>
<trkpt lat="45.8458090" lon="9.2969270">
	<ele>718.40</ele>
	<time>2024-03-25T12:42:11.000Z</time>
</trkpt>
<trkpt lat="45.8458250" lon="9.2969250">
	<ele>718.20</ele>
	<time>2024-03-25T12:42:12.000Z</time>
</trkpt>
<trkpt lat="45.8458440" lon="9.2969210">
	<ele>717.80</ele>
	<time>2024-03-25T12:42:13.000Z</time>
</trkpt>
<trkpt lat="45.8458580" lon="9.2969220">
	<ele>717.40</ele>
	<time>2024-03-25T12:42:14.000Z</time>
</trkpt>
<trkpt lat="45.8458760" lon="9.2969190">
	<ele>717.00</ele>
	<time>2024-03-25T12:42:15.000Z</time>
</trkpt>
<trkpt lat="45.8458890" lon="9.2969160">
	<ele>716.80</ele>
	<time>2024-03-25T12:42:16.000Z</time>
</trkpt>
<trkpt lat="45.8458960" lon="9.2969100">
	<ele>716.40</ele>
	<time>2024-03-25T12:42:17.000Z</time>
</trkpt>
<trkpt lat="45.8459090" lon="9.2969090">
	<ele>716.20</ele>
	<time>2024-03-25T12:42:18.000Z</time>
</trkpt>
<trkpt lat="45.8459240" lon="9.2969050">
	<ele>716.00</ele>
	<time>2024-03-25T12:42:19.000Z</time>
</trkpt>
<trkpt lat="45.8459360" lon="9.2969000">
	<ele>715.80</ele>
	<time>2024-03-25T12:42:20.000Z</time>
</trkpt>
<trkpt lat="45.8459440" lon="9.2968980">
	<ele>715.20</ele>
	<time>2024-03-25T12:42:21.000Z</time>
</trkpt>
<trkpt lat="45.8459510" lon="9.2969000">
	<ele>715.00</ele>
	<time>2024-03-25T12:42:22.000Z</time>
</trkpt>
<trkpt lat="45.8459590" lon="9.2969010">
	<ele>714.80</ele>
	<time>2024-03-25T12:42:23.000Z</time>
</trkpt>
<trkpt lat="45.8459690" lon="9.2969070">
	<ele>714.60</ele>
	<time>2024-03-25T12:42:24.000Z</time>
</trkpt>
<trkpt lat="45.8459710" lon="9.2969130">
	<ele>714.20</ele>
	<time>2024-03-25T12:42:25.000Z</time>
</trkpt>
<trkpt lat="45.8459740" lon="9.2969140">
	<ele>714.00</ele>
	<time>2024-03-25T12:42:26.000Z</time>
</trkpt>
<trkpt lat="45.8459770" lon="9.2969120">
	<ele>714.00</ele>
	<time>2024-03-25T12:42:27.000Z</time>
</trkpt>
<trkpt lat="45.8459860" lon="9.2969050">
	<ele>713.80</ele>
	<time>2024-03-25T12:42:28.000Z</time>
</trkpt>
<trkpt lat="45.8459970" lon="9.2968930">
	<ele>713.60</ele>
	<time>2024-03-25T12:42:29.000Z</time>
</trkpt>
<trkpt lat="45.8460030" lon="9.2968880">
	<ele>713.20</ele>
	<time>2024-03-25T12:42:30.000Z</time>
</trkpt>
<trkpt lat="45.8460070" lon="9.2968760">
	<ele>713.00</ele>
	<time>2024-03-25T12:42:31.000Z</time>
</trkpt>
<trkpt lat="45.8460090" lon="9.2968670">
	<ele>712.80</ele>
	<time>2024-03-25T12:42:32.000Z</time>
</trkpt>
<trkpt lat="45.8460140" lon="9.2968580">
	<ele>712.60</ele>
	<time>2024-03-25T12:42:33.000Z</time>
</trkpt>
<trkpt lat="45.8460220" lon="9.2968450">
	<ele>712.40</ele>
	<time>2024-03-25T12:42:34.000Z</time>
</trkpt>
<trkpt lat="45.8460270" lon="9.2968330">
	<ele>712.20</ele>
	<time>2024-03-25T12:42:35.000Z</time>
</trkpt>
<trkpt lat="45.8460300" lon="9.2968230">
	<ele>712.00</ele>
	<time>2024-03-25T12:42:36.000Z</time>
</trkpt>
<trkpt lat="45.8460320" lon="9.2968130">
	<ele>711.60</ele>
	<time>2024-03-25T12:42:37.000Z</time>
</trkpt>
<trkpt lat="45.8460300" lon="9.2968090">
	<ele>711.20</ele>
	<time>2024-03-25T12:42:38.000Z</time>
</trkpt>
<trkpt lat="45.8460290" lon="9.2968110">
	<ele>711.00</ele>
	<time>2024-03-25T12:42:39.000Z</time>
</trkpt>
<trkpt lat="45.8460250" lon="9.2968130">
	<ele>710.60</ele>
	<time>2024-03-25T12:42:40.000Z</time>
</trkpt>
<trkpt lat="45.8460210" lon="9.2968070">
	<ele>710.40</ele>
	<time>2024-03-25T12:42:41.000Z</time>
</trkpt>
<trkpt lat="45.8460160" lon="9.2968030">
	<ele>710.20</ele>
	<time>2024-03-25T12:42:42.000Z</time>
</trkpt>
<trkpt lat="45.8460130" lon="9.2967920">
	<ele>710.00</ele>
	<time>2024-03-25T12:42:43.000Z</time>
</trkpt>
<trkpt lat="45.8460110" lon="9.2967740">
	<ele>709.60</ele>
	<time>2024-03-25T12:42:44.000Z</time>
</trkpt>
<trkpt lat="45.8460050" lon="9.2967620">
	<ele>709.60</ele>
	<time>2024-03-25T12:42:45.000Z</time>
</trkpt>
<trkpt lat="45.8460010" lon="9.2967590">
	<ele>709.40</ele>
	<time>2024-03-25T12:42:46.000Z</time>
</trkpt>
<trkpt lat="45.8460030" lon="9.2967610">
	<ele>709.20</ele>
	<time>2024-03-25T12:42:47.000Z</time>
</trkpt>
<trkpt lat="45.8460040" lon="9.2967590">
	<ele>709.00</ele>
	<time>2024-03-25T12:42:48.000Z</time>
</trkpt>
<trkpt lat="45.8460050" lon="9.2967570">
	<ele>708.80</ele>
	<time>2024-03-25T12:42:49.000Z</time>
</trkpt>
<trkpt lat="45.8460100" lon="9.2967510">
	<ele>708.60</ele>
	<time>2024-03-25T12:42:50.000Z</time>
</trkpt>
<trkpt lat="45.8460090" lon="9.2967460">
	<ele>708.40</ele>
	<time>2024-03-25T12:42:51.000Z</time>
</trkpt>
<trkpt lat="45.8460160" lon="9.2967410">
	<ele>708.20</ele>
	<time>2024-03-25T12:42:52.000Z</time>
</trkpt>
<trkpt lat="45.8460160" lon="9.2967370">
	<ele>708.00</ele>
	<time>2024-03-25T12:42:53.000Z</time>
</trkpt>
<trkpt lat="45.8460170" lon="9.2967340">
	<ele>708.00</ele>
	<time>2024-03-25T12:42:54.000Z</time>
</trkpt>
<trkpt lat="45.8460130" lon="9.2967170">
	<ele>707.40</ele>
	<time>2024-03-25T12:42:55.000Z</time>
</trkpt>
<trkpt lat="45.8460130" lon="9.2967010">
	<ele>707.20</ele>
	<time>2024-03-25T12:42:56.000Z</time>
</trkpt>
<trkpt lat="45.8460090" lon="9.2966810">
	<ele>706.80</ele>
	<time>2024-03-25T12:42:57.000Z</time>
</trkpt>
<trkpt lat="45.8460060" lon="9.2966800">
	<ele>706.40</ele>
	<time>2024-03-25T12:42:58.000Z</time>
</trkpt>
<trkpt lat="45.8460070" lon="9.2966700">
	<ele>706.20</ele>
	<time>2024-03-25T12:42:59.000Z</time>
</trkpt>
<trkpt lat="45.8460040" lon="9.2966690">
	<ele>705.80</ele>
	<time>2024-03-25T12:43:00.000Z</time>
</trkpt>
<trkpt lat="45.8460020" lon="9.2966660">
	<ele>705.60</ele>
	<time>2024-03-25T12:43:01.000Z</time>
</trkpt>
<trkpt lat="45.8459990" lon="9.2966630">
	<ele>705.20</ele>
	<time>2024-03-25T12:43:02.000Z</time>
</trkpt>
<trkpt lat="45.8459990" lon="9.2966590">
	<ele>705.00</ele>
	<time>2024-03-25T12:43:03.000Z</time>
</trkpt>
<trkpt lat="45.8460010" lon="9.2966620">
	<ele>704.40</ele>
	<time>2024-03-25T12:43:04.000Z</time>
</trkpt>
<trkpt lat="45.8460040" lon="9.2966590">
	<ele>704.00</ele>
	<time>2024-03-25T12:43:05.000Z</time>
</trkpt>
<trkpt lat="45.8460050" lon="9.2966560">
	<ele>703.80</ele>
	<time>2024-03-25T12:43:06.000Z</time>
</trkpt>
<trkpt lat="45.8460050" lon="9.2966450">
	<ele>703.60</ele>
	<time>2024-03-25T12:43:07.000Z</time>
</trkpt>
<trkpt lat="45.8460050" lon="9.2966390">
	<ele>703.40</ele>
	<time>2024-03-25T12:43:08.000Z</time>
</trkpt>
<trkpt lat="45.8460020" lon="9.2966370">
	<ele>703.00</ele>
	<time>2024-03-25T12:43:09.000Z</time>
</trkpt>
<trkpt lat="45.8459950" lon="9.2966230">
	<ele>702.80</ele>
	<time>2024-03-25T12:43:10.000Z</time>
</trkpt>
<trkpt lat="45.8459910" lon="9.2966140">
	<ele>702.20</ele>
	<time>2024-03-25T12:43:11.000Z</time>
</trkpt>
<trkpt lat="45.8459900" lon="9.2966080">
	<ele>702.00</ele>
	<time>2024-03-25T12:43:12.000Z</time>
</trkpt>
<trkpt lat="45.8459890" lon="9.2965970">
	<ele>701.60</ele>
	<time>2024-03-25T12:43:13.000Z</time>
</trkpt>
<trkpt lat="45.8459870" lon="9.2965810">
	<ele>701.40</ele>
	<time>2024-03-25T12:43:14.000Z</time>
</trkpt>
<trkpt lat="45.8459870" lon="9.2965720">
	<ele>701.20</ele>
	<time>2024-03-25T12:43:15.000Z</time>
</trkpt>
<trkpt lat="45.8459860" lon="9.2965620">
	<ele>700.80</ele>
	<time>2024-03-25T12:43:16.000Z</time>
</trkpt>
<trkpt lat="45.8459830" lon="9.2965500">
	<ele>700.40</ele>
	<time>2024-03-25T12:43:17.000Z</time>
</trkpt>
<trkpt lat="45.8459820" lon="9.2965460">
	<ele>700.20</ele>
	<time>2024-03-25T12:43:18.000Z</time>
</trkpt>
<trkpt lat="45.8459710" lon="9.2965380">
	<ele>699.60</ele>
	<time>2024-03-25T12:43:19.000Z</time>
</trkpt>
<trkpt lat="45.8459610" lon="9.2965290">
	<ele>699.40</ele>
	<time>2024-03-25T12:43:20.000Z</time>
</trkpt>
<trkpt lat="45.8459540" lon="9.2965170">
	<ele>699.20</ele>
	<time>2024-03-25T12:43:21.000Z</time>
</trkpt>
<trkpt lat="45.8459440" lon="9.2965090">
	<ele>698.80</ele>
	<time>2024-03-25T12:43:22.000Z</time>
</trkpt>
<trkpt lat="45.8459340" lon="9.2965070">
	<ele>698.80</ele>
	<time>2024-03-25T12:43:23.000Z</time>
</trkpt>
<trkpt lat="45.8459260" lon="9.2965020">
	<ele>698.40</ele>
	<time>2024-03-25T12:43:24.000Z</time>
</trkpt>
<trkpt lat="45.8459250" lon="9.2964970">
	<ele>698.20</ele>
	<time>2024-03-25T12:43:25.000Z</time>
</trkpt>
<trkpt lat="45.8459260" lon="9.2964900">
	<ele>698.20</ele>
	<time>2024-03-25T12:43:26.000Z</time>
</trkpt>
<trkpt lat="45.8459260" lon="9.2964890">
	<ele>698.00</ele>
	<time>2024-03-25T12:43:27.000Z</time>
</trkpt>
<trkpt lat="45.8459260" lon="9.2964850">
	<ele>697.80</ele>
	<time>2024-03-25T12:43:28.000Z</time>
</trkpt>
<trkpt lat="45.8459270" lon="9.2964800">
	<ele>697.60</ele>
	<time>2024-03-25T12:43:29.000Z</time>
</trkpt>
<trkpt lat="45.8459280" lon="9.2964760">
	<ele>697.40</ele>
	<time>2024-03-25T12:43:30.000Z</time>
</trkpt>
<trkpt lat="45.8459300" lon="9.2964680">
	<ele>697.40</ele>
	<time>2024-03-25T12:43:31.000Z</time>
</trkpt>
<trkpt lat="45.8459340" lon="9.2964610">
	<ele>697.20</ele>
	<time>2024-03-25T12:43:32.000Z</time>
</trkpt>
<trkpt lat="45.8459380" lon="9.2964540">
	<ele>696.80</ele>
	<time>2024-03-25T12:43:33.000Z</time>
</trkpt>
<trkpt lat="45.8459460" lon="9.2964460">
	<ele>696.60</ele>
	<time>2024-03-25T12:43:34.000Z</time>
</trkpt>
<trkpt lat="45.8459590" lon="9.2964420">
	<ele>696.40</ele>
	<time>2024-03-25T12:43:35.000Z</time>
</trkpt>
<trkpt lat="45.8459700" lon="9.2964380">
	<ele>696.20</ele>
	<time>2024-03-25T12:43:36.000Z</time>
</trkpt>
<trkpt lat="45.8459800" lon="9.2964370">
	<ele>695.80</ele>
	<time>2024-03-25T12:43:37.000Z</time>
</trkpt>
<trkpt lat="45.8459860" lon="9.2964300">
	<ele>695.60</ele>
	<time>2024-03-25T12:43:38.000Z</time>
</trkpt>
<trkpt lat="45.8459900" lon="9.2964250">
	<ele>695.40</ele>
	<time>2024-03-25T12:43:39.000Z</time>
</trkpt>
<trkpt lat="45.8459860" lon="9.2964200">
	<ele>695.00</ele>
	<time>2024-03-25T12:43:40.000Z</time>
</trkpt>
<trkpt lat="45.8459820" lon="9.2964310">
	<ele>694.60</ele>
	<time>2024-03-25T12:43:41.000Z</time>
</trkpt>
<trkpt lat="45.8459800" lon="9.2964350">
	<ele>694.40</ele>
	<time>2024-03-25T12:43:42.000Z</time>
</trkpt>
<trkpt lat="45.8459810" lon="9.2964360">
	<ele>694.20</ele>
	<time>2024-03-25T12:43:43.000Z</time>
</trkpt>
<trkpt lat="45.8459820" lon="9.2964340">
	<ele>694.00</ele>
	<time>2024-03-25T12:43:44.000Z</time>
</trkpt>
<trkpt lat="45.8459890" lon="9.2964310">
	<ele>693.80</ele>
	<time>2024-03-25T12:43:45.000Z</time>
</trkpt>
<trkpt lat="45.8459970" lon="9.2964300">
	<ele>693.60</ele>
	<time>2024-03-25T12:43:46.000Z</time>
</trkpt>
<trkpt lat="45.8460000" lon="9.2964270">
	<ele>693.40</ele>
	<time>2024-03-25T12:43:47.000Z</time>
</trkpt>
<trkpt lat="45.8459960" lon="9.2964160">
	<ele>693.20</ele>
	<time>2024-03-25T12:43:48.000Z</time>
</trkpt>
<trkpt lat="45.8459950" lon="9.2964110">
	<ele>693.00</ele>
	<time>2024-03-25T12:43:49.000Z</time>
</trkpt>
<trkpt lat="45.8459940" lon="9.2964020">
	<ele>692.60</ele>
	<time>2024-03-25T12:43:50.000Z</time>
</trkpt>
<trkpt lat="45.8459930" lon="9.2963900">
	<ele>692.20</ele>
	<time>2024-03-25T12:43:51.000Z</time>
</trkpt>
<trkpt lat="45.8459920" lon="9.2963790">
	<ele>692.00</ele>
	<time>2024-03-25T12:43:52.000Z</time>
</trkpt>
<trkpt lat="45.8459890" lon="9.2963710">
	<ele>692.00</ele>
	<time>2024-03-25T12:43:53.000Z</time>
</trkpt>
<trkpt lat="45.8459860" lon="9.2963680">
	<ele>691.80</ele>
	<time>2024-03-25T12:43:54.000Z</time>
</trkpt>
<trkpt lat="45.8459840" lon="9.2963610">
	<ele>691.40</ele>
	<time>2024-03-25T12:43:55.000Z</time>
</trkpt>
<trkpt lat="45.8459820" lon="9.2963530">
	<ele>691.20</ele>
	<time>2024-03-25T12:43:56.000Z</time>
</trkpt>
<trkpt lat="45.8459840" lon="9.2963450">
	<ele>691.00</ele>
	<time>2024-03-25T12:43:57.000Z</time>
</trkpt>
<trkpt lat="45.8459840" lon="9.2963380">
	<ele>690.80</ele>
	<time>2024-03-25T12:43:58.000Z</time>
</trkpt>
<trkpt lat="45.8459820" lon="9.2963370">
	<ele>690.60</ele>
	<time>2024-03-25T12:43:59.000Z</time>
</trkpt>
<trkpt lat="45.8459820" lon="9.2963380">
	<ele>690.60</ele>
	<time>2024-03-25T12:44:00.000Z</time>
</trkpt>
<trkpt lat="45.8459860" lon="9.2963350">
	<ele>690.20</ele>
	<time>2024-03-25T12:44:01.000Z</time>
</trkpt>
<trkpt lat="45.8459890" lon="9.2963290">
	<ele>690.00</ele>
	<time>2024-03-25T12:44:02.000Z</time>
</trkpt>
<trkpt lat="45.8459880" lon="9.2963250">
	<ele>689.80</ele>
	<time>2024-03-25T12:44:03.000Z</time>
</trkpt>
<trkpt lat="45.8459920" lon="9.2963230">
	<ele>689.60</ele>
	<time>2024-03-25T12:44:04.000Z</time>
</trkpt>
<trkpt lat="45.8459950" lon="9.2963220">
	<ele>689.40</ele>
	<time>2024-03-25T12:44:05.000Z</time>
</trkpt>
<trkpt lat="45.8459980" lon="9.2963220">
	<ele>689.20</ele>
	<time>2024-03-25T12:44:06.000Z</time>
</trkpt>
<trkpt lat="45.8460040" lon="9.2963240">
	<ele>689.00</ele>
	<time>2024-03-25T12:44:07.000Z</time>
</trkpt>
<trkpt lat="45.8460100" lon="9.2963230">
	<ele>688.80</ele>
	<time>2024-03-25T12:44:08.000Z</time>
</trkpt>
<trkpt lat="45.8460190" lon="9.2963230">
	<ele>688.60</ele>
	<time>2024-03-25T12:44:09.000Z</time>
</trkpt>
<trkpt lat="45.8460270" lon="9.2963200">
	<ele>688.60</ele>
	<time>2024-03-25T12:44:10.000Z</time>
</trkpt>
<trkpt lat="45.8460320" lon="9.2963160">
	<ele>688.20</ele>
	<time>2024-03-25T12:44:11.000Z</time>
</trkpt>
<trkpt lat="45.8460320" lon="9.2963120">
	<ele>687.80</ele>
	<time>2024-03-25T12:44:12.000Z</time>
</trkpt>
<trkpt lat="45.8460330" lon="9.2963040">
	<ele>687.40</ele>
	<time>2024-03-25T12:44:13.000Z</time>
</trkpt>
<trkpt lat="45.8460340" lon="9.2962910">
	<ele>687.00</ele>
	<time>2024-03-25T12:44:14.000Z</time>
</trkpt>
<trkpt lat="45.8460360" lon="9.2962780">
	<ele>686.80</ele>
	<time>2024-03-25T12:44:15.000Z</time>
</trkpt>
<trkpt lat="45.8460380" lon="9.2962700">
	<ele>686.60</ele>
	<time>2024-03-25T12:44:16.000Z</time>
</trkpt>
<trkpt lat="45.8460330" lon="9.2962650">
	<ele>686.20</ele>
	<time>2024-03-25T12:44:17.000Z</time>
</trkpt>
<trkpt lat="45.8460260" lon="9.2962590">
	<ele>685.80</ele>
	<time>2024-03-25T12:44:18.000Z</time>
</trkpt>
<trkpt lat="45.8460200" lon="9.2962530">
	<ele>685.60</ele>
	<time>2024-03-25T12:44:19.000Z</time>
</trkpt>
<trkpt lat="45.8460200" lon="9.2962470">
	<ele>685.20</ele>
	<time>2024-03-25T12:44:20.000Z</time>
</trkpt>
<trkpt lat="45.8460230" lon="9.2962430">
	<ele>685.00</ele>
	<time>2024-03-25T12:44:21.000Z</time>
</trkpt>
<trkpt lat="45.8460280" lon="9.2962410">
	<ele>684.80</ele>
	<time>2024-03-25T12:44:22.000Z</time>
</trkpt>
<trkpt lat="45.8460280" lon="9.2962370">
	<ele>684.80</ele>
	<time>2024-03-25T12:44:23.000Z</time>
</trkpt>
<trkpt lat="45.8460350" lon="9.2962340">
	<ele>684.60</ele>
	<time>2024-03-25T12:44:24.000Z</time>
</trkpt>
<trkpt lat="45.8460400" lon="9.2962340">
	<ele>684.40</ele>
	<time>2024-03-25T12:44:25.000Z</time>
</trkpt>
<trkpt lat="45.8460470" lon="9.2962410">
	<ele>684.00</ele>
	<time>2024-03-25T12:44:26.000Z</time>
</trkpt>
<trkpt lat="45.8460590" lon="9.2962430">
	<ele>683.80</ele>
	<time>2024-03-25T12:44:27.000Z</time>
</trkpt>
<trkpt lat="45.8460650" lon="9.2962410">
	<ele>683.60</ele>
	<time>2024-03-25T12:44:28.000Z</time>
</trkpt>
<trkpt lat="45.8460680" lon="9.2962330">
	<ele>683.40</ele>
	<time>2024-03-25T12:44:29.000Z</time>
</trkpt>
<trkpt lat="45.8460690" lon="9.2962230">
	<ele>683.20</ele>
	<time>2024-03-25T12:44:30.000Z</time>
</trkpt>
<trkpt lat="45.8460710" lon="9.2962290">
	<ele>683.00</ele>
	<time>2024-03-25T12:44:31.000Z</time>
</trkpt>
<trkpt lat="45.8460720" lon="9.2962300">
	<ele>682.80</ele>
	<time>2024-03-25T12:44:32.000Z</time>
</trkpt>
<trkpt lat="45.8460760" lon="9.2962270">
	<ele>682.40</ele>
	<time>2024-03-25T12:44:33.000Z</time>
</trkpt>
<trkpt lat="45.8460790" lon="9.2962240">
	<ele>682.20</ele>
	<time>2024-03-25T12:44:34.000Z</time>
</trkpt>
<trkpt lat="45.8460800" lon="9.2962210">
	<ele>682.00</ele>
	<time>2024-03-25T12:44:35.000Z</time>
</trkpt>
<trkpt lat="45.8460800" lon="9.2962170">
	<ele>681.60</ele>
	<time>2024-03-25T12:44:36.000Z</time>
</trkpt>
<trkpt lat="45.8460710" lon="9.2962110">
	<ele>681.40</ele>
	<time>2024-03-25T12:44:37.000Z</time>
</trkpt>
<trkpt lat="45.8460740" lon="9.2962120">
	<ele>681.20</ele>
	<time>2024-03-25T12:44:38.000Z</time>
</trkpt>
<trkpt lat="45.8460750" lon="9.2962120">
	<ele>681.00</ele>
	<time>2024-03-25T12:44:39.000Z</time>
</trkpt>
<trkpt lat="45.8460760" lon="9.2962120">
	<ele>680.80</ele>
	<time>2024-03-25T12:44:40.000Z</time>
</trkpt>
<trkpt lat="45.8460790" lon="9.2962110">
	<ele>680.40</ele>
	<time>2024-03-25T12:44:41.000Z</time>
</trkpt>
<trkpt lat="45.8460800" lon="9.2962070">
	<ele>680.20</ele>
	<time>2024-03-25T12:44:42.000Z</time>
</trkpt>
<trkpt lat="45.8460790" lon="9.2962040">
	<ele>680.20</ele>
	<time>2024-03-25T12:44:43.000Z</time>
</trkpt>
<trkpt lat="45.8460790" lon="9.2962040">
	<ele>679.80</ele>
	<time>2024-03-25T12:44:44.000Z</time>
</trkpt>
<trkpt lat="45.8460850" lon="9.2962030">
	<ele>679.60</ele>
	<time>2024-03-25T12:44:45.000Z</time>
</trkpt>
<trkpt lat="45.8460900" lon="9.2961980">
	<ele>679.60</ele>
	<time>2024-03-25T12:44:46.000Z</time>
</trkpt>
<trkpt lat="45.8460930" lon="9.2961980">
	<ele>679.40</ele>
	<time>2024-03-25T12:44:47.000Z</time>
</trkpt>
<trkpt lat="45.8460930" lon="9.2961970">
	<ele>679.20</ele>
	<time>2024-03-25T12:44:48.000Z</time>
</trkpt>
<trkpt lat="45.8460920" lon="9.2961930">
	<ele>679.00</ele>
	<time>2024-03-25T12:44:49.000Z</time>
</trkpt>
<trkpt lat="45.8460920" lon="9.2961860">
	<ele>679.00</ele>
	<time>2024-03-25T12:44:50.000Z</time>
</trkpt>
<trkpt lat="45.8460930" lon="9.2961800">
	<ele>678.60</ele>
	<time>2024-03-25T12:44:51.000Z</time>
</trkpt>
<trkpt lat="45.8460950" lon="9.2961740">
	<ele>678.40</ele>
	<time>2024-03-25T12:44:52.000Z</time>
</trkpt>
<trkpt lat="45.8460950" lon="9.2961660">
	<ele>678.00</ele>
	<time>2024-03-25T12:44:53.000Z</time>
</trkpt>
<trkpt lat="45.8460940" lon="9.2961540">
	<ele>677.60</ele>
	<time>2024-03-25T12:44:54.000Z</time>
</trkpt>
<trkpt lat="45.8460940" lon="9.2961480">
	<ele>677.40</ele>
	<time>2024-03-25T12:44:55.000Z</time>
</trkpt>
<trkpt lat="45.8460910" lon="9.2961300">
	<ele>677.20</ele>
	<time>2024-03-25T12:44:56.000Z</time>
</trkpt>
<trkpt lat="45.8460890" lon="9.2961180">
	<ele>676.80</ele>
	<time>2024-03-25T12:44:57.000Z</time>
</trkpt>
<trkpt lat="45.8460890" lon="9.2961030">
	<ele>676.60</ele>
	<time>2024-03-25T12:44:58.000Z</time>
</trkpt>
<trkpt lat="45.8460820" lon="9.2960870">
	<ele>676.40</ele>
	<time>2024-03-25T12:44:59.000Z</time>
</trkpt>
<trkpt lat="45.8460770" lon="9.2960680">
	<ele>676.20</ele>
	<time>2024-03-25T12:45:00.000Z</time>
</trkpt>
<trkpt lat="45.8460760" lon="9.2960650">
	<ele>676.00</ele>
	<time>2024-03-25T12:45:01.000Z</time>
</trkpt>
<trkpt lat="45.8460760" lon="9.2960620">
	<ele>675.60</ele>
	<time>2024-03-25T12:45:02.000Z</time>
</trkpt>
<trkpt lat="45.8460710" lon="9.2960530">
	<ele>675.40</ele>
	<time>2024-03-25T12:45:03.000Z</time>
</trkpt>
<trkpt lat="45.8460630" lon="9.2960530">
	<ele>675.20</ele>
	<time>2024-03-25T12:45:04.000Z</time>
</trkpt>
<trkpt lat="45.8460550" lon="9.2960520">
	<ele>675.00</ele>
	<time>2024-03-25T12:45:05.000Z</time>
</trkpt>
<trkpt lat="45.8460480" lon="9.2960390">
	<ele>674.80</ele>
	<time>2024-03-25T12:45:06.000Z</time>
</trkpt>
<trkpt lat="45.8460360" lon="9.2960280">
	<ele>674.60</ele>
	<time>2024-03-25T12:45:07.000Z</time>
</trkpt>
<trkpt lat="45.8460310" lon="9.2960240">
	<ele>674.40</ele>
	<time>2024-03-25T12:45:08.000Z</time>
</trkpt>
<trkpt lat="45.8460260" lon="9.2960150">
	<ele>674.20</ele>
	<time>2024-03-25T12:45:09.000Z</time>
</trkpt>
<trkpt lat="45.8460210" lon="9.2960110">
	<ele>674.00</ele>
	<time>2024-03-25T12:45:10.000Z</time>
</trkpt>
<trkpt lat="45.8460110" lon="9.2960030">
	<ele>673.60</ele>
	<time>2024-03-25T12:45:11.000Z</time>
</trkpt>
<trkpt lat="45.8459960" lon="9.2960020">
	<ele>673.40</ele>
	<time>2024-03-25T12:45:12.000Z</time>
</trkpt>
<trkpt lat="45.8459800" lon="9.2959950">
	<ele>672.80</ele>
	<time>2024-03-25T12:45:13.000Z</time>
</trkpt>
<trkpt lat="45.8459670" lon="9.2959920">
	<ele>672.60</ele>
	<time>2024-03-25T12:45:14.000Z</time>
</trkpt>
<trkpt lat="45.8459560" lon="9.2959960">
	<ele>672.40</ele>
	<time>2024-03-25T12:45:15.000Z</time>
</trkpt>
<trkpt lat="45.8459480" lon="9.2959980">
	<ele>672.20</ele>
	<time>2024-03-25T12:45:16.000Z</time>
</trkpt>
<trkpt lat="45.8459390" lon="9.2959990">
	<ele>672.00</ele>
	<time>2024-03-25T12:45:17.000Z</time>
</trkpt>
<trkpt lat="45.8459310" lon="9.2959860">
	<ele>671.60</ele>
	<time>2024-03-25T12:45:18.000Z</time>
</trkpt>
<trkpt lat="45.8459200" lon="9.2959640">
	<ele>671.40</ele>
	<time>2024-03-25T12:45:19.000Z</time>
</trkpt>
<trkpt lat="45.8459040" lon="9.2959550">
	<ele>671.20</ele>
	<time>2024-03-25T12:45:20.000Z</time>
</trkpt>
<trkpt lat="45.8458940" lon="9.2959500">
	<ele>671.00</ele>
	<time>2024-03-25T12:45:21.000Z</time>
</trkpt>
<trkpt lat="45.8458850" lon="9.2959440">
	<ele>670.80</ele>
	<time>2024-03-25T12:45:22.000Z</time>
</trkpt>
<trkpt lat="45.8458790" lon="9.2959370">
	<ele>670.60</ele>
	<time>2024-03-25T12:45:23.000Z</time>
</trkpt>
<trkpt lat="45.8458740" lon="9.2959320">
	<ele>670.20</ele>
	<time>2024-03-25T12:45:24.000Z</time>
</trkpt>
<trkpt lat="45.8458680" lon="9.2959360">
	<ele>670.00</ele>
	<time>2024-03-25T12:45:25.000Z</time>
</trkpt>
<trkpt lat="45.8458590" lon="9.2959400">
	<ele>669.80</ele>
	<time>2024-03-25T12:45:26.000Z</time>
</trkpt>
<trkpt lat="45.8458540" lon="9.2959400">
	<ele>669.60</ele>
	<time>2024-03-25T12:45:27.000Z</time>
</trkpt>
<trkpt lat="45.8458560" lon="9.2959370">
	<ele>669.40</ele>
	<time>2024-03-25T12:45:28.000Z</time>
</trkpt>
<trkpt lat="45.8458590" lon="9.2959340">
	<ele>669.20</ele>
	<time>2024-03-25T12:45:29.000Z</time>
</trkpt>
<trkpt lat="45.8458530" lon="9.2959290">
	<ele>668.80</ele>
	<time>2024-03-25T12:45:30.000Z</time>
</trkpt>
<trkpt lat="45.8458520" lon="9.2959250">
	<ele>668.60</ele>
	<time>2024-03-25T12:45:31.000Z</time>
</trkpt>
<trkpt lat="45.8458480" lon="9.2959260">
	<ele>668.40</ele>
	<time>2024-03-25T12:45:32.000Z</time>
</trkpt>
<trkpt lat="45.8458500" lon="9.2959230">
	<ele>668.40</ele>
	<time>2024-03-25T12:45:33.000Z</time>
</trkpt>
<trkpt lat="45.8458430" lon="9.2959140">
	<ele>668.20</ele>
	<time>2024-03-25T12:45:34.000Z</time>
</trkpt>
<trkpt lat="45.8458420" lon="9.2959020">
	<ele>667.80</ele>
	<time>2024-03-25T12:45:35.000Z</time>
</trkpt>
<trkpt lat="45.8458460" lon="9.2958930">
	<ele>667.40</ele>
	<time>2024-03-25T12:45:36.000Z</time>
</trkpt>
<trkpt lat="45.8458440" lon="9.2958790">
	<ele>667.00</ele>
	<time>2024-03-25T12:45:37.000Z</time>
</trkpt>
<trkpt lat="45.8458430" lon="9.2958740">
	<ele>666.80</ele>
	<time>2024-03-25T12:45:38.000Z</time>
</trkpt>
<trkpt lat="45.8458450" lon="9.2958710">
	<ele>666.80</ele>
	<time>2024-03-25T12:45:39.000Z</time>
</trkpt>
<trkpt lat="45.8458440" lon="9.2958630">
	<ele>666.60</ele>
	<time>2024-03-25T12:45:40.000Z</time>
</trkpt>
<trkpt lat="45.8458410" lon="9.2958550">
	<ele>666.20</ele>
	<time>2024-03-25T12:45:41.000Z</time>
</trkpt>
<trkpt lat="45.8458440" lon="9.2958500">
	<ele>666.00</ele>
	<time>2024-03-25T12:45:42.000Z</time>
</trkpt>
<trkpt lat="45.8458480" lon="9.2958390">
	<ele>665.60</ele>
	<time>2024-03-25T12:45:43.000Z</time>
</trkpt>
<trkpt lat="45.8458490" lon="9.2958270">
	<ele>665.40</ele>
	<time>2024-03-25T12:45:44.000Z</time>
</trkpt>
<trkpt lat="45.8458400" lon="9.2958080">
	<ele>665.00</ele>
	<time>2024-03-25T12:45:45.000Z</time>
</trkpt>
<trkpt lat="45.8458340" lon="9.2957920">
	<ele>664.80</ele>
	<time>2024-03-25T12:45:46.000Z</time>
</trkpt>
<trkpt lat="45.8458290" lon="9.2957780">
	<ele>664.60</ele>
	<time>2024-03-25T12:45:47.000Z</time>
</trkpt>
<trkpt lat="45.8458220" lon="9.2957700">
	<ele>664.20</ele>
	<time>2024-03-25T12:45:48.000Z</time>
</trkpt>
<trkpt lat="45.8458170" lon="9.2957750">
	<ele>664.00</ele>
	<time>2024-03-25T12:45:49.000Z</time>
</trkpt>
<trkpt lat="45.8458120" lon="9.2957760">
	<ele>663.80</ele>
	<time>2024-03-25T12:45:50.000Z</time>
</trkpt>
<trkpt lat="45.8458060" lon="9.2957730">
	<ele>663.80</ele>
	<time>2024-03-25T12:45:51.000Z</time>
</trkpt>
<trkpt lat="45.8457990" lon="9.2957630">
	<ele>663.60</ele>
	<time>2024-03-25T12:45:52.000Z</time>
</trkpt>
<trkpt lat="45.8457990" lon="9.2957530">
	<ele>663.60</ele>
	<time>2024-03-25T12:45:53.000Z</time>
</trkpt>
<trkpt lat="45.8457940" lon="9.2957400">
	<ele>663.40</ele>
	<time>2024-03-25T12:45:54.000Z</time>
</trkpt>
<trkpt lat="45.8457880" lon="9.2957300">
	<ele>663.00</ele>
	<time>2024-03-25T12:45:55.000Z</time>
</trkpt>
<trkpt lat="45.8457790" lon="9.2957220">
	<ele>662.80</ele>
	<time>2024-03-25T12:45:56.000Z</time>
</trkpt>
<trkpt lat="45.8457760" lon="9.2957140">
	<ele>662.60</ele>
	<time>2024-03-25T12:45:57.000Z</time>
</trkpt>
<trkpt lat="45.8457720" lon="9.2957130">
	<ele>662.60</ele>
	<time>2024-03-25T12:45:58.000Z</time>
</trkpt>
<trkpt lat="45.8457680" lon="9.2957030">
	<ele>662.40</ele>
	<time>2024-03-25T12:45:59.000Z</time>
</trkpt>
<trkpt lat="45.8457660" lon="9.2956990">
	<ele>662.00</ele>
	<time>2024-03-25T12:46:00.000Z</time>
</trkpt>
<trkpt lat="45.8457660" lon="9.2956970">
	<ele>661.80</ele>
	<time>2024-03-25T12:46:01.000Z</time>
</trkpt>
<trkpt lat="45.8457660" lon="9.2956960">
	<ele>661.40</ele>
	<time>2024-03-25T12:46:02.000Z</time>
</trkpt>
<trkpt lat="45.8457660" lon="9.2956960">
	<ele>661.40</ele>
	<time>2024-03-25T12:46:03.000Z</time>
</trkpt>
<trkpt lat="45.8457650" lon="9.2956970">
	<ele>661.20</ele>
	<time>2024-03-25T12:46:04.000Z</time>
</trkpt>
<trkpt lat="45.8457600" lon="9.2956890">
	<ele>661.00</ele>
	<time>2024-03-25T12:46:05.000Z</time>
</trkpt>
<trkpt lat="45.8457570" lon="9.2956780">
	<ele>661.00</ele>
	<time>2024-03-25T12:46:06.000Z</time>
</trkpt>
<trkpt lat="45.8457540" lon="9.2956660">
	<ele>661.00</ele>
	<time>2024-03-25T12:46:07.000Z</time>
</trkpt>
<trkpt lat="45.8457530" lon="9.2956570">
	<ele>661.00</ele>
	<time>2024-03-25T12:46:08.000Z</time>
</trkpt>
<trkpt lat="45.8457580" lon="9.2956500">
	<ele>660.80</ele>
	<time>2024-03-25T12:46:09.000Z</time>
</trkpt>
<trkpt lat="45.8457610" lon="9.2956410">
	<ele>660.60</ele>
	<time>2024-03-25T12:46:10.000Z</time>
</trkpt>
<trkpt lat="45.8457580" lon="9.2956330">
	<ele>660.60</ele>
	<time>2024-03-25T12:46:11.000Z</time>
</trkpt>
<trkpt lat="45.8457560" lon="9.2956290">
	<ele>660.40</ele>
	<time>2024-03-25T12:46:12.000Z</time>
</trkpt>
<trkpt lat="45.8457560" lon="9.2956250">
	<ele>660.40</ele>
	<time>2024-03-25T12:46:13.000Z</time>
</trkpt>
<trkpt lat="45.8457540" lon="9.2956250">
	<ele>660.20</ele>
	<time>2024-03-25T12:46:14.000Z</time>
</trkpt>
<trkpt lat="45.8457520" lon="9.2956240">
	<ele>660.20</ele>
	<time>2024-03-25T12:46:15.000Z</time>
</trkpt>
<trkpt lat="45.8457510" lon="9.2956190">
	<ele>660.20</ele>
	<time>2024-03-25T12:46:16.000Z</time>
</trkpt>
<trkpt lat="45.8457500" lon="9.2956180">
	<ele>659.60</ele>
	<time>2024-03-25T12:46:17.000Z</time>
</trkpt>
<trkpt lat="45.8457490" lon="9.2956100">
	<ele>659.20</ele>
	<time>2024-03-25T12:46:18.000Z</time>
</trkpt>
<trkpt lat="45.8457470" lon="9.2956010">
	<ele>658.80</ele>
	<time>2024-03-25T12:46:19.000Z</time>
</trkpt>
<trkpt lat="45.8457430" lon="9.2955900">
	<ele>658.60</ele>
	<time>2024-03-25T12:46:20.000Z</time>
</trkpt>
<trkpt lat="45.8457420" lon="9.2955840">
	<ele>658.40</ele>
	<time>2024-03-25T12:46:21.000Z</time>
</trkpt>
<trkpt lat="45.8457420" lon="9.2955860">
	<ele>658.20</ele>
	<time>2024-03-25T12:46:22.000Z</time>
</trkpt>
<trkpt lat="45.8457430" lon="9.2955860">
	<ele>658.20</ele>
	<time>2024-03-25T12:46:23.000Z</time>
</trkpt>
<trkpt lat="45.8457470" lon="9.2955850">
	<ele>658.00</ele>
	<time>2024-03-25T12:46:24.000Z</time>
</trkpt>
<trkpt lat="45.8457480" lon="9.2955810">
	<ele>657.80</ele>
	<time>2024-03-25T12:46:25.000Z</time>
</trkpt>
<trkpt lat="45.8457540" lon="9.2955790">
	<ele>657.40</ele>
	<time>2024-03-25T12:46:26.000Z</time>
</trkpt>
<trkpt lat="45.8457580" lon="9.2955750">
	<ele>657.20</ele>
	<time>2024-03-25T12:46:27.000Z</time>
</trkpt>
<trkpt lat="45.8457650" lon="9.2955750">
	<ele>656.80</ele>
	<time>2024-03-25T12:46:28.000Z</time>
</trkpt>
<trkpt lat="45.8457710" lon="9.2955750">
	<ele>656.80</ele>
	<time>2024-03-25T12:46:29.000Z</time>
</trkpt>
<trkpt lat="45.8457800" lon="9.2955670">
	<ele>656.40</ele>
	<time>2024-03-25T12:46:30.000Z</time>
</trkpt>
<trkpt lat="45.8457860" lon="9.2955510">
	<ele>656.40</ele>
	<time>2024-03-25T12:46:31.000Z</time>
</trkpt>
<trkpt lat="45.8457910" lon="9.2955420">
	<ele>656.20</ele>
	<time>2024-03-25T12:46:32.000Z</time>
</trkpt>
<trkpt lat="45.8458010" lon="9.2955290">
	<ele>656.00</ele>
	<time>2024-03-25T12:46:33.000Z</time>
</trkpt>
<trkpt lat="45.8458080" lon="9.2955170">
	<ele>656.00</ele>
	<time>2024-03-25T12:46:34.000Z</time>
</trkpt>
<trkpt lat="45.8458140" lon="9.2955080">
	<ele>655.80</ele>
	<time>2024-03-25T12:46:35.000Z</time>
</trkpt>
<trkpt lat="45.8458150" lon="9.2955010">
	<ele>655.60</ele>
	<time>2024-03-25T12:46:36.000Z</time>
</trkpt>
<trkpt lat="45.8458170" lon="9.2954980">
	<ele>655.40</ele>
	<time>2024-03-25T12:46:37.000Z</time>
</trkpt>
<trkpt lat="45.8458230" lon="9.2954980">
	<ele>655.20</ele>
	<time>2024-03-25T12:46:38.000Z</time>
</trkpt>
<trkpt lat="45.8458300" lon="9.2954920">
	<ele>654.80</ele>
	<time>2024-03-25T12:46:39.000Z</time>
</trkpt>
<trkpt lat="45.8458330" lon="9.2954850">
	<ele>654.40</ele>
	<time>2024-03-25T12:46:40.000Z</time>
</trkpt>
<trkpt lat="45.8458390" lon="9.2954840">
	<ele>654.40</ele>
	<time>2024-03-25T12:46:41.000Z</time>
</trkpt>
<trkpt lat="45.8458440" lon="9.2954800">
	<ele>654.20</ele>
	<time>2024-03-25T12:46:42.000Z</time>
</trkpt>
<trkpt lat="45.8458540" lon="9.2954700">
	<ele>653.80</ele>
	<time>2024-03-25T12:46:43.000Z</time>
</trkpt>
<trkpt lat="45.8458570" lon="9.2954630">
	<ele>653.80</ele>
	<time>2024-03-25T12:46:44.000Z</time>
</trkpt>
<trkpt lat="45.8458680" lon="9.2954640">
	<ele>653.40</ele>
	<time>2024-03-25T12:46:45.000Z</time>
</trkpt>
<trkpt lat="45.8458700" lon="9.2954580">
	<ele>653.00</ele>
	<time>2024-03-25T12:46:46.000Z</time>
</trkpt>
<trkpt lat="45.8458780" lon="9.2954580">
	<ele>652.80</ele>
	<time>2024-03-25T12:46:47.000Z</time>
</trkpt>
<trkpt lat="45.8458850" lon="9.2954590">
	<ele>652.80</ele>
	<time>2024-03-25T12:46:48.000Z</time>
</trkpt>
<trkpt lat="45.8458890" lon="9.2954540">
	<ele>652.60</ele>
	<time>2024-03-25T12:46:49.000Z</time>
</trkpt>
<trkpt lat="45.8458950" lon="9.2954510">
	<ele>652.20</ele>
	<time>2024-03-25T12:46:50.000Z</time>
</trkpt>
<trkpt lat="45.8458940" lon="9.2954450">
	<ele>652.00</ele>
	<time>2024-03-25T12:46:51.000Z</time>
</trkpt>
<trkpt lat="45.8458840" lon="9.2954580">
	<ele>651.60</ele>
	<time>2024-03-25T12:46:52.000Z</time>
</trkpt>
<trkpt lat="45.8458820" lon="9.2954560">
	<ele>651.20</ele>
	<time>2024-03-25T12:46:53.000Z</time>
</trkpt>
<trkpt lat="45.8458810" lon="9.2954540">
	<ele>651.00</ele>
	<time>2024-03-25T12:46:54.000Z</time>
</trkpt>
<trkpt lat="45.8458770" lon="9.2954490">
	<ele>651.00</ele>
	<time>2024-03-25T12:46:55.000Z</time>
</trkpt>
<trkpt lat="45.8458770" lon="9.2954450">
	<ele>650.80</ele>
	<time>2024-03-25T12:46:56.000Z</time>
</trkpt>
<trkpt lat="45.8458750" lon="9.2954390">
	<ele>650.40</ele>
	<time>2024-03-25T12:46:57.000Z</time>
</trkpt>
<trkpt lat="45.8458750" lon="9.2954340">
	<ele>650.00</ele>
	<time>2024-03-25T12:46:58.000Z</time>
</trkpt>
<trkpt lat="45.8458740" lon="9.2954330">
	<ele>649.80</ele>
	<time>2024-03-25T12:46:59.000Z</time>
</trkpt>
<trkpt lat="45.8458740" lon="9.2954260">
	<ele>649.40</ele>
	<time>2024-03-25T12:47:00.000Z</time>
</trkpt>
<trkpt lat="45.8458750" lon="9.2954220">
	<ele>649.00</ele>
	<time>2024-03-25T12:47:01.000Z</time>
</trkpt>
<trkpt lat="45.8458770" lon="9.2954210">
	<ele>648.80</ele>
	<time>2024-03-25T12:47:02.000Z</time>
</trkpt>
<trkpt lat="45.8458750" lon="9.2954210">
	<ele>648.40</ele>
	<time>2024-03-25T12:47:03.000Z</time>
</trkpt>
<trkpt lat="45.8458720" lon="9.2954180">
	<ele>648.00</ele>
	<time>2024-03-25T12:47:04.000Z</time>
</trkpt>
<trkpt lat="45.8458740" lon="9.2954170">
	<ele>647.80</ele>
	<time>2024-03-25T12:47:05.000Z</time>
</trkpt>
<trkpt lat="45.8458750" lon="9.2954150">
	<ele>647.60</ele>
	<time>2024-03-25T12:47:06.000Z</time>
</trkpt>
<trkpt lat="45.8458780" lon="9.2954100">
	<ele>647.40</ele>
	<time>2024-03-25T12:47:07.000Z</time>
</trkpt>
<trkpt lat="45.8458830" lon="9.2954070">
	<ele>647.00</ele>
	<time>2024-03-25T12:47:08.000Z</time>
</trkpt>
<trkpt lat="45.8458840" lon="9.2953990">
	<ele>646.80</ele>
	<time>2024-03-25T12:47:09.000Z</time>
</trkpt>
<trkpt lat="45.8458840" lon="9.2953870">
	<ele>646.80</ele>
	<time>2024-03-25T12:47:10.000Z</time>
</trkpt>
<trkpt lat="45.8458840" lon="9.2953770">
	<ele>646.20</ele>
	<time>2024-03-25T12:47:11.000Z</time>
</trkpt>
<trkpt lat="45.8458830" lon="9.2953750">
	<ele>645.80</ele>
	<time>2024-03-25T12:47:12.000Z</time>
</trkpt>
<trkpt lat="45.8458810" lon="9.2953730">
	<ele>645.40</ele>
	<time>2024-03-25T12:47:13.000Z</time>
</trkpt>
<trkpt lat="45.8458780" lon="9.2953710">
	<ele>645.20</ele>
	<time>2024-03-25T12:47:14.000Z</time>
</trkpt>
<trkpt lat="45.8458750" lon="9.2953760">
	<ele>645.00</ele>
	<time>2024-03-25T12:47:15.000Z</time>
</trkpt>
<trkpt lat="45.8458760" lon="9.2953750">
	<ele>644.80</ele>
	<time>2024-03-25T12:47:16.000Z</time>
</trkpt>
<trkpt lat="45.8458730" lon="9.2953660">
	<ele>644.60</ele>
	<time>2024-03-25T12:47:17.000Z</time>
</trkpt>
<trkpt lat="45.8458690" lon="9.2953630">
	<ele>644.20</ele>
	<time>2024-03-25T12:47:18.000Z</time>
</trkpt>
<trkpt lat="45.8458690" lon="9.2953610">
	<ele>643.60</ele>
	<time>2024-03-25T12:47:19.000Z</time>
</trkpt>
<trkpt lat="45.8458670" lon="9.2953640">
	<ele>643.40</ele>
	<time>2024-03-25T12:47:20.000Z</time>
</trkpt>
<trkpt lat="45.8458710" lon="9.2953630">
	<ele>643.20</ele>
	<time>2024-03-25T12:47:21.000Z</time>
</trkpt>
<trkpt lat="45.8458740" lon="9.2953590">
	<ele>643.00</ele>
	<time>2024-03-25T12:47:22.000Z</time>
</trkpt>
<trkpt lat="45.8458740" lon="9.2953570">
	<ele>642.80</ele>
	<time>2024-03-25T12:47:23.000Z</time>
</trkpt>
<trkpt lat="45.8458790" lon="9.2953520">
	<ele>642.60</ele>
	<time>2024-03-25T12:47:24.000Z</time>
</trkpt>
<trkpt lat="45.8458790" lon="9.2953490">
	<ele>642.40</ele>
	<time>2024-03-25T12:47:25.000Z</time>
</trkpt>
<trkpt lat="45.8458790" lon="9.2953480">
	<ele>642.20</ele>
	<time>2024-03-25T12:47:26.000Z</time>
</trkpt>
<trkpt lat="45.8458810" lon="9.2953470">
	<ele>642.20</ele>
	<time>2024-03-25T12:47:27.000Z</time>
</trkpt>
<trkpt lat="45.8458840" lon="9.2953450">
	<ele>642.00</ele>
	<time>2024-03-25T12:47:28.000Z</time>
</trkpt>
<trkpt lat="45.8458990" lon="9.2953500">
	<ele>641.60</ele>
	<time>2024-03-25T12:47:29.000Z</time>
</trkpt>
<trkpt lat="45.8459060" lon="9.2953430">
	<ele>641.40</ele>
	<time>2024-03-25T12:47:30.000Z</time>
</trkpt>
<trkpt lat="45.8459100" lon="9.2953320">
	<ele>641.20</ele>
	<time>2024-03-25T12:47:31.000Z</time>
</trkpt>
<trkpt lat="45.8459140" lon="9.2953200">
	<ele>641.00</ele>
	<time>2024-03-25T12:47:32.000Z</time>
</trkpt>
<trkpt lat="45.8459160" lon="9.2953140">
	<ele>640.60</ele>
	<time>2024-03-25T12:47:33.000Z</time>
</trkpt>
<trkpt lat="45.8459190" lon="9.2953130">
	<ele>640.40</ele>
	<time>2024-03-25T12:47:34.000Z</time>
</trkpt>
<trkpt lat="45.8459200" lon="9.2953080">
	<ele>640.20</ele>
	<time>2024-03-25T12:47:35.000Z</time>
</trkpt>
<trkpt lat="45.8459210" lon="9.2953020">
	<ele>640.00</ele>
	<time>2024-03-25T12:47:36.000Z</time>
</trkpt>
<trkpt lat="45.8459290" lon="9.2952970">
	<ele>639.80</ele>
	<time>2024-03-25T12:47:37.000Z</time>
</trkpt>
<trkpt lat="45.8459320" lon="9.2952910">
	<ele>639.40</ele>
	<time>2024-03-25T12:47:38.000Z</time>
</trkpt>
<trkpt lat="45.8459360" lon="9.2952890">
	<ele>639.20</ele>
	<time>2024-03-25T12:47:39.000Z</time>
</trkpt>
<trkpt lat="45.8459400" lon="9.2952790">
	<ele>639.00</ele>
	<time>2024-03-25T12:47:40.000Z</time>
</trkpt>
<trkpt lat="45.8459430" lon="9.2952740">
	<ele>638.80</ele>
	<time>2024-03-25T12:47:41.000Z</time>
</trkpt>
<trkpt lat="45.8459450" lon="9.2952730">
	<ele>638.40</ele>
	<time>2024-03-25T12:47:42.000Z</time>
</trkpt>
<trkpt lat="45.8459470" lon="9.2952700">
	<ele>638.20</ele>
	<time>2024-03-25T12:47:43.000Z</time>
</trkpt>
<trkpt lat="45.8459530" lon="9.2952710">
	<ele>638.00</ele>
	<time>2024-03-25T12:47:44.000Z</time>
</trkpt>
<trkpt lat="45.8459610" lon="9.2952730">
	<ele>637.60</ele>
	<time>2024-03-25T12:47:45.000Z</time>
</trkpt>
<trkpt lat="45.8459680" lon="9.2952730">
	<ele>637.40</ele>
	<time>2024-03-25T12:47:46.000Z</time>
</trkpt>
<trkpt lat="45.8459730" lon="9.2952690">
	<ele>637.20</ele>
	<time>2024-03-25T12:47:47.000Z</time>
</trkpt>
<trkpt lat="45.8459780" lon="9.2952640">
	<ele>637.00</ele>
	<time>2024-03-25T12:47:48.000Z</time>
</trkpt>
<trkpt lat="45.8459790" lon="9.2952630">
	<ele>636.80</ele>
	<time>2024-03-25T12:47:49.000Z</time>
</trkpt>
<trkpt lat="45.8459790" lon="9.2952640">
	<ele>636.60</ele>
	<time>2024-03-25T12:47:50.000Z</time>
</trkpt>
<trkpt lat="45.8459880" lon="9.2952570">
	<ele>636.40</ele>
	<time>2024-03-25T12:47:51.000Z</time>
</trkpt>
<trkpt lat="45.8459870" lon="9.2952530">
	<ele>636.00</ele>
	<time>2024-03-25T12:47:52.000Z</time>
</trkpt>
<trkpt lat="45.8459880" lon="9.2952480">
	<ele>635.80</ele>
	<time>2024-03-25T12:47:53.000Z</time>
</trkpt>
<trkpt lat="45.8459890" lon="9.2952430">
	<ele>635.40</ele>
	<time>2024-03-25T12:47:54.000Z</time>
</trkpt>
<trkpt lat="45.8459970" lon="9.2952320">
	<ele>635.00</ele>
	<time>2024-03-25T12:47:55.000Z</time>
</trkpt>
<trkpt lat="45.8460070" lon="9.2952210">
	<ele>634.80</ele>
	<time>2024-03-25T12:47:56.000Z</time>
</trkpt>
<trkpt lat="45.8460170" lon="9.2952070">
	<ele>634.40</ele>
	<time>2024-03-25T12:47:57.000Z</time>
</trkpt>
<trkpt lat="45.8460220" lon="9.2951980">
	<ele>634.20</ele>
	<time>2024-03-25T12:47:58.000Z</time>
</trkpt>
<trkpt lat="45.8460230" lon="9.2951920">
	<ele>634.00</ele>
	<time>2024-03-25T12:47:59.000Z</time>
</trkpt>
<trkpt lat="45.8460270" lon="9.2951890">
	<ele>633.60</ele>
	<time>2024-03-25T12:48:00.000Z</time>
</trkpt>
<trkpt lat="45.8460320" lon="9.2951840">
	<ele>633.40</ele>
	<time>2024-03-25T12:48:01.000Z</time>
</trkpt>
<trkpt lat="45.8460370" lon="9.2951830">
	<ele>633.20</ele>
	<time>2024-03-25T12:48:02.000Z</time>
</trkpt>
<trkpt lat="45.8460460" lon="9.2951810">
	<ele>633.00</ele>
	<time>2024-03-25T12:48:03.000Z</time>
</trkpt>
<trkpt lat="45.8460540" lon="9.2951840">
	<ele>632.60</ele>
	<time>2024-03-25T12:48:04.000Z</time>
</trkpt>
<trkpt lat="45.8460610" lon="9.2951840">
	<ele>632.40</ele>
	<time>2024-03-25T12:48:05.000Z</time>
</trkpt>
<trkpt lat="45.8460660" lon="9.2951790">
	<ele>632.00</ele>
	<time>2024-03-25T12:48:06.000Z</time>
</trkpt>
<trkpt lat="45.8460670" lon="9.2951680">
	<ele>631.60</ele>
	<time>2024-03-25T12:48:07.000Z</time>
</trkpt>
<trkpt lat="45.8460680" lon="9.2951570">
	<ele>631.20</ele>
	<time>2024-03-25T12:48:08.000Z</time>
</trkpt>
<trkpt lat="45.8460670" lon="9.2951470">
	<ele>630.80</ele>
	<time>2024-03-25T12:48:09.000Z</time>
</trkpt>
<trkpt lat="45.8460700" lon="9.2951330">
	<ele>630.60</ele>
	<time>2024-03-25T12:48:10.000Z</time>
</trkpt>
<trkpt lat="45.8460770" lon="9.2951250">
	<ele>630.20</ele>
	<time>2024-03-25T12:48:11.000Z</time>
</trkpt>
<trkpt lat="45.8460870" lon="9.2951230">
	<ele>629.80</ele>
	<time>2024-03-25T12:48:12.000Z</time>
</trkpt>
<trkpt lat="45.8460970" lon="9.2951280">
	<ele>629.40</ele>
	<time>2024-03-25T12:48:13.000Z</time>
</trkpt>
<trkpt lat="45.8461080" lon="9.2951310">
	<ele>629.20</ele>
	<time>2024-03-25T12:48:14.000Z</time>
</trkpt>
<trkpt lat="45.8461190" lon="9.2951260">
	<ele>628.80</ele>
	<time>2024-03-25T12:48:15.000Z</time>
</trkpt>
<trkpt lat="45.8461300" lon="9.2951170">
	<ele>628.60</ele>
	<time>2024-03-25T12:48:16.000Z</time>
</trkpt>
<trkpt lat="45.8461300" lon="9.2951110">
	<ele>628.40</ele>
	<time>2024-03-25T12:48:17.000Z</time>
</trkpt>
<trkpt lat="45.8461300" lon="9.2951070">
	<ele>628.00</ele>
	<time>2024-03-25T12:48:18.000Z</time>
</trkpt>
<trkpt lat="45.8461360" lon="9.2951010">
	<ele>627.80</ele>
	<time>2024-03-25T12:48:19.000Z</time>
</trkpt>
<trkpt lat="45.8461420" lon="9.2950880">
	<ele>627.40</ele>
	<time>2024-03-25T12:48:20.000Z</time>
</trkpt>
<trkpt lat="45.8461480" lon="9.2950670">
	<ele>627.20</ele>
	<time>2024-03-25T12:48:21.000Z</time>
</trkpt>
<trkpt lat="45.8461570" lon="9.2950500">
	<ele>627.00</ele>
	<time>2024-03-25T12:48:22.000Z</time>
</trkpt>
<trkpt lat="45.8461620" lon="9.2950350">
	<ele>626.40</ele>
	<time>2024-03-25T12:48:23.000Z</time>
</trkpt>
<trkpt lat="45.8461600" lon="9.2950290">
	<ele>626.20</ele>
	<time>2024-03-25T12:48:24.000Z</time>
</trkpt>
<trkpt lat="45.8461660" lon="9.2950180">
	<ele>626.00</ele>
	<time>2024-03-25T12:48:25.000Z</time>
</trkpt>
<trkpt lat="45.8461740" lon="9.2950030">
	<ele>625.60</ele>
	<time>2024-03-25T12:48:26.000Z</time>
</trkpt>
<trkpt lat="45.8461760" lon="9.2950010">
	<ele>625.20</ele>
	<time>2024-03-25T12:48:27.000Z</time>
</trkpt>
<trkpt lat="45.8461800" lon="9.2949960">
	<ele>624.80</ele>
	<time>2024-03-25T12:48:28.000Z</time>
</trkpt>
<trkpt lat="45.8461890" lon="9.2949840">
	<ele>624.60</ele>
	<time>2024-03-25T12:48:29.000Z</time>
</trkpt>
<trkpt lat="45.8462040" lon="9.2949690">
	<ele>624.20</ele>
	<time>2024-03-25T12:48:30.000Z</time>
</trkpt>
<trkpt lat="45.8462160" lon="9.2949610">
	<ele>624.00</ele>
	<time>2024-03-25T12:48:31.000Z</time>
</trkpt>
<trkpt lat="45.8462210" lon="9.2949560">
	<ele>623.80</ele>
	<time>2024-03-25T12:48:32.000Z</time>
</trkpt>
<trkpt lat="45.8462280" lon="9.2949480">
	<ele>623.40</ele>
	<time>2024-03-25T12:48:33.000Z</time>
</trkpt>
<trkpt lat="45.8462400" lon="9.2949420">
	<ele>623.20</ele>
	<time>2024-03-25T12:48:34.000Z</time>
</trkpt>
<trkpt lat="45.8462550" lon="9.2949380">
	<ele>623.00</ele>
	<time>2024-03-25T12:48:35.000Z</time>
</trkpt>
<trkpt lat="45.8462690" lon="9.2949370">
	<ele>622.80</ele>
	<time>2024-03-25T12:48:36.000Z</time>
</trkpt>
<trkpt lat="45.8462790" lon="9.2949410">
	<ele>622.40</ele>
	<time>2024-03-25T12:48:37.000Z</time>
</trkpt>
<trkpt lat="45.8462910" lon="9.2949490">
	<ele>622.20</ele>
	<time>2024-03-25T12:48:38.000Z</time>
</trkpt>
<trkpt lat="45.8463010" lon="9.2949590">
	<ele>622.00</ele>
	<time>2024-03-25T12:48:39.000Z</time>
</trkpt>
<trkpt lat="45.8463050" lon="9.2949700">
	<ele>621.80</ele>
	<time>2024-03-25T12:48:40.000Z</time>
</trkpt>
<trkpt lat="45.8463010" lon="9.2949840">
	<ele>621.40</ele>
	<time>2024-03-25T12:48:41.000Z</time>
</trkpt>
<trkpt lat="45.8462990" lon="9.2949980">
	<ele>621.20</ele>
	<time>2024-03-25T12:48:42.000Z</time>
</trkpt>
<trkpt lat="45.8462970" lon="9.2950000">
	<ele>621.00</ele>
	<time>2024-03-25T12:48:43.000Z</time>
</trkpt>
<trkpt lat="45.8462950" lon="9.2949980">
	<ele>621.00</ele>
	<time>2024-03-25T12:48:44.000Z</time>
</trkpt>
<trkpt lat="45.8462960" lon="9.2949970">
	<ele>620.80</ele>
	<time>2024-03-25T12:48:45.000Z</time>
</trkpt>
<trkpt lat="45.8462970" lon="9.2949980">
	<ele>620.80</ele>
	<time>2024-03-25T12:48:46.000Z</time>
</trkpt>
<trkpt lat="45.8462950" lon="9.2949980">
	<ele>620.80</ele>
	<time>2024-03-25T12:48:47.000Z</time>
</trkpt>
<trkpt lat="45.8462940" lon="9.2949970">
	<ele>620.80</ele>
	<time>2024-03-25T12:48:48.000Z</time>
</trkpt>
<trkpt lat="45.8462950" lon="9.2949980">
	<ele>620.80</ele>
	<time>2024-03-25T12:48:49.000Z</time>
</trkpt>
<trkpt lat="45.8462940" lon="9.2950010">
	<ele>620.80</ele>
	<time>2024-03-25T12:48:50.000Z</time>
</trkpt>
<trkpt lat="45.8462940" lon="9.2950020">
	<ele>620.80</ele>
	<time>2024-03-25T12:48:51.000Z</time>
</trkpt>
<trkpt lat="45.8462990" lon="9.2949960">
	<ele>620.80</ele>
	<time>2024-03-25T12:48:52.000Z</time>
</trkpt>
<trkpt lat="45.8462960" lon="9.2949920">
	<ele>620.60</ele>
	<time>2024-03-25T12:48:53.000Z</time>
</trkpt>
<trkpt lat="45.8462950" lon="9.2949910">
	<ele>620.60</ele>
	<time>2024-03-25T12:48:54.000Z</time>
</trkpt>
<trkpt lat="45.8462950" lon="9.2949900">
	<ele>620.60</ele>
	<time>2024-03-25T12:48:55.000Z</time>
</trkpt>
<trkpt lat="45.8462940" lon="9.2949890">
	<ele>620.60</ele>
	<time>2024-03-25T12:48:56.000Z</time>
</trkpt>
<trkpt lat="45.8462940" lon="9.2949890">
	<ele>620.60</ele>
	<time>2024-03-25T12:48:57.000Z</time>
</trkpt>
<trkpt lat="45.8462940" lon="9.2949890">
	<ele>620.60</ele>
	<time>2024-03-25T12:48:58.000Z</time>
</trkpt>
<trkpt lat="45.8462940" lon="9.2949890">
	<ele>620.60</ele>
	<time>2024-03-25T12:48:59.000Z</time>
</trkpt>
<trkpt lat="45.8462940" lon="9.2949890">
	<ele>620.60</ele>
	<time>2024-03-25T12:49:00.000Z</time>
</trkpt>
<trkpt lat="45.8462940" lon="9.2949890">
	<ele>620.60</ele>
	<time>2024-03-25T12:49:01.000Z</time>
</trkpt>
<trkpt lat="45.8462940" lon="9.2949890">
	<ele>620.40</ele>
	<time>2024-03-25T12:49:02.000Z</time>
</trkpt>
<trkpt lat="45.8462940" lon="9.2949890">
	<ele>620.40</ele>
	<time>2024-03-25T12:49:03.000Z</time>
</trkpt>
<trkpt lat="45.8462940" lon="9.2949890">
	<ele>620.20</ele>
	<time>2024-03-25T12:49:04.000Z</time>
</trkpt>
<trkpt lat="45.8462940" lon="9.2949890">
	<ele>620.00</ele>
	<time>2024-03-25T12:49:05.000Z</time>
</trkpt>
<trkpt lat="45.8462940" lon="9.2949900">
	<ele>620.00</ele>
	<time>2024-03-25T12:49:06.000Z</time>
</trkpt>
<trkpt lat="45.8462940" lon="9.2949910">
	<ele>620.00</ele>
	<time>2024-03-25T12:49:07.000Z</time>
</trkpt>
<trkpt lat="45.8462940" lon="9.2949910">
	<ele>620.00</ele>
	<time>2024-03-25T12:49:08.000Z</time>
</trkpt>
<trkpt lat="45.8462950" lon="9.2949920">
	<ele>620.00</ele>
	<time>2024-03-25T12:49:09.000Z</time>
</trkpt>
<trkpt lat="45.8463030" lon="9.2949930">
	<ele>620.00</ele>
	<time>2024-03-25T12:49:10.000Z</time>
</trkpt>
<trkpt lat="45.8463260" lon="9.2949810">
	<ele>620.00</ele>
	<time>2024-03-25T12:49:11.000Z</time>
</trkpt>
<trkpt lat="45.8463460" lon="9.2949670">
	<ele>620.00</ele>
	<time>2024-03-25T12:49:12.000Z</time>
</trkpt>
<trkpt lat="45.8463680" lon="9.2949530">
	<ele>619.80</ele>
	<time>2024-03-25T12:49:13.000Z</time>
</trkpt>
<trkpt lat="45.8463870" lon="9.2949360">
	<ele>619.60</ele>
	<time>2024-03-25T12:49:14.000Z</time>
</trkpt>
<trkpt lat="45.8464060" lon="9.2949230">
	<ele>619.60</ele>
	<time>2024-03-25T12:49:15.000Z</time>
</trkpt>
<trkpt lat="45.8464280" lon="9.2949220">
	<ele>619.40</ele>
	<time>2024-03-25T12:49:16.000Z</time>
</trkpt>
<trkpt lat="45.8464450" lon="9.2949050">
	<ele>619.40</ele>
	<time>2024-03-25T12:49:17.000Z</time>
</trkpt>
<trkpt lat="45.8464590" lon="9.2948870">
	<ele>619.40</ele>
	<time>2024-03-25T12:49:18.000Z</time>
</trkpt>
<trkpt lat="45.8464770" lon="9.2948720">
	<ele>619.40</ele>
	<time>2024-03-25T12:49:19.000Z</time>
</trkpt>
<trkpt lat="45.8464920" lon="9.2948640">
	<ele>619.20</ele>
	<time>2024-03-25T12:49:20.000Z</time>
</trkpt>
<trkpt lat="45.8465030" lon="9.2948530">
	<ele>619.00</ele>
	<time>2024-03-25T12:49:21.000Z</time>
</trkpt>
<trkpt lat="45.8465140" lon="9.2948470">
	<ele>618.80</ele>
	<time>2024-03-25T12:49:22.000Z</time>
</trkpt>
<trkpt lat="45.8465180" lon="9.2948430">
	<ele>618.60</ele>
	<time>2024-03-25T12:49:23.000Z</time>
</trkpt>
<trkpt lat="45.8465200" lon="9.2948400">
	<ele>618.60</ele>
	<time>2024-03-25T12:49:24.000Z</time>
</trkpt>
<trkpt lat="45.8465220" lon="9.2948400">
	<ele>618.40</ele>
	<time>2024-03-25T12:49:25.000Z</time>
</trkpt>
<trkpt lat="45.8465300" lon="9.2948470">
	<ele>618.20</ele>
	<time>2024-03-25T12:49:26.000Z</time>
</trkpt>
<trkpt lat="45.8465510" lon="9.2948650">
	<ele>618.20</ele>
	<time>2024-03-25T12:49:27.000Z</time>
</trkpt>
<trkpt lat="45.8465760" lon="9.2948740">
	<ele>618.00</ele>
	<time>2024-03-25T12:49:28.000Z</time>
</trkpt>
<trkpt lat="45.8465970" lon="9.2948810">
	<ele>617.80</ele>
	<time>2024-03-25T12:49:29.000Z</time>
</trkpt>
<trkpt lat="45.8466170" lon="9.2948860">
	<ele>617.60</ele>
	<time>2024-03-25T12:49:30.000Z</time>
</trkpt>
<trkpt lat="45.8466230" lon="9.2948830">
	<ele>617.20</ele>
	<time>2024-03-25T12:49:31.000Z</time>
</trkpt>
<trkpt lat="45.8466240" lon="9.2948840">
	<ele>617.00</ele>
	<time>2024-03-25T12:49:32.000Z</time>
</trkpt>
<trkpt lat="45.8466370" lon="9.2948920">
	<ele>616.80</ele>
	<time>2024-03-25T12:49:33.000Z</time>
</trkpt>
<trkpt lat="45.8466500" lon="9.2949000">
	<ele>616.60</ele>
	<time>2024-03-25T12:49:34.000Z</time>
</trkpt>
<trkpt lat="45.8466640" lon="9.2949070">
	<ele>616.40</ele>
	<time>2024-03-25T12:49:35.000Z</time>
</trkpt>
<trkpt lat="45.8466770" lon="9.2949140">
	<ele>616.20</ele>
	<time>2024-03-25T12:49:36.000Z</time>
</trkpt>
<trkpt lat="45.8466930" lon="9.2949200">
	<ele>616.00</ele>
	<time>2024-03-25T12:49:37.000Z</time>
</trkpt>
<trkpt lat="45.8467080" lon="9.2949290">
	<ele>615.80</ele>
	<time>2024-03-25T12:49:38.000Z</time>
</trkpt>
<trkpt lat="45.8467220" lon="9.2949330">
	<ele>615.60</ele>
	<time>2024-03-25T12:49:39.000Z</time>
</trkpt>
<trkpt lat="45.8467270" lon="9.2949320">
	<ele>615.60</ele>
	<time>2024-03-25T12:49:40.000Z</time>
</trkpt>
<trkpt lat="45.8467390" lon="9.2949240">
	<ele>615.60</ele>
	<time>2024-03-25T12:49:41.000Z</time>
</trkpt>
<trkpt lat="45.8467520" lon="9.2949150">
	<ele>615.60</ele>
	<time>2024-03-25T12:49:42.000Z</time>
</trkpt>
<trkpt lat="45.8467660" lon="9.2949060">
	<ele>615.60</ele>
	<time>2024-03-25T12:49:43.000Z</time>
</trkpt>
<trkpt lat="45.8467750" lon="9.2948980">
	<ele>615.60</ele>
	<time>2024-03-25T12:49:44.000Z</time>
</trkpt>
<trkpt lat="45.8467850" lon="9.2948880">
	<ele>615.80</ele>
	<time>2024-03-25T12:49:45.000Z</time>
</trkpt>
<trkpt lat="45.8467980" lon="9.2948750">
	<ele>615.80</ele>
	<time>2024-03-25T12:49:46.000Z</time>
</trkpt>
<trkpt lat="45.8468080" lon="9.2948650">
	<ele>615.80</ele>
	<time>2024-03-25T12:49:47.000Z</time>
</trkpt>
<trkpt lat="45.8468180" lon="9.2948530">
	<ele>615.80</ele>
	<time>2024-03-25T12:49:48.000Z</time>
</trkpt>
<trkpt lat="45.8468280" lon="9.2948450">
	<ele>615.80</ele>
	<time>2024-03-25T12:49:49.000Z</time>
</trkpt>
<trkpt lat="45.8468350" lon="9.2948390">
	<ele>615.80</ele>
	<time>2024-03-25T12:49:50.000Z</time>
</trkpt>
<trkpt lat="45.8468400" lon="9.2948320">
	<ele>615.60</ele>
	<time>2024-03-25T12:49:51.000Z</time>
</trkpt>
<trkpt lat="45.8468420" lon="9.2948290">
	<ele>615.60</ele>
	<time>2024-03-25T12:49:52.000Z</time>
</trkpt>
<trkpt lat="45.8468530" lon="9.2948170">
	<ele>615.20</ele>
	<time>2024-03-25T12:49:53.000Z</time>
</trkpt>
<trkpt lat="45.8468630" lon="9.2948090">
	<ele>615.00</ele>
	<time>2024-03-25T12:49:54.000Z</time>
</trkpt>
<trkpt lat="45.8468720" lon="9.2948010">
	<ele>614.80</ele>
	<time>2024-03-25T12:49:55.000Z</time>
</trkpt>
<trkpt lat="45.8468820" lon="9.2947900">
	<ele>614.60</ele>
	<time>2024-03-25T12:49:56.000Z</time>
</trkpt>
<trkpt lat="45.8468890" lon="9.2947770">
	<ele>614.40</ele>
	<time>2024-03-25T12:49:57.000Z</time>
</trkpt>
<trkpt lat="45.8468930" lon="9.2947600">
	<ele>613.80</ele>
	<time>2024-03-25T12:49:58.000Z</time>
</trkpt>
<trkpt lat="45.8468970" lon="9.2947550">
	<ele>613.60</ele>
	<time>2024-03-25T12:49:59.000Z</time>
</trkpt>
<trkpt lat="45.8469070" lon="9.2947470">
	<ele>613.20</ele>
	<time>2024-03-25T12:50:00.000Z</time>
</trkpt>
<trkpt lat="45.8469160" lon="9.2947410">
	<ele>612.80</ele>
	<time>2024-03-25T12:50:01.000Z</time>
</trkpt>
<trkpt lat="45.8469270" lon="9.2947340">
	<ele>612.60</ele>
	<time>2024-03-25T12:50:02.000Z</time>
</trkpt>
<trkpt lat="45.8469340" lon="9.2947270">
	<ele>612.20</ele>
	<time>2024-03-25T12:50:03.000Z</time>
</trkpt>
<trkpt lat="45.8469380" lon="9.2947280">
	<ele>612.00</ele>
	<time>2024-03-25T12:50:04.000Z</time>
</trkpt>
<trkpt lat="45.8469420" lon="9.2947270">
	<ele>611.80</ele>
	<time>2024-03-25T12:50:05.000Z</time>
</trkpt>
<trkpt lat="45.8469430" lon="9.2947230">
	<ele>611.40</ele>
	<time>2024-03-25T12:50:06.000Z</time>
</trkpt>
<trkpt lat="45.8469440" lon="9.2947140">
	<ele>611.00</ele>
	<time>2024-03-25T12:50:07.000Z</time>
</trkpt>
<trkpt lat="45.8469430" lon="9.2947060">
	<ele>610.80</ele>
	<time>2024-03-25T12:50:08.000Z</time>
</trkpt>
<trkpt lat="45.8469430" lon="9.2947000">
	<ele>610.60</ele>
	<time>2024-03-25T12:50:09.000Z</time>
</trkpt>
<trkpt lat="45.8469470" lon="9.2946990">
	<ele>610.40</ele>
	<time>2024-03-25T12:50:10.000Z</time>
</trkpt>
<trkpt lat="45.8469500" lon="9.2946920">
	<ele>610.20</ele>
	<time>2024-03-25T12:50:11.000Z</time>
</trkpt>
<trkpt lat="45.8469540" lon="9.2946880">
	<ele>609.80</ele>
	<time>2024-03-25T12:50:12.000Z</time>
</trkpt>
<trkpt lat="45.8469560" lon="9.2946860">
	<ele>609.40</ele>
	<time>2024-03-25T12:50:13.000Z</time>
</trkpt>
<trkpt lat="45.8469610" lon="9.2946850">
	<ele>609.40</ele>
	<time>2024-03-25T12:50:14.000Z</time>
</trkpt>
<trkpt lat="45.8469650" lon="9.2946840">
	<ele>609.20</ele>
	<time>2024-03-25T12:50:15.000Z</time>
</trkpt>
<trkpt lat="45.8469660" lon="9.2946730">
	<ele>608.80</ele>
	<time>2024-03-25T12:50:16.000Z</time>
</trkpt>
<trkpt lat="45.8469690" lon="9.2946650">
	<ele>608.40</ele>
	<time>2024-03-25T12:50:17.000Z</time>
</trkpt>
<trkpt lat="45.8469740" lon="9.2946550">
	<ele>608.00</ele>
	<time>2024-03-25T12:50:18.000Z</time>
</trkpt>
<trkpt lat="45.8469790" lon="9.2946440">
	<ele>607.80</ele>
	<time>2024-03-25T12:50:19.000Z</time>
</trkpt>
<trkpt lat="45.8469810" lon="9.2946400">
	<ele>607.40</ele>
	<time>2024-03-25T12:50:20.000Z</time>
</trkpt>
<trkpt lat="45.8469800" lon="9.2946380">
	<ele>607.40</ele>
	<time>2024-03-25T12:50:21.000Z</time>
</trkpt>
<trkpt lat="45.8469780" lon="9.2946180">
	<ele>607.00</ele>
	<time>2024-03-25T12:50:22.000Z</time>
</trkpt>
<trkpt lat="45.8469780" lon="9.2945930">
	<ele>606.80</ele>
	<time>2024-03-25T12:50:23.000Z</time>
</trkpt>
<trkpt lat="45.8469920" lon="9.2945620">
	<ele>606.60</ele>
	<time>2024-03-25T12:50:24.000Z</time>
</trkpt>
<trkpt lat="45.8470060" lon="9.2945440">
	<ele>606.20</ele>
	<time>2024-03-25T12:50:25.000Z</time>
</trkpt>
<trkpt lat="45.8470140" lon="9.2945380">
	<ele>605.80</ele>
	<time>2024-03-25T12:50:26.000Z</time>
</trkpt>
<trkpt lat="45.8470140" lon="9.2945360">
	<ele>605.40</ele>
	<time>2024-03-25T12:50:27.000Z</time>
</trkpt>
<trkpt lat="45.8470160" lon="9.2945340">
	<ele>605.20</ele>
	<time>2024-03-25T12:50:28.000Z</time>
</trkpt>
<trkpt lat="45.8470180" lon="9.2945260">
	<ele>605.00</ele>
	<time>2024-03-25T12:50:29.000Z</time>
</trkpt>
<trkpt lat="45.8470180" lon="9.2945260">
	<ele>605.00</ele>
	<time>2024-03-25T12:50:30.000Z</time>
</trkpt>
<trkpt lat="45.8470190" lon="9.2945280">
	<ele>604.80</ele>
	<time>2024-03-25T12:50:31.000Z</time>
</trkpt>
<trkpt lat="45.8470210" lon="9.2945290">
	<ele>604.80</ele>
	<time>2024-03-25T12:50:32.000Z</time>
</trkpt>
<trkpt lat="45.8470250" lon="9.2945210">
	<ele>604.60</ele>
	<time>2024-03-25T12:50:33.000Z</time>
</trkpt>
<trkpt lat="45.8470230" lon="9.2945140">
	<ele>604.60</ele>
	<time>2024-03-25T12:50:34.000Z</time>
</trkpt>
<trkpt lat="45.8470220" lon="9.2945040">
	<ele>604.20</ele>
	<time>2024-03-25T12:50:35.000Z</time>
</trkpt>
<trkpt lat="45.8470220" lon="9.2944990">
	<ele>604.00</ele>
	<time>2024-03-25T12:50:36.000Z</time>
</trkpt>
<trkpt lat="45.8470230" lon="9.2944850">
	<ele>603.60</ele>
	<time>2024-03-25T12:50:37.000Z</time>
</trkpt>
<trkpt lat="45.8470190" lon="9.2944760">
	<ele>603.40</ele>
	<time>2024-03-25T12:50:38.000Z</time>
</trkpt>
<trkpt lat="45.8470190" lon="9.2944740">
	<ele>603.00</ele>
	<time>2024-03-25T12:50:39.000Z</time>
</trkpt>
<trkpt lat="45.8470150" lon="9.2944740">
	<ele>602.60</ele>
	<time>2024-03-25T12:50:40.000Z</time>
</trkpt>
<trkpt lat="45.8470110" lon="9.2944670">
	<ele>602.40</ele>
	<time>2024-03-25T12:50:41.000Z</time>
</trkpt>
<trkpt lat="45.8470070" lon="9.2944530">
	<ele>602.00</ele>
	<time>2024-03-25T12:50:42.000Z</time>
</trkpt>
<trkpt lat="45.8470020" lon="9.2944500">
	<ele>601.60</ele>
	<time>2024-03-25T12:50:43.000Z</time>
</trkpt>
<trkpt lat="45.8469990" lon="9.2944510">
	<ele>601.40</ele>
	<time>2024-03-25T12:50:44.000Z</time>
</trkpt>
<trkpt lat="45.8469950" lon="9.2944500">
	<ele>601.20</ele>
	<time>2024-03-25T12:50:45.000Z</time>
</trkpt>
<trkpt lat="45.8469920" lon="9.2944520">
	<ele>601.00</ele>
	<time>2024-03-25T12:50:46.000Z</time>
</trkpt>
<trkpt lat="45.8469920" lon="9.2944480">
	<ele>600.80</ele>
	<time>2024-03-25T12:50:47.000Z</time>
</trkpt>
<trkpt lat="45.8469880" lon="9.2944410">
	<ele>600.60</ele>
	<time>2024-03-25T12:50:48.000Z</time>
</trkpt>
<trkpt lat="45.8469850" lon="9.2944430">
	<ele>600.40</ele>
	<time>2024-03-25T12:50:49.000Z</time>
</trkpt>
<trkpt lat="45.8469850" lon="9.2944450">
	<ele>600.20</ele>
	<time>2024-03-25T12:50:50.000Z</time>
</trkpt>
<trkpt lat="45.8469840" lon="9.2944480">
	<ele>599.80</ele>
	<time>2024-03-25T12:50:51.000Z</time>
</trkpt>
<trkpt lat="45.8469840" lon="9.2944460">
	<ele>599.60</ele>
	<time>2024-03-25T12:50:52.000Z</time>
</trkpt>
<trkpt lat="45.8469820" lon="9.2944240">
	<ele>599.40</ele>
	<time>2024-03-25T12:50:53.000Z</time>
</trkpt>
<trkpt lat="45.8469810" lon="9.2944120">
	<ele>599.20</ele>
	<time>2024-03-25T12:50:54.000Z</time>
</trkpt>
<trkpt lat="45.8469830" lon="9.2943980">
	<ele>599.00</ele>
	<time>2024-03-25T12:50:55.000Z</time>
</trkpt>
<trkpt lat="45.8469760" lon="9.2943770">
	<ele>598.80</ele>
	<time>2024-03-25T12:50:56.000Z</time>
</trkpt>
<trkpt lat="45.8469700" lon="9.2943660">
	<ele>598.60</ele>
	<time>2024-03-25T12:50:57.000Z</time>
</trkpt>
<trkpt lat="45.8469630" lon="9.2943720">
	<ele>598.40</ele>
	<time>2024-03-25T12:50:58.000Z</time>
</trkpt>
<trkpt lat="45.8469620" lon="9.2943660">
	<ele>598.20</ele>
	<time>2024-03-25T12:50:59.000Z</time>
</trkpt>
<trkpt lat="45.8469660" lon="9.2943560">
	<ele>598.00</ele>
	<time>2024-03-25T12:51:00.000Z</time>
</trkpt>
<trkpt lat="45.8469680" lon="9.2943330">
	<ele>597.80</ele>
	<time>2024-03-25T12:51:01.000Z</time>
</trkpt>
<trkpt lat="45.8469700" lon="9.2943260">
	<ele>597.60</ele>
	<time>2024-03-25T12:51:02.000Z</time>
</trkpt>
<trkpt lat="45.8469750" lon="9.2943150">
	<ele>597.40</ele>
	<time>2024-03-25T12:51:03.000Z</time>
</trkpt>
<trkpt lat="45.8469740" lon="9.2943040">
	<ele>597.00</ele>
	<time>2024-03-25T12:51:04.000Z</time>
</trkpt>
<trkpt lat="45.8469720" lon="9.2942870">
	<ele>596.80</ele>
	<time>2024-03-25T12:51:05.000Z</time>
</trkpt>
<trkpt lat="45.8469740" lon="9.2942810">
	<ele>596.60</ele>
	<time>2024-03-25T12:51:06.000Z</time>
</trkpt>
<trkpt lat="45.8469760" lon="9.2942780">
	<ele>596.40</ele>
	<time>2024-03-25T12:51:07.000Z</time>
</trkpt>
<trkpt lat="45.8469870" lon="9.2942760">
	<ele>596.40</ele>
	<time>2024-03-25T12:51:08.000Z</time>
</trkpt>
<trkpt lat="45.8469950" lon="9.2942770">
	<ele>596.20</ele>
	<time>2024-03-25T12:51:09.000Z</time>
</trkpt>
<trkpt lat="45.8469950" lon="9.2942760">
	<ele>595.80</ele>
	<time>2024-03-25T12:51:10.000Z</time>
</trkpt>
<trkpt lat="45.8469960" lon="9.2942640">
	<ele>595.60</ele>
	<time>2024-03-25T12:51:11.000Z</time>
</trkpt>
<trkpt lat="45.8469970" lon="9.2942530">
	<ele>595.40</ele>
	<time>2024-03-25T12:51:12.000Z</time>
</trkpt>
<trkpt lat="45.8470000" lon="9.2942420">
	<ele>595.20</ele>
	<time>2024-03-25T12:51:13.000Z</time>
</trkpt>
<trkpt lat="45.8470040" lon="9.2942290">
	<ele>594.60</ele>
	<time>2024-03-25T12:51:14.000Z</time>
</trkpt>
<trkpt lat="45.8470050" lon="9.2942250">
	<ele>594.40</ele>
	<time>2024-03-25T12:51:15.000Z</time>
</trkpt>
<trkpt lat="45.8470060" lon="9.2942230">
	<ele>594.20</ele>
	<time>2024-03-25T12:51:16.000Z</time>
</trkpt>
<trkpt lat="45.8470060" lon="9.2942190">
	<ele>594.00</ele>
	<time>2024-03-25T12:51:17.000Z</time>
</trkpt>
<trkpt lat="45.8470060" lon="9.2942140">
	<ele>593.80</ele>
	<time>2024-03-25T12:51:18.000Z</time>
</trkpt>
<trkpt lat="45.8470050" lon="9.2941990">
	<ele>593.40</ele>
	<time>2024-03-25T12:51:19.000Z</time>
</trkpt>
<trkpt lat="45.8470020" lon="9.2941810">
	<ele>593.00</ele>
	<time>2024-03-25T12:51:20.000Z</time>
</trkpt>
<trkpt lat="45.8469940" lon="9.2941720">
	<ele>592.80</ele>
	<time>2024-03-25T12:51:21.000Z</time>
</trkpt>
<trkpt lat="45.8469860" lon="9.2941730">
	<ele>592.40</ele>
	<time>2024-03-25T12:51:22.000Z</time>
</trkpt>
<trkpt lat="45.8469810" lon="9.2941720">
	<ele>592.20</ele>
	<time>2024-03-25T12:51:23.000Z</time>
</trkpt>
<trkpt lat="45.8469780" lon="9.2941860">
	<ele>592.00</ele>
	<time>2024-03-25T12:51:24.000Z</time>
</trkpt>
<trkpt lat="45.8469770" lon="9.2941910">
	<ele>591.80</ele>
	<time>2024-03-25T12:51:25.000Z</time>
</trkpt>
<trkpt lat="45.8469730" lon="9.2941840">
	<ele>591.60</ele>
	<time>2024-03-25T12:51:26.000Z</time>
</trkpt>
<trkpt lat="45.8469750" lon="9.2941890">
	<ele>591.40</ele>
	<time>2024-03-25T12:51:27.000Z</time>
</trkpt>
<trkpt lat="45.8469660" lon="9.2941900">
	<ele>591.20</ele>
	<time>2024-03-25T12:51:28.000Z</time>
</trkpt>
<trkpt lat="45.8469600" lon="9.2942020">
	<ele>590.80</ele>
	<time>2024-03-25T12:51:29.000Z</time>
</trkpt>
<trkpt lat="45.8469560" lon="9.2942130">
	<ele>590.60</ele>
	<time>2024-03-25T12:51:30.000Z</time>
</trkpt>
<trkpt lat="45.8469480" lon="9.2942200">
	<ele>590.40</ele>
	<time>2024-03-25T12:51:31.000Z</time>
</trkpt>
<trkpt lat="45.8469480" lon="9.2942270">
	<ele>590.20</ele>
	<time>2024-03-25T12:51:32.000Z</time>
</trkpt>
<trkpt lat="45.8469590" lon="9.2942430">
	<ele>589.80</ele>
	<time>2024-03-25T12:51:33.000Z</time>
</trkpt>
<trkpt lat="45.8469690" lon="9.2942490">
	<ele>589.60</ele>
	<time>2024-03-25T12:51:34.000Z</time>
</trkpt>
<trkpt lat="45.8469780" lon="9.2942540">
	<ele>589.60</ele>
	<time>2024-03-25T12:51:35.000Z</time>
</trkpt>
<trkpt lat="45.8469860" lon="9.2942570">
	<ele>589.40</ele>
	<time>2024-03-25T12:51:36.000Z</time>
</trkpt>
<trkpt lat="45.8469920" lon="9.2942550">
	<ele>589.20</ele>
	<time>2024-03-25T12:51:37.000Z</time>
</trkpt>
<trkpt lat="45.8469980" lon="9.2942490">
	<ele>588.80</ele>
	<time>2024-03-25T12:51:38.000Z</time>
</trkpt>
<trkpt lat="45.8469890" lon="9.2942220">
	<ele>588.60</ele>
	<time>2024-03-25T12:51:39.000Z</time>
</trkpt>
<trkpt lat="45.8469900" lon="9.2942070">
	<ele>588.20</ele>
	<time>2024-03-25T12:51:40.000Z</time>
</trkpt>
<trkpt lat="45.8469970" lon="9.2941980">
	<ele>588.00</ele>
	<time>2024-03-25T12:51:41.000Z</time>
</trkpt>
<trkpt lat="45.8470040" lon="9.2941880">
	<ele>587.80</ele>
	<time>2024-03-25T12:51:42.000Z</time>
</trkpt>
<trkpt lat="45.8470050" lon="9.2941670">
	<ele>587.60</ele>
	<time>2024-03-25T12:51:43.000Z</time>
</trkpt>
<trkpt lat="45.8470050" lon="9.2941540">
	<ele>587.00</ele>
	<time>2024-03-25T12:51:44.000Z</time>
</trkpt>
<trkpt lat="45.8470100" lon="9.2941510">
	<ele>586.80</ele>
	<time>2024-03-25T12:51:45.000Z</time>
</trkpt>
<trkpt lat="45.8470210" lon="9.2941530">
	<ele>586.60</ele>
	<time>2024-03-25T12:51:46.000Z</time>
</trkpt>
<trkpt lat="45.8470260" lon="9.2941510">
	<ele>586.40</ele>
	<time>2024-03-25T12:51:47.000Z</time>
</trkpt>
<trkpt lat="45.8470290" lon="9.2941500">
	<ele>586.40</ele>
	<time>2024-03-25T12:51:48.000Z</time>
</trkpt>
<trkpt lat="45.8470310" lon="9.2941410">
	<ele>586.20</ele>
	<time>2024-03-25T12:51:49.000Z</time>
</trkpt>
<trkpt lat="45.8470310" lon="9.2941340">
	<ele>585.80</ele>
	<time>2024-03-25T12:51:50.000Z</time>
</trkpt>
<trkpt lat="45.8470380" lon="9.2941280">
	<ele>585.60</ele>
	<time>2024-03-25T12:51:51.000Z</time>
</trkpt>
<trkpt lat="45.8470470" lon="9.2941260">
	<ele>585.40</ele>
	<time>2024-03-25T12:51:52.000Z</time>
</trkpt>
<trkpt lat="45.8470530" lon="9.2941230">
	<ele>585.20</ele>
	<time>2024-03-25T12:51:53.000Z</time>
</trkpt>
<trkpt lat="45.8470540" lon="9.2941140">
	<ele>585.00</ele>
	<time>2024-03-25T12:51:54.000Z</time>
</trkpt>
<trkpt lat="45.8470550" lon="9.2941130">
	<ele>584.80</ele>
	<time>2024-03-25T12:51:55.000Z</time>
</trkpt>
<trkpt lat="45.8470530" lon="9.2940980">
	<ele>584.60</ele>
	<time>2024-03-25T12:51:56.000Z</time>
</trkpt>
<trkpt lat="45.8470640" lon="9.2940870">
	<ele>584.40</ele>
	<time>2024-03-25T12:51:57.000Z</time>
</trkpt>
<trkpt lat="45.8470740" lon="9.2940750">
	<ele>584.20</ele>
	<time>2024-03-25T12:51:58.000Z</time>
</trkpt>
<trkpt lat="45.8470760" lon="9.2940610">
	<ele>584.00</ele>
	<time>2024-03-25T12:51:59.000Z</time>
</trkpt>
<trkpt lat="45.8470800" lon="9.2940550">
	<ele>583.80</ele>
	<time>2024-03-25T12:52:00.000Z</time>
</trkpt>
<trkpt lat="45.8470880" lon="9.2940530">
	<ele>583.40</ele>
	<time>2024-03-25T12:52:01.000Z</time>
</trkpt>
<trkpt lat="45.8470970" lon="9.2940510">
	<ele>583.20</ele>
	<time>2024-03-25T12:52:02.000Z</time>
</trkpt>
<trkpt lat="45.8471010" lon="9.2940480">
	<ele>583.00</ele>
	<time>2024-03-25T12:52:03.000Z</time>
</trkpt>
<trkpt lat="45.8471110" lon="9.2940480">
	<ele>583.00</ele>
	<time>2024-03-25T12:52:04.000Z</time>
</trkpt>
<trkpt lat="45.8471210" lon="9.2940470">
	<ele>582.80</ele>
	<time>2024-03-25T12:52:05.000Z</time>
</trkpt>
<trkpt lat="45.8471380" lon="9.2940510">
	<ele>582.60</ele>
	<time>2024-03-25T12:52:06.000Z</time>
</trkpt>
<trkpt lat="45.8471410" lon="9.2940470">
	<ele>582.20</ele>
	<time>2024-03-25T12:52:07.000Z</time>
</trkpt>
<trkpt lat="45.8471360" lon="9.2940390">
	<ele>582.00</ele>
	<time>2024-03-25T12:52:08.000Z</time>
</trkpt>
<trkpt lat="45.8471410" lon="9.2940390">
	<ele>581.80</ele>
	<time>2024-03-25T12:52:09.000Z</time>
</trkpt>
<trkpt lat="45.8471430" lon="9.2940360">
	<ele>581.80</ele>
	<time>2024-03-25T12:52:10.000Z</time>
</trkpt>
<trkpt lat="45.8471480" lon="9.2940350">
	<ele>581.60</ele>
	<time>2024-03-25T12:52:11.000Z</time>
</trkpt>
<trkpt lat="45.8471590" lon="9.2940380">
	<ele>581.40</ele>
	<time>2024-03-25T12:52:12.000Z</time>
</trkpt>
<trkpt lat="45.8471700" lon="9.2940390">
	<ele>581.20</ele>
	<time>2024-03-25T12:52:13.000Z</time>
</trkpt>
<trkpt lat="45.8471770" lon="9.2940420">
	<ele>580.80</ele>
	<time>2024-03-25T12:52:14.000Z</time>
</trkpt>
<trkpt lat="45.8471780" lon="9.2940390">
	<ele>580.40</ele>
	<time>2024-03-25T12:52:15.000Z</time>
</trkpt>
<trkpt lat="45.8471780" lon="9.2940350">
	<ele>580.20</ele>
	<time>2024-03-25T12:52:16.000Z</time>
</trkpt>
<trkpt lat="45.8471910" lon="9.2940370">
	<ele>580.00</ele>
	<time>2024-03-25T12:52:17.000Z</time>
</trkpt>
<trkpt lat="45.8471940" lon="9.2940320">
	<ele>579.80</ele>
	<time>2024-03-25T12:52:18.000Z</time>
</trkpt>
<trkpt lat="45.8471910" lon="9.2940360">
	<ele>579.60</ele>
	<time>2024-03-25T12:52:19.000Z</time>
</trkpt>
<trkpt lat="45.8471940" lon="9.2940300">
	<ele>579.40</ele>
	<time>2024-03-25T12:52:20.000Z</time>
</trkpt>
<trkpt lat="45.8471940" lon="9.2940180">
	<ele>579.20</ele>
	<time>2024-03-25T12:52:21.000Z</time>
</trkpt>
<trkpt lat="45.8471980" lon="9.2940120">
	<ele>578.80</ele>
	<time>2024-03-25T12:52:22.000Z</time>
</trkpt>
<trkpt lat="45.8472040" lon="9.2940040">
	<ele>578.60</ele>
	<time>2024-03-25T12:52:23.000Z</time>
</trkpt>
<trkpt lat="45.8471990" lon="9.2939970">
	<ele>578.40</ele>
	<time>2024-03-25T12:52:24.000Z</time>
</trkpt>
<trkpt lat="45.8472020" lon="9.2940040">
	<ele>578.20</ele>
	<time>2024-03-25T12:52:25.000Z</time>
</trkpt>
<trkpt lat="45.8472030" lon="9.2939960">
	<ele>578.20</ele>
	<time>2024-03-25T12:52:26.000Z</time>
</trkpt>
<trkpt lat="45.8472010" lon="9.2939950">
	<ele>578.00</ele>
	<time>2024-03-25T12:52:27.000Z</time>
</trkpt>
<trkpt lat="45.8471990" lon="9.2939940">
	<ele>578.00</ele>
	<time>2024-03-25T12:52:28.000Z</time>
</trkpt>
<trkpt lat="45.8471970" lon="9.2939920">
	<ele>578.00</ele>
	<time>2024-03-25T12:52:29.000Z</time>
</trkpt>
<trkpt lat="45.8472030" lon="9.2940040">
	<ele>578.00</ele>
	<time>2024-03-25T12:52:30.000Z</time>
</trkpt>
<trkpt lat="45.8472040" lon="9.2940160">
	<ele>578.00</ele>
	<time>2024-03-25T12:52:31.000Z</time>
</trkpt>
<trkpt lat="45.8472030" lon="9.2940190">
	<ele>578.00</ele>
	<time>2024-03-25T12:52:32.000Z</time>
</trkpt>
<trkpt lat="45.8471950" lon="9.2940100">
	<ele>578.00</ele>
	<time>2024-03-25T12:52:33.000Z</time>
</trkpt>
<trkpt lat="45.8471890" lon="9.2940010">
	<ele>578.00</ele>
	<time>2024-03-25T12:52:34.000Z</time>
</trkpt>
<trkpt lat="45.8471820" lon="9.2939930">
	<ele>578.00</ele>
	<time>2024-03-25T12:52:35.000Z</time>
</trkpt>
<trkpt lat="45.8471820" lon="9.2940000">
	<ele>578.00</ele>
	<time>2024-03-25T12:52:36.000Z</time>
</trkpt>
<trkpt lat="45.8471840" lon="9.2940090">
	<ele>578.20</ele>
	<time>2024-03-25T12:52:37.000Z</time>
</trkpt>
<trkpt lat="45.8471950" lon="9.2940300">
	<ele>578.20</ele>
	<time>2024-03-25T12:52:38.000Z</time>
</trkpt>
<trkpt lat="45.8471990" lon="9.2940290">
	<ele>578.20</ele>
	<time>2024-03-25T12:52:39.000Z</time>
</trkpt>
<trkpt lat="45.8472040" lon="9.2940310">
	<ele>578.20</ele>
	<time>2024-03-25T12:52:40.000Z</time>
</trkpt>
<trkpt lat="45.8472000" lon="9.2940300">
	<ele>578.20</ele>
	<time>2024-03-25T12:52:41.000Z</time>
</trkpt>
<trkpt lat="45.8471970" lon="9.2940310">
	<ele>578.20</ele>
	<time>2024-03-25T12:52:42.000Z</time>
</trkpt>
<trkpt lat="45.8471950" lon="9.2940300">
	<ele>578.20</ele>
	<time>2024-03-25T12:52:43.000Z</time>
</trkpt>
<trkpt lat="45.8471920" lon="9.2940270">
	<ele>578.20</ele>
	<time>2024-03-25T12:52:44.000Z</time>
</trkpt>
<trkpt lat="45.8471920" lon="9.2940270">
	<ele>578.20</ele>
	<time>2024-03-25T12:52:45.000Z</time>
</trkpt>
<trkpt lat="45.8471920" lon="9.2940270">
	<ele>578.20</ele>
	<time>2024-03-25T12:52:46.000Z</time>
</trkpt>
<trkpt lat="45.8471940" lon="9.2940310">
	<ele>578.20</ele>
	<time>2024-03-25T12:52:47.000Z</time>
</trkpt>
<trkpt lat="45.8472080" lon="9.2940410">
	<ele>578.00</ele>
	<time>2024-03-25T12:52:48.000Z</time>
</trkpt>
<trkpt lat="45.8472150" lon="9.2940420">
	<ele>578.00</ele>
	<time>2024-03-25T12:52:49.000Z</time>
</trkpt>
<trkpt lat="45.8472200" lon="9.2940320">
	<ele>578.00</ele>
	<time>2024-03-25T12:52:50.000Z</time>
</trkpt>
<trkpt lat="45.8472250" lon="9.2940110">
	<ele>577.80</ele>
	<time>2024-03-25T12:52:51.000Z</time>
</trkpt>
<trkpt lat="45.8472310" lon="9.2939940">
	<ele>577.80</ele>
	<time>2024-03-25T12:52:52.000Z</time>
</trkpt>
<trkpt lat="45.8472400" lon="9.2939870">
	<ele>577.40</ele>
	<time>2024-03-25T12:52:53.000Z</time>
</trkpt>
<trkpt lat="45.8472490" lon="9.2939800">
	<ele>577.20</ele>
	<time>2024-03-25T12:52:54.000Z</time>
</trkpt>
<trkpt lat="45.8472560" lon="9.2939760">
	<ele>577.00</ele>
	<time>2024-03-25T12:52:55.000Z</time>
</trkpt>
<trkpt lat="45.8472630" lon="9.2939720">
	<ele>576.80</ele>
	<time>2024-03-25T12:52:56.000Z</time>
</trkpt>
<trkpt lat="45.8472680" lon="9.2939570">
	<ele>576.60</ele>
	<time>2024-03-25T12:52:57.000Z</time>
</trkpt>
<trkpt lat="45.8472750" lon="9.2939450">
	<ele>576.40</ele>
	<time>2024-03-25T12:52:58.000Z</time>
</trkpt>
<trkpt lat="45.8472790" lon="9.2939310">
	<ele>576.20</ele>
	<time>2024-03-25T12:52:59.000Z</time>
</trkpt>
<trkpt lat="45.8472830" lon="9.2939230">
	<ele>576.20</ele>
	<time>2024-03-25T12:53:00.000Z</time>
</trkpt>
<trkpt lat="45.8472870" lon="9.2939170">
	<ele>576.00</ele>
	<time>2024-03-25T12:53:01.000Z</time>
</trkpt>
<trkpt lat="45.8472950" lon="9.2939100">
	<ele>575.60</ele>
	<time>2024-03-25T12:53:02.000Z</time>
</trkpt>
<trkpt lat="45.8473050" lon="9.2938950">
	<ele>575.20</ele>
	<time>2024-03-25T12:53:03.000Z</time>
</trkpt>
<trkpt lat="45.8473160" lon="9.2938750">
	<ele>575.00</ele>
	<time>2024-03-25T12:53:04.000Z</time>
</trkpt>
<trkpt lat="45.8473330" lon="9.2938620">
	<ele>574.80</ele>
	<time>2024-03-25T12:53:05.000Z</time>
</trkpt>
<trkpt lat="45.8473420" lon="9.2938550">
	<ele>574.60</ele>
	<time>2024-03-25T12:53:06.000Z</time>
</trkpt>
<trkpt lat="45.8473540" lon="9.2938480">
	<ele>574.40</ele>
	<time>2024-03-25T12:53:07.000Z</time>
</trkpt>
<trkpt lat="45.8473640" lon="9.2938350">
	<ele>574.20</ele>
	<time>2024-03-25T12:53:08.000Z</time>
</trkpt>
<trkpt lat="45.8473740" lon="9.2938200">
	<ele>574.00</ele>
	<time>2024-03-25T12:53:09.000Z</time>
</trkpt>
<trkpt lat="45.8473860" lon="9.2938070">
	<ele>573.60</ele>
	<time>2024-03-25T12:53:10.000Z</time>
</trkpt>
<trkpt lat="45.8473930" lon="9.2938010">
	<ele>573.20</ele>
	<time>2024-03-25T12:53:11.000Z</time>
</trkpt>
<trkpt lat="45.8474020" lon="9.2937880">
	<ele>572.80</ele>
	<time>2024-03-25T12:53:12.000Z</time>
</trkpt>
<trkpt lat="45.8474120" lon="9.2937790">
	<ele>572.60</ele>
	<time>2024-03-25T12:53:13.000Z</time>
</trkpt>
<trkpt lat="45.8474220" lon="9.2937760">
	<ele>572.20</ele>
	<time>2024-03-25T12:53:14.000Z</time>
</trkpt>
<trkpt lat="45.8474350" lon="9.2937780">
	<ele>572.00</ele>
	<time>2024-03-25T12:53:15.000Z</time>
</trkpt>
<trkpt lat="45.8474420" lon="9.2937710">
	<ele>571.60</ele>
	<time>2024-03-25T12:53:16.000Z</time>
</trkpt>
<trkpt lat="45.8474480" lon="9.2937680">
	<ele>571.40</ele>
	<time>2024-03-25T12:53:17.000Z</time>
</trkpt>
<trkpt lat="45.8474540" lon="9.2937590">
	<ele>571.20</ele>
	<time>2024-03-25T12:53:18.000Z</time>
</trkpt>
<trkpt lat="45.8474590" lon="9.2937480">
	<ele>571.00</ele>
	<time>2024-03-25T12:53:19.000Z</time>
</trkpt>
<trkpt lat="45.8474690" lon="9.2937400">
	<ele>570.80</ele>
	<time>2024-03-25T12:53:20.000Z</time>
</trkpt>
<trkpt lat="45.8474690" lon="9.2937350">
	<ele>570.60</ele>
	<time>2024-03-25T12:53:21.000Z</time>
</trkpt>
<trkpt lat="45.8474750" lon="9.2937240">
	<ele>570.60</ele>
	<time>2024-03-25T12:53:22.000Z</time>
</trkpt>
<trkpt lat="45.8474830" lon="9.2937070">
	<ele>570.20</ele>
	<time>2024-03-25T12:53:23.000Z</time>
</trkpt>
<trkpt lat="45.8474920" lon="9.2937000">
	<ele>570.00</ele>
	<time>2024-03-25T12:53:24.000Z</time>
</trkpt>
<trkpt lat="45.8475030" lon="9.2937030">
	<ele>569.80</ele>
	<time>2024-03-25T12:53:25.000Z</time>
</trkpt>
<trkpt lat="45.8475140" lon="9.2937060">
	<ele>569.60</ele>
	<time>2024-03-25T12:53:26.000Z</time>
</trkpt>
<trkpt lat="45.8475200" lon="9.2936990">
	<ele>569.40</ele>
	<time>2024-03-25T12:53:27.000Z</time>
</trkpt>
<trkpt lat="45.8475230" lon="9.2936940">
	<ele>569.20</ele>
	<time>2024-03-25T12:53:28.000Z</time>
</trkpt>
<trkpt lat="45.8475270" lon="9.2936840">
	<ele>569.00</ele>
	<time>2024-03-25T12:53:29.000Z</time>
</trkpt>
<trkpt lat="45.8475300" lon="9.2936680">
	<ele>568.80</ele>
	<time>2024-03-25T12:53:30.000Z</time>
</trkpt>
<trkpt lat="45.8475320" lon="9.2936450">
	<ele>568.60</ele>
	<time>2024-03-25T12:53:31.000Z</time>
</trkpt>
<trkpt lat="45.8475390" lon="9.2936290">
	<ele>568.20</ele>
	<time>2024-03-25T12:53:32.000Z</time>
</trkpt>
<trkpt lat="45.8475470" lon="9.2936210">
	<ele>568.00</ele>
	<time>2024-03-25T12:53:33.000Z</time>
</trkpt>
<trkpt lat="45.8475520" lon="9.2936160">
	<ele>568.00</ele>
	<time>2024-03-25T12:53:34.000Z</time>
</trkpt>
<trkpt lat="45.8475560" lon="9.2936110">
	<ele>567.60</ele>
	<time>2024-03-25T12:53:35.000Z</time>
</trkpt>
<trkpt lat="45.8475640" lon="9.2936030">
	<ele>567.40</ele>
	<time>2024-03-25T12:53:36.000Z</time>
</trkpt>
<trkpt lat="45.8475700" lon="9.2935920">
	<ele>567.00</ele>
	<time>2024-03-25T12:53:37.000Z</time>
</trkpt>
<trkpt lat="45.8475750" lon="9.2935740">
	<ele>566.60</ele>
	<time>2024-03-25T12:53:38.000Z</time>
</trkpt>
<trkpt lat="45.8475790" lon="9.2935580">
	<ele>566.40</ele>
	<time>2024-03-25T12:53:39.000Z</time>
</trkpt>
<trkpt lat="45.8475820" lon="9.2935440">
	<ele>566.00</ele>
	<time>2024-03-25T12:53:40.000Z</time>
</trkpt>
<trkpt lat="45.8475840" lon="9.2935310">
	<ele>565.80</ele>
	<time>2024-03-25T12:53:41.000Z</time>
</trkpt>
<trkpt lat="45.8475880" lon="9.2935200">
	<ele>565.60</ele>
	<time>2024-03-25T12:53:42.000Z</time>
</trkpt>
<trkpt lat="45.8475940" lon="9.2935110">
	<ele>565.40</ele>
	<time>2024-03-25T12:53:43.000Z</time>
</trkpt>
<trkpt lat="45.8476020" lon="9.2935060">
	<ele>565.20</ele>
	<time>2024-03-25T12:53:44.000Z</time>
</trkpt>
<trkpt lat="45.8476080" lon="9.2935020">
	<ele>565.00</ele>
	<time>2024-03-25T12:53:45.000Z</time>
</trkpt>
<trkpt lat="45.8476110" lon="9.2934920">
	<ele>564.80</ele>
	<time>2024-03-25T12:53:46.000Z</time>
</trkpt>
<trkpt lat="45.8476210" lon="9.2934770">
	<ele>564.60</ele>
	<time>2024-03-25T12:53:47.000Z</time>
</trkpt>
<trkpt lat="45.8476330" lon="9.2934670">
	<ele>564.00</ele>
	<time>2024-03-25T12:53:48.000Z</time>
</trkpt>
<trkpt lat="45.8476490" lon="9.2934570">
	<ele>563.80</ele>
	<time>2024-03-25T12:53:49.000Z</time>
</trkpt>
<trkpt lat="45.8476650" lon="9.2934530">
	<ele>563.60</ele>
	<time>2024-03-25T12:53:50.000Z</time>
</trkpt>
<trkpt lat="45.8476790" lon="9.2934460">
	<ele>563.40</ele>
	<time>2024-03-25T12:53:51.000Z</time>
</trkpt>
<trkpt lat="45.8476880" lon="9.2934380">
	<ele>563.20</ele>
	<time>2024-03-25T12:53:52.000Z</time>
</trkpt>
<trkpt lat="45.8476930" lon="9.2934290">
	<ele>563.00</ele>
	<time>2024-03-25T12:53:53.000Z</time>
</trkpt>
<trkpt lat="45.8476970" lon="9.2934220">
	<ele>562.80</ele>
	<time>2024-03-25T12:53:54.000Z</time>
</trkpt>
<trkpt lat="45.8477010" lon="9.2934160">
	<ele>562.60</ele>
	<time>2024-03-25T12:53:55.000Z</time>
</trkpt>
<trkpt lat="45.8477050" lon="9.2934040">
	<ele>562.40</ele>
	<time>2024-03-25T12:53:56.000Z</time>
</trkpt>
<trkpt lat="45.8477150" lon="9.2934020">
	<ele>562.20</ele>
	<time>2024-03-25T12:53:57.000Z</time>
</trkpt>
<trkpt lat="45.8477280" lon="9.2934040">
	<ele>562.00</ele>
	<time>2024-03-25T12:53:58.000Z</time>
</trkpt>
<trkpt lat="45.8477310" lon="9.2934010">
	<ele>561.60</ele>
	<time>2024-03-25T12:53:59.000Z</time>
</trkpt>
<trkpt lat="45.8477360" lon="9.2934070">
	<ele>561.40</ele>
	<time>2024-03-25T12:54:00.000Z</time>
</trkpt>
<trkpt lat="45.8477400" lon="9.2934170">
	<ele>561.00</ele>
	<time>2024-03-25T12:54:01.000Z</time>
</trkpt>
<trkpt lat="45.8477450" lon="9.2934190">
	<ele>560.80</ele>
	<time>2024-03-25T12:54:02.000Z</time>
</trkpt>
<trkpt lat="45.8477550" lon="9.2934250">
	<ele>560.60</ele>
	<time>2024-03-25T12:54:03.000Z</time>
</trkpt>
<trkpt lat="45.8477640" lon="9.2934220">
	<ele>560.40</ele>
	<time>2024-03-25T12:54:04.000Z</time>
</trkpt>
<trkpt lat="45.8477710" lon="9.2934140">
	<ele>560.20</ele>
	<time>2024-03-25T12:54:05.000Z</time>
</trkpt>
<trkpt lat="45.8477770" lon="9.2934050">
	<ele>560.00</ele>
	<time>2024-03-25T12:54:06.000Z</time>
</trkpt>
<trkpt lat="45.8477890" lon="9.2934030">
	<ele>559.80</ele>
	<time>2024-03-25T12:54:07.000Z</time>
</trkpt>
<trkpt lat="45.8477970" lon="9.2933950">
	<ele>559.60</ele>
	<time>2024-03-25T12:54:08.000Z</time>
</trkpt>
<trkpt lat="45.8478010" lon="9.2933920">
	<ele>559.40</ele>
	<time>2024-03-25T12:54:09.000Z</time>
</trkpt>
<trkpt lat="45.8478030" lon="9.2933890">
	<ele>559.20</ele>
	<time>2024-03-25T12:54:10.000Z</time>
</trkpt>
<trkpt lat="45.8478050" lon="9.2933850">
	<ele>559.00</ele>
	<time>2024-03-25T12:54:11.000Z</time>
</trkpt>
<trkpt lat="45.8478120" lon="9.2933740">
	<ele>559.00</ele>
	<time>2024-03-25T12:54:12.000Z</time>
</trkpt>
<trkpt lat="45.8478190" lon="9.2933650">
	<ele>558.80</ele>
	<time>2024-03-25T12:54:13.000Z</time>
</trkpt>
<trkpt lat="45.8478230" lon="9.2933550">
	<ele>558.80</ele>
	<time>2024-03-25T12:54:14.000Z</time>
</trkpt>
<trkpt lat="45.8478320" lon="9.2933400">
	<ele>558.60</ele>
	<time>2024-03-25T12:54:15.000Z</time>
</trkpt>
<trkpt lat="45.8478410" lon="9.2933250">
	<ele>558.40</ele>
	<time>2024-03-25T12:54:16.000Z</time>
</trkpt>
<trkpt lat="45.8478450" lon="9.2933140">
	<ele>558.00</ele>
	<time>2024-03-25T12:54:17.000Z</time>
</trkpt>
<trkpt lat="45.8478500" lon="9.2933040">
	<ele>557.60</ele>
	<time>2024-03-25T12:54:18.000Z</time>
</trkpt>
<trkpt lat="45.8478570" lon="9.2932950">
	<ele>557.40</ele>
	<time>2024-03-25T12:54:19.000Z</time>
</trkpt>
<trkpt lat="45.8478620" lon="9.2932940">
	<ele>557.20</ele>
	<time>2024-03-25T12:54:20.000Z</time>
</trkpt>
<trkpt lat="45.8478630" lon="9.2932970">
	<ele>557.20</ele>
	<time>2024-03-25T12:54:21.000Z</time>
</trkpt>
<trkpt lat="45.8478650" lon="9.2933030">
	<ele>556.80</ele>
	<time>2024-03-25T12:54:22.000Z</time>
</trkpt>
<trkpt lat="45.8478660" lon="9.2933070">
	<ele>556.60</ele>
	<time>2024-03-25T12:54:23.000Z</time>
</trkpt>
<trkpt lat="45.8478740" lon="9.2933100">
	<ele>556.60</ele>
	<time>2024-03-25T12:54:24.000Z</time>
</trkpt>
<trkpt lat="45.8478830" lon="9.2933100">
	<ele>556.20</ele>
	<time>2024-03-25T12:54:25.000Z</time>
</trkpt>
<trkpt lat="45.8478950" lon="9.2933110">
	<ele>555.80</ele>
	<time>2024-03-25T12:54:26.000Z</time>
</trkpt>
<trkpt lat="45.8478990" lon="9.2933110">
	<ele>555.60</ele>
	<time>2024-03-25T12:54:27.000Z</time>
</trkpt>
<trkpt lat="45.8478980" lon="9.2933110">
	<ele>555.20</ele>
	<time>2024-03-25T12:54:28.000Z</time>
</trkpt>
<trkpt lat="45.8478980" lon="9.2933120">
	<ele>555.20</ele>
	<time>2024-03-25T12:54:29.000Z</time>
</trkpt>
<trkpt lat="45.8479080" lon="9.2933120">
	<ele>555.00</ele>
	<time>2024-03-25T12:54:30.000Z</time>
</trkpt>
<trkpt lat="45.8479200" lon="9.2933120">
	<ele>555.00</ele>
	<time>2024-03-25T12:54:31.000Z</time>
</trkpt>
<trkpt lat="45.8479290" lon="9.2933140">
	<ele>554.80</ele>
	<time>2024-03-25T12:54:32.000Z</time>
</trkpt>
<trkpt lat="45.8479380" lon="9.2933120">
	<ele>554.60</ele>
	<time>2024-03-25T12:54:33.000Z</time>
</trkpt>
<trkpt lat="45.8479480" lon="9.2933040">
	<ele>554.60</ele>
	<time>2024-03-25T12:54:34.000Z</time>
</trkpt>
<trkpt lat="45.8479540" lon="9.2932990">
	<ele>554.40</ele>
	<time>2024-03-25T12:54:35.000Z</time>
</trkpt>
<trkpt lat="45.8479590" lon="9.2932940">
	<ele>554.20</ele>
	<time>2024-03-25T12:54:36.000Z</time>
</trkpt>
<trkpt lat="45.8479640" lon="9.2932900">
	<ele>554.00</ele>
	<time>2024-03-25T12:54:37.000Z</time>
</trkpt>
<trkpt lat="45.8479710" lon="9.2932790">
	<ele>553.80</ele>
	<time>2024-03-25T12:54:38.000Z</time>
</trkpt>
<trkpt lat="45.8479780" lon="9.2932670">
	<ele>553.60</ele>
	<time>2024-03-25T12:54:39.000Z</time>
</trkpt>
<trkpt lat="45.8479820" lon="9.2932560">
	<ele>553.40</ele>
	<time>2024-03-25T12:54:40.000Z</time>
</trkpt>
<trkpt lat="45.8479850" lon="9.2932500">
	<ele>553.20</ele>
	<time>2024-03-25T12:54:41.000Z</time>
</trkpt>
<trkpt lat="45.8479870" lon="9.2932440">
	<ele>553.00</ele>
	<time>2024-03-25T12:54:42.000Z</time>
</trkpt>
<trkpt lat="45.8479880" lon="9.2932360">
	<ele>552.80</ele>
	<time>2024-03-25T12:54:43.000Z</time>
</trkpt>
<trkpt lat="45.8479890" lon="9.2932160">
	<ele>552.40</ele>
	<time>2024-03-25T12:54:44.000Z</time>
</trkpt>
<trkpt lat="45.8479920" lon="9.2931880">
	<ele>552.20</ele>
	<time>2024-03-25T12:54:45.000Z</time>
</trkpt>
<trkpt lat="45.8480090" lon="9.2931650">
	<ele>551.80</ele>
	<time>2024-03-25T12:54:46.000Z</time>
</trkpt>
<trkpt lat="45.8480210" lon="9.2931530">
	<ele>551.60</ele>
	<time>2024-03-25T12:54:47.000Z</time>
</trkpt>
<trkpt lat="45.8480210" lon="9.2931400">
	<ele>551.40</ele>
	<time>2024-03-25T12:54:48.000Z</time>
</trkpt>
<trkpt lat="45.8480200" lon="9.2931340">
	<ele>551.00</ele>
	<time>2024-03-25T12:54:49.000Z</time>
</trkpt>
<trkpt lat="45.8480170" lon="9.2931330">
	<ele>550.80</ele>
	<time>2024-03-25T12:54:50.000Z</time>
</trkpt>
<trkpt lat="45.8480190" lon="9.2931330">
	<ele>550.80</ele>
	<time>2024-03-25T12:54:51.000Z</time>
</trkpt>
<trkpt lat="45.8480190" lon="9.2931320">
	<ele>550.60</ele>
	<time>2024-03-25T12:54:52.000Z</time>
</trkpt>
<trkpt lat="45.8480240" lon="9.2931220">
	<ele>550.60</ele>
	<time>2024-03-25T12:54:53.000Z</time>
</trkpt>
<trkpt lat="45.8480250" lon="9.2931180">
	<ele>550.40</ele>
	<time>2024-03-25T12:54:54.000Z</time>
</trkpt>
<trkpt lat="45.8480280" lon="9.2931150">
	<ele>550.20</ele>
	<time>2024-03-25T12:54:55.000Z</time>
</trkpt>
<trkpt lat="45.8480380" lon="9.2931110">
	<ele>549.80</ele>
	<time>2024-03-25T12:54:56.000Z</time>
</trkpt>
<trkpt lat="45.8480550" lon="9.2931050">
	<ele>549.40</ele>
	<time>2024-03-25T12:54:57.000Z</time>
</trkpt>
<trkpt lat="45.8480670" lon="9.2931030">
	<ele>549.00</ele>
	<time>2024-03-25T12:54:58.000Z</time>
</trkpt>
<trkpt lat="45.8480770" lon="9.2930990">
	<ele>548.80</ele>
	<time>2024-03-25T12:54:59.000Z</time>
</trkpt>
<trkpt lat="45.8480840" lon="9.2930940">
	<ele>548.60</ele>
	<time>2024-03-25T12:55:00.000Z</time>
</trkpt>
<trkpt lat="45.8480890" lon="9.2930910">
	<ele>548.20</ele>
	<time>2024-03-25T12:55:01.000Z</time>
</trkpt>
<trkpt lat="45.8480930" lon="9.2930890">
	<ele>548.00</ele>
	<time>2024-03-25T12:55:02.000Z</time>
</trkpt>
<trkpt lat="45.8480920" lon="9.2930840">
	<ele>547.80</ele>
	<time>2024-03-25T12:55:03.000Z</time>
</trkpt>
<trkpt lat="45.8480940" lon="9.2930770">
	<ele>547.80</ele>
	<time>2024-03-25T12:55:04.000Z</time>
</trkpt>
<trkpt lat="45.8480990" lon="9.2930710">
	<ele>547.60</ele>
	<time>2024-03-25T12:55:05.000Z</time>
</trkpt>
<trkpt lat="45.8481070" lon="9.2930680">
	<ele>547.40</ele>
	<time>2024-03-25T12:55:06.000Z</time>
</trkpt>
<trkpt lat="45.8481130" lon="9.2930630">
	<ele>547.20</ele>
	<time>2024-03-25T12:55:07.000Z</time>
</trkpt>
<trkpt lat="45.8481190" lon="9.2930560">
	<ele>547.00</ele>
	<time>2024-03-25T12:55:08.000Z</time>
</trkpt>
<trkpt lat="45.8481190" lon="9.2930560">
	<ele>547.00</ele>
	<time>2024-03-25T12:55:09.000Z</time>
</trkpt>
<trkpt lat="45.8481360" lon="9.2930400">
	<ele>546.60</ele>
	<time>2024-03-25T12:55:10.000Z</time>
</trkpt>
<trkpt lat="45.8481420" lon="9.2930320">
	<ele>546.40</ele>
	<time>2024-03-25T12:55:11.000Z</time>
</trkpt>
<trkpt lat="45.8481470" lon="9.2930220">
	<ele>546.20</ele>
	<time>2024-03-25T12:55:12.000Z</time>
</trkpt>
<trkpt lat="45.8481490" lon="9.2930130">
	<ele>546.00</ele>
	<time>2024-03-25T12:55:13.000Z</time>
</trkpt>
<trkpt lat="45.8481540" lon="9.2930050">
	<ele>546.00</ele>
	<time>2024-03-25T12:55:14.000Z</time>
</trkpt>
<trkpt lat="45.8481560" lon="9.2929990">
	<ele>545.80</ele>
	<time>2024-03-25T12:55:15.000Z</time>
</trkpt>
<trkpt lat="45.8481630" lon="9.2929910">
	<ele>545.80</ele>
	<time>2024-03-25T12:55:16.000Z</time>
</trkpt>
<trkpt lat="45.8481730" lon="9.2929820">
	<ele>545.40</ele>
	<time>2024-03-25T12:55:17.000Z</time>
</trkpt>
<trkpt lat="45.8481820" lon="9.2929730">
	<ele>545.20</ele>
	<time>2024-03-25T12:55:18.000Z</time>
</trkpt>
<trkpt lat="45.8481890" lon="9.2929610">
	<ele>544.80</ele>
	<time>2024-03-25T12:55:19.000Z</time>
</trkpt>
<trkpt lat="45.8481910" lon="9.2929500">
	<ele>544.60</ele>
	<time>2024-03-25T12:55:20.000Z</time>
</trkpt>
<trkpt lat="45.8481940" lon="9.2929400">
	<ele>544.40</ele>
	<time>2024-03-25T12:55:21.000Z</time>
</trkpt>
<trkpt lat="45.8481990" lon="9.2929260">
	<ele>544.40</ele>
	<time>2024-03-25T12:55:22.000Z</time>
</trkpt>
<trkpt lat="45.8482030" lon="9.2929130">
	<ele>544.20</ele>
	<time>2024-03-25T12:55:23.000Z</time>
</trkpt>
<trkpt lat="45.8482050" lon="9.2928990">
	<ele>544.20</ele>
	<time>2024-03-25T12:55:24.000Z</time>
</trkpt>
<trkpt lat="45.8482060" lon="9.2928910">
	<ele>543.80</ele>
	<time>2024-03-25T12:55:25.000Z</time>
</trkpt>
<trkpt lat="45.8482060" lon="9.2928850">
	<ele>543.80</ele>
	<time>2024-03-25T12:55:26.000Z</time>
</trkpt>
<trkpt lat="45.8482100" lon="9.2928750">
	<ele>543.40</ele>
	<time>2024-03-25T12:55:27.000Z</time>
</trkpt>
<trkpt lat="45.8482150" lon="9.2928690">
	<ele>543.40</ele>
	<time>2024-03-25T12:55:28.000Z</time>
</trkpt>
<trkpt lat="45.8482210" lon="9.2928600">
	<ele>543.20</ele>
	<time>2024-03-25T12:55:29.000Z</time>
</trkpt>
<trkpt lat="45.8482230" lon="9.2928520">
	<ele>542.80</ele>
	<time>2024-03-25T12:55:30.000Z</time>
</trkpt>
<trkpt lat="45.8482230" lon="9.2928450">
	<ele>542.40</ele>
	<time>2024-03-25T12:55:31.000Z</time>
</trkpt>
<trkpt lat="45.8482160" lon="9.2928370">
	<ele>542.00</ele>
	<time>2024-03-25T12:55:32.000Z</time>
</trkpt>
<trkpt lat="45.8482160" lon="9.2928350">
	<ele>541.80</ele>
	<time>2024-03-25T12:55:33.000Z</time>
</trkpt>
<trkpt lat="45.8482180" lon="9.2928350">
	<ele>541.40</ele>
	<time>2024-03-25T12:55:34.000Z</time>
</trkpt>
<trkpt lat="45.8482230" lon="9.2928360">
	<ele>541.20</ele>
	<time>2024-03-25T12:55:35.000Z</time>
</trkpt>
<trkpt lat="45.8482250" lon="9.2928380">
	<ele>541.20</ele>
	<time>2024-03-25T12:55:36.000Z</time>
</trkpt>
<trkpt lat="45.8482260" lon="9.2928410">
	<ele>540.80</ele>
	<time>2024-03-25T12:55:37.000Z</time>
</trkpt>
<trkpt lat="45.8482290" lon="9.2928440">
	<ele>540.40</ele>
	<time>2024-03-25T12:55:38.000Z</time>
</trkpt>
<trkpt lat="45.8482310" lon="9.2928450">
	<ele>540.00</ele>
	<time>2024-03-25T12:55:39.000Z</time>
</trkpt>
<trkpt lat="45.8482430" lon="9.2928490">
	<ele>539.80</ele>
	<time>2024-03-25T12:55:40.000Z</time>
</trkpt>
<trkpt lat="45.8482480" lon="9.2928470">
	<ele>539.60</ele>
	<time>2024-03-25T12:55:41.000Z</time>
</trkpt>
<trkpt lat="45.8482500" lon="9.2928440">
	<ele>539.40</ele>
	<time>2024-03-25T12:55:42.000Z</time>
</trkpt>
<trkpt lat="45.8482500" lon="9.2928420">
	<ele>539.20</ele>
	<time>2024-03-25T12:55:43.000Z</time>
</trkpt>
<trkpt lat="45.8482620" lon="9.2928350">
	<ele>539.20</ele>
	<time>2024-03-25T12:55:44.000Z</time>
</trkpt>
<trkpt lat="45.8482640" lon="9.2928300">
	<ele>539.00</ele>
	<time>2024-03-25T12:55:45.000Z</time>
</trkpt>
<trkpt lat="45.8482730" lon="9.2928310">
	<ele>539.00</ele>
	<time>2024-03-25T12:55:46.000Z</time>
</trkpt>
<trkpt lat="45.8482710" lon="9.2928350">
	<ele>538.80</ele>
	<time>2024-03-25T12:55:47.000Z</time>
</trkpt>
<trkpt lat="45.8482680" lon="9.2928360">
	<ele>538.80</ele>
	<time>2024-03-25T12:55:48.000Z</time>
</trkpt>
<trkpt lat="45.8482660" lon="9.2928380">
	<ele>538.80</ele>
	<time>2024-03-25T12:55:49.000Z</time>
</trkpt>
<trkpt lat="45.8482670" lon="9.2928360">
	<ele>538.80</ele>
	<time>2024-03-25T12:55:50.000Z</time>
</trkpt>
<trkpt lat="45.8482670" lon="9.2928340">
	<ele>538.80</ele>
	<time>2024-03-25T12:55:51.000Z</time>
</trkpt>
<trkpt lat="45.8482670" lon="9.2928330">
	<ele>538.80</ele>
	<time>2024-03-25T12:55:52.000Z</time>
</trkpt>
<trkpt lat="45.8482680" lon="9.2928320">
	<ele>538.80</ele>
	<time>2024-03-25T12:55:53.000Z</time>
</trkpt>
<trkpt lat="45.8482690" lon="9.2928290">
	<ele>538.80</ele>
	<time>2024-03-25T12:55:54.000Z</time>
</trkpt>
<trkpt lat="45.8482770" lon="9.2928250">
	<ele>538.80</ele>
	<time>2024-03-25T12:55:55.000Z</time>
</trkpt>
<trkpt lat="45.8482780" lon="9.2928220">
	<ele>538.60</ele>
	<time>2024-03-25T12:55:56.000Z</time>
</trkpt>
<trkpt lat="45.8482790" lon="9.2928210">
	<ele>538.60</ele>
	<time>2024-03-25T12:55:57.000Z</time>
</trkpt>
<trkpt lat="45.8482880" lon="9.2928170">
	<ele>538.40</ele>
	<time>2024-03-25T12:55:58.000Z</time>
</trkpt>
<trkpt lat="45.8482980" lon="9.2928170">
	<ele>538.20</ele>
	<time>2024-03-25T12:55:59.000Z</time>
</trkpt>
<trkpt lat="45.8483070" lon="9.2928150">
	<ele>538.00</ele>
	<time>2024-03-25T12:56:00.000Z</time>
</trkpt>
<trkpt lat="45.8483220" lon="9.2928100">
	<ele>538.00</ele>
	<time>2024-03-25T12:56:01.000Z</time>
</trkpt>
<trkpt lat="45.8483200" lon="9.2928050">
	<ele>538.00</ele>
	<time>2024-03-25T12:56:02.000Z</time>
</trkpt>
<trkpt lat="45.8483190" lon="9.2928010">
	<ele>537.80</ele>
	<time>2024-03-25T12:56:03.000Z</time>
</trkpt>
<trkpt lat="45.8483170" lon="9.2927990">
	<ele>537.80</ele>
	<time>2024-03-25T12:56:04.000Z</time>
</trkpt>
<trkpt lat="45.8483150" lon="9.2927970">
	<ele>537.80</ele>
	<time>2024-03-25T12:56:05.000Z</time>
</trkpt>
<trkpt lat="45.8483170" lon="9.2927950">
	<ele>537.80</ele>
	<time>2024-03-25T12:56:06.000Z</time>
</trkpt>
<trkpt lat="45.8483230" lon="9.2927950">
	<ele>538.00</ele>
	<time>2024-03-25T12:56:07.000Z</time>
</trkpt>
<trkpt lat="45.8483270" lon="9.2927980">
	<ele>538.00</ele>
	<time>2024-03-25T12:56:08.000Z</time>
</trkpt>
<trkpt lat="45.8483340" lon="9.2927990">
	<ele>538.00</ele>
	<time>2024-03-25T12:56:09.000Z</time>
</trkpt>
<trkpt lat="45.8483420" lon="9.2927960">
	<ele>538.00</ele>
	<time>2024-03-25T12:56:10.000Z</time>
</trkpt>
<trkpt lat="45.8483460" lon="9.2927920">
	<ele>538.00</ele>
	<time>2024-03-25T12:56:11.000Z</time>
</trkpt>
<trkpt lat="45.8483460" lon="9.2927910">
	<ele>537.80</ele>
	<time>2024-03-25T12:56:12.000Z</time>
</trkpt>
<trkpt lat="45.8483460" lon="9.2927900">
	<ele>537.80</ele>
	<time>2024-03-25T12:56:13.000Z</time>
</trkpt>
<trkpt lat="45.8483480" lon="9.2927900">
	<ele>537.80</ele>
	<time>2024-03-25T12:56:14.000Z</time>
</trkpt>
<trkpt lat="45.8483590" lon="9.2927860">
	<ele>537.80</ele>
	<time>2024-03-25T12:56:15.000Z</time>
</trkpt>
<trkpt lat="45.8483700" lon="9.2927820">
	<ele>537.80</ele>
	<time>2024-03-25T12:56:16.000Z</time>
</trkpt>
<trkpt lat="45.8483900" lon="9.2927740">
	<ele>537.80</ele>
	<time>2024-03-25T12:56:17.000Z</time>
</trkpt>
<trkpt lat="45.8484090" lon="9.2927670">
	<ele>537.80</ele>
	<time>2024-03-25T12:56:18.000Z</time>
</trkpt>
<trkpt lat="45.8484140" lon="9.2927640">
	<ele>537.80</ele>
	<time>2024-03-25T12:56:19.000Z</time>
</trkpt>
<trkpt lat="45.8484120" lon="9.2927660">
	<ele>537.80</ele>
	<time>2024-03-25T12:56:20.000Z</time>
</trkpt>
<trkpt lat="45.8484100" lon="9.2927740">
	<ele>537.80</ele>
	<time>2024-03-25T12:56:21.000Z</time>
</trkpt>
<trkpt lat="45.8484150" lon="9.2927760">
	<ele>538.00</ele>
	<time>2024-03-25T12:56:22.000Z</time>
</trkpt>
<trkpt lat="45.8484140" lon="9.2927760">
	<ele>538.00</ele>
	<time>2024-03-25T12:56:23.000Z</time>
</trkpt>
<trkpt lat="45.8484170" lon="9.2927760">
	<ele>538.20</ele>
	<time>2024-03-25T12:56:24.000Z</time>
</trkpt>
<trkpt lat="45.8484250" lon="9.2927660">
	<ele>538.60</ele>
	<time>2024-03-25T12:56:25.000Z</time>
</trkpt>
<trkpt lat="45.8484250" lon="9.2927550">
	<ele>538.80</ele>
	<time>2024-03-25T12:56:26.000Z</time>
</trkpt>
<trkpt lat="45.8484280" lon="9.2927440">
	<ele>538.80</ele>
	<time>2024-03-25T12:56:27.000Z</time>
</trkpt>
<trkpt lat="45.8484360" lon="9.2927320">
	<ele>538.80</ele>
	<time>2024-03-25T12:56:28.000Z</time>
</trkpt>
<trkpt lat="45.8484450" lon="9.2927230">
	<ele>538.80</ele>
	<time>2024-03-25T12:56:29.000Z</time>
</trkpt>
<trkpt lat="45.8484530" lon="9.2927120">
	<ele>538.80</ele>
	<time>2024-03-25T12:56:30.000Z</time>
</trkpt>
<trkpt lat="45.8484630" lon="9.2927000">
	<ele>538.80</ele>
	<time>2024-03-25T12:56:31.000Z</time>
</trkpt>
<trkpt lat="45.8484720" lon="9.2926870">
	<ele>538.80</ele>
	<time>2024-03-25T12:56:32.000Z</time>
</trkpt>
<trkpt lat="45.8484790" lon="9.2926800">
	<ele>538.80</ele>
	<time>2024-03-25T12:56:33.000Z</time>
</trkpt>
<trkpt lat="45.8484830" lon="9.2926730">
	<ele>538.80</ele>
	<time>2024-03-25T12:56:34.000Z</time>
</trkpt>
<trkpt lat="45.8484870" lon="9.2926710">
	<ele>538.80</ele>
	<time>2024-03-25T12:56:35.000Z</time>
</trkpt>
<trkpt lat="45.8484930" lon="9.2926640">
	<ele>538.80</ele>
	<time>2024-03-25T12:56:36.000Z</time>
</trkpt>
<trkpt lat="45.8484990" lon="9.2926590">
	<ele>538.80</ele>
	<time>2024-03-25T12:56:37.000Z</time>
</trkpt>
<trkpt lat="45.8485020" lon="9.2926600">
	<ele>538.80</ele>
	<time>2024-03-25T12:56:38.000Z</time>
</trkpt>
<trkpt lat="45.8485030" lon="9.2926600">
	<ele>539.00</ele>
	<time>2024-03-25T12:56:39.000Z</time>
</trkpt>
<trkpt lat="45.8485030" lon="9.2926610">
	<ele>539.00</ele>
	<time>2024-03-25T12:56:40.000Z</time>
</trkpt>
<trkpt lat="45.8485030" lon="9.2926610">
	<ele>539.00</ele>
	<time>2024-03-25T12:56:41.000Z</time>
</trkpt>
<trkpt lat="45.8485050" lon="9.2926620">
	<ele>539.00</ele>
	<time>2024-03-25T12:56:42.000Z</time>
</trkpt>
<trkpt lat="45.8484980" lon="9.2926670">
	<ele>539.00</ele>
	<time>2024-03-25T12:56:43.000Z</time>
</trkpt>
<trkpt lat="45.8484950" lon="9.2926670">
	<ele>539.00</ele>
	<time>2024-03-25T12:56:44.000Z</time>
</trkpt>
<trkpt lat="45.8484970" lon="9.2926670">
	<ele>539.00</ele>
	<time>2024-03-25T12:56:45.000Z</time>
</trkpt>
<trkpt lat="45.8485020" lon="9.2926570">
	<ele>539.00</ele>
	<time>2024-03-25T12:56:46.000Z</time>
</trkpt>
<trkpt lat="45.8484950" lon="9.2926500">
	<ele>539.00</ele>
	<time>2024-03-25T12:56:47.000Z</time>
</trkpt>
<trkpt lat="45.8484950" lon="9.2926360">
	<ele>539.00</ele>
	<time>2024-03-25T12:56:48.000Z</time>
</trkpt>
<trkpt lat="45.8484920" lon="9.2926250">
	<ele>539.00</ele>
	<time>2024-03-25T12:56:49.000Z</time>
</trkpt>
<trkpt lat="45.8484900" lon="9.2926110">
	<ele>538.80</ele>
	<time>2024-03-25T12:56:50.000Z</time>
</trkpt>
<trkpt lat="45.8484880" lon="9.2926040">
	<ele>538.80</ele>
	<time>2024-03-25T12:56:51.000Z</time>
</trkpt>
<trkpt lat="45.8484840" lon="9.2925880">
	<ele>538.80</ele>
	<time>2024-03-25T12:56:52.000Z</time>
</trkpt>
<trkpt lat="45.8484740" lon="9.2925800">
	<ele>538.60</ele>
	<time>2024-03-25T12:56:53.000Z</time>
</trkpt>
<trkpt lat="45.8484560" lon="9.2925570">
	<ele>538.60</ele>
	<time>2024-03-25T12:56:54.000Z</time>
</trkpt>
<trkpt lat="45.8484420" lon="9.2925360">
	<ele>538.20</ele>
	<time>2024-03-25T12:56:55.000Z</time>
</trkpt>
<trkpt lat="45.8484330" lon="9.2925170">
	<ele>538.20</ele>
	<time>2024-03-25T12:56:56.000Z</time>
</trkpt>
<trkpt lat="45.8484230" lon="9.2924950">
	<ele>538.20</ele>
	<time>2024-03-25T12:56:57.000Z</time>
</trkpt>
<trkpt lat="45.8484110" lon="9.2924780">
	<ele>538.20</ele>
	<time>2024-03-25T12:56:58.000Z</time>
</trkpt>
<trkpt lat="45.8483940" lon="9.2924710">
	<ele>538.20</ele>
	<time>2024-03-25T12:56:59.000Z</time>
</trkpt>
<trkpt lat="45.8483810" lon="9.2924650">
	<ele>538.20</ele>
	<time>2024-03-25T12:57:00.000Z</time>
</trkpt>
<trkpt lat="45.8483730" lon="9.2924580">
	<ele>538.20</ele>
	<time>2024-03-25T12:57:01.000Z</time>
</trkpt>
<trkpt lat="45.8483640" lon="9.2924490">
	<ele>538.20</ele>
	<time>2024-03-25T12:57:02.000Z</time>
</trkpt>
<trkpt lat="45.8483530" lon="9.2924360">
	<ele>538.20</ele>
	<time>2024-03-25T12:57:03.000Z</time>
</trkpt>
<trkpt lat="45.8483450" lon="9.2924210">
	<ele>538.20</ele>
	<time>2024-03-25T12:57:04.000Z</time>
</trkpt>
<trkpt lat="45.8483390" lon="9.2924100">
	<ele>538.20</ele>
	<time>2024-03-25T12:57:05.000Z</time>
</trkpt>
<trkpt lat="45.8483310" lon="9.2923980">
	<ele>538.20</ele>
	<time>2024-03-25T12:57:06.000Z</time>
</trkpt>
<trkpt lat="45.8483230" lon="9.2923890">
	<ele>538.20</ele>
	<time>2024-03-25T12:57:07.000Z</time>
</trkpt>
<trkpt lat="45.8483190" lon="9.2923760">
	<ele>538.20</ele>
	<time>2024-03-25T12:57:08.000Z</time>
</trkpt>
<trkpt lat="45.8483200" lon="9.2923610">
	<ele>538.20</ele>
	<time>2024-03-25T12:57:09.000Z</time>
</trkpt>
<trkpt lat="45.8483220" lon="9.2923490">
	<ele>538.20</ele>
	<time>2024-03-25T12:57:10.000Z</time>
</trkpt>
<trkpt lat="45.8483140" lon="9.2923460">
	<ele>538.20</ele>
	<time>2024-03-25T12:57:11.000Z</time>
</trkpt>
<trkpt lat="45.8483100" lon="9.2923360">
	<ele>538.20</ele>
	<time>2024-03-25T12:57:12.000Z</time>
</trkpt>
<trkpt lat="45.8483050" lon="9.2923200">
	<ele>538.20</ele>
	<time>2024-03-25T12:57:13.000Z</time>
</trkpt>
<trkpt lat="45.8483060" lon="9.2923010">
	<ele>538.20</ele>
	<time>2024-03-25T12:57:14.000Z</time>
</trkpt>
<trkpt lat="45.8483040" lon="9.2922810">
	<ele>538.20</ele>
	<time>2024-03-25T12:57:15.000Z</time>
</trkpt>
<trkpt lat="45.8483020" lon="9.2922600">
	<ele>538.20</ele>
	<time>2024-03-25T12:57:16.000Z</time>
</trkpt>
<trkpt lat="45.8482990" lon="9.2922360">
	<ele>538.20</ele>
	<time>2024-03-25T12:57:17.000Z</time>
</trkpt>
<trkpt lat="45.8482920" lon="9.2922210">
	<ele>538.20</ele>
	<time>2024-03-25T12:57:18.000Z</time>
</trkpt>
<trkpt lat="45.8482900" lon="9.2922010">
	<ele>538.20</ele>
	<time>2024-03-25T12:57:19.000Z</time>
</trkpt>
<trkpt lat="45.8482860" lon="9.2921830">
	<ele>538.20</ele>
	<time>2024-03-25T12:57:20.000Z</time>
</trkpt>
<trkpt lat="45.8482790" lon="9.2921660">
	<ele>537.20</ele>
	<time>2024-03-25T12:57:21.000Z</time>
</trkpt>
<trkpt lat="45.8482700" lon="9.2921480">
	<ele>536.60</ele>
	<time>2024-03-25T12:57:22.000Z</time>
</trkpt>
<trkpt lat="45.8482610" lon="9.2921330">
	<ele>536.00</ele>
	<time>2024-03-25T12:57:23.000Z</time>
</trkpt>
<trkpt lat="45.8482560" lon="9.2921160">
	<ele>535.80</ele>
	<time>2024-03-25T12:57:24.000Z</time>
</trkpt>
<trkpt lat="45.8482540" lon="9.2920920">
	<ele>535.60</ele>
	<time>2024-03-25T12:57:25.000Z</time>
</trkpt>
<trkpt lat="45.8482500" lon="9.2920720">
	<ele>535.40</ele>
	<time>2024-03-25T12:57:26.000Z</time>
</trkpt>
<trkpt lat="45.8482410" lon="9.2920570">
	<ele>535.40</ele>
	<time>2024-03-25T12:57:27.000Z</time>
</trkpt>
<trkpt lat="45.8482320" lon="9.2920430">
	<ele>535.20</ele>
	<time>2024-03-25T12:57:28.000Z</time>
</trkpt>
<trkpt lat="45.8482300" lon="9.2920250">
	<ele>535.00</ele>
	<time>2024-03-25T12:57:29.000Z</time>
</trkpt>
<trkpt lat="45.8482290" lon="9.2920030">
	<ele>534.80</ele>
	<time>2024-03-25T12:57:30.000Z</time>
</trkpt>
<trkpt lat="45.8482180" lon="9.2919910">
	<ele>534.80</ele>
	<time>2024-03-25T12:57:31.000Z</time>
</trkpt>
<trkpt lat="45.8482120" lon="9.2919770">
	<ele>534.60</ele>
	<time>2024-03-25T12:57:32.000Z</time>
</trkpt>
<trkpt lat="45.8482100" lon="9.2919610">
	<ele>534.60</ele>
	<time>2024-03-25T12:57:33.000Z</time>
</trkpt>
<trkpt lat="45.8482020" lon="9.2919470">
	<ele>534.40</ele>
	<time>2024-03-25T12:57:34.000Z</time>
</trkpt>
<trkpt lat="45.8481920" lon="9.2919350">
	<ele>534.20</ele>
	<time>2024-03-25T12:57:35.000Z</time>
</trkpt>
<trkpt lat="45.8481830" lon="9.2919260">
	<ele>534.20</ele>
	<time>2024-03-25T12:57:36.000Z</time>
</trkpt>
<trkpt lat="45.8481800" lon="9.2919080">
	<ele>534.00</ele>
	<time>2024-03-25T12:57:37.000Z</time>
</trkpt>
<trkpt lat="45.8481770" lon="9.2918920">
	<ele>534.00</ele>
	<time>2024-03-25T12:57:38.000Z</time>
</trkpt>
<trkpt lat="45.8481750" lon="9.2918750">
	<ele>533.80</ele>
	<time>2024-03-25T12:57:39.000Z</time>
</trkpt>
<trkpt lat="45.8481670" lon="9.2918620">
	<ele>533.80</ele>
	<time>2024-03-25T12:57:40.000Z</time>
</trkpt>
<trkpt lat="45.8481630" lon="9.2918480">
	<ele>533.60</ele>
	<time>2024-03-25T12:57:41.000Z</time>
</trkpt>
<trkpt lat="45.8481600" lon="9.2918340">
	<ele>533.40</ele>
	<time>2024-03-25T12:57:42.000Z</time>
</trkpt>
<trkpt lat="45.8481560" lon="9.2918190">
	<ele>533.40</ele>
	<time>2024-03-25T12:57:43.000Z</time>
</trkpt>
<trkpt lat="45.8481500" lon="9.2918060">
	<ele>533.20</ele>
	<time>2024-03-25T12:57:44.000Z</time>
</trkpt>
<trkpt lat="45.8481450" lon="9.2917990">
	<ele>533.20</ele>
	<time>2024-03-25T12:57:45.000Z</time>
</trkpt>
<trkpt lat="45.8481310" lon="9.2917960">
	<ele>533.00</ele>
	<time>2024-03-25T12:57:46.000Z</time>
</trkpt>
<trkpt lat="45.8481150" lon="9.2917930">
	<ele>532.80</ele>
	<time>2024-03-25T12:57:47.000Z</time>
</trkpt>
<trkpt lat="45.8481000" lon="9.2917900">
	<ele>532.60</ele>
	<time>2024-03-25T12:57:48.000Z</time>
</trkpt>
<trkpt lat="45.8480900" lon="9.2917800">
	<ele>532.60</ele>
	<time>2024-03-25T12:57:49.000Z</time>
</trkpt>
<trkpt lat="45.8480820" lon="9.2917680">
	<ele>532.40</ele>
	<time>2024-03-25T12:57:50.000Z</time>
</trkpt>
<trkpt lat="45.8480710" lon="9.2917610">
	<ele>532.20</ele>
	<time>2024-03-25T12:57:51.000Z</time>
</trkpt>
<trkpt lat="45.8480620" lon="9.2917520">
	<ele>532.20</ele>
	<time>2024-03-25T12:57:52.000Z</time>
</trkpt>
<trkpt lat="45.8480520" lon="9.2917410">
	<ele>532.00</ele>
	<time>2024-03-25T12:57:53.000Z</time>
</trkpt>
<trkpt lat="45.8480420" lon="9.2917300">
	<ele>531.80</ele>
	<time>2024-03-25T12:57:54.000Z</time>
</trkpt>
<trkpt lat="45.8480320" lon="9.2917220">
	<ele>531.80</ele>
	<time>2024-03-25T12:57:55.000Z</time>
</trkpt>
<trkpt lat="45.8480210" lon="9.2917080">
	<ele>531.60</ele>
	<time>2024-03-25T12:57:56.000Z</time>
</trkpt>
<trkpt lat="45.8480100" lon="9.2916970">
	<ele>531.60</ele>
	<time>2024-03-25T12:57:57.000Z</time>
</trkpt>
<trkpt lat="45.8479970" lon="9.2916870">
	<ele>531.40</ele>
	<time>2024-03-25T12:57:58.000Z</time>
</trkpt>
<trkpt lat="45.8479810" lon="9.2916760">
	<ele>531.20</ele>
	<time>2024-03-25T12:57:59.000Z</time>
</trkpt>
<trkpt lat="45.8479640" lon="9.2916660">
	<ele>531.20</ele>
	<time>2024-03-25T12:58:00.000Z</time>
</trkpt>
<trkpt lat="45.8479460" lon="9.2916580">
	<ele>531.00</ele>
	<time>2024-03-25T12:58:01.000Z</time>
</trkpt>
<trkpt lat="45.8479330" lon="9.2916450">
	<ele>530.80</ele>
	<time>2024-03-25T12:58:02.000Z</time>
</trkpt>
<trkpt lat="45.8479190" lon="9.2916350">
	<ele>530.80</ele>
	<time>2024-03-25T12:58:03.000Z</time>
</trkpt>
<trkpt lat="45.8479100" lon="9.2916220">
	<ele>530.80</ele>
	<time>2024-03-25T12:58:04.000Z</time>
</trkpt>
<trkpt lat="45.8479040" lon="9.2916050">
	<ele>530.60</ele>
	<time>2024-03-25T12:58:05.000Z</time>
</trkpt>
<trkpt lat="45.8478980" lon="9.2915850">
	<ele>530.60</ele>
	<time>2024-03-25T12:58:06.000Z</time>
</trkpt>
<trkpt lat="45.8478880" lon="9.2915700">
	<ele>530.40</ele>
	<time>2024-03-25T12:58:07.000Z</time>
</trkpt>
<trkpt lat="45.8478830" lon="9.2915570">
	<ele>530.40</ele>
	<time>2024-03-25T12:58:08.000Z</time>
</trkpt>
<trkpt lat="45.8478750" lon="9.2915480">
	<ele>530.20</ele>
	<time>2024-03-25T12:58:09.000Z</time>
</trkpt>
<trkpt lat="45.8478660" lon="9.2915360">
	<ele>530.00</ele>
	<time>2024-03-25T12:58:10.000Z</time>
</trkpt>
<trkpt lat="45.8478560" lon="9.2915290">
	<ele>530.00</ele>
	<time>2024-03-25T12:58:11.000Z</time>
</trkpt>
<trkpt lat="45.8478420" lon="9.2915230">
	<ele>529.80</ele>
	<time>2024-03-25T12:58:12.000Z</time>
</trkpt>
<trkpt lat="45.8478310" lon="9.2915160">
	<ele>529.80</ele>
	<time>2024-03-25T12:58:13.000Z</time>
</trkpt>
<trkpt lat="45.8478240" lon="9.2915060">
	<ele>529.60</ele>
	<time>2024-03-25T12:58:14.000Z</time>
</trkpt>
<trkpt lat="45.8478230" lon="9.2914910">
	<ele>529.60</ele>
	<time>2024-03-25T12:58:15.000Z</time>
</trkpt>
<trkpt lat="45.8478170" lon="9.2914750">
	<ele>529.40</ele>
	<time>2024-03-25T12:58:16.000Z</time>
</trkpt>
<trkpt lat="45.8478120" lon="9.2914560">
	<ele>529.40</ele>
	<time>2024-03-25T12:58:17.000Z</time>
</trkpt>
<trkpt lat="45.8478100" lon="9.2914400">
	<ele>529.20</ele>
	<time>2024-03-25T12:58:18.000Z</time>
</trkpt>
<trkpt lat="45.8478040" lon="9.2914230">
	<ele>529.00</ele>
	<time>2024-03-25T12:58:19.000Z</time>
</trkpt>
<trkpt lat="45.8477980" lon="9.2914060">
	<ele>529.00</ele>
	<time>2024-03-25T12:58:20.000Z</time>
</trkpt>
<trkpt lat="45.8478030" lon="9.2913810">
	<ele>528.80</ele>
	<time>2024-03-25T12:58:21.000Z</time>
</trkpt>
<trkpt lat="45.8478000" lon="9.2913580">
	<ele>528.80</ele>
	<time>2024-03-25T12:58:22.000Z</time>
</trkpt>
<trkpt lat="45.8477900" lon="9.2913360">
	<ele>528.60</ele>
	<time>2024-03-25T12:58:23.000Z</time>
</trkpt>
<trkpt lat="45.8477840" lon="9.2913170">
	<ele>528.60</ele>
	<time>2024-03-25T12:58:24.000Z</time>
</trkpt>
<trkpt lat="45.8477770" lon="9.2913020">
	<ele>528.40</ele>
	<time>2024-03-25T12:58:25.000Z</time>
</trkpt>
<trkpt lat="45.8477690" lon="9.2912860">
	<ele>528.40</ele>
	<time>2024-03-25T12:58:26.000Z</time>
</trkpt>
<trkpt lat="45.8477640" lon="9.2912720">
	<ele>528.40</ele>
	<time>2024-03-25T12:58:27.000Z</time>
</trkpt>
<trkpt lat="45.8477620" lon="9.2912580">
	<ele>528.40</ele>
	<time>2024-03-25T12:58:28.000Z</time>
</trkpt>
<trkpt lat="45.8477600" lon="9.2912430">
	<ele>528.00</ele>
	<time>2024-03-25T12:58:29.000Z</time>
</trkpt>
<trkpt lat="45.8477610" lon="9.2912270">
	<ele>527.60</ele>
	<time>2024-03-25T12:58:30.000Z</time>
</trkpt>
<trkpt lat="45.8477620" lon="9.2912100">
	<ele>527.40</ele>
	<time>2024-03-25T12:58:31.000Z</time>
</trkpt>
<trkpt lat="45.8477640" lon="9.2911970">
	<ele>527.40</ele>
	<time>2024-03-25T12:58:32.000Z</time>
</trkpt>
<trkpt lat="45.8477650" lon="9.2911860">
	<ele>527.20</ele>
	<time>2024-03-25T12:58:33.000Z</time>
</trkpt>
<trkpt lat="45.8477660" lon="9.2911630">
	<ele>527.20</ele>
	<time>2024-03-25T12:58:34.000Z</time>
</trkpt>
<trkpt lat="45.8477720" lon="9.2911380">
	<ele>527.00</ele>
	<time>2024-03-25T12:58:35.000Z</time>
</trkpt>
<trkpt lat="45.8477730" lon="9.2911210">
	<ele>527.00</ele>
	<time>2024-03-25T12:58:36.000Z</time>
</trkpt>
<trkpt lat="45.8477720" lon="9.2911170">
	<ele>527.00</ele>
	<time>2024-03-25T12:58:37.000Z</time>
</trkpt>
<trkpt lat="45.8477720" lon="9.2911160">
	<ele>527.00</ele>
	<time>2024-03-25T12:58:38.000Z</time>
</trkpt>
<trkpt lat="45.8477740" lon="9.2911190">
	<ele>527.00</ele>
	<time>2024-03-25T12:58:39.000Z</time>
</trkpt>
<trkpt lat="45.8477740" lon="9.2911210">
	<ele>527.00</ele>
	<time>2024-03-25T12:58:40.000Z</time>
</trkpt>
<trkpt lat="45.8477590" lon="9.2911180">
	<ele>527.20</ele>
	<time>2024-03-25T12:58:41.000Z</time>
</trkpt>
<trkpt lat="45.8477430" lon="9.2911190">
	<ele>527.20</ele>
	<time>2024-03-25T12:58:42.000Z</time>
</trkpt>
<trkpt lat="45.8477390" lon="9.2911190">
	<ele>527.40</ele>
	<time>2024-03-25T12:58:43.000Z</time>
</trkpt>
<trkpt lat="45.8477370" lon="9.2911150">
	<ele>527.40</ele>
	<time>2024-03-25T12:58:44.000Z</time>
</trkpt>
<trkpt lat="45.8477410" lon="9.2910900">
	<ele>527.20</ele>
	<time>2024-03-25T12:58:45.000Z</time>
</trkpt>
<trkpt lat="45.8477400" lon="9.2910650">
	<ele>527.20</ele>
	<time>2024-03-25T12:58:46.000Z</time>
</trkpt>
<trkpt lat="45.8477350" lon="9.2910450">
	<ele>527.20</ele>
	<time>2024-03-25T12:58:47.000Z</time>
</trkpt>
<trkpt lat="45.8477310" lon="9.2910280">
	<ele>527.00</ele>
	<time>2024-03-25T12:58:48.000Z</time>
</trkpt>
<trkpt lat="45.8477240" lon="9.2910150">
	<ele>527.00</ele>
	<time>2024-03-25T12:58:49.000Z</time>
</trkpt>
<trkpt lat="45.8477200" lon="9.2910050">
	<ele>526.80</ele>
	<time>2024-03-25T12:58:50.000Z</time>
</trkpt>
<trkpt lat="45.8477150" lon="9.2909930">
	<ele>526.60</ele>
	<time>2024-03-25T12:58:51.000Z</time>
</trkpt>
<trkpt lat="45.8477100" lon="9.2909780">
	<ele>526.60</ele>
	<time>2024-03-25T12:58:52.000Z</time>
</trkpt>
<trkpt lat="45.8477040" lon="9.2909620">
	<ele>526.40</ele>
	<time>2024-03-25T12:58:53.000Z</time>
</trkpt>
<trkpt lat="45.8476970" lon="9.2909480">
	<ele>526.20</ele>
	<time>2024-03-25T12:58:54.000Z</time>
</trkpt>
<trkpt lat="45.8476890" lon="9.2909340">
	<ele>526.00</ele>
	<time>2024-03-25T12:58:55.000Z</time>
</trkpt>
<trkpt lat="45.8476830" lon="9.2909180">
	<ele>526.00</ele>
	<time>2024-03-25T12:58:56.000Z</time>
</trkpt>
<trkpt lat="45.8476820" lon="9.2909100">
	<ele>525.80</ele>
	<time>2024-03-25T12:58:57.000Z</time>
</trkpt>
<trkpt lat="45.8476810" lon="9.2909040">
	<ele>525.80</ele>
	<time>2024-03-25T12:58:58.000Z</time>
</trkpt>
<trkpt lat="45.8476780" lon="9.2908950">
	<ele>525.60</ele>
	<time>2024-03-25T12:58:59.000Z</time>
</trkpt>
<trkpt lat="45.8476770" lon="9.2908820">
	<ele>525.60</ele>
	<time>2024-03-25T12:59:00.000Z</time>
</trkpt>
<trkpt lat="45.8476720" lon="9.2908670">
	<ele>525.60</ele>
	<time>2024-03-25T12:59:01.000Z</time>
</trkpt>
<trkpt lat="45.8476700" lon="9.2908510">
	<ele>525.40</ele>
	<time>2024-03-25T12:59:02.000Z</time>
</trkpt>
<trkpt lat="45.8476680" lon="9.2908290">
	<ele>525.20</ele>
	<time>2024-03-25T12:59:03.000Z</time>
</trkpt>
<trkpt lat="45.8476600" lon="9.2908140">
	<ele>525.00</ele>
	<time>2024-03-25T12:59:04.000Z</time>
</trkpt>
<trkpt lat="45.8476540" lon="9.2907950">
	<ele>524.80</ele>
	<time>2024-03-25T12:59:05.000Z</time>
</trkpt>
<trkpt lat="45.8476510" lon="9.2907750">
	<ele>524.80</ele>
	<time>2024-03-25T12:59:06.000Z</time>
</trkpt>
<trkpt lat="45.8476550" lon="9.2907520">
	<ele>524.60</ele>
	<time>2024-03-25T12:59:07.000Z</time>
</trkpt>
<trkpt lat="45.8476580" lon="9.2907320">
	<ele>524.60</ele>
	<time>2024-03-25T12:59:08.000Z</time>
</trkpt>
<trkpt lat="45.8476560" lon="9.2907240">
	<ele>524.40</ele>
	<time>2024-03-25T12:59:09.000Z</time>
</trkpt>
<trkpt lat="45.8476520" lon="9.2907060">
	<ele>524.20</ele>
	<time>2024-03-25T12:59:10.000Z</time>
</trkpt>
<trkpt lat="45.8476500" lon="9.2906910">
	<ele>524.00</ele>
	<time>2024-03-25T12:59:11.000Z</time>
</trkpt>
<trkpt lat="45.8476440" lon="9.2906780">
	<ele>523.80</ele>
	<time>2024-03-25T12:59:12.000Z</time>
</trkpt>
<trkpt lat="45.8476380" lon="9.2906630">
	<ele>523.60</ele>
	<time>2024-03-25T12:59:13.000Z</time>
</trkpt>
<trkpt lat="45.8476360" lon="9.2906460">
	<ele>523.40</ele>
	<time>2024-03-25T12:59:14.000Z</time>
</trkpt>
<trkpt lat="45.8476360" lon="9.2906300">
	<ele>523.20</ele>
	<time>2024-03-25T12:59:15.000Z</time>
</trkpt>
<trkpt lat="45.8476410" lon="9.2906210">
	<ele>523.00</ele>
	<time>2024-03-25T12:59:16.000Z</time>
</trkpt>
<trkpt lat="45.8476430" lon="9.2906100">
	<ele>522.80</ele>
	<time>2024-03-25T12:59:17.000Z</time>
</trkpt>
<trkpt lat="45.8476480" lon="9.2905990">
	<ele>522.60</ele>
	<time>2024-03-25T12:59:18.000Z</time>
</trkpt>
<trkpt lat="45.8476530" lon="9.2905870">
	<ele>522.60</ele>
	<time>2024-03-25T12:59:19.000Z</time>
</trkpt>
<trkpt lat="45.8476540" lon="9.2905770">
	<ele>522.40</ele>
	<time>2024-03-25T12:59:20.000Z</time>
</trkpt>
<trkpt lat="45.8476630" lon="9.2905640">
	<ele>522.40</ele>
	<time>2024-03-25T12:59:21.000Z</time>
</trkpt>
<trkpt lat="45.8476790" lon="9.2905480">
	<ele>522.20</ele>
	<time>2024-03-25T12:59:22.000Z</time>
</trkpt>
<trkpt lat="45.8476970" lon="9.2905310">
	<ele>521.80</ele>
	<time>2024-03-25T12:59:23.000Z</time>
</trkpt>
<trkpt lat="45.8477150" lon="9.2905110">
	<ele>521.60</ele>
	<time>2024-03-25T12:59:24.000Z</time>
</trkpt>
<trkpt lat="45.8477230" lon="9.2904950">
	<ele>521.20</ele>
	<time>2024-03-25T12:59:25.000Z</time>
</trkpt>
<trkpt lat="45.8477300" lon="9.2904820">
	<ele>521.20</ele>
	<time>2024-03-25T12:59:26.000Z</time>
</trkpt>
<trkpt lat="45.8477310" lon="9.2904760">
	<ele>521.00</ele>
	<time>2024-03-25T12:59:27.000Z</time>
</trkpt>
<trkpt lat="45.8477330" lon="9.2904710">
	<ele>521.00</ele>
	<time>2024-03-25T12:59:28.000Z</time>
</trkpt>
<trkpt lat="45.8477390" lon="9.2904640">
	<ele>520.80</ele>
	<time>2024-03-25T12:59:29.000Z</time>
</trkpt>
<trkpt lat="45.8477460" lon="9.2904570">
	<ele>520.80</ele>
	<time>2024-03-25T12:59:30.000Z</time>
</trkpt>
<trkpt lat="45.8477500" lon="9.2904500">
	<ele>520.60</ele>
	<time>2024-03-25T12:59:31.000Z</time>
</trkpt>
<trkpt lat="45.8477560" lon="9.2904420">
	<ele>520.60</ele>
	<time>2024-03-25T12:59:32.000Z</time>
</trkpt>
<trkpt lat="45.8477620" lon="9.2904340">
	<ele>520.60</ele>
	<time>2024-03-25T12:59:33.000Z</time>
</trkpt>
<trkpt lat="45.8477660" lon="9.2904260">
	<ele>520.60</ele>
	<time>2024-03-25T12:59:34.000Z</time>
</trkpt>
<trkpt lat="45.8477750" lon="9.2904190">
	<ele>520.40</ele>
	<time>2024-03-25T12:59:35.000Z</time>
</trkpt>
<trkpt lat="45.8477850" lon="9.2904080">
	<ele>520.40</ele>
	<time>2024-03-25T12:59:36.000Z</time>
</trkpt>
<trkpt lat="45.8477910" lon="9.2903950">
	<ele>520.20</ele>
	<time>2024-03-25T12:59:37.000Z</time>
</trkpt>
<trkpt lat="45.8477940" lon="9.2903810">
	<ele>520.00</ele>
	<time>2024-03-25T12:59:38.000Z</time>
</trkpt>
<trkpt lat="45.8478050" lon="9.2903660">
	<ele>519.80</ele>
	<time>2024-03-25T12:59:39.000Z</time>
</trkpt>
<trkpt lat="45.8478220" lon="9.2903540">
	<ele>519.80</ele>
	<time>2024-03-25T12:59:40.000Z</time>
</trkpt>
<trkpt lat="45.8478400" lon="9.2903400">
	<ele>519.60</ele>
	<time>2024-03-25T12:59:41.000Z</time>
</trkpt>
<trkpt lat="45.8478510" lon="9.2903260">
	<ele>519.40</ele>
	<time>2024-03-25T12:59:42.000Z</time>
</trkpt>
<trkpt lat="45.8478610" lon="9.2903120">
	<ele>519.40</ele>
	<time>2024-03-25T12:59:43.000Z</time>
</trkpt>
<trkpt lat="45.8478730" lon="9.2903040">
	<ele>519.20</ele>
	<time>2024-03-25T12:59:44.000Z</time>
</trkpt>
<trkpt lat="45.8478850" lon="9.2902940">
	<ele>519.20</ele>
	<time>2024-03-25T12:59:45.000Z</time>
</trkpt>
<trkpt lat="45.8478980" lon="9.2902850">
	<ele>519.20</ele>
	<time>2024-03-25T12:59:46.000Z</time>
</trkpt>
<trkpt lat="45.8479120" lon="9.2902770">
	<ele>519.00</ele>
	<time>2024-03-25T12:59:47.000Z</time>
</trkpt>
<trkpt lat="45.8479230" lon="9.2902670">
	<ele>519.00</ele>
	<time>2024-03-25T12:59:48.000Z</time>
</trkpt>
<trkpt lat="45.8479340" lon="9.2902620">
	<ele>519.00</ele>
	<time>2024-03-25T12:59:49.000Z</time>
</trkpt>
<trkpt lat="45.8479470" lon="9.2902540">
	<ele>518.80</ele>
	<time>2024-03-25T12:59:50.000Z</time>
</trkpt>
<trkpt lat="45.8479550" lon="9.2902450">
	<ele>518.60</ele>
	<time>2024-03-25T12:59:51.000Z</time>
</trkpt>
<trkpt lat="45.8479650" lon="9.2902350">
	<ele>518.60</ele>
	<time>2024-03-25T12:59:52.000Z</time>
</trkpt>
<trkpt lat="45.8479730" lon="9.2902240">
	<ele>518.40</ele>
	<time>2024-03-25T12:59:53.000Z</time>
</trkpt>
<trkpt lat="45.8479760" lon="9.2902100">
	<ele>518.40</ele>
	<time>2024-03-25T12:59:54.000Z</time>
</trkpt>
<trkpt lat="45.8479860" lon="9.2901960">
	<ele>518.20</ele>
	<time>2024-03-25T12:59:55.000Z</time>
</trkpt>
<trkpt lat="45.8479940" lon="9.2901830">
	<ele>518.20</ele>
	<time>2024-03-25T12:59:56.000Z</time>
</trkpt>
<trkpt lat="45.8480030" lon="9.2901650">
	<ele>518.20</ele>
	<time>2024-03-25T12:59:57.000Z</time>
</trkpt>
<trkpt lat="45.8480130" lon="9.2901490">
	<ele>518.00</ele>
	<time>2024-03-25T12:59:58.000Z</time>
</trkpt>
<trkpt lat="45.8480250" lon="9.2901330">
	<ele>517.60</ele>
	<time>2024-03-25T12:59:59.000Z</time>
</trkpt>
<trkpt lat="45.8480340" lon="9.2901220">
	<ele>517.40</ele>
	<time>2024-03-25T13:00:00.000Z</time>
</trkpt>
<trkpt lat="45.8480450" lon="9.2901110">
	<ele>517.40</ele>
	<time>2024-03-25T13:00:01.000Z</time>
</trkpt>
<trkpt lat="45.8480590" lon="9.2900950">
	<ele>517.20</ele>
	<time>2024-03-25T13:00:02.000Z</time>
</trkpt>
<trkpt lat="45.8480740" lon="9.2900740">
	<ele>516.80</ele>
	<time>2024-03-25T13:00:03.000Z</time>
</trkpt>
<trkpt lat="45.8480840" lon="9.2900630">
	<ele>516.80</ele>
	<time>2024-03-25T13:00:04.000Z</time>
</trkpt>
<trkpt lat="45.8480910" lon="9.2900580">
	<ele>516.60</ele>
	<time>2024-03-25T13:00:05.000Z</time>
</trkpt>
<trkpt lat="45.8480930" lon="9.2900540">
	<ele>516.40</ele>
	<time>2024-03-25T13:00:06.000Z</time>
</trkpt>
<trkpt lat="45.8481020" lon="9.2900460">
	<ele>516.40</ele>
	<time>2024-03-25T13:00:07.000Z</time>
</trkpt>
<trkpt lat="45.8481150" lon="9.2900400">
	<ele>516.40</ele>
	<time>2024-03-25T13:00:08.000Z</time>
</trkpt>
<trkpt lat="45.8481300" lon="9.2900300">
	<ele>516.20</ele>
	<time>2024-03-25T13:00:09.000Z</time>
</trkpt>
<trkpt lat="45.8481400" lon="9.2900190">
	<ele>516.20</ele>
	<time>2024-03-25T13:00:10.000Z</time>
</trkpt>
<trkpt lat="45.8481550" lon="9.2900060">
	<ele>516.00</ele>
	<time>2024-03-25T13:00:11.000Z</time>
</trkpt>
<trkpt lat="45.8481710" lon="9.2899880">
	<ele>515.80</ele>
	<time>2024-03-25T13:00:12.000Z</time>
</trkpt>
<trkpt lat="45.8481840" lon="9.2899780">
	<ele>515.80</ele>
	<time>2024-03-25T13:00:13.000Z</time>
</trkpt>
<trkpt lat="45.8481960" lon="9.2899610">
	<ele>515.60</ele>
	<time>2024-03-25T13:00:14.000Z</time>
</trkpt>
<trkpt lat="45.8482070" lon="9.2899500">
	<ele>515.40</ele>
	<time>2024-03-25T13:00:15.000Z</time>
</trkpt>
<trkpt lat="45.8482210" lon="9.2899350">
	<ele>515.40</ele>
	<time>2024-03-25T13:00:16.000Z</time>
</trkpt>
<trkpt lat="45.8482350" lon="9.2899240">
	<ele>515.20</ele>
	<time>2024-03-25T13:00:17.000Z</time>
</trkpt>
<trkpt lat="45.8482480" lon="9.2899140">
	<ele>515.00</ele>
	<time>2024-03-25T13:00:18.000Z</time>
</trkpt>
<trkpt lat="45.8482570" lon="9.2898890">
	<ele>514.80</ele>
	<time>2024-03-25T13:00:19.000Z</time>
</trkpt>
<trkpt lat="45.8482610" lon="9.2898630">
	<ele>514.80</ele>
	<time>2024-03-25T13:00:20.000Z</time>
</trkpt>
<trkpt lat="45.8482720" lon="9.2898430">
	<ele>514.60</ele>
	<time>2024-03-25T13:00:21.000Z</time>
</trkpt>
<trkpt lat="45.8482770" lon="9.2898230">
	<ele>514.60</ele>
	<time>2024-03-25T13:00:22.000Z</time>
</trkpt>
<trkpt lat="45.8482880" lon="9.2898140">
	<ele>514.60</ele>
	<time>2024-03-25T13:00:23.000Z</time>
</trkpt>
<trkpt lat="45.8482920" lon="9.2898040">
	<ele>514.40</ele>
	<time>2024-03-25T13:00:24.000Z</time>
</trkpt>
<trkpt lat="45.8483010" lon="9.2897890">
	<ele>514.40</ele>
	<time>2024-03-25T13:00:25.000Z</time>
</trkpt>
<trkpt lat="45.8483060" lon="9.2897660">
	<ele>514.40</ele>
	<time>2024-03-25T13:00:26.000Z</time>
</trkpt>
<trkpt lat="45.8483050" lon="9.2897390">
	<ele>514.40</ele>
	<time>2024-03-25T13:00:27.000Z</time>
</trkpt>
<trkpt lat="45.8483020" lon="9.2897140">
	<ele>514.20</ele>
	<time>2024-03-25T13:00:28.000Z</time>
</trkpt>
<trkpt lat="45.8482990" lon="9.2896930">
	<ele>514.20</ele>
	<time>2024-03-25T13:00:29.000Z</time>
</trkpt>
<trkpt lat="45.8482960" lon="9.2896700">
	<ele>514.20</ele>
	<time>2024-03-25T13:00:30.000Z</time>
</trkpt>
<trkpt lat="45.8482950" lon="9.2896610">
	<ele>514.20</ele>
	<time>2024-03-25T13:00:31.000Z</time>
</trkpt>
<trkpt lat="45.8482950" lon="9.2896380">
	<ele>514.20</ele>
	<time>2024-03-25T13:00:32.000Z</time>
</trkpt>
<trkpt lat="45.8483000" lon="9.2896100">
	<ele>514.00</ele>
	<time>2024-03-25T13:00:33.000Z</time>
</trkpt>
<trkpt lat="45.8483050" lon="9.2895810">
	<ele>514.00</ele>
	<time>2024-03-25T13:00:34.000Z</time>
</trkpt>
<trkpt lat="45.8483010" lon="9.2895640">
	<ele>514.00</ele>
	<time>2024-03-25T13:00:35.000Z</time>
</trkpt>
<trkpt lat="45.8483010" lon="9.2895510">
	<ele>513.80</ele>
	<time>2024-03-25T13:00:36.000Z</time>
</trkpt>
<trkpt lat="45.8483020" lon="9.2895390">
	<ele>513.80</ele>
	<time>2024-03-25T13:00:37.000Z</time>
</trkpt>
<trkpt lat="45.8482980" lon="9.2895230">
	<ele>513.60</ele>
	<time>2024-03-25T13:00:38.000Z</time>
</trkpt>
<trkpt lat="45.8482900" lon="9.2895110">
	<ele>513.60</ele>
	<time>2024-03-25T13:00:39.000Z</time>
</trkpt>
<trkpt lat="45.8482870" lon="9.2894910">
	<ele>513.60</ele>
	<time>2024-03-25T13:00:40.000Z</time>
</trkpt>
<trkpt lat="45.8482830" lon="9.2894780">
	<ele>513.40</ele>
	<time>2024-03-25T13:00:41.000Z</time>
</trkpt>
<trkpt lat="45.8482780" lon="9.2894640">
	<ele>513.40</ele>
	<time>2024-03-25T13:00:42.000Z</time>
</trkpt>
<trkpt lat="45.8482720" lon="9.2894440">
	<ele>513.20</ele>
	<time>2024-03-25T13:00:43.000Z</time>
</trkpt>
<trkpt lat="45.8482700" lon="9.2894300">
	<ele>513.00</ele>
	<time>2024-03-25T13:00:44.000Z</time>
</trkpt>
<trkpt lat="45.8482760" lon="9.2894080">
	<ele>513.00</ele>
	<time>2024-03-25T13:00:45.000Z</time>
</trkpt>
<trkpt lat="45.8482790" lon="9.2893870">
	<ele>512.80</ele>
	<time>2024-03-25T13:00:46.000Z</time>
</trkpt>
<trkpt lat="45.8482830" lon="9.2893650">
	<ele>512.60</ele>
	<time>2024-03-25T13:00:47.000Z</time>
</trkpt>
<trkpt lat="45.8482860" lon="9.2893460">
	<ele>512.40</ele>
	<time>2024-03-25T13:00:48.000Z</time>
</trkpt>
<trkpt lat="45.8482830" lon="9.2893310">
	<ele>512.40</ele>
	<time>2024-03-25T13:00:49.000Z</time>
</trkpt>
<trkpt lat="45.8482800" lon="9.2893160">
	<ele>512.20</ele>
	<time>2024-03-25T13:00:50.000Z</time>
</trkpt>
<trkpt lat="45.8482760" lon="9.2892990">
	<ele>512.20</ele>
	<time>2024-03-25T13:00:51.000Z</time>
</trkpt>
<trkpt lat="45.8482740" lon="9.2892810">
	<ele>512.00</ele>
	<time>2024-03-25T13:00:52.000Z</time>
</trkpt>
<trkpt lat="45.8482660" lon="9.2892630">
	<ele>511.80</ele>
	<time>2024-03-25T13:00:53.000Z</time>
</trkpt>
<trkpt lat="45.8482650" lon="9.2892390">
	<ele>511.80</ele>
	<time>2024-03-25T13:00:54.000Z</time>
</trkpt>
<trkpt lat="45.8482650" lon="9.2892180">
	<ele>511.60</ele>
	<time>2024-03-25T13:00:55.000Z</time>
</trkpt>
<trkpt lat="45.8482640" lon="9.2891980">
	<ele>511.40</ele>
	<time>2024-03-25T13:00:56.000Z</time>
</trkpt>
<trkpt lat="45.8482650" lon="9.2891760">
	<ele>511.20</ele>
	<time>2024-03-25T13:00:57.000Z</time>
</trkpt>
<trkpt lat="45.8482650" lon="9.2891540">
	<ele>511.20</ele>
	<time>2024-03-25T13:00:58.000Z</time>
</trkpt>
<trkpt lat="45.8482710" lon="9.2891260">
	<ele>511.20</ele>
	<time>2024-03-25T13:00:59.000Z</time>
</trkpt>
<trkpt lat="45.8482720" lon="9.2891080">
	<ele>511.20</ele>
	<time>2024-03-25T13:01:00.000Z</time>
</trkpt>
<trkpt lat="45.8482740" lon="9.2890890">
	<ele>511.00</ele>
	<time>2024-03-25T13:01:01.000Z</time>
</trkpt>
<trkpt lat="45.8482770" lon="9.2890700">
	<ele>511.00</ele>
	<time>2024-03-25T13:01:02.000Z</time>
</trkpt>
<trkpt lat="45.8482770" lon="9.2890530">
	<ele>510.80</ele>
	<time>2024-03-25T13:01:03.000Z</time>
</trkpt>
<trkpt lat="45.8482750" lon="9.2890370">
	<ele>510.80</ele>
	<time>2024-03-25T13:01:04.000Z</time>
</trkpt>
<trkpt lat="45.8482710" lon="9.2890170">
	<ele>510.60</ele>
	<time>2024-03-25T13:01:05.000Z</time>
</trkpt>
<trkpt lat="45.8482690" lon="9.2889950">
	<ele>510.40</ele>
	<time>2024-03-25T13:01:06.000Z</time>
</trkpt>
<trkpt lat="45.8482680" lon="9.2889740">
	<ele>510.20</ele>
	<time>2024-03-25T13:01:07.000Z</time>
</trkpt>
<trkpt lat="45.8482650" lon="9.2889520">
	<ele>510.00</ele>
	<time>2024-03-25T13:01:08.000Z</time>
</trkpt>
<trkpt lat="45.8482550" lon="9.2889380">
	<ele>510.00</ele>
	<time>2024-03-25T13:01:09.000Z</time>
</trkpt>
<trkpt lat="45.8482450" lon="9.2889220">
	<ele>509.80</ele>
	<time>2024-03-25T13:01:10.000Z</time>
</trkpt>
<trkpt lat="45.8482410" lon="9.2889000">
	<ele>509.60</ele>
	<time>2024-03-25T13:01:11.000Z</time>
</trkpt>
<trkpt lat="45.8482380" lon="9.2888810">
	<ele>509.40</ele>
	<time>2024-03-25T13:01:12.000Z</time>
</trkpt>
<trkpt lat="45.8482340" lon="9.2888610">
	<ele>509.40</ele>
	<time>2024-03-25T13:01:13.000Z</time>
</trkpt>
<trkpt lat="45.8482330" lon="9.2888400">
	<ele>509.20</ele>
	<time>2024-03-25T13:01:14.000Z</time>
</trkpt>
<trkpt lat="45.8482280" lon="9.2888210">
	<ele>509.20</ele>
	<time>2024-03-25T13:01:15.000Z</time>
</trkpt>
<trkpt lat="45.8482240" lon="9.2888050">
	<ele>509.00</ele>
	<time>2024-03-25T13:01:16.000Z</time>
</trkpt>
<trkpt lat="45.8482210" lon="9.2887880">
	<ele>509.00</ele>
	<time>2024-03-25T13:01:17.000Z</time>
</trkpt>
<trkpt lat="45.8482190" lon="9.2887690">
	<ele>508.80</ele>
	<time>2024-03-25T13:01:18.000Z</time>
</trkpt>
<trkpt lat="45.8482160" lon="9.2887530">
	<ele>508.80</ele>
	<time>2024-03-25T13:01:19.000Z</time>
</trkpt>
<trkpt lat="45.8482170" lon="9.2887390">
	<ele>508.60</ele>
	<time>2024-03-25T13:01:20.000Z</time>
</trkpt>
<trkpt lat="45.8482170" lon="9.2887230">
	<ele>508.60</ele>
	<time>2024-03-25T13:01:21.000Z</time>
</trkpt>
<trkpt lat="45.8482180" lon="9.2887080">
	<ele>508.40</ele>
	<time>2024-03-25T13:01:22.000Z</time>
</trkpt>
<trkpt lat="45.8482170" lon="9.2886870">
	<ele>508.20</ele>
	<time>2024-03-25T13:01:23.000Z</time>
</trkpt>
<trkpt lat="45.8482220" lon="9.2886630">
	<ele>508.00</ele>
	<time>2024-03-25T13:01:24.000Z</time>
</trkpt>
<trkpt lat="45.8482270" lon="9.2886440">
	<ele>507.80</ele>
	<time>2024-03-25T13:01:25.000Z</time>
</trkpt>
<trkpt lat="45.8482290" lon="9.2886250">
	<ele>507.80</ele>
	<time>2024-03-25T13:01:26.000Z</time>
</trkpt>
<trkpt lat="45.8482300" lon="9.2886060">
	<ele>507.60</ele>
	<time>2024-03-25T13:01:27.000Z</time>
</trkpt>
<trkpt lat="45.8482370" lon="9.2885800">
	<ele>507.40</ele>
	<time>2024-03-25T13:01:28.000Z</time>
</trkpt>
<trkpt lat="45.8482430" lon="9.2885570">
	<ele>507.40</ele>
	<time>2024-03-25T13:01:29.000Z</time>
</trkpt>
<trkpt lat="45.8482470" lon="9.2885340">
	<ele>507.20</ele>
	<time>2024-03-25T13:01:30.000Z</time>
</trkpt>
<trkpt lat="45.8482500" lon="9.2885190">
	<ele>507.00</ele>
	<time>2024-03-25T13:01:31.000Z</time>
</trkpt>
<trkpt lat="45.8482490" lon="9.2885020">
	<ele>507.00</ele>
	<time>2024-03-25T13:01:32.000Z</time>
</trkpt>
<trkpt lat="45.8482510" lon="9.2884840">
	<ele>506.80</ele>
	<time>2024-03-25T13:01:33.000Z</time>
</trkpt>
<trkpt lat="45.8482510" lon="9.2884650">
	<ele>506.60</ele>
	<time>2024-03-25T13:01:34.000Z</time>
</trkpt>
<trkpt lat="45.8482510" lon="9.2884480">
	<ele>506.60</ele>
	<time>2024-03-25T13:01:35.000Z</time>
</trkpt>
<trkpt lat="45.8482520" lon="9.2884240">
	<ele>506.40</ele>
	<time>2024-03-25T13:01:36.000Z</time>
</trkpt>
<trkpt lat="45.8482510" lon="9.2884000">
	<ele>506.40</ele>
	<time>2024-03-25T13:01:37.000Z</time>
</trkpt>
<trkpt lat="45.8482460" lon="9.2883800">
	<ele>506.00</ele>
	<time>2024-03-25T13:01:38.000Z</time>
</trkpt>
<trkpt lat="45.8482420" lon="9.2883700">
	<ele>505.80</ele>
	<time>2024-03-25T13:01:39.000Z</time>
</trkpt>
<trkpt lat="45.8482440" lon="9.2883570">
	<ele>505.80</ele>
	<time>2024-03-25T13:01:40.000Z</time>
</trkpt>
<trkpt lat="45.8482500" lon="9.2883440">
	<ele>505.60</ele>
	<time>2024-03-25T13:01:41.000Z</time>
</trkpt>
<trkpt lat="45.8482500" lon="9.2883290">
	<ele>505.60</ele>
	<time>2024-03-25T13:01:42.000Z</time>
</trkpt>
<trkpt lat="45.8482480" lon="9.2883130">
	<ele>505.40</ele>
	<time>2024-03-25T13:01:43.000Z</time>
</trkpt>
<trkpt lat="45.8482440" lon="9.2882940">
	<ele>505.40</ele>
	<time>2024-03-25T13:01:44.000Z</time>
</trkpt>
<trkpt lat="45.8482470" lon="9.2882750">
	<ele>505.20</ele>
	<time>2024-03-25T13:01:45.000Z</time>
</trkpt>
<trkpt lat="45.8482510" lon="9.2882580">
	<ele>505.20</ele>
	<time>2024-03-25T13:01:46.000Z</time>
</trkpt>
<trkpt lat="45.8482510" lon="9.2882390">
	<ele>505.00</ele>
	<time>2024-03-25T13:01:47.000Z</time>
</trkpt>
<trkpt lat="45.8482530" lon="9.2882190">
	<ele>505.00</ele>
	<time>2024-03-25T13:01:48.000Z</time>
</trkpt>
<trkpt lat="45.8482540" lon="9.2882010">
	<ele>505.00</ele>
	<time>2024-03-25T13:01:49.000Z</time>
</trkpt>
<trkpt lat="45.8482540" lon="9.2881840">
	<ele>504.80</ele>
	<time>2024-03-25T13:01:50.000Z</time>
</trkpt>
<trkpt lat="45.8482560" lon="9.2881650">
	<ele>504.80</ele>
	<time>2024-03-25T13:01:51.000Z</time>
</trkpt>
<trkpt lat="45.8482570" lon="9.2881460">
	<ele>504.80</ele>
	<time>2024-03-25T13:01:52.000Z</time>
</trkpt>
<trkpt lat="45.8482560" lon="9.2881240">
	<ele>504.60</ele>
	<time>2024-03-25T13:01:53.000Z</time>
</trkpt>
<trkpt lat="45.8482530" lon="9.2881050">
	<ele>504.60</ele>
	<time>2024-03-25T13:01:54.000Z</time>
</trkpt>
<trkpt lat="45.8482500" lon="9.2880860">
	<ele>504.60</ele>
	<time>2024-03-25T13:01:55.000Z</time>
</trkpt>
<trkpt lat="45.8482550" lon="9.2880660">
	<ele>504.60</ele>
	<time>2024-03-25T13:01:56.000Z</time>
</trkpt>
<trkpt lat="45.8482570" lon="9.2880470">
	<ele>504.60</ele>
	<time>2024-03-25T13:01:57.000Z</time>
</trkpt>
<trkpt lat="45.8482600" lon="9.2880290">
	<ele>504.60</ele>
	<time>2024-03-25T13:01:58.000Z</time>
</trkpt>
<trkpt lat="45.8482690" lon="9.2880100">
	<ele>504.60</ele>
	<time>2024-03-25T13:01:59.000Z</time>
</trkpt>
<trkpt lat="45.8482730" lon="9.2879900">
	<ele>504.20</ele>
	<time>2024-03-25T13:02:00.000Z</time>
</trkpt>
<trkpt lat="45.8482720" lon="9.2879710">
	<ele>504.00</ele>
	<time>2024-03-25T13:02:01.000Z</time>
</trkpt>
<trkpt lat="45.8482760" lon="9.2879530">
	<ele>503.80</ele>
	<time>2024-03-25T13:02:02.000Z</time>
</trkpt>
<trkpt lat="45.8482820" lon="9.2879360">
	<ele>503.80</ele>
	<time>2024-03-25T13:02:03.000Z</time>
</trkpt>
<trkpt lat="45.8482830" lon="9.2879170">
	<ele>503.80</ele>
	<time>2024-03-25T13:02:04.000Z</time>
</trkpt>
<trkpt lat="45.8482770" lon="9.2878950">
	<ele>503.80</ele>
	<time>2024-03-25T13:02:05.000Z</time>
</trkpt>
<trkpt lat="45.8482730" lon="9.2878680">
	<ele>503.60</ele>
	<time>2024-03-25T13:02:06.000Z</time>
</trkpt>
<trkpt lat="45.8482690" lon="9.2878470">
	<ele>503.60</ele>
	<time>2024-03-25T13:02:07.000Z</time>
</trkpt>
<trkpt lat="45.8482740" lon="9.2878190">
	<ele>503.40</ele>
	<time>2024-03-25T13:02:08.000Z</time>
</trkpt>
<trkpt lat="45.8482820" lon="9.2877950">
	<ele>503.20</ele>
	<time>2024-03-25T13:02:09.000Z</time>
</trkpt>
<trkpt lat="45.8482880" lon="9.2877820">
	<ele>503.20</ele>
	<time>2024-03-25T13:02:10.000Z</time>
</trkpt>
<trkpt lat="45.8482970" lon="9.2877780">
	<ele>503.00</ele>
	<time>2024-03-25T13:02:11.000Z</time>
</trkpt>
<trkpt lat="45.8483020" lon="9.2877710">
	<ele>503.00</ele>
	<time>2024-03-25T13:02:12.000Z</time>
</trkpt>
<trkpt lat="45.8483030" lon="9.2877660">
	<ele>502.60</ele>
	<time>2024-03-25T13:02:13.000Z</time>
</trkpt>
<trkpt lat="45.8483120" lon="9.2877610">
	<ele>502.60</ele>
	<time>2024-03-25T13:02:14.000Z</time>
</trkpt>
<trkpt lat="45.8483210" lon="9.2877550">
	<ele>502.40</ele>
	<time>2024-03-25T13:02:15.000Z</time>
</trkpt>
<trkpt lat="45.8483260" lon="9.2877450">
	<ele>502.40</ele>
	<time>2024-03-25T13:02:16.000Z</time>
</trkpt>
<trkpt lat="45.8483350" lon="9.2877230">
	<ele>502.20</ele>
	<time>2024-03-25T13:02:17.000Z</time>
</trkpt>
<trkpt lat="45.8483370" lon="9.2877010">
	<ele>502.20</ele>
	<time>2024-03-25T13:02:18.000Z</time>
</trkpt>
<trkpt lat="45.8483320" lon="9.2876880">
	<ele>502.20</ele>
	<time>2024-03-25T13:02:19.000Z</time>
</trkpt>
<trkpt lat="45.8483310" lon="9.2876780">
	<ele>502.00</ele>
	<time>2024-03-25T13:02:20.000Z</time>
</trkpt>
<trkpt lat="45.8483330" lon="9.2876650">
	<ele>502.00</ele>
	<time>2024-03-25T13:02:21.000Z</time>
</trkpt>
<trkpt lat="45.8483330" lon="9.2876550">
	<ele>501.80</ele>
	<time>2024-03-25T13:02:22.000Z</time>
</trkpt>
<trkpt lat="45.8483350" lon="9.2876460">
	<ele>501.80</ele>
	<time>2024-03-25T13:02:23.000Z</time>
</trkpt>
<trkpt lat="45.8483380" lon="9.2876340">
	<ele>501.60</ele>
	<time>2024-03-25T13:02:24.000Z</time>
</trkpt>
<trkpt lat="45.8483400" lon="9.2876160">
	<ele>501.60</ele>
	<time>2024-03-25T13:02:25.000Z</time>
</trkpt>
<trkpt lat="45.8483430" lon="9.2875970">
	<ele>501.60</ele>
	<time>2024-03-25T13:02:26.000Z</time>
</trkpt>
<trkpt lat="45.8483460" lon="9.2875830">
	<ele>501.40</ele>
	<time>2024-03-25T13:02:27.000Z</time>
</trkpt>
<trkpt lat="45.8483510" lon="9.2875730">
	<ele>501.20</ele>
	<time>2024-03-25T13:02:28.000Z</time>
</trkpt>
<trkpt lat="45.8483590" lon="9.2875610">
	<ele>501.00</ele>
	<time>2024-03-25T13:02:29.000Z</time>
</trkpt>
<trkpt lat="45.8483690" lon="9.2875530">
	<ele>501.00</ele>
	<time>2024-03-25T13:02:30.000Z</time>
</trkpt>
<trkpt lat="45.8483790" lon="9.2875420">
	<ele>500.80</ele>
	<time>2024-03-25T13:02:31.000Z</time>
</trkpt>
<trkpt lat="45.8483900" lon="9.2875350">
	<ele>500.60</ele>
	<time>2024-03-25T13:02:32.000Z</time>
</trkpt>
<trkpt lat="45.8484060" lon="9.2875300">
	<ele>500.40</ele>
	<time>2024-03-25T13:02:33.000Z</time>
</trkpt>
<trkpt lat="45.8484230" lon="9.2875300">
	<ele>500.20</ele>
	<time>2024-03-25T13:02:34.000Z</time>
</trkpt>
<trkpt lat="45.8484420" lon="9.2875290">
	<ele>500.00</ele>
	<time>2024-03-25T13:02:35.000Z</time>
</trkpt>
<trkpt lat="45.8484570" lon="9.2875230">
	<ele>499.80</ele>
	<time>2024-03-25T13:02:36.000Z</time>
</trkpt>
<trkpt lat="45.8484680" lon="9.2875130">
	<ele>499.60</ele>
	<time>2024-03-25T13:02:37.000Z</time>
</trkpt>
<trkpt lat="45.8484720" lon="9.2875090">
	<ele>499.40</ele>
	<time>2024-03-25T13:02:38.000Z</time>
</trkpt>
<trkpt lat="45.8484830" lon="9.2875120">
	<ele>499.00</ele>
	<time>2024-03-25T13:02:39.000Z</time>
</trkpt>
<trkpt lat="45.8484930" lon="9.2875020">
	<ele>498.80</ele>
	<time>2024-03-25T13:02:40.000Z</time>
</trkpt>
<trkpt lat="45.8484950" lon="9.2874950">
	<ele>498.80</ele>
	<time>2024-03-25T13:02:41.000Z</time>
</trkpt>
<trkpt lat="45.8484980" lon="9.2874910">
	<ele>498.60</ele>
	<time>2024-03-25T13:02:42.000Z</time>
</trkpt>
<trkpt lat="45.8484990" lon="9.2874900">
	<ele>498.40</ele>
	<time>2024-03-25T13:02:43.000Z</time>
</trkpt>
<trkpt lat="45.8484990" lon="9.2874910">
	<ele>498.40</ele>
	<time>2024-03-25T13:02:44.000Z</time>
</trkpt>
<trkpt lat="45.8485020" lon="9.2875030">
	<ele>498.40</ele>
	<time>2024-03-25T13:02:45.000Z</time>
</trkpt>
<trkpt lat="45.8485050" lon="9.2875100">
	<ele>498.40</ele>
	<time>2024-03-25T13:02:46.000Z</time>
</trkpt>
<trkpt lat="45.8485080" lon="9.2875110">
	<ele>498.40</ele>
	<time>2024-03-25T13:02:47.000Z</time>
</trkpt>
<trkpt lat="45.8485110" lon="9.2875100">
	<ele>498.40</ele>
	<time>2024-03-25T13:02:48.000Z</time>
</trkpt>
<trkpt lat="45.8485100" lon="9.2875090">
	<ele>498.40</ele>
	<time>2024-03-25T13:02:49.000Z</time>
</trkpt>
<trkpt lat="45.8485080" lon="9.2875100">
	<ele>498.40</ele>
	<time>2024-03-25T13:02:50.000Z</time>
</trkpt>
<trkpt lat="45.8485060" lon="9.2875180">
	<ele>498.60</ele>
	<time>2024-03-25T13:02:51.000Z</time>
</trkpt>
<trkpt lat="45.8485030" lon="9.2875200">
	<ele>498.40</ele>
	<time>2024-03-25T13:02:52.000Z</time>
</trkpt>
<trkpt lat="45.8484960" lon="9.2875150">
	<ele>498.60</ele>
	<time>2024-03-25T13:02:53.000Z</time>
</trkpt>
<trkpt lat="45.8484940" lon="9.2875090">
	<ele>498.60</ele>
	<time>2024-03-25T13:02:54.000Z</time>
</trkpt>
<trkpt lat="45.8484880" lon="9.2875060">
	<ele>498.60</ele>
	<time>2024-03-25T13:02:55.000Z</time>
</trkpt>
<trkpt lat="45.8484850" lon="9.2875050">
	<ele>498.40</ele>
	<time>2024-03-25T13:02:56.000Z</time>
</trkpt>
<trkpt lat="45.8484810" lon="9.2875050">
	<ele>498.40</ele>
	<time>2024-03-25T13:02:57.000Z</time>
</trkpt>
<trkpt lat="45.8484790" lon="9.2875030">
	<ele>498.40</ele>
	<time>2024-03-25T13:02:58.000Z</time>
</trkpt>
<trkpt lat="45.8484780" lon="9.2875000">
	<ele>498.40</ele>
	<time>2024-03-25T13:02:59.000Z</time>
</trkpt>
<trkpt lat="45.8484850" lon="9.2875040">
	<ele>498.40</ele>
	<time>2024-03-25T13:03:00.000Z</time>
</trkpt>
<trkpt lat="45.8484870" lon="9.2875090">
	<ele>498.40</ele>
	<time>2024-03-25T13:03:01.000Z</time>
</trkpt>
<trkpt lat="45.8484890" lon="9.2875130">
	<ele>498.40</ele>
	<time>2024-03-25T13:03:02.000Z</time>
</trkpt>
<trkpt lat="45.8484900" lon="9.2875130">
	<ele>498.40</ele>
	<time>2024-03-25T13:03:03.000Z</time>
</trkpt>
<trkpt lat="45.8484910" lon="9.2875130">
	<ele>498.40</ele>
	<time>2024-03-25T13:03:04.000Z</time>
</trkpt>
<trkpt lat="45.8484960" lon="9.2875130">
	<ele>498.60</ele>
	<time>2024-03-25T13:03:05.000Z</time>
</trkpt>
<trkpt lat="45.8485050" lon="9.2875060">
	<ele>498.60</ele>
	<time>2024-03-25T13:03:06.000Z</time>
</trkpt>
<trkpt lat="45.8485080" lon="9.2875060">
	<ele>498.60</ele>
	<time>2024-03-25T13:03:07.000Z</time>
</trkpt>
<trkpt lat="45.8485090" lon="9.2875070">
	<ele>498.60</ele>
	<time>2024-03-25T13:03:08.000Z</time>
</trkpt>
<trkpt lat="45.8485100" lon="9.2875090">
	<ele>498.60</ele>
	<time>2024-03-25T13:03:09.000Z</time>
</trkpt>
<trkpt lat="45.8485090" lon="9.2875100">
	<ele>498.60</ele>
	<time>2024-03-25T13:03:10.000Z</time>
</trkpt>
<trkpt lat="45.8485100" lon="9.2875100">
	<ele>498.60</ele>
	<time>2024-03-25T13:03:11.000Z</time>
</trkpt>
<trkpt lat="45.8485100" lon="9.2875100">
	<ele>498.80</ele>
	<time>2024-03-25T13:03:12.000Z</time>
</trkpt>
<trkpt lat="45.8485100" lon="9.2875100">
	<ele>498.80</ele>
	<time>2024-03-25T13:03:13.000Z</time>
</trkpt>
<trkpt lat="45.8485100" lon="9.2875100">
	<ele>498.80</ele>
	<time>2024-03-25T13:03:14.000Z</time>
</trkpt>
<trkpt lat="45.8485100" lon="9.2875100">
	<ele>498.80</ele>
	<time>2024-03-25T13:03:15.000Z</time>
</trkpt>
<trkpt lat="45.8485100" lon="9.2875100">
	<ele>498.80</ele>
	<time>2024-03-25T13:03:16.000Z</time>
</trkpt>
<trkpt lat="45.8485100" lon="9.2875100">
	<ele>499.00</ele>
	<time>2024-03-25T13:03:17.000Z</time>
</trkpt>
<trkpt lat="45.8485100" lon="9.2875100">
	<ele>499.00</ele>
	<time>2024-03-25T13:03:18.000Z</time>
</trkpt>
<trkpt lat="45.8485100" lon="9.2875100">
	<ele>499.00</ele>
	<time>2024-03-25T13:03:19.000Z</time>
</trkpt>
<trkpt lat="45.8485100" lon="9.2875100">
	<ele>499.00</ele>
	<time>2024-03-25T13:03:20.000Z</time>
</trkpt>
<trkpt lat="45.8485100" lon="9.2875100">
	<ele>498.80</ele>
	<time>2024-03-25T13:03:21.000Z</time>
</trkpt>
<trkpt lat="45.8485100" lon="9.2875100">
	<ele>498.80</ele>
	<time>2024-03-25T13:03:22.000Z</time>
</trkpt>
<trkpt lat="45.8485100" lon="9.2875090">
	<ele>498.80</ele>
	<time>2024-03-25T13:03:23.000Z</time>
</trkpt>
<trkpt lat="45.8485100" lon="9.2875090">
	<ele>498.60</ele>
	<time>2024-03-25T13:03:24.000Z</time>
</trkpt>
<trkpt lat="45.8485100" lon="9.2875090">
	<ele>498.60</ele>
	<time>2024-03-25T13:03:25.000Z</time>
</trkpt>
<trkpt lat="45.8485100" lon="9.2875070">
	<ele>498.60</ele>
	<time>2024-03-25T13:03:26.000Z</time>
</trkpt>
<trkpt lat="45.8485100" lon="9.2875070">
	<ele>498.60</ele>
	<time>2024-03-25T13:03:27.000Z</time>
</trkpt>
<trkpt lat="45.8485120" lon="9.2875060">
	<ele>498.60</ele>
	<time>2024-03-25T13:03:28.000Z</time>
</trkpt>
<trkpt lat="45.8485150" lon="9.2875050">
	<ele>498.40</ele>
	<time>2024-03-25T13:03:29.000Z</time>
</trkpt>
<trkpt lat="45.8485160" lon="9.2875040">
	<ele>498.40</ele>
	<time>2024-03-25T13:03:30.000Z</time>
</trkpt>
<trkpt lat="45.8485180" lon="9.2875030">
	<ele>498.40</ele>
	<time>2024-03-25T13:03:31.000Z</time>
</trkpt>
<trkpt lat="45.8485180" lon="9.2875030">
	<ele>498.40</ele>
	<time>2024-03-25T13:03:32.000Z</time>
</trkpt>
<trkpt lat="45.8485180" lon="9.2875030">
	<ele>498.20</ele>
	<time>2024-03-25T13:03:33.000Z</time>
</trkpt>
<trkpt lat="45.8485180" lon="9.2875010">
	<ele>498.20</ele>
	<time>2024-03-25T13:03:34.000Z</time>
</trkpt>
<trkpt lat="45.8485190" lon="9.2875000">
	<ele>498.20</ele>
	<time>2024-03-25T13:03:35.000Z</time>
</trkpt>
<trkpt lat="45.8485190" lon="9.2875010">
	<ele>498.20</ele>
	<time>2024-03-25T13:03:36.000Z</time>
</trkpt>
<trkpt lat="45.8485210" lon="9.2875030">
	<ele>498.20</ele>
	<time>2024-03-25T13:03:37.000Z</time>
</trkpt>
<trkpt lat="45.8485210" lon="9.2875010">
	<ele>498.20</ele>
	<time>2024-03-25T13:03:38.000Z</time>
</trkpt>
<trkpt lat="45.8485220" lon="9.2874970">
	<ele>498.40</ele>
	<time>2024-03-25T13:03:39.000Z</time>
</trkpt>
<trkpt lat="45.8485230" lon="9.2874940">
	<ele>498.40</ele>
	<time>2024-03-25T13:03:40.000Z</time>
</trkpt>
<trkpt lat="45.8485240" lon="9.2874950">
	<ele>498.60</ele>
	<time>2024-03-25T13:03:41.000Z</time>
</trkpt>
<trkpt lat="45.8485230" lon="9.2874930">
	<ele>498.60</ele>
	<time>2024-03-25T13:03:42.000Z</time>
</trkpt>
<trkpt lat="45.8485230" lon="9.2874930">
	<ele>498.80</ele>
	<time>2024-03-25T13:03:43.000Z</time>
</trkpt>
<trkpt lat="45.8485230" lon="9.2874930">
	<ele>498.80</ele>
	<time>2024-03-25T13:03:44.000Z</time>
</trkpt>
<trkpt lat="45.8485230" lon="9.2874930">
	<ele>498.80</ele>
	<time>2024-03-25T13:03:45.000Z</time>
</trkpt>
<trkpt lat="45.8485230" lon="9.2874930">
	<ele>498.80</ele>
	<time>2024-03-25T13:03:46.000Z</time>
</trkpt>
<trkpt lat="45.8485230" lon="9.2874930">
	<ele>498.80</ele>
	<time>2024-03-25T13:03:47.000Z</time>
</trkpt>
<trkpt lat="45.8485230" lon="9.2874930">
	<ele>498.60</ele>
	<time>2024-03-25T13:03:48.000Z</time>
</trkpt>
<trkpt lat="45.8485230" lon="9.2874930">
	<ele>498.60</ele>
	<time>2024-03-25T13:03:49.000Z</time>
</trkpt>
<trkpt lat="45.8485230" lon="9.2874920">
	<ele>498.60</ele>
	<time>2024-03-25T13:03:50.000Z</time>
</trkpt>
<trkpt lat="45.8485230" lon="9.2874920">
	<ele>498.60</ele>
	<time>2024-03-25T13:03:51.000Z</time>
</trkpt>
<trkpt lat="45.8485220" lon="9.2874910">
	<ele>498.60</ele>
	<time>2024-03-25T13:03:52.000Z</time>
</trkpt>
<trkpt lat="45.8485220" lon="9.2874910">
	<ele>498.40</ele>
	<time>2024-03-25T13:03:53.000Z</time>
</trkpt>
<trkpt lat="45.8485220" lon="9.2874910">
	<ele>498.40</ele>
	<time>2024-03-25T13:03:54.000Z</time>
</trkpt>
<trkpt lat="45.8485210" lon="9.2874910">
	<ele>498.40</ele>
	<time>2024-03-25T13:03:55.000Z</time>
</trkpt>
<trkpt lat="45.8485210" lon="9.2874910">
	<ele>498.20</ele>
	<time>2024-03-25T13:03:56.000Z</time>
</trkpt>
<trkpt lat="45.8485210" lon="9.2874910">
	<ele>498.20</ele>
	<time>2024-03-25T13:03:57.000Z</time>
</trkpt>
<trkpt lat="45.8485210" lon="9.2874910">
	<ele>498.20</ele>
	<time>2024-03-25T13:03:58.000Z</time>
</trkpt>
<trkpt lat="45.8485210" lon="9.2874900">
	<ele>498.20</ele>
	<time>2024-03-25T13:03:59.000Z</time>
</trkpt>
<trkpt lat="45.8485210" lon="9.2874900">
	<ele>498.20</ele>
	<time>2024-03-25T13:04:00.000Z</time>
</trkpt>
<trkpt lat="45.8485210" lon="9.2874890">
	<ele>498.20</ele>
	<time>2024-03-25T13:04:01.000Z</time>
</trkpt>
<trkpt lat="45.8485210" lon="9.2874890">
	<ele>498.20</ele>
	<time>2024-03-25T13:04:02.000Z</time>
</trkpt>
<trkpt lat="45.8485210" lon="9.2874890">
	<ele>498.40</ele>
	<time>2024-03-25T13:04:03.000Z</time>
</trkpt>
<trkpt lat="45.8485210" lon="9.2874890">
	<ele>498.40</ele>
	<time>2024-03-25T13:04:04.000Z</time>
</trkpt>
<trkpt lat="45.8485210" lon="9.2874890">
	<ele>498.40</ele>
	<time>2024-03-25T13:04:05.000Z</time>
</trkpt>
<trkpt lat="45.8485210" lon="9.2874890">
	<ele>498.40</ele>
	<time>2024-03-25T13:04:06.000Z</time>
</trkpt>
<trkpt lat="45.8485220" lon="9.2874890">
	<ele>498.60</ele>
	<time>2024-03-25T13:04:07.000Z</time>
</trkpt>
<trkpt lat="45.8485220" lon="9.2874890">
	<ele>498.60</ele>
	<time>2024-03-25T13:04:08.000Z</time>
</trkpt>
<trkpt lat="45.8485220" lon="9.2874880">
	<ele>498.40</ele>
	<time>2024-03-25T13:04:09.000Z</time>
</trkpt>
<trkpt lat="45.8485220" lon="9.2874880">
	<ele>498.60</ele>
	<time>2024-03-25T13:04:10.000Z</time>
</trkpt>
<trkpt lat="45.8485220" lon="9.2874880">
	<ele>498.60</ele>
	<time>2024-03-25T13:04:11.000Z</time>
</trkpt>
<trkpt lat="45.8485220" lon="9.2874880">
	<ele>498.60</ele>
	<time>2024-03-25T13:04:12.000Z</time>
</trkpt>
<trkpt lat="45.8485220" lon="9.2874870">
	<ele>498.60</ele>
	<time>2024-03-25T13:04:13.000Z</time>
</trkpt>
<trkpt lat="45.8485220" lon="9.2874870">
	<ele>498.60</ele>
	<time>2024-03-25T13:04:14.000Z</time>
</trkpt>
<trkpt lat="45.8485220" lon="9.2874860">
	<ele>498.60</ele>
	<time>2024-03-25T13:04:15.000Z</time>
</trkpt>
<trkpt lat="45.8485230" lon="9.2874850">
	<ele>498.60</ele>
	<time>2024-03-25T13:04:16.000Z</time>
</trkpt>
<trkpt lat="45.8485230" lon="9.2874850">
	<ele>498.60</ele>
	<time>2024-03-25T13:04:17.000Z</time>
</trkpt>
<trkpt lat="45.8485230" lon="9.2874850">
	<ele>498.60</ele>
	<time>2024-03-25T13:04:18.000Z</time>
</trkpt>
<trkpt lat="45.8485230" lon="9.2874850">
	<ele>498.60</ele>
	<time>2024-03-25T13:04:19.000Z</time>
</trkpt>
<trkpt lat="45.8485230" lon="9.2874840">
	<ele>498.60</ele>
	<time>2024-03-25T13:04:20.000Z</time>
</trkpt>
<trkpt lat="45.8485240" lon="9.2874800">
	<ele>498.60</ele>
	<time>2024-03-25T13:04:21.000Z</time>
</trkpt>
<trkpt lat="45.8485240" lon="9.2874790">
	<ele>498.60</ele>
	<time>2024-03-25T13:04:22.000Z</time>
</trkpt>
<trkpt lat="45.8485240" lon="9.2874790">
	<ele>498.60</ele>
	<time>2024-03-25T13:04:23.000Z</time>
</trkpt>
<trkpt lat="45.8485240" lon="9.2874780">
	<ele>498.60</ele>
	<time>2024-03-25T13:04:24.000Z</time>
</trkpt>
<trkpt lat="45.8485250" lon="9.2874780">
	<ele>498.60</ele>
	<time>2024-03-25T13:04:25.000Z</time>
</trkpt>
<trkpt lat="45.8485250" lon="9.2874780">
	<ele>498.60</ele>
	<time>2024-03-25T13:04:26.000Z</time>
</trkpt>
<trkpt lat="45.8485250" lon="9.2874780">
	<ele>498.60</ele>
	<time>2024-03-25T13:04:27.000Z</time>
</trkpt>
<trkpt lat="45.8485250" lon="9.2874780">
	<ele>498.60</ele>
	<time>2024-03-25T13:04:28.000Z</time>
</trkpt>
<trkpt lat="45.8485250" lon="9.2874770">
	<ele>498.60</ele>
	<time>2024-03-25T13:04:29.000Z</time>
</trkpt>
<trkpt lat="45.8485250" lon="9.2874770">
	<ele>498.60</ele>
	<time>2024-03-25T13:04:30.000Z</time>
</trkpt>
<trkpt lat="45.8485250" lon="9.2874770">
	<ele>498.60</ele>
	<time>2024-03-25T13:04:31.000Z</time>
</trkpt>
<trkpt lat="45.8485250" lon="9.2874770">
	<ele>498.60</ele>
	<time>2024-03-25T13:04:32.000Z</time>
</trkpt>
<trkpt lat="45.8485260" lon="9.2874760">
	<ele>498.60</ele>
	<time>2024-03-25T13:04:33.000Z</time>
</trkpt>
<trkpt lat="45.8485260" lon="9.2874750">
	<ele>498.60</ele>
	<time>2024-03-25T13:04:34.000Z</time>
</trkpt>
<trkpt lat="45.8485270" lon="9.2874740">
	<ele>498.60</ele>
	<time>2024-03-25T13:04:35.000Z</time>
</trkpt>
<trkpt lat="45.8485270" lon="9.2874740">
	<ele>498.60</ele>
	<time>2024-03-25T13:04:36.000Z</time>
</trkpt>
<trkpt lat="45.8485270" lon="9.2874740">
	<ele>498.60</ele>
	<time>2024-03-25T13:04:37.000Z</time>
</trkpt>
<trkpt lat="45.8485270" lon="9.2874740">
	<ele>498.60</ele>
	<time>2024-03-25T13:04:38.000Z</time>
</trkpt>
<trkpt lat="45.8485270" lon="9.2874730">
	<ele>498.60</ele>
	<time>2024-03-25T13:04:39.000Z</time>
</trkpt>
<trkpt lat="45.8485260" lon="9.2874730">
	<ele>498.60</ele>
	<time>2024-03-25T13:04:40.000Z</time>
</trkpt>
<trkpt lat="45.8485260" lon="9.2874730">
	<ele>498.60</ele>
	<time>2024-03-25T13:04:41.000Z</time>
</trkpt>
<trkpt lat="45.8485260" lon="9.2874730">
	<ele>498.60</ele>
	<time>2024-03-25T13:04:42.000Z</time>
</trkpt>
<trkpt lat="45.8485260" lon="9.2874730">
	<ele>498.60</ele>
	<time>2024-03-25T13:04:43.000Z</time>
</trkpt>
<trkpt lat="45.8485260" lon="9.2874730">
	<ele>498.60</ele>
	<time>2024-03-25T13:04:44.000Z</time>
</trkpt>
<trkpt lat="45.8485260" lon="9.2874730">
	<ele>498.60</ele>
	<time>2024-03-25T13:04:45.000Z</time>
</trkpt>
<trkpt lat="45.8485260" lon="9.2874730">
	<ele>498.60</ele>
	<time>2024-03-25T13:04:46.000Z</time>
</trkpt>
<trkpt lat="45.8485270" lon="9.2874730">
	<ele>498.60</ele>
	<time>2024-03-25T13:04:47.000Z</time>
</trkpt>
<trkpt lat="45.8485270" lon="9.2874730">
	<ele>498.60</ele>
	<time>2024-03-25T13:04:48.000Z</time>
</trkpt>
<trkpt lat="45.8485270" lon="9.2874730">
	<ele>498.60</ele>
	<time>2024-03-25T13:04:49.000Z</time>
</trkpt>
<trkpt lat="45.8485270" lon="9.2874730">
	<ele>498.60</ele>
	<time>2024-03-25T13:04:50.000Z</time>
</trkpt>
<trkpt lat="45.8485270" lon="9.2874730">
	<ele>498.60</ele>
	<time>2024-03-25T13:04:51.000Z</time>
</trkpt>
<trkpt lat="45.8485270" lon="9.2874740">
	<ele>498.60</ele>
	<time>2024-03-25T13:04:52.000Z</time>
</trkpt>
<trkpt lat="45.8485270" lon="9.2874740">
	<ele>498.60</ele>
	<time>2024-03-25T13:04:53.000Z</time>
</trkpt>
<trkpt lat="45.8485270" lon="9.2874810">
	<ele>498.60</ele>
	<time>2024-03-25T13:04:54.000Z</time>
</trkpt>
<trkpt lat="45.8485270" lon="9.2874840">
	<ele>498.60</ele>
	<time>2024-03-25T13:04:55.000Z</time>
</trkpt>
<trkpt lat="45.8485270" lon="9.2874850">
	<ele>498.60</ele>
	<time>2024-03-25T13:04:56.000Z</time>
</trkpt>
<trkpt lat="45.8485330" lon="9.2874860">
	<ele>498.60</ele>
	<time>2024-03-25T13:04:57.000Z</time>
</trkpt>
<trkpt lat="45.8485370" lon="9.2874860">
	<ele>498.60</ele>
	<time>2024-03-25T13:04:58.000Z</time>
</trkpt>
<trkpt lat="45.8485410" lon="9.2874870">
	<ele>498.60</ele>
	<time>2024-03-25T13:04:59.000Z</time>
</trkpt>
<trkpt lat="45.8485430" lon="9.2874870">
	<ele>498.60</ele>
	<time>2024-03-25T13:05:00.000Z</time>
</trkpt>
<trkpt lat="45.8485440" lon="9.2874870">
	<ele>498.60</ele>
	<time>2024-03-25T13:05:01.000Z</time>
</trkpt>
<trkpt lat="45.8485440" lon="9.2874880">
	<ele>498.60</ele>
	<time>2024-03-25T13:05:02.000Z</time>
</trkpt>
<trkpt lat="45.8485450" lon="9.2874880">
	<ele>498.60</ele>
	<time>2024-03-25T13:05:03.000Z</time>
</trkpt>
<trkpt lat="45.8485450" lon="9.2874880">
	<ele>498.60</ele>
	<time>2024-03-25T13:05:04.000Z</time>
</trkpt>
<trkpt lat="45.8485450" lon="9.2874890">
	<ele>498.60</ele>
	<time>2024-03-25T13:05:05.000Z</time>
</trkpt>
<trkpt lat="45.8485450" lon="9.2874890">
	<ele>498.60</ele>
	<time>2024-03-25T13:05:06.000Z</time>
</trkpt>
<trkpt lat="45.8485470" lon="9.2874910">
	<ele>498.60</ele>
	<time>2024-03-25T13:05:07.000Z</time>
</trkpt>
<trkpt lat="45.8485630" lon="9.2874880">
	<ele>498.60</ele>
	<time>2024-03-25T13:05:08.000Z</time>
</trkpt>
<trkpt lat="45.8485810" lon="9.2874890">
	<ele>498.60</ele>
	<time>2024-03-25T13:05:09.000Z</time>
</trkpt>
<trkpt lat="45.8485960" lon="9.2874860">
	<ele>498.60</ele>
	<time>2024-03-25T13:05:10.000Z</time>
</trkpt>
<trkpt lat="45.8486140" lon="9.2874820">
	<ele>498.60</ele>
	<time>2024-03-25T13:05:11.000Z</time>
</trkpt>
<trkpt lat="45.8486280" lon="9.2874770">
	<ele>498.60</ele>
	<time>2024-03-25T13:05:12.000Z</time>
</trkpt>
<trkpt lat="45.8486430" lon="9.2874680">
	<ele>498.60</ele>
	<time>2024-03-25T13:05:13.000Z</time>
</trkpt>
<trkpt lat="45.8486540" lon="9.2874620">
	<ele>498.60</ele>
	<time>2024-03-25T13:05:14.000Z</time>
</trkpt>
<trkpt lat="45.8486640" lon="9.2874510">
	<ele>498.60</ele>
	<time>2024-03-25T13:05:15.000Z</time>
</trkpt>
<trkpt lat="45.8486730" lon="9.2874360">
	<ele>498.60</ele>
	<time>2024-03-25T13:05:16.000Z</time>
</trkpt>
<trkpt lat="45.8486780" lon="9.2874240">
	<ele>498.60</ele>
	<time>2024-03-25T13:05:17.000Z</time>
</trkpt>
<trkpt lat="45.8486860" lon="9.2874130">
	<ele>498.20</ele>
	<time>2024-03-25T13:05:18.000Z</time>
</trkpt>
<trkpt lat="45.8487040" lon="9.2874020">
	<ele>498.00</ele>
	<time>2024-03-25T13:05:19.000Z</time>
</trkpt>
<trkpt lat="45.8487170" lon="9.2873880">
	<ele>497.60</ele>
	<time>2024-03-25T13:05:20.000Z</time>
</trkpt>
<trkpt lat="45.8487230" lon="9.2873720">
	<ele>497.60</ele>
	<time>2024-03-25T13:05:21.000Z</time>
</trkpt>
<trkpt lat="45.8487280" lon="9.2873560">
	<ele>497.40</ele>
	<time>2024-03-25T13:05:22.000Z</time>
</trkpt>
<trkpt lat="45.8487310" lon="9.2873400">
	<ele>497.20</ele>
	<time>2024-03-25T13:05:23.000Z</time>
</trkpt>
<trkpt lat="45.8487370" lon="9.2873200">
	<ele>497.00</ele>
	<time>2024-03-25T13:05:24.000Z</time>
</trkpt>
<trkpt lat="45.8487490" lon="9.2873060">
	<ele>497.00</ele>
	<time>2024-03-25T13:05:25.000Z</time>
</trkpt>
<trkpt lat="45.8487540" lon="9.2872940">
	<ele>497.00</ele>
	<time>2024-03-25T13:05:26.000Z</time>
</trkpt>
<trkpt lat="45.8487590" lon="9.2872790">
	<ele>497.00</ele>
	<time>2024-03-25T13:05:27.000Z</time>
</trkpt>
<trkpt lat="45.8487590" lon="9.2872620">
	<ele>496.80</ele>
	<time>2024-03-25T13:05:28.000Z</time>
</trkpt>
<trkpt lat="45.8487640" lon="9.2872400">
	<ele>496.80</ele>
	<time>2024-03-25T13:05:29.000Z</time>
</trkpt>
<trkpt lat="45.8487680" lon="9.2872180">
	<ele>496.80</ele>
	<time>2024-03-25T13:05:30.000Z</time>
</trkpt>
<trkpt lat="45.8487690" lon="9.2871910">
	<ele>496.80</ele>
	<time>2024-03-25T13:05:31.000Z</time>
</trkpt>
<trkpt lat="45.8487700" lon="9.2871690">
	<ele>496.80</ele>
	<time>2024-03-25T13:05:32.000Z</time>
</trkpt>
<trkpt lat="45.8487760" lon="9.2871520">
	<ele>496.80</ele>
	<time>2024-03-25T13:05:33.000Z</time>
</trkpt>
<trkpt lat="45.8487810" lon="9.2871360">
	<ele>496.60</ele>
	<time>2024-03-25T13:05:34.000Z</time>
</trkpt>
<trkpt lat="45.8487840" lon="9.2871230">
	<ele>496.60</ele>
	<time>2024-03-25T13:05:35.000Z</time>
</trkpt>
<trkpt lat="45.8487850" lon="9.2871140">
	<ele>496.40</ele>
	<time>2024-03-25T13:05:36.000Z</time>
</trkpt>
<trkpt lat="45.8487860" lon="9.2871020">
	<ele>496.20</ele>
	<time>2024-03-25T13:05:37.000Z</time>
</trkpt>
<trkpt lat="45.8487900" lon="9.2870910">
	<ele>496.00</ele>
	<time>2024-03-25T13:05:38.000Z</time>
</trkpt>
<trkpt lat="45.8487990" lon="9.2870820">
	<ele>496.00</ele>
	<time>2024-03-25T13:05:39.000Z</time>
</trkpt>
<trkpt lat="45.8488140" lon="9.2870760">
	<ele>495.80</ele>
	<time>2024-03-25T13:05:40.000Z</time>
</trkpt>
<trkpt lat="45.8488250" lon="9.2870680">
	<ele>495.60</ele>
	<time>2024-03-25T13:05:41.000Z</time>
</trkpt>
<trkpt lat="45.8488390" lon="9.2870590">
	<ele>495.40</ele>
	<time>2024-03-25T13:05:42.000Z</time>
</trkpt>
<trkpt lat="45.8488530" lon="9.2870490">
	<ele>495.00</ele>
	<time>2024-03-25T13:05:43.000Z</time>
</trkpt>
<trkpt lat="45.8488600" lon="9.2870370">
	<ele>495.00</ele>
	<time>2024-03-25T13:05:44.000Z</time>
</trkpt>
<trkpt lat="45.8488760" lon="9.2870270">
	<ele>494.80</ele>
	<time>2024-03-25T13:05:45.000Z</time>
</trkpt>
</trkseg>
</trk>
</gpx>
